<?xml version='1.0' encoding='UTF-8'?><gpx version="1.1" creator="JPX - https://github.com/jenetics/jpx" xmlns="http://www.topografix.com/GPX/1/1"><trk><trkseg><trkpt lat="29.69475433665865" lon="-9.726418599829326"><ele>245.0</ele><time>2026-04-28T07:28:24Z</time></trkpt><trkpt lat="29.6947041816245" lon="-9.726481868654474"><ele>245.0</ele><time>2026-04-28T07:28:26Z</time></trkpt><trkpt lat="29.694637129383654" lon="-9.726531014480427"><ele>245.0</ele><time>2026-04-28T07:28:28Z</time></trkpt><trkpt lat="29.694554827685888" lon="-9.726479147736761"><ele>245.0</ele><time>2026-04-28T07:28:30Z</time></trkpt><trkpt lat="29.694480770268974" lon="-9.726392635856444"><ele>245.0</ele><time>2026-04-28T07:28:32Z</time></trkpt><trkpt lat="29.694406217812983" lon="-9.72630013071628"><ele>244.57142857142856</ele><time>2026-04-28T07:28:34Z</time></trkpt><trkpt lat="29.69434465054213" lon="-9.726273527756423"><ele>244.14285714285714</ele><time>2026-04-28T07:28:36Z</time></trkpt><trkpt lat="29.694289689041014" lon="-9.726309354021915"><ele>243.71428571428572</ele><time>2026-04-28T07:28:39Z</time></trkpt><trkpt lat="29.694238012208427" lon="-9.726378623473945"><ele>243.28571428571428</ele><time>2026-04-28T07:29:00Z</time></trkpt><trkpt lat="29.69420547551444" lon="-9.726452842336329"><ele>242.85714285714283</ele><time>2026-04-28T07:29:02Z</time></trkpt><trkpt lat="29.69414357800472" lon="-9.726532229749587"><ele>242.42857142857142</ele><time>2026-04-28T07:29:05Z</time></trkpt><trkpt lat="29.694070103222984" lon="-9.72654576911827"><ele>242.0</ele><time>2026-04-28T07:29:07Z</time></trkpt><trkpt lat="29.693979543136592" lon="-9.726490747987977"><ele>242.0</ele><time>2026-04-28T07:29:09Z</time></trkpt><trkpt lat="29.6939303381797" lon="-9.72644230982796"><ele>242.0</ele><time>2026-04-28T07:29:10Z</time></trkpt><trkpt lat="29.693875774548754" lon="-9.726383527539696"><ele>242.0</ele><time>2026-04-28T07:29:11Z</time></trkpt><trkpt lat="29.693820858408294" lon="-9.726329340125117"><ele>242.0</ele><time>2026-04-28T07:29:12Z</time></trkpt><trkpt lat="29.693709236178265" lon="-9.726216949722074"><ele>242.0</ele><time>2026-04-28T07:29:14Z</time></trkpt><trkpt lat="29.69362940013597" lon="-9.726131827713107"><ele>242.39999999999998</ele><time>2026-04-28T07:29:15Z</time></trkpt><trkpt lat="29.693563292882963" lon="-9.726065203413784"><ele>242.79999999999998</ele><time>2026-04-28T07:29:16Z</time></trkpt><trkpt lat="29.693500133835897" lon="-9.726013089098783"><ele>243.2</ele><time>2026-04-28T07:29:17Z</time></trkpt><trkpt lat="29.693427932178206" lon="-9.725947757372916"><ele>243.6</ele><time>2026-04-28T07:29:18Z</time></trkpt><trkpt lat="29.69335043001416" lon="-9.725875547244481"><ele>244.0</ele><time>2026-04-28T07:29:19Z</time></trkpt><trkpt lat="29.693265875914626" lon="-9.725797773145619"><ele>244.0</ele><time>2026-04-28T07:29:20Z</time></trkpt><trkpt lat="29.6931792404592" lon="-9.725715823993811"><ele>243.99999999999997</ele><time>2026-04-28T07:29:21Z</time></trkpt><trkpt lat="29.693102037763456" lon="-9.725644816488414"><ele>243.99999999999997</ele><time>2026-04-28T07:29:21.999Z</time></trkpt><trkpt lat="29.693033024813573" lon="-9.725578484951884"><ele>244.0</ele><time>2026-04-28T07:29:22.999Z</time></trkpt><trkpt lat="29.692963569165485" lon="-9.72551154536676"><ele>244.0</ele><time>2026-04-28T07:29:23.999Z</time></trkpt><trkpt lat="29.69289696908511" lon="-9.72544977012407"><ele>243.99999999999997</ele><time>2026-04-28T07:29:24.999Z</time></trkpt><trkpt lat="29.692840427303718" lon="-9.725396827135787"><ele>244.0</ele><time>2026-04-28T07:29:25.999Z</time></trkpt><trkpt lat="29.69276225911584" lon="-9.725327407717106"><ele>244.0</ele><time>2026-04-28T07:29:28Z</time></trkpt><trkpt lat="29.6927066358163" lon="-9.725279758299846"><ele>244.0</ele><time>2026-04-28T07:29:30Z</time></trkpt><trkpt lat="29.69265994206314" lon="-9.725219964127824"><ele>243.99999999999997</ele><time>2026-04-28T07:29:32Z</time></trkpt><trkpt lat="29.692581717311356" lon="-9.725197760586157"><ele>244.0</ele><time>2026-04-28T07:29:35Z</time></trkpt><trkpt lat="29.69246583381459" lon="-9.725154316479408"><ele>244.6</ele><time>2026-04-28T07:29:38Z</time></trkpt><trkpt lat="29.692386704079826" lon="-9.725110147798606"><ele>245.2</ele><time>2026-04-28T07:29:39Z</time></trkpt><trkpt lat="29.69225912244874" lon="-9.725001902943447"><ele>245.79999999999998</ele><time>2026-04-28T07:29:40Z</time></trkpt><trkpt lat="29.692177798972345" lon="-9.72492283654468"><ele>246.39999999999998</ele><time>2026-04-28T07:29:41Z</time></trkpt><trkpt lat="29.692089210779635" lon="-9.724902211048715"><ele>247.0</ele><time>2026-04-28T07:29:42Z</time></trkpt><trkpt lat="29.69197336252655" lon="-9.724855063872678"><ele>246.75</ele><time>2026-04-28T07:29:43Z</time></trkpt><trkpt lat="29.69185238831612" lon="-9.724814977044948"><ele>246.5</ele><time>2026-04-28T07:29:44Z</time></trkpt><trkpt lat="29.69172277005017" lon="-9.724787720165386"><ele>246.25</ele><time>2026-04-28T07:29:45Z</time></trkpt><trkpt lat="29.691593674524302" lon="-9.724762389033115"><ele>246.0</ele><time>2026-04-28T07:29:46Z</time></trkpt><trkpt lat="29.69147667517224" lon="-9.724740700860444"><ele>246.0</ele><time>2026-04-28T07:29:47Z</time></trkpt><trkpt lat="29.691362714799446" lon="-9.724717423558554"><ele>246.00000000000003</ele><time>2026-04-28T07:29:48Z</time></trkpt><trkpt lat="29.69125366358479" lon="-9.724700412415975"><ele>246.00000000000003</ele><time>2026-04-28T07:29:49Z</time></trkpt><trkpt lat="29.691160335855447" lon="-9.724686089868959"><ele>246.0</ele><time>2026-04-28T07:29:50Z</time></trkpt><trkpt lat="29.69106819458762" lon="-9.72466992080594"><ele>246.0</ele><time>2026-04-28T07:29:51Z</time></trkpt><trkpt lat="29.690972657327073" lon="-9.724651185854436"><ele>246.0</ele><time>2026-04-28T07:29:52Z</time></trkpt><trkpt lat="29.69087112017995" lon="-9.724631587957257"><ele>246.00000000000003</ele><time>2026-04-28T07:29:53Z</time></trkpt><trkpt lat="29.690766660191677" lon="-9.724612639464961"><ele>246.00000000000003</ele><time>2026-04-28T07:29:54Z</time></trkpt><trkpt lat="29.69065798049192" lon="-9.72459686921527"><ele>246.0</ele><time>2026-04-28T07:29:55Z</time></trkpt><trkpt lat="29.690550627343843" lon="-9.724581330443948"><ele>246.0</ele><time>2026-04-28T07:29:56Z</time></trkpt><trkpt lat="29.690449411705018" lon="-9.724565834840021"><ele>246.0</ele><time>2026-04-28T07:29:57Z</time></trkpt><trkpt lat="29.69035636761974" lon="-9.72454828329577"><ele>246.00000000000003</ele><time>2026-04-28T07:29:58Z</time></trkpt><trkpt lat="29.69026175746813" lon="-9.724529455619917"><ele>246.00000000000003</ele><time>2026-04-28T07:29:59Z</time></trkpt><trkpt lat="29.690166619962483" lon="-9.72451167904871"><ele>246.0</ele><time>2026-04-28T07:30:00Z</time></trkpt><trkpt lat="29.690072464829985" lon="-9.724497143137546"><ele>246.0</ele><time>2026-04-28T07:30:01Z</time></trkpt><trkpt lat="29.689978446274328" lon="-9.724480022700904"><ele>246.0</ele><time>2026-04-28T07:30:02Z</time></trkpt><trkpt lat="29.689887614914717" lon="-9.724462103491689"><ele>246.00000000000003</ele><time>2026-04-28T07:30:03Z</time></trkpt><trkpt lat="29.689791324554232" lon="-9.724448243517894"><ele>246.00000000000003</ele><time>2026-04-28T07:30:04Z</time></trkpt><trkpt lat="29.689692711904645" lon="-9.724436868168313"><ele>246.0</ele><time>2026-04-28T07:30:05Z</time></trkpt><trkpt lat="29.689588602741782" lon="-9.724422944550629"><ele>246.0</ele><time>2026-04-28T07:30:06Z</time></trkpt><trkpt lat="29.689486432065575" lon="-9.724406690915389"><ele>246.8</ele><time>2026-04-28T07:30:07Z</time></trkpt><trkpt lat="29.68938192542027" lon="-9.724389926700574"><ele>247.60000000000002</ele><time>2026-04-28T07:30:08Z</time></trkpt><trkpt lat="29.689279672739612" lon="-9.724378177229733"><ele>248.4</ele><time>2026-04-28T07:30:09Z</time></trkpt><trkpt lat="29.689182480796877" lon="-9.724368248744483"><ele>249.2</ele><time>2026-04-28T07:30:10Z</time></trkpt><trkpt lat="29.68908565024178" lon="-9.724355935276451"><ele>250.0</ele><time>2026-04-28T07:30:11Z</time></trkpt><trkpt lat="29.688989440337117" lon="-9.72434350977059"><ele>249.99999999999997</ele><time>2026-04-28T07:30:12Z</time></trkpt><trkpt lat="29.688906954915467" lon="-9.724333316531933"><ele>250.0</ele><time>2026-04-28T07:30:13Z</time></trkpt><trkpt lat="29.688840214189206" lon="-9.72432662279384"><ele>250.0</ele><time>2026-04-28T07:30:14Z</time></trkpt><trkpt lat="29.688772773813437" lon="-9.724317298506257"><ele>250.0</ele><time>2026-04-28T07:30:15Z</time></trkpt><trkpt lat="29.68869609961213" lon="-9.724309008350199"><ele>249.99999999999997</ele><time>2026-04-28T07:30:16Z</time></trkpt><trkpt lat="29.688621695005004" lon="-9.724304358388247"><ele>250.0</ele><time>2026-04-28T07:30:17Z</time></trkpt><trkpt lat="29.688506208623657" lon="-9.724288767379804"><ele>249.83333333333331</ele><time>2026-04-28T07:30:19Z</time></trkpt><trkpt lat="29.688387410843546" lon="-9.724258818136294"><ele>249.66666666666666</ele><time>2026-04-28T07:30:21Z</time></trkpt><trkpt lat="29.688317132138305" lon="-9.724243235966012"><ele>249.5</ele><time>2026-04-28T07:30:22Z</time></trkpt><trkpt lat="29.68823954911636" lon="-9.724231539218978"><ele>249.33333333333331</ele><time>2026-04-28T07:30:23Z</time></trkpt><trkpt lat="29.688161746270158" lon="-9.72421681072389"><ele>249.16666666666666</ele><time>2026-04-28T07:30:24Z</time></trkpt><trkpt lat="29.688085282008114" lon="-9.724203469692505"><ele>249.0</ele><time>2026-04-28T07:30:25Z</time></trkpt><trkpt lat="29.68801578849453" lon="-9.72419413615816"><ele>249.0</ele><time>2026-04-28T07:30:26Z</time></trkpt><trkpt lat="29.68793535591587" lon="-9.72418390500915"><ele>249.0</ele><time>2026-04-28T07:30:27Z</time></trkpt><trkpt lat="29.687856107981656" lon="-9.724173983738355"><ele>249.0</ele><time>2026-04-28T07:30:28Z</time></trkpt><trkpt lat="29.687778376050375" lon="-9.724162430744418"><ele>249.0</ele><time>2026-04-28T07:30:29Z</time></trkpt><trkpt lat="29.687664223354425" lon="-9.724149211672326"><ele>249.0</ele><time>2026-04-28T07:30:31Z</time></trkpt><trkpt lat="29.68757864374946" lon="-9.724157380061403"><ele>249.0</ele><time>2026-04-28T07:30:33Z</time></trkpt><trkpt lat="29.68752180368372" lon="-9.724197787866315"><ele>249.14285714285714</ele><time>2026-04-28T07:30:35Z</time></trkpt><trkpt lat="29.687474928496528" lon="-9.724254257790836"><ele>249.28571428571428</ele><time>2026-04-28T07:30:37Z</time></trkpt><trkpt lat="29.687405239758846" lon="-9.724322933216047"><ele>249.42857142857142</ele><time>2026-04-28T07:30:40Z</time></trkpt><trkpt lat="29.687366581608316" lon="-9.724262308186683"><ele>249.57142857142856</ele><time>2026-04-28T07:31:45Z</time></trkpt><trkpt lat="29.687310244731442" lon="-9.724218235453867"><ele>249.71428571428572</ele><time>2026-04-28T07:33:14Z</time></trkpt><trkpt lat="29.687253329506966" lon="-9.724268642174492"><ele>249.85714285714283</ele><time>2026-04-28T07:34:10Z</time></trkpt><trkpt lat="29.68723240595726" lon="-9.724346888436868"><ele>250.0</ele><time>2026-04-28T07:34:35Z</time></trkpt><trkpt lat="29.68724243185279" lon="-9.724261832705322"><ele>250.0</ele><time>2026-04-28T07:34:45Z</time></trkpt><trkpt lat="29.68719228684638" lon="-9.724168974319836"><ele>250.0</ele><time>2026-04-28T07:39:57Z</time></trkpt><trkpt lat="29.687147008069456" lon="-9.724094367889883"><ele>250.0</ele><time>2026-04-28T07:40:00Z</time></trkpt><trkpt lat="29.687070616018502" lon="-9.724017552448032"><ele>250.0</ele><time>2026-04-28T07:40:03Z</time></trkpt><trkpt lat="29.686958532293215" lon="-9.723989008031058"><ele>250.0</ele><time>2026-04-28T07:40:05Z</time></trkpt><trkpt lat="29.686883040046837" lon="-9.723978081896014"><ele>250.0</ele><time>2026-04-28T07:40:06Z</time></trkpt><trkpt lat="29.686800988854365" lon="-9.723970927396524"><ele>250.0</ele><time>2026-04-28T07:40:07Z</time></trkpt><trkpt lat="29.68670737718874" lon="-9.723958837318513"><ele>250.0</ele><time>2026-04-28T07:40:08Z</time></trkpt><trkpt lat="29.68660767507253" lon="-9.723942152364529"><ele>250.0</ele><time>2026-04-28T07:40:09Z</time></trkpt><trkpt lat="29.68650467741722" lon="-9.723922208582254"><ele>250.0</ele><time>2026-04-28T07:40:10Z</time></trkpt><trkpt lat="29.68639552358106" lon="-9.723907254844098"><ele>250.0</ele><time>2026-04-28T07:40:11Z</time></trkpt><trkpt lat="29.686279096721943" lon="-9.723892360050769"><ele>250.0</ele><time>2026-04-28T07:40:12Z</time></trkpt><trkpt lat="29.686165327350853" lon="-9.723874773683193"><ele>250.0</ele><time>2026-04-28T07:40:13Z</time></trkpt><trkpt lat="29.686057556707585" lon="-9.723855533889317"><ele>250.0</ele><time>2026-04-28T07:40:14Z</time></trkpt><trkpt lat="29.685951636150786" lon="-9.723840135807357"><ele>250.0</ele><time>2026-04-28T07:40:15Z</time></trkpt><trkpt lat="29.6858522511428" lon="-9.723822613746783"><ele>250.2</ele><time>2026-04-28T07:40:16Z</time></trkpt><trkpt lat="29.685754141688385" lon="-9.723807780783899"><ele>250.4</ele><time>2026-04-28T07:40:17Z</time></trkpt><trkpt lat="29.68564625475845" lon="-9.723791953813972"><ele>250.60000000000002</ele><time>2026-04-28T07:40:18Z</time></trkpt><trkpt lat="29.68553583361891" lon="-9.723774972686176"><ele>250.8</ele><time>2026-04-28T07:40:19Z</time></trkpt><trkpt lat="29.685420487397096" lon="-9.723757780440662"><ele>251.0</ele><time>2026-04-28T07:40:20Z</time></trkpt><trkpt lat="29.6852947557822" lon="-9.72373748474372"><ele>251.0</ele><time>2026-04-28T07:40:21Z</time></trkpt><trkpt lat="29.68516650744168" lon="-9.723717961801333"><ele>251.0</ele><time>2026-04-28T07:40:22Z</time></trkpt><trkpt lat="29.685048010253265" lon="-9.723697830468325"><ele>251.0</ele><time>2026-04-28T07:40:23Z</time></trkpt><trkpt lat="29.684940250806726" lon="-9.723682890892967"><ele>251.0</ele><time>2026-04-28T07:40:24Z</time></trkpt><trkpt lat="29.684836443206464" lon="-9.723661445300428"><ele>251.0</ele><time>2026-04-28T07:40:25Z</time></trkpt><trkpt lat="29.684716919686757" lon="-9.723635375631329"><ele>251.0</ele><time>2026-04-28T07:40:26Z</time></trkpt><trkpt lat="29.6845879010818" lon="-9.723616658437043"><ele>251.0</ele><time>2026-04-28T07:40:27Z</time></trkpt><trkpt lat="29.68445311035968" lon="-9.72359219258954"><ele>251.0</ele><time>2026-04-28T07:40:28Z</time></trkpt><trkpt lat="29.684318784019215" lon="-9.723575827836576"><ele>252.25</ele><time>2026-04-28T07:40:29Z</time></trkpt><trkpt lat="29.684177490107455" lon="-9.723552476480533"><ele>253.5</ele><time>2026-04-28T07:40:30Z</time></trkpt><trkpt lat="29.684032952878795" lon="-9.723531396276856"><ele>254.75</ele><time>2026-04-28T07:40:31Z</time></trkpt><trkpt lat="29.683891667801266" lon="-9.723509589117022"><ele>256.0</ele><time>2026-04-28T07:40:32Z</time></trkpt><trkpt lat="29.683748105557047" lon="-9.723489476623248"><ele>256.0</ele><time>2026-04-28T07:40:33Z</time></trkpt><trkpt lat="29.683602724225914" lon="-9.723470221355875"><ele>256.0</ele><time>2026-04-28T07:40:34Z</time></trkpt><trkpt lat="29.68346064301434" lon="-9.723451509607077"><ele>256.0</ele><time>2026-04-28T07:40:35Z</time></trkpt><trkpt lat="29.683318066235586" lon="-9.723431828688565"><ele>256.0</ele><time>2026-04-28T07:40:36Z</time></trkpt><trkpt lat="29.683176347606086" lon="-9.723410834838013"><ele>256.0</ele><time>2026-04-28T07:40:37Z</time></trkpt><trkpt lat="29.68303971902406" lon="-9.723389412202135"><ele>256.0</ele><time>2026-04-28T07:40:38Z</time></trkpt><trkpt lat="29.682914352588227" lon="-9.723372705504099"><ele>256.0</ele><time>2026-04-28T07:40:39Z</time></trkpt><trkpt lat="29.6828027301085" lon="-9.723357377021042"><ele>256.0</ele><time>2026-04-28T07:40:40Z</time></trkpt><trkpt lat="29.682697449106776" lon="-9.723345191344412"><ele>256.0</ele><time>2026-04-28T07:40:41Z</time></trkpt><trkpt lat="29.6825883278327" lon="-9.723328555197776"><ele>256.0</ele><time>2026-04-28T07:40:42Z</time></trkpt><trkpt lat="29.6824771972015" lon="-9.72330880294287"><ele>256.0</ele><time>2026-04-28T07:40:43Z</time></trkpt><trkpt lat="29.682359379295136" lon="-9.723288033754002"><ele>256.0</ele><time>2026-04-28T07:40:44Z</time></trkpt><trkpt lat="29.682247940376623" lon="-9.723269903032566"><ele>256.0</ele><time>2026-04-28T07:40:45Z</time></trkpt><trkpt lat="29.68214096489646" lon="-9.723254843320431"><ele>256.0</ele><time>2026-04-28T07:40:46Z</time></trkpt><trkpt lat="29.682041693576217" lon="-9.723239857322557"><ele>256.0</ele><time>2026-04-28T07:40:47Z</time></trkpt><trkpt lat="29.68195256840318" lon="-9.723226153863742"><ele>256.0</ele><time>2026-04-28T07:40:48Z</time></trkpt><trkpt lat="29.681860212289454" lon="-9.723207168304079"><ele>256.0</ele><time>2026-04-28T07:40:49Z</time></trkpt><trkpt lat="29.681762198913727" lon="-9.723189971677067"><ele>256.8</ele><time>2026-04-28T07:40:50Z</time></trkpt><trkpt lat="29.68165665787337" lon="-9.723172472762053"><ele>257.6</ele><time>2026-04-28T07:40:51Z</time></trkpt><trkpt lat="29.68155491622388" lon="-9.723158272253505"><ele>258.4</ele><time>2026-04-28T07:40:52Z</time></trkpt><trkpt lat="29.68145382204426" lon="-9.72314544119534"><ele>259.2</ele><time>2026-04-28T07:40:53Z</time></trkpt><trkpt lat="29.681347433074617" lon="-9.723124977403982"><ele>260.0</ele><time>2026-04-28T07:40:54Z</time></trkpt><trkpt lat="29.681236394737123" lon="-9.72310641706318"><ele>260.0</ele><time>2026-04-28T07:40:55Z</time></trkpt><trkpt lat="29.6811202971403" lon="-9.723087179717114"><ele>260.0</ele><time>2026-04-28T07:40:56Z</time></trkpt><trkpt lat="29.68100024043996" lon="-9.723068742494892"><ele>260.0</ele><time>2026-04-28T07:40:57Z</time></trkpt><trkpt lat="29.680875282436592" lon="-9.723048919746653"><ele>260.0</ele><time>2026-04-28T07:40:58Z</time></trkpt><trkpt lat="29.680743825618844" lon="-9.723027525919127"><ele>260.0</ele><time>2026-04-28T07:40:59Z</time></trkpt><trkpt lat="29.680609970957853" lon="-9.723006098406193"><ele>260.0</ele><time>2026-04-28T07:41:00Z</time></trkpt><trkpt lat="29.68047050335259" lon="-9.722984061598988"><ele>260.0</ele><time>2026-04-28T07:41:01Z</time></trkpt><trkpt lat="29.68032111113705" lon="-9.722964172953496"><ele>260.0</ele><time>2026-04-28T07:41:02Z</time></trkpt><trkpt lat="29.680175694139713" lon="-9.72294259490427"><ele>260.25</ele><time>2026-04-28T07:41:03Z</time></trkpt><trkpt lat="29.6800342295496" lon="-9.722918678016596"><ele>260.5</ele><time>2026-04-28T07:41:04Z</time></trkpt><trkpt lat="29.679895071757368" lon="-9.722894159934347"><ele>260.75</ele><time>2026-04-28T07:41:05Z</time></trkpt><trkpt lat="29.679751507279104" lon="-9.722869841754012"><ele>261.0</ele><time>2026-04-28T07:41:06Z</time></trkpt><trkpt lat="29.679604001338657" lon="-9.722846000187127"><ele>261.0</ele><time>2026-04-28T07:41:07Z</time></trkpt><trkpt lat="29.679455368967403" lon="-9.722822294157085"><ele>261.0</ele><time>2026-04-28T07:41:08Z</time></trkpt><trkpt lat="29.679307826501592" lon="-9.722799185576715"><ele>261.0</ele><time>2026-04-28T07:41:09Z</time></trkpt><trkpt lat="29.679160446641443" lon="-9.72277614071899"><ele>261.0</ele><time>2026-04-28T07:41:10Z</time></trkpt><trkpt lat="29.679016389081244" lon="-9.72275388609989"><ele>260.75</ele><time>2026-04-28T07:41:11Z</time></trkpt><trkpt lat="29.678878450283566" lon="-9.72272920287433"><ele>260.5</ele><time>2026-04-28T07:41:12Z</time></trkpt><trkpt lat="29.678738514408266" lon="-9.722705793446334"><ele>260.25</ele><time>2026-04-28T07:41:13Z</time></trkpt><trkpt lat="29.678603606405307" lon="-9.72268509201461"><ele>260.0</ele><time>2026-04-28T07:41:14Z</time></trkpt><trkpt lat="29.678480176156402" lon="-9.722665689506547"><ele>260.0</ele><time>2026-04-28T07:41:15Z</time></trkpt><trkpt lat="29.678365605106606" lon="-9.72264834725999"><ele>260.0</ele><time>2026-04-28T07:41:16Z</time></trkpt><trkpt lat="29.678250154931828" lon="-9.722627363254007"><ele>260.0</ele><time>2026-04-28T07:41:17Z</time></trkpt><trkpt lat="29.678125398466875" lon="-9.722604388858294"><ele>260.0</ele><time>2026-04-28T07:41:18Z</time></trkpt><trkpt lat="29.67799134994724" lon="-9.72258149152257"><ele>260.0</ele><time>2026-04-28T07:41:19Z</time></trkpt><trkpt lat="29.677853573299046" lon="-9.7225576273731"><ele>260.0</ele><time>2026-04-28T07:41:20Z</time></trkpt><trkpt lat="29.677716359133342" lon="-9.72253316562628"><ele>260.0</ele><time>2026-04-28T07:41:21Z</time></trkpt><trkpt lat="29.67757974998465" lon="-9.722508736978794"><ele>260.0</ele><time>2026-04-28T07:41:22Z</time></trkpt><trkpt lat="29.67744203206621" lon="-9.7224816390907"><ele>260.25</ele><time>2026-04-28T07:41:23Z</time></trkpt><trkpt lat="29.67729746218936" lon="-9.722476764757035"><ele>260.5</ele><time>2026-04-28T07:41:24Z</time></trkpt><trkpt lat="29.677151243400086" lon="-9.722453541371006"><ele>260.75</ele><time>2026-04-28T07:41:25Z</time></trkpt><trkpt lat="29.677005665239776" lon="-9.722431406058954"><ele>261.0</ele><time>2026-04-28T07:41:26Z</time></trkpt><trkpt lat="29.676867230890515" lon="-9.722409124583518"><ele>261.0</ele><time>2026-04-28T07:41:27Z</time></trkpt><trkpt lat="29.676727667241284" lon="-9.722386888815752"><ele>261.0</ele><time>2026-04-28T07:41:28Z</time></trkpt><trkpt lat="29.676590851750387" lon="-9.72236509177954"><ele>261.0</ele><time>2026-04-28T07:41:29Z</time></trkpt><trkpt lat="29.676451046462862" lon="-9.722342818430732"><ele>261.0</ele><time>2026-04-28T07:41:30Z</time></trkpt><trkpt lat="29.67630459114612" lon="-9.72231937942159"><ele>261.0</ele><time>2026-04-28T07:41:31Z</time></trkpt><trkpt lat="29.676156798384376" lon="-9.722295478426023"><ele>261.0</ele><time>2026-04-28T07:41:32Z</time></trkpt><trkpt lat="29.676007371523077" lon="-9.722271313150635"><ele>261.0</ele><time>2026-04-28T07:41:33Z</time></trkpt><trkpt lat="29.67585324156374" lon="-9.722246387286473"><ele>262.3333333333333</ele><time>2026-04-28T07:41:34Z</time></trkpt><trkpt lat="29.675697203728635" lon="-9.722215282822017"><ele>263.66666666666663</ele><time>2026-04-28T07:41:35Z</time></trkpt><trkpt lat="29.67553634980665" lon="-9.722179354387308"><ele>265.0</ele><time>2026-04-28T07:41:36Z</time></trkpt><trkpt lat="29.67538053049642" lon="-9.722128134399405"><ele>265.0</ele><time>2026-04-28T07:41:37Z</time></trkpt><trkpt lat="29.67521874141154" lon="-9.722102015144726"><ele>265.0</ele><time>2026-04-28T07:41:38Z</time></trkpt><trkpt lat="29.675055221575224" lon="-9.722076221544295"><ele>265.0</ele><time>2026-04-28T07:41:39Z</time></trkpt><trkpt lat="29.674895148498866" lon="-9.722055581484547"><ele>265.0</ele><time>2026-04-28T07:41:40Z</time></trkpt><trkpt lat="29.674733773606118" lon="-9.72202811707877"><ele>265.0</ele><time>2026-04-28T07:41:41Z</time></trkpt><trkpt lat="29.674573551930784" lon="-9.722000402574922"><ele>265.0</ele><time>2026-04-28T07:41:42Z</time></trkpt><trkpt lat="29.674412460053674" lon="-9.721974757201309"><ele>266.3333333333333</ele><time>2026-04-28T07:41:43Z</time></trkpt><trkpt lat="29.674248715713677" lon="-9.721949411396777"><ele>267.6666666666667</ele><time>2026-04-28T07:41:44Z</time></trkpt><trkpt lat="29.674084435721657" lon="-9.721925008719905"><ele>269.0</ele><time>2026-04-28T07:41:45Z</time></trkpt><trkpt lat="29.673912607694884" lon="-9.721899045918816"><ele>268.6666666666667</ele><time>2026-04-28T07:41:46Z</time></trkpt><trkpt lat="29.6737400569251" lon="-9.72187046399395"><ele>268.3333333333333</ele><time>2026-04-28T07:41:47Z</time></trkpt><trkpt lat="29.673565440133036" lon="-9.721839561490984"><ele>268.0</ele><time>2026-04-28T07:41:48Z</time></trkpt><trkpt lat="29.673391478219244" lon="-9.721811082546"><ele>268.0</ele><time>2026-04-28T07:41:49Z</time></trkpt><trkpt lat="29.673219128197534" lon="-9.721784476053733"><ele>268.0</ele><time>2026-04-28T07:41:50Z</time></trkpt><trkpt lat="29.67304904504743" lon="-9.721758300214619"><ele>268.0</ele><time>2026-04-28T07:41:51Z</time></trkpt><trkpt lat="29.672877233023804" lon="-9.721734203304813"><ele>268.66666666666663</ele><time>2026-04-28T07:41:52Z</time></trkpt><trkpt lat="29.672703520274798" lon="-9.721708835777612"><ele>269.3333333333333</ele><time>2026-04-28T07:41:53Z</time></trkpt><trkpt lat="29.672528896914564" lon="-9.721681043227703"><ele>270.0</ele><time>2026-04-28T07:41:54Z</time></trkpt><trkpt lat="29.672356618280286" lon="-9.721651756955762"><ele>270.0</ele><time>2026-04-28T07:41:55Z</time></trkpt><trkpt lat="29.67218100139285" lon="-9.72162179946867"><ele>270.0</ele><time>2026-04-28T07:41:56Z</time></trkpt><trkpt lat="29.671998184495923" lon="-9.721591668779984"><ele>270.0</ele><time>2026-04-28T07:41:57Z</time></trkpt><trkpt lat="29.671812438359975" lon="-9.721562391374984"><ele>269.6666666666667</ele><time>2026-04-28T07:41:58Z</time></trkpt><trkpt lat="29.67162821441138" lon="-9.721533534370947"><ele>269.33333333333337</ele><time>2026-04-28T07:41:59Z</time></trkpt><trkpt lat="29.67144834382994" lon="-9.721505593738923"><ele>269.0</ele><time>2026-04-28T07:42:00Z</time></trkpt><trkpt lat="29.671262739785547" lon="-9.721471434699092"><ele>269.33333333333337</ele><time>2026-04-28T07:42:01Z</time></trkpt><trkpt lat="29.671072845849835" lon="-9.721441851523016"><ele>269.6666666666667</ele><time>2026-04-28T07:42:02Z</time></trkpt><trkpt lat="29.670882964037244" lon="-9.721410944169593"><ele>270.0</ele><time>2026-04-28T07:42:03Z</time></trkpt><trkpt lat="29.670692252862437" lon="-9.721382600400286"><ele>270.0</ele><time>2026-04-28T07:42:04Z</time></trkpt><trkpt lat="29.670500802029824" lon="-9.72135351608327"><ele>270.0</ele><time>2026-04-28T07:42:05Z</time></trkpt><trkpt lat="29.670306869905986" lon="-9.721321823078615"><ele>270.0</ele><time>2026-04-28T07:42:06Z</time></trkpt><trkpt lat="29.670104695064467" lon="-9.721289366858873"><ele>271.0</ele><time>2026-04-28T07:42:07Z</time></trkpt><trkpt lat="29.669898180012527" lon="-9.7212552856262"><ele>272.0</ele><time>2026-04-28T07:42:08Z</time></trkpt><trkpt lat="29.669689593222362" lon="-9.72122107492003"><ele>273.0</ele><time>2026-04-28T07:42:09Z</time></trkpt><trkpt lat="29.66948312354937" lon="-9.721188744367849"><ele>273.6666666666667</ele><time>2026-04-28T07:42:10Z</time></trkpt><trkpt lat="29.66928004170386" lon="-9.721154495276132"><ele>274.33333333333337</ele><time>2026-04-28T07:42:11Z</time></trkpt><trkpt lat="29.669078153338393" lon="-9.721119529681696"><ele>275.0</ele><time>2026-04-28T07:42:12Z</time></trkpt><trkpt lat="29.66887364234826" lon="-9.721086352901791"><ele>275.0</ele><time>2026-04-28T07:42:13Z</time></trkpt><trkpt lat="29.6686673640696" lon="-9.721053220119877"><ele>275.0</ele><time>2026-04-28T07:42:14Z</time></trkpt><trkpt lat="29.668461384541587" lon="-9.721021302039125"><ele>275.0</ele><time>2026-04-28T07:42:15Z</time></trkpt><trkpt lat="29.668252980954627" lon="-9.720990474139228"><ele>275.0</ele><time>2026-04-28T07:42:16Z</time></trkpt><trkpt lat="29.668042910366946" lon="-9.72095707626073"><ele>275.0</ele><time>2026-04-28T07:42:17Z</time></trkpt><trkpt lat="29.66783659182311" lon="-9.720921280803045"><ele>275.0</ele><time>2026-04-28T07:42:18Z</time></trkpt><trkpt lat="29.667631227906917" lon="-9.720886244562838"><ele>274.0</ele><time>2026-04-28T07:42:19Z</time></trkpt><trkpt lat="29.667428616754655" lon="-9.720851630809722"><ele>273.0</ele><time>2026-04-28T07:42:20Z</time></trkpt><trkpt lat="29.6672206585659" lon="-9.720816980630577"><ele>272.0</ele><time>2026-04-28T07:42:21Z</time></trkpt><trkpt lat="29.66701565989105" lon="-9.720784296239728"><ele>273.33333333333337</ele><time>2026-04-28T07:42:22Z</time></trkpt><trkpt lat="29.666810763468195" lon="-9.72075014255879"><ele>274.6666666666667</ele><time>2026-04-28T07:42:23Z</time></trkpt><trkpt lat="29.666606592883916" lon="-9.720717815566767"><ele>276.0</ele><time>2026-04-28T07:42:24Z</time></trkpt><trkpt lat="29.666402491331873" lon="-9.720684496223127"><ele>276.0</ele><time>2026-04-28T07:42:25Z</time></trkpt><trkpt lat="29.6661981983827" lon="-9.720652267447235"><ele>276.0</ele><time>2026-04-28T07:42:26Z</time></trkpt><trkpt lat="29.665995820749938" lon="-9.720623318288935"><ele>276.0</ele><time>2026-04-28T07:42:27Z</time></trkpt><trkpt lat="29.66579226416424" lon="-9.720592795472834"><ele>276.3333333333333</ele><time>2026-04-28T07:42:28Z</time></trkpt><trkpt lat="29.665588327130216" lon="-9.720560607967798"><ele>276.66666666666663</ele><time>2026-04-28T07:42:29Z</time></trkpt><trkpt lat="29.665379996384004" lon="-9.720526164899326"><ele>277.0</ele><time>2026-04-28T07:42:30Z</time></trkpt><trkpt lat="29.665167673819603" lon="-9.720489478908805"><ele>277.0</ele><time>2026-04-28T07:42:31Z</time></trkpt><trkpt lat="29.664956976276645" lon="-9.720455294614068"><ele>277.0</ele><time>2026-04-28T07:42:32Z</time></trkpt><trkpt lat="29.664747110631115" lon="-9.72042486103319"><ele>277.0</ele><time>2026-04-28T07:42:33Z</time></trkpt><trkpt lat="29.664536475154396" lon="-9.720391767650105"><ele>278.0</ele><time>2026-04-28T07:42:34Z</time></trkpt><trkpt lat="29.664326720926866" lon="-9.720357470034171"><ele>279.0</ele><time>2026-04-28T07:42:35Z</time></trkpt><trkpt lat="29.664119035655883" lon="-9.720324041805537"><ele>280.0</ele><time>2026-04-28T07:42:36Z</time></trkpt><trkpt lat="29.663914584584447" lon="-9.720289988142737"><ele>280.0</ele><time>2026-04-28T07:42:37Z</time></trkpt><trkpt lat="29.663708776546223" lon="-9.72025487384737"><ele>280.0</ele><time>2026-04-28T07:42:38Z</time></trkpt><trkpt lat="29.663498840966106" lon="-9.720223100951952"><ele>280.0</ele><time>2026-04-28T07:42:39Z</time></trkpt><trkpt lat="29.663287370068016" lon="-9.720191774245196"><ele>279.3333333333333</ele><time>2026-04-28T07:42:40Z</time></trkpt><trkpt lat="29.66307656353589" lon="-9.720160345225592"><ele>278.6666666666667</ele><time>2026-04-28T07:42:41Z</time></trkpt><trkpt lat="29.662863699341187" lon="-9.720126019041446"><ele>278.0</ele><time>2026-04-28T07:42:42Z</time></trkpt><trkpt lat="29.662650709971164" lon="-9.720091558115115"><ele>278.0</ele><time>2026-04-28T07:42:43Z</time></trkpt><trkpt lat="29.662436936805417" lon="-9.720057309600952"><ele>278.0</ele><time>2026-04-28T07:42:44Z</time></trkpt><trkpt lat="29.662223065067817" lon="-9.720024259587419"><ele>278.0</ele><time>2026-04-28T07:42:45Z</time></trkpt><trkpt lat="29.662007018396782" lon="-9.719990369789828"><ele>278.0</ele><time>2026-04-28T07:42:46Z</time></trkpt><trkpt lat="29.661799357815887" lon="-9.719955466427045"><ele>278.0</ele><time>2026-04-28T07:42:47Z</time></trkpt><trkpt lat="29.661595568765666" lon="-9.719922911171615"><ele>278.0</ele><time>2026-04-28T07:42:48Z</time></trkpt><trkpt lat="29.66140132933805" lon="-9.719891967493732"><ele>278.0</ele><time>2026-04-28T07:42:49Z</time></trkpt><trkpt lat="29.6612182868867" lon="-9.719859829572522"><ele>278.0</ele><time>2026-04-28T07:42:50Z</time></trkpt><trkpt lat="29.66104737560208" lon="-9.71982972034644"><ele>278.0</ele><time>2026-04-28T07:42:51Z</time></trkpt><trkpt lat="29.660882342599137" lon="-9.719802643846164"><ele>278.0</ele><time>2026-04-28T07:42:52Z</time></trkpt><trkpt lat="29.660727188306055" lon="-9.719775534209726"><ele>278.0</ele><time>2026-04-28T07:42:53Z</time></trkpt><trkpt lat="29.660580954655977" lon="-9.71974883480217"><ele>278.0</ele><time>2026-04-28T07:42:54Z</time></trkpt><trkpt lat="29.66042958962298" lon="-9.7197232435798"><ele>278.0</ele><time>2026-04-28T07:42:55Z</time></trkpt><trkpt lat="29.66027153012632" lon="-9.719696291623924"><ele>278.0</ele><time>2026-04-28T07:42:56Z</time></trkpt><trkpt lat="29.660116431054412" lon="-9.719667029032244"><ele>278.0</ele><time>2026-04-28T07:42:57Z</time></trkpt><trkpt lat="29.659948520520757" lon="-9.71965778226445"><ele>278.0</ele><time>2026-04-28T07:42:58Z</time></trkpt><trkpt lat="29.65977371327158" lon="-9.719629465351678"><ele>278.0</ele><time>2026-04-28T07:42:59Z</time></trkpt><trkpt lat="29.65958737576817" lon="-9.71959944968827"><ele>278.0</ele><time>2026-04-28T07:43:00Z</time></trkpt><trkpt lat="29.659392321803857" lon="-9.719568070627192"><ele>278.6666666666667</ele><time>2026-04-28T07:43:01Z</time></trkpt><trkpt lat="29.65918863790561" lon="-9.719524944275598"><ele>279.3333333333333</ele><time>2026-04-28T07:43:02Z</time></trkpt><trkpt lat="29.658978022521037" lon="-9.719497179004223"><ele>280.0</ele><time>2026-04-28T07:43:03Z</time></trkpt><trkpt lat="29.65876495947552" lon="-9.719461387371844"><ele>280.0</ele><time>2026-04-28T07:43:04Z</time></trkpt><trkpt lat="29.658551978087395" lon="-9.719427545616918"><ele>280.0</ele><time>2026-04-28T07:43:05Z</time></trkpt><trkpt lat="29.658340044466158" lon="-9.719394359791062"><ele>280.0</ele><time>2026-04-28T07:43:06Z</time></trkpt><trkpt lat="29.658127568258177" lon="-9.719360597025593"><ele>280.0</ele><time>2026-04-28T07:43:07Z</time></trkpt><trkpt lat="29.657915426220498" lon="-9.71932757777374"><ele>280.0</ele><time>2026-04-28T07:43:08Z</time></trkpt><trkpt lat="29.657701416673852" lon="-9.71929175532361"><ele>280.0</ele><time>2026-04-28T07:43:09Z</time></trkpt><trkpt lat="29.65748692754391" lon="-9.719258384310407"><ele>280.66666666666663</ele><time>2026-04-28T07:43:10Z</time></trkpt><trkpt lat="29.657271614140566" lon="-9.71922435706282"><ele>281.3333333333333</ele><time>2026-04-28T07:43:11Z</time></trkpt><trkpt lat="29.65705994627174" lon="-9.719191872007"><ele>282.0</ele><time>2026-04-28T07:43:12Z</time></trkpt><trkpt lat="29.656849240279943" lon="-9.719159063755166"><ele>282.6666666666667</ele><time>2026-04-28T07:43:13Z</time></trkpt><trkpt lat="29.65663988377576" lon="-9.719125959059548"><ele>283.33333333333337</ele><time>2026-04-28T07:43:14Z</time></trkpt><trkpt lat="29.656425519696967" lon="-9.71908985306358"><ele>284.0</ele><time>2026-04-28T07:43:15Z</time></trkpt><trkpt lat="29.656214683662828" lon="-9.719057795165574"><ele>284.33333333333337</ele><time>2026-04-28T07:43:16Z</time></trkpt><trkpt lat="29.656002955983823" lon="-9.719023317189077"><ele>284.6666666666667</ele><time>2026-04-28T07:43:17Z</time></trkpt><trkpt lat="29.655794822144344" lon="-9.718990224173782"><ele>285.0</ele><time>2026-04-28T07:43:18Z</time></trkpt><trkpt lat="29.65558383668662" lon="-9.718955077026145"><ele>285.0</ele><time>2026-04-28T07:43:19Z</time></trkpt><trkpt lat="29.655376456423653" lon="-9.718920799897031"><ele>285.0</ele><time>2026-04-28T07:43:20Z</time></trkpt><trkpt lat="29.655166844725148" lon="-9.718884833920978"><ele>285.0</ele><time>2026-04-28T07:43:21Z</time></trkpt><trkpt lat="29.654954906824862" lon="-9.718850191519335"><ele>285.0</ele><time>2026-04-28T07:43:22Z</time></trkpt><trkpt lat="29.65474362464781" lon="-9.718815772533494"><ele>285.0</ele><time>2026-04-28T07:43:23Z</time></trkpt><trkpt lat="29.654532008841663" lon="-9.71878279164733"><ele>285.0</ele><time>2026-04-28T07:43:24Z</time></trkpt><trkpt lat="29.654319265879835" lon="-9.718750017886377"><ele>285.3333333333333</ele><time>2026-04-28T07:43:25Z</time></trkpt><trkpt lat="29.654106164067407" lon="-9.718715814378815"><ele>285.66666666666663</ele><time>2026-04-28T07:43:26Z</time></trkpt><trkpt lat="29.653892983841402" lon="-9.718680086753569"><ele>286.0</ele><time>2026-04-28T07:43:27Z</time></trkpt><trkpt lat="29.6536836181169" lon="-9.71864355289968"><ele>287.3333333333333</ele><time>2026-04-28T07:43:28Z</time></trkpt><trkpt lat="29.65346944760057" lon="-9.718609116765963"><ele>288.6666666666667</ele><time>2026-04-28T07:43:29Z</time></trkpt><trkpt lat="29.653250050984116" lon="-9.718574657135612"><ele>290.0</ele><time>2026-04-28T07:43:30Z</time></trkpt><trkpt lat="29.65303702909827" lon="-9.7185401433289"><ele>290.6666666666667</ele><time>2026-04-28T07:43:31Z</time></trkpt><trkpt lat="29.652823021704442" lon="-9.71850563388635"><ele>291.3333333333333</ele><time>2026-04-28T07:43:32Z</time></trkpt><trkpt lat="29.65260822928206" lon="-9.718469940322562"><ele>292.0</ele><time>2026-04-28T07:43:33Z</time></trkpt><trkpt lat="29.652391847722896" lon="-9.718435129603764"><ele>292.66666666666663</ele><time>2026-04-28T07:43:34Z</time></trkpt><trkpt lat="29.652176155236873" lon="-9.718401109368722"><ele>293.3333333333333</ele><time>2026-04-28T07:43:35Z</time></trkpt><trkpt lat="29.65195669175706" lon="-9.718366122306778"><ele>294.0</ele><time>2026-04-28T07:43:36Z</time></trkpt><trkpt lat="29.651732139057415" lon="-9.7183328359358"><ele>294.0</ele><time>2026-04-28T07:43:37Z</time></trkpt><trkpt lat="29.65150170912256" lon="-9.71829688496956"><ele>294.0</ele><time>2026-04-28T07:43:38Z</time></trkpt><trkpt lat="29.651268942375403" lon="-9.71826032059931"><ele>294.0</ele><time>2026-04-28T07:43:39Z</time></trkpt><trkpt lat="29.651038185939203" lon="-9.718221557373228"><ele>294.0</ele><time>2026-04-28T07:43:40Z</time></trkpt><trkpt lat="29.65081228327892" lon="-9.718185026599851"><ele>294.0</ele><time>2026-04-28T07:43:41Z</time></trkpt><trkpt lat="29.6505843714891" lon="-9.718148303783321"><ele>294.0</ele><time>2026-04-28T07:43:42Z</time></trkpt><trkpt lat="29.650359351683747" lon="-9.718111995996983"><ele>294.5</ele><time>2026-04-28T07:43:43Z</time></trkpt><trkpt lat="29.650136639840568" lon="-9.718073897120728"><ele>295.0</ele><time>2026-04-28T07:43:44Z</time></trkpt><trkpt lat="29.64991249768122" lon="-9.718036438628504"><ele>295.0</ele><time>2026-04-28T07:43:45Z</time></trkpt><trkpt lat="29.649688291823164" lon="-9.717997432975231"><ele>295.0</ele><time>2026-04-28T07:43:46Z</time></trkpt><trkpt lat="29.649463163405144" lon="-9.717955846783198"><ele>295.0</ele><time>2026-04-28T07:43:47Z</time></trkpt><trkpt lat="29.6492424630155" lon="-9.717913510830135"><ele>295.0</ele><time>2026-04-28T07:43:48Z</time></trkpt><trkpt lat="29.649022538200754" lon="-9.717871682748742"><ele>295.0</ele><time>2026-04-28T07:43:49Z</time></trkpt><trkpt lat="29.6488017157424" lon="-9.71783057080341"><ele>295.66666666666663</ele><time>2026-04-28T07:43:50Z</time></trkpt><trkpt lat="29.648582554385342" lon="-9.717789615284502"><ele>296.3333333333333</ele><time>2026-04-28T07:43:51Z</time></trkpt><trkpt lat="29.648362009055553" lon="-9.71775029948438"><ele>297.0</ele><time>2026-04-28T07:43:52Z</time></trkpt><trkpt lat="29.648143198171653" lon="-9.71771153228835"><ele>297.3333333333333</ele><time>2026-04-28T07:43:53Z</time></trkpt><trkpt lat="29.647923490213085" lon="-9.71767157595158"><ele>297.66666666666663</ele><time>2026-04-28T07:43:54Z</time></trkpt><trkpt lat="29.64770208230978" lon="-9.717627569630068"><ele>298.0</ele><time>2026-04-28T07:43:55Z</time></trkpt><trkpt lat="29.647481476227515" lon="-9.717583048856376"><ele>298.0</ele><time>2026-04-28T07:43:56Z</time></trkpt><trkpt lat="29.647255967861717" lon="-9.717541535354393"><ele>298.0</ele><time>2026-04-28T07:43:57Z</time></trkpt><trkpt lat="29.647028222709032" lon="-9.71750083493425"><ele>298.5</ele><time>2026-04-28T07:43:58Z</time></trkpt><trkpt lat="29.646799887225608" lon="-9.717457830283976"><ele>299.0</ele><time>2026-04-28T07:43:59Z</time></trkpt><trkpt lat="29.6465784545859" lon="-9.717414035748424"><ele>299.0</ele><time>2026-04-28T07:44:00Z</time></trkpt><trkpt lat="29.646361989401353" lon="-9.71737309646628"><ele>299.0</ele><time>2026-04-28T07:44:01Z</time></trkpt><trkpt lat="29.646157556538366" lon="-9.717337809987741"><ele>299.0</ele><time>2026-04-28T07:44:02Z</time></trkpt><trkpt lat="29.64596636241916" lon="-9.717300902385302"><ele>299.33333333333337</ele><time>2026-04-28T07:44:03Z</time></trkpt><trkpt lat="29.64578302960303" lon="-9.717269346884134"><ele>299.6666666666667</ele><time>2026-04-28T07:44:04Z</time></trkpt><trkpt lat="29.64560973598098" lon="-9.717238499093915"><ele>300.0</ele><time>2026-04-28T07:44:05Z</time></trkpt><trkpt lat="29.645420359511842" lon="-9.71720284043707"><ele>300.3333333333333</ele><time>2026-04-28T07:44:06Z</time></trkpt><trkpt lat="29.64522244677977" lon="-9.71716534559466"><ele>300.66666666666663</ele><time>2026-04-28T07:44:07Z</time></trkpt><trkpt lat="29.645019201616112" lon="-9.717126545532045"><ele>301.0</ele><time>2026-04-28T07:44:08Z</time></trkpt><trkpt lat="29.644816786332882" lon="-9.717086604575229"><ele>301.0</ele><time>2026-04-28T07:44:09Z</time></trkpt><trkpt lat="29.644611973747892" lon="-9.717047731078313"><ele>301.0</ele><time>2026-04-28T07:44:10Z</time></trkpt><trkpt lat="29.64440240310825" lon="-9.717007308824396"><ele>301.0</ele><time>2026-04-28T07:44:11Z</time></trkpt><trkpt lat="29.64419033987684" lon="-9.716965562334547"><ele>301.0</ele><time>2026-04-28T07:44:12Z</time></trkpt><trkpt lat="29.64397829734758" lon="-9.716925736906395"><ele>301.0</ele><time>2026-04-28T07:44:13Z</time></trkpt><trkpt lat="29.643766740444345" lon="-9.716886674232141"><ele>301.0</ele><time>2026-04-28T07:44:14Z</time></trkpt><trkpt lat="29.643557736614646" lon="-9.716847174513447"><ele>301.66666666666663</ele><time>2026-04-28T07:44:15Z</time></trkpt><trkpt lat="29.643348039441133" lon="-9.716807958885758"><ele>302.3333333333333</ele><time>2026-04-28T07:44:16Z</time></trkpt><trkpt lat="29.64314196922526" lon="-9.71676928751859"><ele>303.0</ele><time>2026-04-28T07:44:17Z</time></trkpt><trkpt lat="29.642934282213613" lon="-9.716734478004069"><ele>303.3333333333333</ele><time>2026-04-28T07:44:18Z</time></trkpt><trkpt lat="29.642731985720417" lon="-9.716698074437653"><ele>303.66666666666663</ele><time>2026-04-28T07:44:19Z</time></trkpt><trkpt lat="29.642525713717074" lon="-9.716660512309828"><ele>304.0</ele><time>2026-04-28T07:44:20Z</time></trkpt><trkpt lat="29.642311875974016" lon="-9.716619798358115"><ele>304.0</ele><time>2026-04-28T07:44:21Z</time></trkpt><trkpt lat="29.64208946809343" lon="-9.71657668219581"><ele>304.0</ele><time>2026-04-28T07:44:22Z</time></trkpt><trkpt lat="29.641864698163797" lon="-9.716532228463723"><ele>304.5</ele><time>2026-04-28T07:44:23Z</time></trkpt><trkpt lat="29.64163793222501" lon="-9.716488720313247"><ele>305.0</ele><time>2026-04-28T07:44:24Z</time></trkpt><trkpt lat="29.641408377629244" lon="-9.716445695248915"><ele>305.0</ele><time>2026-04-28T07:44:25Z</time></trkpt><trkpt lat="29.641177009407716" lon="-9.716401451526972"><ele>305.0</ele><time>2026-04-28T07:44:26Z</time></trkpt><trkpt lat="29.64094422054883" lon="-9.716355153681338"><ele>306.0</ele><time>2026-04-28T07:44:27Z</time></trkpt><trkpt lat="29.64071073196364" lon="-9.716308784904035"><ele>307.0</ele><time>2026-04-28T07:44:28Z</time></trkpt><trkpt lat="29.640476649404235" lon="-9.716263958527284"><ele>306.0</ele><time>2026-04-28T07:44:29Z</time></trkpt><trkpt lat="29.640242504631193" lon="-9.716222334224659"><ele>305.0</ele><time>2026-04-28T07:44:30Z</time></trkpt><trkpt lat="29.640007661679427" lon="-9.716178307316255"><ele>305.0</ele><time>2026-04-28T07:44:31Z</time></trkpt><trkpt lat="29.639771903616555" lon="-9.716132741280894"><ele>305.0</ele><time>2026-04-28T07:44:32Z</time></trkpt><trkpt lat="29.63953643674174" lon="-9.716088042990476"><ele>306.0</ele><time>2026-04-28T07:44:33Z</time></trkpt><trkpt lat="29.639301293768597" lon="-9.716044797743317"><ele>307.0</ele><time>2026-04-28T07:44:34Z</time></trkpt><trkpt lat="29.639064535986968" lon="-9.716000450698047"><ele>307.0</ele><time>2026-04-28T07:44:35Z</time></trkpt><trkpt lat="29.63882434068051" lon="-9.715955003682863"><ele>307.0</ele><time>2026-04-28T07:44:36Z</time></trkpt><trkpt lat="29.63858418163508" lon="-9.715910755098193"><ele>308.0</ele><time>2026-04-28T07:44:37Z</time></trkpt><trkpt lat="29.638342456758647" lon="-9.715866640187976"><ele>309.0</ele><time>2026-04-28T07:44:38Z</time></trkpt><trkpt lat="29.638100876634926" lon="-9.715821156848449"><ele>309.0</ele><time>2026-04-28T07:44:39Z</time></trkpt><trkpt lat="29.637856411954573" lon="-9.715774076127614"><ele>309.0</ele><time>2026-04-28T07:44:40Z</time></trkpt><trkpt lat="29.63761078978066" lon="-9.715724492362089"><ele>308.0</ele><time>2026-04-28T07:44:41Z</time></trkpt><trkpt lat="29.63736606926165" lon="-9.715675356152223"><ele>307.0</ele><time>2026-04-28T07:44:42Z</time></trkpt><trkpt lat="29.637121990982575" lon="-9.71562772300449"><ele>307.5</ele><time>2026-04-28T07:44:43Z</time></trkpt><trkpt lat="29.636876650121497" lon="-9.715582100480686"><ele>308.0</ele><time>2026-04-28T07:44:44Z</time></trkpt><trkpt lat="29.636627674166334" lon="-9.715538663926257"><ele>308.0</ele><time>2026-04-28T07:44:45Z</time></trkpt><trkpt lat="29.63638092878894" lon="-9.715494186571753"><ele>308.0</ele><time>2026-04-28T07:44:46Z</time></trkpt><trkpt lat="29.63613260715668" lon="-9.71544857816202"><ele>307.5</ele><time>2026-04-28T07:44:47Z</time></trkpt><trkpt lat="29.63588434839318" lon="-9.71540090473627"><ele>307.0</ele><time>2026-04-28T07:44:48Z</time></trkpt><trkpt lat="29.635636563452408" lon="-9.715354091897348"><ele>307.0</ele><time>2026-04-28T07:44:49Z</time></trkpt><trkpt lat="29.635389601416804" lon="-9.715310001441553"><ele>307.0</ele><time>2026-04-28T07:44:50Z</time></trkpt><trkpt lat="29.635143017306866" lon="-9.715264945130134"><ele>309.0</ele><time>2026-04-28T07:44:51Z</time></trkpt><trkpt lat="29.634898286530262" lon="-9.715217498035216"><ele>311.0</ele><time>2026-04-28T07:44:52Z</time></trkpt><trkpt lat="29.634654588816126" lon="-9.715168767205268"><ele>310.5</ele><time>2026-04-28T07:44:53Z</time></trkpt><trkpt lat="29.63440997185366" lon="-9.71512305006865"><ele>310.0</ele><time>2026-04-28T07:44:54Z</time></trkpt><trkpt lat="29.63416701321208" lon="-9.715075591358081"><ele>310.0</ele><time>2026-04-28T07:44:55Z</time></trkpt><trkpt lat="29.633925698093083" lon="-9.715027294011993"><ele>310.0</ele><time>2026-04-28T07:44:56Z</time></trkpt><trkpt lat="29.633683494017166" lon="-9.714978861189135"><ele>311.5</ele><time>2026-04-28T07:44:57Z</time></trkpt><trkpt lat="29.633439905901042" lon="-9.714933021379458"><ele>313.0</ele><time>2026-04-28T07:44:58Z</time></trkpt><trkpt lat="29.63319419281732" lon="-9.71488761670551"><ele>313.0</ele><time>2026-04-28T07:44:59Z</time></trkpt><trkpt lat="29.63294908858606" lon="-9.714841252357811"><ele>313.0</ele><time>2026-04-28T07:45:00Z</time></trkpt><trkpt lat="29.632702102862375" lon="-9.71479505739303"><ele>313.5</ele><time>2026-04-28T07:45:01Z</time></trkpt><trkpt lat="29.632453075813107" lon="-9.714748912243444"><ele>314.0</ele><time>2026-04-28T07:45:02Z</time></trkpt><trkpt lat="29.632202081881694" lon="-9.714701388273472"><ele>314.0</ele><time>2026-04-28T07:45:03Z</time></trkpt><trkpt lat="29.631948320179305" lon="-9.714653491871344"><ele>314.0</ele><time>2026-04-28T07:45:04Z</time></trkpt><trkpt lat="29.631695036336794" lon="-9.714608380307412"><ele>314.0</ele><time>2026-04-28T07:45:05Z</time></trkpt><trkpt lat="29.6314405448283" lon="-9.714560627417589"><ele>314.0</ele><time>2026-04-28T07:45:06Z</time></trkpt><trkpt lat="29.631187306327032" lon="-9.714511759796677"><ele>313.5</ele><time>2026-04-28T07:45:07Z</time></trkpt><trkpt lat="29.63093526684433" lon="-9.714461427662634"><ele>313.0</ele><time>2026-04-28T07:45:08Z</time></trkpt><trkpt lat="29.630687269785827" lon="-9.71441487615167"><ele>314.5</ele><time>2026-04-28T07:45:09Z</time></trkpt><trkpt lat="29.630440106910928" lon="-9.714370938646216"><ele>316.0</ele><time>2026-04-28T07:45:10Z</time></trkpt><trkpt lat="29.630191942366977" lon="-9.714325368623626"><ele>316.0</ele><time>2026-04-28T07:45:11Z</time></trkpt><trkpt lat="29.629942889830623" lon="-9.714277823075099"><ele>316.0</ele><time>2026-04-28T07:45:12Z</time></trkpt><trkpt lat="29.629690774047283" lon="-9.714228739719658"><ele>315.5</ele><time>2026-04-28T07:45:13Z</time></trkpt><trkpt lat="29.62944050148548" lon="-9.714180868894397"><ele>315.0</ele><time>2026-04-28T07:45:14Z</time></trkpt><trkpt lat="29.62918483308653" lon="-9.714132281354713"><ele>315.0</ele><time>2026-04-28T07:45:15Z</time></trkpt><trkpt lat="29.628932908373518" lon="-9.714084863038076"><ele>315.0</ele><time>2026-04-28T07:45:16Z</time></trkpt><trkpt lat="29.62868142805632" lon="-9.714038719412045"><ele>315.0</ele><time>2026-04-28T07:45:17Z</time></trkpt><trkpt lat="29.628437455067775" lon="-9.71399517946202"><ele>315.0</ele><time>2026-04-28T07:45:18Z</time></trkpt><trkpt lat="29.62820631044803" lon="-9.713950945887186"><ele>315.0</ele><time>2026-04-28T07:45:19Z</time></trkpt><trkpt lat="29.62798685061558" lon="-9.713909665035866"><ele>315.0</ele><time>2026-04-28T07:45:20Z</time></trkpt><trkpt lat="29.62777580609144" lon="-9.71387070251873"><ele>315.0</ele><time>2026-04-28T07:45:21Z</time></trkpt><trkpt lat="29.62757507472282" lon="-9.713835686958415"><ele>316.0</ele><time>2026-04-28T07:45:22Z</time></trkpt><trkpt lat="29.627389248272696" lon="-9.713801284142903"><ele>317.0</ele><time>2026-04-28T07:45:23Z</time></trkpt><trkpt lat="29.62721720282144" lon="-9.713771194818039"><ele>318.0</ele><time>2026-04-28T07:45:24Z</time></trkpt><trkpt lat="29.627056334465486" lon="-9.713745380188216"><ele>318.5</ele><time>2026-04-28T07:45:25Z</time></trkpt><trkpt lat="29.62690547501386" lon="-9.713721561263863"><ele>319.0</ele><time>2026-04-28T07:45:26Z</time></trkpt><trkpt lat="29.62676918478866" lon="-9.713697499225171"><ele>319.5</ele><time>2026-04-28T07:45:27Z</time></trkpt><trkpt lat="29.62663713745191" lon="-9.71367173175287"><ele>320.0</ele><time>2026-04-28T07:45:28Z</time></trkpt><trkpt lat="29.626514533613463" lon="-9.713648980261942"><ele>320.0</ele><time>2026-04-28T07:45:29Z</time></trkpt><trkpt lat="29.62639951344827" lon="-9.71362847141688"><ele>320.0</ele><time>2026-04-28T07:45:30Z</time></trkpt><trkpt lat="29.626295458786693" lon="-9.713609458341585"><ele>320.0</ele><time>2026-04-28T07:45:31Z</time></trkpt><trkpt lat="29.626197584031264" lon="-9.713592408015298"><ele>320.0</ele><time>2026-04-28T07:45:32Z</time></trkpt><trkpt lat="29.626108144579696" lon="-9.713576664230661"><ele>320.0</ele><time>2026-04-28T07:45:33Z</time></trkpt><trkpt lat="29.626024541512397" lon="-9.71356046119054"><ele>320.8</ele><time>2026-04-28T07:45:34Z</time></trkpt><trkpt lat="29.625948868065528" lon="-9.71354662383354"><ele>321.6</ele><time>2026-04-28T07:45:35Z</time></trkpt><trkpt lat="29.625878217075936" lon="-9.713535643729474"><ele>322.4</ele><time>2026-04-28T07:45:36Z</time></trkpt><trkpt lat="29.625759202186742" lon="-9.713513648553787"><ele>323.2</ele><time>2026-04-28T07:45:38Z</time></trkpt><trkpt lat="29.625659457946643" lon="-9.713497579635838"><ele>324.0</ele><time>2026-04-28T07:45:40Z</time></trkpt><trkpt lat="29.625563863481705" lon="-9.713475176489135"><ele>324.0</ele><time>2026-04-28T07:45:42Z</time></trkpt><trkpt lat="29.625463525566605" lon="-9.71345638593794"><ele>324.0</ele><time>2026-04-28T07:45:44Z</time></trkpt><trkpt lat="29.625393599690337" lon="-9.713467575213775"><ele>324.0</ele><time>2026-04-28T07:45:46Z</time></trkpt><trkpt lat="29.625324072503165" lon="-9.71350029233176"><ele>324.0</ele><time>2026-04-28T07:45:49Z</time></trkpt><trkpt lat="29.62528254078199" lon="-9.713419364216453"><ele>324.0</ele><time>2026-04-28T07:50:33Z</time></trkpt><trkpt lat="29.62519808516975" lon="-9.713375881268133"><ele>324.0</ele><time>2026-04-28T07:50:35Z</time></trkpt><trkpt lat="29.625106541934517" lon="-9.713371640788615"><ele>324.0</ele><time>2026-04-28T07:50:36Z</time></trkpt><trkpt lat="29.62500719978404" lon="-9.7133568301445"><ele>324.0</ele><time>2026-04-28T07:50:37Z</time></trkpt><trkpt lat="29.624892769262214" lon="-9.71333512168986"><ele>324.0</ele><time>2026-04-28T07:50:38Z</time></trkpt><trkpt lat="29.62476896149787" lon="-9.713310729638573"><ele>324.0</ele><time>2026-04-28T07:50:39Z</time></trkpt><trkpt lat="29.62462385375887" lon="-9.713283690169671"><ele>324.3333333333333</ele><time>2026-04-28T07:50:40Z</time></trkpt><trkpt lat="29.624474388097564" lon="-9.713259343540988"><ele>324.66666666666663</ele><time>2026-04-28T07:50:41Z</time></trkpt><trkpt lat="29.624310636346433" lon="-9.713228318399965"><ele>325.0</ele><time>2026-04-28T07:50:42Z</time></trkpt><trkpt lat="29.624133579567903" lon="-9.71319419006726"><ele>325.0</ele><time>2026-04-28T07:50:43Z</time></trkpt><trkpt lat="29.623950430462337" lon="-9.713159225972436"><ele>325.0</ele><time>2026-04-28T07:50:44Z</time></trkpt><trkpt lat="29.623763838338704" lon="-9.713121108100605"><ele>325.0</ele><time>2026-04-28T07:50:45Z</time></trkpt><trkpt lat="29.623567693280005" lon="-9.713080535890185"><ele>325.3333333333333</ele><time>2026-04-28T07:50:46Z</time></trkpt><trkpt lat="29.62336736779488" lon="-9.713041472883656"><ele>325.6666666666667</ele><time>2026-04-28T07:50:47Z</time></trkpt><trkpt lat="29.623163563350197" lon="-9.713004617337901"><ele>326.0</ele><time>2026-04-28T07:50:48Z</time></trkpt><trkpt lat="29.62295653625769" lon="-9.712971139189806"><ele>325.6666666666667</ele><time>2026-04-28T07:50:49Z</time></trkpt><trkpt lat="29.622744005733605" lon="-9.71293154865391"><ele>325.3333333333333</ele><time>2026-04-28T07:50:50Z</time></trkpt><trkpt lat="29.622529767180822" lon="-9.712889930199903"><ele>325.0</ele><time>2026-04-28T07:50:51Z</time></trkpt><trkpt lat="29.622308459216285" lon="-9.712846080973481"><ele>325.0</ele><time>2026-04-28T07:50:52Z</time></trkpt><trkpt lat="29.622081743181422" lon="-9.712803409980607"><ele>325.0</ele><time>2026-04-28T07:50:53Z</time></trkpt><trkpt lat="29.621850886229563" lon="-9.712761427484022"><ele>326.0</ele><time>2026-04-28T07:50:54Z</time></trkpt><trkpt lat="29.621626334371836" lon="-9.712722401730774"><ele>327.0</ele><time>2026-04-28T07:50:55Z</time></trkpt><trkpt lat="29.62140787873181" lon="-9.71268206400777"><ele>328.0</ele><time>2026-04-28T07:50:56Z</time></trkpt><trkpt lat="29.62119622313297" lon="-9.712642545336665"><ele>327.66666666666663</ele><time>2026-04-28T07:50:57Z</time></trkpt><trkpt lat="29.62098732446008" lon="-9.712602721727972"><ele>327.3333333333333</ele><time>2026-04-28T07:50:58Z</time></trkpt><trkpt lat="29.62078038265242" lon="-9.712563141674115"><ele>327.0</ele><time>2026-04-28T07:50:59Z</time></trkpt><trkpt lat="29.620577883318486" lon="-9.712527078193784"><ele>327.0</ele><time>2026-04-28T07:51:00Z</time></trkpt><trkpt lat="29.620379662470413" lon="-9.712492114698712"><ele>327.0</ele><time>2026-04-28T07:51:01Z</time></trkpt><trkpt lat="29.620184123039596" lon="-9.712458707827539"><ele>327.0</ele><time>2026-04-28T07:51:02Z</time></trkpt><trkpt lat="29.61998620884404" lon="-9.712423148514917"><ele>327.6666666666667</ele><time>2026-04-28T07:51:03Z</time></trkpt><trkpt lat="29.61978548528395" lon="-9.71238364592195"><ele>328.33333333333337</ele><time>2026-04-28T07:51:04Z</time></trkpt><trkpt lat="29.61958273585683" lon="-9.712343260527547"><ele>329.0</ele><time>2026-04-28T07:51:05Z</time></trkpt><trkpt lat="29.619379332188895" lon="-9.712304498944972"><ele>329.6666666666667</ele><time>2026-04-28T07:51:06Z</time></trkpt><trkpt lat="29.619175314727077" lon="-9.712267863422184"><ele>330.3333333333333</ele><time>2026-04-28T07:51:07Z</time></trkpt><trkpt lat="29.618972101930858" lon="-9.71223105928892"><ele>331.0</ele><time>2026-04-28T07:51:08Z</time></trkpt><trkpt lat="29.61876624684036" lon="-9.71219195624596"><ele>331.3333333333333</ele><time>2026-04-28T07:51:09Z</time></trkpt><trkpt lat="29.618554944328366" lon="-9.712151279445338"><ele>331.6666666666667</ele><time>2026-04-28T07:51:10Z</time></trkpt><trkpt lat="29.618340257976257" lon="-9.712110091565366"><ele>332.0</ele><time>2026-04-28T07:51:11Z</time></trkpt><trkpt lat="29.618123299833528" lon="-9.712067714726757"><ele>332.0</ele><time>2026-04-28T07:51:12Z</time></trkpt><trkpt lat="29.617906301067368" lon="-9.712023465588581"><ele>332.0</ele><time>2026-04-28T07:51:13Z</time></trkpt><trkpt lat="29.617690480726683" lon="-9.711979549036656"><ele>332.0</ele><time>2026-04-28T07:51:14Z</time></trkpt><trkpt lat="29.617474894350472" lon="-9.711936463205237"><ele>332.0</ele><time>2026-04-28T07:51:15Z</time></trkpt><trkpt lat="29.61725713173921" lon="-9.711894729166815"><ele>332.0</ele><time>2026-04-28T07:51:16Z</time></trkpt><trkpt lat="29.61704096059146" lon="-9.711853332099883"><ele>332.0</ele><time>2026-04-28T07:51:17Z</time></trkpt><trkpt lat="29.616826460084408" lon="-9.711813225604681"><ele>332.0</ele><time>2026-04-28T07:51:18Z</time></trkpt><trkpt lat="29.616612959872857" lon="-9.711771884873876"><ele>332.0</ele><time>2026-04-28T07:51:19Z</time></trkpt><trkpt lat="29.616401004135767" lon="-9.711730416362462"><ele>332.0</ele><time>2026-04-28T07:51:20Z</time></trkpt><trkpt lat="29.61618135477076" lon="-9.711688576529047"><ele>331.5</ele><time>2026-04-28T07:51:21Z</time></trkpt><trkpt lat="29.615956523861527" lon="-9.711646994828277"><ele>331.0</ele><time>2026-04-28T07:51:22Z</time></trkpt><trkpt lat="29.615729907199327" lon="-9.711606617442293"><ele>331.0</ele><time>2026-04-28T07:51:23Z</time></trkpt><trkpt lat="29.615503440450357" lon="-9.711565759806133"><ele>331.0</ele><time>2026-04-28T07:51:24Z</time></trkpt><trkpt lat="29.615280161279824" lon="-9.711523499516478"><ele>331.5</ele><time>2026-04-28T07:51:25Z</time></trkpt><trkpt lat="29.615057297698474" lon="-9.711481323832661"><ele>332.0</ele><time>2026-04-28T07:51:26Z</time></trkpt><trkpt lat="29.61483561471612" lon="-9.711438252034874"><ele>332.0</ele><time>2026-04-28T07:51:27Z</time></trkpt><trkpt lat="29.614616182681505" lon="-9.711397590123239"><ele>332.0</ele><time>2026-04-28T07:51:28Z</time></trkpt><trkpt lat="29.61439568118587" lon="-9.711356866601955"><ele>332.0</ele><time>2026-04-28T07:51:29Z</time></trkpt><trkpt lat="29.614174323232685" lon="-9.71131598560604"><ele>333.33333333333337</ele><time>2026-04-28T07:51:30Z</time></trkpt><trkpt lat="29.61395513049628" lon="-9.711275518627577"><ele>334.6666666666667</ele><time>2026-04-28T07:51:31Z</time></trkpt><trkpt lat="29.613738304284514" lon="-9.711234326569786"><ele>336.0</ele><time>2026-04-28T07:51:32Z</time></trkpt><trkpt lat="29.6135193722936" lon="-9.71119240348871"><ele>336.0</ele><time>2026-04-28T07:51:33Z</time></trkpt><trkpt lat="29.613296579806512" lon="-9.711149790203098"><ele>336.0</ele><time>2026-04-28T07:51:34Z</time></trkpt><trkpt lat="29.613074332543206" lon="-9.711108404786609"><ele>336.0</ele><time>2026-04-28T07:51:35Z</time></trkpt><trkpt lat="29.612854555323985" lon="-9.711066172215538"><ele>336.0</ele><time>2026-04-28T07:51:36Z</time></trkpt><trkpt lat="29.612634679000408" lon="-9.711024924495247"><ele>336.0</ele><time>2026-04-28T07:51:37Z</time></trkpt><trkpt lat="29.612413627784495" lon="-9.710984257116163"><ele>336.5</ele><time>2026-04-28T07:51:38Z</time></trkpt><trkpt lat="29.612190748848512" lon="-9.710943032430086"><ele>337.0</ele><time>2026-04-28T07:51:39Z</time></trkpt><trkpt lat="29.61196662288439" lon="-9.710900285858596"><ele>337.0</ele><time>2026-04-28T07:51:40Z</time></trkpt><trkpt lat="29.611740784603082" lon="-9.710857465702036"><ele>337.0</ele><time>2026-04-28T07:51:41Z</time></trkpt><trkpt lat="29.611512007260394" lon="-9.710814038801558"><ele>337.0</ele><time>2026-04-28T07:51:42Z</time></trkpt><trkpt lat="29.611282969900845" lon="-9.710771661898024"><ele>337.0</ele><time>2026-04-28T07:51:43Z</time></trkpt><trkpt lat="29.61105131574759" lon="-9.710728938400658"><ele>337.5</ele><time>2026-04-28T07:51:44Z</time></trkpt><trkpt lat="29.61081884160632" lon="-9.710684726417872"><ele>338.0</ele><time>2026-04-28T07:51:45Z</time></trkpt><trkpt lat="29.610585989508234" lon="-9.710639831353909"><ele>338.0</ele><time>2026-04-28T07:51:46Z</time></trkpt><trkpt lat="29.610352419042844" lon="-9.710595197927328"><ele>338.0</ele><time>2026-04-28T07:51:47Z</time></trkpt><trkpt lat="29.610120419551325" lon="-9.710551817053183"><ele>338.0</ele><time>2026-04-28T07:51:48Z</time></trkpt><trkpt lat="29.60989048428606" lon="-9.710506677007052"><ele>338.0</ele><time>2026-04-28T07:51:49Z</time></trkpt><trkpt lat="29.609661581735352" lon="-9.710465263353148"><ele>340.0</ele><time>2026-04-28T07:51:50Z</time></trkpt><trkpt lat="29.609433537534308" lon="-9.710423285496114"><ele>342.0</ele><time>2026-04-28T07:51:51Z</time></trkpt><trkpt lat="29.609205344871654" lon="-9.710380886335532"><ele>342.0</ele><time>2026-04-28T07:51:52Z</time></trkpt><trkpt lat="29.608976651058907" lon="-9.710337560860193"><ele>342.0</ele><time>2026-04-28T07:51:53Z</time></trkpt><trkpt lat="29.60874745088178" lon="-9.710291180612279"><ele>342.5</ele><time>2026-04-28T07:51:54Z</time></trkpt><trkpt lat="29.60851777912278" lon="-9.710245696889864"><ele>343.0</ele><time>2026-04-28T07:51:55Z</time></trkpt><trkpt lat="29.60828620431432" lon="-9.710198874375333"><ele>343.5</ele><time>2026-04-28T07:51:56Z</time></trkpt><trkpt lat="29.60805389785322" lon="-9.710156478328155"><ele>344.0</ele><time>2026-04-28T07:51:57Z</time></trkpt><trkpt lat="29.607823061078978" lon="-9.710113966008043"><ele>344.5</ele><time>2026-04-28T07:51:58Z</time></trkpt><trkpt lat="29.6075964402865" lon="-9.710068483384992"><ele>345.0</ele><time>2026-04-28T07:51:59Z</time></trkpt><trkpt lat="29.607370954421437" lon="-9.710025878308244"><ele>345.0</ele><time>2026-04-28T07:52:00Z</time></trkpt><trkpt lat="29.60714568150869" lon="-9.709984006207755"><ele>345.0</ele><time>2026-04-28T07:52:01Z</time></trkpt><trkpt lat="29.606918529789958" lon="-9.709942072324779"><ele>345.5</ele><time>2026-04-28T07:52:02Z</time></trkpt><trkpt lat="29.6066886326002" lon="-9.709899489697614"><ele>346.0</ele><time>2026-04-28T07:52:03Z</time></trkpt><trkpt lat="29.606456665285734" lon="-9.709854934383479"><ele>346.0</ele><time>2026-04-28T07:52:04Z</time></trkpt><trkpt lat="29.60622422515984" lon="-9.709810714662249"><ele>346.0</ele><time>2026-04-28T07:52:05Z</time></trkpt><trkpt lat="29.605990622733056" lon="-9.709766233177067"><ele>347.0</ele><time>2026-04-28T07:52:06Z</time></trkpt><trkpt lat="29.605756152346707" lon="-9.709720589048406"><ele>348.0</ele><time>2026-04-28T07:52:07Z</time></trkpt><trkpt lat="29.605523420866582" lon="-9.709677055371513"><ele>350.0</ele><time>2026-04-28T07:52:08Z</time></trkpt><trkpt lat="29.60529200130132" lon="-9.709637169253654"><ele>352.0</ele><time>2026-04-28T07:52:09Z</time></trkpt><trkpt lat="29.605060222702527" lon="-9.709592796449233"><ele>352.0</ele><time>2026-04-28T07:52:10Z</time></trkpt><trkpt lat="29.604830647134406" lon="-9.709545699247954"><ele>352.0</ele><time>2026-04-28T07:52:11Z</time></trkpt><trkpt lat="29.604601315071545" lon="-9.709501561027743"><ele>353.0</ele><time>2026-04-28T07:52:12Z</time></trkpt><trkpt lat="29.604375036562104" lon="-9.709457366824662"><ele>354.0</ele><time>2026-04-28T07:52:13Z</time></trkpt><trkpt lat="29.60415066473617" lon="-9.709412261582962"><ele>354.0</ele><time>2026-04-28T07:52:14Z</time></trkpt><trkpt lat="29.603928363668434" lon="-9.70936804407983"><ele>354.0</ele><time>2026-04-28T07:52:15Z</time></trkpt><trkpt lat="29.603707556495863" lon="-9.709323094845448"><ele>355.0</ele><time>2026-04-28T07:52:16Z</time></trkpt><trkpt lat="29.60348714366918" lon="-9.709272165279504"><ele>356.0</ele><time>2026-04-28T07:52:17Z</time></trkpt><trkpt lat="29.603265773911094" lon="-9.709216840155593"><ele>356.0</ele><time>2026-04-28T07:52:18Z</time></trkpt><trkpt lat="29.60304538935651" lon="-9.709154844558292"><ele>356.0</ele><time>2026-04-28T07:52:19Z</time></trkpt><trkpt lat="29.60282788109919" lon="-9.709089079676872"><ele>355.33333333333337</ele><time>2026-04-28T07:52:20Z</time></trkpt><trkpt lat="29.602613522855123" lon="-9.709017746684436"><ele>354.6666666666667</ele><time>2026-04-28T07:52:21Z</time></trkpt><trkpt lat="29.60240035403882" lon="-9.708945122754093"><ele>354.0</ele><time>2026-04-28T07:52:22Z</time></trkpt><trkpt lat="29.60218855489287" lon="-9.708870248361476"><ele>354.0</ele><time>2026-04-28T07:52:23Z</time></trkpt><trkpt lat="29.601975111648827" lon="-9.70879393218211"><ele>354.0</ele><time>2026-04-28T07:52:24Z</time></trkpt><trkpt lat="29.601763941779133" lon="-9.708709382951922"><ele>354.0</ele><time>2026-04-28T07:52:25Z</time></trkpt><trkpt lat="29.60155353364773" lon="-9.70861956878133"><ele>355.0</ele><time>2026-04-28T07:52:26Z</time></trkpt><trkpt lat="29.601337947071087" lon="-9.708530682858465"><ele>356.0</ele><time>2026-04-28T07:52:27Z</time></trkpt><trkpt lat="29.601124857332763" lon="-9.708440539260318"><ele>356.0</ele><time>2026-04-28T07:52:28Z</time></trkpt><trkpt lat="29.600906874074045" lon="-9.708348638709664"><ele>356.0</ele><time>2026-04-28T07:52:29Z</time></trkpt><trkpt lat="29.600688849113798" lon="-9.70825447259209"><ele>356.0</ele><time>2026-04-28T07:52:30Z</time></trkpt><trkpt lat="29.60047256518832" lon="-9.708160433141332"><ele>356.0</ele><time>2026-04-28T07:52:31Z</time></trkpt><trkpt lat="29.600257091960994" lon="-9.708066591933996"><ele>355.5</ele><time>2026-04-28T07:52:32Z</time></trkpt><trkpt lat="29.600044497012686" lon="-9.707974044810982"><ele>355.0</ele><time>2026-04-28T07:52:33Z</time></trkpt><trkpt lat="29.599829720894558" lon="-9.707883512619913"><ele>355.0</ele><time>2026-04-28T07:52:34Z</time></trkpt><trkpt lat="29.599617106775526" lon="-9.70779303703669"><ele>355.0</ele><time>2026-04-28T07:52:35Z</time></trkpt><trkpt lat="29.599403671842797" lon="-9.70770319160265"><ele>357.0</ele><time>2026-04-28T07:52:36Z</time></trkpt><trkpt lat="29.599191399883424" lon="-9.70761300839278"><ele>359.0</ele><time>2026-04-28T07:52:37Z</time></trkpt><trkpt lat="29.59897929863906" lon="-9.707523370965479"><ele>359.0</ele><time>2026-04-28T07:52:38Z</time></trkpt><trkpt lat="29.59876731267274" lon="-9.707431490540978"><ele>359.0</ele><time>2026-04-28T07:52:39Z</time></trkpt><trkpt lat="29.59855547415915" lon="-9.707341567783716"><ele>358.0</ele><time>2026-04-28T07:52:40Z</time></trkpt><trkpt lat="29.598340562931245" lon="-9.707252004157493"><ele>357.0</ele><time>2026-04-28T07:52:41Z</time></trkpt><trkpt lat="29.598128414125686" lon="-9.707161544255701"><ele>357.0</ele><time>2026-04-28T07:52:42Z</time></trkpt><trkpt lat="29.597914312839954" lon="-9.707068876728773"><ele>357.0</ele><time>2026-04-28T07:52:43Z</time></trkpt><trkpt lat="29.59770003925847" lon="-9.706976072010285"><ele>358.5</ele><time>2026-04-28T07:52:44Z</time></trkpt><trkpt lat="29.59748432158155" lon="-9.706883113422077"><ele>360.0</ele><time>2026-04-28T07:52:45Z</time></trkpt><trkpt lat="29.597268370490674" lon="-9.70679109496998"><ele>360.0</ele><time>2026-04-28T07:52:46Z</time></trkpt><trkpt lat="29.59705261431396" lon="-9.706700796344004"><ele>360.0</ele><time>2026-04-28T07:52:47Z</time></trkpt><trkpt lat="29.596835933641167" lon="-9.706609702305974"><ele>360.5</ele><time>2026-04-28T07:52:48Z</time></trkpt><trkpt lat="29.596617552826277" lon="-9.706518167587111"><ele>361.0</ele><time>2026-04-28T07:52:49Z</time></trkpt><trkpt lat="29.59640048631846" lon="-9.706425090411575"><ele>361.0</ele><time>2026-04-28T07:52:50Z</time></trkpt><trkpt lat="29.596181049729033" lon="-9.706331351822298"><ele>361.0</ele><time>2026-04-28T07:52:51Z</time></trkpt><trkpt lat="29.595960823631632" lon="-9.70623617610206"><ele>361.0</ele><time>2026-04-28T07:52:52Z</time></trkpt><trkpt lat="29.59573845018075" lon="-9.706141134274956"><ele>361.0</ele><time>2026-04-28T07:52:53Z</time></trkpt><trkpt lat="29.59551369377229" lon="-9.706045587981775"><ele>362.0</ele><time>2026-04-28T07:52:54Z</time></trkpt><trkpt lat="29.595289592584113" lon="-9.70595096418431"><ele>363.0</ele><time>2026-04-28T07:52:55Z</time></trkpt><trkpt lat="29.59506390389997" lon="-9.70585379328253"><ele>363.0</ele><time>2026-04-28T07:52:56Z</time></trkpt><trkpt lat="29.59483648503211" lon="-9.705756607245712"><ele>363.0</ele><time>2026-04-28T07:52:57Z</time></trkpt><trkpt lat="29.59461023122285" lon="-9.70566012585826"><ele>363.0</ele><time>2026-04-28T07:52:58Z</time></trkpt><trkpt lat="29.594381606084617" lon="-9.705562458836196"><ele>363.0</ele><time>2026-04-28T07:52:59Z</time></trkpt><trkpt lat="29.594151955516427" lon="-9.705465260903098"><ele>363.0</ele><time>2026-04-28T07:53:00Z</time></trkpt><trkpt lat="29.59392187374156" lon="-9.705366673980864"><ele>363.0</ele><time>2026-04-28T07:53:01Z</time></trkpt><trkpt lat="29.593692062005776" lon="-9.705267796958168"><ele>364.5</ele><time>2026-04-28T07:53:02Z</time></trkpt><trkpt lat="29.593462088570437" lon="-9.705168809161705"><ele>366.0</ele><time>2026-04-28T07:53:03Z</time></trkpt><trkpt lat="29.593232142022774" lon="-9.705068441512623"><ele>366.0</ele><time>2026-04-28T07:53:04Z</time></trkpt><trkpt lat="29.593001466803802" lon="-9.704968229818332"><ele>366.0</ele><time>2026-04-28T07:53:05Z</time></trkpt><trkpt lat="29.592770840273072" lon="-9.704869605292892"><ele>366.5</ele><time>2026-04-28T07:53:06Z</time></trkpt><trkpt lat="29.592539982740814" lon="-9.704771051546624"><ele>367.0</ele><time>2026-04-28T07:53:07Z</time></trkpt><trkpt lat="29.592308238322826" lon="-9.704671909173914"><ele>367.0</ele><time>2026-04-28T07:53:08Z</time></trkpt><trkpt lat="29.59207809175071" lon="-9.704571023025657"><ele>367.0</ele><time>2026-04-28T07:53:09Z</time></trkpt><trkpt lat="29.591848018886907" lon="-9.704470173183097"><ele>368.5</ele><time>2026-04-28T07:53:10Z</time></trkpt><trkpt lat="29.591616509648457" lon="-9.704372321434018"><ele>370.0</ele><time>2026-04-28T07:53:11Z</time></trkpt><trkpt lat="29.59138680626083" lon="-9.704274135616627"><ele>370.5</ele><time>2026-04-28T07:53:12Z</time></trkpt><trkpt lat="29.591155912739055" lon="-9.704175319659665"><ele>371.0</ele><time>2026-04-28T07:53:13Z</time></trkpt><trkpt lat="29.59092533940004" lon="-9.704077010827895"><ele>371.0</ele><time>2026-04-28T07:53:14Z</time></trkpt><trkpt lat="29.590697448553748" lon="-9.70397977013683"><ele>371.0</ele><time>2026-04-28T07:53:15Z</time></trkpt><trkpt lat="29.59046947229267" lon="-9.703883778727718"><ele>371.5</ele><time>2026-04-28T07:53:16Z</time></trkpt><trkpt lat="29.590242430930047" lon="-9.703789679256582"><ele>372.0</ele><time>2026-04-28T07:53:17Z</time></trkpt><trkpt lat="29.590019064603602" lon="-9.70369439063428"><ele>372.0</ele><time>2026-04-28T07:53:18Z</time></trkpt><trkpt lat="29.589798735294238" lon="-9.703599112800672"><ele>372.0</ele><time>2026-04-28T07:53:19Z</time></trkpt><trkpt lat="29.58957839418304" lon="-9.703506697159323"><ele>373.0</ele><time>2026-04-28T07:53:20Z</time></trkpt><trkpt lat="29.58935870074349" lon="-9.70341319028856"><ele>374.0</ele><time>2026-04-28T07:53:21Z</time></trkpt><trkpt lat="29.589138051859905" lon="-9.703317193836874"><ele>374.0</ele><time>2026-04-28T07:53:22Z</time></trkpt><trkpt lat="29.588917773056043" lon="-9.70322364039409"><ele>374.0</ele><time>2026-04-28T07:53:23Z</time></trkpt><trkpt lat="29.588696233857853" lon="-9.703130698514311"><ele>373.5</ele><time>2026-04-28T07:53:24Z</time></trkpt><trkpt lat="29.58847611518685" lon="-9.703038555475198"><ele>373.0</ele><time>2026-04-28T07:53:25Z</time></trkpt><trkpt lat="29.588257712165735" lon="-9.702944467651697"><ele>373.0</ele><time>2026-04-28T07:53:26Z</time></trkpt><trkpt lat="29.588037458489694" lon="-9.702850004135104"><ele>373.0</ele><time>2026-04-28T07:53:27Z</time></trkpt><trkpt lat="29.587821207870903" lon="-9.702758276361266"><ele>375.0</ele><time>2026-04-28T07:53:28Z</time></trkpt><trkpt lat="29.587604411469307" lon="-9.702665030678729"><ele>377.0</ele><time>2026-04-28T07:53:29Z</time></trkpt><trkpt lat="29.587387641276496" lon="-9.702570832474562"><ele>377.0</ele><time>2026-04-28T07:53:30Z</time></trkpt><trkpt lat="29.587170540521736" lon="-9.702477865199146"><ele>377.0</ele><time>2026-04-28T07:53:31Z</time></trkpt><trkpt lat="29.586952945483954" lon="-9.702383200879895"><ele>375.5</ele><time>2026-04-28T07:53:32Z</time></trkpt><trkpt lat="29.586734046576836" lon="-9.702287690344763"><ele>374.0</ele><time>2026-04-28T07:53:33Z</time></trkpt><trkpt lat="29.586512567712756" lon="-9.702190523156338"><ele>374.0</ele><time>2026-04-28T07:53:34Z</time></trkpt><trkpt lat="29.586290727683288" lon="-9.702093170100616"><ele>374.0</ele><time>2026-04-28T07:53:35Z</time></trkpt><trkpt lat="29.58606801719788" lon="-9.701994634684759"><ele>376.5</ele><time>2026-04-28T07:53:36Z</time></trkpt><trkpt lat="29.585845477769134" lon="-9.701897787812836"><ele>379.0</ele><time>2026-04-28T07:53:37Z</time></trkpt><trkpt lat="29.58562322779875" lon="-9.701803810723339"><ele>379.0</ele><time>2026-04-28T07:53:38Z</time></trkpt><trkpt lat="29.585400098849544" lon="-9.701709155581721"><ele>379.0</ele><time>2026-04-28T07:53:39Z</time></trkpt><trkpt lat="29.585177613524227" lon="-9.701614254388918"><ele>378.5</ele><time>2026-04-28T07:53:40Z</time></trkpt><trkpt lat="29.58495546228894" lon="-9.701518869840084"><ele>378.0</ele><time>2026-04-28T07:53:41Z</time></trkpt><trkpt lat="29.584734062810035" lon="-9.701423278741554"><ele>378.0</ele><time>2026-04-28T07:53:42Z</time></trkpt><trkpt lat="29.58451482884695" lon="-9.701329004221801"><ele>378.0</ele><time>2026-04-28T07:53:43Z</time></trkpt><trkpt lat="29.584295438268917" lon="-9.70123350081952"><ele>378.0</ele><time>2026-04-28T07:53:44Z</time></trkpt><trkpt lat="29.58407718202035" lon="-9.70114026030331"><ele>378.0</ele><time>2026-04-28T07:53:45Z</time></trkpt><trkpt lat="29.583858785116533" lon="-9.701044855087359"><ele>378.0</ele><time>2026-04-28T07:53:46Z</time></trkpt><trkpt lat="29.583641927507248" lon="-9.700949133500911"><ele>378.0</ele><time>2026-04-28T07:53:47Z</time></trkpt><trkpt lat="29.583426119617695" lon="-9.700854098462068"><ele>378.0</ele><time>2026-04-28T07:53:48Z</time></trkpt><trkpt lat="29.58320938594177" lon="-9.700760658862468"><ele>378.0</ele><time>2026-04-28T07:53:49Z</time></trkpt><trkpt lat="29.582992576131684" lon="-9.70067066095152"><ele>379.0</ele><time>2026-04-28T07:53:50Z</time></trkpt><trkpt lat="29.582775920602494" lon="-9.700579950703238"><ele>380.0</ele><time>2026-04-28T07:53:51Z</time></trkpt><trkpt lat="29.582561549299164" lon="-9.700489405059733"><ele>380.0</ele><time>2026-04-28T07:53:52Z</time></trkpt><trkpt lat="29.582346500023963" lon="-9.700398623087434"><ele>380.0</ele><time>2026-04-28T07:53:53Z</time></trkpt><trkpt lat="29.582132482479057" lon="-9.700307130025248"><ele>381.0</ele><time>2026-04-28T07:53:54Z</time></trkpt><trkpt lat="29.581915740187114" lon="-9.70021444484743"><ele>382.0</ele><time>2026-04-28T07:53:55Z</time></trkpt><trkpt lat="29.58170048939622" lon="-9.700121105271634"><ele>382.0</ele><time>2026-04-28T07:53:56Z</time></trkpt><trkpt lat="29.58149223184311" lon="-9.700031219395445"><ele>382.0</ele><time>2026-04-28T07:53:57Z</time></trkpt><trkpt lat="29.581291795290372" lon="-9.699946059749157"><ele>382.0</ele><time>2026-04-28T07:53:58Z</time></trkpt><trkpt lat="29.58110025916517" lon="-9.699866886665308"><ele>383.66666666666663</ele><time>2026-04-28T07:53:59Z</time></trkpt><trkpt lat="29.580918216172996" lon="-9.699791954438464"><ele>385.3333333333333</ele><time>2026-04-28T07:54:00Z</time></trkpt><trkpt lat="29.580745679442774" lon="-9.69972151074027"><ele>387.0</ele><time>2026-04-28T07:54:01Z</time></trkpt><trkpt lat="29.5805743131653" lon="-9.699651498319614"><ele>387.0</ele><time>2026-04-28T07:54:02Z</time></trkpt><trkpt lat="29.580402309525923" lon="-9.699580790821328"><ele>387.0</ele><time>2026-04-28T07:54:03Z</time></trkpt><trkpt lat="29.580229672817165" lon="-9.699508918362532"><ele>387.0</ele><time>2026-04-28T07:54:04Z</time></trkpt><trkpt lat="29.580057690616727" lon="-9.699437243362521"><ele>387.66666666666663</ele><time>2026-04-28T07:54:05Z</time></trkpt><trkpt lat="29.57988325703079" lon="-9.699365404071646"><ele>388.3333333333333</ele><time>2026-04-28T07:54:06Z</time></trkpt><trkpt lat="29.579708443844282" lon="-9.69929095059893"><ele>389.0</ele><time>2026-04-28T07:54:07Z</time></trkpt><trkpt lat="29.579529333786503" lon="-9.699215434709359"><ele>389.3333333333333</ele><time>2026-04-28T07:54:08Z</time></trkpt><trkpt lat="29.579348793623705" lon="-9.699138831655164"><ele>389.66666666666663</ele><time>2026-04-28T07:54:09Z</time></trkpt><trkpt lat="29.579169225171245" lon="-9.699063225337063"><ele>390.0</ele><time>2026-04-28T07:54:10Z</time></trkpt><trkpt lat="29.5789851091205" lon="-9.69898503128245"><ele>390.0</ele><time>2026-04-28T07:54:11Z</time></trkpt><trkpt lat="29.578797757938" lon="-9.6989039680957"><ele>390.0</ele><time>2026-04-28T07:54:12Z</time></trkpt><trkpt lat="29.578605288870417" lon="-9.698822009322411"><ele>390.0</ele><time>2026-04-28T07:54:13Z</time></trkpt><trkpt lat="29.578412113992623" lon="-9.698739599428892"><ele>389.66666666666663</ele><time>2026-04-28T07:54:14Z</time></trkpt><trkpt lat="29.578218579608535" lon="-9.698655546515656"><ele>389.3333333333333</ele><time>2026-04-28T07:54:15Z</time></trkpt><trkpt lat="29.578021699571856" lon="-9.698569055941116"><ele>389.0</ele><time>2026-04-28T07:54:16Z</time></trkpt><trkpt lat="29.577819654983763" lon="-9.698479362037927"><ele>388.0</ele><time>2026-04-28T07:54:17Z</time></trkpt><trkpt lat="29.57761940514034" lon="-9.698391843389498"><ele>387.0</ele><time>2026-04-28T07:54:18Z</time></trkpt><trkpt lat="29.577426619600136" lon="-9.698306059405263"><ele>386.0</ele><time>2026-04-28T07:54:19Z</time></trkpt><trkpt lat="29.57724160367041" lon="-9.698227241090555"><ele>386.0</ele><time>2026-04-28T07:54:20Z</time></trkpt><trkpt lat="29.577066375183467" lon="-9.698151121645278"><ele>386.0</ele><time>2026-04-28T07:54:21Z</time></trkpt><trkpt lat="29.576897830134676" lon="-9.698077842912824"><ele>386.0</ele><time>2026-04-28T07:54:22Z</time></trkpt><trkpt lat="29.576738424815836" lon="-9.698009115124046"><ele>386.66666666666663</ele><time>2026-04-28T07:54:23Z</time></trkpt><trkpt lat="29.576581123479066" lon="-9.69794165734254"><ele>387.33333333333337</ele><time>2026-04-28T07:54:24Z</time></trkpt><trkpt lat="29.576424774670464" lon="-9.69787588991214"><ele>388.0</ele><time>2026-04-28T07:54:25Z</time></trkpt><trkpt lat="29.576271067469825" lon="-9.697810754415725"><ele>388.33333333333337</ele><time>2026-04-28T07:54:26Z</time></trkpt><trkpt lat="29.576118478890177" lon="-9.69774525106334"><ele>388.66666666666663</ele><time>2026-04-28T07:54:27Z</time></trkpt><trkpt lat="29.575969502272457" lon="-9.697682303898475"><ele>389.0</ele><time>2026-04-28T07:54:28Z</time></trkpt><trkpt lat="29.575816780448573" lon="-9.697617044177093"><ele>389.0</ele><time>2026-04-28T07:54:29Z</time></trkpt><trkpt lat="29.57566876996383" lon="-9.697554369543495"><ele>389.0</ele><time>2026-04-28T07:54:30Z</time></trkpt><trkpt lat="29.575522791420592" lon="-9.697499071287139"><ele>389.0</ele><time>2026-04-28T07:54:31Z</time></trkpt><trkpt lat="29.575378287138523" lon="-9.697448013570932"><ele>389.25</ele><time>2026-04-28T07:54:32Z</time></trkpt><trkpt lat="29.575233732306728" lon="-9.697403354390023"><ele>389.5</ele><time>2026-04-28T07:54:33Z</time></trkpt><trkpt lat="29.57509022213515" lon="-9.697362934168224"><ele>389.75</ele><time>2026-04-28T07:54:34Z</time></trkpt><trkpt lat="29.5749481382009" lon="-9.6973238893203"><ele>390.0</ele><time>2026-04-28T07:54:35Z</time></trkpt><trkpt lat="29.574807879887608" lon="-9.697286426103371"><ele>390.0</ele><time>2026-04-28T07:54:36Z</time></trkpt><trkpt lat="29.57466707606807" lon="-9.697250029568965"><ele>390.0</ele><time>2026-04-28T07:54:37Z</time></trkpt><trkpt lat="29.574523805394147" lon="-9.697218587435911"><ele>390.0</ele><time>2026-04-28T07:54:38Z</time></trkpt><trkpt lat="29.574375774957048" lon="-9.697192747632137"><ele>390.0</ele><time>2026-04-28T07:54:39Z</time></trkpt><trkpt lat="29.57422041874737" lon="-9.697167157291565"><ele>391.0</ele><time>2026-04-28T07:54:40Z</time></trkpt><trkpt lat="29.57405655492027" lon="-9.697149160918732"><ele>392.0</ele><time>2026-04-28T07:54:41Z</time></trkpt><trkpt lat="29.5738860960608" lon="-9.697132077713615"><ele>393.0</ele><time>2026-04-28T07:54:42Z</time></trkpt><trkpt lat="29.573706457637492" lon="-9.69712116392464"><ele>393.0</ele><time>2026-04-28T07:54:43Z</time></trkpt><trkpt lat="29.573524645768146" lon="-9.697116479598934"><ele>393.0</ele><time>2026-04-28T07:54:44Z</time></trkpt><trkpt lat="29.573340095890917" lon="-9.697115380631335"><ele>393.0</ele><time>2026-04-28T07:54:45Z</time></trkpt><trkpt lat="29.57314893973728" lon="-9.697121017840555"><ele>393.0</ele><time>2026-04-28T07:54:46Z</time></trkpt><trkpt lat="29.572959047748014" lon="-9.697131411080301"><ele>393.0</ele><time>2026-04-28T07:54:47Z</time></trkpt><trkpt lat="29.57278137563662" lon="-9.697138513049827"><ele>393.0</ele><time>2026-04-28T07:54:48Z</time></trkpt><trkpt lat="29.572612249619773" lon="-9.697146004155131"><ele>392.0</ele><time>2026-04-28T07:54:49Z</time></trkpt><trkpt lat="29.572452281548433" lon="-9.697155023005598"><ele>391.0</ele><time>2026-04-28T07:54:50Z</time></trkpt><trkpt lat="29.572291912442786" lon="-9.69716702992184"><ele>390.0</ele><time>2026-04-28T07:54:51Z</time></trkpt><trkpt lat="29.57212659857097" lon="-9.697179836501292"><ele>390.66666666666663</ele><time>2026-04-28T07:54:52Z</time></trkpt><trkpt lat="29.571959976472012" lon="-9.697189377091595"><ele>391.3333333333333</ele><time>2026-04-28T07:54:53Z</time></trkpt><trkpt lat="29.57179463822496" lon="-9.6972006532452"><ele>392.0</ele><time>2026-04-28T07:54:54Z</time></trkpt><trkpt lat="29.571627870404374" lon="-9.69721344455013"><ele>392.0</ele><time>2026-04-28T07:54:55Z</time></trkpt><trkpt lat="29.571459483260288" lon="-9.697227215441005"><ele>392.0</ele><time>2026-04-28T07:54:56Z</time></trkpt><trkpt lat="29.571290362272872" lon="-9.697241680766492"><ele>392.0</ele><time>2026-04-28T07:54:57Z</time></trkpt><trkpt lat="29.57112205517358" lon="-9.697262129136217"><ele>392.0</ele><time>2026-04-28T07:54:58Z</time></trkpt><trkpt lat="29.570951954924325" lon="-9.6972551823668"><ele>392.0</ele><time>2026-04-28T07:54:59Z</time></trkpt><trkpt lat="29.570782070987175" lon="-9.697263457357495"><ele>392.0</ele><time>2026-04-28T07:55:00Z</time></trkpt><trkpt lat="29.570597396419902" lon="-9.697272218131003"><ele>392.0</ele><time>2026-04-28T07:55:01Z</time></trkpt><trkpt lat="29.570401401798748" lon="-9.697281437241974"><ele>392.0</ele><time>2026-04-28T07:55:02Z</time></trkpt><trkpt lat="29.5701950737521" lon="-9.697291725384973"><ele>392.0</ele><time>2026-04-28T07:55:03Z</time></trkpt><trkpt lat="29.569987053027123" lon="-9.697301666340428"><ele>392.0</ele><time>2026-04-28T07:55:04Z</time></trkpt><trkpt lat="29.569782536231845" lon="-9.697329602138003"><ele>392.0</ele><time>2026-04-28T07:55:05Z</time></trkpt><trkpt lat="29.569589635376097" lon="-9.697328982161714"><ele>392.0</ele><time>2026-04-28T07:55:06Z</time></trkpt><trkpt lat="29.56940886596484" lon="-9.697327123591673"><ele>393.0</ele><time>2026-04-28T07:55:07Z</time></trkpt><trkpt lat="29.56922539663716" lon="-9.697342923916375"><ele>394.0</ele><time>2026-04-28T07:55:08Z</time></trkpt><trkpt lat="29.569029728409426" lon="-9.697368049505572"><ele>395.0</ele><time>2026-04-28T07:55:09Z</time></trkpt><trkpt lat="29.568846647933533" lon="-9.697378557430943"><ele>396.3333333333333</ele><time>2026-04-28T07:55:10Z</time></trkpt><trkpt lat="29.568674095392677" lon="-9.697381219718988"><ele>397.66666666666663</ele><time>2026-04-28T07:55:11Z</time></trkpt><trkpt lat="29.568507159341372" lon="-9.6973847293823"><ele>399.0</ele><time>2026-04-28T07:55:12Z</time></trkpt><trkpt lat="29.568322155877876" lon="-9.69738703325745"><ele>399.0</ele><time>2026-04-28T07:55:13Z</time></trkpt><trkpt lat="29.56812702755381" lon="-9.69738190686774"><ele>399.0</ele><time>2026-04-28T07:55:14Z</time></trkpt><trkpt lat="29.567932132841023" lon="-9.697379348130234"><ele>399.0</ele><time>2026-04-28T07:55:15Z</time></trkpt><trkpt lat="29.567743976220484" lon="-9.697382709086687"><ele>399.0</ele><time>2026-04-28T07:55:16Z</time></trkpt><trkpt lat="29.56754825278932" lon="-9.697382714624895"><ele>399.0</ele><time>2026-04-28T07:55:17Z</time></trkpt><trkpt lat="29.56733095099445" lon="-9.697387494168341"><ele>399.0</ele><time>2026-04-28T07:55:18Z</time></trkpt><trkpt lat="29.56709662381253" lon="-9.69740442868073"><ele>399.0</ele><time>2026-04-28T07:55:19Z</time></trkpt><trkpt lat="29.566854397237478" lon="-9.69742408961072"><ele>399.0</ele><time>2026-04-28T07:55:20Z</time></trkpt><trkpt lat="29.566599314313983" lon="-9.69744393893262"><ele>399.0</ele><time>2026-04-28T07:55:21Z</time></trkpt><trkpt lat="29.566332652047212" lon="-9.697460798254845"><ele>399.0</ele><time>2026-04-28T07:55:22Z</time></trkpt><trkpt lat="29.566051826440827" lon="-9.697478109120551"><ele>400.0</ele><time>2026-04-28T07:55:23Z</time></trkpt><trkpt lat="29.56576496272233" lon="-9.697496227391078"><ele>401.0</ele><time>2026-04-28T07:55:24Z</time></trkpt><trkpt lat="29.565474213891537" lon="-9.697512497068322"><ele>402.5</ele><time>2026-04-28T07:55:25Z</time></trkpt><trkpt lat="29.56517848867117" lon="-9.697527791997532"><ele>404.0</ele><time>2026-04-28T07:55:26Z</time></trkpt><trkpt lat="29.564878305990856" lon="-9.69754134287035"><ele>404.0</ele><time>2026-04-28T07:55:27Z</time></trkpt><trkpt lat="29.56457864247185" lon="-9.69755601477871"><ele>404.0</ele><time>2026-04-28T07:55:28Z</time></trkpt><trkpt lat="29.564277839928167" lon="-9.69757299238632"><ele>405.0</ele><time>2026-04-28T07:55:29Z</time></trkpt><trkpt lat="29.56397792430885" lon="-9.697590416784227"><ele>406.0</ele><time>2026-04-28T07:55:30Z</time></trkpt><trkpt lat="29.56367564158103" lon="-9.697607615001763"><ele>407.5</ele><time>2026-04-28T07:55:31Z</time></trkpt><trkpt lat="29.563372743094103" lon="-9.697620982992415"><ele>409.0</ele><time>2026-04-28T07:55:32Z</time></trkpt><trkpt lat="29.56306841465763" lon="-9.697634870313346"><ele>410.0</ele><time>2026-04-28T07:55:33Z</time></trkpt><trkpt lat="29.562764283881634" lon="-9.697651316658776"><ele>411.0</ele><time>2026-04-28T07:55:34Z</time></trkpt><trkpt lat="29.562461136462147" lon="-9.697668234747441"><ele>411.0</ele><time>2026-04-28T07:55:35Z</time></trkpt><trkpt lat="29.5621544826813" lon="-9.697684411783959"><ele>411.0</ele><time>2026-04-28T07:55:36Z</time></trkpt><trkpt lat="29.561847221794224" lon="-9.697699322277685"><ele>411.5</ele><time>2026-04-28T07:55:37Z</time></trkpt><trkpt lat="29.561539219182865" lon="-9.697714458792593"><ele>412.0</ele><time>2026-04-28T07:55:38Z</time></trkpt><trkpt lat="29.561231467000557" lon="-9.697728725177225"><ele>412.0</ele><time>2026-04-28T07:55:39Z</time></trkpt><trkpt lat="29.56092426872793" lon="-9.697743520165766"><ele>412.0</ele><time>2026-04-28T07:55:40Z</time></trkpt><trkpt lat="29.560619237145385" lon="-9.69775961493712"><ele>414.0</ele><time>2026-04-28T07:55:41Z</time></trkpt><trkpt lat="29.560309243987536" lon="-9.69777452549076"><ele>416.0</ele><time>2026-04-28T07:55:42Z</time></trkpt><trkpt lat="29.559989651903127" lon="-9.69781023278614"><ele>416.0</ele><time>2026-04-28T07:55:43Z</time></trkpt><trkpt lat="29.559668209856454" lon="-9.69780678416678"><ele>416.0</ele><time>2026-04-28T07:55:44Z</time></trkpt><trkpt lat="29.559348863197652" lon="-9.69782345984533"><ele>416.5</ele><time>2026-04-28T07:55:45Z</time></trkpt><trkpt lat="29.559029675167654" lon="-9.697839885508953"><ele>417.0</ele><time>2026-04-28T07:55:46Z</time></trkpt><trkpt lat="29.55870895723415" lon="-9.697855664870303"><ele>418.0</ele><time>2026-04-28T07:55:47Z</time></trkpt><trkpt lat="29.55838964001377" lon="-9.6978716262651"><ele>419.0</ele><time>2026-04-28T07:55:48Z</time></trkpt><trkpt lat="29.558071440044547" lon="-9.697885911943489"><ele>420.5</ele><time>2026-04-28T07:55:49Z</time></trkpt><trkpt lat="29.557754488129127" lon="-9.697903610592187"><ele>422.0</ele><time>2026-04-28T07:55:50Z</time></trkpt><trkpt lat="29.557436459326677" lon="-9.697920470368048"><ele>422.0</ele><time>2026-04-28T07:55:51Z</time></trkpt><trkpt lat="29.557119055246744" lon="-9.697937583393449"><ele>422.0</ele><time>2026-04-28T07:55:52Z</time></trkpt><trkpt lat="29.5568026844529" lon="-9.697955128734879"><ele>422.5</ele><time>2026-04-28T07:55:53Z</time></trkpt><trkpt lat="29.556488709702005" lon="-9.697970580824798"><ele>423.0</ele><time>2026-04-28T07:55:54Z</time></trkpt><trkpt lat="29.55617332963735" lon="-9.697988514456451"><ele>425.0</ele><time>2026-04-28T07:55:55Z</time></trkpt><trkpt lat="29.555854278246677" lon="-9.698005807897172"><ele>427.0</ele><time>2026-04-28T07:55:56Z</time></trkpt><trkpt lat="29.555527237953278" lon="-9.69802350313064"><ele>426.5</ele><time>2026-04-28T07:55:57Z</time></trkpt><trkpt lat="29.55519778935351" lon="-9.69804181789455"><ele>426.0</ele><time>2026-04-28T07:55:58Z</time></trkpt><trkpt lat="29.55486963473791" lon="-9.698058345971951"><ele>426.0</ele><time>2026-04-28T07:55:59Z</time></trkpt><trkpt lat="29.554541617479504" lon="-9.698076205916909"><ele>426.0</ele><time>2026-04-28T07:56:00Z</time></trkpt><trkpt lat="29.55421531967635" lon="-9.698094681468952"><ele>427.0</ele><time>2026-04-28T07:56:01Z</time></trkpt><trkpt lat="29.55388732633559" lon="-9.698111919595737"><ele>428.0</ele><time>2026-04-28T07:56:02Z</time></trkpt><trkpt lat="29.553558832619967" lon="-9.698127248311872"><ele>429.0</ele><time>2026-04-28T07:56:03Z</time></trkpt><trkpt lat="29.55322982225461" lon="-9.698143952011588"><ele>430.0</ele><time>2026-04-28T07:56:04Z</time></trkpt><trkpt lat="29.55290141010055" lon="-9.698159589349142"><ele>431.0</ele><time>2026-04-28T07:56:05Z</time></trkpt><trkpt lat="29.552576675112476" lon="-9.698176111158125"><ele>432.0</ele><time>2026-04-28T07:56:06Z</time></trkpt><trkpt lat="29.55226759118024" lon="-9.69819119961446"><ele>433.0</ele><time>2026-04-28T07:56:07Z</time></trkpt><trkpt lat="29.551978157403525" lon="-9.698206503561115"><ele>434.0</ele><time>2026-04-28T07:56:08Z</time></trkpt><trkpt lat="29.551704529791675" lon="-9.698219710646248"><ele>434.0</ele><time>2026-04-28T07:56:09Z</time></trkpt><trkpt lat="29.551436404328832" lon="-9.698234626142296"><ele>434.0</ele><time>2026-04-28T07:56:10Z</time></trkpt><trkpt lat="29.55117052283526" lon="-9.698250562588024"><ele>436.0</ele><time>2026-04-28T07:56:11Z</time></trkpt><trkpt lat="29.550908754901094" lon="-9.698265076314911"><ele>438.0</ele><time>2026-04-28T07:56:12Z</time></trkpt><trkpt lat="29.550650537780687" lon="-9.698277933087855"><ele>438.0</ele><time>2026-04-28T07:56:13Z</time></trkpt><trkpt lat="29.550392246204435" lon="-9.698291382042248"><ele>438.0</ele><time>2026-04-28T07:56:14Z</time></trkpt><trkpt lat="29.550135716406114" lon="-9.698302973700892"><ele>440.0</ele><time>2026-04-28T07:56:15Z</time></trkpt><trkpt lat="29.549881902133244" lon="-9.698316789427036"><ele>442.0</ele><time>2026-04-28T07:56:16Z</time></trkpt><trkpt lat="29.54963494403903" lon="-9.698331037688943"><ele>443.0</ele><time>2026-04-28T07:56:17Z</time></trkpt><trkpt lat="29.549390839336898" lon="-9.698345106826242"><ele>444.0</ele><time>2026-04-28T07:56:18Z</time></trkpt><trkpt lat="29.549151704414463" lon="-9.698358847796891"><ele>444.0</ele><time>2026-04-28T07:56:19Z</time></trkpt><trkpt lat="29.54891919126408" lon="-9.69837139994075"><ele>444.0</ele><time>2026-04-28T07:56:20Z</time></trkpt><trkpt lat="29.548688942356296" lon="-9.698381967950963"><ele>444.5</ele><time>2026-04-28T07:56:21Z</time></trkpt><trkpt lat="29.548459406550307" lon="-9.698391090062618"><ele>445.0</ele><time>2026-04-28T07:56:22Z</time></trkpt><trkpt lat="29.54823110711258" lon="-9.698399186099916"><ele>445.0</ele><time>2026-04-28T07:56:23Z</time></trkpt><trkpt lat="29.54800160021777" lon="-9.698407880360568"><ele>445.0</ele><time>2026-04-28T07:56:24Z</time></trkpt><trkpt lat="29.547777170077264" lon="-9.69842069398262"><ele>446.0</ele><time>2026-04-28T07:56:25Z</time></trkpt><trkpt lat="29.547561996985742" lon="-9.698430910316866"><ele>447.0</ele><time>2026-04-28T07:56:26Z</time></trkpt><trkpt lat="29.54735548483726" lon="-9.698438791078726"><ele>448.0</ele><time>2026-04-28T07:56:27Z</time></trkpt><trkpt lat="29.547150540009042" lon="-9.698441393984517"><ele>448.0</ele><time>2026-04-28T07:56:28Z</time></trkpt><trkpt lat="29.54694982988704" lon="-9.698440994666232"><ele>448.0</ele><time>2026-04-28T07:56:29Z</time></trkpt><trkpt lat="29.5467510526262" lon="-9.698436088894317"><ele>448.0</ele><time>2026-04-28T07:56:30Z</time></trkpt><trkpt lat="29.546552690078258" lon="-9.6984272934942"><ele>448.0</ele><time>2026-04-28T07:56:31Z</time></trkpt><trkpt lat="29.546354456757083" lon="-9.698416019796923"><ele>448.0</ele><time>2026-04-28T07:56:32Z</time></trkpt><trkpt lat="29.546157893770346" lon="-9.698393097632236"><ele>448.0</ele><time>2026-04-28T07:56:33Z</time></trkpt><trkpt lat="29.545962702193023" lon="-9.69836566071718"><ele>449.0</ele><time>2026-04-28T07:56:34Z</time></trkpt><trkpt lat="29.5457697883647" lon="-9.698334107559264"><ele>450.0</ele><time>2026-04-28T07:56:35Z</time></trkpt><trkpt lat="29.54557436140945" lon="-9.698299089917551"><ele>451.0</ele><time>2026-04-28T07:56:36Z</time></trkpt><trkpt lat="29.545380192155026" lon="-9.69825918440696"><ele>451.33333333333337</ele><time>2026-04-28T07:56:37Z</time></trkpt><trkpt lat="29.545187662570495" lon="-9.69821341208877"><ele>451.66666666666663</ele><time>2026-04-28T07:56:38Z</time></trkpt><trkpt lat="29.544992873280624" lon="-9.698159197617056"><ele>452.0</ele><time>2026-04-28T07:56:39Z</time></trkpt><trkpt lat="29.544797841012816" lon="-9.69810265947772"><ele>452.0</ele><time>2026-04-28T07:56:40Z</time></trkpt><trkpt lat="29.544602634417295" lon="-9.698042951300273"><ele>452.0</ele><time>2026-04-28T07:56:41Z</time></trkpt><trkpt lat="29.544408493614576" lon="-9.697979093519496"><ele>452.0</ele><time>2026-04-28T07:56:42Z</time></trkpt><trkpt lat="29.544213409336635" lon="-9.697909581792809"><ele>452.66666666666663</ele><time>2026-04-28T07:56:43Z</time></trkpt><trkpt lat="29.54401657047294" lon="-9.697836641248665"><ele>453.33333333333337</ele><time>2026-04-28T07:56:44Z</time></trkpt><trkpt lat="29.54382034115238" lon="-9.697762229281986"><ele>454.0</ele><time>2026-04-28T07:56:45Z</time></trkpt><trkpt lat="29.543624451733997" lon="-9.697688697689975"><ele>455.33333333333337</ele><time>2026-04-28T07:56:46Z</time></trkpt><trkpt lat="29.543435894934003" lon="-9.69761795666872"><ele>456.66666666666663</ele><time>2026-04-28T07:56:47Z</time></trkpt><trkpt lat="29.54325081472763" lon="-9.697547046245125"><ele>458.0</ele><time>2026-04-28T07:56:48Z</time></trkpt><trkpt lat="29.543066942506027" lon="-9.697476684812864"><ele>458.0</ele><time>2026-04-28T07:56:49Z</time></trkpt><trkpt lat="29.54288236044488" lon="-9.697407728056849"><ele>458.0</ele><time>2026-04-28T07:56:50Z</time></trkpt><trkpt lat="29.542698630734343" lon="-9.697338609416274"><ele>458.0</ele><time>2026-04-28T07:56:51Z</time></trkpt><trkpt lat="29.542512364905527" lon="-9.69726895242457"><ele>458.0</ele><time>2026-04-28T07:56:52Z</time></trkpt><trkpt lat="29.542323240346896" lon="-9.697197398419002"><ele>458.0</ele><time>2026-04-28T07:56:53Z</time></trkpt><trkpt lat="29.542132095314503" lon="-9.697124986556066"><ele>458.0</ele><time>2026-04-28T07:56:54Z</time></trkpt><trkpt lat="29.541944213583594" lon="-9.697052462908799"><ele>458.3333333333333</ele><time>2026-04-28T07:56:55Z</time></trkpt><trkpt lat="29.541756540482208" lon="-9.696979243247675"><ele>458.66666666666663</ele><time>2026-04-28T07:56:56Z</time></trkpt><trkpt lat="29.54156816459724" lon="-9.696905416836458"><ele>459.0</ele><time>2026-04-28T07:56:57Z</time></trkpt><trkpt lat="29.54138007938146" lon="-9.69683323401975"><ele>459.33333333333337</ele><time>2026-04-28T07:56:58Z</time></trkpt><trkpt lat="29.541193260094254" lon="-9.696761659975735"><ele>459.6666666666667</ele><time>2026-04-28T07:56:59Z</time></trkpt><trkpt lat="29.541007108976146" lon="-9.69669073498829"><ele>460.0</ele><time>2026-04-28T07:57:00Z</time></trkpt><trkpt lat="29.54082133765852" lon="-9.696620741767624"><ele>460.0</ele><time>2026-04-28T07:57:01Z</time></trkpt><trkpt lat="29.5406347128791" lon="-9.69654975019417"><ele>460.0</ele><time>2026-04-28T07:57:02Z</time></trkpt><trkpt lat="29.540450754464484" lon="-9.696479490979469"><ele>460.0</ele><time>2026-04-28T07:57:03Z</time></trkpt><trkpt lat="29.540266819076706" lon="-9.696409548664487"><ele>460.33333333333337</ele><time>2026-04-28T07:57:04Z</time></trkpt><trkpt lat="29.54008251616727" lon="-9.696341821261981"><ele>460.66666666666663</ele><time>2026-04-28T07:57:05Z</time></trkpt><trkpt lat="29.539896101470646" lon="-9.696273372187022"><ele>461.0</ele><time>2026-04-28T07:57:06Z</time></trkpt><trkpt lat="29.539708217238264" lon="-9.696202978358098"><ele>461.3333333333333</ele><time>2026-04-28T07:57:07Z</time></trkpt><trkpt lat="29.539519688252227" lon="-9.696132621086692"><ele>461.66666666666663</ele><time>2026-04-28T07:57:08Z</time></trkpt><trkpt lat="29.53933039640492" lon="-9.69606127926858"><ele>462.0</ele><time>2026-04-28T07:57:09Z</time></trkpt><trkpt lat="29.539138819716143" lon="-9.695989656879851"><ele>462.0</ele><time>2026-04-28T07:57:10Z</time></trkpt><trkpt lat="29.538944394630093" lon="-9.695914170666168"><ele>462.0</ele><time>2026-04-28T07:57:11Z</time></trkpt><trkpt lat="29.538749158076428" lon="-9.695837727387277"><ele>462.0</ele><time>2026-04-28T07:57:12Z</time></trkpt><trkpt lat="29.53854261343581" lon="-9.69579232053576"><ele>461.33333333333337</ele><time>2026-04-28T07:57:13Z</time></trkpt><trkpt lat="29.53834346889872" lon="-9.695719324286832"><ele>460.6666666666667</ele><time>2026-04-28T07:57:14Z</time></trkpt><trkpt lat="29.538140715439695" lon="-9.69564502837538"><ele>460.0</ele><time>2026-04-28T07:57:15Z</time></trkpt><trkpt lat="29.537938919145432" lon="-9.695568883094849"><ele>460.0</ele><time>2026-04-28T07:57:16Z</time></trkpt><trkpt lat="29.537736829923308" lon="-9.695491604523454"><ele>460.0</ele><time>2026-04-28T07:57:17Z</time></trkpt><trkpt lat="29.537530089978652" lon="-9.695412547524015"><ele>460.0</ele><time>2026-04-28T07:57:18Z</time></trkpt><trkpt lat="29.5373207672296" lon="-9.695334791187213"><ele>460.0</ele><time>2026-04-28T07:57:19Z</time></trkpt><trkpt lat="29.53710785148558" lon="-9.695255937816992"><ele>460.0</ele><time>2026-04-28T07:57:20Z</time></trkpt><trkpt lat="29.536897510599946" lon="-9.695173841331572"><ele>460.0</ele><time>2026-04-28T07:57:21Z</time></trkpt><trkpt lat="29.53668783502266" lon="-9.695092004517049"><ele>461.33333333333337</ele><time>2026-04-28T07:57:22Z</time></trkpt><trkpt lat="29.536481720696795" lon="-9.695011946011707"><ele>462.66666666666663</ele><time>2026-04-28T07:57:23Z</time></trkpt><trkpt lat="29.536284014692228" lon="-9.694934743285163"><ele>464.0</ele><time>2026-04-28T07:57:24Z</time></trkpt><trkpt lat="29.53609108743478" lon="-9.694854766750828"><ele>465.0</ele><time>2026-04-28T07:57:25Z</time></trkpt><trkpt lat="29.535904127328266" lon="-9.69477784970412"><ele>466.0</ele><time>2026-04-28T07:57:26Z</time></trkpt><trkpt lat="29.535723021404472" lon="-9.694703404768966"><ele>467.0</ele><time>2026-04-28T07:57:27Z</time></trkpt><trkpt lat="29.535548830093163" lon="-9.69461447672938"><ele>469.3333333333333</ele><time>2026-04-28T07:57:28Z</time></trkpt><trkpt lat="29.53537488114034" lon="-9.694550071665464"><ele>471.66666666666663</ele><time>2026-04-28T07:57:29Z</time></trkpt><trkpt lat="29.535200734528605" lon="-9.694485197873759"><ele>474.0</ele><time>2026-04-28T07:57:30Z</time></trkpt><trkpt lat="29.535029122009227" lon="-9.694420800418763"><ele>474.0</ele><time>2026-04-28T07:57:31Z</time></trkpt><trkpt lat="29.534857992806494" lon="-9.694358074437625"><ele>474.0</ele><time>2026-04-28T07:57:32Z</time></trkpt><trkpt lat="29.534687920641932" lon="-9.6942941463943"><ele>474.0</ele><time>2026-04-28T07:57:33Z</time></trkpt><trkpt lat="29.53451957596039" lon="-9.694226781690082"><ele>475.66666666666663</ele><time>2026-04-28T07:57:34Z</time></trkpt><trkpt lat="29.53435047749118" lon="-9.694160781370158"><ele>477.3333333333333</ele><time>2026-04-28T07:57:35Z</time></trkpt><trkpt lat="29.534183941002397" lon="-9.694096177884692"><ele>479.0</ele><time>2026-04-28T07:57:36Z</time></trkpt><trkpt lat="29.534015774736428" lon="-9.694031559200042"><ele>479.0</ele><time>2026-04-28T07:57:37Z</time></trkpt><trkpt lat="29.533848169451932" lon="-9.69396719311873"><ele>479.0</ele><time>2026-04-28T07:57:38Z</time></trkpt><trkpt lat="29.533676583191344" lon="-9.693901208616781"><ele>479.0</ele><time>2026-04-28T07:57:39Z</time></trkpt><trkpt lat="29.5335020497304" lon="-9.69383494581118"><ele>480.3333333333333</ele><time>2026-04-28T07:57:40Z</time></trkpt><trkpt lat="29.533324559271684" lon="-9.693769846145015"><ele>481.66666666666663</ele><time>2026-04-28T07:57:41Z</time></trkpt><trkpt lat="29.533146912844483" lon="-9.693702243934172"><ele>483.0</ele><time>2026-04-28T07:57:42Z</time></trkpt><trkpt lat="29.532965432095956" lon="-9.693633231548622"><ele>483.33333333333337</ele><time>2026-04-28T07:57:43Z</time></trkpt><trkpt lat="29.532783637326876" lon="-9.693562836894259"><ele>483.6666666666667</ele><time>2026-04-28T07:57:44Z</time></trkpt><trkpt lat="29.532593548854777" lon="-9.693491763043303"><ele>484.0</ele><time>2026-04-28T07:57:45Z</time></trkpt><trkpt lat="29.532405845962696" lon="-9.693422085616701"><ele>484.0</ele><time>2026-04-28T07:57:46Z</time></trkpt><trkpt lat="29.53221613839383" lon="-9.693350185006944"><ele>484.0</ele><time>2026-04-28T07:57:47Z</time></trkpt><trkpt lat="29.532035976455276" lon="-9.693275407197646"><ele>484.0</ele><time>2026-04-28T07:57:48Z</time></trkpt><trkpt lat="29.531853642827073" lon="-9.693198123442958"><ele>483.6666666666667</ele><time>2026-04-28T07:57:49Z</time></trkpt><trkpt lat="29.531659894486484" lon="-9.693131478977584"><ele>483.33333333333337</ele><time>2026-04-28T07:57:50Z</time></trkpt><trkpt lat="29.53147038819908" lon="-9.693061048958505"><ele>483.0</ele><time>2026-04-28T07:57:51Z</time></trkpt><trkpt lat="29.531276346677465" lon="-9.693000979024141"><ele>481.0</ele><time>2026-04-28T07:57:52Z</time></trkpt><trkpt lat="29.531084121949526" lon="-9.69297060780071"><ele>479.0</ele><time>2026-04-28T07:57:53Z</time></trkpt><trkpt lat="29.5308952126246" lon="-9.69290485206926"><ele>477.0</ele><time>2026-04-28T07:57:54Z</time></trkpt><trkpt lat="29.530707300672674" lon="-9.692862982104664"><ele>477.0</ele><time>2026-04-28T07:57:55Z</time></trkpt><trkpt lat="29.530521001315645" lon="-9.692827532173714"><ele>477.0</ele><time>2026-04-28T07:57:56Z</time></trkpt><trkpt lat="29.530332953019787" lon="-9.692791912656668"><ele>477.0</ele><time>2026-04-28T07:57:57Z</time></trkpt><trkpt lat="29.530142225916435" lon="-9.69276141749884"><ele>476.66666666666663</ele><time>2026-04-28T07:57:58Z</time></trkpt><trkpt lat="29.529949527132665" lon="-9.692759627877976"><ele>476.3333333333333</ele><time>2026-04-28T07:57:59Z</time></trkpt><trkpt lat="29.529752870527105" lon="-9.692743420456212"><ele>476.0</ele><time>2026-04-28T07:58:00Z</time></trkpt><trkpt lat="29.52956281376373" lon="-9.692729449698005"><ele>476.66666666666663</ele><time>2026-04-28T07:58:01Z</time></trkpt><trkpt lat="29.52937131773915" lon="-9.692719164470773"><ele>477.33333333333337</ele><time>2026-04-28T07:58:02Z</time></trkpt><trkpt lat="29.529177769839347" lon="-9.692712877844157"><ele>478.0</ele><time>2026-04-28T07:58:03Z</time></trkpt><trkpt lat="29.528985991128252" lon="-9.692711946273278"><ele>478.0</ele><time>2026-04-28T07:58:04Z</time></trkpt><trkpt lat="29.528788257075007" lon="-9.692711183274847"><ele>478.0</ele><time>2026-04-28T07:58:05Z</time></trkpt><trkpt lat="29.528593803661042" lon="-9.692710632175109"><ele>478.0</ele><time>2026-04-28T07:58:06Z</time></trkpt><trkpt lat="29.52839723361246" lon="-9.692710083424636"><ele>477.6666666666667</ele><time>2026-04-28T07:58:07Z</time></trkpt><trkpt lat="29.528196231862214" lon="-9.692710083425826"><ele>477.33333333333337</ele><time>2026-04-28T07:58:08Z</time></trkpt><trkpt lat="29.52799828892995" lon="-9.692712599468173"><ele>477.0</ele><time>2026-04-28T07:58:09Z</time></trkpt><trkpt lat="29.52780303779422" lon="-9.69271580754964"><ele>477.0</ele><time>2026-04-28T07:58:10Z</time></trkpt><trkpt lat="29.52760759053897" lon="-9.69272002514114"><ele>477.0</ele><time>2026-04-28T07:58:11Z</time></trkpt><trkpt lat="29.527410579439795" lon="-9.692706860910432"><ele>477.0</ele><time>2026-04-28T07:58:12Z</time></trkpt><trkpt lat="29.52721900713276" lon="-9.692741026794154"><ele>476.66666666666663</ele><time>2026-04-28T07:58:13Z</time></trkpt><trkpt lat="29.527026296559207" lon="-9.692760945803467"><ele>476.3333333333333</ele><time>2026-04-28T07:58:14Z</time></trkpt><trkpt lat="29.52683436496712" lon="-9.692783977421051"><ele>476.0</ele><time>2026-04-28T07:58:15Z</time></trkpt><trkpt lat="29.526646761607232" lon="-9.692812388928331"><ele>476.0</ele><time>2026-04-28T07:58:16Z</time></trkpt><trkpt lat="29.52645654447044" lon="-9.692827745835896"><ele>476.0</ele><time>2026-04-28T07:58:17Z</time></trkpt><trkpt lat="29.526276820550873" lon="-9.69288624355572"><ele>476.0</ele><time>2026-04-28T07:58:18Z</time></trkpt><trkpt lat="29.526092905263333" lon="-9.692928215921253"><ele>476.66666666666663</ele><time>2026-04-28T07:58:19Z</time></trkpt><trkpt lat="29.525908239845617" lon="-9.69297300793163"><ele>477.33333333333337</ele><time>2026-04-28T07:58:20Z</time></trkpt><trkpt lat="29.525714505667118" lon="-9.693022570565981"><ele>478.0</ele><time>2026-04-28T07:58:21Z</time></trkpt><trkpt lat="29.525511018418147" lon="-9.69307573408232"><ele>479.0</ele><time>2026-04-28T07:58:22Z</time></trkpt><trkpt lat="29.52530245616895" lon="-9.693129814220642"><ele>480.0</ele><time>2026-04-28T07:58:23Z</time></trkpt><trkpt lat="29.525088146016703" lon="-9.693192147232894"><ele>481.0</ele><time>2026-04-28T07:58:24Z</time></trkpt><trkpt lat="29.5248573489808" lon="-9.693264426308604"><ele>481.0</ele><time>2026-04-28T07:58:25Z</time></trkpt><trkpt lat="29.524625711720788" lon="-9.6933419089081"><ele>481.0</ele><time>2026-04-28T07:58:26Z</time></trkpt><trkpt lat="29.524390834315085" lon="-9.693426995338482"><ele>481.5</ele><time>2026-04-28T07:58:27Z</time></trkpt><trkpt lat="29.524161499221517" lon="-9.693525946218061"><ele>482.0</ele><time>2026-04-28T07:58:28Z</time></trkpt><trkpt lat="29.523936890661233" lon="-9.693629583420895"><ele>483.0</ele><time>2026-04-28T07:58:29Z</time></trkpt><trkpt lat="29.523718542597482" lon="-9.693730343367829"><ele>484.0</ele><time>2026-04-28T07:58:30Z</time></trkpt><trkpt lat="29.523502563052723" lon="-9.693811170572197"><ele>484.0</ele><time>2026-04-28T07:58:31Z</time></trkpt><trkpt lat="29.523300057857956" lon="-9.69392151493498"><ele>484.0</ele><time>2026-04-28T07:58:32Z</time></trkpt><trkpt lat="29.52310128087369" lon="-9.694036983121183"><ele>484.0</ele><time>2026-04-28T07:58:33Z</time></trkpt><trkpt lat="29.522907290197494" lon="-9.69415517092877"><ele>484.33333333333337</ele><time>2026-04-28T07:58:34Z</time></trkpt><trkpt lat="29.52271986603935" lon="-9.694275825314271"><ele>484.66666666666663</ele><time>2026-04-28T07:58:35Z</time></trkpt><trkpt lat="29.522534336302645" lon="-9.694403805673668"><ele>485.0</ele><time>2026-04-28T07:58:36Z</time></trkpt><trkpt lat="29.52234543751258" lon="-9.694537512251797"><ele>484.0</ele><time>2026-04-28T07:58:37Z</time></trkpt><trkpt lat="29.52215725925845" lon="-9.694671247236203"><ele>483.0</ele><time>2026-04-28T07:58:38Z</time></trkpt><trkpt lat="29.521978633412246" lon="-9.694797912619249"><ele>482.0</ele><time>2026-04-28T07:58:39Z</time></trkpt><trkpt lat="29.52180623293971" lon="-9.694914923843893"><ele>482.0</ele><time>2026-04-28T07:58:40Z</time></trkpt><trkpt lat="29.521629587152688" lon="-9.695030390647092"><ele>482.0</ele><time>2026-04-28T07:58:41Z</time></trkpt><trkpt lat="29.52144856967437" lon="-9.695147338882787"><ele>482.0</ele><time>2026-04-28T07:58:42Z</time></trkpt><trkpt lat="29.521263824008198" lon="-9.695259958928972"><ele>483.3333333333333</ele><time>2026-04-28T07:58:43Z</time></trkpt><trkpt lat="29.5210765742989" lon="-9.695363190475732"><ele>484.66666666666663</ele><time>2026-04-28T07:58:44Z</time></trkpt><trkpt lat="29.520888253282646" lon="-9.69545583756479"><ele>486.0</ele><time>2026-04-28T07:58:45Z</time></trkpt><trkpt lat="29.520697512643558" lon="-9.695537593534711"><ele>486.0</ele><time>2026-04-28T07:58:46Z</time></trkpt><trkpt lat="29.52050430875232" lon="-9.69561082267667"><ele>486.0</ele><time>2026-04-28T07:58:47Z</time></trkpt><trkpt lat="29.520304268891653" lon="-9.695678367499386"><ele>486.0</ele><time>2026-04-28T07:58:48Z</time></trkpt><trkpt lat="29.52009883593569" lon="-9.695739971350818"><ele>486.33333333333337</ele><time>2026-04-28T07:58:49Z</time></trkpt><trkpt lat="29.5198897631592" lon="-9.695790802134608"><ele>486.6666666666667</ele><time>2026-04-28T07:58:50Z</time></trkpt><trkpt lat="29.51967551662843" lon="-9.695829152223563"><ele>487.0</ele><time>2026-04-28T07:58:51Z</time></trkpt><trkpt lat="29.519460688337798" lon="-9.695858548011737"><ele>487.0</ele><time>2026-04-28T07:58:52Z</time></trkpt><trkpt lat="29.51924435404458" lon="-9.695885059623974"><ele>487.0</ele><time>2026-04-28T07:58:53Z</time></trkpt><trkpt lat="29.51902427552193" lon="-9.69591582554208"><ele>487.0</ele><time>2026-04-28T07:58:54Z</time></trkpt><trkpt lat="29.518804894554172" lon="-9.695946017633387"><ele>488.0</ele><time>2026-04-28T07:58:55Z</time></trkpt><trkpt lat="29.518587969070058" lon="-9.695972358311622"><ele>489.0</ele><time>2026-04-28T07:58:56Z</time></trkpt><trkpt lat="29.518371578627306" lon="-9.695999826770253"><ele>490.0</ele><time>2026-04-28T07:58:57Z</time></trkpt><trkpt lat="29.518156179850234" lon="-9.696028652060772"><ele>490.0</ele><time>2026-04-28T07:58:58Z</time></trkpt><trkpt lat="29.517941341060055" lon="-9.696057547910913"><ele>490.0</ele><time>2026-04-28T07:58:59Z</time></trkpt><trkpt lat="29.517725096748805" lon="-9.696086065198404"><ele>490.0</ele><time>2026-04-28T07:59:00Z</time></trkpt><trkpt lat="29.517511934320012" lon="-9.696115526340543"><ele>490.6666666666667</ele><time>2026-04-28T07:59:01Z</time></trkpt><trkpt lat="29.51730232841965" lon="-9.696141855028888"><ele>491.33333333333337</ele><time>2026-04-28T07:59:02Z</time></trkpt><trkpt lat="29.51709664443725" lon="-9.696168298135436"><ele>492.0</ele><time>2026-04-28T07:59:03Z</time></trkpt><trkpt lat="29.516889742264496" lon="-9.696195120726644"><ele>493.33333333333337</ele><time>2026-04-28T07:59:04Z</time></trkpt><trkpt lat="29.51668044077108" lon="-9.696223745518822"><ele>494.6666666666667</ele><time>2026-04-28T07:59:05Z</time></trkpt><trkpt lat="29.516471484814854" lon="-9.69625060031506"><ele>496.0</ele><time>2026-04-28T07:59:06Z</time></trkpt><trkpt lat="29.51626466255277" lon="-9.696276006993518"><ele>496.6666666666667</ele><time>2026-04-28T07:59:07Z</time></trkpt><trkpt lat="29.51605417343621" lon="-9.696298458873093"><ele>497.33333333333337</ele><time>2026-04-28T07:59:08Z</time></trkpt><trkpt lat="29.515845507855143" lon="-9.69632378533738"><ele>498.0</ele><time>2026-04-28T07:59:09Z</time></trkpt><trkpt lat="29.515638564558838" lon="-9.696351719571123"><ele>498.0</ele><time>2026-04-28T07:59:10Z</time></trkpt><trkpt lat="29.5154258001113" lon="-9.696379118450125"><ele>498.0</ele><time>2026-04-28T07:59:11Z</time></trkpt><trkpt lat="29.515217884775254" lon="-9.696405379855031"><ele>498.0</ele><time>2026-04-28T07:59:12Z</time></trkpt><trkpt lat="29.51501058045445" lon="-9.696432236245087"><ele>498.66666666666663</ele><time>2026-04-28T07:59:13Z</time></trkpt><trkpt lat="29.514802376797814" lon="-9.69645981399579"><ele>499.3333333333333</ele><time>2026-04-28T07:59:14Z</time></trkpt><trkpt lat="29.514594432661024" lon="-9.696485753248435"><ele>500.0</ele><time>2026-04-28T07:59:15Z</time></trkpt><trkpt lat="29.514387372771413" lon="-9.696509070870034"><ele>500.66666666666663</ele><time>2026-04-28T07:59:16Z</time></trkpt><trkpt lat="29.514171150872613" lon="-9.696537087362671"><ele>501.33333333333337</ele><time>2026-04-28T07:59:17Z</time></trkpt><trkpt lat="29.51395132725112" lon="-9.696571379538625"><ele>502.0</ele><time>2026-04-28T07:59:18Z</time></trkpt><trkpt lat="29.513718711922387" lon="-9.69661434382986"><ele>503.0</ele><time>2026-04-28T07:59:19Z</time></trkpt><trkpt lat="29.513480694555597" lon="-9.696667510903879"><ele>504.0</ele><time>2026-04-28T07:59:20Z</time></trkpt><trkpt lat="29.51324674407342" lon="-9.696727594025441"><ele>504.0</ele><time>2026-04-28T07:59:21Z</time></trkpt><trkpt lat="29.513008605421117" lon="-9.69679580007308"><ele>504.0</ele><time>2026-04-28T07:59:22Z</time></trkpt><trkpt lat="29.51276637242667" lon="-9.696874668333193"><ele>507.5</ele><time>2026-04-28T07:59:23Z</time></trkpt><trkpt lat="29.512522491618217" lon="-9.696960137158282"><ele>511.0</ele><time>2026-04-28T07:59:24Z</time></trkpt><trkpt lat="29.5122864548407" lon="-9.69704453572419"><ele>512.5</ele><time>2026-04-28T07:59:25Z</time></trkpt><trkpt lat="29.512057231834497" lon="-9.697124136177795"><ele>514.0</ele><time>2026-04-28T07:59:26Z</time></trkpt><trkpt lat="29.511832663686608" lon="-9.697201613910925"><ele>514.0</ele><time>2026-04-28T07:59:27Z</time></trkpt><trkpt lat="29.511612864025746" lon="-9.697277767070654"><ele>514.0</ele><time>2026-04-28T07:59:28Z</time></trkpt><trkpt lat="29.511395291050636" lon="-9.697351063885186"><ele>516.0</ele><time>2026-04-28T07:59:29Z</time></trkpt><trkpt lat="29.51118296401549" lon="-9.69741735780308"><ele>518.0</ele><time>2026-04-28T07:59:30Z</time></trkpt><trkpt lat="29.510969132273942" lon="-9.697474589980823"><ele>520.0</ele><time>2026-04-28T07:59:31Z</time></trkpt><trkpt lat="29.51074704105952" lon="-9.697521678169373"><ele>520.0</ele><time>2026-04-28T07:59:32Z</time></trkpt><trkpt lat="29.510512795788365" lon="-9.697560135191383"><ele>520.0</ele><time>2026-04-28T07:59:33Z</time></trkpt><trkpt lat="29.51026634493475" lon="-9.697587772355906"><ele>522.0</ele><time>2026-04-28T07:59:34Z</time></trkpt><trkpt lat="29.510020375258208" lon="-9.697604099753843"><ele>524.0</ele><time>2026-04-28T07:59:35Z</time></trkpt><trkpt lat="29.509774008715603" lon="-9.697611561299384"><ele>525.0</ele><time>2026-04-28T07:59:36Z</time></trkpt><trkpt lat="29.509527519137663" lon="-9.697607495852019"><ele>526.0</ele><time>2026-04-28T07:59:37Z</time></trkpt><trkpt lat="29.50927008171977" lon="-9.697591602037946"><ele>526.0</ele><time>2026-04-28T07:59:38Z</time></trkpt><trkpt lat="29.508993952431045" lon="-9.697567732520454"><ele>526.0</ele><time>2026-04-28T07:59:39Z</time></trkpt><trkpt lat="29.508711261601146" lon="-9.697538472495385"><ele>529.5</ele><time>2026-04-28T07:59:40Z</time></trkpt><trkpt lat="29.508435648191742" lon="-9.697510331891888"><ele>533.0</ele><time>2026-04-28T07:59:41Z</time></trkpt><trkpt lat="29.50817220427519" lon="-9.697485255208798"><ele>533.0</ele><time>2026-04-28T07:59:42Z</time></trkpt><trkpt lat="29.507929688500308" lon="-9.697464213018675"><ele>533.0</ele><time>2026-04-28T07:59:43Z</time></trkpt><trkpt lat="29.507704050154263" lon="-9.697444299304243"><ele>535.5</ele><time>2026-04-28T07:59:44Z</time></trkpt><trkpt lat="29.507479909662777" lon="-9.697424328799572"><ele>538.0</ele><time>2026-04-28T07:59:45Z</time></trkpt><trkpt lat="29.50725514387462" lon="-9.697402955886021"><ele>539.0</ele><time>2026-04-28T07:59:46Z</time></trkpt><trkpt lat="29.507033328805058" lon="-9.6973782361151"><ele>540.0</ele><time>2026-04-28T07:59:47Z</time></trkpt><trkpt lat="29.506818302742385" lon="-9.697346962984462"><ele>541.0</ele><time>2026-04-28T07:59:48Z</time></trkpt><trkpt lat="29.506612534473682" lon="-9.69730908066567"><ele>541.0</ele><time>2026-04-28T07:59:49Z</time></trkpt><trkpt lat="29.506411521460958" lon="-9.697269875607562"><ele>541.0</ele><time>2026-04-28T07:59:50Z</time></trkpt><trkpt lat="29.506211962064505" lon="-9.697218558239154"><ele>541.0</ele><time>2026-04-28T07:59:51Z</time></trkpt><trkpt lat="29.506014268474857" lon="-9.697161185371403"><ele>540.6666666666667</ele><time>2026-04-28T07:59:52Z</time></trkpt><trkpt lat="29.505814464449404" lon="-9.69709382403747"><ele>540.3333333333334</ele><time>2026-04-28T07:59:53Z</time></trkpt><trkpt lat="29.50560728532156" lon="-9.697025275271125"><ele>540.0</ele><time>2026-04-28T07:59:54Z</time></trkpt><trkpt lat="29.50538523916497" lon="-9.696949134335947"><ele>542.0</ele><time>2026-04-28T07:59:55Z</time></trkpt><trkpt lat="29.50515358414948" lon="-9.696869705814537"><ele>544.0</ele><time>2026-04-28T07:59:56Z</time></trkpt><trkpt lat="29.504921964261705" lon="-9.696788692515044"><ele>544.0</ele><time>2026-04-28T07:59:57Z</time></trkpt><trkpt lat="29.504690370513284" lon="-9.696704404854506"><ele>544.0</ele><time>2026-04-28T07:59:58Z</time></trkpt><trkpt lat="29.504457499324477" lon="-9.696620612585424"><ele>543.5</ele><time>2026-04-28T07:59:59Z</time></trkpt><trkpt lat="29.50422568036703" lon="-9.69653969491545"><ele>543.0</ele><time>2026-04-28T08:00:00Z</time></trkpt><trkpt lat="29.503993304221293" lon="-9.696454570413689"><ele>543.0</ele><time>2026-04-28T08:00:01Z</time></trkpt><trkpt lat="29.503761009923753" lon="-9.696371323104316"><ele>543.0</ele><time>2026-04-28T08:00:02Z</time></trkpt><trkpt lat="29.503530024030322" lon="-9.696290756380685"><ele>544.5</ele><time>2026-04-28T08:00:03Z</time></trkpt><trkpt lat="29.50329972394457" lon="-9.696210813479192"><ele>546.0</ele><time>2026-04-28T08:00:04Z</time></trkpt><trkpt lat="29.503073456045122" lon="-9.69612987705903"><ele>548.0</ele><time>2026-04-28T08:00:05Z</time></trkpt><trkpt lat="29.502848510501245" lon="-9.69605022887351"><ele>550.0</ele><time>2026-04-28T08:00:06Z</time></trkpt><trkpt lat="29.502629674117316" lon="-9.695972097339672"><ele>550.0</ele><time>2026-04-28T08:00:07Z</time></trkpt><trkpt lat="29.502410545706976" lon="-9.695894055061041"><ele>550.0</ele><time>2026-04-28T08:00:08Z</time></trkpt><trkpt lat="29.502194067982387" lon="-9.695816943286738"><ele>551.0</ele><time>2026-04-28T08:00:09Z</time></trkpt><trkpt lat="29.50198134457276" lon="-9.695738749045711"><ele>552.0</ele><time>2026-04-28T08:00:10Z</time></trkpt><trkpt lat="29.50178269224489" lon="-9.69566362776713"><ele>553.0</ele><time>2026-04-28T08:00:11Z</time></trkpt><trkpt lat="29.50159266011825" lon="-9.695591066290165"><ele>553.0</ele><time>2026-04-28T08:00:12Z</time></trkpt><trkpt lat="29.501397876606013" lon="-9.695522160118937"><ele>553.0</ele><time>2026-04-28T08:00:13Z</time></trkpt><trkpt lat="29.501198150061295" lon="-9.695455890936742"><ele>553.0</ele><time>2026-04-28T08:00:14Z</time></trkpt><trkpt lat="29.50099840537623" lon="-9.69539022266212"><ele>553.3333333333334</ele><time>2026-04-28T08:00:15Z</time></trkpt><trkpt lat="29.500809977019887" lon="-9.695326370272324"><ele>553.6666666666666</ele><time>2026-04-28T08:00:16Z</time></trkpt><trkpt lat="29.500636692813192" lon="-9.695262478539865"><ele>554.0</ele><time>2026-04-28T08:00:17Z</time></trkpt><trkpt lat="29.500475309993288" lon="-9.695203060098281"><ele>554.0</ele><time>2026-04-28T08:00:18Z</time></trkpt><trkpt lat="29.500322195183323" lon="-9.695142672106682"><ele>554.0</ele><time>2026-04-28T08:00:19Z</time></trkpt><trkpt lat="29.500161028939107" lon="-9.695075530655979"><ele>554.0</ele><time>2026-04-28T08:00:20Z</time></trkpt><trkpt lat="29.499984476686134" lon="-9.695004631238115"><ele>554.0</ele><time>2026-04-28T08:00:21Z</time></trkpt><trkpt lat="29.499791100021465" lon="-9.694942007414273"><ele>554.0</ele><time>2026-04-28T08:00:22Z</time></trkpt><trkpt lat="29.499598444357233" lon="-9.694880389623766"><ele>554.0</ele><time>2026-04-28T08:00:23Z</time></trkpt><trkpt lat="29.499404820671273" lon="-9.694809929742481"><ele>554.3333333333333</ele><time>2026-04-28T08:00:24Z</time></trkpt><trkpt lat="29.49920702714763" lon="-9.69472807812988"><ele>554.6666666666666</ele><time>2026-04-28T08:00:25Z</time></trkpt><trkpt lat="29.4990183397826" lon="-9.694638252034554"><ele>555.0</ele><time>2026-04-28T08:00:26Z</time></trkpt><trkpt lat="29.498831741319837" lon="-9.694537393167296"><ele>555.5</ele><time>2026-04-28T08:00:27Z</time></trkpt><trkpt lat="29.498626084270263" lon="-9.694419502901303"><ele>556.0</ele><time>2026-04-28T08:00:28Z</time></trkpt><trkpt lat="29.49840851442011" lon="-9.694290840717365"><ele>556.0</ele><time>2026-04-28T08:00:29Z</time></trkpt><trkpt lat="29.498169905211284" lon="-9.694145735750238"><ele>556.0</ele><time>2026-04-28T08:00:30Z</time></trkpt><trkpt lat="29.497911549765703" lon="-9.693984879703534"><ele>553.5</ele><time>2026-04-28T08:00:31Z</time></trkpt><trkpt lat="29.49765569006593" lon="-9.69382152284558"><ele>551.0</ele><time>2026-04-28T08:00:32Z</time></trkpt><trkpt lat="29.497423638983822" lon="-9.693671743288697"><ele>551.0</ele><time>2026-04-28T08:00:33Z</time></trkpt><trkpt lat="29.49720192700065" lon="-9.693530273286019"><ele>551.0</ele><time>2026-04-28T08:00:34Z</time></trkpt><trkpt lat="29.49698996182253" lon="-9.693391409570246"><ele>550.5</ele><time>2026-04-28T08:00:35Z</time></trkpt><trkpt lat="29.496785262715072" lon="-9.693258364382936"><ele>550.0</ele><time>2026-04-28T08:00:36Z</time></trkpt><trkpt lat="29.49658251197836" lon="-9.6931321297872"><ele>550.0</ele><time>2026-04-28T08:00:37Z</time></trkpt><trkpt lat="29.496369154336687" lon="-9.6930129475012"><ele>550.0</ele><time>2026-04-28T08:00:38Z</time></trkpt><trkpt lat="29.496145896008322" lon="-9.69290351929515"><ele>550.0</ele><time>2026-04-28T08:00:39Z</time></trkpt><trkpt lat="29.49592489313191" lon="-9.692809333971379"><ele>550.0</ele><time>2026-04-28T08:00:40Z</time></trkpt><trkpt lat="29.4956997535315" lon="-9.692727037064428"><ele>550.5</ele><time>2026-04-28T08:00:41Z</time></trkpt><trkpt lat="29.495465203032314" lon="-9.692651826763457"><ele>551.0</ele><time>2026-04-28T08:00:42Z</time></trkpt><trkpt lat="29.4952181203521" lon="-9.692579754515844"><ele>551.0</ele><time>2026-04-28T08:00:43Z</time></trkpt><trkpt lat="29.4949605248131" lon="-9.692510431445513"><ele>551.0</ele><time>2026-04-28T08:00:44Z</time></trkpt><trkpt lat="29.494685881710595" lon="-9.692449287478844"><ele>552.0</ele><time>2026-04-28T08:00:45Z</time></trkpt><trkpt lat="29.494395317464353" lon="-9.692405749213792"><ele>553.0</ele><time>2026-04-28T08:00:46Z</time></trkpt><trkpt lat="29.494086924536692" lon="-9.692378367397229"><ele>553.0</ele><time>2026-04-28T08:00:47Z</time></trkpt><trkpt lat="29.493760925844906" lon="-9.692358470936448"><ele>553.0</ele><time>2026-04-28T08:00:48Z</time></trkpt><trkpt lat="29.49344403356806" lon="-9.692340115194925"><ele>555.5</ele><time>2026-04-28T08:00:49Z</time></trkpt><trkpt lat="29.49316036740477" lon="-9.692325823851505"><ele>558.0</ele><time>2026-04-28T08:00:50Z</time></trkpt><trkpt lat="29.49289978533649" lon="-9.69231201145359"><ele>560.5</ele><time>2026-04-28T08:00:51Z</time></trkpt><trkpt lat="29.492649365038655" lon="-9.692292961140927"><ele>563.0</ele><time>2026-04-28T08:00:52Z</time></trkpt><trkpt lat="29.492396549732906" lon="-9.692275857947875"><ele>563.0</ele><time>2026-04-28T08:00:53Z</time></trkpt><trkpt lat="29.492135683744728" lon="-9.692258203925398"><ele>563.0</ele><time>2026-04-28T08:00:54Z</time></trkpt><trkpt lat="29.491873568227035" lon="-9.692241886829834"><ele>565.0</ele><time>2026-04-28T08:00:55Z</time></trkpt><trkpt lat="29.4916175279128" lon="-9.692225741383382"><ele>567.0</ele><time>2026-04-28T08:00:56Z</time></trkpt><trkpt lat="29.491371644138585" lon="-9.69221118186084"><ele>568.5</ele><time>2026-04-28T08:00:57Z</time></trkpt><trkpt lat="29.49113739427282" lon="-9.692198944673738"><ele>570.0</ele><time>2026-04-28T08:00:58Z</time></trkpt><trkpt lat="29.49091817989762" lon="-9.692185749110116"><ele>570.0</ele><time>2026-04-28T08:00:59Z</time></trkpt><trkpt lat="29.490712167445608" lon="-9.692173670703415"><ele>570.0</ele><time>2026-04-28T08:01:00Z</time></trkpt><trkpt lat="29.490515271410388" lon="-9.6921633601203"><ele>570.0</ele><time>2026-04-28T08:01:01Z</time></trkpt><trkpt lat="29.490322677622643" lon="-9.692152393250739"><ele>570.3333333333334</ele><time>2026-04-28T08:01:02Z</time></trkpt><trkpt lat="29.490129963101644" lon="-9.692139597461747"><ele>570.6666666666667</ele><time>2026-04-28T08:01:03Z</time></trkpt><trkpt lat="29.4899317864836" lon="-9.692129245720993"><ele>571.0</ele><time>2026-04-28T08:01:04Z</time></trkpt><trkpt lat="29.48972360169273" lon="-9.692116199758468"><ele>571.3333333333334</ele><time>2026-04-28T08:01:05Z</time></trkpt><trkpt lat="29.489514581393923" lon="-9.692102856462732"><ele>571.6666666666666</ele><time>2026-04-28T08:01:06Z</time></trkpt><trkpt lat="29.489305880732516" lon="-9.69208871912973"><ele>572.0</ele><time>2026-04-28T08:01:07Z</time></trkpt><trkpt lat="29.48909669297474" lon="-9.692074483846595"><ele>572.0</ele><time>2026-04-28T08:01:08Z</time></trkpt><trkpt lat="29.488886282599186" lon="-9.69205900312933"><ele>572.0</ele><time>2026-04-28T08:01:09Z</time></trkpt><trkpt lat="29.488676705248402" lon="-9.692044501854301"><ele>572.0</ele><time>2026-04-28T08:01:10Z</time></trkpt><trkpt lat="29.48847201261383" lon="-9.692030345567478"><ele>572.6666666666666</ele><time>2026-04-28T08:01:11Z</time></trkpt><trkpt lat="29.4882798882562" lon="-9.692019210464956"><ele>573.3333333333334</ele><time>2026-04-28T08:01:12Z</time></trkpt><trkpt lat="29.48809983435403" lon="-9.692008437908509"><ele>574.0</ele><time>2026-04-28T08:01:13Z</time></trkpt><trkpt lat="29.487921218126075" lon="-9.691994593369143"><ele>575.0</ele><time>2026-04-28T08:01:14Z</time></trkpt><trkpt lat="29.487729526324348" lon="-9.691975771735834"><ele>576.0</ele><time>2026-04-28T08:01:15Z</time></trkpt><trkpt lat="29.48751595847261" lon="-9.691954585937385"><ele>577.0</ele><time>2026-04-28T08:01:16Z</time></trkpt><trkpt lat="29.487292934852615" lon="-9.691937485633607"><ele>576.5</ele><time>2026-04-28T08:01:17Z</time></trkpt><trkpt lat="29.48706842761727" lon="-9.691922234846215"><ele>576.0</ele><time>2026-04-28T08:01:18Z</time></trkpt><trkpt lat="29.486839949889255" lon="-9.691901489223167"><ele>576.0</ele><time>2026-04-28T08:01:19Z</time></trkpt><trkpt lat="29.4866097277601" lon="-9.691880847399833"><ele>576.0</ele><time>2026-04-28T08:01:20Z</time></trkpt><trkpt lat="29.486371429918528" lon="-9.691870745928751"><ele>576.3333333333334</ele><time>2026-04-28T08:01:21Z</time></trkpt><trkpt lat="29.486139155464876" lon="-9.691868832129547"><ele>576.6666666666667</ele><time>2026-04-28T08:01:22Z</time></trkpt><trkpt lat="29.485922643220803" lon="-9.691865320735795"><ele>577.0</ele><time>2026-04-28T08:01:23Z</time></trkpt><trkpt lat="29.48571005732438" lon="-9.691855413942159"><ele>577.0</ele><time>2026-04-28T08:01:24Z</time></trkpt><trkpt lat="29.48548895725198" lon="-9.691840842814948"><ele>577.0</ele><time>2026-04-28T08:01:25Z</time></trkpt><trkpt lat="29.48526675327597" lon="-9.691828042722467"><ele>577.0</ele><time>2026-04-28T08:01:26Z</time></trkpt><trkpt lat="29.485045675568934" lon="-9.691814032889647"><ele>577.0</ele><time>2026-04-28T08:01:27Z</time></trkpt><trkpt lat="29.48482107366466" lon="-9.69179870813247"><ele>577.0</ele><time>2026-04-28T08:01:28Z</time></trkpt><trkpt lat="29.4845981431751" lon="-9.691788935268528"><ele>577.0</ele><time>2026-04-28T08:01:29Z</time></trkpt><trkpt lat="29.484375846942484" lon="-9.691781979769498"><ele>577.0</ele><time>2026-04-28T08:01:30Z</time></trkpt><trkpt lat="29.48415283136312" lon="-9.691779820751565"><ele>577.0</ele><time>2026-04-28T08:01:31Z</time></trkpt><trkpt lat="29.483927928076987" lon="-9.691784627019777"><ele>577.0</ele><time>2026-04-28T08:01:32Z</time></trkpt><trkpt lat="29.48370304204121" lon="-9.691798080246684"><ele>576.0</ele><time>2026-04-28T08:01:33Z</time></trkpt><trkpt lat="29.483476156460387" lon="-9.691818621226428"><ele>575.0</ele><time>2026-04-28T08:01:34Z</time></trkpt><trkpt lat="29.48324411139704" lon="-9.691845362639418"><ele>575.0</ele><time>2026-04-28T08:01:35Z</time></trkpt><trkpt lat="29.4830096995907" lon="-9.691876155903467"><ele>575.0</ele><time>2026-04-28T08:01:36Z</time></trkpt><trkpt lat="29.482772491265244" lon="-9.691911089966103"><ele>575.0</ele><time>2026-04-28T08:01:37Z</time></trkpt><trkpt lat="29.482531657190407" lon="-9.691947061940477"><ele>575.0</ele><time>2026-04-28T08:01:38Z</time></trkpt><trkpt lat="29.482288187609814" lon="-9.691980564845895"><ele>575.5</ele><time>2026-04-28T08:01:39Z</time></trkpt><trkpt lat="29.482043085061356" lon="-9.69201338856087"><ele>576.0</ele><time>2026-04-28T08:01:40Z</time></trkpt><trkpt lat="29.481799633683735" lon="-9.692047693673475"><ele>576.0</ele><time>2026-04-28T08:01:41Z</time></trkpt><trkpt lat="29.481559209662926" lon="-9.69208202174262"><ele>576.0</ele><time>2026-04-28T08:01:42Z</time></trkpt><trkpt lat="29.481324501418943" lon="-9.692117861938943"><ele>576.5</ele><time>2026-04-28T08:01:43Z</time></trkpt><trkpt lat="29.481088768101483" lon="-9.692154328331842"><ele>577.0</ele><time>2026-04-28T08:01:44Z</time></trkpt><trkpt lat="29.480855382963504" lon="-9.692191704838757"><ele>577.0</ele><time>2026-04-28T08:01:45Z</time></trkpt><trkpt lat="29.48061894789563" lon="-9.692227765780217"><ele>577.0</ele><time>2026-04-28T08:01:46Z</time></trkpt><trkpt lat="29.48038327081605" lon="-9.692262310250703"><ele>577.5</ele><time>2026-04-28T08:01:47Z</time></trkpt><trkpt lat="29.480147309198458" lon="-9.692296593619071"><ele>578.0</ele><time>2026-04-28T08:01:48Z</time></trkpt><trkpt lat="29.479912844054844" lon="-9.692330346448001"><ele>578.0</ele><time>2026-04-28T08:01:49Z</time></trkpt><trkpt lat="29.47967724633883" lon="-9.69236493696388"><ele>578.0</ele><time>2026-04-28T08:01:50Z</time></trkpt><trkpt lat="29.479443208363374" lon="-9.692401124504656"><ele>577.5</ele><time>2026-04-28T08:01:51Z</time></trkpt><trkpt lat="29.479205702737147" lon="-9.692435755927397"><ele>577.0</ele><time>2026-04-28T08:01:52Z</time></trkpt><trkpt lat="29.478971423830572" lon="-9.692468853334244"><ele>577.5</ele><time>2026-04-28T08:01:53Z</time></trkpt><trkpt lat="29.478734930898217" lon="-9.69250319484536"><ele>578.0</ele><time>2026-04-28T08:01:54Z</time></trkpt><trkpt lat="29.47849867369724" lon="-9.692536045421697"><ele>578.0</ele><time>2026-04-28T08:01:55Z</time></trkpt><trkpt lat="29.4782617875866" lon="-9.692569676162194"><ele>578.0</ele><time>2026-04-28T08:01:56Z</time></trkpt><trkpt lat="29.478026977175418" lon="-9.692603505499475"><ele>578.5</ele><time>2026-04-28T08:01:57Z</time></trkpt><trkpt lat="29.477793665094765" lon="-9.692638324596443"><ele>579.0</ele><time>2026-04-28T08:01:58Z</time></trkpt><trkpt lat="29.477560261691675" lon="-9.69267396234561"><ele>579.0</ele><time>2026-04-28T08:01:59Z</time></trkpt><trkpt lat="29.47733090353953" lon="-9.69270684597073"><ele>579.0</ele><time>2026-04-28T08:02:00Z</time></trkpt><trkpt lat="29.47710133302637" lon="-9.692738571728734"><ele>579.0</ele><time>2026-04-28T08:02:01Z</time></trkpt><trkpt lat="29.47687154505217" lon="-9.692771690112563"><ele>579.0</ele><time>2026-04-28T08:02:02Z</time></trkpt><trkpt lat="29.4766409511661" lon="-9.692804818272661"><ele>579.0</ele><time>2026-04-28T08:02:03Z</time></trkpt><trkpt lat="29.476406835699123" lon="-9.692836335863081"><ele>579.0</ele><time>2026-04-28T08:02:04Z</time></trkpt><trkpt lat="29.476172711657032" lon="-9.692870271647218"><ele>579.5</ele><time>2026-04-28T08:02:05Z</time></trkpt><trkpt lat="29.47593682696135" lon="-9.692905698831435"><ele>580.0</ele><time>2026-04-28T08:02:06Z</time></trkpt><trkpt lat="29.475701458100573" lon="-9.692942392241909"><ele>580.0</ele><time>2026-04-28T08:02:07Z</time></trkpt><trkpt lat="29.47546653876704" lon="-9.69297794798818"><ele>580.0</ele><time>2026-04-28T08:02:08Z</time></trkpt><trkpt lat="29.47523497599791" lon="-9.693011826611292"><ele>582.0</ele><time>2026-04-28T08:02:09Z</time></trkpt><trkpt lat="29.474998891496305" lon="-9.693043125191274"><ele>584.0</ele><time>2026-04-28T08:02:10Z</time></trkpt><trkpt lat="29.474762282727912" lon="-9.693076902512948"><ele>584.5</ele><time>2026-04-28T08:02:11Z</time></trkpt><trkpt lat="29.47452955152927" lon="-9.693112158172296"><ele>585.0</ele><time>2026-04-28T08:02:12Z</time></trkpt><trkpt lat="29.474300392609596" lon="-9.693145999668733"><ele>585.0</ele><time>2026-04-28T08:02:13Z</time></trkpt><trkpt lat="29.474070620124508" lon="-9.693181529233451"><ele>585.0</ele><time>2026-04-28T08:02:14Z</time></trkpt><trkpt lat="29.473837368107283" lon="-9.6932151100748"><ele>586.0</ele><time>2026-04-28T08:02:15Z</time></trkpt><trkpt lat="29.47359915433324" lon="-9.693246137367193"><ele>587.0</ele><time>2026-04-28T08:02:16Z</time></trkpt><trkpt lat="29.473354963961913" lon="-9.693278370778442"><ele>587.0</ele><time>2026-04-28T08:02:17Z</time></trkpt><trkpt lat="29.473107153955908" lon="-9.693315015697756"><ele>587.0</ele><time>2026-04-28T08:02:18Z</time></trkpt><trkpt lat="29.472855726322063" lon="-9.693354835801724"><ele>587.5</ele><time>2026-04-28T08:02:19Z</time></trkpt><trkpt lat="29.472606055522622" lon="-9.693395190157759"><ele>588.0</ele><time>2026-04-28T08:02:20Z</time></trkpt><trkpt lat="29.47235710385944" lon="-9.693432106622877"><ele>588.0</ele><time>2026-04-28T08:02:21Z</time></trkpt><trkpt lat="29.472110223261616" lon="-9.693465396209463"><ele>588.0</ele><time>2026-04-28T08:02:22Z</time></trkpt><trkpt lat="29.471863249479917" lon="-9.693497010000298"><ele>588.0</ele><time>2026-04-28T08:02:23Z</time></trkpt><trkpt lat="29.471618505910754" lon="-9.693532724398109"><ele>588.0</ele><time>2026-04-28T08:02:24Z</time></trkpt><trkpt lat="29.471375392658246" lon="-9.69357070718445"><ele>587.5</ele><time>2026-04-28T08:02:25Z</time></trkpt><trkpt lat="29.47113423909704" lon="-9.693607993019338"><ele>587.0</ele><time>2026-04-28T08:02:26Z</time></trkpt><trkpt lat="29.470891569283065" lon="-9.693646944966964"><ele>587.0</ele><time>2026-04-28T08:02:27Z</time></trkpt><trkpt lat="29.47065191671745" lon="-9.693680101798707"><ele>587.0</ele><time>2026-04-28T08:02:28Z</time></trkpt><trkpt lat="29.470413989574283" lon="-9.69371266703745"><ele>588.5</ele><time>2026-04-28T08:02:29Z</time></trkpt><trkpt lat="29.470175484944175" lon="-9.693746687497125"><ele>590.0</ele><time>2026-04-28T08:02:30Z</time></trkpt><trkpt lat="29.469940304046037" lon="-9.693781487193846"><ele>590.0</ele><time>2026-04-28T08:02:31Z</time></trkpt><trkpt lat="29.469702527058274" lon="-9.693816106663023"><ele>590.0</ele><time>2026-04-28T08:02:32Z</time></trkpt><trkpt lat="29.469461619820148" lon="-9.693851272660835"><ele>590.5</ele><time>2026-04-28T08:02:33Z</time></trkpt><trkpt lat="29.469222771784125" lon="-9.693885962709894"><ele>591.0</ele><time>2026-04-28T08:02:34Z</time></trkpt><trkpt lat="29.46897892678338" lon="-9.693922175664936"><ele>591.0</ele><time>2026-04-28T08:02:35Z</time></trkpt><trkpt lat="29.4687289596754" lon="-9.69395944878176"><ele>591.0</ele><time>2026-04-28T08:02:36Z</time></trkpt><trkpt lat="29.46845770570476" lon="-9.693997581446464"><ele>591.0</ele><time>2026-04-28T08:02:37Z</time></trkpt><trkpt lat="29.46817108102063" lon="-9.694040294749469"><ele>591.0</ele><time>2026-04-28T08:02:38Z</time></trkpt><trkpt lat="29.467883729905047" lon="-9.694083019508437"><ele>592.0</ele><time>2026-04-28T08:02:39Z</time></trkpt><trkpt lat="29.467598652970405" lon="-9.694123544057367"><ele>593.0</ele><time>2026-04-28T08:02:40Z</time></trkpt><trkpt lat="29.46730893993039" lon="-9.694163243307942"><ele>594.0</ele><time>2026-04-28T08:02:41Z</time></trkpt><trkpt lat="29.46701430398744" lon="-9.694205675303616"><ele>595.0</ele><time>2026-04-28T08:02:42Z</time></trkpt><trkpt lat="29.46671731914771" lon="-9.694249528032433"><ele>595.0</ele><time>2026-04-28T08:02:43Z</time></trkpt><trkpt lat="29.466419270116145" lon="-9.694293524764356"><ele>595.0</ele><time>2026-04-28T08:02:44Z</time></trkpt><trkpt lat="29.46612197686416" lon="-9.694337883238747"><ele>596.0</ele><time>2026-04-28T08:02:45Z</time></trkpt><trkpt lat="29.465827602905023" lon="-9.694379891594561"><ele>597.0</ele><time>2026-04-28T08:02:46Z</time></trkpt><trkpt lat="29.465535689981614" lon="-9.694421908373252"><ele>598.0</ele><time>2026-04-28T08:02:47Z</time></trkpt><trkpt lat="29.46524311332699" lon="-9.694464567801464"><ele>599.0</ele><time>2026-04-28T08:02:48Z</time></trkpt><trkpt lat="29.464951422898174" lon="-9.694506074316909"><ele>599.0</ele><time>2026-04-28T08:02:49Z</time></trkpt><trkpt lat="29.46466385225931" lon="-9.694546723616524"><ele>599.0</ele><time>2026-04-28T08:02:50Z</time></trkpt><trkpt lat="29.464377732813276" lon="-9.694587601407749"><ele>598.5</ele><time>2026-04-28T08:02:51Z</time></trkpt><trkpt lat="29.464093244099068" lon="-9.694630047444726"><ele>598.0</ele><time>2026-04-28T08:02:52Z</time></trkpt><trkpt lat="29.463807818888426" lon="-9.694670997650672"><ele>598.0</ele><time>2026-04-28T08:02:53Z</time></trkpt><trkpt lat="29.46352270028396" lon="-9.694711375375437"><ele>598.0</ele><time>2026-04-28T08:02:54Z</time></trkpt><trkpt lat="29.46323717608186" lon="-9.694752516222746"><ele>598.0</ele><time>2026-04-28T08:02:55Z</time></trkpt><trkpt lat="29.462952332868724" lon="-9.69479676834979"><ele>598.0</ele><time>2026-04-28T08:02:56Z</time></trkpt><trkpt lat="29.46266844595535" lon="-9.694840515751222"><ele>599.0</ele><time>2026-04-28T08:02:57Z</time></trkpt><trkpt lat="29.46238480148703" lon="-9.694882556313763"><ele>600.0</ele><time>2026-04-28T08:02:58Z</time></trkpt><trkpt lat="29.46210009954081" lon="-9.694923408979502"><ele>601.5</ele><time>2026-04-28T08:02:59Z</time></trkpt><trkpt lat="29.461813561441726" lon="-9.694961615771419"><ele>603.0</ele><time>2026-04-28T08:03:00Z</time></trkpt><trkpt lat="29.46153108985781" lon="-9.695000253179343"><ele>605.0</ele><time>2026-04-28T08:03:01Z</time></trkpt><trkpt lat="29.461244772225974" lon="-9.6950414845781"><ele>607.0</ele><time>2026-04-28T08:03:02Z</time></trkpt><trkpt lat="29.460956076178434" lon="-9.69508328956097"><ele>607.0</ele><time>2026-04-28T08:03:03Z</time></trkpt><trkpt lat="29.460667915474552" lon="-9.695126468522574"><ele>607.0</ele><time>2026-04-28T08:03:04Z</time></trkpt><trkpt lat="29.46038005211862" lon="-9.695166819789621"><ele>607.0</ele><time>2026-04-28T08:03:05Z</time></trkpt><trkpt lat="29.46009002120753" lon="-9.695207172264091"><ele>607.0</ele><time>2026-04-28T08:03:06Z</time></trkpt><trkpt lat="29.459795902024883" lon="-9.695248731036157"><ele>605.5</ele><time>2026-04-28T08:03:07Z</time></trkpt><trkpt lat="29.459500935020117" lon="-9.695290345848843"><ele>604.0</ele><time>2026-04-28T08:03:08Z</time></trkpt><trkpt lat="29.459205298970378" lon="-9.695334837865758"><ele>604.0</ele><time>2026-04-28T08:03:09Z</time></trkpt><trkpt lat="29.458908244371113" lon="-9.695379730930757"><ele>604.0</ele><time>2026-04-28T08:03:10Z</time></trkpt><trkpt lat="29.45860923170899" lon="-9.695421596958589"><ele>604.5</ele><time>2026-04-28T08:03:11Z</time></trkpt><trkpt lat="29.458314223885772" lon="-9.695462038531648"><ele>605.0</ele><time>2026-04-28T08:03:12Z</time></trkpt><trkpt lat="29.458022394653273" lon="-9.695502295063124"><ele>605.5</ele><time>2026-04-28T08:03:13Z</time></trkpt><trkpt lat="29.45773501537933" lon="-9.695543861859464"><ele>606.0</ele><time>2026-04-28T08:03:14Z</time></trkpt><trkpt lat="29.457451794856546" lon="-9.695585137185262"><ele>606.0</ele><time>2026-04-28T08:03:15Z</time></trkpt><trkpt lat="29.457184995648333" lon="-9.695625993808424"><ele>606.0</ele><time>2026-04-28T08:03:16Z</time></trkpt><trkpt lat="29.45693752300957" lon="-9.695664396575658"><ele>608.0</ele><time>2026-04-28T08:03:17Z</time></trkpt><trkpt lat="29.456697232860282" lon="-9.695700963638709"><ele>610.0</ele><time>2026-04-28T08:03:18Z</time></trkpt><trkpt lat="29.45645542261319" lon="-9.695735665380992"><ele>610.5</ele><time>2026-04-28T08:03:19Z</time></trkpt><trkpt lat="29.456213855691423" lon="-9.695770878886979"><ele>611.0</ele><time>2026-04-28T08:03:20Z</time></trkpt><trkpt lat="29.45596634417355" lon="-9.695806627766524"><ele>611.0</ele><time>2026-04-28T08:03:21Z</time></trkpt><trkpt lat="29.45571615157712" lon="-9.695843689383297"><ele>611.0</ele><time>2026-04-28T08:03:22Z</time></trkpt><trkpt lat="29.455456806618848" lon="-9.69588228349606"><ele>611.5</ele><time>2026-04-28T08:03:23Z</time></trkpt><trkpt lat="29.45517995537651" lon="-9.695923351849393"><ele>612.0</ele><time>2026-04-28T08:03:24Z</time></trkpt><trkpt lat="29.45489134346038" lon="-9.695966143202536"><ele>612.5</ele><time>2026-04-28T08:03:25Z</time></trkpt><trkpt lat="29.454609876871075" lon="-9.696008347998102"><ele>613.0</ele><time>2026-04-28T08:03:26Z</time></trkpt><trkpt lat="29.454338781754288" lon="-9.696046366577741"><ele>613.0</ele><time>2026-04-28T08:03:27Z</time></trkpt><trkpt lat="29.454085225514586" lon="-9.696082628823882"><ele>613.0</ele><time>2026-04-28T08:03:28Z</time></trkpt><trkpt lat="29.453847430893973" lon="-9.696117779048333"><ele>614.0</ele><time>2026-04-28T08:03:29Z</time></trkpt><trkpt lat="29.45361423586611" lon="-9.696153636871188"><ele>615.0</ele><time>2026-04-28T08:03:30Z</time></trkpt><trkpt lat="29.453373446923056" lon="-9.696189578051035"><ele>615.0</ele><time>2026-04-28T08:03:31Z</time></trkpt><trkpt lat="29.45313237409065" lon="-9.696222968106763"><ele>615.0</ele><time>2026-04-28T08:03:32Z</time></trkpt><trkpt lat="29.452889701669285" lon="-9.696255248026302"><ele>615.5</ele><time>2026-04-28T08:03:33Z</time></trkpt><trkpt lat="29.452645379998554" lon="-9.696291172092254"><ele>616.0</ele><time>2026-04-28T08:03:34Z</time></trkpt><trkpt lat="29.452404738487388" lon="-9.696326403426198"><ele>616.0</ele><time>2026-04-28T08:03:35Z</time></trkpt><trkpt lat="29.452163637782068" lon="-9.696360240609941"><ele>616.0</ele><time>2026-04-28T08:03:36Z</time></trkpt><trkpt lat="29.451923118332882" lon="-9.696391524099338"><ele>617.0</ele><time>2026-04-28T08:03:37Z</time></trkpt><trkpt lat="29.451682340070576" lon="-9.696425186814496"><ele>618.0</ele><time>2026-04-28T08:03:38Z</time></trkpt><trkpt lat="29.45144229303097" lon="-9.696460421023884"><ele>619.0</ele><time>2026-04-28T08:03:39Z</time></trkpt><trkpt lat="29.451199337827603" lon="-9.696496854711164"><ele>620.0</ele><time>2026-04-28T08:03:40Z</time></trkpt><trkpt lat="29.45095513200709" lon="-9.696532621863334"><ele>620.0</ele><time>2026-04-28T08:03:41Z</time></trkpt><trkpt lat="29.450709536513205" lon="-9.696566564510572"><ele>620.0</ele><time>2026-04-28T08:03:42Z</time></trkpt><trkpt lat="29.450467756140352" lon="-9.696602331220129"><ele>620.5</ele><time>2026-04-28T08:03:43Z</time></trkpt><trkpt lat="29.45022882485047" lon="-9.696638330901976"><ele>621.0</ele><time>2026-04-28T08:03:44Z</time></trkpt><trkpt lat="29.449991098923263" lon="-9.696674604781462"><ele>621.0</ele><time>2026-04-28T08:03:45Z</time></trkpt><trkpt lat="29.449751641901162" lon="-9.696709313448316"><ele>621.0</ele><time>2026-04-28T08:03:46Z</time></trkpt><trkpt lat="29.449512227944513" lon="-9.696744669353205"><ele>621.0</ele><time>2026-04-28T08:03:47Z</time></trkpt><trkpt lat="29.449271785470362" lon="-9.696779321953553"><ele>621.0</ele><time>2026-04-28T08:03:48Z</time></trkpt><trkpt lat="29.449034923767805" lon="-9.696813476375114"><ele>621.0</ele><time>2026-04-28T08:03:49Z</time></trkpt><trkpt lat="29.44879768979613" lon="-9.696847910030312"><ele>621.0</ele><time>2026-04-28T08:03:50Z</time></trkpt><trkpt lat="29.448562899366923" lon="-9.696882022734616"><ele>623.0</ele><time>2026-04-28T08:03:51Z</time></trkpt><trkpt lat="29.448325652486233" lon="-9.69691706655355"><ele>625.0</ele><time>2026-04-28T08:03:52Z</time></trkpt><trkpt lat="29.44808817417838" lon="-9.69695220087129"><ele>626.0</ele><time>2026-04-28T08:03:53Z</time></trkpt><trkpt lat="29.44784926408991" lon="-9.696989366069213"><ele>627.0</ele><time>2026-04-28T08:03:54Z</time></trkpt><trkpt lat="29.447610411908137" lon="-9.69702580553056"><ele>627.0</ele><time>2026-04-28T08:03:55Z</time></trkpt><trkpt lat="29.4473700688849" lon="-9.697061130342904"><ele>627.0</ele><time>2026-04-28T08:03:56Z</time></trkpt><trkpt lat="29.447129896713708" lon="-9.697095920948497"><ele>628.5</ele><time>2026-04-28T08:03:57Z</time></trkpt><trkpt lat="29.446887364014025" lon="-9.697131650657955"><ele>630.0</ele><time>2026-04-28T08:03:58Z</time></trkpt><trkpt lat="29.446644842062934" lon="-9.697165479660308"><ele>630.0</ele><time>2026-04-28T08:03:59Z</time></trkpt><trkpt lat="29.44640182359929" lon="-9.697198576000597"><ele>630.0</ele><time>2026-04-28T08:04:00Z</time></trkpt><trkpt lat="29.44616179175114" lon="-9.69723372721415"><ele>631.5</ele><time>2026-04-28T08:04:01Z</time></trkpt><trkpt lat="29.445922438877503" lon="-9.697268700132366"><ele>633.0</ele><time>2026-04-28T08:04:02Z</time></trkpt><trkpt lat="29.44569142625632" lon="-9.697305002067743"><ele>633.0</ele><time>2026-04-28T08:04:03Z</time></trkpt><trkpt lat="29.445471152879538" lon="-9.697341720339779"><ele>633.0</ele><time>2026-04-28T08:04:04Z</time></trkpt><trkpt lat="29.445249406267255" lon="-9.697383446162073"><ele>633.0</ele><time>2026-04-28T08:04:05Z</time></trkpt><trkpt lat="29.445032289402526" lon="-9.69742674371342"><ele>634.0</ele><time>2026-04-28T08:04:06Z</time></trkpt><trkpt lat="29.444812865925403" lon="-9.697476352924992"><ele>635.0</ele><time>2026-04-28T08:04:07Z</time></trkpt><trkpt lat="29.444598276340848" lon="-9.697537836841562"><ele>636.0</ele><time>2026-04-28T08:04:08Z</time></trkpt><trkpt lat="29.44438821415411" lon="-9.69760577856564"><ele>637.3333333333334</ele><time>2026-04-28T08:04:09Z</time></trkpt><trkpt lat="29.444182313265404" lon="-9.697677704094005"><ele>638.6666666666667</ele><time>2026-04-28T08:04:10Z</time></trkpt><trkpt lat="29.443977189867603" lon="-9.69775729822983"><ele>640.0</ele><time>2026-04-28T08:04:11Z</time></trkpt><trkpt lat="29.44377611729667" lon="-9.697843328420506"><ele>641.0</ele><time>2026-04-28T08:04:12Z</time></trkpt><trkpt lat="29.443576069221667" lon="-9.697931264420026"><ele>642.0</ele><time>2026-04-28T08:04:13Z</time></trkpt><trkpt lat="29.44338519230065" lon="-9.698015781057864"><ele>643.0</ele><time>2026-04-28T08:04:14Z</time></trkpt><trkpt lat="29.443193509364043" lon="-9.698099833888886"><ele>643.0</ele><time>2026-04-28T08:04:15Z</time></trkpt><trkpt lat="29.443003331482345" lon="-9.69818650955559"><ele>643.0</ele><time>2026-04-28T08:04:16Z</time></trkpt><trkpt lat="29.44281664595664" lon="-9.69827415269687"><ele>643.0</ele><time>2026-04-28T08:04:17Z</time></trkpt><trkpt lat="29.442632531069766" lon="-9.698363917419742"><ele>643.0</ele><time>2026-04-28T08:04:18Z</time></trkpt><trkpt lat="29.442453809568146" lon="-9.69845099369338"><ele>643.0</ele><time>2026-04-28T08:04:19Z</time></trkpt><trkpt lat="29.442270266695548" lon="-9.698537335451777"><ele>643.0</ele><time>2026-04-28T08:04:20Z</time></trkpt><trkpt lat="29.442083150899265" lon="-9.698623428612093"><ele>644.6666666666667</ele><time>2026-04-28T08:04:21Z</time></trkpt><trkpt lat="29.441893665280947" lon="-9.698712076510915"><ele>646.3333333333334</ele><time>2026-04-28T08:04:22Z</time></trkpt><trkpt lat="29.44169939623103" lon="-9.69880285652794"><ele>648.0</ele><time>2026-04-28T08:04:23Z</time></trkpt><trkpt lat="29.44150161559889" lon="-9.698894450028696"><ele>648.0</ele><time>2026-04-28T08:04:24Z</time></trkpt><trkpt lat="29.441305003076653" lon="-9.698986401316334"><ele>648.0</ele><time>2026-04-28T08:04:25Z</time></trkpt><trkpt lat="29.4411033251978" lon="-9.699080017746132"><ele>648.0</ele><time>2026-04-28T08:04:26Z</time></trkpt><trkpt lat="29.44089131652209" lon="-9.699179685965372"><ele>648.5</ele><time>2026-04-28T08:04:27Z</time></trkpt><trkpt lat="29.440673003412325" lon="-9.699279529993667"><ele>649.0</ele><time>2026-04-28T08:04:28Z</time></trkpt><trkpt lat="29.440454284384113" lon="-9.699381061208369"><ele>648.5</ele><time>2026-04-28T08:04:29Z</time></trkpt><trkpt lat="29.440233832770147" lon="-9.699483358660396"><ele>648.0</ele><time>2026-04-28T08:04:30Z</time></trkpt><trkpt lat="29.44001018387455" lon="-9.69958934954108"><ele>648.0</ele><time>2026-04-28T08:04:31Z</time></trkpt><trkpt lat="29.43978875097094" lon="-9.69969288481404"><ele>648.0</ele><time>2026-04-28T08:04:32Z</time></trkpt><trkpt lat="29.439572904711248" lon="-9.69979229656615"><ele>649.0</ele><time>2026-04-28T08:04:33Z</time></trkpt><trkpt lat="29.439365743762888" lon="-9.699889634661972"><ele>650.0</ele><time>2026-04-28T08:04:34Z</time></trkpt><trkpt lat="29.439169752618753" lon="-9.699982819610975"><ele>651.0</ele><time>2026-04-28T08:04:35Z</time></trkpt><trkpt lat="29.438990440899484" lon="-9.700070037219236"><ele>651.0</ele><time>2026-04-28T08:04:36Z</time></trkpt><trkpt lat="29.438834448788253" lon="-9.700143543981513"><ele>651.0</ele><time>2026-04-28T08:04:37Z</time></trkpt><trkpt lat="29.43870107088752" lon="-9.700205587738015"><ele>651.0</ele><time>2026-04-28T08:04:38Z</time></trkpt><trkpt lat="29.438577202098003" lon="-9.700262493490845"><ele>651.0</ele><time>2026-04-28T08:04:39Z</time></trkpt><trkpt lat="29.43845536875183" lon="-9.700317227824694"><ele>651.0</ele><time>2026-04-28T08:04:40Z</time></trkpt><trkpt lat="29.438322455201043" lon="-9.700379163923943"><ele>651.0</ele><time>2026-04-28T08:04:41Z</time></trkpt><trkpt lat="29.438143952034242" lon="-9.700460563327626"><ele>651.0</ele><time>2026-04-28T08:04:42Z</time></trkpt><trkpt lat="29.43795047321052" lon="-9.700549665221534"><ele>651.0</ele><time>2026-04-28T08:04:43Z</time></trkpt><trkpt lat="29.437744183577244" lon="-9.700649444816113"><ele>651.0</ele><time>2026-04-28T08:04:44Z</time></trkpt><trkpt lat="29.43752387683326" lon="-9.700751482859664"><ele>651.0</ele><time>2026-04-28T08:04:45Z</time></trkpt><trkpt lat="29.43728844148811" lon="-9.70085836859582"><ele>651.0</ele><time>2026-04-28T08:04:46Z</time></trkpt><trkpt lat="29.437044404127324" lon="-9.700970626741627"><ele>649.5</ele><time>2026-04-28T08:04:47Z</time></trkpt><trkpt lat="29.43679518951582" lon="-9.701087239107926"><ele>648.0</ele><time>2026-04-28T08:04:48Z</time></trkpt><trkpt lat="29.436536953924413" lon="-9.701206670866215"><ele>649.5</ele><time>2026-04-28T08:04:49Z</time></trkpt><trkpt lat="29.4362820908628" lon="-9.701325236068826"><ele>651.0</ele><time>2026-04-28T08:04:50Z</time></trkpt><trkpt lat="29.436034213222307" lon="-9.70144126539539"><ele>651.0</ele><time>2026-04-28T08:04:51Z</time></trkpt><trkpt lat="29.43579274893741" lon="-9.701555087409758"><ele>651.0</ele><time>2026-04-28T08:04:52Z</time></trkpt><trkpt lat="29.435555646949776" lon="-9.70166359439925"><ele>651.5</ele><time>2026-04-28T08:04:53Z</time></trkpt><trkpt lat="29.43532274467463" lon="-9.701770288725035"><ele>652.0</ele><time>2026-04-28T08:04:54Z</time></trkpt><trkpt lat="29.43509293711642" lon="-9.7018755350977"><ele>651.5</ele><time>2026-04-28T08:04:55Z</time></trkpt><trkpt lat="29.43486338341367" lon="-9.701982575535968"><ele>651.0</ele><time>2026-04-28T08:04:56Z</time></trkpt><trkpt lat="29.434630112724513" lon="-9.702093259915998"><ele>652.5</ele><time>2026-04-28T08:04:57Z</time></trkpt><trkpt lat="29.434391886298815" lon="-9.70220313307124"><ele>654.0</ele><time>2026-04-28T08:04:58Z</time></trkpt><trkpt lat="29.434155472307356" lon="-9.70231209925034"><ele>654.0</ele><time>2026-04-28T08:04:59Z</time></trkpt><trkpt lat="29.43391748112019" lon="-9.702420716608302"><ele>654.0</ele><time>2026-04-28T08:05:00Z</time></trkpt><trkpt lat="29.433675743721853" lon="-9.702528768005934"><ele>655.5</ele><time>2026-04-28T08:05:01Z</time></trkpt><trkpt lat="29.433432346662748" lon="-9.702637847557652"><ele>657.0</ele><time>2026-04-28T08:05:02Z</time></trkpt><trkpt lat="29.433187619401956" lon="-9.702750442455548"><ele>657.5</ele><time>2026-04-28T08:05:03Z</time></trkpt><trkpt lat="29.432941343039065" lon="-9.702864799760615"><ele>658.0</ele><time>2026-04-28T08:05:04Z</time></trkpt><trkpt lat="29.43269823873545" lon="-9.702977992205149"><ele>658.0</ele><time>2026-04-28T08:05:05Z</time></trkpt><trkpt lat="29.43245917115934" lon="-9.703086154407453"><ele>658.0</ele><time>2026-04-28T08:05:06Z</time></trkpt><trkpt lat="29.432215012741647" lon="-9.70319217262254"><ele>660.0</ele><time>2026-04-28T08:05:07Z</time></trkpt><trkpt lat="29.43196972877751" lon="-9.703299411558893"><ele>662.0</ele><time>2026-04-28T08:05:08Z</time></trkpt><trkpt lat="29.431724705696688" lon="-9.703411510691913"><ele>662.0</ele><time>2026-04-28T08:05:09Z</time></trkpt><trkpt lat="29.431473369626108" lon="-9.703526670626072"><ele>662.0</ele><time>2026-04-28T08:05:10Z</time></trkpt><trkpt lat="29.431219325467204" lon="-9.703644940789879"><ele>663.0</ele><time>2026-04-28T08:05:11Z</time></trkpt><trkpt lat="29.430954845556673" lon="-9.703769739308406"><ele>664.0</ele><time>2026-04-28T08:05:12Z</time></trkpt><trkpt lat="29.430676913701788" lon="-9.70389871655939"><ele>666.5</ele><time>2026-04-28T08:05:13Z</time></trkpt><trkpt lat="29.43040368285977" lon="-9.704022697864966"><ele>669.0</ele><time>2026-04-28T08:05:14Z</time></trkpt><trkpt lat="29.430143441842084" lon="-9.704140048344415"><ele>669.0</ele><time>2026-04-28T08:05:15Z</time></trkpt><trkpt lat="29.42988250332268" lon="-9.70426075297588"><ele>669.0</ele><time>2026-04-28T08:05:16Z</time></trkpt><trkpt lat="29.429628178169388" lon="-9.70438158698052"><ele>668.5</ele><time>2026-04-28T08:05:17Z</time></trkpt><trkpt lat="29.42937659076932" lon="-9.704501669389623"><ele>668.0</ele><time>2026-04-28T08:05:18Z</time></trkpt><trkpt lat="29.42913740131375" lon="-9.704622426094847"><ele>668.0</ele><time>2026-04-28T08:05:19Z</time></trkpt><trkpt lat="29.42891147713362" lon="-9.70472998550325"><ele>668.0</ele><time>2026-04-28T08:05:20Z</time></trkpt><trkpt lat="29.428697153775357" lon="-9.704821250677607"><ele>670.6666666666666</ele><time>2026-04-28T08:05:21Z</time></trkpt><trkpt lat="29.428490764025515" lon="-9.704892222338364"><ele>673.3333333333334</ele><time>2026-04-28T08:05:22Z</time></trkpt><trkpt lat="29.428283575952463" lon="-9.704953099468526"><ele>676.0</ele><time>2026-04-28T08:05:23Z</time></trkpt><trkpt lat="29.42807050901167" lon="-9.70500963244319"><ele>678.5</ele><time>2026-04-28T08:05:24Z</time></trkpt><trkpt lat="29.427847501884525" lon="-9.705055925473463"><ele>681.0</ele><time>2026-04-28T08:05:25Z</time></trkpt><trkpt lat="29.427625159039362" lon="-9.705087467701984"><ele>681.0</ele><time>2026-04-28T08:05:26Z</time></trkpt><trkpt lat="29.427416899276615" lon="-9.705111903568685"><ele>681.0</ele><time>2026-04-28T08:05:27Z</time></trkpt><trkpt lat="29.4272215117135" lon="-9.705132551674915"><ele>681.0</ele><time>2026-04-28T08:05:28Z</time></trkpt><trkpt lat="29.42704201747465" lon="-9.705148643525453"><ele>683.0</ele><time>2026-04-28T08:05:29Z</time></trkpt><trkpt lat="29.426865257392162" lon="-9.705162578088913"><ele>685.0</ele><time>2026-04-28T08:05:30Z</time></trkpt><trkpt lat="29.42668117830028" lon="-9.705180310955326"><ele>687.0</ele><time>2026-04-28T08:05:31Z</time></trkpt><trkpt lat="29.42648260891191" lon="-9.705210637835444"><ele>683.5</ele><time>2026-04-28T08:05:32Z</time></trkpt><trkpt lat="29.426271473410967" lon="-9.70525992078946"><ele>680.0</ele><time>2026-04-28T08:05:33Z</time></trkpt><trkpt lat="29.4260435318834" lon="-9.705337618584212"><ele>680.0</ele><time>2026-04-28T08:05:34Z</time></trkpt><trkpt lat="29.425811531439926" lon="-9.705431426017535"><ele>680.0</ele><time>2026-04-28T08:05:35Z</time></trkpt><trkpt lat="29.425579213271153" lon="-9.705532054018981"><ele>686.0</ele><time>2026-04-28T08:05:36Z</time></trkpt><trkpt lat="29.425355823930012" lon="-9.705636125461483"><ele>692.0</ele><time>2026-04-28T08:05:37Z</time></trkpt><trkpt lat="29.42514842563366" lon="-9.705736139619571"><ele>692.0</ele><time>2026-04-28T08:05:38Z</time></trkpt><trkpt lat="29.424958143644982" lon="-9.705827758674454"><ele>692.0</ele><time>2026-04-28T08:05:39Z</time></trkpt><trkpt lat="29.42478192547877" lon="-9.705914126388693"><ele>692.0</ele><time>2026-04-28T08:05:40Z</time></trkpt><trkpt lat="29.42461597406868" lon="-9.705996439063425"><ele>693.0</ele><time>2026-04-28T08:05:41Z</time></trkpt><trkpt lat="29.424461594911847" lon="-9.706068563616164"><ele>694.0</ele><time>2026-04-28T08:05:42Z</time></trkpt><trkpt lat="29.424318430510013" lon="-9.70613138779679"><ele>695.0</ele><time>2026-04-28T08:05:43Z</time></trkpt><trkpt lat="29.424190463170284" lon="-9.70618855529168"><ele>695.0</ele><time>2026-04-28T08:05:44Z</time></trkpt><trkpt lat="29.424075459846705" lon="-9.706242154673845"><ele>695.0</ele><time>2026-04-28T08:05:45Z</time></trkpt><trkpt lat="29.423957758601933" lon="-9.706290003796333"><ele>695.0</ele><time>2026-04-28T08:05:46Z</time></trkpt><trkpt lat="29.423819162493604" lon="-9.706350109984847"><ele>695.0</ele><time>2026-04-28T08:05:47Z</time></trkpt><trkpt lat="29.42365067343074" lon="-9.706437797740815"><ele>696.3333333333333</ele><time>2026-04-28T08:05:48Z</time></trkpt><trkpt lat="29.423484323048665" lon="-9.706521849093146"><ele>697.6666666666666</ele><time>2026-04-28T08:05:49Z</time></trkpt><trkpt lat="29.42332892329627" lon="-9.706593388282958"><ele>699.0</ele><time>2026-04-28T08:05:50Z</time></trkpt><trkpt lat="29.423175288383806" lon="-9.706667050196371"><ele>699.0</ele><time>2026-04-28T08:05:51Z</time></trkpt><trkpt lat="29.423034235180793" lon="-9.706733840038957"><ele>699.0</ele><time>2026-04-28T08:05:52Z</time></trkpt><trkpt lat="29.422905072016793" lon="-9.70679460648632"><ele>699.0</ele><time>2026-04-28T08:05:53Z</time></trkpt><trkpt lat="29.42278691917192" lon="-9.706851433713135"><ele>699.0</ele><time>2026-04-28T08:05:54Z</time></trkpt><trkpt lat="29.42267014457642" lon="-9.70690990252807"><ele>700.5</ele><time>2026-04-28T08:05:55Z</time></trkpt><trkpt lat="29.422551195298265" lon="-9.706965885866925"><ele>702.0</ele><time>2026-04-28T08:05:56Z</time></trkpt><trkpt lat="29.422426547321837" lon="-9.70702431869947"><ele>703.5</ele><time>2026-04-28T08:05:57Z</time></trkpt><trkpt lat="29.422299088886138" lon="-9.707082330556295"><ele>705.0</ele><time>2026-04-28T08:05:58Z</time></trkpt><trkpt lat="29.42217078043508" lon="-9.707146147093674"><ele>705.3333333333334</ele><time>2026-04-28T08:05:59Z</time></trkpt><trkpt lat="29.422032838472585" lon="-9.707220130848997"><ele>705.6666666666667</ele><time>2026-04-28T08:06:00Z</time></trkpt><trkpt lat="29.421883666212175" lon="-9.70730973441948"><ele>706.0</ele><time>2026-04-28T08:06:01Z</time></trkpt><trkpt lat="29.421719107188373" lon="-9.707408842590088"><ele>706.0</ele><time>2026-04-28T08:06:02Z</time></trkpt><trkpt lat="29.421540844574956" lon="-9.707523777075387"><ele>706.0</ele><time>2026-04-28T08:06:03Z</time></trkpt><trkpt lat="29.42135500687104" lon="-9.707657661884891"><ele>706.0</ele><time>2026-04-28T08:06:04Z</time></trkpt><trkpt lat="29.42117815529631" lon="-9.707804496045739"><ele>706.0</ele><time>2026-04-28T08:06:05Z</time></trkpt><trkpt lat="29.42100298759836" lon="-9.707959255061914"><ele>706.0</ele><time>2026-04-28T08:06:06Z</time></trkpt><trkpt lat="29.42082187532421" lon="-9.708125377189974"><ele>706.0</ele><time>2026-04-28T08:06:07Z</time></trkpt><trkpt lat="29.420633020671023" lon="-9.708301430460587"><ele>706.0</ele><time>2026-04-28T08:06:08Z</time></trkpt><trkpt lat="29.420452885864734" lon="-9.708474180652308"><ele>707.0</ele><time>2026-04-28T08:06:09Z</time></trkpt><trkpt lat="29.420271652750305" lon="-9.70864237220623"><ele>708.0</ele><time>2026-04-28T08:06:10Z</time></trkpt><trkpt lat="29.420087888643444" lon="-9.708815316962129"><ele>708.0</ele><time>2026-04-28T08:06:11Z</time></trkpt><trkpt lat="29.419905778347708" lon="-9.708987272681645"><ele>708.0</ele><time>2026-04-28T08:06:12Z</time></trkpt><trkpt lat="29.419722001579867" lon="-9.70915970477912"><ele>708.0</ele><time>2026-04-28T08:06:13Z</time></trkpt><trkpt lat="29.41954434679412" lon="-9.709330409214953"><ele>708.0</ele><time>2026-04-28T08:06:14Z</time></trkpt><trkpt lat="29.41936943768883" lon="-9.709498946594008"><ele>708.0</ele><time>2026-04-28T08:06:15Z</time></trkpt><trkpt lat="29.41920491478359" lon="-9.70965433898445"><ele>708.0</ele><time>2026-04-28T08:06:16Z</time></trkpt><trkpt lat="29.419049469994313" lon="-9.709795848232641"><ele>708.0</ele><time>2026-04-28T08:06:17Z</time></trkpt><trkpt lat="29.418891335001195" lon="-9.709942958485074"><ele>711.0</ele><time>2026-04-28T08:06:18Z</time></trkpt><trkpt lat="29.41872072903285" lon="-9.710107213181278"><ele>714.0</ele><time>2026-04-28T08:06:19Z</time></trkpt><trkpt lat="29.41854239673255" lon="-9.710280252980507"><ele>714.0</ele><time>2026-04-28T08:06:20Z</time></trkpt><trkpt lat="29.418370890199554" lon="-9.710446227864884"><ele>714.0</ele><time>2026-04-28T08:06:21Z</time></trkpt><trkpt lat="29.418201062353383" lon="-9.710609526781164"><ele>714.0</ele><time>2026-04-28T08:06:22Z</time></trkpt><trkpt lat="29.418034341268964" lon="-9.710772379845144"><ele>714.6666666666666</ele><time>2026-04-28T08:06:23Z</time></trkpt><trkpt lat="29.417864064832024" lon="-9.710926649562028"><ele>715.3333333333333</ele><time>2026-04-28T08:06:24Z</time></trkpt><trkpt lat="29.417683659488947" lon="-9.711076418385494"><ele>716.0</ele><time>2026-04-28T08:06:25Z</time></trkpt><trkpt lat="29.4174945950788" lon="-9.711222341307685"><ele>716.0</ele><time>2026-04-28T08:06:26Z</time></trkpt><trkpt lat="29.4172890075063" lon="-9.711364581267283"><ele>716.0</ele><time>2026-04-28T08:06:27Z</time></trkpt><trkpt lat="29.417066054691187" lon="-9.711501506015615"><ele>719.5</ele><time>2026-04-28T08:06:28Z</time></trkpt><trkpt lat="29.416838905646483" lon="-9.711624579615407"><ele>723.0</ele><time>2026-04-28T08:06:29Z</time></trkpt><trkpt lat="29.416610128836822" lon="-9.711735363483823"><ele>723.0</ele><time>2026-04-28T08:06:30Z</time></trkpt><trkpt lat="29.41637535957049" lon="-9.711836801470714"><ele>723.0</ele><time>2026-04-28T08:06:31Z</time></trkpt><trkpt lat="29.416133602727903" lon="-9.711931007942912"><ele>722.5</ele><time>2026-04-28T08:06:32Z</time></trkpt><trkpt lat="29.41589728961167" lon="-9.712019861824304"><ele>722.0</ele><time>2026-04-28T08:06:33Z</time></trkpt><trkpt lat="29.415668425835992" lon="-9.712107060506215"><ele>725.5</ele><time>2026-04-28T08:06:34Z</time></trkpt><trkpt lat="29.415445951217787" lon="-9.712198507103228"><ele>729.0</ele><time>2026-04-28T08:06:35Z</time></trkpt><trkpt lat="29.41522335700003" lon="-9.712291769075346"><ele>729.0</ele><time>2026-04-28T08:06:36Z</time></trkpt><trkpt lat="29.4150046246252" lon="-9.712381964822312"><ele>729.0</ele><time>2026-04-28T08:06:37Z</time></trkpt><trkpt lat="29.414789955318188" lon="-9.712467155528275"><ele>731.3333333333334</ele><time>2026-04-28T08:06:38Z</time></trkpt><trkpt lat="29.41458190011589" lon="-9.7125472237634"><ele>733.6666666666667</ele><time>2026-04-28T08:06:39Z</time></trkpt><trkpt lat="29.414374879940492" lon="-9.712627417597075"><ele>736.0</ele><time>2026-04-28T08:06:40Z</time></trkpt><trkpt lat="29.414169627529034" lon="-9.712706786526343"><ele>736.5</ele><time>2026-04-28T08:06:41Z</time></trkpt><trkpt lat="29.413953887012394" lon="-9.71278819437338"><ele>737.0</ele><time>2026-04-28T08:06:42Z</time></trkpt><trkpt lat="29.413733527718648" lon="-9.712876144447542"><ele>737.0</ele><time>2026-04-28T08:06:43Z</time></trkpt><trkpt lat="29.413523893573995" lon="-9.712964868231202"><ele>737.0</ele><time>2026-04-28T08:06:44Z</time></trkpt><trkpt lat="29.413323034961714" lon="-9.713051645776227"><ele>737.0</ele><time>2026-04-28T08:06:45Z</time></trkpt><trkpt lat="29.413121474177952" lon="-9.7131410472547"><ele>739.6666666666666</ele><time>2026-04-28T08:06:46Z</time></trkpt><trkpt lat="29.412923649166586" lon="-9.7132410565971"><ele>742.3333333333334</ele><time>2026-04-28T08:06:47Z</time></trkpt><trkpt lat="29.412727202540275" lon="-9.713352938834603"><ele>745.0</ele><time>2026-04-28T08:06:48Z</time></trkpt><trkpt lat="29.412532654476312" lon="-9.713469099484461"><ele>745.0</ele><time>2026-04-28T08:06:49Z</time></trkpt><trkpt lat="29.41233570093282" lon="-9.713590167460106"><ele>745.0</ele><time>2026-04-28T08:06:50Z</time></trkpt><trkpt lat="29.412138298762137" lon="-9.713715702721432"><ele>745.0</ele><time>2026-04-28T08:06:51Z</time></trkpt><trkpt lat="29.411941449568147" lon="-9.713847377636789"><ele>745.0</ele><time>2026-04-28T08:06:52Z</time></trkpt><trkpt lat="29.411747327872437" lon="-9.713986266721577"><ele>745.0</ele><time>2026-04-28T08:06:53Z</time></trkpt><trkpt lat="29.411556269970745" lon="-9.714124483838004"><ele>745.0</ele><time>2026-04-28T08:06:54Z</time></trkpt><trkpt lat="29.411363301992928" lon="-9.714265648182705"><ele>745.0</ele><time>2026-04-28T08:06:55Z</time></trkpt><trkpt lat="29.411170968070778" lon="-9.714403525063757"><ele>745.6666666666667</ele><time>2026-04-28T08:06:56Z</time></trkpt><trkpt lat="29.410984059094517" lon="-9.71453407627732"><ele>746.3333333333334</ele><time>2026-04-28T08:06:57Z</time></trkpt><trkpt lat="29.410797673518655" lon="-9.714663795199852"><ele>747.0</ele><time>2026-04-28T08:06:58Z</time></trkpt><trkpt lat="29.410614344855777" lon="-9.714790180368206"><ele>752.0</ele><time>2026-04-28T08:06:59Z</time></trkpt><trkpt lat="29.41042651308436" lon="-9.714923401584112"><ele>757.0</ele><time>2026-04-28T08:07:00Z</time></trkpt><trkpt lat="29.410229131452134" lon="-9.715064966828688"><ele>757.0</ele><time>2026-04-28T08:07:01Z</time></trkpt><trkpt lat="29.410017059775452" lon="-9.715217799290691"><ele>757.0</ele><time>2026-04-28T08:07:02Z</time></trkpt><trkpt lat="29.409798951999633" lon="-9.71536990506383"><ele>756.5</ele><time>2026-04-28T08:07:03Z</time></trkpt><trkpt lat="29.40958863043374" lon="-9.715515558717197"><ele>756.0</ele><time>2026-04-28T08:07:04Z</time></trkpt><trkpt lat="29.40938254666817" lon="-9.715659792928935"><ele>756.0</ele><time>2026-04-28T08:07:05Z</time></trkpt><trkpt lat="29.409179501288186" lon="-9.715801127411089"><ele>756.0</ele><time>2026-04-28T08:07:06Z</time></trkpt><trkpt lat="29.408981732020575" lon="-9.715937481873425"><ele>757.5</ele><time>2026-04-28T08:07:07Z</time></trkpt><trkpt lat="29.40878539571656" lon="-9.716072778421553"><ele>759.0</ele><time>2026-04-28T08:07:08Z</time></trkpt><trkpt lat="29.40859404146425" lon="-9.716201535044531"><ele>759.0</ele><time>2026-04-28T08:07:09Z</time></trkpt><trkpt lat="29.408415368100282" lon="-9.716310659437788"><ele>759.0</ele><time>2026-04-28T08:07:10Z</time></trkpt><trkpt lat="29.40824724856852" lon="-9.716402849641193"><ele>759.0</ele><time>2026-04-28T08:07:11Z</time></trkpt><trkpt lat="29.408087912727982" lon="-9.7164825207915"><ele>763.6666666666667</ele><time>2026-04-28T08:07:12Z</time></trkpt><trkpt lat="29.40794028561276" lon="-9.716560894589264"><ele>768.3333333333334</ele><time>2026-04-28T08:07:13Z</time></trkpt><trkpt lat="29.407794995723954" lon="-9.716647171354014"><ele>773.0</ele><time>2026-04-28T08:07:14Z</time></trkpt><trkpt lat="29.407656317788767" lon="-9.71674507695363"><ele>773.0</ele><time>2026-04-28T08:07:15Z</time></trkpt><trkpt lat="29.407569461215548" lon="-9.716891969880448"><ele>773.0</ele><time>2026-04-28T08:07:16Z</time></trkpt><trkpt lat="29.407489233447087" lon="-9.717030948199605"><ele>773.0</ele><time>2026-04-28T08:07:17Z</time></trkpt><trkpt lat="29.407435921382607" lon="-9.717173186575852"><ele>773.0</ele><time>2026-04-28T08:07:18Z</time></trkpt><trkpt lat="29.407395981970144" lon="-9.717328159767861"><ele>771.6666666666667</ele><time>2026-04-28T08:07:19Z</time></trkpt><trkpt lat="29.407362513837555" lon="-9.717505896261681"><ele>770.3333333333333</ele><time>2026-04-28T08:07:20Z</time></trkpt><trkpt lat="29.407366688295507" lon="-9.717672328863534"><ele>769.0</ele><time>2026-04-28T08:07:21Z</time></trkpt><trkpt lat="29.407400740282416" lon="-9.71783541714937"><ele>772.0</ele><time>2026-04-28T08:07:22Z</time></trkpt><trkpt lat="29.407475225142218" lon="-9.717999656395012"><ele>775.0</ele><time>2026-04-28T08:07:23Z</time></trkpt><trkpt lat="29.407572385093776" lon="-9.718164697239706"><ele>778.0</ele><time>2026-04-28T08:07:24Z</time></trkpt><trkpt lat="29.40768274189909" lon="-9.718320685091605"><ele>778.0</ele><time>2026-04-28T08:07:25Z</time></trkpt><trkpt lat="29.40780804077561" lon="-9.7184524622019"><ele>778.0</ele><time>2026-04-28T08:07:26Z</time></trkpt><trkpt lat="29.407961043884413" lon="-9.718562793943986"><ele>778.0</ele><time>2026-04-28T08:07:27Z</time></trkpt><trkpt lat="29.408143717304416" lon="-9.718666964669865"><ele>781.6666666666666</ele><time>2026-04-28T08:07:28Z</time></trkpt><trkpt lat="29.40831572353458" lon="-9.718763884604444"><ele>785.3333333333333</ele><time>2026-04-28T08:07:29Z</time></trkpt><trkpt lat="29.408477032479976" lon="-9.718849120339533"><ele>789.0</ele><time>2026-04-28T08:07:30Z</time></trkpt><trkpt lat="29.408619567799192" lon="-9.71892348299138"><ele>789.0</ele><time>2026-04-28T08:07:31Z</time></trkpt><trkpt lat="29.40875668439774" lon="-9.718985597831917"><ele>789.0</ele><time>2026-04-28T08:07:32Z</time></trkpt><trkpt lat="29.40887551460472" lon="-9.719028040671713"><ele>789.0</ele><time>2026-04-28T08:07:33Z</time></trkpt><trkpt lat="29.40900957821448" lon="-9.719038851444791"><ele>789.0</ele><time>2026-04-28T08:07:34Z</time></trkpt><trkpt lat="29.40913415893507" lon="-9.718966727987132"><ele>789.25</ele><time>2026-04-28T08:07:35Z</time></trkpt><trkpt lat="29.409239360251284" lon="-9.718855000665435"><ele>789.5</ele><time>2026-04-28T08:07:36Z</time></trkpt><trkpt lat="29.40931721631026" lon="-9.718699732371006"><ele>789.75</ele><time>2026-04-28T08:07:37Z</time></trkpt><trkpt lat="29.40938512796098" lon="-9.718565779284344"><ele>790.0</ele><time>2026-04-28T08:07:38Z</time></trkpt><trkpt lat="29.409482579034265" lon="-9.71847619522081"><ele>788.5</ele><time>2026-04-28T08:07:39Z</time></trkpt><trkpt lat="29.409605229111122" lon="-9.71842112047984"><ele>787.0</ele><time>2026-04-28T08:07:40Z</time></trkpt><trkpt lat="29.409721276556468" lon="-9.71838306724285"><ele>785.5</ele><time>2026-04-28T08:07:41Z</time></trkpt><trkpt lat="29.409841966115977" lon="-9.71840450110201"><ele>784.0</ele><time>2026-04-28T08:07:42Z</time></trkpt><trkpt lat="29.40996757431967" lon="-9.71847688788786"><ele>787.3333333333333</ele><time>2026-04-28T08:07:43Z</time></trkpt><trkpt lat="29.41007770369739" lon="-9.718617103431002"><ele>790.6666666666667</ele><time>2026-04-28T08:07:44Z</time></trkpt><trkpt lat="29.410177319239345" lon="-9.718768725988431"><ele>794.0</ele><time>2026-04-28T08:07:45Z</time></trkpt><trkpt lat="29.41026669886501" lon="-9.718919043212637"><ele>794.0</ele><time>2026-04-28T08:07:46Z</time></trkpt><trkpt lat="29.41034627881848" lon="-9.719056312416807"><ele>794.0</ele><time>2026-04-28T08:07:47Z</time></trkpt><trkpt lat="29.41042075553719" lon="-9.719202497929462"><ele>794.0</ele><time>2026-04-28T08:07:48Z</time></trkpt><trkpt lat="29.410471897515958" lon="-9.719369276346413"><ele>794.0</ele><time>2026-04-28T08:07:49Z</time></trkpt><trkpt lat="29.410489718497193" lon="-9.719538909902798"><ele>794.6666666666667</ele><time>2026-04-28T08:07:50Z</time></trkpt><trkpt lat="29.41044847716942" lon="-9.719710835296262"><ele>795.3333333333333</ele><time>2026-04-28T08:07:51Z</time></trkpt><trkpt lat="29.410393572234586" lon="-9.719867653494784"><ele>796.0</ele><time>2026-04-28T08:07:52Z</time></trkpt><trkpt lat="29.410288631895522" lon="-9.72001962868855"><ele>796.0</ele><time>2026-04-28T08:07:53Z</time></trkpt><trkpt lat="29.41017537351345" lon="-9.720153355707927"><ele>796.0</ele><time>2026-04-28T08:07:54Z</time></trkpt><trkpt lat="29.410043092943468" lon="-9.720250468420522"><ele>796.0</ele><time>2026-04-28T08:07:55Z</time></trkpt><trkpt lat="29.40989649841375" lon="-9.72032729013117"><ele>794.3333333333333</ele><time>2026-04-28T08:07:56Z</time></trkpt><trkpt lat="29.409722250615392" lon="-9.720352166726817"><ele>792.6666666666667</ele><time>2026-04-28T08:07:57Z</time></trkpt><trkpt lat="29.40953059843194" lon="-9.720365866726695"><ele>791.0</ele><time>2026-04-28T08:07:58Z</time></trkpt><trkpt lat="29.409321642109152" lon="-9.720343674750529"><ele>791.0</ele><time>2026-04-28T08:07:59Z</time></trkpt><trkpt lat="29.40911544561592" lon="-9.720298444846247"><ele>791.0</ele><time>2026-04-28T08:08:00Z</time></trkpt><trkpt lat="29.408918864770285" lon="-9.720249691173382"><ele>791.0</ele><time>2026-04-28T08:08:01Z</time></trkpt><trkpt lat="29.4087315746671" lon="-9.720209836259999"><ele>794.0</ele><time>2026-04-28T08:08:02Z</time></trkpt><trkpt lat="29.40855674706557" lon="-9.720184937416443"><ele>797.0</ele><time>2026-04-28T08:08:03Z</time></trkpt><trkpt lat="29.408394991568088" lon="-9.720169422635962"><ele>800.0</ele><time>2026-04-28T08:08:04Z</time></trkpt><trkpt lat="29.40824208034801" lon="-9.72016597733317"><ele>800.0</ele><time>2026-04-28T08:08:05Z</time></trkpt><trkpt lat="29.408092915768854" lon="-9.7201963122349"><ele>800.0</ele><time>2026-04-28T08:08:06Z</time></trkpt><trkpt lat="29.40794452846884" lon="-9.720258312575035"><ele>800.0</ele><time>2026-04-28T08:08:07Z</time></trkpt><trkpt lat="29.407799084544433" lon="-9.720343371221714"><ele>803.6666666666667</ele><time>2026-04-28T08:08:08Z</time></trkpt><trkpt lat="29.407701006487947" lon="-9.720492077920042"><ele>807.3333333333333</ele><time>2026-04-28T08:08:09Z</time></trkpt><trkpt lat="29.407588086085653" lon="-9.72062166791372"><ele>811.0</ele><time>2026-04-28T08:08:10Z</time></trkpt><trkpt lat="29.407473289175602" lon="-9.720754711284453"><ele>811.0</ele><time>2026-04-28T08:08:11Z</time></trkpt><trkpt lat="29.40736319032374" lon="-9.720890274580334"><ele>811.0</ele><time>2026-04-28T08:08:12Z</time></trkpt><trkpt lat="29.407252535056895" lon="-9.721036237433422"><ele>811.0</ele><time>2026-04-28T08:08:13Z</time></trkpt><trkpt lat="29.40712775873415" lon="-9.721180055550194"><ele>815.3333333333333</ele><time>2026-04-28T08:08:14Z</time></trkpt><trkpt lat="29.40700877430917" lon="-9.72132338806856"><ele>819.6666666666667</ele><time>2026-04-28T08:08:15Z</time></trkpt><trkpt lat="29.406903023198808" lon="-9.721456849322824"><ele>824.0</ele><time>2026-04-28T08:08:16Z</time></trkpt><trkpt lat="29.406817123588368" lon="-9.721575154182847"><ele>824.0</ele><time>2026-04-28T08:08:17Z</time></trkpt><trkpt lat="29.40676140851158" lon="-9.721691121630466"><ele>824.0</ele><time>2026-04-28T08:08:18Z</time></trkpt><trkpt lat="29.40670927712068" lon="-9.721804346397793"><ele>824.0</ele><time>2026-04-28T08:08:19Z</time></trkpt><trkpt lat="29.40672868620391" lon="-9.72194123659942"><ele>824.0</ele><time>2026-04-28T08:08:20Z</time></trkpt><trkpt lat="29.406755171977746" lon="-9.722066764567"><ele>826.25</ele><time>2026-04-28T08:08:21Z</time></trkpt><trkpt lat="29.406802863053333" lon="-9.72218399077534"><ele>828.5</ele><time>2026-04-28T08:08:22Z</time></trkpt><trkpt lat="29.40685962617694" lon="-9.722307935693987"><ele>830.75</ele><time>2026-04-28T08:08:23Z</time></trkpt><trkpt lat="29.40694710569681" lon="-9.722384153003814"><ele>833.0</ele><time>2026-04-28T08:08:24Z</time></trkpt><trkpt lat="29.407047032252493" lon="-9.722434327695643"><ele>830.3333333333334</ele><time>2026-04-28T08:08:25Z</time></trkpt><trkpt lat="29.407164345320773" lon="-9.722493975751265"><ele>827.6666666666667</ele><time>2026-04-28T08:08:26Z</time></trkpt><trkpt lat="29.407310072638307" lon="-9.722561886489094"><ele>825.0</ele><time>2026-04-28T08:08:27Z</time></trkpt><trkpt lat="29.40748055679283" lon="-9.722647299218538"><ele>825.0</ele><time>2026-04-28T08:08:28Z</time></trkpt><trkpt lat="29.40763615409149" lon="-9.722725852534543"><ele>825.0</ele><time>2026-04-28T08:08:29Z</time></trkpt><trkpt lat="29.40779039253385" lon="-9.722796949698102"><ele>825.0</ele><time>2026-04-28T08:08:30Z</time></trkpt><trkpt lat="29.407946859383436" lon="-9.722870370220628"><ele>830.6666666666667</ele><time>2026-04-28T08:08:31Z</time></trkpt><trkpt lat="29.40809539136261" lon="-9.722943357665809"><ele>836.3333333333334</ele><time>2026-04-28T08:08:32Z</time></trkpt><trkpt lat="29.408236697074" lon="-9.723016273208502"><ele>842.0</ele><time>2026-04-28T08:08:33Z</time></trkpt><trkpt lat="29.40837814233496" lon="-9.723091400376472"><ele>842.0</ele><time>2026-04-28T08:08:34Z</time></trkpt><trkpt lat="29.408516090518066" lon="-9.723186511812072"><ele>842.0</ele><time>2026-04-28T08:08:35Z</time></trkpt><trkpt lat="29.40864235214776" lon="-9.723285253173989"><ele>842.0</ele><time>2026-04-28T08:08:36Z</time></trkpt><trkpt lat="29.40876156981598" lon="-9.723393219063437"><ele>837.6666666666667</ele><time>2026-04-28T08:08:37Z</time></trkpt><trkpt lat="29.408883418068523" lon="-9.72350285629007"><ele>833.3333333333333</ele><time>2026-04-28T08:08:38Z</time></trkpt><trkpt lat="29.409010246722808" lon="-9.723614984638932"><ele>829.0</ele><time>2026-04-28T08:08:39Z</time></trkpt><trkpt lat="29.40914901989508" lon="-9.723727909599106"><ele>839.0</ele><time>2026-04-28T08:08:40Z</time></trkpt><trkpt lat="29.409279578767514" lon="-9.723834522890442"><ele>849.0</ele><time>2026-04-28T08:08:41Z</time></trkpt><trkpt lat="29.409407938748576" lon="-9.723921034678208"><ele>859.0</ele><time>2026-04-28T08:08:42Z</time></trkpt><trkpt lat="29.409551270113344" lon="-9.723991454291355"><ele>855.6666666666666</ele><time>2026-04-28T08:08:43Z</time></trkpt><trkpt lat="29.4097043058784" lon="-9.72405628728393"><ele>852.3333333333333</ele><time>2026-04-28T08:08:44Z</time></trkpt><trkpt lat="29.409871995897902" lon="-9.724125886717788"><ele>849.0</ele><time>2026-04-28T08:08:45Z</time></trkpt><trkpt lat="29.41004051654642" lon="-9.724197678660786"><ele>849.0</ele><time>2026-04-28T08:08:46Z</time></trkpt><trkpt lat="29.410205739539716" lon="-9.724268640959679"><ele>849.0</ele><time>2026-04-28T08:08:47Z</time></trkpt><trkpt lat="29.410369057260123" lon="-9.724338808297723"><ele>849.0</ele><time>2026-04-28T08:08:48Z</time></trkpt><trkpt lat="29.41053003038497" lon="-9.72440767160187"><ele>855.6666666666667</ele><time>2026-04-28T08:08:49Z</time></trkpt><trkpt lat="29.410680331540153" lon="-9.72448176953412"><ele>862.3333333333334</ele><time>2026-04-28T08:08:50Z</time></trkpt><trkpt lat="29.41082695234641" lon="-9.724553886312977"><ele>869.0</ele><time>2026-04-28T08:08:51Z</time></trkpt><trkpt lat="29.4109683229783" lon="-9.724623716238225"><ele>869.0</ele><time>2026-04-28T08:08:52Z</time></trkpt><trkpt lat="29.411113159203545" lon="-9.724700418756713"><ele>869.0</ele><time>2026-04-28T08:08:53Z</time></trkpt><trkpt lat="29.4112429274934" lon="-9.72479065374816"><ele>869.0</ele><time>2026-04-28T08:08:54Z</time></trkpt><trkpt lat="29.411373376516764" lon="-9.724907600233648"><ele>869.6666666666667</ele><time>2026-04-28T08:08:55Z</time></trkpt><trkpt lat="29.411499103496627" lon="-9.725029204801027"><ele>870.3333333333333</ele><time>2026-04-28T08:08:56Z</time></trkpt><trkpt lat="29.411618478654393" lon="-9.72515551875085"><ele>871.0</ele><time>2026-04-28T08:08:57Z</time></trkpt><trkpt lat="29.411731309688236" lon="-9.725284777353064"><ele>871.0</ele><time>2026-04-28T08:08:58Z</time></trkpt><trkpt lat="29.41183073728628" lon="-9.725411336895636"><ele>871.0</ele><time>2026-04-28T08:08:59Z</time></trkpt><trkpt lat="29.411910654679794" lon="-9.725545596567338"><ele>871.0</ele><time>2026-04-28T08:09:00Z</time></trkpt><trkpt lat="29.411976878709527" lon="-9.725661352415093"><ele>871.0</ele><time>2026-04-28T08:09:01Z</time></trkpt><trkpt lat="29.412032748974354" lon="-9.725765533548724"><ele>871.0</ele><time>2026-04-28T08:09:02Z</time></trkpt><trkpt lat="29.412078081142557" lon="-9.725885907185267"><ele>871.0</ele><time>2026-04-28T08:09:03Z</time></trkpt><trkpt lat="29.412116692505073" lon="-9.72600177653468"><ele>871.0</ele><time>2026-04-28T08:09:04Z</time></trkpt><trkpt lat="29.412128756218024" lon="-9.726143582312524"><ele>871.0</ele><time>2026-04-28T08:09:05Z</time></trkpt><trkpt lat="29.412110406736637" lon="-9.726293238179641"><ele>872.0</ele><time>2026-04-28T08:09:06Z</time></trkpt><trkpt lat="29.412060975874653" lon="-9.72643737095517"><ele>873.0</ele><time>2026-04-28T08:09:07Z</time></trkpt><trkpt lat="29.41201053130877" lon="-9.726566060107627"><ele>874.0</ele><time>2026-04-28T08:09:08Z</time></trkpt><trkpt lat="29.41194836504293" lon="-9.726688110033384"><ele>875.0</ele><time>2026-04-28T08:09:09Z</time></trkpt><trkpt lat="29.4118617016762" lon="-9.726796486069691"><ele>875.0</ele><time>2026-04-28T08:09:10Z</time></trkpt><trkpt lat="29.41175628185485" lon="-9.726879904171788"><ele>875.0</ele><time>2026-04-28T08:09:11Z</time></trkpt><trkpt lat="29.411643267025777" lon="-9.726953827454215"><ele>875.0</ele><time>2026-04-28T08:09:12Z</time></trkpt><trkpt lat="29.41152882228429" lon="-9.727029021266047"><ele>875.0</ele><time>2026-04-28T08:09:13Z</time></trkpt><trkpt lat="29.41139480039741" lon="-9.727065359817672"><ele>875.0</ele><time>2026-04-28T08:09:14Z</time></trkpt><trkpt lat="29.411270300941553" lon="-9.727121195422928"><ele>875.0</ele><time>2026-04-28T08:09:15Z</time></trkpt><trkpt lat="29.411141462635385" lon="-9.727167657300047"><ele>875.0</ele><time>2026-04-28T08:09:16Z</time></trkpt><trkpt lat="29.411010698646738" lon="-9.727210087131692"><ele>875.0</ele><time>2026-04-28T08:09:17Z</time></trkpt><trkpt lat="29.41087201284994" lon="-9.727252623595536"><ele>875.0</ele><time>2026-04-28T08:09:18Z</time></trkpt><trkpt lat="29.41073342654413" lon="-9.727288209689764"><ele>875.0</ele><time>2026-04-28T08:09:19Z</time></trkpt><trkpt lat="29.41059649260287" lon="-9.727325411845928"><ele>875.0</ele><time>2026-04-28T08:09:20Z</time></trkpt><trkpt lat="29.410459339175997" lon="-9.7273635400064"><ele>875.0</ele><time>2026-04-28T08:09:21Z</time></trkpt><trkpt lat="29.41032525138714" lon="-9.727400137713412"><ele>878.0</ele><time>2026-04-28T08:09:22Z</time></trkpt><trkpt lat="29.41019055060635" lon="-9.72743459968052"><ele>881.0</ele><time>2026-04-28T08:09:23Z</time></trkpt><trkpt lat="29.410056228307912" lon="-9.727464074321933"><ele>884.0</ele><time>2026-04-28T08:09:24Z</time></trkpt><trkpt lat="29.409922258440822" lon="-9.727487149780075"><ele>887.0</ele><time>2026-04-28T08:09:25Z</time></trkpt><trkpt lat="29.4097879905999" lon="-9.727509914222617"><ele>890.0</ele><time>2026-04-28T08:09:26Z</time></trkpt><trkpt lat="29.40965177938227" lon="-9.727527239865978"><ele>893.0</ele><time>2026-04-28T08:09:27Z</time></trkpt><trkpt lat="29.409507140942083" lon="-9.727543081838695"><ele>896.0</ele><time>2026-04-28T08:09:28Z</time></trkpt><trkpt lat="29.409343991681748" lon="-9.72755922441757"><ele>899.0</ele><time>2026-04-28T08:09:29Z</time></trkpt><trkpt lat="29.409159961594035" lon="-9.727580136278915"><ele>899.0</ele><time>2026-04-28T08:09:30Z</time></trkpt><trkpt lat="29.40897251415837" lon="-9.727603659530844"><ele>899.0</ele><time>2026-04-28T08:09:31Z</time></trkpt><trkpt lat="29.408774598528073" lon="-9.727627302488242"><ele>899.0</ele><time>2026-04-28T08:09:32Z</time></trkpt><trkpt lat="29.408569471476756" lon="-9.72764879423734"><ele>902.0</ele><time>2026-04-28T08:09:33Z</time></trkpt><trkpt lat="29.408368819367716" lon="-9.727670131715126"><ele>905.0</ele><time>2026-04-28T08:09:34Z</time></trkpt><trkpt lat="29.40818500488665" lon="-9.72768750286576"><ele>908.0</ele><time>2026-04-28T08:09:35Z</time></trkpt><trkpt lat="29.408004383668057" lon="-9.727689737453504"><ele>910.0</ele><time>2026-04-28T08:09:36Z</time></trkpt><trkpt lat="29.4078190538875" lon="-9.727667016251132"><ele>912.0</ele><time>2026-04-28T08:09:37Z</time></trkpt><trkpt lat="29.40762618792682" lon="-9.727626509136188"><ele>914.0</ele><time>2026-04-28T08:09:38Z</time></trkpt><trkpt lat="29.407426685183953" lon="-9.727567077427322"><ele>914.0</ele><time>2026-04-28T08:09:39Z</time></trkpt><trkpt lat="29.40720923525806" lon="-9.727494826894992"><ele>914.0</ele><time>2026-04-28T08:09:40Z</time></trkpt><trkpt lat="29.40697653643272" lon="-9.727425872668029"><ele>913.5</ele><time>2026-04-28T08:09:41Z</time></trkpt><trkpt lat="29.40675007182914" lon="-9.727364409808567"><ele>913.0</ele><time>2026-04-28T08:09:42Z</time></trkpt><trkpt lat="29.406515663802566" lon="-9.7273012792306"><ele>915.0</ele><time>2026-04-28T08:09:43Z</time></trkpt><trkpt lat="29.406274830860323" lon="-9.72723498775923"><ele>917.0</ele><time>2026-04-28T08:09:44Z</time></trkpt><trkpt lat="29.406030696643555" lon="-9.727166813264681"><ele>917.0</ele><time>2026-04-28T08:09:45Z</time></trkpt><trkpt lat="29.405780412087303" lon="-9.727090324332844"><ele>917.0</ele><time>2026-04-28T08:09:46Z</time></trkpt><trkpt lat="29.405534596135077" lon="-9.72701316998138"><ele>918.5</ele><time>2026-04-28T08:09:47Z</time></trkpt><trkpt lat="29.40530635970112" lon="-9.72693832462291"><ele>920.0</ele><time>2026-04-28T08:09:48Z</time></trkpt><trkpt lat="29.40509678454765" lon="-9.726863617191427"><ele>923.6666666666667</ele><time>2026-04-28T08:09:49Z</time></trkpt><trkpt lat="29.404898248519313" lon="-9.726788901115288"><ele>927.3333333333333</ele><time>2026-04-28T08:09:50Z</time></trkpt><trkpt lat="29.40471282864604" lon="-9.726723020454669"><ele>931.0</ele><time>2026-04-28T08:09:51Z</time></trkpt><trkpt lat="29.40453642334789" lon="-9.726660890168947"><ele>931.0</ele><time>2026-04-28T08:09:52Z</time></trkpt><trkpt lat="29.404364719083976" lon="-9.726604360196172"><ele>931.0</ele><time>2026-04-28T08:09:53Z</time></trkpt><trkpt lat="29.40419029665485" lon="-9.72655327488604"><ele>931.0</ele><time>2026-04-28T08:09:54Z</time></trkpt><trkpt lat="29.40401454631454" lon="-9.7265217754206"><ele>931.0</ele><time>2026-04-28T08:09:55Z</time></trkpt><trkpt lat="29.403830986829334" lon="-9.726512292451334"><ele>931.0</ele><time>2026-04-28T08:09:56Z</time></trkpt><trkpt lat="29.403641927517484" lon="-9.726521129450653"><ele>931.0</ele><time>2026-04-28T08:09:57Z</time></trkpt><trkpt lat="29.403445278071747" lon="-9.726548723191328"><ele>932.3333333333333</ele><time>2026-04-28T08:09:58Z</time></trkpt><trkpt lat="29.403246697708212" lon="-9.726592063535438"><ele>933.6666666666667</ele><time>2026-04-28T08:09:59Z</time></trkpt><trkpt lat="29.403054585568754" lon="-9.726643239137966"><ele>935.0</ele><time>2026-04-28T08:10:00Z</time></trkpt><trkpt lat="29.402879106300905" lon="-9.726695493189583"><ele>937.0</ele><time>2026-04-28T08:10:01Z</time></trkpt><trkpt lat="29.402721615929774" lon="-9.726744691644708"><ele>939.0</ele><time>2026-04-28T08:10:02Z</time></trkpt><trkpt lat="29.402570907695058" lon="-9.72680012181367"><ele>941.0</ele><time>2026-04-28T08:10:03Z</time></trkpt><trkpt lat="29.40242082574632" lon="-9.726866481956728"><ele>940.5</ele><time>2026-04-28T08:10:04Z</time></trkpt><trkpt lat="29.402293711221898" lon="-9.726966772199331"><ele>940.0</ele><time>2026-04-28T08:10:05Z</time></trkpt><trkpt lat="29.40218889823802" lon="-9.727060878129128"><ele>939.5</ele><time>2026-04-28T08:10:06Z</time></trkpt><trkpt lat="29.402084799355443" lon="-9.7271464901063"><ele>939.0</ele><time>2026-04-28T08:10:07Z</time></trkpt><trkpt lat="29.402002729542502" lon="-9.727254890767265"><ele>941.25</ele><time>2026-04-28T08:10:08Z</time></trkpt><trkpt lat="29.40191457008928" lon="-9.727365210284098"><ele>943.5</ele><time>2026-04-28T08:10:09Z</time></trkpt><trkpt lat="29.40182622320541" lon="-9.72747765176883"><ele>945.75</ele><time>2026-04-28T08:10:10Z</time></trkpt><trkpt lat="29.401765726569618" lon="-9.727592038982397"><ele>948.0</ele><time>2026-04-28T08:10:11Z</time></trkpt><trkpt lat="29.401700409517037" lon="-9.727713449129801"><ele>948.25</ele><time>2026-04-28T08:10:12Z</time></trkpt><trkpt lat="29.40165583571092" lon="-9.727840501264778"><ele>948.5</ele><time>2026-04-28T08:10:13Z</time></trkpt><trkpt lat="29.40159660788132" lon="-9.727992611837266"><ele>948.75</ele><time>2026-04-28T08:10:14Z</time></trkpt><trkpt lat="29.401550914077" lon="-9.728152026200538"><ele>949.0</ele><time>2026-04-28T08:10:15Z</time></trkpt><trkpt lat="29.401509741512573" lon="-9.728341159829082"><ele>949.0</ele><time>2026-04-28T08:10:16Z</time></trkpt><trkpt lat="29.401482969358074" lon="-9.72853827924873"><ele>949.0</ele><time>2026-04-28T08:10:17Z</time></trkpt><trkpt lat="29.40146052579963" lon="-9.72874718356177"><ele>949.0</ele><time>2026-04-28T08:10:18Z</time></trkpt><trkpt lat="29.401443956213992" lon="-9.72896388684025"><ele>950.6666666666666</ele><time>2026-04-28T08:10:19Z</time></trkpt><trkpt lat="29.401430799436746" lon="-9.729170104363266"><ele>952.3333333333333</ele><time>2026-04-28T08:10:20Z</time></trkpt><trkpt lat="29.401419749324944" lon="-9.729373798798665"><ele>954.0</ele><time>2026-04-28T08:10:21Z</time></trkpt><trkpt lat="29.401402261344657" lon="-9.729565950497108"><ele>957.0</ele><time>2026-04-28T08:10:22Z</time></trkpt><trkpt lat="29.4013692798937" lon="-9.729754702900742"><ele>960.0</ele><time>2026-04-28T08:10:23Z</time></trkpt><trkpt lat="29.40132670145321" lon="-9.7299203943811"><ele>963.0</ele><time>2026-04-28T08:10:24Z</time></trkpt><trkpt lat="29.40123834204126" lon="-9.730074612125659"><ele>964.6666666666667</ele><time>2026-04-28T08:10:25Z</time></trkpt><trkpt lat="29.4011437195344" lon="-9.730207827846662"><ele>966.3333333333334</ele><time>2026-04-28T08:10:26Z</time></trkpt><trkpt lat="29.40102313515254" lon="-9.730328368969113"><ele>968.0</ele><time>2026-04-28T08:10:27Z</time></trkpt><trkpt lat="29.40089614183357" lon="-9.730456287130538"><ele>968.0</ele><time>2026-04-28T08:10:28Z</time></trkpt><trkpt lat="29.400741425376786" lon="-9.730561924881956"><ele>968.0</ele><time>2026-04-28T08:10:29Z</time></trkpt><trkpt lat="29.400602353507423" lon="-9.730673708222382"><ele>968.0</ele><time>2026-04-28T08:10:30Z</time></trkpt><trkpt lat="29.40046708690687" lon="-9.730759945238487"><ele>968.6666666666667</ele><time>2026-04-28T08:10:31Z</time></trkpt><trkpt lat="29.400323798511714" lon="-9.730826592791761"><ele>969.3333333333333</ele><time>2026-04-28T08:10:32Z</time></trkpt><trkpt lat="29.40016635660216" lon="-9.730870018038281"><ele>970.0</ele><time>2026-04-28T08:10:33Z</time></trkpt><trkpt lat="29.399991449951035" lon="-9.730917982472157"><ele>970.0</ele><time>2026-04-28T08:10:34Z</time></trkpt><trkpt lat="29.399792173963924" lon="-9.730974680732972"><ele>970.0</ele><time>2026-04-28T08:10:35Z</time></trkpt><trkpt lat="29.399568691316325" lon="-9.73104513863568"><ele>970.0</ele><time>2026-04-28T08:10:36Z</time></trkpt><trkpt lat="29.39934256813624" lon="-9.731114311653425"><ele>969.0</ele><time>2026-04-28T08:10:37Z</time></trkpt><trkpt lat="29.39911950107337" lon="-9.73118173254182"><ele>968.0</ele><time>2026-04-28T08:10:38Z</time></trkpt><trkpt lat="29.39890783120861" lon="-9.731247193520689"><ele>969.3333333333334</ele><time>2026-04-28T08:10:39Z</time></trkpt><trkpt lat="29.398712229415647" lon="-9.731307207328442"><ele>970.6666666666667</ele><time>2026-04-28T08:10:40Z</time></trkpt><trkpt lat="29.39852885827109" lon="-9.731362819390466"><ele>972.0</ele><time>2026-04-28T08:10:41Z</time></trkpt><trkpt lat="29.398359673441654" lon="-9.731440580206016"><ele>972.0</ele><time>2026-04-28T08:10:42Z</time></trkpt><trkpt lat="29.39819392676719" lon="-9.731482857576406"><ele>972.0</ele><time>2026-04-28T08:10:43Z</time></trkpt><trkpt lat="29.398071799793094" lon="-9.731589053509667"><ele>972.0</ele><time>2026-04-28T08:10:44Z</time></trkpt><trkpt lat="29.397957750310802" lon="-9.731690461246327"><ele>972.6666666666667</ele><time>2026-04-28T08:10:45Z</time></trkpt><trkpt lat="29.397865567812993" lon="-9.731823358921675"><ele>973.3333333333334</ele><time>2026-04-28T08:10:46Z</time></trkpt><trkpt lat="29.397776880524688" lon="-9.731979452653858"><ele>974.0</ele><time>2026-04-28T08:10:47Z</time></trkpt><trkpt lat="29.397679648053273" lon="-9.732155274807562"><ele>975.0</ele><time>2026-04-28T08:10:48Z</time></trkpt><trkpt lat="29.397573955195927" lon="-9.732346012051313"><ele>976.0</ele><time>2026-04-28T08:10:49Z</time></trkpt><trkpt lat="29.39745118037174" lon="-9.73253277890037"><ele>977.0</ele><time>2026-04-28T08:10:50Z</time></trkpt><trkpt lat="29.397345335304674" lon="-9.73273016841625"><ele>977.3333333333334</ele><time>2026-04-28T08:10:51Z</time></trkpt><trkpt lat="29.397245063829523" lon="-9.732917695356964"><ele>977.6666666666667</ele><time>2026-04-28T08:10:52Z</time></trkpt><trkpt lat="29.397144154689332" lon="-9.733102445285972"><ele>978.0</ele><time>2026-04-28T08:10:53Z</time></trkpt><trkpt lat="29.397040012577964" lon="-9.73328552402646"><ele>978.0</ele><time>2026-04-28T08:10:54Z</time></trkpt><trkpt lat="29.39692664558057" lon="-9.733470681792596"><ele>978.0</ele><time>2026-04-28T08:10:55Z</time></trkpt><trkpt lat="29.39682342866012" lon="-9.733673043050999"><ele>978.0</ele><time>2026-04-28T08:10:56Z</time></trkpt><trkpt lat="29.396705841505902" lon="-9.733867314625286"><ele>977.3333333333333</ele><time>2026-04-28T08:10:57Z</time></trkpt><trkpt lat="29.396582268285098" lon="-9.73406409492234"><ele>976.6666666666666</ele><time>2026-04-28T08:10:58Z</time></trkpt><trkpt lat="29.396449104390943" lon="-9.734275919406436"><ele>976.0</ele><time>2026-04-28T08:10:59Z</time></trkpt><trkpt lat="29.396307377894452" lon="-9.734501310231744"><ele>976.0</ele><time>2026-04-28T08:11:00Z</time></trkpt><trkpt lat="29.396161023317283" lon="-9.734730161377035"><ele>976.0</ele><time>2026-04-28T08:11:01Z</time></trkpt><trkpt lat="29.396006201946598" lon="-9.734949520412886"><ele>976.0</ele><time>2026-04-28T08:11:02Z</time></trkpt><trkpt lat="29.39586076805842" lon="-9.735156712412737"><ele>976.0</ele><time>2026-04-28T08:11:03Z</time></trkpt><trkpt lat="29.395722504579314" lon="-9.735353841671742"><ele>976.3333333333333</ele><time>2026-04-28T08:11:04Z</time></trkpt><trkpt lat="29.395592281619397" lon="-9.735545743391688"><ele>976.6666666666667</ele><time>2026-04-28T08:11:05Z</time></trkpt><trkpt lat="29.39546943478365" lon="-9.735743956378"><ele>977.0</ele><time>2026-04-28T08:11:06Z</time></trkpt><trkpt lat="29.395344845555048" lon="-9.735949012874249"><ele>974.6666666666667</ele><time>2026-04-28T08:11:07Z</time></trkpt><trkpt lat="29.395241324928648" lon="-9.736171174572435"><ele>972.3333333333333</ele><time>2026-04-28T08:11:08Z</time></trkpt><trkpt lat="29.395131552677842" lon="-9.736398424231737"><ele>970.0</ele><time>2026-04-28T08:11:09Z</time></trkpt><trkpt lat="29.395019984227208" lon="-9.7366308511518"><ele>970.0</ele><time>2026-04-28T08:11:10Z</time></trkpt><trkpt lat="29.394907781189765" lon="-9.736868443830653"><ele>970.0</ele><time>2026-04-28T08:11:11Z</time></trkpt><trkpt lat="29.394795101984254" lon="-9.73710702075005"><ele>967.5</ele><time>2026-04-28T08:11:12Z</time></trkpt><trkpt lat="29.394682390112592" lon="-9.737345847595781"><ele>965.0</ele><time>2026-04-28T08:11:13Z</time></trkpt><trkpt lat="29.394567590463087" lon="-9.737588577941636"><ele>964.0</ele><time>2026-04-28T08:11:14Z</time></trkpt><trkpt lat="29.394449460319972" lon="-9.737832871506635"><ele>963.0</ele><time>2026-04-28T08:11:15Z</time></trkpt><trkpt lat="29.39433228045594" lon="-9.738075277437444"><ele>963.0</ele><time>2026-04-28T08:11:16Z</time></trkpt><trkpt lat="29.39421562612648" lon="-9.7383166739014"><ele>963.0</ele><time>2026-04-28T08:11:17Z</time></trkpt><trkpt lat="29.39409880312303" lon="-9.738557811559032"><ele>960.5</ele><time>2026-04-28T08:11:18Z</time></trkpt><trkpt lat="29.393981508588286" lon="-9.738797929641466"><ele>958.0</ele><time>2026-04-28T08:11:19Z</time></trkpt><trkpt lat="29.393860542433806" lon="-9.739045792733243"><ele>959.0</ele><time>2026-04-28T08:11:20Z</time></trkpt><trkpt lat="29.393732643207755" lon="-9.73930854336465"><ele>960.0</ele><time>2026-04-28T08:11:21Z</time></trkpt><trkpt lat="29.393601705410198" lon="-9.7395781991879"><ele>960.0</ele><time>2026-04-28T08:11:22Z</time></trkpt><trkpt lat="29.393477684193233" lon="-9.739839760312687"><ele>960.0</ele><time>2026-04-28T08:11:23Z</time></trkpt><trkpt lat="29.393359979828702" lon="-9.740085967199187"><ele>960.0</ele><time>2026-04-28T08:11:24Z</time></trkpt><trkpt lat="29.39324655127605" lon="-9.740314230578882"><ele>960.0</ele><time>2026-04-28T08:11:25Z</time></trkpt><trkpt lat="29.39314067719408" lon="-9.740522821089248"><ele>960.0</ele><time>2026-04-28T08:11:26Z</time></trkpt><trkpt lat="29.393039253346974" lon="-9.740721783464574"><ele>961.6666666666667</ele><time>2026-04-28T08:11:27Z</time></trkpt><trkpt lat="29.392942250670348" lon="-9.740907079405188"><ele>963.3333333333334</ele><time>2026-04-28T08:11:28Z</time></trkpt><trkpt lat="29.392852848003642" lon="-9.74107401715046"><ele>965.0</ele><time>2026-04-28T08:11:29Z</time></trkpt><trkpt lat="29.392747165275736" lon="-9.741225677218294"><ele>965.3333333333334</ele><time>2026-04-28T08:11:30Z</time></trkpt><trkpt lat="29.392641444834684" lon="-9.741359768510288"><ele>965.6666666666667</ele><time>2026-04-28T08:11:31Z</time></trkpt><trkpt lat="29.392507548548252" lon="-9.741481798532229"><ele>966.0</ele><time>2026-04-28T08:11:32Z</time></trkpt><trkpt lat="29.39236157412853" lon="-9.741574548398463"><ele>966.0</ele><time>2026-04-28T08:11:33Z</time></trkpt><trkpt lat="29.392218736088374" lon="-9.741675992886679"><ele>966.0</ele><time>2026-04-28T08:11:34Z</time></trkpt><trkpt lat="29.392065119233997" lon="-9.741755773508707"><ele>966.0</ele><time>2026-04-28T08:11:35Z</time></trkpt><trkpt lat="29.39188581934107" lon="-9.74183218431693"><ele>965.6666666666667</ele><time>2026-04-28T08:11:36Z</time></trkpt><trkpt lat="29.391693156960507" lon="-9.741919113496548"><ele>965.3333333333334</ele><time>2026-04-28T08:11:37Z</time></trkpt><trkpt lat="29.391497841192077" lon="-9.742008414390796"><ele>965.0</ele><time>2026-04-28T08:11:38Z</time></trkpt><trkpt lat="29.39132136566233" lon="-9.742088049163357"><ele>965.0</ele><time>2026-04-28T08:11:39Z</time></trkpt><trkpt lat="29.391149654725425" lon="-9.742166380542578"><ele>965.0</ele><time>2026-04-28T08:11:40Z</time></trkpt><trkpt lat="29.390982006895666" lon="-9.742239064088235"><ele>965.0</ele><time>2026-04-28T08:11:41Z</time></trkpt><trkpt lat="29.390820293313165" lon="-9.742304828826628"><ele>965.0</ele><time>2026-04-28T08:11:42Z</time></trkpt><trkpt lat="29.390656340220215" lon="-9.742362430734651"><ele>965.0</ele><time>2026-04-28T08:11:43Z</time></trkpt><trkpt lat="29.39048634675108" lon="-9.742413140775312"><ele>965.0</ele><time>2026-04-28T08:11:44Z</time></trkpt><trkpt lat="29.390300789285032" lon="-9.742449469482663"><ele>965.0</ele><time>2026-04-28T08:11:45Z</time></trkpt><trkpt lat="29.39009712868203" lon="-9.742464953933538"><ele>965.0</ele><time>2026-04-28T08:11:46Z</time></trkpt><trkpt lat="29.389870377048293" lon="-9.74247261298638"><ele>965.0</ele><time>2026-04-28T08:11:47Z</time></trkpt><trkpt lat="29.389626691603024" lon="-9.74248748273935"><ele>965.0</ele><time>2026-04-28T08:11:48Z</time></trkpt><trkpt lat="29.38937955230285" lon="-9.742516786377617"><ele>965.0</ele><time>2026-04-28T08:11:49Z</time></trkpt><trkpt lat="29.389143490301198" lon="-9.742550270121935"><ele>965.0</ele><time>2026-04-28T08:11:50Z</time></trkpt><trkpt lat="29.388902666207102" lon="-9.742578348499347"><ele>965.0</ele><time>2026-04-28T08:11:51Z</time></trkpt><trkpt lat="29.388658886497154" lon="-9.74260165486961"><ele>965.5</ele><time>2026-04-28T08:11:52Z</time></trkpt><trkpt lat="29.38841153664921" lon="-9.742625537637466"><ele>966.0</ele><time>2026-04-28T08:11:53Z</time></trkpt><trkpt lat="29.388160054128537" lon="-9.74265097867889"><ele>964.5</ele><time>2026-04-28T08:11:54Z</time></trkpt><trkpt lat="29.387909573227635" lon="-9.742677608938848"><ele>963.0</ele><time>2026-04-28T08:11:55Z</time></trkpt><trkpt lat="29.387669029465247" lon="-9.74269978945181"><ele>957.0</ele><time>2026-04-28T08:11:56Z</time></trkpt><trkpt lat="29.3874318708015" lon="-9.742722747515625"><ele>951.0</ele><time>2026-04-28T08:11:57Z</time></trkpt><trkpt lat="29.38720040444051" lon="-9.742745132570905"><ele>953.3333333333333</ele><time>2026-04-28T08:11:58Z</time></trkpt><trkpt lat="29.386981763267272" lon="-9.742764579574274"><ele>955.6666666666666</ele><time>2026-04-28T08:11:59Z</time></trkpt><trkpt lat="29.3867769163056" lon="-9.742785098710657"><ele>958.0</ele><time>2026-04-28T08:12:00Z</time></trkpt><trkpt lat="29.38658407579365" lon="-9.742805605130716"><ele>958.0</ele><time>2026-04-28T08:12:01Z</time></trkpt><trkpt lat="29.386402946795208" lon="-9.74282839555309"><ele>958.0</ele><time>2026-04-28T08:12:02Z</time></trkpt><trkpt lat="29.386228907222048" lon="-9.742854670223908"><ele>958.0</ele><time>2026-04-28T08:12:03Z</time></trkpt><trkpt lat="29.386062941027756" lon="-9.742880004431367"><ele>959.3333333333333</ele><time>2026-04-28T08:12:04Z</time></trkpt><trkpt lat="29.385892622660574" lon="-9.74291246782711"><ele>960.6666666666667</ele><time>2026-04-28T08:12:05Z</time></trkpt><trkpt lat="29.385717779087297" lon="-9.74295473869643"><ele>962.0</ele><time>2026-04-28T08:12:06Z</time></trkpt><trkpt lat="29.38553760362887" lon="-9.74301110676489"><ele>961.0</ele><time>2026-04-28T08:12:07Z</time></trkpt><trkpt lat="29.385341146181815" lon="-9.74308309280253"><ele>960.0</ele><time>2026-04-28T08:12:08Z</time></trkpt><trkpt lat="29.38513151738867" lon="-9.743167954198709"><ele>959.0</ele><time>2026-04-28T08:12:09Z</time></trkpt><trkpt lat="29.384907188732363" lon="-9.743264632690048"><ele>955.5</ele><time>2026-04-28T08:12:10Z</time></trkpt><trkpt lat="29.384667170949832" lon="-9.743369983597876"><ele>952.0</ele><time>2026-04-28T08:12:11Z</time></trkpt><trkpt lat="29.38442944676611" lon="-9.743473221691815"><ele>954.5</ele><time>2026-04-28T08:12:12Z</time></trkpt><trkpt lat="29.384182453304174" lon="-9.74357744532182"><ele>957.0</ele><time>2026-04-28T08:12:13Z</time></trkpt><trkpt lat="29.38391211438345" lon="-9.743692076030749"><ele>950.0</ele><time>2026-04-28T08:12:14Z</time></trkpt><trkpt lat="29.38363390801258" lon="-9.743810980417994"><ele>943.0</ele><time>2026-04-28T08:12:15Z</time></trkpt><trkpt lat="29.38336048900438" lon="-9.743928032722811"><ele>943.0</ele><time>2026-04-28T08:12:16Z</time></trkpt><trkpt lat="29.38308807883429" lon="-9.744046832449758"><ele>943.0</ele><time>2026-04-28T08:12:17Z</time></trkpt><trkpt lat="29.3828131343217" lon="-9.744166703120584"><ele>941.0</ele><time>2026-04-28T08:12:18Z</time></trkpt><trkpt lat="29.38253045927671" lon="-9.744284961708809"><ele>939.0</ele><time>2026-04-28T08:12:19Z</time></trkpt><trkpt lat="29.382235985372958" lon="-9.744409190407948"><ele>937.0</ele><time>2026-04-28T08:12:20Z</time></trkpt><trkpt lat="29.381934341737534" lon="-9.74453579505233"><ele>935.0</ele><time>2026-04-28T08:12:21Z</time></trkpt><trkpt lat="29.381630343685096" lon="-9.744666612299985"><ele>933.0</ele><time>2026-04-28T08:12:22Z</time></trkpt><trkpt lat="29.381328298865725" lon="-9.74479670103601"><ele>931.0</ele><time>2026-04-28T08:12:23Z</time></trkpt><trkpt lat="29.38103397307363" lon="-9.74492188471224"><ele>931.0</ele><time>2026-04-28T08:12:24Z</time></trkpt><trkpt lat="29.38074487397658" lon="-9.745044095438999"><ele>931.0</ele><time>2026-04-28T08:12:25Z</time></trkpt><trkpt lat="29.38046505350165" lon="-9.745165107240773"><ele>930.5</ele><time>2026-04-28T08:12:26Z</time></trkpt><trkpt lat="29.380188899331362" lon="-9.745284500178034"><ele>930.0</ele><time>2026-04-28T08:12:27Z</time></trkpt><trkpt lat="29.379919163824077" lon="-9.74540254501477"><ele>928.5</ele><time>2026-04-28T08:12:28Z</time></trkpt><trkpt lat="29.379652249961214" lon="-9.745520300269291"><ele>927.0</ele><time>2026-04-28T08:12:29Z</time></trkpt><trkpt lat="29.379387958088497" lon="-9.745638573390863"><ele>927.0</ele><time>2026-04-28T08:12:30Z</time></trkpt><trkpt lat="29.37912562516715" lon="-9.745755159393411"><ele>927.0</ele><time>2026-04-28T08:12:31Z</time></trkpt><trkpt lat="29.37886340556597" lon="-9.745867038818687"><ele>927.0</ele><time>2026-04-28T08:12:32Z</time></trkpt><trkpt lat="29.37859153567828" lon="-9.745983447989714"><ele>927.0</ele><time>2026-04-28T08:12:33Z</time></trkpt><trkpt lat="29.378316257749653" lon="-9.74610169143618"><ele>927.0</ele><time>2026-04-28T08:12:34Z</time></trkpt><trkpt lat="29.378036216523334" lon="-9.746219898371153"><ele>927.0</ele><time>2026-04-28T08:12:35Z</time></trkpt><trkpt lat="29.37776308041418" lon="-9.746336957668555"><ele>927.0</ele><time>2026-04-28T08:12:36Z</time></trkpt><trkpt lat="29.377492242072403" lon="-9.746451508509166"><ele>927.0</ele><time>2026-04-28T08:12:37Z</time></trkpt><trkpt lat="29.37722508008754" lon="-9.746565417839072"><ele>928.0</ele><time>2026-04-28T08:12:38Z</time></trkpt><trkpt lat="29.37695495766008" lon="-9.746681440572878"><ele>929.0</ele><time>2026-04-28T08:12:39Z</time></trkpt><trkpt lat="29.376689367833684" lon="-9.746795065685314"><ele>927.5</ele><time>2026-04-28T08:12:40Z</time></trkpt><trkpt lat="29.37642401504707" lon="-9.746906272899086"><ele>926.0</ele><time>2026-04-28T08:12:41Z</time></trkpt><trkpt lat="29.37616873170913" lon="-9.747014044978679"><ele>926.0</ele><time>2026-04-28T08:12:42Z</time></trkpt><trkpt lat="29.375926361956495" lon="-9.74711731086656"><ele>926.0</ele><time>2026-04-28T08:12:43Z</time></trkpt><trkpt lat="29.37568249032674" lon="-9.747221356386325"><ele>926.5</ele><time>2026-04-28T08:12:44Z</time></trkpt><trkpt lat="29.375443280750062" lon="-9.747325572089403"><ele>927.0</ele><time>2026-04-28T08:12:45Z</time></trkpt><trkpt lat="29.37521941014068" lon="-9.747443877493215"><ele>927.0</ele><time>2026-04-28T08:12:46Z</time></trkpt><trkpt lat="29.37500327910232" lon="-9.747535404315977"><ele>927.0</ele><time>2026-04-28T08:12:47Z</time></trkpt><trkpt lat="29.374801564769676" lon="-9.747621908599998"><ele>927.0</ele><time>2026-04-28T08:12:48Z</time></trkpt><trkpt lat="29.37459816695145" lon="-9.747689424416862"><ele>926.6666666666667</ele><time>2026-04-28T08:12:49Z</time></trkpt><trkpt lat="29.37441380959364" lon="-9.747772856365435"><ele>926.3333333333334</ele><time>2026-04-28T08:12:50Z</time></trkpt><trkpt lat="29.374233297218186" lon="-9.747850020145096"><ele>926.0</ele><time>2026-04-28T08:12:51Z</time></trkpt><trkpt lat="29.374063019601106" lon="-9.747924591743347"><ele>926.0</ele><time>2026-04-28T08:12:52Z</time></trkpt><trkpt lat="29.373899458891774" lon="-9.747996355528946"><ele>926.0</ele><time>2026-04-28T08:12:53Z</time></trkpt><trkpt lat="29.373738934525" lon="-9.748069121673852"><ele>926.0</ele><time>2026-04-28T08:12:54Z</time></trkpt><trkpt lat="29.373572127411038" lon="-9.748143053183519"><ele>925.6666666666667</ele><time>2026-04-28T08:12:55Z</time></trkpt><trkpt lat="29.37340264322771" lon="-9.7482157629047"><ele>925.3333333333333</ele><time>2026-04-28T08:12:56Z</time></trkpt><trkpt lat="29.37322694739854" lon="-9.748292460553087"><ele>925.0</ele><time>2026-04-28T08:12:57Z</time></trkpt><trkpt lat="29.37304482815002" lon="-9.7483692657408"><ele>925.0</ele><time>2026-04-28T08:12:58Z</time></trkpt><trkpt lat="29.37285327450757" lon="-9.748446152024323"><ele>925.0</ele><time>2026-04-28T08:12:59Z</time></trkpt><trkpt lat="29.372656239044904" lon="-9.74853029557344"><ele>925.0</ele><time>2026-04-28T08:13:00Z</time></trkpt><trkpt lat="29.372460865483603" lon="-9.748614517650191"><ele>924.6666666666666</ele><time>2026-04-28T08:13:01Z</time></trkpt><trkpt lat="29.372274512124534" lon="-9.748697845584086"><ele>924.3333333333333</ele><time>2026-04-28T08:13:02Z</time></trkpt><trkpt lat="29.372083950332378" lon="-9.748780673452423"><ele>924.0</ele><time>2026-04-28T08:13:03Z</time></trkpt><trkpt lat="29.37189520689602" lon="-9.748861223936926"><ele>924.0</ele><time>2026-04-28T08:13:04Z</time></trkpt><trkpt lat="29.371713259134697" lon="-9.748941295704123"><ele>924.0</ele><time>2026-04-28T08:13:05Z</time></trkpt><trkpt lat="29.371532670780432" lon="-9.749022232214017"><ele>924.0</ele><time>2026-04-28T08:13:06Z</time></trkpt><trkpt lat="29.37135047239462" lon="-9.749101854523056"><ele>924.6666666666667</ele><time>2026-04-28T08:13:07Z</time></trkpt><trkpt lat="29.371168554226568" lon="-9.749179833069531"><ele>925.3333333333334</ele><time>2026-04-28T08:13:08Z</time></trkpt><trkpt lat="29.37099202986288" lon="-9.749254936620282"><ele>926.0</ele><time>2026-04-28T08:13:09Z</time></trkpt><trkpt lat="29.37081657146073" lon="-9.749328910435887"><ele>925.0</ele><time>2026-04-28T08:13:10Z</time></trkpt><trkpt lat="29.37064128680652" lon="-9.749401242776642"><ele>924.0</ele><time>2026-04-28T08:13:11Z</time></trkpt><trkpt lat="29.370470308642172" lon="-9.749473323206521"><ele>923.0</ele><time>2026-04-28T08:13:12Z</time></trkpt><trkpt lat="29.370297129297782" lon="-9.749549166598936"><ele>923.0</ele><time>2026-04-28T08:13:13Z</time></trkpt><trkpt lat="29.370125182233235" lon="-9.749623862432822"><ele>923.0</ele><time>2026-04-28T08:13:14Z</time></trkpt><trkpt lat="29.36995812999421" lon="-9.749694068045276"><ele>923.0</ele><time>2026-04-28T08:13:15Z</time></trkpt><trkpt lat="29.36980561083953" lon="-9.749757086030852"><ele>923.75</ele><time>2026-04-28T08:13:16Z</time></trkpt><trkpt lat="29.369667795071408" lon="-9.749809952007537"><ele>924.5</ele><time>2026-04-28T08:13:17Z</time></trkpt><trkpt lat="29.369546172723226" lon="-9.749858160070659"><ele>925.25</ele><time>2026-04-28T08:13:18Z</time></trkpt><trkpt lat="29.369434997181525" lon="-9.749906601510874"><ele>926.0</ele><time>2026-04-28T08:13:19Z</time></trkpt><trkpt lat="29.369317978186917" lon="-9.749964855264228"><ele>926.0</ele><time>2026-04-28T08:13:20Z</time></trkpt><trkpt lat="29.369179664612304" lon="-9.750024350485598"><ele>926.0</ele><time>2026-04-28T08:13:21Z</time></trkpt><trkpt lat="29.369033350686507" lon="-9.750090370454952"><ele>926.0</ele><time>2026-04-28T08:13:22Z</time></trkpt><trkpt lat="29.368882774550716" lon="-9.75016073582925"><ele>923.6666666666667</ele><time>2026-04-28T08:13:23Z</time></trkpt><trkpt lat="29.36872450892374" lon="-9.750229854088268"><ele>921.3333333333333</ele><time>2026-04-28T08:13:24Z</time></trkpt><trkpt lat="29.36856366881397" lon="-9.750304397411085"><ele>919.0</ele><time>2026-04-28T08:13:25Z</time></trkpt><trkpt lat="29.36838715994295" lon="-9.750374295072508"><ele>919.0</ele><time>2026-04-28T08:13:26Z</time></trkpt><trkpt lat="29.36822691104369" lon="-9.750441432797057"><ele>919.0</ele><time>2026-04-28T08:13:27Z</time></trkpt><trkpt lat="29.368061931517303" lon="-9.750512240271142"><ele>919.0</ele><time>2026-04-28T08:13:28Z</time></trkpt><trkpt lat="29.367889307340278" lon="-9.750585657876783"><ele>919.6666666666666</ele><time>2026-04-28T08:13:29Z</time></trkpt><trkpt lat="29.3677117902441" lon="-9.750660359307124"><ele>920.3333333333333</ele><time>2026-04-28T08:13:30Z</time></trkpt><trkpt lat="29.367526101518088" lon="-9.750740031167075"><ele>921.0</ele><time>2026-04-28T08:13:31Z</time></trkpt><trkpt lat="29.36734033323709" lon="-9.750817492952864"><ele>921.3333333333333</ele><time>2026-04-28T08:13:32Z</time></trkpt><trkpt lat="29.367158643517737" lon="-9.750893086119438"><ele>921.6666666666666</ele><time>2026-04-28T08:13:33Z</time></trkpt><trkpt lat="29.366980269523395" lon="-9.750969991801684"><ele>922.0</ele><time>2026-04-28T08:13:34Z</time></trkpt><trkpt lat="29.36680567207932" lon="-9.751045006876389"><ele>922.0</ele><time>2026-04-28T08:13:35Z</time></trkpt><trkpt lat="29.366630198304982" lon="-9.751120388471598"><ele>922.0</ele><time>2026-04-28T08:13:36Z</time></trkpt><trkpt lat="29.366458515825048" lon="-9.751193559615746"><ele>922.0</ele><time>2026-04-28T08:13:37Z</time></trkpt><trkpt lat="29.366296075705392" lon="-9.751265905405553"><ele>922.0</ele><time>2026-04-28T08:13:38Z</time></trkpt><trkpt lat="29.366141596588015" lon="-9.75133228414454"><ele>922.0</ele><time>2026-04-28T08:13:39Z</time></trkpt><trkpt lat="29.36599353783024" lon="-9.751396632528008"><ele>922.0</ele><time>2026-04-28T08:13:40Z</time></trkpt><trkpt lat="29.365840995189167" lon="-9.751460833285842"><ele>922.0</ele><time>2026-04-28T08:13:41Z</time></trkpt><trkpt lat="29.365689702614517" lon="-9.751523652474406"><ele>922.0</ele><time>2026-04-28T08:13:42Z</time></trkpt><trkpt lat="29.365537833896894" lon="-9.75159189674197"><ele>922.0</ele><time>2026-04-28T08:13:43Z</time></trkpt><trkpt lat="29.365382344635563" lon="-9.751658872688408"><ele>922.6666666666666</ele><time>2026-04-28T08:13:44Z</time></trkpt><trkpt lat="29.365233268326527" lon="-9.751721772373376"><ele>923.3333333333333</ele><time>2026-04-28T08:13:45Z</time></trkpt><trkpt lat="29.36508101363692" lon="-9.751785478093455"><ele>924.0</ele><time>2026-04-28T08:13:46Z</time></trkpt><trkpt lat="29.364927514751628" lon="-9.751848554203836"><ele>923.0</ele><time>2026-04-28T08:13:47Z</time></trkpt><trkpt lat="29.364767787952353" lon="-9.751916268206646"><ele>922.0</ele><time>2026-04-28T08:13:48Z</time></trkpt><trkpt lat="29.364604881893232" lon="-9.75198488128541"><ele>921.0</ele><time>2026-04-28T08:13:49Z</time></trkpt><trkpt lat="29.364441741000135" lon="-9.752053545808673"><ele>920.6666666666667</ele><time>2026-04-28T08:13:50Z</time></trkpt><trkpt lat="29.36428040223726" lon="-9.752121053536483"><ele>920.3333333333334</ele><time>2026-04-28T08:13:51Z</time></trkpt><trkpt lat="29.364119460238502" lon="-9.752190278519777"><ele>920.0</ele><time>2026-04-28T08:13:52Z</time></trkpt><trkpt lat="29.363956267820036" lon="-9.752257626715519"><ele>920.3333333333334</ele><time>2026-04-28T08:13:53Z</time></trkpt><trkpt lat="29.363791494127582" lon="-9.752326269889627"><ele>920.6666666666667</ele><time>2026-04-28T08:13:54Z</time></trkpt><trkpt lat="29.363629111011246" lon="-9.752393972708756"><ele>921.0</ele><time>2026-04-28T08:13:55Z</time></trkpt><trkpt lat="29.363467881679757" lon="-9.75246237221773"><ele>921.0</ele><time>2026-04-28T08:13:56Z</time></trkpt><trkpt lat="29.36331356496591" lon="-9.75252766796802"><ele>921.0</ele><time>2026-04-28T08:13:57Z</time></trkpt><trkpt lat="29.363166946762224" lon="-9.752592421944694"><ele>921.0</ele><time>2026-04-28T08:13:58Z</time></trkpt><trkpt lat="29.363023135874002" lon="-9.752654153854895"><ele>920.25</ele><time>2026-04-28T08:13:59Z</time></trkpt><trkpt lat="29.362883000525102" lon="-9.752713157074952"><ele>919.5</ele><time>2026-04-28T08:14:00Z</time></trkpt><trkpt lat="29.36274940680466" lon="-9.75277126190959"><ele>918.75</ele><time>2026-04-28T08:14:01Z</time></trkpt><trkpt lat="29.36262589651951" lon="-9.7528262555968"><ele>918.0</ele><time>2026-04-28T08:14:02Z</time></trkpt><trkpt lat="29.362508508231926" lon="-9.752880901633176"><ele>918.0</ele><time>2026-04-28T08:14:03Z</time></trkpt><trkpt lat="29.362398864123307" lon="-9.752932363108677"><ele>918.0</ele><time>2026-04-28T08:14:04Z</time></trkpt><trkpt lat="29.362280117401365" lon="-9.752986832409515"><ele>918.0</ele><time>2026-04-28T08:14:05Z</time></trkpt><trkpt lat="29.362151999071944" lon="-9.753039392847397"><ele>918.0</ele><time>2026-04-28T08:14:06Z</time></trkpt><trkpt lat="29.3620188456391" lon="-9.753090018446015"><ele>918.25</ele><time>2026-04-28T08:14:07Z</time></trkpt><trkpt lat="29.361890962660247" lon="-9.753142380002338"><ele>918.5</ele><time>2026-04-28T08:14:08Z</time></trkpt><trkpt lat="29.361755772394076" lon="-9.753198044604508"><ele>918.75</ele><time>2026-04-28T08:14:09Z</time></trkpt><trkpt lat="29.361616213205902" lon="-9.753257442066209"><ele>919.0</ele><time>2026-04-28T08:14:10Z</time></trkpt><trkpt lat="29.361470883966994" lon="-9.753321123023944"><ele>920.3333333333333</ele><time>2026-04-28T08:14:11Z</time></trkpt><trkpt lat="29.361327347254054" lon="-9.753377744788946"><ele>921.6666666666667</ele><time>2026-04-28T08:14:12Z</time></trkpt><trkpt lat="29.36118541520031" lon="-9.753435628313554"><ele>923.0</ele><time>2026-04-28T08:14:13Z</time></trkpt><trkpt lat="29.36103848585782" lon="-9.753497346748727"><ele>920.6666666666667</ele><time>2026-04-28T08:14:14Z</time></trkpt><trkpt lat="29.360882272558793" lon="-9.753565261868703"><ele>918.3333333333333</ele><time>2026-04-28T08:14:15Z</time></trkpt><trkpt lat="29.360720027930952" lon="-9.753632958290863"><ele>916.0</ele><time>2026-04-28T08:14:16Z</time></trkpt><trkpt lat="29.36055009611275" lon="-9.753703875259864"><ele>917.6666666666666</ele><time>2026-04-28T08:14:17Z</time></trkpt><trkpt lat="29.360383318503196" lon="-9.753774071905251"><ele>919.3333333333333</ele><time>2026-04-28T08:14:18Z</time></trkpt><trkpt lat="29.360218839545652" lon="-9.753844689390876"><ele>921.0</ele><time>2026-04-28T08:14:19Z</time></trkpt><trkpt lat="29.36006640180449" lon="-9.753910403900752"><ele>921.0</ele><time>2026-04-28T08:14:20Z</time></trkpt><trkpt lat="29.359920859561793" lon="-9.753975114715974"><ele>921.0</ele><time>2026-04-28T08:14:21Z</time></trkpt><trkpt lat="29.35977927543827" lon="-9.754040522926482"><ele>921.0</ele><time>2026-04-28T08:14:22Z</time></trkpt><trkpt lat="29.359638281574004" lon="-9.754104496754852"><ele>921.25</ele><time>2026-04-28T08:14:23Z</time></trkpt><trkpt lat="29.359505067394256" lon="-9.7541640580383"><ele>921.5</ele><time>2026-04-28T08:14:24Z</time></trkpt><trkpt lat="29.359378639311466" lon="-9.754217325474423"><ele>921.75</ele><time>2026-04-28T08:14:25Z</time></trkpt><trkpt lat="29.35926090167929" lon="-9.754267986478315"><ele>922.0</ele><time>2026-04-28T08:14:26Z</time></trkpt><trkpt lat="29.359144578394808" lon="-9.754319967835357"><ele>922.0</ele><time>2026-04-28T08:14:27Z</time></trkpt><trkpt lat="29.35903581900711" lon="-9.75436600962357"><ele>922.0</ele><time>2026-04-28T08:14:28Z</time></trkpt><trkpt lat="29.358932184203912" lon="-9.754408708553607"><ele>922.0</ele><time>2026-04-28T08:14:29Z</time></trkpt><trkpt lat="29.358832372958496" lon="-9.754452252103667"><ele>922.0</ele><time>2026-04-28T08:14:30Z</time></trkpt><trkpt lat="29.358728369514594" lon="-9.75449921928806"><ele>922.0</ele><time>2026-04-28T08:14:31Z</time></trkpt><trkpt lat="29.358622131307563" lon="-9.754547645057599"><ele>921.0</ele><time>2026-04-28T08:14:32Z</time></trkpt><trkpt lat="29.35850866167566" lon="-9.754599727311998"><ele>920.0</ele><time>2026-04-28T08:14:33Z</time></trkpt><trkpt lat="29.358394405880365" lon="-9.754650170407496"><ele>919.0</ele><time>2026-04-28T08:14:34Z</time></trkpt><trkpt lat="29.358280235645864" lon="-9.754699878086264"><ele>918.0</ele><time>2026-04-28T08:14:35Z</time></trkpt><trkpt lat="29.358160768430263" lon="-9.754753648390134"><ele>918.0</ele><time>2026-04-28T08:14:36Z</time></trkpt><trkpt lat="29.35804102420756" lon="-9.75480002574099"><ele>918.0</ele><time>2026-04-28T08:14:37Z</time></trkpt><trkpt lat="29.357921654337524" lon="-9.754847117036372"><ele>918.0</ele><time>2026-04-28T08:14:38Z</time></trkpt><trkpt lat="29.35780250092544" lon="-9.754894057040373"><ele>918.0</ele><time>2026-04-28T08:14:39Z</time></trkpt><trkpt lat="29.357685254106705" lon="-9.754941809211546"><ele>918.0</ele><time>2026-04-28T08:14:40Z</time></trkpt><trkpt lat="29.357573964246544" lon="-9.754991300281555"><ele>918.0</ele><time>2026-04-28T08:14:41Z</time></trkpt><trkpt lat="29.35747039606985" lon="-9.755033908430581"><ele>918.0</ele><time>2026-04-28T08:14:42Z</time></trkpt><trkpt lat="29.35737308333104" lon="-9.755075650311987"><ele>918.0</ele><time>2026-04-28T08:14:43Z</time></trkpt><trkpt lat="29.357285984301786" lon="-9.755111188004342"><ele>918.0</ele><time>2026-04-28T08:14:44Z</time></trkpt><trkpt lat="29.357196592997195" lon="-9.755148752809244"><ele>918.0</ele><time>2026-04-28T08:14:45Z</time></trkpt><trkpt lat="29.357101315849707" lon="-9.755186628832414"><ele>918.0</ele><time>2026-04-28T08:14:46Z</time></trkpt><trkpt lat="29.35700494680365" lon="-9.755226596042094"><ele>918.0</ele><time>2026-04-28T08:14:47Z</time></trkpt><trkpt lat="29.356915678909946" lon="-9.755263294644545"><ele>918.0</ele><time>2026-04-28T08:14:48Z</time></trkpt><trkpt lat="29.35683501497553" lon="-9.755299261358847"><ele>918.0</ele><time>2026-04-28T08:14:49Z</time></trkpt><trkpt lat="29.356761992951643" lon="-9.755331159179912"><ele>918.0</ele><time>2026-04-28T08:14:50Z</time></trkpt><trkpt lat="29.35669574685017" lon="-9.755361703133717"><ele>918.0</ele><time>2026-04-28T08:14:51Z</time></trkpt><trkpt lat="29.356585305915548" lon="-9.7554039626119"><ele>918.0</ele><time>2026-04-28T08:14:53Z</time></trkpt><trkpt lat="29.356478683872872" lon="-9.755442687184683"><ele>918.0</ele><time>2026-04-28T08:14:55Z</time></trkpt><trkpt lat="29.356369511370783" lon="-9.755491734803325"><ele>918.0</ele><time>2026-04-28T08:14:57Z</time></trkpt><trkpt lat="29.35629922424884" lon="-9.755524504382553"><ele>918.0</ele><time>2026-04-28T08:14:58Z</time></trkpt><trkpt lat="29.356217701440936" lon="-9.755558556009122"><ele>918.0</ele><time>2026-04-28T08:14:59Z</time></trkpt><trkpt lat="29.356133820229132" lon="-9.755615917522396"><ele>918.0</ele><time>2026-04-28T08:15:00Z</time></trkpt><trkpt lat="29.356035820561548" lon="-9.75566079587339"><ele>918.0</ele><time>2026-04-28T08:15:01Z</time></trkpt><trkpt lat="29.355935439121613" lon="-9.755704216047484"><ele>918.0</ele><time>2026-04-28T08:15:02Z</time></trkpt><trkpt lat="29.355831069410016" lon="-9.755746655617372"><ele>918.0</ele><time>2026-04-28T08:15:03Z</time></trkpt><trkpt lat="29.35571749289737" lon="-9.755792838923048"><ele>918.0</ele><time>2026-04-28T08:15:04Z</time></trkpt><trkpt lat="29.355606270296203" lon="-9.755838065063305"><ele>918.0</ele><time>2026-04-28T08:15:05Z</time></trkpt><trkpt lat="29.355494299791086" lon="-9.755883834928564"><ele>918.0</ele><time>2026-04-28T08:15:06Z</time></trkpt><trkpt lat="29.35537835069741" lon="-9.75591125283797"><ele>919.5</ele><time>2026-04-28T08:15:07Z</time></trkpt><trkpt lat="29.35527097102155" lon="-9.755962448319616"><ele>921.0</ele><time>2026-04-28T08:15:08Z</time></trkpt><trkpt lat="29.35516781839236" lon="-9.75600862865902"><ele>922.5</ele><time>2026-04-28T08:15:09Z</time></trkpt><trkpt lat="29.35506319021573" lon="-9.756056306159289"><ele>924.0</ele><time>2026-04-28T08:15:10Z</time></trkpt><trkpt lat="29.354947879271315" lon="-9.756105289558867"><ele>924.5</ele><time>2026-04-28T08:15:11Z</time></trkpt><trkpt lat="29.35482810779735" lon="-9.7561561345755"><ele>925.0</ele><time>2026-04-28T08:15:12Z</time></trkpt><trkpt lat="29.354709326057527" lon="-9.756205674822084"><ele>925.5</ele><time>2026-04-28T08:15:13Z</time></trkpt><trkpt lat="29.3545790048444" lon="-9.75625871236424"><ele>926.0</ele><time>2026-04-28T08:15:14Z</time></trkpt><trkpt lat="29.35444406081822" lon="-9.756312416730484"><ele>926.0</ele><time>2026-04-28T08:15:15Z</time></trkpt><trkpt lat="29.354308796150143" lon="-9.756356323768271"><ele>926.0</ele><time>2026-04-28T08:15:16Z</time></trkpt><trkpt lat="29.354173084369346" lon="-9.756392642080332"><ele>926.0</ele><time>2026-04-28T08:15:17Z</time></trkpt><trkpt lat="29.354039331538996" lon="-9.756418367789978"><ele>926.0</ele><time>2026-04-28T08:15:18Z</time></trkpt><trkpt lat="29.353910669598896" lon="-9.75642766663444"><ele>925.5</ele><time>2026-04-28T08:15:19Z</time></trkpt><trkpt lat="29.353779164504154" lon="-9.756427949687902"><ele>925.0</ele><time>2026-04-28T08:15:20Z</time></trkpt><trkpt lat="29.353644955687766" lon="-9.756417320521898"><ele>924.5</ele><time>2026-04-28T08:15:21Z</time></trkpt><trkpt lat="29.353505566619937" lon="-9.756379644235235"><ele>924.0</ele><time>2026-04-28T08:15:22Z</time></trkpt><trkpt lat="29.353361776605205" lon="-9.756321516298113"><ele>924.0</ele><time>2026-04-28T08:15:23Z</time></trkpt><trkpt lat="29.353211988210184" lon="-9.75624154345214"><ele>924.0</ele><time>2026-04-28T08:15:24Z</time></trkpt><trkpt lat="29.35305317973858" lon="-9.756144795873414"><ele>924.0</ele><time>2026-04-28T08:15:25Z</time></trkpt><trkpt lat="29.352888002942557" lon="-9.756039496623508"><ele>924.0</ele><time>2026-04-28T08:15:26Z</time></trkpt><trkpt lat="29.35271389204859" lon="-9.755933996886737"><ele>924.0</ele><time>2026-04-28T08:15:27Z</time></trkpt><trkpt lat="29.352538119243654" lon="-9.75582602139471"><ele>924.0</ele><time>2026-04-28T08:15:28Z</time></trkpt><trkpt lat="29.352371474238563" lon="-9.755723268710828"><ele>924.0</ele><time>2026-04-28T08:15:29Z</time></trkpt><trkpt lat="29.35220698833118" lon="-9.755621303717593"><ele>924.0</ele><time>2026-04-28T08:15:30Z</time></trkpt><trkpt lat="29.35205000596491" lon="-9.755524130091901"><ele>924.0</ele><time>2026-04-28T08:15:31Z</time></trkpt><trkpt lat="29.35189412405007" lon="-9.755431549048714"><ele>925.3333333333333</ele><time>2026-04-28T08:15:32Z</time></trkpt><trkpt lat="29.35174024855124" lon="-9.755340814478982"><ele>926.6666666666666</ele><time>2026-04-28T08:15:33Z</time></trkpt><trkpt lat="29.351593766477833" lon="-9.755254755266408"><ele>928.0</ele><time>2026-04-28T08:15:34Z</time></trkpt><trkpt lat="29.351450962965615" lon="-9.755166833612988"><ele>929.0</ele><time>2026-04-28T08:15:35Z</time></trkpt><trkpt lat="29.35130876605606" lon="-9.755070864126798"><ele>930.0</ele><time>2026-04-28T08:15:36Z</time></trkpt><trkpt lat="29.351164383548532" lon="-9.754970321442068"><ele>931.0</ele><time>2026-04-28T08:15:37Z</time></trkpt><trkpt lat="29.35101952413599" lon="-9.754871429826553"><ele>931.0</ele><time>2026-04-28T08:15:38Z</time></trkpt><trkpt lat="29.350869478680874" lon="-9.754774891817679"><ele>931.0</ele><time>2026-04-28T08:15:39Z</time></trkpt><trkpt lat="29.350707157108964" lon="-9.754680341478565"><ele>931.0</ele><time>2026-04-28T08:15:40Z</time></trkpt><trkpt lat="29.35054143163309" lon="-9.754591561452807"><ele>931.0</ele><time>2026-04-28T08:15:41Z</time></trkpt><trkpt lat="29.35037247150265" lon="-9.754515628905148"><ele>931.0</ele><time>2026-04-28T08:15:42Z</time></trkpt><trkpt lat="29.350196221069044" lon="-9.754454211082958"><ele>931.0</ele><time>2026-04-28T08:15:43Z</time></trkpt><trkpt lat="29.350014493590425" lon="-9.75441297365682"><ele>931.0</ele><time>2026-04-28T08:15:44Z</time></trkpt><trkpt lat="29.349818497920484" lon="-9.754387178527477"><ele>931.0</ele><time>2026-04-28T08:15:45Z</time></trkpt><trkpt lat="29.349625462645673" lon="-9.754400413581136"><ele>931.0</ele><time>2026-04-28T08:15:46Z</time></trkpt><trkpt lat="29.349435333755135" lon="-9.754380246056563"><ele>930.6666666666666</ele><time>2026-04-28T08:15:47Z</time></trkpt><trkpt lat="29.34924328906072" lon="-9.754379476106385"><ele>930.3333333333333</ele><time>2026-04-28T08:15:48Z</time></trkpt><trkpt lat="29.349049009306004" lon="-9.754374685733232"><ele>930.0</ele><time>2026-04-28T08:15:49Z</time></trkpt><trkpt lat="29.348853906173595" lon="-9.754370427973615"><ele>932.6666666666667</ele><time>2026-04-28T08:15:50Z</time></trkpt><trkpt lat="29.348661242045527" lon="-9.754368093923597"><ele>935.3333333333334</ele><time>2026-04-28T08:15:51Z</time></trkpt><trkpt lat="29.34846742642509" lon="-9.754364887192773"><ele>938.0</ele><time>2026-04-28T08:15:52Z</time></trkpt><trkpt lat="29.348271057394992" lon="-9.754362146003393"><ele>938.0</ele><time>2026-04-28T08:15:53Z</time></trkpt><trkpt lat="29.34807072911229" lon="-9.75436057564554"><ele>938.0</ele><time>2026-04-28T08:15:54Z</time></trkpt><trkpt lat="29.347870864754857" lon="-9.754360790409084"><ele>938.0</ele><time>2026-04-28T08:15:55Z</time></trkpt><trkpt lat="29.347670199792127" lon="-9.7543591216138"><ele>939.3333333333334</ele><time>2026-04-28T08:15:56Z</time></trkpt><trkpt lat="29.347468161850756" lon="-9.754355116430961"><ele>940.6666666666667</ele><time>2026-04-28T08:15:57Z</time></trkpt><trkpt lat="29.347270349448294" lon="-9.75434800582247"><ele>942.0</ele><time>2026-04-28T08:15:58Z</time></trkpt><trkpt lat="29.347082936475488" lon="-9.754338998358142"><ele>942.6666666666667</ele><time>2026-04-28T08:15:59Z</time></trkpt><trkpt lat="29.34691075399872" lon="-9.754325235370223"><ele>943.3333333333334</ele><time>2026-04-28T08:16:00Z</time></trkpt><trkpt lat="29.34673799391342" lon="-9.754302765189275"><ele>944.0</ele><time>2026-04-28T08:16:01Z</time></trkpt><trkpt lat="29.346561534663948" lon="-9.754259581857735"><ele>944.0</ele><time>2026-04-28T08:16:02Z</time></trkpt><trkpt lat="29.34638009026551" lon="-9.754199175785534"><ele>944.0</ele><time>2026-04-28T08:16:03Z</time></trkpt><trkpt lat="29.346189054953236" lon="-9.754112612497467"><ele>944.0</ele><time>2026-04-28T08:16:04Z</time></trkpt><trkpt lat="29.345988057169766" lon="-9.75401829334665"><ele>943.0</ele><time>2026-04-28T08:16:05Z</time></trkpt><trkpt lat="29.345764860155562" lon="-9.753911788922023"><ele>942.0</ele><time>2026-04-28T08:16:06Z</time></trkpt><trkpt lat="29.345516778919443" lon="-9.753797433437486"><ele>941.5</ele><time>2026-04-28T08:16:07Z</time></trkpt><trkpt lat="29.345252601867656" lon="-9.753675521443654"><ele>941.0</ele><time>2026-04-28T08:16:08Z</time></trkpt><trkpt lat="29.344968802264788" lon="-9.753540725459619"><ele>943.5</ele><time>2026-04-28T08:16:09Z</time></trkpt><trkpt lat="29.34468035020529" lon="-9.753402834512618"><ele>946.0</ele><time>2026-04-28T08:16:10Z</time></trkpt><trkpt lat="29.344421173089344" lon="-9.753278309604147"><ele>946.0</ele><time>2026-04-28T08:16:11Z</time></trkpt><trkpt lat="29.344179906528673" lon="-9.753161403026654"><ele>946.0</ele><time>2026-04-28T08:16:12Z</time></trkpt><trkpt lat="29.343949623625598" lon="-9.753050078423263"><ele>949.5</ele><time>2026-04-28T08:16:13Z</time></trkpt><trkpt lat="29.343732370384483" lon="-9.752944899439562"><ele>953.0</ele><time>2026-04-28T08:16:14Z</time></trkpt><trkpt lat="29.34352705349694" lon="-9.75284604371547"><ele>953.0</ele><time>2026-04-28T08:16:15Z</time></trkpt><trkpt lat="29.34333110048017" lon="-9.752752446218919"><ele>953.0</ele><time>2026-04-28T08:16:16Z</time></trkpt><trkpt lat="29.343142443912047" lon="-9.752661644546864"><ele>953.0</ele><time>2026-04-28T08:16:17Z</time></trkpt><trkpt lat="29.342954174390204" lon="-9.75257060615758"><ele>954.3333333333334</ele><time>2026-04-28T08:16:18Z</time></trkpt><trkpt lat="29.342766330968626" lon="-9.752480744447851"><ele>955.6666666666667</ele><time>2026-04-28T08:16:19Z</time></trkpt><trkpt lat="29.34257355201884" lon="-9.752388511285485"><ele>957.0</ele><time>2026-04-28T08:16:20Z</time></trkpt><trkpt lat="29.34237005763267" lon="-9.752291139593982"><ele>960.3333333333333</ele><time>2026-04-28T08:16:21Z</time></trkpt><trkpt lat="29.342162064201762" lon="-9.752192974743178"><ele>963.6666666666666</ele><time>2026-04-28T08:16:22Z</time></trkpt><trkpt lat="29.341960607539573" lon="-9.752103222573721"><ele>967.0</ele><time>2026-04-28T08:16:23Z</time></trkpt><trkpt lat="29.341764562309656" lon="-9.752022381276769"><ele>967.0</ele><time>2026-04-28T08:16:24Z</time></trkpt><trkpt lat="29.34156620146838" lon="-9.751953158263266"><ele>967.0</ele><time>2026-04-28T08:16:25Z</time></trkpt><trkpt lat="29.341361314871854" lon="-9.751901493094808"><ele>967.0</ele><time>2026-04-28T08:16:26Z</time></trkpt><trkpt lat="29.34115411599056" lon="-9.751870989766678"><ele>966.3333333333333</ele><time>2026-04-28T08:16:27Z</time></trkpt><trkpt lat="29.340937180953734" lon="-9.751879495741804"><ele>965.6666666666667</ele><time>2026-04-28T08:16:28Z</time></trkpt><trkpt lat="29.340714154368204" lon="-9.751877021765115"><ele>965.0</ele><time>2026-04-28T08:16:29Z</time></trkpt><trkpt lat="29.340483038600475" lon="-9.751880200816498"><ele>961.5</ele><time>2026-04-28T08:16:30Z</time></trkpt><trkpt lat="29.340251331052226" lon="-9.7518869303701"><ele>958.0</ele><time>2026-04-28T08:16:31Z</time></trkpt><trkpt lat="29.340024869003045" lon="-9.751875283375332"><ele>958.0</ele><time>2026-04-28T08:16:32Z</time></trkpt><trkpt lat="29.33980539508127" lon="-9.751884995003492"><ele>958.0</ele><time>2026-04-28T08:16:33Z</time></trkpt><trkpt lat="29.33958523856464" lon="-9.751894918585279"><ele>958.0</ele><time>2026-04-28T08:16:34Z</time></trkpt><trkpt lat="29.339366325002278" lon="-9.751902456267716"><ele>958.3333333333333</ele><time>2026-04-28T08:16:35Z</time></trkpt><trkpt lat="29.339148662447066" lon="-9.751906701835725"><ele>958.6666666666667</ele><time>2026-04-28T08:16:36Z</time></trkpt><trkpt lat="29.338933117345185" lon="-9.751910760038879"><ele>959.0</ele><time>2026-04-28T08:16:37Z</time></trkpt><trkpt lat="29.33872210104337" lon="-9.751917067180171"><ele>959.3333333333334</ele><time>2026-04-28T08:16:38Z</time></trkpt><trkpt lat="29.33851618151673" lon="-9.75194051364606"><ele>959.6666666666667</ele><time>2026-04-28T08:16:39Z</time></trkpt><trkpt lat="29.338323766608433" lon="-9.751924015740457"><ele>960.0</ele><time>2026-04-28T08:16:40Z</time></trkpt><trkpt lat="29.33814510805012" lon="-9.75192218537534"><ele>961.0</ele><time>2026-04-28T08:16:41Z</time></trkpt><trkpt lat="29.337977723921654" lon="-9.751911322325226"><ele>962.0</ele><time>2026-04-28T08:16:42Z</time></trkpt><trkpt lat="29.337817234633555" lon="-9.751884649437713"><ele>963.0</ele><time>2026-04-28T08:16:43Z</time></trkpt><trkpt lat="29.337660386591406" lon="-9.751837257557115"><ele>964.0</ele><time>2026-04-28T08:16:44Z</time></trkpt><trkpt lat="29.337507463291715" lon="-9.751771384582195"><ele>965.0</ele><time>2026-04-28T08:16:45Z</time></trkpt><trkpt lat="29.337363685139422" lon="-9.751684912866805"><ele>966.0</ele><time>2026-04-28T08:16:46Z</time></trkpt><trkpt lat="29.33722513551612" lon="-9.751578885982736"><ele>966.6666666666667</ele><time>2026-04-28T08:16:47Z</time></trkpt><trkpt lat="29.33708852856464" lon="-9.75146171164839"><ele>967.3333333333334</ele><time>2026-04-28T08:16:48Z</time></trkpt><trkpt lat="29.33694651637152" lon="-9.751330482251428"><ele>968.0</ele><time>2026-04-28T08:16:49Z</time></trkpt><trkpt lat="29.336796020901478" lon="-9.751186210969093"><ele>969.0</ele><time>2026-04-28T08:16:50Z</time></trkpt><trkpt lat="29.336640035175712" lon="-9.751037374232123"><ele>970.0</ele><time>2026-04-28T08:16:51Z</time></trkpt><trkpt lat="29.33648218118753" lon="-9.750888541188734"><ele>971.0</ele><time>2026-04-28T08:16:52Z</time></trkpt><trkpt lat="29.336318515233533" lon="-9.750735723475657"><ele>972.0</ele><time>2026-04-28T08:16:53Z</time></trkpt><trkpt lat="29.336156963489067" lon="-9.750586849131281"><ele>973.0</ele><time>2026-04-28T08:16:54Z</time></trkpt><trkpt lat="29.336003455832724" lon="-9.75044582966103"><ele>974.0</ele><time>2026-04-28T08:16:55Z</time></trkpt><trkpt lat="29.335855699741092" lon="-9.750311236048882"><ele>974.3333333333334</ele><time>2026-04-28T08:16:56Z</time></trkpt><trkpt lat="29.3357110405455" lon="-9.7501794163842"><ele>974.6666666666667</ele><time>2026-04-28T08:16:57Z</time></trkpt><trkpt lat="29.33556294967" lon="-9.750056469015078"><ele>975.0</ele><time>2026-04-28T08:16:58Z</time></trkpt><trkpt lat="29.335412468393635" lon="-9.749956101762852"><ele>976.0</ele><time>2026-04-28T08:16:59Z</time></trkpt><trkpt lat="29.335259113027043" lon="-9.749881783365215"><ele>977.0</ele><time>2026-04-28T08:17:00Z</time></trkpt><trkpt lat="29.335096503857926" lon="-9.749826261008206"><ele>978.0</ele><time>2026-04-28T08:17:01Z</time></trkpt><trkpt lat="29.334926915506216" lon="-9.74978579057791"><ele>978.0</ele><time>2026-04-28T08:17:02Z</time></trkpt><trkpt lat="29.334753124445058" lon="-9.749758948417485"><ele>978.0</ele><time>2026-04-28T08:17:03Z</time></trkpt><trkpt lat="29.33457883387965" lon="-9.749753417300857"><ele>978.0</ele><time>2026-04-28T08:17:04Z</time></trkpt><trkpt lat="29.33440331657772" lon="-9.749766547832479"><ele>978.3333333333333</ele><time>2026-04-28T08:17:05Z</time></trkpt><trkpt lat="29.334221570602253" lon="-9.749796476278414"><ele>978.6666666666666</ele><time>2026-04-28T08:17:06Z</time></trkpt><trkpt lat="29.334025638807578" lon="-9.749835286744192"><ele>979.0</ele><time>2026-04-28T08:17:07Z</time></trkpt><trkpt lat="29.333820821649315" lon="-9.749874779016631"><ele>978.0</ele><time>2026-04-28T08:17:08Z</time></trkpt><trkpt lat="29.333598916713107" lon="-9.749914947687314"><ele>977.0</ele><time>2026-04-28T08:17:09Z</time></trkpt><trkpt lat="29.333372166013945" lon="-9.749958125546158"><ele>977.0</ele><time>2026-04-28T08:17:10Z</time></trkpt><trkpt lat="29.33313911680642" lon="-9.750002741316983"><ele>977.0</ele><time>2026-04-28T08:17:11Z</time></trkpt><trkpt lat="29.332916048070484" lon="-9.750043324292829"><ele>977.0</ele><time>2026-04-28T08:17:12Z</time></trkpt><trkpt lat="29.33268983795679" lon="-9.750082337364134"><ele>977.0</ele><time>2026-04-28T08:17:13Z</time></trkpt><trkpt lat="29.33245725817254" lon="-9.750123198621594"><ele>977.0</ele><time>2026-04-28T08:17:14Z</time></trkpt><trkpt lat="29.332216106853753" lon="-9.75016661673771"><ele>977.0</ele><time>2026-04-28T08:17:15Z</time></trkpt><trkpt lat="29.331974991484362" lon="-9.750210043070958"><ele>975.5</ele><time>2026-04-28T08:17:16Z</time></trkpt><trkpt lat="29.331726347404736" lon="-9.750254663817989"><ele>974.0</ele><time>2026-04-28T08:17:17Z</time></trkpt><trkpt lat="29.331473390686746" lon="-9.75030283885812"><ele>973.5</ele><time>2026-04-28T08:17:18Z</time></trkpt><trkpt lat="29.33121295792696" lon="-9.750353890958282"><ele>973.0</ele><time>2026-04-28T08:17:19Z</time></trkpt><trkpt lat="29.330946860882367" lon="-9.750404715929838"><ele>973.0</ele><time>2026-04-28T08:17:20Z</time></trkpt><trkpt lat="29.330679094487525" lon="-9.750455830877177"><ele>973.0</ele><time>2026-04-28T08:17:21Z</time></trkpt><trkpt lat="29.33041204194982" lon="-9.750505053279895"><ele>972.5</ele><time>2026-04-28T08:17:22Z</time></trkpt><trkpt lat="29.33014539772365" lon="-9.75055390029084"><ele>972.0</ele><time>2026-04-28T08:17:23Z</time></trkpt><trkpt lat="29.32987849070353" lon="-9.75060447212344"><ele>971.5</ele><time>2026-04-28T08:17:24Z</time></trkpt><trkpt lat="29.329614634809705" lon="-9.750655061927262"><ele>971.0</ele><time>2026-04-28T08:17:25Z</time></trkpt><trkpt lat="29.329351300136338" lon="-9.750704323693842"><ele>971.0</ele><time>2026-04-28T08:17:26Z</time></trkpt><trkpt lat="29.329093790474396" lon="-9.750752410066195"><ele>971.0</ele><time>2026-04-28T08:17:27Z</time></trkpt><trkpt lat="29.328836867124455" lon="-9.750799168318917"><ele>971.5</ele><time>2026-04-28T08:17:28Z</time></trkpt><trkpt lat="29.328580453788422" lon="-9.75084495050086"><ele>972.0</ele><time>2026-04-28T08:17:29Z</time></trkpt><trkpt lat="29.32832833613049" lon="-9.750888610429511"><ele>972.0</ele><time>2026-04-28T08:17:30Z</time></trkpt><trkpt lat="29.328076323160793" lon="-9.750934651960888"><ele>972.0</ele><time>2026-04-28T08:17:31Z</time></trkpt><trkpt lat="29.327826564537304" lon="-9.750980253298913"><ele>972.0</ele><time>2026-04-28T08:17:32Z</time></trkpt><trkpt lat="29.32757285388698" lon="-9.751026365732146"><ele>972.0</ele><time>2026-04-28T08:17:33Z</time></trkpt><trkpt lat="29.327322137878117" lon="-9.751069587426919"><ele>971.5</ele><time>2026-04-28T08:17:34Z</time></trkpt><trkpt lat="29.327068879063216" lon="-9.751114837895475"><ele>971.0</ele><time>2026-04-28T08:17:35Z</time></trkpt><trkpt lat="29.326818615446335" lon="-9.75116005811909"><ele>971.0</ele><time>2026-04-28T08:17:36Z</time></trkpt><trkpt lat="29.326567029658325" lon="-9.751206590208024"><ele>971.0</ele><time>2026-04-28T08:17:37Z</time></trkpt><trkpt lat="29.326322270659283" lon="-9.75125059360975"><ele>974.0</ele><time>2026-04-28T08:17:38Z</time></trkpt><trkpt lat="29.32607784319075" lon="-9.751295105086404"><ele>977.0</ele><time>2026-04-28T08:17:39Z</time></trkpt><trkpt lat="29.3258346146771" lon="-9.751339320396646"><ele>977.0</ele><time>2026-04-28T08:17:40Z</time></trkpt><trkpt lat="29.325599493194535" lon="-9.751384291334492"><ele>977.0</ele><time>2026-04-28T08:17:41Z</time></trkpt><trkpt lat="29.32536644322075" lon="-9.751426410900063"><ele>977.0</ele><time>2026-04-28T08:17:42Z</time></trkpt><trkpt lat="29.325130750279587" lon="-9.751468507432298"><ele>977.0</ele><time>2026-04-28T08:17:43Z</time></trkpt><trkpt lat="29.324900367485977" lon="-9.751508326071345"><ele>977.0</ele><time>2026-04-28T08:17:44Z</time></trkpt><trkpt lat="29.324681863533694" lon="-9.751548386204073"><ele>977.0</ele><time>2026-04-28T08:17:45Z</time></trkpt><trkpt lat="29.324477623742315" lon="-9.751589305448976"><ele>977.0</ele><time>2026-04-28T08:17:46Z</time></trkpt><trkpt lat="29.324282299058506" lon="-9.751621812393727"><ele>977.0</ele><time>2026-04-28T08:17:47Z</time></trkpt><trkpt lat="29.32408447153776" lon="-9.751645835806057"><ele>977.0</ele><time>2026-04-28T08:17:48Z</time></trkpt><trkpt lat="29.323870104184696" lon="-9.751664069573694"><ele>977.0</ele><time>2026-04-28T08:17:49Z</time></trkpt><trkpt lat="29.323642342231913" lon="-9.751673703852076"><ele>975.5</ele><time>2026-04-28T08:17:50Z</time></trkpt><trkpt lat="29.32339937156541" lon="-9.751676807328295"><ele>974.0</ele><time>2026-04-28T08:17:51Z</time></trkpt><trkpt lat="29.32314837701271" lon="-9.751675717939381"><ele>973.0</ele><time>2026-04-28T08:17:52Z</time></trkpt><trkpt lat="29.322897605023236" lon="-9.751673102066828"><ele>972.0</ele><time>2026-04-28T08:17:53Z</time></trkpt><trkpt lat="29.322645437044702" lon="-9.751671434019155"><ele>972.0</ele><time>2026-04-28T08:17:54Z</time></trkpt><trkpt lat="29.32238905289701" lon="-9.751671944516557"><ele>972.0</ele><time>2026-04-28T08:17:55Z</time></trkpt><trkpt lat="29.322134082054454" lon="-9.751672166866838"><ele>972.0</ele><time>2026-04-28T08:17:56Z</time></trkpt><trkpt lat="29.321880321923373" lon="-9.751671146962089"><ele>972.0</ele><time>2026-04-28T08:17:57Z</time></trkpt><trkpt lat="29.321628285919108" lon="-9.751670019840885"><ele>972.0</ele><time>2026-04-28T08:17:58Z</time></trkpt><trkpt lat="29.321375072829255" lon="-9.751669333892814"><ele>972.0</ele><time>2026-04-28T08:17:59Z</time></trkpt><trkpt lat="29.32112148039224" lon="-9.751668753422818"><ele>972.0</ele><time>2026-04-28T08:18:00Z</time></trkpt><trkpt lat="29.320869582144287" lon="-9.751668364778842"><ele>972.0</ele><time>2026-04-28T08:18:01Z</time></trkpt><trkpt lat="29.32062142142173" lon="-9.751668125208907"><ele>971.5</ele><time>2026-04-28T08:18:02Z</time></trkpt><trkpt lat="29.320378313789423" lon="-9.751666777381628"><ele>971.0</ele><time>2026-04-28T08:18:03Z</time></trkpt><trkpt lat="29.320137836999123" lon="-9.751664866359361"><ele>971.0</ele><time>2026-04-28T08:18:04Z</time></trkpt><trkpt lat="29.319902633184313" lon="-9.751662855696452"><ele>971.0</ele><time>2026-04-28T08:18:05Z</time></trkpt><trkpt lat="29.31967144809607" lon="-9.75166229193732"><ele>970.5</ele><time>2026-04-28T08:18:06Z</time></trkpt><trkpt lat="29.31944091486428" lon="-9.751661916904352"><ele>970.0</ele><time>2026-04-28T08:18:07Z</time></trkpt><trkpt lat="29.319213624566217" lon="-9.751661617701023"><ele>970.0</ele><time>2026-04-28T08:18:08Z</time></trkpt><trkpt lat="29.318986413884275" lon="-9.75166139134427"><ele>970.0</ele><time>2026-04-28T08:18:09Z</time></trkpt><trkpt lat="29.318759702632537" lon="-9.751661517939864"><ele>970.5</ele><time>2026-04-28T08:18:10Z</time></trkpt><trkpt lat="29.31853222930626" lon="-9.751662882198287"><ele>971.0</ele><time>2026-04-28T08:18:11Z</time></trkpt><trkpt lat="29.31830535950433" lon="-9.751662620127147"><ele>971.0</ele><time>2026-04-28T08:18:12Z</time></trkpt><trkpt lat="29.318079780985915" lon="-9.751661937944773"><ele>971.0</ele><time>2026-04-28T08:18:13Z</time></trkpt><trkpt lat="29.317852399455163" lon="-9.751660433505315"><ele>972.3333333333334</ele><time>2026-04-28T08:18:14Z</time></trkpt><trkpt lat="29.317625398699782" lon="-9.751659613810142"><ele>973.6666666666667</ele><time>2026-04-28T08:18:15Z</time></trkpt><trkpt lat="29.31740672981227" lon="-9.751657574510672"><ele>975.0</ele><time>2026-04-28T08:18:16Z</time></trkpt><trkpt lat="29.317192627788245" lon="-9.751654620335804"><ele>975.6666666666667</ele><time>2026-04-28T08:18:17Z</time></trkpt><trkpt lat="29.31697944169208" lon="-9.751652223805877"><ele>976.3333333333334</ele><time>2026-04-28T08:18:18Z</time></trkpt><trkpt lat="29.316766348644588" lon="-9.751653308947693"><ele>977.0</ele><time>2026-04-28T08:18:19Z</time></trkpt><trkpt lat="29.31654712695744" lon="-9.751656626551066"><ele>975.3333333333334</ele><time>2026-04-28T08:18:20Z</time></trkpt><trkpt lat="29.316326538935133" lon="-9.751657447526576"><ele>973.6666666666667</ele><time>2026-04-28T08:18:21Z</time></trkpt><trkpt lat="29.316105830104334" lon="-9.751655411237651"><ele>972.0</ele><time>2026-04-28T08:18:22Z</time></trkpt><trkpt lat="29.315884135012574" lon="-9.751652252362762"><ele>972.0</ele><time>2026-04-28T08:18:23Z</time></trkpt><trkpt lat="29.315661422276484" lon="-9.751651509548052"><ele>972.0</ele><time>2026-04-28T08:18:24Z</time></trkpt><trkpt lat="29.31543648920499" lon="-9.751652261521953"><ele>972.0</ele><time>2026-04-28T08:18:25Z</time></trkpt><trkpt lat="29.3152088882272" lon="-9.751652770142453"><ele>971.0</ele><time>2026-04-28T08:18:26Z</time></trkpt><trkpt lat="29.314979130060745" lon="-9.751649899969761"><ele>970.0</ele><time>2026-04-28T08:18:27Z</time></trkpt><trkpt lat="29.31475099280249" lon="-9.751647297691708"><ele>969.5</ele><time>2026-04-28T08:18:28Z</time></trkpt><trkpt lat="29.31452256168501" lon="-9.75164681882083"><ele>969.0</ele><time>2026-04-28T08:18:29Z</time></trkpt><trkpt lat="29.31429231005901" lon="-9.75164649447597"><ele>969.0</ele><time>2026-04-28T08:18:30Z</time></trkpt><trkpt lat="29.314064210826125" lon="-9.751646854641157"><ele>969.0</ele><time>2026-04-28T08:18:31Z</time></trkpt><trkpt lat="29.313834264401354" lon="-9.751646167858937"><ele>969.0</ele><time>2026-04-28T08:18:32Z</time></trkpt><trkpt lat="29.31360275508892" lon="-9.751645311471394"><ele>969.0</ele><time>2026-04-28T08:18:33Z</time></trkpt><trkpt lat="29.31337346760263" lon="-9.75164358727887"><ele>969.0</ele><time>2026-04-28T08:18:34Z</time></trkpt><trkpt lat="29.313143666203107" lon="-9.751643991499877"><ele>969.0</ele><time>2026-04-28T08:18:35Z</time></trkpt><trkpt lat="29.31291414729258" lon="-9.751644043048117"><ele>969.5</ele><time>2026-04-28T08:18:36Z</time></trkpt><trkpt lat="29.312684532868012" lon="-9.75164435137831"><ele>970.0</ele><time>2026-04-28T08:18:37Z</time></trkpt><trkpt lat="29.312458974752914" lon="-9.751643111469248"><ele>971.5</ele><time>2026-04-28T08:18:38Z</time></trkpt><trkpt lat="29.31223044911241" lon="-9.751642426850855"><ele>973.0</ele><time>2026-04-28T08:18:39Z</time></trkpt><trkpt lat="29.312007658221656" lon="-9.751642716163218"><ele>973.0</ele><time>2026-04-28T08:18:40Z</time></trkpt><trkpt lat="29.311785568250055" lon="-9.751643194904053"><ele>973.0</ele><time>2026-04-28T08:18:41Z</time></trkpt><trkpt lat="29.311568386471293" lon="-9.751642570390976"><ele>973.0</ele><time>2026-04-28T08:18:42Z</time></trkpt><trkpt lat="29.31135292503015" lon="-9.751640614077436"><ele>974.6666666666666</ele><time>2026-04-28T08:18:43Z</time></trkpt><trkpt lat="29.311141747631506" lon="-9.751637705184738"><ele>976.3333333333333</ele><time>2026-04-28T08:18:44Z</time></trkpt><trkpt lat="29.310941158726664" lon="-9.751637752957967"><ele>978.0</ele><time>2026-04-28T08:18:45Z</time></trkpt><trkpt lat="29.310752501097813" lon="-9.751635056788919"><ele>978.0</ele><time>2026-04-28T08:18:46Z</time></trkpt><trkpt lat="29.310577759711293" lon="-9.751629832407184"><ele>978.0</ele><time>2026-04-28T08:18:47Z</time></trkpt><trkpt lat="29.31041519690007" lon="-9.751624010509437"><ele>978.0</ele><time>2026-04-28T08:18:48Z</time></trkpt><trkpt lat="29.31026856272653" lon="-9.751613376712504"><ele>979.0</ele><time>2026-04-28T08:18:49Z</time></trkpt><trkpt lat="29.310137847012495" lon="-9.751589922770457"><ele>980.0</ele><time>2026-04-28T08:18:50Z</time></trkpt><trkpt lat="29.31002716206521" lon="-9.751551712446199"><ele>981.0</ele><time>2026-04-28T08:18:51Z</time></trkpt><trkpt lat="29.309931404070902" lon="-9.751497564314246"><ele>982.0</ele><time>2026-04-28T08:18:52Z</time></trkpt><trkpt lat="29.309841598295126" lon="-9.751427078489929"><ele>982.0</ele><time>2026-04-28T08:18:53Z</time></trkpt><trkpt lat="29.309759490839525" lon="-9.751332367554427"><ele>982.0</ele><time>2026-04-28T08:18:54Z</time></trkpt><trkpt lat="29.309681216283717" lon="-9.751226268209798"><ele>982.0</ele><time>2026-04-28T08:18:55Z</time></trkpt><trkpt lat="29.309613638889136" lon="-9.751105239038104"><ele>982.0</ele><time>2026-04-28T08:18:56Z</time></trkpt><trkpt lat="29.30955572206492" lon="-9.750964419856565"><ele>984.0</ele><time>2026-04-28T08:18:57Z</time></trkpt><trkpt lat="29.30950975953852" lon="-9.750805291948472"><ele>986.0</ele><time>2026-04-28T08:18:58Z</time></trkpt><trkpt lat="29.309458210575013" lon="-9.750639143556743"><ele>988.0</ele><time>2026-04-28T08:18:59Z</time></trkpt><trkpt lat="29.30942848026548" lon="-9.750443034281203"><ele>988.0</ele><time>2026-04-28T08:19:00Z</time></trkpt><trkpt lat="29.309409931469915" lon="-9.750229231494478"><ele>988.0</ele><time>2026-04-28T08:19:01Z</time></trkpt><trkpt lat="29.309400417825735" lon="-9.750002092722314"><ele>988.0</ele><time>2026-04-28T08:19:02Z</time></trkpt><trkpt lat="29.309394607201373" lon="-9.74977525706482"><ele>990.6666666666666</ele><time>2026-04-28T08:19:03Z</time></trkpt><trkpt lat="29.309390749481675" lon="-9.749561930217164"><ele>993.3333333333333</ele><time>2026-04-28T08:19:04Z</time></trkpt><trkpt lat="29.309382602485744" lon="-9.749365328876914"><ele>996.0</ele><time>2026-04-28T08:19:05Z</time></trkpt><trkpt lat="29.309361215827895" lon="-9.74918308804985"><ele>996.6666666666667</ele><time>2026-04-28T08:19:06Z</time></trkpt><trkpt lat="29.309320989900524" lon="-9.749013941643906"><ele>997.3333333333334</ele><time>2026-04-28T08:19:07Z</time></trkpt><trkpt lat="29.3092625393271" lon="-9.748847807876363"><ele>998.0</ele><time>2026-04-28T08:19:08Z</time></trkpt><trkpt lat="29.30919645501679" lon="-9.748676491443904"><ele>999.3333333333334</ele><time>2026-04-28T08:19:09Z</time></trkpt><trkpt lat="29.309141873749216" lon="-9.748502854729042"><ele>1000.6666666666667</ele><time>2026-04-28T08:19:10Z</time></trkpt><trkpt lat="29.309120217784812" lon="-9.748324119521913"><ele>1002.0</ele><time>2026-04-28T08:19:11Z</time></trkpt><trkpt lat="29.30907276613491" lon="-9.748129642102558"><ele>1002.0</ele><time>2026-04-28T08:19:12Z</time></trkpt><trkpt lat="29.309079420139824" lon="-9.747903697732891"><ele>1002.0</ele><time>2026-04-28T08:19:13Z</time></trkpt><trkpt lat="29.309065829028164" lon="-9.747659646177533"><ele>1002.0</ele><time>2026-04-28T08:19:14Z</time></trkpt><trkpt lat="29.309050755843522" lon="-9.747420447407384"><ele>1002.6666666666667</ele><time>2026-04-28T08:19:15Z</time></trkpt><trkpt lat="29.30903665174089" lon="-9.747196931689828"><ele>1003.3333333333334</ele><time>2026-04-28T08:19:16Z</time></trkpt><trkpt lat="29.30900623143209" lon="-9.746999676001199"><ele>1004.0</ele><time>2026-04-28T08:19:17Z</time></trkpt><trkpt lat="29.308993646950398" lon="-9.746819721221293"><ele>1004.75</ele><time>2026-04-28T08:19:18Z</time></trkpt><trkpt lat="29.30897523856366" lon="-9.746659799583888"><ele>1005.5</ele><time>2026-04-28T08:19:19Z</time></trkpt><trkpt lat="29.308966429931612" lon="-9.746511372222626"><ele>1006.25</ele><time>2026-04-28T08:19:20Z</time></trkpt><trkpt lat="29.308904569021365" lon="-9.746388678087085"><ele>1007.0</ele><time>2026-04-28T08:19:21Z</time></trkpt><trkpt lat="29.308833146788878" lon="-9.746271232244016"><ele>1009.0</ele><time>2026-04-28T08:19:22Z</time></trkpt><trkpt lat="29.30875355979388" lon="-9.746155679608645"><ele>1011.0</ele><time>2026-04-28T08:19:23Z</time></trkpt><trkpt lat="29.308660310198686" lon="-9.746053720580889"><ele>1013.0</ele><time>2026-04-28T08:19:24Z</time></trkpt><trkpt lat="29.308556068954104" lon="-9.745963772174994"><ele>1015.0</ele><time>2026-04-28T08:19:25Z</time></trkpt><trkpt lat="29.308440657254998" lon="-9.745890579468222"><ele>1015.0</ele><time>2026-04-28T08:19:26Z</time></trkpt><trkpt lat="29.308313611248945" lon="-9.745843896053229"><ele>1015.0</ele><time>2026-04-28T08:19:27Z</time></trkpt><trkpt lat="29.308167770560903" lon="-9.745811501764486"><ele>1015.0</ele><time>2026-04-28T08:19:28Z</time></trkpt><trkpt lat="29.308009155980315" lon="-9.745789612114388"><ele>1015.0</ele><time>2026-04-28T08:19:29Z</time></trkpt><trkpt lat="29.30782930708786" lon="-9.745771908483142"><ele>1016.3333333333333</ele><time>2026-04-28T08:19:30Z</time></trkpt><trkpt lat="29.30765064609777" lon="-9.745752366178996"><ele>1017.6666666666667</ele><time>2026-04-28T08:19:31Z</time></trkpt><trkpt lat="29.307475205045975" lon="-9.745733274583971"><ele>1019.0</ele><time>2026-04-28T08:19:32Z</time></trkpt><trkpt lat="29.307305609165777" lon="-9.745706133379436"><ele>1019.0</ele><time>2026-04-28T08:19:33Z</time></trkpt><trkpt lat="29.30715565602459" lon="-9.745671854260179"><ele>1019.0</ele><time>2026-04-28T08:19:34Z</time></trkpt><trkpt lat="29.30702002913653" lon="-9.745636502425038"><ele>1019.0</ele><time>2026-04-28T08:19:35Z</time></trkpt><trkpt lat="29.30688904081337" lon="-9.745583774551793"><ele>1019.0</ele><time>2026-04-28T08:19:36Z</time></trkpt><trkpt lat="29.30674910093512" lon="-9.745512151694372"><ele>1019.0</ele><time>2026-04-28T08:19:37Z</time></trkpt><trkpt lat="29.306609986245824" lon="-9.745416852146025"><ele>1019.0</ele><time>2026-04-28T08:19:38Z</time></trkpt><trkpt lat="29.30648540499704" lon="-9.745299299709458"><ele>1019.0</ele><time>2026-04-28T08:19:39Z</time></trkpt><trkpt lat="29.30636253805747" lon="-9.745184994727628"><ele>1017.6666666666667</ele><time>2026-04-28T08:19:40Z</time></trkpt><trkpt lat="29.30624736091253" lon="-9.745058421312482"><ele>1016.3333333333333</ele><time>2026-04-28T08:19:41Z</time></trkpt><trkpt lat="29.306141762473843" lon="-9.744927046878281"><ele>1015.0</ele><time>2026-04-28T08:19:42Z</time></trkpt><trkpt lat="29.306048976901792" lon="-9.744778022981112"><ele>1015.0</ele><time>2026-04-28T08:19:43Z</time></trkpt><trkpt lat="29.305966924636873" lon="-9.744619560792811"><ele>1015.0</ele><time>2026-04-28T08:19:44Z</time></trkpt><trkpt lat="29.30589636910453" lon="-9.744447836006342"><ele>1015.0</ele><time>2026-04-28T08:19:45Z</time></trkpt><trkpt lat="29.305838939137562" lon="-9.744262789549186"><ele>1017.0</ele><time>2026-04-28T08:19:46Z</time></trkpt><trkpt lat="29.305790611124014" lon="-9.74406502879201"><ele>1019.0</ele><time>2026-04-28T08:19:47Z</time></trkpt><trkpt lat="29.305758134196072" lon="-9.743835328314145"><ele>1021.0</ele><time>2026-04-28T08:19:48Z</time></trkpt><trkpt lat="29.305723175237304" lon="-9.743590922620218"><ele>1022.3333333333333</ele><time>2026-04-28T08:19:49Z</time></trkpt><trkpt lat="29.305686753428112" lon="-9.743336154250132"><ele>1023.6666666666667</ele><time>2026-04-28T08:19:50Z</time></trkpt><trkpt lat="29.305652169220508" lon="-9.743089880179944"><ele>1025.0</ele><time>2026-04-28T08:19:51Z</time></trkpt><trkpt lat="29.30562276225176" lon="-9.742848445311616"><ele>1026.0</ele><time>2026-04-28T08:19:52Z</time></trkpt><trkpt lat="29.30559398602742" lon="-9.742617580310279"><ele>1027.0</ele><time>2026-04-28T08:19:53Z</time></trkpt><trkpt lat="29.305569719622074" lon="-9.742408266352342"><ele>1028.0</ele><time>2026-04-28T08:19:54Z</time></trkpt><trkpt lat="29.305551280471636" lon="-9.742219935762066"><ele>1029.6666666666667</ele><time>2026-04-28T08:19:55Z</time></trkpt><trkpt lat="29.30553853346067" lon="-9.742032143156685"><ele>1031.3333333333333</ele><time>2026-04-28T08:19:56Z</time></trkpt><trkpt lat="29.305531016255" lon="-9.741835965810886"><ele>1033.0</ele><time>2026-04-28T08:19:57Z</time></trkpt><trkpt lat="29.305539644810953" lon="-9.741633461324536"><ele>1034.0</ele><time>2026-04-28T08:19:58Z</time></trkpt><trkpt lat="29.30556440952466" lon="-9.741428294098402"><ele>1035.0</ele><time>2026-04-28T08:19:59Z</time></trkpt><trkpt lat="29.305602811159286" lon="-9.741214627981993"><ele>1036.0</ele><time>2026-04-28T08:20:00Z</time></trkpt><trkpt lat="29.305649674991443" lon="-9.740989170474233"><ele>1036.0</ele><time>2026-04-28T08:20:01Z</time></trkpt><trkpt lat="29.305706055278403" lon="-9.740743977039578"><ele>1036.0</ele><time>2026-04-28T08:20:02Z</time></trkpt><trkpt lat="29.30577263216118" lon="-9.74047573897802"><ele>1036.0</ele><time>2026-04-28T08:20:03Z</time></trkpt><trkpt lat="29.305840462922333" lon="-9.740199316320096"><ele>1036.0</ele><time>2026-04-28T08:20:04Z</time></trkpt><trkpt lat="29.305903643907868" lon="-9.739929619159684"><ele>1036.0</ele><time>2026-04-28T08:20:05Z</time></trkpt><trkpt lat="29.305964517746705" lon="-9.739672339252804"><ele>1036.0</ele><time>2026-04-28T08:20:06Z</time></trkpt><trkpt lat="29.30602352659341" lon="-9.739425501897895"><ele>1038.0</ele><time>2026-04-28T08:20:07Z</time></trkpt><trkpt lat="29.306077377791265" lon="-9.73919801143145"><ele>1040.0</ele><time>2026-04-28T08:20:08Z</time></trkpt><trkpt lat="29.306125100734125" lon="-9.738993582523145"><ele>1042.0</ele><time>2026-04-28T08:20:09Z</time></trkpt><trkpt lat="29.30616784220086" lon="-9.73879834974403"><ele>1042.0</ele><time>2026-04-28T08:20:10Z</time></trkpt><trkpt lat="29.3062050912913" lon="-9.738597147787745"><ele>1042.0</ele><time>2026-04-28T08:20:11Z</time></trkpt><trkpt lat="29.30623548189197" lon="-9.738390367098077"><ele>1042.0</ele><time>2026-04-28T08:20:12Z</time></trkpt><trkpt lat="29.306253237055707" lon="-9.738187766277749"><ele>1044.3333333333333</ele><time>2026-04-28T08:20:13Z</time></trkpt><trkpt lat="29.30625266958516" lon="-9.73798780536965"><ele>1046.6666666666667</ele><time>2026-04-28T08:20:14Z</time></trkpt><trkpt lat="29.306232285039894" lon="-9.737786114989346"><ele>1049.0</ele><time>2026-04-28T08:20:15Z</time></trkpt><trkpt lat="29.306196581994683" lon="-9.737591272513296"><ele>1050.6666666666667</ele><time>2026-04-28T08:20:16Z</time></trkpt><trkpt lat="29.30613746833809" lon="-9.737391676445325"><ele>1052.3333333333333</ele><time>2026-04-28T08:20:17Z</time></trkpt><trkpt lat="29.30606946913745" lon="-9.737198184908115"><ele>1054.0</ele><time>2026-04-28T08:20:18Z</time></trkpt><trkpt lat="29.305990239719296" lon="-9.737024831650896"><ele>1054.5</ele><time>2026-04-28T08:20:19Z</time></trkpt><trkpt lat="29.30591482423528" lon="-9.73687612623655"><ele>1055.0</ele><time>2026-04-28T08:20:20Z</time></trkpt><trkpt lat="29.305833817283006" lon="-9.736744002027732"><ele>1055.5</ele><time>2026-04-28T08:20:21Z</time></trkpt><trkpt lat="29.30574054441325" lon="-9.736623212084323"><ele>1056.0</ele><time>2026-04-28T08:20:22Z</time></trkpt><trkpt lat="29.30563219699756" lon="-9.736505242886935"><ele>1057.6666666666667</ele><time>2026-04-28T08:20:23Z</time></trkpt><trkpt lat="29.305518891058217" lon="-9.736391156461362"><ele>1059.3333333333335</ele><time>2026-04-28T08:20:24Z</time></trkpt><trkpt lat="29.305398249049404" lon="-9.736282341110105"><ele>1061.0</ele><time>2026-04-28T08:20:25Z</time></trkpt><trkpt lat="29.305267405422885" lon="-9.736186795661167"><ele>1061.0</ele><time>2026-04-28T08:20:26Z</time></trkpt><trkpt lat="29.30511998944711" lon="-9.736102162717822"><ele>1061.0</ele><time>2026-04-28T08:20:27Z</time></trkpt><trkpt lat="29.304961086116077" lon="-9.736048607071101"><ele>1061.0</ele><time>2026-04-28T08:20:28Z</time></trkpt><trkpt lat="29.30479740477494" lon="-9.735987030606536"><ele>1061.3333333333335</ele><time>2026-04-28T08:20:29Z</time></trkpt><trkpt lat="29.30461940350546" lon="-9.735931567584345"><ele>1061.6666666666667</ele><time>2026-04-28T08:20:30Z</time></trkpt><trkpt lat="29.304433326985926" lon="-9.735859660152153"><ele>1062.0</ele><time>2026-04-28T08:20:31Z</time></trkpt><trkpt lat="29.304235103614914" lon="-9.735805643190137"><ele>1062.0</ele><time>2026-04-28T08:20:32Z</time></trkpt><trkpt lat="29.304032375943134" lon="-9.735744015435358"><ele>1062.0</ele><time>2026-04-28T08:20:33Z</time></trkpt><trkpt lat="29.30382819309691" lon="-9.735678493356042"><ele>1062.0</ele><time>2026-04-28T08:20:34Z</time></trkpt><trkpt lat="29.303630437812892" lon="-9.735617027179043"><ele>1064.3333333333333</ele><time>2026-04-28T08:20:35Z</time></trkpt><trkpt lat="29.303439101022718" lon="-9.735564626760898"><ele>1066.6666666666665</ele><time>2026-04-28T08:20:36Z</time></trkpt><trkpt lat="29.303256961439885" lon="-9.735522651445756"><ele>1069.0</ele><time>2026-04-28T08:20:37Z</time></trkpt><trkpt lat="29.303075089059938" lon="-9.735496408762746"><ele>1071.3333333333333</ele><time>2026-04-28T08:20:38Z</time></trkpt><trkpt lat="29.302883396412476" lon="-9.735486527344372"><ele>1073.6666666666667</ele><time>2026-04-28T08:20:39Z</time></trkpt><trkpt lat="29.3026878484897" lon="-9.735517648117808"><ele>1076.0</ele><time>2026-04-28T08:20:40Z</time></trkpt><trkpt lat="29.30247949010741" lon="-9.735543915239171"><ele>1076.0</ele><time>2026-04-28T08:20:41Z</time></trkpt><trkpt lat="29.302258315895045" lon="-9.73558226339543"><ele>1076.0</ele><time>2026-04-28T08:20:42Z</time></trkpt><trkpt lat="29.30202504888925" lon="-9.73561923361009"><ele>1076.0</ele><time>2026-04-28T08:20:43Z</time></trkpt><trkpt lat="29.301783589798784" lon="-9.735678960096909"><ele>1076.0</ele><time>2026-04-28T08:20:44Z</time></trkpt><trkpt lat="29.30153437920688" lon="-9.73574001901982"><ele>1076.0</ele><time>2026-04-28T08:20:45Z</time></trkpt><trkpt lat="29.301276916493922" lon="-9.735799417024975"><ele>1076.0</ele><time>2026-04-28T08:20:46Z</time></trkpt><trkpt lat="29.30101525564866" lon="-9.73585957543063"><ele>1076.0</ele><time>2026-04-28T08:20:47Z</time></trkpt><trkpt lat="29.300744082656784" lon="-9.7359242599288"><ele>1076.0</ele><time>2026-04-28T08:20:48Z</time></trkpt><trkpt lat="29.300469701651412" lon="-9.735989140202665"><ele>1076.0</ele><time>2026-04-28T08:20:49Z</time></trkpt><trkpt lat="29.300189441238338" lon="-9.736054189675954"><ele>1076.0</ele><time>2026-04-28T08:20:50Z</time></trkpt><trkpt lat="29.299914118102105" lon="-9.736114973330322"><ele>1075.5</ele><time>2026-04-28T08:20:51Z</time></trkpt><trkpt lat="29.299642797091742" lon="-9.73617238011321"><ele>1075.0</ele><time>2026-04-28T08:20:52Z</time></trkpt><trkpt lat="29.299376228967695" lon="-9.736233487433841"><ele>1075.0</ele><time>2026-04-28T08:20:53Z</time></trkpt><trkpt lat="29.29910932490551" lon="-9.73629427386133"><ele>1075.0</ele><time>2026-04-28T08:20:54Z</time></trkpt><trkpt lat="29.29884272145956" lon="-9.736354009944064"><ele>1075.0</ele><time>2026-04-28T08:20:55Z</time></trkpt><trkpt lat="29.298574277571085" lon="-9.736413843008371"><ele>1075.0</ele><time>2026-04-28T08:20:56Z</time></trkpt><trkpt lat="29.298306226407" lon="-9.73647304991725"><ele>1077.0</ele><time>2026-04-28T08:20:57Z</time></trkpt><trkpt lat="29.298037526448308" lon="-9.73653397155717"><ele>1079.0</ele><time>2026-04-28T08:20:58Z</time></trkpt><trkpt lat="29.29777016085067" lon="-9.736595658367113"><ele>1079.0</ele><time>2026-04-28T08:20:59Z</time></trkpt><trkpt lat="29.29750379856528" lon="-9.736656988152257"><ele>1079.0</ele><time>2026-04-28T08:21:00Z</time></trkpt><trkpt lat="29.297237171131048" lon="-9.736716088418877"><ele>1080.5</ele><time>2026-04-28T08:21:01Z</time></trkpt><trkpt lat="29.29697144110429" lon="-9.736770710045457"><ele>1082.0</ele><time>2026-04-28T08:21:02Z</time></trkpt><trkpt lat="29.29670395968242" lon="-9.736829193395463"><ele>1082.0</ele><time>2026-04-28T08:21:03Z</time></trkpt><trkpt lat="29.296432884127924" lon="-9.736891117048192"><ele>1082.0</ele><time>2026-04-28T08:21:04Z</time></trkpt><trkpt lat="29.296168825829824" lon="-9.736951466976619"><ele>1082.0</ele><time>2026-04-28T08:21:05Z</time></trkpt><trkpt lat="29.29590923714345" lon="-9.7370097089104"><ele>1082.0</ele><time>2026-04-28T08:21:06Z</time></trkpt><trkpt lat="29.29565236314011" lon="-9.737068972011937"><ele>1083.5</ele><time>2026-04-28T08:21:07Z</time></trkpt><trkpt lat="29.295401979902834" lon="-9.737127627928016"><ele>1085.0</ele><time>2026-04-28T08:21:08Z</time></trkpt><trkpt lat="29.295160995362775" lon="-9.737181814156958"><ele>1085.0</ele><time>2026-04-28T08:21:09Z</time></trkpt><trkpt lat="29.294923996343456" lon="-9.73723267442027"><ele>1085.0</ele><time>2026-04-28T08:21:10Z</time></trkpt><trkpt lat="29.294693198027147" lon="-9.737283442365374"><ele>1086.6666666666667</ele><time>2026-04-28T08:21:11Z</time></trkpt><trkpt lat="29.294471454975106" lon="-9.737334937848978"><ele>1088.3333333333333</ele><time>2026-04-28T08:21:12Z</time></trkpt><trkpt lat="29.29425642116327" lon="-9.737388990651256"><ele>1090.0</ele><time>2026-04-28T08:21:13Z</time></trkpt><trkpt lat="29.294040510541617" lon="-9.737441787161114"><ele>1090.6666666666665</ele><time>2026-04-28T08:21:14Z</time></trkpt><trkpt lat="29.293831546806945" lon="-9.737491691826499"><ele>1091.3333333333333</ele><time>2026-04-28T08:21:15Z</time></trkpt><trkpt lat="29.293629088717758" lon="-9.737536444864473"><ele>1092.0</ele><time>2026-04-28T08:21:16Z</time></trkpt><trkpt lat="29.29343052318509" lon="-9.737578060848254"><ele>1092.0</ele><time>2026-04-28T08:21:17Z</time></trkpt><trkpt lat="29.293231679533694" lon="-9.737624955923348"><ele>1092.0</ele><time>2026-04-28T08:21:18Z</time></trkpt><trkpt lat="29.29303318126579" lon="-9.737677952087369"><ele>1092.0</ele><time>2026-04-28T08:21:19Z</time></trkpt><trkpt lat="29.292833499815494" lon="-9.73773295463323"><ele>1090.3333333333333</ele><time>2026-04-28T08:21:20Z</time></trkpt><trkpt lat="29.292633931594736" lon="-9.737786374928014"><ele>1088.6666666666665</ele><time>2026-04-28T08:21:21Z</time></trkpt><trkpt lat="29.292433341588588" lon="-9.737836747992448"><ele>1087.0</ele><time>2026-04-28T08:21:22Z</time></trkpt><trkpt lat="29.29223514451887" lon="-9.737888105086151"><ele>1086.6666666666665</ele><time>2026-04-28T08:21:23Z</time></trkpt><trkpt lat="29.292036129978666" lon="-9.737942364755842"><ele>1086.3333333333333</ele><time>2026-04-28T08:21:24Z</time></trkpt><trkpt lat="29.29183749560984" lon="-9.737995285135957"><ele>1086.0</ele><time>2026-04-28T08:21:25Z</time></trkpt><trkpt lat="29.29163865406315" lon="-9.738044770456968"><ele>1086.0</ele><time>2026-04-28T08:21:26Z</time></trkpt><trkpt lat="29.29144076381808" lon="-9.73809362873528"><ele>1086.0</ele><time>2026-04-28T08:21:27Z</time></trkpt><trkpt lat="29.29124421781703" lon="-9.738144502130467"><ele>1086.0</ele><time>2026-04-28T08:21:28Z</time></trkpt><trkpt lat="29.291049293147875" lon="-9.73819320529059"><ele>1085.0</ele><time>2026-04-28T08:21:29Z</time></trkpt><trkpt lat="29.290860792380755" lon="-9.73824284482109"><ele>1084.0</ele><time>2026-04-28T08:21:30Z</time></trkpt><trkpt lat="29.29067741101465" lon="-9.738292742811966"><ele>1083.0</ele><time>2026-04-28T08:21:31Z</time></trkpt><trkpt lat="29.290490770144874" lon="-9.73834340720445"><ele>1082.0</ele><time>2026-04-28T08:21:32Z</time></trkpt><trkpt lat="29.290299668432638" lon="-9.738391022803215"><ele>1081.0</ele><time>2026-04-28T08:21:33Z</time></trkpt><trkpt lat="29.290105651364875" lon="-9.738437322245606"><ele>1080.0</ele><time>2026-04-28T08:21:34Z</time></trkpt><trkpt lat="29.289915797415418" lon="-9.738476401155772"><ele>1079.3333333333333</ele><time>2026-04-28T08:21:35Z</time></trkpt><trkpt lat="29.289725916457805" lon="-9.738505237135552"><ele>1078.6666666666665</ele><time>2026-04-28T08:21:36Z</time></trkpt><trkpt lat="29.289531074489215" lon="-9.738526824315876"><ele>1078.0</ele><time>2026-04-28T08:21:37Z</time></trkpt><trkpt lat="29.2893232460873" lon="-9.73854090853701"><ele>1078.0</ele><time>2026-04-28T08:21:38Z</time></trkpt><trkpt lat="29.28909033214616" lon="-9.738551159034415"><ele>1078.0</ele><time>2026-04-28T08:21:39Z</time></trkpt><trkpt lat="29.288840151769687" lon="-9.738563921822061"><ele>1074.5</ele><time>2026-04-28T08:21:40Z</time></trkpt><trkpt lat="29.288587581481284" lon="-9.738579013880779"><ele>1071.0</ele><time>2026-04-28T08:21:41Z</time></trkpt><trkpt lat="29.288340366249585" lon="-9.738595909166895"><ele>1071.0</ele><time>2026-04-28T08:21:42Z</time></trkpt><trkpt lat="29.288100037887116" lon="-9.73861068090892"><ele>1071.0</ele><time>2026-04-28T08:21:43Z</time></trkpt><trkpt lat="29.287869642275716" lon="-9.738622141091064"><ele>1070.3333333333333</ele><time>2026-04-28T08:21:44Z</time></trkpt><trkpt lat="29.287649816956915" lon="-9.738633062654634"><ele>1069.6666666666665</ele><time>2026-04-28T08:21:45Z</time></trkpt><trkpt lat="29.28743613176804" lon="-9.738645208591125"><ele>1069.0</ele><time>2026-04-28T08:21:46Z</time></trkpt><trkpt lat="29.287228955279673" lon="-9.738659415515702"><ele>1068.6666666666665</ele><time>2026-04-28T08:21:47Z</time></trkpt><trkpt lat="29.287027506923934" lon="-9.738672847282134"><ele>1068.3333333333333</ele><time>2026-04-28T08:21:48Z</time></trkpt><trkpt lat="29.286831516275893" lon="-9.738683563895972"><ele>1068.0</ele><time>2026-04-28T08:21:49Z</time></trkpt><trkpt lat="29.286643904647807" lon="-9.738699045857492"><ele>1068.0</ele><time>2026-04-28T08:21:50Z</time></trkpt><trkpt lat="29.28646271185237" lon="-9.738711345130016"><ele>1068.0</ele><time>2026-04-28T08:21:51Z</time></trkpt><trkpt lat="29.286278059902827" lon="-9.73872284356212"><ele>1068.0</ele><time>2026-04-28T08:21:52Z</time></trkpt><trkpt lat="29.28608540478732" lon="-9.73873381848925"><ele>1067.0</ele><time>2026-04-28T08:21:53Z</time></trkpt><trkpt lat="29.285883958602106" lon="-9.738743345764796"><ele>1066.0</ele><time>2026-04-28T08:21:54Z</time></trkpt><trkpt lat="29.28568159521144" lon="-9.738750568890518"><ele>1065.0</ele><time>2026-04-28T08:21:55Z</time></trkpt><trkpt lat="29.285476569478657" lon="-9.7387520914153"><ele>1065.0</ele><time>2026-04-28T08:21:56Z</time></trkpt><trkpt lat="29.28525772255549" lon="-9.73874859737193"><ele>1065.0</ele><time>2026-04-28T08:21:57Z</time></trkpt><trkpt lat="29.285025572820896" lon="-9.73873940409611"><ele>1065.0</ele><time>2026-04-28T08:21:58Z</time></trkpt><trkpt lat="29.284768272105385" lon="-9.738727906128828"><ele>1065.0</ele><time>2026-04-28T08:21:59Z</time></trkpt><trkpt lat="29.28450152138204" lon="-9.738719034878404"><ele>1064.5</ele><time>2026-04-28T08:22:00Z</time></trkpt><trkpt lat="29.284237516406534" lon="-9.73871233334367"><ele>1064.0</ele><time>2026-04-28T08:22:01Z</time></trkpt><trkpt lat="29.283977375889318" lon="-9.73870650743609"><ele>1062.5</ele><time>2026-04-28T08:22:02Z</time></trkpt><trkpt lat="29.283715749792382" lon="-9.738702481986715"><ele>1061.0</ele><time>2026-04-28T08:22:03Z</time></trkpt><trkpt lat="29.28346435742469" lon="-9.738694336427253"><ele>1061.0</ele><time>2026-04-28T08:22:04Z</time></trkpt><trkpt lat="29.283221749978946" lon="-9.738688121994768"><ele>1061.0</ele><time>2026-04-28T08:22:05Z</time></trkpt><trkpt lat="29.282985614377537" lon="-9.738681986537127"><ele>1059.0</ele><time>2026-04-28T08:22:06Z</time></trkpt><trkpt lat="29.282757097126133" lon="-9.738676603361037"><ele>1057.0</ele><time>2026-04-28T08:22:07Z</time></trkpt><trkpt lat="29.282528401539516" lon="-9.738669090342256"><ele>1057.0</ele><time>2026-04-28T08:22:08Z</time></trkpt><trkpt lat="29.282296470729612" lon="-9.738662294333077"><ele>1057.0</ele><time>2026-04-28T08:22:09Z</time></trkpt><trkpt lat="29.282066009805266" lon="-9.738656544794644"><ele>1059.0</ele><time>2026-04-28T08:22:10Z</time></trkpt><trkpt lat="29.2818385539433" lon="-9.738652460521534"><ele>1061.0</ele><time>2026-04-28T08:22:11Z</time></trkpt><trkpt lat="29.281611841098055" lon="-9.738647076825979"><ele>1063.0</ele><time>2026-04-28T08:22:12Z</time></trkpt><trkpt lat="29.28138372685147" lon="-9.738638394983544"><ele>1065.0</ele><time>2026-04-28T08:22:13Z</time></trkpt><trkpt lat="29.28115437623207" lon="-9.73863067291323"><ele>1065.0</ele><time>2026-04-28T08:22:14Z</time></trkpt><trkpt lat="29.280926947983588" lon="-9.738624296590121"><ele>1065.0</ele><time>2026-04-28T08:22:15Z</time></trkpt><trkpt lat="29.28069362843121" lon="-9.738620807397904"><ele>1065.0</ele><time>2026-04-28T08:22:16Z</time></trkpt><trkpt lat="29.28045583357087" lon="-9.738616501660692"><ele>1065.0</ele><time>2026-04-28T08:22:17Z</time></trkpt><trkpt lat="29.280211557822422" lon="-9.7386077703899"><ele>1065.0</ele><time>2026-04-28T08:22:18Z</time></trkpt><trkpt lat="29.279967667920175" lon="-9.738599929463332"><ele>1065.0</ele><time>2026-04-28T08:22:19Z</time></trkpt><trkpt lat="29.279721185657472" lon="-9.73858939801928"><ele>1064.5</ele><time>2026-04-28T08:22:20Z</time></trkpt><trkpt lat="29.279471450544538" lon="-9.738580444822219"><ele>1064.0</ele><time>2026-04-28T08:22:21Z</time></trkpt><trkpt lat="29.27921943873922" lon="-9.738572491232572"><ele>1064.0</ele><time>2026-04-28T08:22:22Z</time></trkpt><trkpt lat="29.278963907507617" lon="-9.73856708238079"><ele>1064.0</ele><time>2026-04-28T08:22:23Z</time></trkpt><trkpt lat="29.278703631642458" lon="-9.738560948972731"><ele>1063.5</ele><time>2026-04-28T08:22:24Z</time></trkpt><trkpt lat="29.27844341759736" lon="-9.738556265242094"><ele>1063.0</ele><time>2026-04-28T08:22:25Z</time></trkpt><trkpt lat="29.278183503666757" lon="-9.738550955320632"><ele>1062.5</ele><time>2026-04-28T08:22:26Z</time></trkpt><trkpt lat="29.277923837615713" lon="-9.738541118321525"><ele>1062.0</ele><time>2026-04-28T08:22:27Z</time></trkpt><trkpt lat="29.277662392366796" lon="-9.738530425939954"><ele>1062.0</ele><time>2026-04-28T08:22:28Z</time></trkpt><trkpt lat="29.277400488851004" lon="-9.738523288872152"><ele>1062.0</ele><time>2026-04-28T08:22:29Z</time></trkpt><trkpt lat="29.27714279398635" lon="-9.738517809264138"><ele>1061.5</ele><time>2026-04-28T08:22:30Z</time></trkpt><trkpt lat="29.27688984013551" lon="-9.738510506099821"><ele>1061.0</ele><time>2026-04-28T08:22:31Z</time></trkpt><trkpt lat="29.276643626574845" lon="-9.738505083378204"><ele>1061.0</ele><time>2026-04-28T08:22:32Z</time></trkpt><trkpt lat="29.276398283220054" lon="-9.738497384497732"><ele>1061.0</ele><time>2026-04-28T08:22:33Z</time></trkpt><trkpt lat="29.276148887076417" lon="-9.738492158251058"><ele>1061.0</ele><time>2026-04-28T08:22:34Z</time></trkpt><trkpt lat="29.275899724478702" lon="-9.738487364499214"><ele>1061.0</ele><time>2026-04-28T08:22:35Z</time></trkpt><trkpt lat="29.2756530577503" lon="-9.738479206103909"><ele>1059.5</ele><time>2026-04-28T08:22:36Z</time></trkpt><trkpt lat="29.275405793679163" lon="-9.738469375529563"><ele>1058.0</ele><time>2026-04-28T08:22:37Z</time></trkpt><trkpt lat="29.2751573022783" lon="-9.738458007053776"><ele>1058.0</ele><time>2026-04-28T08:22:38Z</time></trkpt><trkpt lat="29.27490959066828" lon="-9.73845060195114"><ele>1058.0</ele><time>2026-04-28T08:22:39Z</time></trkpt><trkpt lat="29.27466087527043" lon="-9.738445090375055"><ele>1056.5</ele><time>2026-04-28T08:22:40Z</time></trkpt><trkpt lat="29.274415948216063" lon="-9.738438229593202"><ele>1055.0</ele><time>2026-04-28T08:22:41Z</time></trkpt><trkpt lat="29.27418127503017" lon="-9.738430435875163"><ele>1055.0</ele><time>2026-04-28T08:22:42Z</time></trkpt><trkpt lat="29.273950986634354" lon="-9.738422969485196"><ele>1055.0</ele><time>2026-04-28T08:22:43Z</time></trkpt><trkpt lat="29.273730465676188" lon="-9.738416385173904"><ele>1054.6666666666667</ele><time>2026-04-28T08:22:44Z</time></trkpt><trkpt lat="29.273510623179536" lon="-9.738412818754727"><ele>1054.3333333333333</ele><time>2026-04-28T08:22:45Z</time></trkpt><trkpt lat="29.273291157450736" lon="-9.738406571474533"><ele>1054.0</ele><time>2026-04-28T08:22:46Z</time></trkpt><trkpt lat="29.273070405564532" lon="-9.738402331099987"><ele>1053.3333333333333</ele><time>2026-04-28T08:22:47Z</time></trkpt><trkpt lat="29.27285332922496" lon="-9.73839763377793"><ele>1052.6666666666667</ele><time>2026-04-28T08:22:48Z</time></trkpt><trkpt lat="29.2726402488071" lon="-9.738392810639748"><ele>1052.0</ele><time>2026-04-28T08:22:49Z</time></trkpt><trkpt lat="29.272427059888187" lon="-9.738388883322795"><ele>1051.6666666666667</ele><time>2026-04-28T08:22:50Z</time></trkpt><trkpt lat="29.27221352611751" lon="-9.73838207608366"><ele>1051.3333333333333</ele><time>2026-04-28T08:22:51Z</time></trkpt><trkpt lat="29.27199791907107" lon="-9.738374126322524"><ele>1051.0</ele><time>2026-04-28T08:22:52Z</time></trkpt><trkpt lat="29.27178229382663" lon="-9.738368074884185"><ele>1051.0</ele><time>2026-04-28T08:22:53Z</time></trkpt><trkpt lat="29.271563643578517" lon="-9.73836377247071"><ele>1051.0</ele><time>2026-04-28T08:22:54Z</time></trkpt><trkpt lat="29.271344960099317" lon="-9.738358024074268"><ele>1051.0</ele><time>2026-04-28T08:22:55Z</time></trkpt><trkpt lat="29.271125977457455" lon="-9.738349345224814"><ele>1050.3333333333333</ele><time>2026-04-28T08:22:56Z</time></trkpt><trkpt lat="29.27090451294973" lon="-9.738341509417562"><ele>1049.6666666666667</ele><time>2026-04-28T08:22:57Z</time></trkpt><trkpt lat="29.27068346080543" lon="-9.738335952139153"><ele>1049.0</ele><time>2026-04-28T08:22:58Z</time></trkpt><trkpt lat="29.270466657711765" lon="-9.73833071929479"><ele>1048.3333333333335</ele><time>2026-04-28T08:22:59Z</time></trkpt><trkpt lat="29.27024804541042" lon="-9.738323796417763"><ele>1047.6666666666667</ele><time>2026-04-28T08:23:00Z</time></trkpt><trkpt lat="29.27002872432286" lon="-9.738314045910524"><ele>1047.0</ele><time>2026-04-28T08:23:01Z</time></trkpt><trkpt lat="29.26980839369536" lon="-9.738307397618316"><ele>1046.3333333333333</ele><time>2026-04-28T08:23:02Z</time></trkpt><trkpt lat="29.269588710163053" lon="-9.738298584394736"><ele>1045.6666666666665</ele><time>2026-04-28T08:23:03Z</time></trkpt><trkpt lat="29.269372622909533" lon="-9.73829214422305"><ele>1045.0</ele><time>2026-04-28T08:23:04Z</time></trkpt><trkpt lat="29.269165258602406" lon="-9.738286869152155"><ele>1045.0</ele><time>2026-04-28T08:23:05Z</time></trkpt><trkpt lat="29.268964833929708" lon="-9.738280645477538"><ele>1045.0</ele><time>2026-04-28T08:23:06Z</time></trkpt><trkpt lat="29.26876274471426" lon="-9.738271928642693"><ele>1045.0</ele><time>2026-04-28T08:23:07Z</time></trkpt><trkpt lat="29.268555034128806" lon="-9.73826086310231"><ele>1044.0</ele><time>2026-04-28T08:23:08Z</time></trkpt><trkpt lat="29.268348161037753" lon="-9.738256599950082"><ele>1043.0</ele><time>2026-04-28T08:23:09Z</time></trkpt><trkpt lat="29.268151838585567" lon="-9.738252371382382"><ele>1042.0</ele><time>2026-04-28T08:23:10Z</time></trkpt><trkpt lat="29.26796088310131" lon="-9.738248776646424"><ele>1041.0</ele><time>2026-04-28T08:23:11Z</time></trkpt><trkpt lat="29.26777819832608" lon="-9.73824357626912"><ele>1040.0</ele><time>2026-04-28T08:23:12Z</time></trkpt><trkpt lat="29.267600467225027" lon="-9.738235050938625"><ele>1039.0</ele><time>2026-04-28T08:23:13Z</time></trkpt><trkpt lat="29.267428723289527" lon="-9.738226408061426"><ele>1038.6666666666665</ele><time>2026-04-28T08:23:14Z</time></trkpt><trkpt lat="29.267265332932542" lon="-9.738223457257462"><ele>1038.3333333333333</ele><time>2026-04-28T08:23:15Z</time></trkpt><trkpt lat="29.267103835045916" lon="-9.73822320865404"><ele>1038.0</ele><time>2026-04-28T08:23:16Z</time></trkpt><trkpt lat="29.266945595433032" lon="-9.738220081954037"><ele>1038.0</ele><time>2026-04-28T08:23:17Z</time></trkpt><trkpt lat="29.26679505616128" lon="-9.738214740364729"><ele>1038.0</ele><time>2026-04-28T08:23:18Z</time></trkpt><trkpt lat="29.266639325443716" lon="-9.738207838986543"><ele>1038.0</ele><time>2026-04-28T08:23:19Z</time></trkpt><trkpt lat="29.26648255880351" lon="-9.738201235001963"><ele>1037.6666666666667</ele><time>2026-04-28T08:23:20Z</time></trkpt><trkpt lat="29.266323305379668" lon="-9.738197753975935"><ele>1037.3333333333335</ele><time>2026-04-28T08:23:21Z</time></trkpt><trkpt lat="29.266161436679116" lon="-9.738195301751391"><ele>1037.0</ele><time>2026-04-28T08:23:22Z</time></trkpt><trkpt lat="29.265997680080694" lon="-9.738192579499202"><ele>1037.0</ele><time>2026-04-28T08:23:23Z</time></trkpt><trkpt lat="29.26583781275273" lon="-9.738189708539691"><ele>1037.0</ele><time>2026-04-28T08:23:24Z</time></trkpt><trkpt lat="29.26567959342801" lon="-9.73818424139096"><ele>1037.0</ele><time>2026-04-28T08:23:25Z</time></trkpt><trkpt lat="29.26552147624349" lon="-9.738176802114031"><ele>1036.6666666666667</ele><time>2026-04-28T08:23:26Z</time></trkpt><trkpt lat="29.26536228819339" lon="-9.73816904224031"><ele>1036.3333333333333</ele><time>2026-04-28T08:23:27Z</time></trkpt><trkpt lat="29.26520183167196" lon="-9.738168281240116"><ele>1036.0</ele><time>2026-04-28T08:23:28Z</time></trkpt><trkpt lat="29.265039537262243" lon="-9.73816934822901"><ele>1036.0</ele><time>2026-04-28T08:23:29Z</time></trkpt><trkpt lat="29.264869928633793" lon="-9.73817143447155"><ele>1036.0</ele><time>2026-04-28T08:23:30Z</time></trkpt><trkpt lat="29.264691709666987" lon="-9.738182908895414"><ele>1036.0</ele><time>2026-04-28T08:23:31Z</time></trkpt><trkpt lat="29.264507965238153" lon="-9.738205821419436"><ele>1035.6666666666665</ele><time>2026-04-28T08:23:32Z</time></trkpt><trkpt lat="29.26431520284478" lon="-9.738237550658301"><ele>1035.3333333333333</ele><time>2026-04-28T08:23:33Z</time></trkpt><trkpt lat="29.264119386163472" lon="-9.738281848940153"><ele>1035.0</ele><time>2026-04-28T08:23:34Z</time></trkpt><trkpt lat="29.26391688778273" lon="-9.738338856999755"><ele>1034.0</ele><time>2026-04-28T08:23:35Z</time></trkpt><trkpt lat="29.26370285534911" lon="-9.738409384424653"><ele>1033.0</ele><time>2026-04-28T08:23:36Z</time></trkpt><trkpt lat="29.263484907294732" lon="-9.738485338090852"><ele>1032.5</ele><time>2026-04-28T08:23:37Z</time></trkpt><trkpt lat="29.26326691436838" lon="-9.738562974204623"><ele>1032.0</ele><time>2026-04-28T08:23:38Z</time></trkpt><trkpt lat="29.263052875307103" lon="-9.738639053861826"><ele>1032.0</ele><time>2026-04-28T08:23:39Z</time></trkpt><trkpt lat="29.26284129514555" lon="-9.738710384186573"><ele>1032.0</ele><time>2026-04-28T08:23:40Z</time></trkpt><trkpt lat="29.26263557664238" lon="-9.738778642536381"><ele>1032.0</ele><time>2026-04-28T08:23:41Z</time></trkpt><trkpt lat="29.262436562902113" lon="-9.738851439285277"><ele>1033.0</ele><time>2026-04-28T08:23:42Z</time></trkpt><trkpt lat="29.26224325918994" lon="-9.738921743969513"><ele>1034.0</ele><time>2026-04-28T08:23:43Z</time></trkpt><trkpt lat="29.26205390330847" lon="-9.73898983196416"><ele>1035.0</ele><time>2026-04-28T08:23:44Z</time></trkpt><trkpt lat="29.261870529892104" lon="-9.73906175534413"><ele>1035.0</ele><time>2026-04-28T08:23:45Z</time></trkpt><trkpt lat="29.261693339421115" lon="-9.739135003350839"><ele>1035.0</ele><time>2026-04-28T08:23:46Z</time></trkpt><trkpt lat="29.261520519068622" lon="-9.739212132512217"><ele>1035.0</ele><time>2026-04-28T08:23:47Z</time></trkpt><trkpt lat="29.261350737646378" lon="-9.73929136012485"><ele>1034.6666666666667</ele><time>2026-04-28T08:23:48Z</time></trkpt><trkpt lat="29.261183550634275" lon="-9.7393678073696"><ele>1034.3333333333335</ele><time>2026-04-28T08:23:49Z</time></trkpt><trkpt lat="29.26101334276842" lon="-9.739441428941335"><ele>1034.0</ele><time>2026-04-28T08:23:50Z</time></trkpt><trkpt lat="29.260847172340114" lon="-9.739514698069884"><ele>1034.0</ele><time>2026-04-28T08:23:51Z</time></trkpt><trkpt lat="29.26067862922301" lon="-9.73959030666834"><ele>1034.0</ele><time>2026-04-28T08:23:52Z</time></trkpt><trkpt lat="29.260509143816066" lon="-9.739665449160858"><ele>1034.0</ele><time>2026-04-28T08:23:53Z</time></trkpt><trkpt lat="29.26033641061156" lon="-9.73974284351332"><ele>1034.0</ele><time>2026-04-28T08:23:54Z</time></trkpt><trkpt lat="29.260160004719165" lon="-9.739821490493545"><ele>1034.0</ele><time>2026-04-28T08:23:55Z</time></trkpt><trkpt lat="29.25998237561028" lon="-9.739900250631338"><ele>1034.0</ele><time>2026-04-28T08:23:56Z</time></trkpt><trkpt lat="29.2598030672718" lon="-9.739981738878805"><ele>1034.6666666666667</ele><time>2026-04-28T08:23:57Z</time></trkpt><trkpt lat="29.25962225370082" lon="-9.740063814573366"><ele>1035.3333333333333</ele><time>2026-04-28T08:23:58Z</time></trkpt><trkpt lat="29.259441454047206" lon="-9.740145793443624"><ele>1036.0</ele><time>2026-04-28T08:23:59Z</time></trkpt><trkpt lat="29.259260026522245" lon="-9.740227659038208"><ele>1036.0</ele><time>2026-04-28T08:24:00Z</time></trkpt><trkpt lat="29.259077083544355" lon="-9.740308808316929"><ele>1036.0</ele><time>2026-04-28T08:24:01Z</time></trkpt><trkpt lat="29.25889222338502" lon="-9.740389779455475"><ele>1036.0</ele><time>2026-04-28T08:24:02Z</time></trkpt><trkpt lat="29.258706618908572" lon="-9.74047259745514"><ele>1035.0</ele><time>2026-04-28T08:24:03Z</time></trkpt><trkpt lat="29.25851777882289" lon="-9.740557860264603"><ele>1034.0</ele><time>2026-04-28T08:24:04Z</time></trkpt><trkpt lat="29.258327412228507" lon="-9.740644300026949"><ele>1033.0</ele><time>2026-04-28T08:24:05Z</time></trkpt><trkpt lat="29.258131422545983" lon="-9.740733227229962"><ele>1031.3333333333333</ele><time>2026-04-28T08:24:06Z</time></trkpt><trkpt lat="29.25793108112427" lon="-9.740823050940081"><ele>1029.6666666666667</ele><time>2026-04-28T08:24:07Z</time></trkpt><trkpt lat="29.257725335295053" lon="-9.740913709005062"><ele>1028.0</ele><time>2026-04-28T08:24:08Z</time></trkpt><trkpt lat="29.257519114527103" lon="-9.741002729679522"><ele>1027.6666666666667</ele><time>2026-04-28T08:24:09Z</time></trkpt><trkpt lat="29.25731761492282" lon="-9.741088795539985"><ele>1027.3333333333333</ele><time>2026-04-28T08:24:10Z</time></trkpt><trkpt lat="29.257123234186604" lon="-9.741174245307688"><ele>1027.0</ele><time>2026-04-28T08:24:11Z</time></trkpt><trkpt lat="29.256936297646718" lon="-9.741259661199825"><ele>1025.6666666666665</ele><time>2026-04-28T08:24:12Z</time></trkpt><trkpt lat="29.256749071327896" lon="-9.741344625057456"><ele>1024.3333333333333</ele><time>2026-04-28T08:24:13Z</time></trkpt><trkpt lat="29.256560048919713" lon="-9.741430391514328"><ele>1023.0</ele><time>2026-04-28T08:24:14Z</time></trkpt><trkpt lat="29.256366267404303" lon="-9.741518196807379"><ele>1022.3333333333333</ele><time>2026-04-28T08:24:15Z</time></trkpt><trkpt lat="29.256166586566952" lon="-9.741608353364658"><ele>1021.6666666666666</ele><time>2026-04-28T08:24:16Z</time></trkpt><trkpt lat="29.255962728412428" lon="-9.741698285883254"><ele>1021.0</ele><time>2026-04-28T08:24:17Z</time></trkpt><trkpt lat="29.25575753694379" lon="-9.741788897650137"><ele>1020.6666666666666</ele><time>2026-04-28T08:24:18Z</time></trkpt><trkpt lat="29.255552819539" lon="-9.741881577721182"><ele>1020.3333333333333</ele><time>2026-04-28T08:24:19Z</time></trkpt><trkpt lat="29.255347615635568" lon="-9.74197316121179"><ele>1020.0</ele><time>2026-04-28T08:24:20Z</time></trkpt><trkpt lat="29.255142601121864" lon="-9.742063666273703"><ele>1020.3333333333333</ele><time>2026-04-28T08:24:21Z</time></trkpt><trkpt lat="29.254937128786352" lon="-9.742153350305461"><ele>1020.6666666666666</ele><time>2026-04-28T08:24:22Z</time></trkpt><trkpt lat="29.254734034560197" lon="-9.742241797541839"><ele>1021.0</ele><time>2026-04-28T08:24:23Z</time></trkpt><trkpt lat="29.254539933986685" lon="-9.742328977257014"><ele>1021.0</ele><time>2026-04-28T08:24:24Z</time></trkpt><trkpt lat="29.25435249601439" lon="-9.742413584487052"><ele>1021.0</ele><time>2026-04-28T08:24:25Z</time></trkpt><trkpt lat="29.254164643249954" lon="-9.742497523629845"><ele>1021.0</ele><time>2026-04-28T08:24:26Z</time></trkpt><trkpt lat="29.253976831438536" lon="-9.742580706465512"><ele>1021.0</ele><time>2026-04-28T08:24:27Z</time></trkpt><trkpt lat="29.2537882387037" lon="-9.742663622863326"><ele>1021.0</ele><time>2026-04-28T08:24:28Z</time></trkpt><trkpt lat="29.253600591611228" lon="-9.742747193384448"><ele>1021.0</ele><time>2026-04-28T08:24:29Z</time></trkpt><trkpt lat="29.25341436663175" lon="-9.742829789257263"><ele>1020.6666666666666</ele><time>2026-04-28T08:24:30Z</time></trkpt><trkpt lat="29.253225951601742" lon="-9.742912060644816"><ele>1020.3333333333333</ele><time>2026-04-28T08:24:31Z</time></trkpt><trkpt lat="29.25303786973382" lon="-9.74299476571021"><ele>1020.0</ele><time>2026-04-28T08:24:32Z</time></trkpt><trkpt lat="29.252855127481233" lon="-9.74307591884514"><ele>1019.6666666666667</ele><time>2026-04-28T08:24:33Z</time></trkpt><trkpt lat="29.25267353703451" lon="-9.743156926469767"><ele>1019.3333333333334</ele><time>2026-04-28T08:24:34Z</time></trkpt><trkpt lat="29.252491796641447" lon="-9.743236675698702"><ele>1019.0</ele><time>2026-04-28T08:24:35Z</time></trkpt><trkpt lat="29.252311016247816" lon="-9.743313813010303"><ele>1020.0</ele><time>2026-04-28T08:24:36Z</time></trkpt><trkpt lat="29.252137354006113" lon="-9.743386870277266"><ele>1021.0</ele><time>2026-04-28T08:24:37Z</time></trkpt><trkpt lat="29.25196819392532" lon="-9.74345155769011"><ele>1022.0</ele><time>2026-04-28T08:24:38Z</time></trkpt><trkpt lat="29.251793417454962" lon="-9.743506047702107"><ele>1022.0</ele><time>2026-04-28T08:24:39Z</time></trkpt><trkpt lat="29.25161288152913" lon="-9.743545974309919"><ele>1022.0</ele><time>2026-04-28T08:24:40Z</time></trkpt><trkpt lat="29.25142778215578" lon="-9.743574401837083"><ele>1022.0</ele><time>2026-04-28T08:24:41Z</time></trkpt><trkpt lat="29.251243732404582" lon="-9.743595048599012"><ele>1022.6666666666667</ele><time>2026-04-28T08:24:42Z</time></trkpt><trkpt lat="29.25106365315047" lon="-9.743611358648392"><ele>1023.3333333333333</ele><time>2026-04-28T08:24:43Z</time></trkpt><trkpt lat="29.25088974694778" lon="-9.74362407486183"><ele>1024.0</ele><time>2026-04-28T08:24:44Z</time></trkpt><trkpt lat="29.250711034662675" lon="-9.743633292305018"><ele>1021.6666666666666</ele><time>2026-04-28T08:24:45Z</time></trkpt><trkpt lat="29.25052866763421" lon="-9.743642946058946"><ele>1019.3333333333333</ele><time>2026-04-28T08:24:46Z</time></trkpt><trkpt lat="29.25034661942621" lon="-9.74365998653263"><ele>1017.0</ele><time>2026-04-28T08:24:47Z</time></trkpt><trkpt lat="29.25016893052334" lon="-9.743690645845746"><ele>1017.0</ele><time>2026-04-28T08:24:48Z</time></trkpt><trkpt lat="29.2499930657027" lon="-9.743739585373362"><ele>1017.0</ele><time>2026-04-28T08:24:49Z</time></trkpt><trkpt lat="29.249821504867075" lon="-9.743806476899948"><ele>1017.0</ele><time>2026-04-28T08:24:50Z</time></trkpt><trkpt lat="29.249654971744082" lon="-9.743891016268599"><ele>1014.6666666666667</ele><time>2026-04-28T08:24:51Z</time></trkpt><trkpt lat="29.249495275187602" lon="-9.743990697245026"><ele>1012.3333333333334</ele><time>2026-04-28T08:24:52Z</time></trkpt><trkpt lat="29.249343256070652" lon="-9.744106707106905"><ele>1010.0</ele><time>2026-04-28T08:24:53Z</time></trkpt><trkpt lat="29.24920472012993" lon="-9.744225167447361"><ele>1010.0</ele><time>2026-04-28T08:24:54Z</time></trkpt><trkpt lat="29.249072406609727" lon="-9.744340461239695"><ele>1010.0</ele><time>2026-04-28T08:24:55Z</time></trkpt><trkpt lat="29.24894503892379" lon="-9.744452965946394"><ele>1010.0</ele><time>2026-04-28T08:24:56Z</time></trkpt><trkpt lat="29.24882414033789" lon="-9.744560113957423"><ele>1011.6666666666667</ele><time>2026-04-28T08:24:57Z</time></trkpt><trkpt lat="29.248701311188942" lon="-9.744670368921858"><ele>1013.3333333333333</ele><time>2026-04-28T08:24:58Z</time></trkpt><trkpt lat="29.24857851046366" lon="-9.744781272897171"><ele>1015.0</ele><time>2026-04-28T08:24:59Z</time></trkpt><trkpt lat="29.248466694822042" lon="-9.744911433852614"><ele>1015.0</ele><time>2026-04-28T08:25:00Z</time></trkpt><trkpt lat="29.248344396222134" lon="-9.745027989344864"><ele>1015.0</ele><time>2026-04-28T08:25:01Z</time></trkpt><trkpt lat="29.24822179059524" lon="-9.745144340843215"><ele>1015.0</ele><time>2026-04-28T08:25:02Z</time></trkpt><trkpt lat="29.24810056288048" lon="-9.745259397389544"><ele>1014.0</ele><time>2026-04-28T08:25:03Z</time></trkpt><trkpt lat="29.247976077000118" lon="-9.745370048846098"><ele>1013.0</ele><time>2026-04-28T08:25:04Z</time></trkpt><trkpt lat="29.247852738200393" lon="-9.74547879544356"><ele>1012.0</ele><time>2026-04-28T08:25:05Z</time></trkpt><trkpt lat="29.247724989636815" lon="-9.74559113511222"><ele>1012.0</ele><time>2026-04-28T08:25:06Z</time></trkpt><trkpt lat="29.247597576719897" lon="-9.745707695030566"><ele>1012.0</ele><time>2026-04-28T08:25:07Z</time></trkpt><trkpt lat="29.247471152175784" lon="-9.745822891328663"><ele>1012.0</ele><time>2026-04-28T08:25:08Z</time></trkpt><trkpt lat="29.24734868259559" lon="-9.74593448385195"><ele>1011.0</ele><time>2026-04-28T08:25:09Z</time></trkpt><trkpt lat="29.247223666183743" lon="-9.746024424843124"><ele>1010.0</ele><time>2026-04-28T08:25:10Z</time></trkpt><trkpt lat="29.247108989510473" lon="-9.746130270990069"><ele>1009.0</ele><time>2026-04-28T08:25:11Z</time></trkpt><trkpt lat="29.246994374302545" lon="-9.74623609650753"><ele>1008.0</ele><time>2026-04-28T08:25:12Z</time></trkpt><trkpt lat="29.246877935749815" lon="-9.746343044332454"><ele>1008.0</ele><time>2026-04-28T08:25:13Z</time></trkpt><trkpt lat="29.24675825196047" lon="-9.746451901770156"><ele>1008.0</ele><time>2026-04-28T08:25:14Z</time></trkpt><trkpt lat="29.246644260725905" lon="-9.746579085426376"><ele>1008.0</ele><time>2026-04-28T08:25:15Z</time></trkpt><trkpt lat="29.24651333980895" lon="-9.746701705364691"><ele>1007.3333333333333</ele><time>2026-04-28T08:25:16Z</time></trkpt><trkpt lat="29.24637876875324" lon="-9.74682544987929"><ele>1006.6666666666666</ele><time>2026-04-28T08:25:17Z</time></trkpt><trkpt lat="29.24623295405528" lon="-9.746941664544893"><ele>1006.0</ele><time>2026-04-28T08:25:18Z</time></trkpt><trkpt lat="29.246067397303133" lon="-9.747073613655568"><ele>1006.0</ele><time>2026-04-28T08:25:19Z</time></trkpt><trkpt lat="29.245889105570644" lon="-9.747209567986227"><ele>1006.0</ele><time>2026-04-28T08:25:20Z</time></trkpt><trkpt lat="29.24570628217" lon="-9.74734276579364"><ele>1006.0</ele><time>2026-04-28T08:25:21Z</time></trkpt><trkpt lat="29.24551730455912" lon="-9.747476483998772"><ele>1006.0</ele><time>2026-04-28T08:25:22Z</time></trkpt><trkpt lat="29.245315413303043" lon="-9.747612624806901"><ele>1006.0</ele><time>2026-04-28T08:25:23Z</time></trkpt><trkpt lat="29.245104211742852" lon="-9.747747162017118"><ele>1006.0</ele><time>2026-04-28T08:25:24Z</time></trkpt><trkpt lat="29.244897138601313" lon="-9.74787962359977"><ele>1006.0</ele><time>2026-04-28T08:25:25Z</time></trkpt><trkpt lat="29.2446879203205" lon="-9.748014506875302"><ele>1005.0</ele><time>2026-04-28T08:25:26Z</time></trkpt><trkpt lat="29.24448134004515" lon="-9.748147349655415"><ele>1004.0</ele><time>2026-04-28T08:25:27Z</time></trkpt><trkpt lat="29.2442843936468" lon="-9.748276999442604"><ele>1004.0</ele><time>2026-04-28T08:25:28Z</time></trkpt><trkpt lat="29.24409770552088" lon="-9.748399305275836"><ele>1004.0</ele><time>2026-04-28T08:25:29Z</time></trkpt><trkpt lat="29.243916203660305" lon="-9.748513666184225"><ele>1004.0</ele><time>2026-04-28T08:25:30Z</time></trkpt><trkpt lat="29.243741174091426" lon="-9.748619055319068"><ele>1005.3333333333334</ele><time>2026-04-28T08:25:31Z</time></trkpt><trkpt lat="29.243570093458974" lon="-9.7487212108918"><ele>1006.6666666666667</ele><time>2026-04-28T08:25:32Z</time></trkpt><trkpt lat="29.24338763168434" lon="-9.748809461529081"><ele>1008.0</ele><time>2026-04-28T08:25:33Z</time></trkpt><trkpt lat="29.243212339673306" lon="-9.748885660388897"><ele>1006.3333333333333</ele><time>2026-04-28T08:25:34Z</time></trkpt><trkpt lat="29.243025319383054" lon="-9.74893779896332"><ele>1004.6666666666666</ele><time>2026-04-28T08:25:35Z</time></trkpt><trkpt lat="29.242835231825637" lon="-9.748973505545393"><ele>1003.0</ele><time>2026-04-28T08:25:36Z</time></trkpt><trkpt lat="29.242643908550242" lon="-9.748987048257584"><ele>1003.0</ele><time>2026-04-28T08:25:37Z</time></trkpt><trkpt lat="29.242441677245072" lon="-9.748989034900301"><ele>1003.0</ele><time>2026-04-28T08:25:38Z</time></trkpt><trkpt lat="29.24223213898703" lon="-9.748975359151446"><ele>1003.0</ele><time>2026-04-28T08:25:39Z</time></trkpt><trkpt lat="29.24202049892575" lon="-9.748941945836075"><ele>1000.6666666666666</ele><time>2026-04-28T08:25:40Z</time></trkpt><trkpt lat="29.241802535498277" lon="-9.748906085429306"><ele>998.3333333333333</ele><time>2026-04-28T08:25:41Z</time></trkpt><trkpt lat="29.24158133768067" lon="-9.748870253812377"><ele>996.0</ele><time>2026-04-28T08:25:42Z</time></trkpt><trkpt lat="29.24135748417804" lon="-9.74884883335366"><ele>995.6666666666667</ele><time>2026-04-28T08:25:43Z</time></trkpt><trkpt lat="29.241137453306735" lon="-9.748837717476519"><ele>995.3333333333334</ele><time>2026-04-28T08:25:44Z</time></trkpt><trkpt lat="29.240922131691985" lon="-9.748837298795213"><ele>995.0</ele><time>2026-04-28T08:25:45Z</time></trkpt><trkpt lat="29.240706827331838" lon="-9.748842762604582"><ele>993.3333333333334</ele><time>2026-04-28T08:25:46Z</time></trkpt><trkpt lat="29.240492303779835" lon="-9.74884742748611"><ele>991.6666666666667</ele><time>2026-04-28T08:25:47Z</time></trkpt><trkpt lat="29.240286801183537" lon="-9.74884742748939"><ele>990.0</ele><time>2026-04-28T08:25:48Z</time></trkpt><trkpt lat="29.240086217084716" lon="-9.74884742749345"><ele>990.0</ele><time>2026-04-28T08:25:49Z</time></trkpt><trkpt lat="29.239888124496517" lon="-9.748833465954656"><ele>990.0</ele><time>2026-04-28T08:25:50Z</time></trkpt><trkpt lat="29.239684805012562" lon="-9.74878065016502"><ele>990.0</ele><time>2026-04-28T08:25:51Z</time></trkpt><trkpt lat="29.23947838109016" lon="-9.748731431374893"><ele>990.3333333333333</ele><time>2026-04-28T08:25:52Z</time></trkpt><trkpt lat="29.239270679269772" lon="-9.748660013746868"><ele>990.6666666666666</ele><time>2026-04-28T08:25:53Z</time></trkpt><trkpt lat="29.239060932603685" lon="-9.748570072440755"><ele>991.0</ele><time>2026-04-28T08:25:54Z</time></trkpt><trkpt lat="29.238854493535808" lon="-9.74847362881721"><ele>991.0</ele><time>2026-04-28T08:25:55Z</time></trkpt><trkpt lat="29.238651411154372" lon="-9.748376033526707"><ele>991.0</ele><time>2026-04-28T08:25:56Z</time></trkpt><trkpt lat="29.23845547761628" lon="-9.74828063120293"><ele>991.0</ele><time>2026-04-28T08:25:57Z</time></trkpt><trkpt lat="29.238268129735598" lon="-9.748189812289315"><ele>990.6666666666666</ele><time>2026-04-28T08:25:58Z</time></trkpt><trkpt lat="29.238079279042932" lon="-9.74813551284295"><ele>990.3333333333333</ele><time>2026-04-28T08:25:59Z</time></trkpt><trkpt lat="29.23789128505417" lon="-9.748078961673519"><ele>990.0</ele><time>2026-04-28T08:26:00Z</time></trkpt><trkpt lat="29.237699228429218" lon="-9.748032543515196"><ele>990.0</ele><time>2026-04-28T08:26:01Z</time></trkpt><trkpt lat="29.237501814817406" lon="-9.74801424824506"><ele>990.0</ele><time>2026-04-28T08:26:02Z</time></trkpt><trkpt lat="29.237293587702183" lon="-9.748005517549414"><ele>990.0</ele><time>2026-04-28T08:26:03Z</time></trkpt><trkpt lat="29.23708234710075" lon="-9.748007172040985"><ele>990.0</ele><time>2026-04-28T08:26:04Z</time></trkpt><trkpt lat="29.23686387404529" lon="-9.74802396394445"><ele>990.0</ele><time>2026-04-28T08:26:05Z</time></trkpt><trkpt lat="29.2366458990324" lon="-9.748070950752314"><ele>990.0</ele><time>2026-04-28T08:26:06Z</time></trkpt><trkpt lat="29.23641692703496" lon="-9.7481225412134"><ele>990.0</ele><time>2026-04-28T08:26:07Z</time></trkpt><trkpt lat="29.23618031716509" lon="-9.748180912753211"><ele>990.0</ele><time>2026-04-28T08:26:08Z</time></trkpt><trkpt lat="29.23594506603863" lon="-9.748239594137537"><ele>990.0</ele><time>2026-04-28T08:26:09Z</time></trkpt><trkpt lat="29.235710277630112" lon="-9.748296975071149"><ele>990.0</ele><time>2026-04-28T08:26:10Z</time></trkpt><trkpt lat="29.235474621567153" lon="-9.748354899766046"><ele>990.5</ele><time>2026-04-28T08:26:11Z</time></trkpt><trkpt lat="29.235233051069805" lon="-9.748415806167726"><ele>991.0</ele><time>2026-04-28T08:26:12Z</time></trkpt><trkpt lat="29.234970106843928" lon="-9.748482345374779"><ele>992.0</ele><time>2026-04-28T08:26:13Z</time></trkpt><trkpt lat="29.23469631067614" lon="-9.748552475279391"><ele>993.0</ele><time>2026-04-28T08:26:14Z</time></trkpt><trkpt lat="29.234428792504893" lon="-9.748620224477666"><ele>993.0</ele><time>2026-04-28T08:26:15Z</time></trkpt><trkpt lat="29.23416821524553" lon="-9.748685350775348"><ele>993.0</ele><time>2026-04-28T08:26:16Z</time></trkpt><trkpt lat="29.23392496611358" lon="-9.748744933433045"><ele>993.0</ele><time>2026-04-28T08:26:17Z</time></trkpt><trkpt lat="29.233689713122228" lon="-9.748802565977806"><ele>993.0</ele><time>2026-04-28T08:26:18Z</time></trkpt><trkpt lat="29.233466402309656" lon="-9.748857272914098"><ele>993.0</ele><time>2026-04-28T08:26:19Z</time></trkpt><trkpt lat="29.23325202872956" lon="-9.7489096904969"><ele>993.0</ele><time>2026-04-28T08:26:20Z</time></trkpt><trkpt lat="29.23304377031455" lon="-9.748960841772774"><ele>993.0</ele><time>2026-04-28T08:26:21Z</time></trkpt><trkpt lat="29.232835368251646" lon="-9.749015076512759"><ele>992.0</ele><time>2026-04-28T08:26:22Z</time></trkpt><trkpt lat="29.232624546920867" lon="-9.74906680744171"><ele>991.0</ele><time>2026-04-28T08:26:23Z</time></trkpt><trkpt lat="29.23241517662908" lon="-9.749109088230682"><ele>990.0</ele><time>2026-04-28T08:26:24Z</time></trkpt><trkpt lat="29.232204215800593" lon="-9.749147355033"><ele>989.0</ele><time>2026-04-28T08:26:25Z</time></trkpt><trkpt lat="29.23198928496909" lon="-9.74917624405321"><ele>988.0</ele><time>2026-04-28T08:26:26Z</time></trkpt><trkpt lat="29.231769901115424" lon="-9.749182774238692"><ele>987.0</ele><time>2026-04-28T08:26:27Z</time></trkpt><trkpt lat="29.231548634497646" lon="-9.749199147961326"><ele>986.5</ele><time>2026-04-28T08:26:28Z</time></trkpt><trkpt lat="29.231323715466644" lon="-9.74920905642825"><ele>986.0</ele><time>2026-04-28T08:26:29Z</time></trkpt><trkpt lat="29.231094068441834" lon="-9.749210090433644"><ele>986.0</ele><time>2026-04-28T08:26:30Z</time></trkpt><trkpt lat="29.230859988135144" lon="-9.749203922890574"><ele>986.0</ele><time>2026-04-28T08:26:31Z</time></trkpt><trkpt lat="29.230623042102646" lon="-9.749194112062185"><ele>984.5</ele><time>2026-04-28T08:26:32Z</time></trkpt><trkpt lat="29.230381367680618" lon="-9.749181182716375"><ele>983.0</ele><time>2026-04-28T08:26:33Z</time></trkpt><trkpt lat="29.230135377562476" lon="-9.749163845347555"><ele>983.0</ele><time>2026-04-28T08:26:34Z</time></trkpt><trkpt lat="29.229887976952394" lon="-9.74914239670058"><ele>983.0</ele><time>2026-04-28T08:26:35Z</time></trkpt><trkpt lat="29.229638543011024" lon="-9.74911820798114"><ele>982.5</ele><time>2026-04-28T08:26:36Z</time></trkpt><trkpt lat="29.229386565468715" lon="-9.749096199860949"><ele>982.0</ele><time>2026-04-28T08:26:37Z</time></trkpt><trkpt lat="29.229133758334495" lon="-9.749074575236534"><ele>981.0</ele><time>2026-04-28T08:26:38Z</time></trkpt><trkpt lat="29.22887827729615" lon="-9.74905447131383"><ele>980.0</ele><time>2026-04-28T08:26:39Z</time></trkpt><trkpt lat="29.228621532039455" lon="-9.749033504398328"><ele>980.0</ele><time>2026-04-28T08:26:40Z</time></trkpt><trkpt lat="29.228367474281058" lon="-9.749012956047133"><ele>980.0</ele><time>2026-04-28T08:26:41Z</time></trkpt><trkpt lat="29.2281180783391" lon="-9.748989859906978"><ele>980.5</ele><time>2026-04-28T08:26:42Z</time></trkpt><trkpt lat="29.227870375289857" lon="-9.748964963091602"><ele>981.0</ele><time>2026-04-28T08:26:43Z</time></trkpt><trkpt lat="29.22762485272146" lon="-9.748940824154463"><ele>981.0</ele><time>2026-04-28T08:26:44Z</time></trkpt><trkpt lat="29.227379047490476" lon="-9.748917083246372"><ele>981.0</ele><time>2026-04-28T08:26:45Z</time></trkpt><trkpt lat="29.22713196152856" lon="-9.74889405458071"><ele>978.5</ele><time>2026-04-28T08:26:46Z</time></trkpt><trkpt lat="29.226883202013532" lon="-9.748872766387828"><ele>976.0</ele><time>2026-04-28T08:26:47Z</time></trkpt><trkpt lat="29.22663682224515" lon="-9.748851300164619"><ele>974.5</ele><time>2026-04-28T08:26:48Z</time></trkpt><trkpt lat="29.226389879003236" lon="-9.748831737518108"><ele>973.0</ele><time>2026-04-28T08:26:49Z</time></trkpt><trkpt lat="29.22614268495991" lon="-9.748811222137192"><ele>973.0</ele><time>2026-04-28T08:26:50Z</time></trkpt><trkpt lat="29.22589214734957" lon="-9.748790495218511"><ele>973.0</ele><time>2026-04-28T08:26:51Z</time></trkpt><trkpt lat="29.22563951046401" lon="-9.748767972178824"><ele>970.5</ele><time>2026-04-28T08:26:52Z</time></trkpt><trkpt lat="29.225384775333172" lon="-9.748745944563765"><ele>968.0</ele><time>2026-04-28T08:26:53Z</time></trkpt><trkpt lat="29.225128874232155" lon="-9.748722507773667"><ele>968.0</ele><time>2026-04-28T08:26:54Z</time></trkpt><trkpt lat="29.224873767348424" lon="-9.748700627914708"><ele>968.0</ele><time>2026-04-28T08:26:55Z</time></trkpt><trkpt lat="29.224618031945884" lon="-9.748679063868968"><ele>968.0</ele><time>2026-04-28T08:26:56Z</time></trkpt><trkpt lat="29.22436225337712" lon="-9.748656641354733"><ele>968.0</ele><time>2026-04-28T08:26:57Z</time></trkpt><trkpt lat="29.224107297180495" lon="-9.74863432905124"><ele>966.5</ele><time>2026-04-28T08:26:58Z</time></trkpt><trkpt lat="29.223854740579963" lon="-9.748613312094937"><ele>965.0</ele><time>2026-04-28T08:26:59Z</time></trkpt><trkpt lat="29.22360900859921" lon="-9.748590331090961"><ele>965.0</ele><time>2026-04-28T08:27:00Z</time></trkpt><trkpt lat="29.223375110740403" lon="-9.748570157395873"><ele>965.0</ele><time>2026-04-28T08:27:01Z</time></trkpt><trkpt lat="29.223149655896776" lon="-9.74854946968056"><ele>962.0</ele><time>2026-04-28T08:27:02Z</time></trkpt><trkpt lat="29.222932619461055" lon="-9.748530707170072"><ele>959.0</ele><time>2026-04-28T08:27:03Z</time></trkpt><trkpt lat="29.222718740733924" lon="-9.748511989316697"><ele>956.0</ele><time>2026-04-28T08:27:04Z</time></trkpt><trkpt lat="29.222501187236325" lon="-9.748495164976635"><ele>955.3333333333334</ele><time>2026-04-28T08:27:05Z</time></trkpt><trkpt lat="29.22228267558581" lon="-9.74847739891818"><ele>954.6666666666667</ele><time>2026-04-28T08:27:06Z</time></trkpt><trkpt lat="29.22206303806616" lon="-9.748458876333897"><ele>954.0</ele><time>2026-04-28T08:27:07Z</time></trkpt><trkpt lat="29.22184040824846" lon="-9.74844271284044"><ele>954.0</ele><time>2026-04-28T08:27:08Z</time></trkpt><trkpt lat="29.221614779557918" lon="-9.748433802180632"><ele>954.0</ele><time>2026-04-28T08:27:09Z</time></trkpt><trkpt lat="29.22139135229062" lon="-9.74843266150465"><ele>954.0</ele><time>2026-04-28T08:27:10Z</time></trkpt><trkpt lat="29.22117234249036" lon="-9.748440107420581"><ele>953.3333333333333</ele><time>2026-04-28T08:27:11Z</time></trkpt><trkpt lat="29.220962187640968" lon="-9.748451379849499"><ele>952.6666666666666</ele><time>2026-04-28T08:27:12Z</time></trkpt><trkpt lat="29.220760282246236" lon="-9.748463799304787"><ele>952.0</ele><time>2026-04-28T08:27:13Z</time></trkpt><trkpt lat="29.220560919088744" lon="-9.748472817110168"><ele>950.6666666666666</ele><time>2026-04-28T08:27:14Z</time></trkpt><trkpt lat="29.220359392071437" lon="-9.7484809984469"><ele>949.3333333333333</ele><time>2026-04-28T08:27:15Z</time></trkpt><trkpt lat="29.220160180823576" lon="-9.748490049007806"><ele>948.0</ele><time>2026-04-28T08:27:16Z</time></trkpt><trkpt lat="29.219959345626492" lon="-9.748499593439183"><ele>947.6666666666667</ele><time>2026-04-28T08:27:17Z</time></trkpt><trkpt lat="29.219758092739713" lon="-9.748509974292258"><ele>947.3333333333334</ele><time>2026-04-28T08:27:18Z</time></trkpt><trkpt lat="29.219556607136653" lon="-9.748519114007664"><ele>947.0</ele><time>2026-04-28T08:27:19Z</time></trkpt><trkpt lat="29.219356226727964" lon="-9.748517916615599"><ele>947.0</ele><time>2026-04-28T08:27:20Z</time></trkpt><trkpt lat="29.219156213554378" lon="-9.748501068275745"><ele>947.0</ele><time>2026-04-28T08:27:21Z</time></trkpt><trkpt lat="29.218958581417485" lon="-9.74846741815718"><ele>947.0</ele><time>2026-04-28T08:27:22Z</time></trkpt><trkpt lat="29.218760606837495" lon="-9.748417413951746"><ele>946.6666666666667</ele><time>2026-04-28T08:27:23Z</time></trkpt><trkpt lat="29.21857095992464" lon="-9.748358849983106"><ele>946.3333333333333</ele><time>2026-04-28T08:27:24Z</time></trkpt><trkpt lat="29.218390082459134" lon="-9.74829605998107"><ele>946.0</ele><time>2026-04-28T08:27:25Z</time></trkpt><trkpt lat="29.21821607678819" lon="-9.748235897871698"><ele>944.3333333333333</ele><time>2026-04-28T08:27:26Z</time></trkpt><trkpt lat="29.218045076475082" lon="-9.748178187341708"><ele>942.6666666666667</ele><time>2026-04-28T08:27:27Z</time></trkpt><trkpt lat="29.217878115572066" lon="-9.748130575686602"><ele>941.0</ele><time>2026-04-28T08:27:28Z</time></trkpt><trkpt lat="29.217711980255054" lon="-9.748107477344833"><ele>941.0</ele><time>2026-04-28T08:27:29Z</time></trkpt><trkpt lat="29.217545875129215" lon="-9.748103680739712"><ele>941.0</ele><time>2026-04-28T08:27:30Z</time></trkpt><trkpt lat="29.217378506569148" lon="-9.748132087682896"><ele>941.0</ele><time>2026-04-28T08:27:31Z</time></trkpt><trkpt lat="29.21720681862105" lon="-9.748162624810645"><ele>940.3333333333334</ele><time>2026-04-28T08:27:32Z</time></trkpt><trkpt lat="29.21702987995908" lon="-9.74817883330866"><ele>939.6666666666667</ele><time>2026-04-28T08:27:33Z</time></trkpt><trkpt lat="29.216849498158165" lon="-9.748177143030833"><ele>939.0</ele><time>2026-04-28T08:27:34Z</time></trkpt><trkpt lat="29.216668054365762" lon="-9.748169251439933"><ele>939.0</ele><time>2026-04-28T08:27:35Z</time></trkpt><trkpt lat="29.216487110541713" lon="-9.748173902183655"><ele>939.0</ele><time>2026-04-28T08:27:36Z</time></trkpt><trkpt lat="29.216305319629985" lon="-9.748197667204014"><ele>939.0</ele><time>2026-04-28T08:27:37Z</time></trkpt><trkpt lat="29.216123912224955" lon="-9.748230247287973"><ele>937.3333333333333</ele><time>2026-04-28T08:27:38Z</time></trkpt><trkpt lat="29.215941493544477" lon="-9.748261787862374"><ele>935.6666666666666</ele><time>2026-04-28T08:27:39Z</time></trkpt><trkpt lat="29.215756307890135" lon="-9.748284208670029"><ele>934.0</ele><time>2026-04-28T08:27:40Z</time></trkpt><trkpt lat="29.215572982660632" lon="-9.748297778330665"><ele>932.0</ele><time>2026-04-28T08:27:41Z</time></trkpt><trkpt lat="29.21539344129075" lon="-9.748305638424814"><ele>930.0</ele><time>2026-04-28T08:27:42Z</time></trkpt><trkpt lat="29.215217186587324" lon="-9.748315763773622"><ele>928.0</ele><time>2026-04-28T08:27:43Z</time></trkpt><trkpt lat="29.215044143232326" lon="-9.74833071546777"><ele>928.0</ele><time>2026-04-28T08:27:44Z</time></trkpt><trkpt lat="29.214872382240657" lon="-9.748345647595093"><ele>928.0</ele><time>2026-04-28T08:27:45Z</time></trkpt><trkpt lat="29.214703078163588" lon="-9.748360423495837"><ele>928.0</ele><time>2026-04-28T08:27:46Z</time></trkpt><trkpt lat="29.214537049468735" lon="-9.74838384736146"><ele>927.0</ele><time>2026-04-28T08:27:47Z</time></trkpt><trkpt lat="29.214377729726017" lon="-9.74842195999535"><ele>926.0</ele><time>2026-04-28T08:27:48Z</time></trkpt><trkpt lat="29.214226618363575" lon="-9.748499781257673"><ele>925.0</ele><time>2026-04-28T08:27:49Z</time></trkpt><trkpt lat="29.214073419511195" lon="-9.748581505654899"><ele>926.0</ele><time>2026-04-28T08:27:50Z</time></trkpt><trkpt lat="29.21392465714666" lon="-9.748680984502643"><ele>927.0</ele><time>2026-04-28T08:27:51Z</time></trkpt><trkpt lat="29.21377588831335" lon="-9.748783820287871"><ele>928.0</ele><time>2026-04-28T08:27:52Z</time></trkpt><trkpt lat="29.213617985338452" lon="-9.748863746598683"><ele>928.0</ele><time>2026-04-28T08:27:53Z</time></trkpt><trkpt lat="29.213452400223147" lon="-9.748905022865536"><ele>928.0</ele><time>2026-04-28T08:27:54Z</time></trkpt><trkpt lat="29.213283387369852" lon="-9.748903832121771"><ele>928.0</ele><time>2026-04-28T08:27:55Z</time></trkpt><trkpt lat="29.213129727579812" lon="-9.748864778717403"><ele>925.5</ele><time>2026-04-28T08:27:56Z</time></trkpt><trkpt lat="29.21297895171175" lon="-9.748835199255542"><ele>923.0</ele><time>2026-04-28T08:27:57Z</time></trkpt><trkpt lat="29.212832562717047" lon="-9.748805999938355"><ele>920.5</ele><time>2026-04-28T08:27:58Z</time></trkpt><trkpt lat="29.212690116863868" lon="-9.748796525836603"><ele>918.0</ele><time>2026-04-28T08:27:59Z</time></trkpt><trkpt lat="29.212557827321405" lon="-9.748846644128001"><ele>918.0</ele><time>2026-04-28T08:28:00Z</time></trkpt><trkpt lat="29.2124399535204" lon="-9.748909151307473"><ele>918.0</ele><time>2026-04-28T08:28:01Z</time></trkpt><trkpt lat="29.212314904659888" lon="-9.74898845203302"><ele>918.0</ele><time>2026-04-28T08:28:02Z</time></trkpt><trkpt lat="29.212188505446345" lon="-9.749075794847526"><ele>918.0</ele><time>2026-04-28T08:28:03Z</time></trkpt><trkpt lat="29.21205423088172" lon="-9.749134413127523"><ele>916.75</ele><time>2026-04-28T08:28:04Z</time></trkpt><trkpt lat="29.21194817960556" lon="-9.749178663979258"><ele>915.5</ele><time>2026-04-28T08:28:05Z</time></trkpt><trkpt lat="29.211843668371355" lon="-9.749192102391442"><ele>914.25</ele><time>2026-04-28T08:28:06Z</time></trkpt><trkpt lat="29.211730082806955" lon="-9.74917356953042"><ele>913.0</ele><time>2026-04-28T08:28:07Z</time></trkpt><trkpt lat="29.211614457225025" lon="-9.749128094196188"><ele>912.25</ele><time>2026-04-28T08:28:08Z</time></trkpt><trkpt lat="29.211489038871733" lon="-9.749084400966911"><ele>911.5</ele><time>2026-04-28T08:28:09Z</time></trkpt><trkpt lat="29.211370169157476" lon="-9.748986979813846"><ele>910.75</ele><time>2026-04-28T08:28:10Z</time></trkpt><trkpt lat="29.211234372624137" lon="-9.748935234121012"><ele>910.0</ele><time>2026-04-28T08:28:11Z</time></trkpt><trkpt lat="29.21111131444998" lon="-9.748894055609947"><ele>910.0</ele><time>2026-04-28T08:28:12Z</time></trkpt><trkpt lat="29.210980107623058" lon="-9.7488684422998"><ele>910.0</ele><time>2026-04-28T08:28:13Z</time></trkpt><trkpt lat="29.21084932913551" lon="-9.748919675948537"><ele>910.0</ele><time>2026-04-28T08:28:14Z</time></trkpt><trkpt lat="29.210754665887436" lon="-9.74900550238528"><ele>910.0</ele><time>2026-04-28T08:28:15Z</time></trkpt><trkpt lat="29.21064646926437" lon="-9.749090513968017"><ele>910.25</ele><time>2026-04-28T08:28:16Z</time></trkpt><trkpt lat="29.210530738872208" lon="-9.749181830781922"><ele>910.5</ele><time>2026-04-28T08:28:17Z</time></trkpt><trkpt lat="29.21042003783359" lon="-9.749268254057306"><ele>910.75</ele><time>2026-04-28T08:28:18Z</time></trkpt><trkpt lat="29.21030765888454" lon="-9.74934236673715"><ele>911.0</ele><time>2026-04-28T08:28:19Z</time></trkpt><trkpt lat="29.210192248255936" lon="-9.749385927783784"><ele>909.75</ele><time>2026-04-28T08:28:20Z</time></trkpt><trkpt lat="29.210082730404995" lon="-9.749419193203476"><ele>908.5</ele><time>2026-04-28T08:28:21Z</time></trkpt><trkpt lat="29.209962841679555" lon="-9.749420427110094"><ele>907.25</ele><time>2026-04-28T08:28:22Z</time></trkpt><trkpt lat="29.20984271242748" lon="-9.749392319062986"><ele>906.0</ele><time>2026-04-28T08:28:23Z</time></trkpt><trkpt lat="29.209742590828306" lon="-9.749330416539303"><ele>904.25</ele><time>2026-04-28T08:28:24Z</time></trkpt><trkpt lat="29.209661883461305" lon="-9.749235539490984"><ele>902.5</ele><time>2026-04-28T08:28:25Z</time></trkpt><trkpt lat="29.209593540271232" lon="-9.749110213652557"><ele>900.75</ele><time>2026-04-28T08:28:26Z</time></trkpt><trkpt lat="29.209520699917583" lon="-9.7489731880306"><ele>899.0</ele><time>2026-04-28T08:28:27Z</time></trkpt><trkpt lat="29.20944188215975" lon="-9.748834471350666"><ele>899.0</ele><time>2026-04-28T08:28:28Z</time></trkpt><trkpt lat="29.209363666132514" lon="-9.748708046499777"><ele>899.0</ele><time>2026-04-28T08:28:29Z</time></trkpt><trkpt lat="29.20928052967385" lon="-9.748596585472422"><ele>899.0</ele><time>2026-04-28T08:28:30Z</time></trkpt><trkpt lat="29.209182896485206" lon="-9.748515825569589"><ele>899.0</ele><time>2026-04-28T08:28:31Z</time></trkpt><trkpt lat="29.209071929722576" lon="-9.74848386746634"><ele>899.5</ele><time>2026-04-28T08:28:32Z</time></trkpt><trkpt lat="29.208962057403976" lon="-9.748494729118786"><ele>900.0</ele><time>2026-04-28T08:28:33Z</time></trkpt><trkpt lat="29.208852165223014" lon="-9.748556641105935"><ele>900.5</ele><time>2026-04-28T08:28:34Z</time></trkpt><trkpt lat="29.208731084667992" lon="-9.748606203834163"><ele>901.0</ele><time>2026-04-28T08:28:35Z</time></trkpt><trkpt lat="29.208620761492217" lon="-9.748662140458128"><ele>901.0</ele><time>2026-04-28T08:28:36Z</time></trkpt><trkpt lat="29.208507786965313" lon="-9.748724012229037"><ele>901.0</ele><time>2026-04-28T08:28:37Z</time></trkpt><trkpt lat="29.20841052416939" lon="-9.748793493711633"><ele>901.0</ele><time>2026-04-28T08:28:38Z</time></trkpt><trkpt lat="29.208324200179987" lon="-9.748869990824998"><ele>901.0</ele><time>2026-04-28T08:28:39Z</time></trkpt><trkpt lat="29.208249263360806" lon="-9.748956032555228"><ele>901.0</ele><time>2026-04-28T08:28:40Z</time></trkpt><trkpt lat="29.20822254008208" lon="-9.74907603783678"><ele>900.9999999999999</ele><time>2026-04-28T08:28:41Z</time></trkpt><trkpt lat="29.20818990647922" lon="-9.749188928301844"><ele>900.9999999999999</ele><time>2026-04-28T08:28:42Z</time></trkpt><trkpt lat="29.208187670955486" lon="-9.749312012219507"><ele>901.0</ele><time>2026-04-28T08:28:43Z</time></trkpt><trkpt lat="29.208208754092727" lon="-9.749447936528538"><ele>901.0</ele><time>2026-04-28T08:28:44Z</time></trkpt><trkpt lat="29.208200701136008" lon="-9.749583685803762"><ele>899.0</ele><time>2026-04-28T08:28:45Z</time></trkpt><trkpt lat="29.208175917269568" lon="-9.749713349261386"><ele>897.0</ele><time>2026-04-28T08:28:46Z</time></trkpt><trkpt lat="29.208143314206854" lon="-9.749829834237888"><ele>895.0</ele><time>2026-04-28T08:28:47Z</time></trkpt><trkpt lat="29.20804153275007" lon="-9.749938516807985"><ele>893.0</ele><time>2026-04-28T08:28:48Z</time></trkpt><trkpt lat="29.207940268620753" lon="-9.750026324660563"><ele>893.0</ele><time>2026-04-28T08:28:49Z</time></trkpt><trkpt lat="29.20778024024756" lon="-9.750018160456568"><ele>893.0</ele><time>2026-04-28T08:28:50Z</time></trkpt><trkpt lat="29.207640411640416" lon="-9.7500190847809"><ele>893.0</ele><time>2026-04-28T08:28:51Z</time></trkpt><trkpt lat="29.207493700101324" lon="-9.749995290714024"><ele>893.0</ele><time>2026-04-28T08:28:52Z</time></trkpt><trkpt lat="29.207351603570494" lon="-9.749955967698288"><ele>890.25</ele><time>2026-04-28T08:28:53Z</time></trkpt><trkpt lat="29.207215485467763" lon="-9.749900525227229"><ele>887.5</ele><time>2026-04-28T08:28:54Z</time></trkpt><trkpt lat="29.207091710455245" lon="-9.749830126005845"><ele>884.75</ele><time>2026-04-28T08:28:55Z</time></trkpt><trkpt lat="29.206979932672663" lon="-9.749750058539574"><ele>882.0</ele><time>2026-04-28T08:28:56Z</time></trkpt><trkpt lat="29.206872695465805" lon="-9.7496744605866"><ele>882.0</ele><time>2026-04-28T08:28:57Z</time></trkpt><trkpt lat="29.206764530275866" lon="-9.749612979667488"><ele>882.0</ele><time>2026-04-28T08:28:58Z</time></trkpt><trkpt lat="29.20664916241357" lon="-9.749572030879351"><ele>882.0</ele><time>2026-04-28T08:28:59Z</time></trkpt><trkpt lat="29.206523232193742" lon="-9.749551997407815"><ele>882.0</ele><time>2026-04-28T08:29:00Z</time></trkpt><trkpt lat="29.206401983181074" lon="-9.749595354669227"><ele>885.0</ele><time>2026-04-28T08:29:01Z</time></trkpt><trkpt lat="29.206289455973785" lon="-9.749643108877603"><ele>888.0</ele><time>2026-04-28T08:29:02Z</time></trkpt><trkpt lat="29.20617243485071" lon="-9.749714710940133"><ele>891.0</ele><time>2026-04-28T08:29:03Z</time></trkpt><trkpt lat="29.2060624442465" lon="-9.749793588256871"><ele>894.0</ele><time>2026-04-28T08:29:04Z</time></trkpt><trkpt lat="29.20595940563563" lon="-9.749873336756012"><ele>894.0</ele><time>2026-04-28T08:29:05Z</time></trkpt><trkpt lat="29.205871728564876" lon="-9.749987461793424"><ele>894.0</ele><time>2026-04-28T08:29:06Z</time></trkpt><trkpt lat="29.20580142011246" lon="-9.750116254890386"><ele>894.0</ele><time>2026-04-28T08:29:07Z</time></trkpt><trkpt lat="29.205747915165933" lon="-9.750250851483173"><ele>894.0</ele><time>2026-04-28T08:29:08Z</time></trkpt><trkpt lat="29.205699610973454" lon="-9.750377888907435"><ele>889.2</ele><time>2026-04-28T08:29:09Z</time></trkpt><trkpt lat="29.205635359166102" lon="-9.750479681786004"><ele>884.4000000000001</ele><time>2026-04-28T08:29:10Z</time></trkpt><trkpt lat="29.20555493185078" lon="-9.750542115024096"><ele>879.6</ele><time>2026-04-28T08:29:11Z</time></trkpt><trkpt lat="29.20545873050796" lon="-9.750570126284543"><ele>874.8</ele><time>2026-04-28T08:29:12Z</time></trkpt><trkpt lat="29.20534743652187" lon="-9.750554452851441"><ele>870.0</ele><time>2026-04-28T08:29:13Z</time></trkpt><trkpt lat="29.20522145183127" lon="-9.750506050730808"><ele>870.0</ele><time>2026-04-28T08:29:14Z</time></trkpt><trkpt lat="29.20509111664214" lon="-9.750436706791913"><ele>870.0</ele><time>2026-04-28T08:29:15Z</time></trkpt><trkpt lat="29.204963575601987" lon="-9.750359572097388"><ele>870.0</ele><time>2026-04-28T08:29:16Z</time></trkpt><trkpt lat="29.20484285339578" lon="-9.750282644838624"><ele>870.0</ele><time>2026-04-28T08:29:17Z</time></trkpt><trkpt lat="29.204729937903657" lon="-9.750211037056046"><ele>875.0</ele><time>2026-04-28T08:29:18Z</time></trkpt><trkpt lat="29.204611983705565" lon="-9.750172977817472"><ele>880.0</ele><time>2026-04-28T08:29:19Z</time></trkpt><trkpt lat="29.204502440264875" lon="-9.750145445231473"><ele>885.0</ele><time>2026-04-28T08:29:20Z</time></trkpt><trkpt lat="29.204390453648113" lon="-9.75014293514238"><ele>890.0</ele><time>2026-04-28T08:29:21Z</time></trkpt><trkpt lat="29.204262139906742" lon="-9.750148463557398"><ele>890.0</ele><time>2026-04-28T08:29:22Z</time></trkpt><trkpt lat="29.204118474356317" lon="-9.750165229926258"><ele>890.0</ele><time>2026-04-28T08:29:23Z</time></trkpt><trkpt lat="29.20397026978611" lon="-9.75019586485982"><ele>890.0</ele><time>2026-04-28T08:29:24Z</time></trkpt><trkpt lat="29.203816919668597" lon="-9.750229652769933"><ele>884.0</ele><time>2026-04-28T08:29:25Z</time></trkpt><trkpt lat="29.203663841897544" lon="-9.750214611650316"><ele>878.0</ele><time>2026-04-28T08:29:26Z</time></trkpt><trkpt lat="29.20352391486415" lon="-9.750148645689944"><ele>872.0</ele><time>2026-04-28T08:29:27Z</time></trkpt><trkpt lat="29.203389772593436" lon="-9.750072033387138"><ele>872.0</ele><time>2026-04-28T08:29:28Z</time></trkpt><trkpt lat="29.20325279147098" lon="-9.750023049498006"><ele>872.0</ele><time>2026-04-28T08:29:29Z</time></trkpt><trkpt lat="29.203109539825977" lon="-9.74998770704018"><ele>872.0</ele><time>2026-04-28T08:29:30Z</time></trkpt><trkpt lat="29.202959326232488" lon="-9.749972173783924"><ele>872.0</ele><time>2026-04-28T08:29:31Z</time></trkpt><trkpt lat="29.20281766911956" lon="-9.749958019832578"><ele>868.0</ele><time>2026-04-28T08:29:32Z</time></trkpt><trkpt lat="29.20268414651608" lon="-9.749922700493986"><ele>864.0</ele><time>2026-04-28T08:29:33Z</time></trkpt><trkpt lat="29.202565065291857" lon="-9.749849655946964"><ele>860.0</ele><time>2026-04-28T08:29:34Z</time></trkpt><trkpt lat="29.20246713738523" lon="-9.749750199791077"><ele>856.0</ele><time>2026-04-28T08:29:35Z</time></trkpt><trkpt lat="29.20238009314489" lon="-9.749650675137906"><ele>852.75</ele><time>2026-04-28T08:29:36Z</time></trkpt><trkpt lat="29.202271291982434" lon="-9.749585506744591"><ele>849.5</ele><time>2026-04-28T08:29:37Z</time></trkpt><trkpt lat="29.202163530318018" lon="-9.749540654291476"><ele>846.25</ele><time>2026-04-28T08:29:38Z</time></trkpt><trkpt lat="29.20205278521294" lon="-9.749505686101642"><ele>843.0</ele><time>2026-04-28T08:29:39Z</time></trkpt><trkpt lat="29.201943835707706" lon="-9.749485358421467"><ele>843.0</ele><time>2026-04-28T08:29:40Z</time></trkpt><trkpt lat="29.20183842035205" lon="-9.749476625729914"><ele>843.0</ele><time>2026-04-28T08:29:41Z</time></trkpt><trkpt lat="29.201730420295235" lon="-9.749481411180897"><ele>843.0</ele><time>2026-04-28T08:29:42Z</time></trkpt><trkpt lat="29.201629815283173" lon="-9.749501957675857"><ele>843.0</ele><time>2026-04-28T08:29:43Z</time></trkpt><trkpt lat="29.201526623526" lon="-9.749545078631456"><ele>843.0</ele><time>2026-04-28T08:29:44Z</time></trkpt><trkpt lat="29.201421877453058" lon="-9.749605099210287"><ele>843.2</ele><time>2026-04-28T08:29:45Z</time></trkpt><trkpt lat="29.201315823726762" lon="-9.749662564204687"><ele>843.4</ele><time>2026-04-28T08:29:46Z</time></trkpt><trkpt lat="29.201228836530994" lon="-9.74974152503915"><ele>843.6</ele><time>2026-04-28T08:29:47Z</time></trkpt><trkpt lat="29.201155331371638" lon="-9.749819113469709"><ele>843.8000000000001</ele><time>2026-04-28T08:29:48Z</time></trkpt><trkpt lat="29.201099625995873" lon="-9.74988653420632"><ele>844.0</ele><time>2026-04-28T08:29:49Z</time></trkpt><trkpt lat="29.201055936236422" lon="-9.749939709256639"><ele>843.9999999999999</ele><time>2026-04-28T08:29:50Z</time></trkpt><trkpt lat="29.200989645976012" lon="-9.750018490716252"><ele>844.0</ele><time>2026-04-28T08:29:52Z</time></trkpt><trkpt lat="29.200941436021377" lon="-9.750064911777095"><ele>844.0</ele><time>2026-04-28T08:29:54Z</time></trkpt><trkpt lat="29.20087871171723" lon="-9.7500820606877"><ele>844.0</ele><time>2026-04-28T08:29:57Z</time></trkpt><trkpt lat="29.20080438046939" lon="-9.75007685897929"><ele>843.9999999999999</ele><time>2026-04-28T08:30:01Z</time></trkpt><trkpt lat="29.200693335319198" lon="-9.749972626232255"><ele>844.0</ele><time>2026-04-28T08:47:13Z</time></trkpt><trkpt lat="29.20066519965059" lon="-9.749890352067286"><ele>841.4000000000001</ele><time>2026-04-28T08:47:14Z</time></trkpt><trkpt lat="29.200605641775844" lon="-9.749798502853618"><ele>838.8</ele><time>2026-04-28T08:47:15Z</time></trkpt><trkpt lat="29.20051792359533" lon="-9.749717250751749"><ele>836.2</ele><time>2026-04-28T08:47:16Z</time></trkpt><trkpt lat="29.200419616925835" lon="-9.74966743961648"><ele>833.5999999999999</ele><time>2026-04-28T08:47:17Z</time></trkpt><trkpt lat="29.200324886168" lon="-9.749664049802064"><ele>831.0</ele><time>2026-04-28T08:47:18Z</time></trkpt><trkpt lat="29.200240184353234" lon="-9.749633583276973"><ele>831.0</ele><time>2026-04-28T08:47:19Z</time></trkpt><trkpt lat="29.20016075439755" lon="-9.749675043491266"><ele>831.0</ele><time>2026-04-28T08:47:20Z</time></trkpt><trkpt lat="29.200087232651992" lon="-9.749687505090861"><ele>831.0</ele><time>2026-04-28T08:47:21Z</time></trkpt><trkpt lat="29.200017288849903" lon="-9.749694338899022"><ele>831.0</ele><time>2026-04-28T08:47:22Z</time></trkpt><trkpt lat="29.199951074043426" lon="-9.749686341572152"><ele>831.0</ele><time>2026-04-28T08:47:23Z</time></trkpt><trkpt lat="29.199880003944294" lon="-9.749681050967002"><ele>831.0</ele><time>2026-04-28T08:47:24Z</time></trkpt><trkpt lat="29.199795761403003" lon="-9.74965359393532"><ele>828.5999999999999</ele><time>2026-04-28T08:47:25Z</time></trkpt><trkpt lat="29.199699671912114" lon="-9.749594052485763"><ele>826.2</ele><time>2026-04-28T08:47:26Z</time></trkpt><trkpt lat="29.19962068619085" lon="-9.74949415624884"><ele>823.8</ele><time>2026-04-28T08:47:27Z</time></trkpt><trkpt lat="29.199559964707234" lon="-9.749394704660585"><ele>821.4000000000001</ele><time>2026-04-28T08:47:28Z</time></trkpt><trkpt lat="29.199499843636794" lon="-9.74931392812765"><ele>819.0</ele><time>2026-04-28T08:47:29Z</time></trkpt><trkpt lat="29.19944111760664" lon="-9.749238597453868"><ele>824.4000000000001</ele><time>2026-04-28T08:47:30Z</time></trkpt><trkpt lat="29.199382641201403" lon="-9.749169737680464"><ele>829.8</ele><time>2026-04-28T08:47:31Z</time></trkpt><trkpt lat="29.199315730252458" lon="-9.749099420543898"><ele>835.2</ele><time>2026-04-28T08:47:32Z</time></trkpt><trkpt lat="29.199213386279656" lon="-9.749063713453657"><ele>840.5999999999999</ele><time>2026-04-28T08:47:33Z</time></trkpt><trkpt lat="29.19910551293334" lon="-9.749027221335677"><ele>846.0</ele><time>2026-04-28T08:47:34Z</time></trkpt><trkpt lat="29.19898265339705" lon="-9.749016089712615"><ele>846.25</ele><time>2026-04-28T08:47:35Z</time></trkpt><trkpt lat="29.19884948850113" lon="-9.749027702539932"><ele>846.5</ele><time>2026-04-28T08:47:36Z</time></trkpt><trkpt lat="29.198711970880602" lon="-9.749060374141388"><ele>846.75</ele><time>2026-04-28T08:47:37Z</time></trkpt><trkpt lat="29.198577117834514" lon="-9.749142936621308"><ele>847.0</ele><time>2026-04-28T08:47:38Z</time></trkpt><trkpt lat="29.19843124210767" lon="-9.749261301602802"><ele>837.0</ele><time>2026-04-28T08:47:39Z</time></trkpt><trkpt lat="29.198304169428138" lon="-9.749383394715744"><ele>827.0</ele><time>2026-04-28T08:47:40Z</time></trkpt><trkpt lat="29.19817452142155" lon="-9.749489143174074"><ele>817.0</ele><time>2026-04-28T08:47:41Z</time></trkpt><trkpt lat="29.198074913737262" lon="-9.74960360369992"><ele>817.0</ele><time>2026-04-28T08:47:42Z</time></trkpt><trkpt lat="29.197956351127402" lon="-9.749650845117204"><ele>817.0</ele><time>2026-04-28T08:47:43Z</time></trkpt><trkpt lat="29.197844318127867" lon="-9.74968451351023"><ele>817.0</ele><time>2026-04-28T08:47:44Z</time></trkpt><trkpt lat="29.197723109618785" lon="-9.749681630661401"><ele>817.0</ele><time>2026-04-28T08:47:45Z</time></trkpt><trkpt lat="29.197597720951112" lon="-9.749650368150123"><ele>817.0</ele><time>2026-04-28T08:47:46Z</time></trkpt><trkpt lat="29.197480535556593" lon="-9.74959202643376"><ele>817.0</ele><time>2026-04-28T08:47:47Z</time></trkpt><trkpt lat="29.197370380308744" lon="-9.74949542005449"><ele>817.0</ele><time>2026-04-28T08:47:48Z</time></trkpt><trkpt lat="29.197269673176503" lon="-9.749351500806107"><ele>817.0</ele><time>2026-04-28T08:47:49Z</time></trkpt><trkpt lat="29.197173373654714" lon="-9.74917953049556"><ele>812.3333333333333</ele><time>2026-04-28T08:47:50Z</time></trkpt><trkpt lat="29.19708054515119" lon="-9.749028798280262"><ele>807.6666666666667</ele><time>2026-04-28T08:47:51Z</time></trkpt><trkpt lat="29.196982542750774" lon="-9.748901785763627"><ele>803.0</ele><time>2026-04-28T08:47:52Z</time></trkpt><trkpt lat="29.196850142038976" lon="-9.748789595016408"><ele>803.0</ele><time>2026-04-28T08:47:53Z</time></trkpt><trkpt lat="29.196686168364064" lon="-9.748696268323888"><ele>803.0</ele><time>2026-04-28T08:47:54Z</time></trkpt><trkpt lat="29.196494633332296" lon="-9.748640050174751"><ele>803.0</ele><time>2026-04-28T08:47:55Z</time></trkpt><trkpt lat="29.196299432269374" lon="-9.748556226658"><ele>807.3333333333334</ele><time>2026-04-28T08:47:56Z</time></trkpt><trkpt lat="29.196132765584156" lon="-9.748440423977428"><ele>811.6666666666667</ele><time>2026-04-28T08:47:57Z</time></trkpt><trkpt lat="29.195960150173804" lon="-9.748363698490332"><ele>816.0</ele><time>2026-04-28T08:47:58Z</time></trkpt><trkpt lat="29.195781388033737" lon="-9.74835263943845"><ele>812.6666666666667</ele><time>2026-04-28T08:47:59Z</time></trkpt><trkpt lat="29.195614577110945" lon="-9.748306248717544"><ele>809.3333333333334</ele><time>2026-04-28T08:48:00Z</time></trkpt><trkpt lat="29.195467613163895" lon="-9.748243778492322"><ele>806.0</ele><time>2026-04-28T08:48:01Z</time></trkpt><trkpt lat="29.1953267657883" lon="-9.74822814941222"><ele>806.0</ele><time>2026-04-28T08:48:02Z</time></trkpt><trkpt lat="29.19519464110221" lon="-9.74828626096504"><ele>806.0</ele><time>2026-04-28T08:48:03Z</time></trkpt><trkpt lat="29.195048438759784" lon="-9.748362100760453"><ele>806.0</ele><time>2026-04-28T08:48:04Z</time></trkpt><trkpt lat="29.194879099695733" lon="-9.748429768833798"><ele>805.3333333333334</ele><time>2026-04-28T08:48:05Z</time></trkpt><trkpt lat="29.19470885521128" lon="-9.748460754509697"><ele>804.6666666666667</ele><time>2026-04-28T08:48:06Z</time></trkpt><trkpt lat="29.194552842225722" lon="-9.748504557063187"><ele>804.0</ele><time>2026-04-28T08:48:07Z</time></trkpt><trkpt lat="29.194408022523444" lon="-9.748535209110264"><ele>804.0</ele><time>2026-04-28T08:48:08Z</time></trkpt><trkpt lat="29.194271049290784" lon="-9.74853625944588"><ele>804.0</ele><time>2026-04-28T08:48:09Z</time></trkpt><trkpt lat="29.19412855887691" lon="-9.748502283677917"><ele>804.0</ele><time>2026-04-28T08:48:10Z</time></trkpt><trkpt lat="29.193977773590404" lon="-9.748436289898613"><ele>804.0</ele><time>2026-04-28T08:48:11Z</time></trkpt><trkpt lat="29.193834184034646" lon="-9.748337062320633"><ele>795.6666666666667</ele><time>2026-04-28T08:48:12Z</time></trkpt><trkpt lat="29.19368129812101" lon="-9.74819185981955"><ele>787.3333333333334</ele><time>2026-04-28T08:48:13Z</time></trkpt><trkpt lat="29.193515054152147" lon="-9.748023444495523"><ele>779.0</ele><time>2026-04-28T08:48:14Z</time></trkpt><trkpt lat="29.193341125544155" lon="-9.74790992683638"><ele>776.0</ele><time>2026-04-28T08:48:15Z</time></trkpt><trkpt lat="29.19317054958157" lon="-9.747830700428034"><ele>773.0</ele><time>2026-04-28T08:48:16Z</time></trkpt><trkpt lat="29.193000729448013" lon="-9.747772703917716"><ele>770.0</ele><time>2026-04-28T08:48:17Z</time></trkpt><trkpt lat="29.192834829572465" lon="-9.747754479838513"><ele>770.0</ele><time>2026-04-28T08:48:18Z</time></trkpt><trkpt lat="29.19267914497773" lon="-9.747757096381564"><ele>770.0</ele><time>2026-04-28T08:48:19Z</time></trkpt><trkpt lat="29.19253498066372" lon="-9.747801907682165"><ele>770.0</ele><time>2026-04-28T08:48:20Z</time></trkpt><trkpt lat="29.19238453974996" lon="-9.747879799737195"><ele>770.6666666666667</ele><time>2026-04-28T08:48:21Z</time></trkpt><trkpt lat="29.19221648975079" lon="-9.747962957053042"><ele>771.3333333333333</ele><time>2026-04-28T08:48:22Z</time></trkpt><trkpt lat="29.192062122305085" lon="-9.748030987032328"><ele>772.0</ele><time>2026-04-28T08:48:23Z</time></trkpt><trkpt lat="29.191923413016934" lon="-9.748073297639856"><ele>772.0</ele><time>2026-04-28T08:48:24Z</time></trkpt><trkpt lat="29.191804062940548" lon="-9.748117611634678"><ele>772.0</ele><time>2026-04-28T08:48:25Z</time></trkpt><trkpt lat="29.191693717349363" lon="-9.748129576178027"><ele>772.0</ele><time>2026-04-28T08:48:26Z</time></trkpt><trkpt lat="29.19158204621007" lon="-9.748117089280873"><ele>772.0</ele><time>2026-04-28T08:48:27Z</time></trkpt><trkpt lat="29.19147492360117" lon="-9.748059181529506"><ele>768.75</ele><time>2026-04-28T08:48:28Z</time></trkpt><trkpt lat="29.19136771273083" lon="-9.747956960100513"><ele>765.5</ele><time>2026-04-28T08:48:29Z</time></trkpt><trkpt lat="29.191267985803254" lon="-9.747848182902192"><ele>762.25</ele><time>2026-04-28T08:48:30Z</time></trkpt><trkpt lat="29.191170116548047" lon="-9.747759247135756"><ele>759.0</ele><time>2026-04-28T08:48:31Z</time></trkpt><trkpt lat="29.19103569330954" lon="-9.747723294498087"><ele>759.0</ele><time>2026-04-28T08:48:32Z</time></trkpt><trkpt lat="29.19087755215323" lon="-9.7477170139658"><ele>759.0</ele><time>2026-04-28T08:48:33Z</time></trkpt><trkpt lat="29.190703176526654" lon="-9.747753544895652"><ele>759.0</ele><time>2026-04-28T08:48:34Z</time></trkpt><trkpt lat="29.190523021925014" lon="-9.74779891225349"><ele>757.3333333333334</ele><time>2026-04-28T08:48:35Z</time></trkpt><trkpt lat="29.190325589993357" lon="-9.747858909984163"><ele>755.6666666666667</ele><time>2026-04-28T08:48:36Z</time></trkpt><trkpt lat="29.190133671051395" lon="-9.747921023632665"><ele>754.0</ele><time>2026-04-28T08:48:37Z</time></trkpt><trkpt lat="29.18995583867253" lon="-9.747983796356285"><ele>755.3333333333334</ele><time>2026-04-28T08:48:38Z</time></trkpt><trkpt lat="29.18978065842553" lon="-9.748045345070743"><ele>756.6666666666666</ele><time>2026-04-28T08:48:39Z</time></trkpt><trkpt lat="29.189606582597925" lon="-9.748079832852635"><ele>758.0</ele><time>2026-04-28T08:48:40Z</time></trkpt><trkpt lat="29.189456191883107" lon="-9.748130438633389"><ele>758.0</ele><time>2026-04-28T08:48:41Z</time></trkpt><trkpt lat="29.189321946213774" lon="-9.74816319330965"><ele>758.0</ele><time>2026-04-28T08:48:42Z</time></trkpt><trkpt lat="29.189192330934333" lon="-9.748181388609689"><ele>758.0</ele><time>2026-04-28T08:48:43Z</time></trkpt><trkpt lat="29.189040131903635" lon="-9.748146270725073"><ele>758.0</ele><time>2026-04-28T08:48:44Z</time></trkpt><trkpt lat="29.18888150166804" lon="-9.748044915558085"><ele>753.0</ele><time>2026-04-28T08:48:45Z</time></trkpt><trkpt lat="29.18869254408291" lon="-9.747968618079899"><ele>748.0</ele><time>2026-04-28T08:48:46Z</time></trkpt><trkpt lat="29.188511454238974" lon="-9.747877362604216"><ele>743.0</ele><time>2026-04-28T08:48:47Z</time></trkpt><trkpt lat="29.18831514798387" lon="-9.747779035008618"><ele>747.0</ele><time>2026-04-28T08:48:48Z</time></trkpt><trkpt lat="29.18811613002996" lon="-9.747683095684527"><ele>751.0</ele><time>2026-04-28T08:48:49Z</time></trkpt><trkpt lat="29.187920500105644" lon="-9.747637312685978"><ele>755.0</ele><time>2026-04-28T08:48:50Z</time></trkpt><trkpt lat="29.187725101247473" lon="-9.747621035866613"><ele>755.0</ele><time>2026-04-28T08:48:51Z</time></trkpt><trkpt lat="29.18753539294835" lon="-9.747604984214329"><ele>755.0</ele><time>2026-04-28T08:48:52Z</time></trkpt><trkpt lat="29.187341863035268" lon="-9.747535385807378"><ele>755.0</ele><time>2026-04-28T08:48:53Z</time></trkpt><trkpt lat="29.18716175676583" lon="-9.747442648473111"><ele>746.6666666666666</ele><time>2026-04-28T08:48:54Z</time></trkpt><trkpt lat="29.187005821049002" lon="-9.747336273871863"><ele>738.3333333333334</ele><time>2026-04-28T08:48:55Z</time></trkpt><trkpt lat="29.18685658650127" lon="-9.747233810869943"><ele>730.0</ele><time>2026-04-28T08:48:56Z</time></trkpt><trkpt lat="29.1867175764739" lon="-9.747117062741802"><ele>730.0</ele><time>2026-04-28T08:48:57Z</time></trkpt><trkpt lat="29.18659114449007" lon="-9.746976704654031"><ele>730.0</ele><time>2026-04-28T08:48:58Z</time></trkpt><trkpt lat="29.18645719486566" lon="-9.746819554317602"><ele>730.0</ele><time>2026-04-28T08:48:59Z</time></trkpt><trkpt lat="29.18636723416829" lon="-9.746601657657274"><ele>725.0</ele><time>2026-04-28T08:49:00Z</time></trkpt><trkpt lat="29.18624865090193" lon="-9.746378963651296"><ele>720.0</ele><time>2026-04-28T08:49:01Z</time></trkpt><trkpt lat="29.186117237923618" lon="-9.746161543453766"><ele>722.6666666666666</ele><time>2026-04-28T08:49:02Z</time></trkpt><trkpt lat="29.18598264621545" lon="-9.745961964741689"><ele>725.3333333333333</ele><time>2026-04-28T08:49:03Z</time></trkpt><trkpt lat="29.185850950874226" lon="-9.745775414438164"><ele>728.0</ele><time>2026-04-28T08:49:04Z</time></trkpt><trkpt lat="29.185723148022696" lon="-9.745596059400405"><ele>725.6666666666666</ele><time>2026-04-28T08:49:05Z</time></trkpt><trkpt lat="29.18559606376505" lon="-9.745423956053164"><ele>723.3333333333334</ele><time>2026-04-28T08:49:06Z</time></trkpt><trkpt lat="29.185466579427576" lon="-9.745265185783818"><ele>721.0</ele><time>2026-04-28T08:49:07Z</time></trkpt><trkpt lat="29.185310298116644" lon="-9.74514300518113"><ele>721.0</ele><time>2026-04-28T08:49:08Z</time></trkpt><trkpt lat="29.185131788157687" lon="-9.74502714682012"><ele>721.0</ele><time>2026-04-28T08:49:09Z</time></trkpt><trkpt lat="29.1849249705521" lon="-9.744900915211863"><ele>721.0</ele><time>2026-04-28T08:49:10Z</time></trkpt><trkpt lat="29.18472760880373" lon="-9.744759006593489"><ele>716.3333333333334</ele><time>2026-04-28T08:49:11Z</time></trkpt><trkpt lat="29.184539532307614" lon="-9.74464696350653"><ele>711.6666666666666</ele><time>2026-04-28T08:49:12Z</time></trkpt><trkpt lat="29.184363716372097" lon="-9.744530861058779"><ele>707.0</ele><time>2026-04-28T08:49:13Z</time></trkpt><trkpt lat="29.184200404132277" lon="-9.744403905499095"><ele>709.3333333333333</ele><time>2026-04-28T08:49:14Z</time></trkpt><trkpt lat="29.184049206481436" lon="-9.744265432078626"><ele>711.6666666666666</ele><time>2026-04-28T08:49:15Z</time></trkpt><trkpt lat="29.18390880787725" lon="-9.744125209895044"><ele>714.0</ele><time>2026-04-28T08:49:16Z</time></trkpt><trkpt lat="29.183772991434072" lon="-9.743989905994157"><ele>709.0</ele><time>2026-04-28T08:49:17Z</time></trkpt><trkpt lat="29.18364347263334" lon="-9.743857363170557"><ele>704.0</ele><time>2026-04-28T08:49:18Z</time></trkpt><trkpt lat="29.18352057836535" lon="-9.743720806995015"><ele>699.0</ele><time>2026-04-28T08:49:19Z</time></trkpt><trkpt lat="29.183415115579688" lon="-9.743566717132031"><ele>699.0</ele><time>2026-04-28T08:49:20Z</time></trkpt><trkpt lat="29.183322822742525" lon="-9.743390009987241"><ele>699.0</ele><time>2026-04-28T08:49:21Z</time></trkpt><trkpt lat="29.18325097949152" lon="-9.74319173790447"><ele>699.0</ele><time>2026-04-28T08:49:22Z</time></trkpt><trkpt lat="29.183193233747396" lon="-9.742967045377759"><ele>695.5</ele><time>2026-04-28T08:49:23Z</time></trkpt><trkpt lat="29.183143199597694" lon="-9.742710205764144"><ele>692.0</ele><time>2026-04-28T08:49:24Z</time></trkpt><trkpt lat="29.18309983743443" lon="-9.742429451163257"><ele>692.0</ele><time>2026-04-28T08:49:25Z</time></trkpt><trkpt lat="29.18306298747106" lon="-9.742150285722126"><ele>692.0</ele><time>2026-04-28T08:49:26Z</time></trkpt><trkpt lat="29.18302614378817" lon="-9.741872876653215"><ele>690.5</ele><time>2026-04-28T08:49:27Z</time></trkpt><trkpt lat="29.182984772037546" lon="-9.741581523051979"><ele>689.0</ele><time>2026-04-28T08:49:28Z</time></trkpt><trkpt lat="29.182939458340503" lon="-9.74127195532487"><ele>689.0</ele><time>2026-04-28T08:49:29Z</time></trkpt><trkpt lat="29.182894307611686" lon="-9.740955054525392"><ele>689.0</ele><time>2026-04-28T08:49:30Z</time></trkpt><trkpt lat="29.18285023040313" lon="-9.740660173610024"><ele>689.0</ele><time>2026-04-28T08:49:31Z</time></trkpt><trkpt lat="29.18280707224522" lon="-9.740377091438505"><ele>689.0</ele><time>2026-04-28T08:49:32Z</time></trkpt><trkpt lat="29.182765372678553" lon="-9.740100958623314"><ele>688.0</ele><time>2026-04-28T08:49:33Z</time></trkpt><trkpt lat="29.182724394061566" lon="-9.739812727271627"><ele>687.0</ele><time>2026-04-28T08:49:34Z</time></trkpt><trkpt lat="29.182681021788913" lon="-9.739501348335112"><ele>685.5</ele><time>2026-04-28T08:49:35Z</time></trkpt><trkpt lat="29.182634253319367" lon="-9.73917092770834"><ele>684.0</ele><time>2026-04-28T08:49:36Z</time></trkpt><trkpt lat="29.182580634254812" lon="-9.73882315799164"><ele>682.0</ele><time>2026-04-28T08:49:37Z</time></trkpt><trkpt lat="29.182521544921176" lon="-9.738467214750733"><ele>680.0</ele><time>2026-04-28T08:49:38Z</time></trkpt><trkpt lat="29.182461925972063" lon="-9.738103831208006"><ele>680.0</ele><time>2026-04-28T08:49:39Z</time></trkpt><trkpt lat="29.182404487430844" lon="-9.7377395626073"><ele>680.0</ele><time>2026-04-28T08:49:40Z</time></trkpt><trkpt lat="29.18234781934156" lon="-9.737373388503602"><ele>679.5</ele><time>2026-04-28T08:49:41Z</time></trkpt><trkpt lat="29.182289825910647" lon="-9.737000955351585"><ele>679.0</ele><time>2026-04-28T08:49:42Z</time></trkpt><trkpt lat="29.182230556807784" lon="-9.73662509596703"><ele>677.0</ele><time>2026-04-28T08:49:43Z</time></trkpt><trkpt lat="29.182172806960498" lon="-9.736249503792278"><ele>675.0</ele><time>2026-04-28T08:49:44Z</time></trkpt><trkpt lat="29.182116584611776" lon="-9.735865580610712"><ele>672.5</ele><time>2026-04-28T08:49:45Z</time></trkpt><trkpt lat="29.1820580933126" lon="-9.735474741158011"><ele>670.0</ele><time>2026-04-28T08:49:46Z</time></trkpt><trkpt lat="29.18199592445608" lon="-9.735078810138955"><ele>668.5</ele><time>2026-04-28T08:49:47Z</time></trkpt><trkpt lat="29.181935082036933" lon="-9.734677257992477"><ele>667.0</ele><time>2026-04-28T08:49:48Z</time></trkpt><trkpt lat="29.181874041349595" lon="-9.734270023907495"><ele>665.5</ele><time>2026-04-28T08:49:49Z</time></trkpt><trkpt lat="29.18181113431545" lon="-9.733860675779836"><ele>664.0</ele><time>2026-04-28T08:49:50Z</time></trkpt><trkpt lat="29.18174889941612" lon="-9.733452311261509"><ele>661.0</ele><time>2026-04-28T08:49:51Z</time></trkpt><trkpt lat="29.18168753877697" lon="-9.733044906354014"><ele>658.0</ele><time>2026-04-28T08:49:52Z</time></trkpt><trkpt lat="29.181626600986355" lon="-9.732656249130718"><ele>655.5</ele><time>2026-04-28T08:49:53Z</time></trkpt><trkpt lat="29.181569869294684" lon="-9.732293516983086"><ele>653.0</ele><time>2026-04-28T08:49:54Z</time></trkpt><trkpt lat="29.18151743991083" lon="-9.731951195863008"><ele>651.5</ele><time>2026-04-28T08:49:55Z</time></trkpt><trkpt lat="29.18147148246771" lon="-9.731625245920906"><ele>650.0</ele><time>2026-04-28T08:49:56Z</time></trkpt><trkpt lat="29.181424873361465" lon="-9.731317801010473"><ele>649.5</ele><time>2026-04-28T08:49:57Z</time></trkpt><trkpt lat="29.181377141356723" lon="-9.731029267426948"><ele>649.0</ele><time>2026-04-28T08:49:58Z</time></trkpt><trkpt lat="29.181333694076844" lon="-9.730756696703667"><ele>649.0</ele><time>2026-04-28T08:49:59Z</time></trkpt><trkpt lat="29.18129300521316" lon="-9.730492928512831"><ele>649.0</ele><time>2026-04-28T08:50:00Z</time></trkpt><trkpt lat="29.18125187571958" lon="-9.730227322961388"><ele>649.0</ele><time>2026-04-28T08:50:01Z</time></trkpt><trkpt lat="29.181212348994894" lon="-9.729967247496713"><ele>649.0</ele><time>2026-04-28T08:50:02Z</time></trkpt><trkpt lat="29.181174055293226" lon="-9.729715928074755"><ele>649.0</ele><time>2026-04-28T08:50:03Z</time></trkpt><trkpt lat="29.181137220465448" lon="-9.729474778438082"><ele>649.0</ele><time>2026-04-28T08:50:04Z</time></trkpt><trkpt lat="29.181100697119106" lon="-9.729251478246582"><ele>649.0</ele><time>2026-04-28T08:50:05Z</time></trkpt><trkpt lat="29.181068314910647" lon="-9.729034984912415"><ele>649.3333333333334</ele><time>2026-04-28T08:50:06Z</time></trkpt><trkpt lat="29.181038652026484" lon="-9.728826795279678"><ele>649.6666666666666</ele><time>2026-04-28T08:50:07Z</time></trkpt><trkpt lat="29.181007551488694" lon="-9.728616658971097"><ele>650.0</ele><time>2026-04-28T08:50:08Z</time></trkpt><trkpt lat="29.180974381608078" lon="-9.728402180159499"><ele>650.0</ele><time>2026-04-28T08:50:09Z</time></trkpt><trkpt lat="29.180940836386146" lon="-9.728185256199922"><ele>650.0</ele><time>2026-04-28T08:50:10Z</time></trkpt><trkpt lat="29.180907037925746" lon="-9.727967539951146"><ele>650.0</ele><time>2026-04-28T08:50:11Z</time></trkpt><trkpt lat="29.180875035761176" lon="-9.72774112077903"><ele>652.3333333333333</ele><time>2026-04-28T08:50:12Z</time></trkpt><trkpt lat="29.180840498785855" lon="-9.727512119761014"><ele>654.6666666666666</ele><time>2026-04-28T08:50:13Z</time></trkpt><trkpt lat="29.18080966582154" lon="-9.727297541052497"><ele>657.0</ele><time>2026-04-28T08:50:14Z</time></trkpt><trkpt lat="29.180782553051404" lon="-9.727098325413431"><ele>657.0</ele><time>2026-04-28T08:50:15Z</time></trkpt><trkpt lat="29.180755673769287" lon="-9.726913014821633"><ele>657.0</ele><time>2026-04-28T08:50:16Z</time></trkpt><trkpt lat="29.18073084438161" lon="-9.72674877621345"><ele>657.0</ele><time>2026-04-28T08:50:17Z</time></trkpt><trkpt lat="29.180704989972252" lon="-9.726596842111968"><ele>657.0</ele><time>2026-04-28T08:50:18Z</time></trkpt><trkpt lat="29.18068007087342" lon="-9.726455605975216"><ele>657.25</ele><time>2026-04-28T08:50:19Z</time></trkpt><trkpt lat="29.18065712133551" lon="-9.726316127608309"><ele>657.5</ele><time>2026-04-28T08:50:20Z</time></trkpt><trkpt lat="29.180637670278188" lon="-9.7261554272017"><ele>657.75</ele><time>2026-04-28T08:50:21Z</time></trkpt><trkpt lat="29.18061758620199" lon="-9.725991943446614"><ele>658.0</ele><time>2026-04-28T08:50:22Z</time></trkpt><trkpt lat="29.180593647976348" lon="-9.725824369996609"><ele>658.3333333333334</ele><time>2026-04-28T08:50:23Z</time></trkpt><trkpt lat="29.180563879690013" lon="-9.725637298344376"><ele>658.6666666666666</ele><time>2026-04-28T08:50:24Z</time></trkpt><trkpt lat="29.18053379698312" lon="-9.725441604462661"><ele>659.0</ele><time>2026-04-28T08:50:25Z</time></trkpt><trkpt lat="29.18050937822745" lon="-9.725261010243877"><ele>658.6666666666666</ele><time>2026-04-28T08:50:26Z</time></trkpt><trkpt lat="29.180484435378983" lon="-9.725082557957096"><ele>658.3333333333334</ele><time>2026-04-28T08:50:27Z</time></trkpt><trkpt lat="29.1804533895227" lon="-9.724900695110138"><ele>658.0</ele><time>2026-04-28T08:50:28Z</time></trkpt><trkpt lat="29.180417556508313" lon="-9.724699696088521"><ele>658.0</ele><time>2026-04-28T08:50:29Z</time></trkpt><trkpt lat="29.180385055505926" lon="-9.724507301531002"><ele>658.0</ele><time>2026-04-28T08:50:30Z</time></trkpt><trkpt lat="29.180358036284673" lon="-9.724331851793373"><ele>658.0</ele><time>2026-04-28T08:50:31Z</time></trkpt><trkpt lat="29.180332979243108" lon="-9.724160111956586"><ele>657.3333333333334</ele><time>2026-04-28T08:50:32Z</time></trkpt><trkpt lat="29.180306924942442" lon="-9.723993707537142"><ele>656.6666666666666</ele><time>2026-04-28T08:50:33Z</time></trkpt><trkpt lat="29.180280521301185" lon="-9.723824598089074"><ele>656.0</ele><time>2026-04-28T08:50:34Z</time></trkpt><trkpt lat="29.180253356691082" lon="-9.723647251869656"><ele>655.0</ele><time>2026-04-28T08:50:35Z</time></trkpt><trkpt lat="29.180227448672706" lon="-9.72345993362963"><ele>654.0</ele><time>2026-04-28T08:50:36Z</time></trkpt><trkpt lat="29.180200876728232" lon="-9.723266718767697"><ele>653.0</ele><time>2026-04-28T08:50:37Z</time></trkpt><trkpt lat="29.18017273664124" lon="-9.723072737230826"><ele>653.0</ele><time>2026-04-28T08:50:38Z</time></trkpt><trkpt lat="29.1801456224288" lon="-9.722884292953099"><ele>653.0</ele><time>2026-04-28T08:50:39Z</time></trkpt><trkpt lat="29.180117426864275" lon="-9.722699298477467"><ele>653.0</ele><time>2026-04-28T08:50:40Z</time></trkpt><trkpt lat="29.180088064890633" lon="-9.722513090814472"><ele>652.0</ele><time>2026-04-28T08:50:41Z</time></trkpt><trkpt lat="29.180060764262524" lon="-9.722335679851371"><ele>651.0</ele><time>2026-04-28T08:50:42Z</time></trkpt><trkpt lat="29.18003237420859" lon="-9.722164587902755"><ele>650.0</ele><time>2026-04-28T08:50:43Z</time></trkpt><trkpt lat="29.1800003384975" lon="-9.721979667109409"><ele>649.6666666666666</ele><time>2026-04-28T08:50:44Z</time></trkpt><trkpt lat="29.1799716504622" lon="-9.721790514426122"><ele>649.3333333333334</ele><time>2026-04-28T08:50:45Z</time></trkpt><trkpt lat="29.179943147967293" lon="-9.721599234751416"><ele>649.0</ele><time>2026-04-28T08:50:46Z</time></trkpt><trkpt lat="29.179915350255904" lon="-9.721406181268442"><ele>649.0</ele><time>2026-04-28T08:50:47Z</time></trkpt><trkpt lat="29.179886292800322" lon="-9.721211783035491"><ele>649.0</ele><time>2026-04-28T08:50:48Z</time></trkpt><trkpt lat="29.179857543353773" lon="-9.721015453619675"><ele>649.0</ele><time>2026-04-28T08:50:49Z</time></trkpt><trkpt lat="29.179830981065958" lon="-9.720818627074044"><ele>648.6666666666667</ele><time>2026-04-28T08:50:50Z</time></trkpt><trkpt lat="29.1798047954251" lon="-9.720634093601626"><ele>648.3333333333334</ele><time>2026-04-28T08:50:51Z</time></trkpt><trkpt lat="29.179777955669024" lon="-9.720456816214403"><ele>648.0</ele><time>2026-04-28T08:50:52Z</time></trkpt><trkpt lat="29.179750280707456" lon="-9.720274270350613"><ele>647.3333333333334</ele><time>2026-04-28T08:50:53Z</time></trkpt><trkpt lat="29.179722663350166" lon="-9.72008927455972"><ele>646.6666666666667</ele><time>2026-04-28T08:50:54Z</time></trkpt><trkpt lat="29.179696614628824" lon="-9.71990327907515"><ele>646.0</ele><time>2026-04-28T08:50:55Z</time></trkpt><trkpt lat="29.179669742303023" lon="-9.719717111333608"><ele>646.0</ele><time>2026-04-28T08:50:56Z</time></trkpt><trkpt lat="29.17964316835224" lon="-9.719549734803103"><ele>646.0</ele><time>2026-04-28T08:50:57Z</time></trkpt><trkpt lat="29.179618300356445" lon="-9.719383643123347"><ele>646.0</ele><time>2026-04-28T08:50:58Z</time></trkpt><trkpt lat="29.179592757009807" lon="-9.719210710647763"><ele>646.0</ele><time>2026-04-28T08:50:59Z</time></trkpt><trkpt lat="29.17956570526135" lon="-9.719038907515953"><ele>646.3333333333334</ele><time>2026-04-28T08:51:00Z</time></trkpt><trkpt lat="29.179539391130042" lon="-9.718863257277196"><ele>646.6666666666666</ele><time>2026-04-28T08:51:01Z</time></trkpt><trkpt lat="29.17951358495173" lon="-9.71868871486518"><ele>647.0</ele><time>2026-04-28T08:51:02Z</time></trkpt><trkpt lat="29.1794888781831" lon="-9.718519653102732"><ele>647.25</ele><time>2026-04-28T08:51:03Z</time></trkpt><trkpt lat="29.179466018899056" lon="-9.718348597202478"><ele>647.5</ele><time>2026-04-28T08:51:04Z</time></trkpt><trkpt lat="29.179444238480954" lon="-9.718176420240377"><ele>647.75</ele><time>2026-04-28T08:51:05Z</time></trkpt><trkpt lat="29.179421727208357" lon="-9.718013111016422"><ele>648.0</ele><time>2026-04-28T08:51:06Z</time></trkpt><trkpt lat="29.17940119052653" lon="-9.717858452508464"><ele>647.75</ele><time>2026-04-28T08:51:07Z</time></trkpt><trkpt lat="29.179383149402003" lon="-9.717709727628561"><ele>647.5</ele><time>2026-04-28T08:51:08Z</time></trkpt><trkpt lat="29.179357294557185" lon="-9.71755694474791"><ele>647.25</ele><time>2026-04-28T08:51:09Z</time></trkpt><trkpt lat="29.17932887122538" lon="-9.71739730705284"><ele>647.0</ele><time>2026-04-28T08:51:10Z</time></trkpt><trkpt lat="29.179302515509" lon="-9.717235080454062"><ele>647.0</ele><time>2026-04-28T08:51:11Z</time></trkpt><trkpt lat="29.17928073801095" lon="-9.71707804636308"><ele>647.0</ele><time>2026-04-28T08:51:12Z</time></trkpt><trkpt lat="29.17926139604501" lon="-9.71692519551255"><ele>647.0</ele><time>2026-04-28T08:51:13Z</time></trkpt><trkpt lat="29.179241433948825" lon="-9.716775158006183"><ele>647.0</ele><time>2026-04-28T08:51:14Z</time></trkpt><trkpt lat="29.1792171102717" lon="-9.716622198193638"><ele>646.5</ele><time>2026-04-28T08:51:15Z</time></trkpt><trkpt lat="29.179188843066225" lon="-9.716470536600859"><ele>646.0</ele><time>2026-04-28T08:51:16Z</time></trkpt><trkpt lat="29.179161300907705" lon="-9.71632531922241"><ele>645.5</ele><time>2026-04-28T08:51:17Z</time></trkpt><trkpt lat="29.179136591085385" lon="-9.716181760467858"><ele>645.0</ele><time>2026-04-28T08:51:18Z</time></trkpt><trkpt lat="29.17911356575828" lon="-9.71603512697546"><ele>645.0</ele><time>2026-04-28T08:51:19Z</time></trkpt><trkpt lat="29.17909203934734" lon="-9.715896940061997"><ele>645.0</ele><time>2026-04-28T08:51:20Z</time></trkpt><trkpt lat="29.17906796151229" lon="-9.71576294186247"><ele>645.0</ele><time>2026-04-28T08:51:21Z</time></trkpt><trkpt lat="29.179044040686154" lon="-9.71563388970678"><ele>645.0</ele><time>2026-04-28T08:51:22Z</time></trkpt><trkpt lat="29.1790192060968" lon="-9.715500576423558"><ele>644.5</ele><time>2026-04-28T08:51:23Z</time></trkpt><trkpt lat="29.178994048406736" lon="-9.715352637142571"><ele>644.0</ele><time>2026-04-28T08:51:24Z</time></trkpt><trkpt lat="29.178966680104967" lon="-9.71519647270804"><ele>643.5</ele><time>2026-04-28T08:51:25Z</time></trkpt><trkpt lat="29.178938359731216" lon="-9.715032592887539"><ele>643.0</ele><time>2026-04-28T08:51:26Z</time></trkpt><trkpt lat="29.178909927051784" lon="-9.71485977284554"><ele>642.0</ele><time>2026-04-28T08:51:27Z</time></trkpt><trkpt lat="29.178881189944526" lon="-9.714682180010458"><ele>641.0</ele><time>2026-04-28T08:51:28Z</time></trkpt><trkpt lat="29.178852384033778" lon="-9.714500377528159"><ele>640.0</ele><time>2026-04-28T08:51:29Z</time></trkpt><trkpt lat="29.17882461634618" lon="-9.714315145211895"><ele>640.0</ele><time>2026-04-28T08:51:30Z</time></trkpt><trkpt lat="29.178795393054585" lon="-9.714131954068181"><ele>640.0</ele><time>2026-04-28T08:51:31Z</time></trkpt><trkpt lat="29.17876838704492" lon="-9.713944428588935"><ele>640.0</ele><time>2026-04-28T08:51:32Z</time></trkpt><trkpt lat="29.178737926741444" lon="-9.713755476801374"><ele>639.6666666666667</ele><time>2026-04-28T08:51:33Z</time></trkpt><trkpt lat="29.17870419718583" lon="-9.713571651321987"><ele>639.3333333333334</ele><time>2026-04-28T08:51:34Z</time></trkpt><trkpt lat="29.178673515442465" lon="-9.713395419085282"><ele>639.0</ele><time>2026-04-28T08:51:35Z</time></trkpt><trkpt lat="29.178647315507327" lon="-9.713228161699119"><ele>639.0</ele><time>2026-04-28T08:51:36Z</time></trkpt><trkpt lat="29.178624738868994" lon="-9.713068901343545"><ele>639.0</ele><time>2026-04-28T08:51:37Z</time></trkpt><trkpt lat="29.178603354249674" lon="-9.71291958933729"><ele>639.0</ele><time>2026-04-28T08:51:38Z</time></trkpt><trkpt lat="29.178581307181123" lon="-9.71277747491943"><ele>639.0</ele><time>2026-04-28T08:51:39Z</time></trkpt><trkpt lat="29.17855994822607" lon="-9.712639844122403"><ele>639.4</ele><time>2026-04-28T08:51:40Z</time></trkpt><trkpt lat="29.178538842277067" lon="-9.712505265619571"><ele>639.8</ele><time>2026-04-28T08:51:41Z</time></trkpt><trkpt lat="29.178512556839127" lon="-9.712381974621154"><ele>640.1999999999999</ele><time>2026-04-28T08:51:42Z</time></trkpt><trkpt lat="29.178475805170716" lon="-9.712273219205645"><ele>640.5999999999999</ele><time>2026-04-28T08:51:43Z</time></trkpt><trkpt lat="29.178446574277576" lon="-9.71218558413059"><ele>641.0</ele><time>2026-04-28T08:51:44Z</time></trkpt><trkpt lat="29.178421971743735" lon="-9.712110340766095"><ele>641.0</ele><time>2026-04-28T08:51:45Z</time></trkpt><trkpt lat="29.17824004484701" lon="-9.712098942454615"><ele>641.0</ele><time>2026-04-28T08:51:47Z</time></trkpt><trkpt lat="29.178173557025946" lon="-9.712091792689673"><ele>641.0</ele><time>2026-04-28T08:51:48Z</time></trkpt><trkpt lat="29.178068891681747" lon="-9.712095077043283"><ele>641.0</ele><time>2026-04-28T08:51:50Z</time></trkpt><trkpt lat="29.178001426598254" lon="-9.712122070185757"><ele>641.0</ele><time>2026-04-28T08:51:51Z</time></trkpt><trkpt lat="29.17793731985595" lon="-9.712171295229457"><ele>640.5</ele><time>2026-04-28T08:51:52Z</time></trkpt><trkpt lat="29.177885840705834" lon="-9.712224432740681"><ele>640.0</ele><time>2026-04-28T08:51:53Z</time></trkpt><trkpt lat="29.177842971013895" lon="-9.712304129154472"><ele>639.5</ele><time>2026-04-28T08:51:55Z</time></trkpt><trkpt lat="29.177794575001776" lon="-9.71235932964762"><ele>639.0</ele><time>2026-04-28T08:52:07Z</time></trkpt><trkpt lat="29.177721745874862" lon="-9.712429275276499"><ele>638.5</ele><time>2026-04-28T08:52:09Z</time></trkpt><trkpt lat="29.177673886078935" lon="-9.712484902408502"><ele>638.0</ele><time>2026-04-28T08:52:10Z</time></trkpt><trkpt lat="29.177622694435435" lon="-9.712544485445111"><ele>638.0</ele><time>2026-04-28T08:52:11Z</time></trkpt><trkpt lat="29.17756699274071" lon="-9.712611033145457"><ele>638.0</ele><time>2026-04-28T08:52:12Z</time></trkpt><trkpt lat="29.177500013852008" lon="-9.71268741418967"><ele>638.0</ele><time>2026-04-28T08:52:13Z</time></trkpt><trkpt lat="29.17741498373997" lon="-9.712771361075708"><ele>638.0</ele><time>2026-04-28T08:52:14Z</time></trkpt><trkpt lat="29.177325820514916" lon="-9.71284739231453"><ele>638.0</ele><time>2026-04-28T08:52:15Z</time></trkpt><trkpt lat="29.177241392297404" lon="-9.712916100295105"><ele>637.6</ele><time>2026-04-28T08:52:16Z</time></trkpt><trkpt lat="29.177157385205383" lon="-9.712983364950897"><ele>637.1999999999999</ele><time>2026-04-28T08:52:17Z</time></trkpt><trkpt lat="29.177060639011643" lon="-9.71305743396645"><ele>636.8</ele><time>2026-04-28T08:52:18Z</time></trkpt><trkpt lat="29.17696671936975" lon="-9.713131311513793"><ele>636.4</ele><time>2026-04-28T08:52:19Z</time></trkpt><trkpt lat="29.176886756185986" lon="-9.713197094514223"><ele>636.0</ele><time>2026-04-28T08:52:20Z</time></trkpt><trkpt lat="29.176821222252727" lon="-9.713251502352993"><ele>636.0</ele><time>2026-04-28T08:52:21Z</time></trkpt><trkpt lat="29.176765188769654" lon="-9.713293567142594"><ele>636.0</ele><time>2026-04-28T08:52:22Z</time></trkpt><trkpt lat="29.176707066597174" lon="-9.71333808209488"><ele>636.0</ele><time>2026-04-28T08:52:23Z</time></trkpt><trkpt lat="29.17665058138638" lon="-9.713376226716024"><ele>636.0</ele><time>2026-04-28T08:52:24Z</time></trkpt><trkpt lat="29.176541846911437" lon="-9.713445367879512"><ele>636.0</ele><time>2026-04-28T08:52:26Z</time></trkpt><trkpt lat="29.176473996993632" lon="-9.713484219942034"><ele>636.0</ele><time>2026-04-28T08:52:27Z</time></trkpt><trkpt lat="29.17638734620643" lon="-9.713538042567935"><ele>636.0</ele><time>2026-04-28T08:52:28Z</time></trkpt><trkpt lat="29.176296003441916" lon="-9.713602481238889"><ele>636.0</ele><time>2026-04-28T08:52:29Z</time></trkpt><trkpt lat="29.176217068820385" lon="-9.713671049704265"><ele>636.0</ele><time>2026-04-28T08:52:30Z</time></trkpt><trkpt lat="29.176155937025026" lon="-9.71373840584635"><ele>636.0</ele><time>2026-04-28T08:52:31Z</time></trkpt><trkpt lat="29.1761015430557" lon="-9.713798575467377"><ele>636.0</ele><time>2026-04-28T08:52:32Z</time></trkpt><trkpt lat="29.176044416058698" lon="-9.71385031390253"><ele>636.0</ele><time>2026-04-28T08:52:33Z</time></trkpt><trkpt lat="29.17598809059539" lon="-9.713895463050553"><ele>636.0</ele><time>2026-04-28T08:52:34Z</time></trkpt><trkpt lat="29.175869229516948" lon="-9.713983971133707"><ele>636.0</ele><time>2026-04-28T08:52:36Z</time></trkpt><trkpt lat="29.175783024567206" lon="-9.714045984369726"><ele>636.0</ele><time>2026-04-28T08:52:37Z</time></trkpt><trkpt lat="29.175688178211416" lon="-9.71411795630205"><ele>636.0</ele><time>2026-04-28T08:52:38Z</time></trkpt><trkpt lat="29.17558528621331" lon="-9.714192982938531"><ele>635.75</ele><time>2026-04-28T08:52:39Z</time></trkpt><trkpt lat="29.17547527758647" lon="-9.714271760542076"><ele>635.5</ele><time>2026-04-28T08:52:40Z</time></trkpt><trkpt lat="29.175359796106374" lon="-9.71437795832916"><ele>635.25</ele><time>2026-04-28T08:52:41Z</time></trkpt><trkpt lat="29.175221028905398" lon="-9.714488420310413"><ele>635.0</ele><time>2026-04-28T08:52:42Z</time></trkpt><trkpt lat="29.17506860194005" lon="-9.714610553960545"><ele>635.0</ele><time>2026-04-28T08:52:43Z</time></trkpt><trkpt lat="29.174921245273268" lon="-9.714729394964444"><ele>635.0</ele><time>2026-04-28T08:52:44Z</time></trkpt><trkpt lat="29.174777066723873" lon="-9.71484360856683"><ele>635.0</ele><time>2026-04-28T08:52:45Z</time></trkpt><trkpt lat="29.174603212906835" lon="-9.714978737796837"><ele>633.5</ele><time>2026-04-28T08:52:46Z</time></trkpt><trkpt lat="29.174395556277602" lon="-9.71514105958134"><ele>632.0</ele><time>2026-04-28T08:52:47Z</time></trkpt><trkpt lat="29.174193237786106" lon="-9.715299059813404"><ele>631.3333333333333</ele><time>2026-04-28T08:52:48Z</time></trkpt><trkpt lat="29.17401374003015" lon="-9.715439523890891"><ele>630.6666666666666</ele><time>2026-04-28T08:52:49Z</time></trkpt><trkpt lat="29.173846456997712" lon="-9.715569117013022"><ele>630.0</ele><time>2026-04-28T08:52:50Z</time></trkpt><trkpt lat="29.173691324204366" lon="-9.71568876384825"><ele>630.0</ele><time>2026-04-28T08:52:51Z</time></trkpt><trkpt lat="29.173544658292474" lon="-9.715801643807396"><ele>630.0</ele><time>2026-04-28T08:52:52Z</time></trkpt><trkpt lat="29.17340386829258" lon="-9.715909664902233"><ele>630.0</ele><time>2026-04-28T08:52:53Z</time></trkpt><trkpt lat="29.173266162694315" lon="-9.716015056319149"><ele>630.6666666666666</ele><time>2026-04-28T08:52:54Z</time></trkpt><trkpt lat="29.173123163928302" lon="-9.716124697798168"><ele>631.3333333333333</ele><time>2026-04-28T08:52:55Z</time></trkpt><trkpt lat="29.172959170584647" lon="-9.716228743029928"><ele>632.0</ele><time>2026-04-28T08:52:56Z</time></trkpt><trkpt lat="29.172791344163" lon="-9.716360877173837"><ele>632.0</ele><time>2026-04-28T08:52:57Z</time></trkpt><trkpt lat="29.172626629509804" lon="-9.716490805302211"><ele>632.0</ele><time>2026-04-28T08:52:58Z</time></trkpt><trkpt lat="29.172462603187885" lon="-9.716615451864543"><ele>632.0</ele><time>2026-04-28T08:52:59Z</time></trkpt><trkpt lat="29.17229779969069" lon="-9.716741170783738"><ele>631.6666666666666</ele><time>2026-04-28T08:53:00Z</time></trkpt><trkpt lat="29.172137723284223" lon="-9.716864810197293"><ele>631.3333333333334</ele><time>2026-04-28T08:53:01Z</time></trkpt><trkpt lat="29.17198234333401" lon="-9.71698487230794"><ele>631.0</ele><time>2026-04-28T08:53:02Z</time></trkpt><trkpt lat="29.17184048610908" lon="-9.717097992346073"><ele>631.0</ele><time>2026-04-28T08:53:03Z</time></trkpt><trkpt lat="29.171705006726814" lon="-9.717203277395246"><ele>631.0</ele><time>2026-04-28T08:53:04Z</time></trkpt><trkpt lat="29.171576244228614" lon="-9.717299403495817"><ele>631.0</ele><time>2026-04-28T08:53:05Z</time></trkpt><trkpt lat="29.17145491645786" lon="-9.71739040143475"><ele>631.0</ele><time>2026-04-28T08:53:06Z</time></trkpt><trkpt lat="29.17134324419223" lon="-9.71748044335612"><ele>631.0</ele><time>2026-04-28T08:53:07Z</time></trkpt><trkpt lat="29.171238113759404" lon="-9.71756965502769"><ele>631.0</ele><time>2026-04-28T08:53:08Z</time></trkpt><trkpt lat="29.171138927447423" lon="-9.717660320451351"><ele>631.0</ele><time>2026-04-28T08:53:09Z</time></trkpt><trkpt lat="29.171046133735008" lon="-9.717751487256258"><ele>631.25</ele><time>2026-04-28T08:53:10Z</time></trkpt><trkpt lat="29.170961466560186" lon="-9.717842344023172"><ele>631.5</ele><time>2026-04-28T08:53:11Z</time></trkpt><trkpt lat="29.170890778756192" lon="-9.717955019926093"><ele>631.75</ele><time>2026-04-28T08:53:12Z</time></trkpt><trkpt lat="29.17080534849718" lon="-9.718067393187237"><ele>632.0</ele><time>2026-04-28T08:53:13Z</time></trkpt><trkpt lat="29.17070809843323" lon="-9.71818957836029"><ele>631.3333333333333</ele><time>2026-04-28T08:53:14Z</time></trkpt><trkpt lat="29.170617435742006" lon="-9.718331459316744"><ele>630.6666666666666</ele><time>2026-04-28T08:53:15Z</time></trkpt><trkpt lat="29.170531498021226" lon="-9.718476152898484"><ele>630.0</ele><time>2026-04-28T08:53:16Z</time></trkpt><trkpt lat="29.170441691386007" lon="-9.718628020107925"><ele>629.0</ele><time>2026-04-28T08:53:17Z</time></trkpt><trkpt lat="29.170349374115503" lon="-9.718780850245606"><ele>628.0</ele><time>2026-04-28T08:53:18Z</time></trkpt><trkpt lat="29.170255853497512" lon="-9.718932338789985"><ele>627.0</ele><time>2026-04-28T08:53:19Z</time></trkpt><trkpt lat="29.170159150055788" lon="-9.719091441742515"><ele>627.0</ele><time>2026-04-28T08:53:20Z</time></trkpt><trkpt lat="29.17005968399003" lon="-9.719257572787955"><ele>627.0</ele><time>2026-04-28T08:53:21Z</time></trkpt><trkpt lat="29.169947726102922" lon="-9.719442983879755"><ele>627.0</ele><time>2026-04-28T08:53:22Z</time></trkpt><trkpt lat="29.16983510956915" lon="-9.719653898100843"><ele>625.5</ele><time>2026-04-28T08:53:23Z</time></trkpt><trkpt lat="29.16970528912677" lon="-9.71987312088641"><ele>624.0</ele><time>2026-04-28T08:53:24Z</time></trkpt><trkpt lat="29.169571781803974" lon="-9.72009783209212"><ele>624.0</ele><time>2026-04-28T08:53:25Z</time></trkpt><trkpt lat="29.169429347482794" lon="-9.720339617895117"><ele>624.0</ele><time>2026-04-28T08:53:26Z</time></trkpt><trkpt lat="29.16928192900127" lon="-9.720591374994909"><ele>624.0</ele><time>2026-04-28T08:53:27Z</time></trkpt><trkpt lat="29.16913168769961" lon="-9.720836901936618"><ele>624.0</ele><time>2026-04-28T08:53:28Z</time></trkpt><trkpt lat="29.168980007336167" lon="-9.721084780659552"><ele>623.5</ele><time>2026-04-28T08:53:29Z</time></trkpt><trkpt lat="29.168827426596653" lon="-9.721335650383919"><ele>623.0</ele><time>2026-04-28T08:53:30Z</time></trkpt><trkpt lat="29.1686713970394" lon="-9.721569082469303"><ele>623.0</ele><time>2026-04-28T08:53:31Z</time></trkpt><trkpt lat="29.168535393548805" lon="-9.72180406187066"><ele>623.0</ele><time>2026-04-28T08:53:32Z</time></trkpt><trkpt lat="29.168397488405898" lon="-9.722037794373925"><ele>623.0</ele><time>2026-04-28T08:53:33Z</time></trkpt><trkpt lat="29.168260289614064" lon="-9.72226818598482"><ele>623.0</ele><time>2026-04-28T08:53:34Z</time></trkpt><trkpt lat="29.168119197996525" lon="-9.722502760890011"><ele>622.0</ele><time>2026-04-28T08:53:35Z</time></trkpt><trkpt lat="29.16797938139295" lon="-9.722732391452857"><ele>621.0</ele><time>2026-04-28T08:53:36Z</time></trkpt><trkpt lat="29.167839662705706" lon="-9.72296229361899"><ele>621.0</ele><time>2026-04-28T08:53:37Z</time></trkpt><trkpt lat="29.16770170986247" lon="-9.723193516343116"><ele>621.0</ele><time>2026-04-28T08:53:38Z</time></trkpt><trkpt lat="29.167560200387946" lon="-9.723428243654425"><ele>622.0</ele><time>2026-04-28T08:53:39Z</time></trkpt><trkpt lat="29.167417662370212" lon="-9.723663784853553"><ele>623.0</ele><time>2026-04-28T08:53:40Z</time></trkpt><trkpt lat="29.167274916342258" lon="-9.72390093182119"><ele>620.5</ele><time>2026-04-28T08:53:41Z</time></trkpt><trkpt lat="29.167132344520475" lon="-9.72414225255006"><ele>618.0</ele><time>2026-04-28T08:53:42Z</time></trkpt><trkpt lat="29.16699136933575" lon="-9.724379675462055"><ele>618.0</ele><time>2026-04-28T08:53:43Z</time></trkpt><trkpt lat="29.16686620288692" lon="-9.724625373550438"><ele>618.0</ele><time>2026-04-28T08:53:44Z</time></trkpt><trkpt lat="29.166729130774932" lon="-9.724862076282225"><ele>618.0</ele><time>2026-04-28T08:53:45Z</time></trkpt><trkpt lat="29.166592877160046" lon="-9.725095667870894"><ele>618.0</ele><time>2026-04-28T08:53:46Z</time></trkpt><trkpt lat="29.166450918626392" lon="-9.725326226796756"><ele>618.5</ele><time>2026-04-28T08:53:47Z</time></trkpt><trkpt lat="29.16630617908886" lon="-9.725558922737376"><ele>619.0</ele><time>2026-04-28T08:53:48Z</time></trkpt><trkpt lat="29.166168032189432" lon="-9.725784311630159"><ele>619.0</ele><time>2026-04-28T08:53:49Z</time></trkpt><trkpt lat="29.16602927961283" lon="-9.72601153938659"><ele>619.0</ele><time>2026-04-28T08:53:50Z</time></trkpt><trkpt lat="29.165879477076707" lon="-9.726237450586313"><ele>619.5</ele><time>2026-04-28T08:53:51Z</time></trkpt><trkpt lat="29.16574766266624" lon="-9.726473434057223"><ele>620.0</ele><time>2026-04-28T08:53:52Z</time></trkpt><trkpt lat="29.165614199577806" lon="-9.72670071646931"><ele>621.5</ele><time>2026-04-28T08:53:53Z</time></trkpt><trkpt lat="29.165478499633384" lon="-9.726926898571413"><ele>623.0</ele><time>2026-04-28T08:53:54Z</time></trkpt><trkpt lat="29.165340856955094" lon="-9.72715275209587"><ele>623.0</ele><time>2026-04-28T08:53:55Z</time></trkpt><trkpt lat="29.165205653339754" lon="-9.72737787184113"><ele>623.0</ele><time>2026-04-28T08:53:56Z</time></trkpt><trkpt lat="29.165071132899364" lon="-9.727602949661096"><ele>622.5</ele><time>2026-04-28T08:53:57Z</time></trkpt><trkpt lat="29.16493330774473" lon="-9.727830928447197"><ele>622.0</ele><time>2026-04-28T08:53:58Z</time></trkpt><trkpt lat="29.16479936815882" lon="-9.728054710114309"><ele>621.0</ele><time>2026-04-28T08:53:59Z</time></trkpt><trkpt lat="29.1646669764619" lon="-9.728275440836434"><ele>620.0</ele><time>2026-04-28T08:54:00Z</time></trkpt><trkpt lat="29.164534216356376" lon="-9.72849489108814"><ele>619.0</ele><time>2026-04-28T08:54:01Z</time></trkpt><trkpt lat="29.16440042137737" lon="-9.728718300448023"><ele>618.0</ele><time>2026-04-28T08:54:02Z</time></trkpt><trkpt lat="29.164267562613745" lon="-9.728938647531217"><ele>618.0</ele><time>2026-04-28T08:54:03Z</time></trkpt><trkpt lat="29.164130915049157" lon="-9.729157717985528"><ele>618.0</ele><time>2026-04-28T08:54:04Z</time></trkpt><trkpt lat="29.16399239645814" lon="-9.729379627720126"><ele>619.0</ele><time>2026-04-28T08:54:05Z</time></trkpt><trkpt lat="29.16385603057897" lon="-9.72960672718404"><ele>620.0</ele><time>2026-04-28T08:54:06Z</time></trkpt><trkpt lat="29.163723487812376" lon="-9.729833764463"><ele>620.0</ele><time>2026-04-28T08:54:07Z</time></trkpt><trkpt lat="29.16358928900874" lon="-9.730060675274492"><ele>620.0</ele><time>2026-04-28T08:54:08Z</time></trkpt><trkpt lat="29.16345258729231" lon="-9.730285019596927"><ele>619.5</ele><time>2026-04-28T08:54:09Z</time></trkpt><trkpt lat="29.163318185845867" lon="-9.730509048233701"><ele>619.0</ele><time>2026-04-28T08:54:10Z</time></trkpt><trkpt lat="29.16318474117918" lon="-9.730732435613803"><ele>618.5</ele><time>2026-04-28T08:54:11Z</time></trkpt><trkpt lat="29.16305184599006" lon="-9.73095612335388"><ele>618.0</ele><time>2026-04-28T08:54:12Z</time></trkpt><trkpt lat="29.162917592556937" lon="-9.731182586044552"><ele>617.5</ele><time>2026-04-28T08:54:13Z</time></trkpt><trkpt lat="29.162783762128594" lon="-9.731409690606599"><ele>617.0</ele><time>2026-04-28T08:54:14Z</time></trkpt><trkpt lat="29.162652040810272" lon="-9.731632819924997"><ele>617.0</ele><time>2026-04-28T08:54:15Z</time></trkpt><trkpt lat="29.162521637031936" lon="-9.731853784179995"><ele>617.0</ele><time>2026-04-28T08:54:16Z</time></trkpt><trkpt lat="29.162389646939527" lon="-9.732075955983902"><ele>616.0</ele><time>2026-04-28T08:54:17Z</time></trkpt><trkpt lat="29.162254374183238" lon="-9.7322984321303"><ele>615.0</ele><time>2026-04-28T08:54:18Z</time></trkpt><trkpt lat="29.162120762691853" lon="-9.732514664819387"><ele>614.5</ele><time>2026-04-28T08:54:19Z</time></trkpt><trkpt lat="29.1619906069929" lon="-9.73273144090477"><ele>614.0</ele><time>2026-04-28T08:54:20Z</time></trkpt><trkpt lat="29.1618615952791" lon="-9.732950626932816"><ele>614.0</ele><time>2026-04-28T08:54:21Z</time></trkpt><trkpt lat="29.161730690809225" lon="-9.733170130828215"><ele>614.0</ele><time>2026-04-28T08:54:22Z</time></trkpt><trkpt lat="29.161598050724173" lon="-9.733392036816003"><ele>615.0</ele><time>2026-04-28T08:54:23Z</time></trkpt><trkpt lat="29.16146489011521" lon="-9.73361185580231"><ele>616.0</ele><time>2026-04-28T08:54:24Z</time></trkpt><trkpt lat="29.161330904274116" lon="-9.733832494960623"><ele>616.0</ele><time>2026-04-28T08:54:25Z</time></trkpt><trkpt lat="29.161197110887823" lon="-9.73405629371279"><ele>616.0</ele><time>2026-04-28T08:54:26Z</time></trkpt><trkpt lat="29.161064384024588" lon="-9.73428117492958"><ele>616.0</ele><time>2026-04-28T08:54:27Z</time></trkpt><trkpt lat="29.160930622819723" lon="-9.734506644684664"><ele>616.0</ele><time>2026-04-28T08:54:28Z</time></trkpt><trkpt lat="29.160796779812745" lon="-9.73473191344857"><ele>615.5</ele><time>2026-04-28T08:54:29Z</time></trkpt><trkpt lat="29.16066195391751" lon="-9.734956564675231"><ele>615.0</ele><time>2026-04-28T08:54:30Z</time></trkpt><trkpt lat="29.160527407838618" lon="-9.73518124866977"><ele>615.0</ele><time>2026-04-28T08:54:31Z</time></trkpt><trkpt lat="29.160393277013288" lon="-9.735406518957245"><ele>615.0</ele><time>2026-04-28T08:54:32Z</time></trkpt><trkpt lat="29.16025758653026" lon="-9.735635576142977"><ele>615.0</ele><time>2026-04-28T08:54:33Z</time></trkpt><trkpt lat="29.160117428628983" lon="-9.735870153660656"><ele>615.0</ele><time>2026-04-28T08:54:34Z</time></trkpt><trkpt lat="29.159971300347863" lon="-9.736114291553978"><ele>614.5</ele><time>2026-04-28T08:54:35Z</time></trkpt><trkpt lat="29.159821754959097" lon="-9.73636540107717"><ele>614.0</ele><time>2026-04-28T08:54:36Z</time></trkpt><trkpt lat="29.159665721922472" lon="-9.736627131320613"><ele>613.5</ele><time>2026-04-28T08:54:37Z</time></trkpt><trkpt lat="29.159504832998852" lon="-9.736896058881841"><ele>613.0</ele><time>2026-04-28T08:54:38Z</time></trkpt><trkpt lat="29.159343923565896" lon="-9.737164674842045"><ele>613.0</ele><time>2026-04-28T08:54:39Z</time></trkpt><trkpt lat="29.159182571852718" lon="-9.737436681886171"><ele>613.0</ele><time>2026-04-28T08:54:40Z</time></trkpt><trkpt lat="29.159023463010147" lon="-9.7377084278815"><ele>612.5</ele><time>2026-04-28T08:54:41Z</time></trkpt><trkpt lat="29.15886663791094" lon="-9.737972632739721"><ele>612.0</ele><time>2026-04-28T08:54:42Z</time></trkpt><trkpt lat="29.15871047879275" lon="-9.738232889078803"><ele>612.0</ele><time>2026-04-28T08:54:43Z</time></trkpt><trkpt lat="29.158555802039658" lon="-9.738493166001033"><ele>612.0</ele><time>2026-04-28T08:54:44Z</time></trkpt><trkpt lat="29.15840399928967" lon="-9.738748470019624"><ele>612.0</ele><time>2026-04-28T08:54:45Z</time></trkpt><trkpt lat="29.15825390623975" lon="-9.738998410501525"><ele>612.0</ele><time>2026-04-28T08:54:46Z</time></trkpt><trkpt lat="29.158106806497134" lon="-9.739244196141804"><ele>611.5</ele><time>2026-04-28T08:54:47Z</time></trkpt><trkpt lat="29.15796337297572" lon="-9.739486671855277"><ele>611.0</ele><time>2026-04-28T08:54:48Z</time></trkpt><trkpt lat="29.15782174112615" lon="-9.739726251261217"><ele>611.0</ele><time>2026-04-28T08:54:49Z</time></trkpt><trkpt lat="29.157683801369828" lon="-9.73996254821782"><ele>611.0</ele><time>2026-04-28T08:54:50Z</time></trkpt><trkpt lat="29.15754935443383" lon="-9.740192962149541"><ele>609.5</ele><time>2026-04-28T08:54:51Z</time></trkpt><trkpt lat="29.157412487874463" lon="-9.740430928184143"><ele>608.0</ele><time>2026-04-28T08:54:52Z</time></trkpt><trkpt lat="29.15727498541298" lon="-9.740660542308754"><ele>608.0</ele><time>2026-04-28T08:54:53Z</time></trkpt><trkpt lat="29.15713394489274" lon="-9.74089222561836"><ele>608.0</ele><time>2026-04-28T08:54:54Z</time></trkpt><trkpt lat="29.156990975429245" lon="-9.741128130648093"><ele>607.0</ele><time>2026-04-28T08:54:55Z</time></trkpt><trkpt lat="29.156848277160275" lon="-9.741366518736871"><ele>606.0</ele><time>2026-04-28T08:54:56Z</time></trkpt><trkpt lat="29.156702883910043" lon="-9.741609516369003"><ele>606.0</ele><time>2026-04-28T08:54:57Z</time></trkpt><trkpt lat="29.15655900268084" lon="-9.741851812358084"><ele>606.0</ele><time>2026-04-28T08:54:58Z</time></trkpt><trkpt lat="29.156411500087863" lon="-9.74209432845314"><ele>605.5</ele><time>2026-04-28T08:54:59Z</time></trkpt><trkpt lat="29.156262831774132" lon="-9.742336555501065"><ele>605.0</ele><time>2026-04-28T08:55:00Z</time></trkpt><trkpt lat="29.156113681900578" lon="-9.742583279251996"><ele>604.5</ele><time>2026-04-28T08:55:01Z</time></trkpt><trkpt lat="29.155964642926318" lon="-9.742833723496098"><ele>604.0</ele><time>2026-04-28T08:55:02Z</time></trkpt><trkpt lat="29.155814910536222" lon="-9.743085148144411"><ele>603.0</ele><time>2026-04-28T08:55:03Z</time></trkpt><trkpt lat="29.155662920570272" lon="-9.743340143152528"><ele>602.0</ele><time>2026-04-28T08:55:04Z</time></trkpt><trkpt lat="29.155512212687135" lon="-9.743594195584672"><ele>602.0</ele><time>2026-04-28T08:55:05Z</time></trkpt><trkpt lat="29.15536002009786" lon="-9.74384927743608"><ele>602.0</ele><time>2026-04-28T08:55:06Z</time></trkpt><trkpt lat="29.15520774152159" lon="-9.744103229431037"><ele>602.0</ele><time>2026-04-28T08:55:07Z</time></trkpt><trkpt lat="29.155054151514378" lon="-9.744356956619711"><ele>602.0</ele><time>2026-04-28T08:55:08Z</time></trkpt><trkpt lat="29.15490416233228" lon="-9.744608221815973"><ele>600.0</ele><time>2026-04-28T08:55:09Z</time></trkpt><trkpt lat="29.154755871285282" lon="-9.744859574741351"><ele>598.0</ele><time>2026-04-28T08:55:10Z</time></trkpt><trkpt lat="29.154606689872267" lon="-9.74511273327145"><ele>597.5</ele><time>2026-04-28T08:55:11Z</time></trkpt><trkpt lat="29.154458959268776" lon="-9.745364710870996"><ele>597.0</ele><time>2026-04-28T08:55:12Z</time></trkpt><trkpt lat="29.15430974589838" lon="-9.745615503089587"><ele>597.0</ele><time>2026-04-28T08:55:13Z</time></trkpt><trkpt lat="29.15416082189509" lon="-9.745862264717701"><ele>597.0</ele><time>2026-04-28T08:55:14Z</time></trkpt><trkpt lat="29.15401264288198" lon="-9.746108315928002"><ele>595.0</ele><time>2026-04-28T08:55:15Z</time></trkpt><trkpt lat="29.153863296880107" lon="-9.746355161004193"><ele>593.0</ele><time>2026-04-28T08:55:16Z</time></trkpt><trkpt lat="29.153737794246585" lon="-9.746614223753628"><ele>593.0</ele><time>2026-04-28T08:55:17Z</time></trkpt><trkpt lat="29.15358837177387" lon="-9.746855057751342"><ele>593.0</ele><time>2026-04-28T08:55:18Z</time></trkpt><trkpt lat="29.15342538272232" lon="-9.747088107623226"><ele>593.0</ele><time>2026-04-28T08:55:19Z</time></trkpt><trkpt lat="29.153278905235627" lon="-9.747329856501642"><ele>593.0</ele><time>2026-04-28T08:55:20Z</time></trkpt><trkpt lat="29.153129635400578" lon="-9.74756722536361"><ele>592.0</ele><time>2026-04-28T08:55:21Z</time></trkpt><trkpt lat="29.152976502793564" lon="-9.747798172129489"><ele>591.0</ele><time>2026-04-28T08:55:22Z</time></trkpt><trkpt lat="29.152835170169443" lon="-9.748042873526508"><ele>591.0</ele><time>2026-04-28T08:55:23Z</time></trkpt><trkpt lat="29.152665760110036" lon="-9.748260464885108"><ele>591.0</ele><time>2026-04-28T08:55:24Z</time></trkpt><trkpt lat="29.15249477828205" lon="-9.748476818299544"><ele>591.0</ele><time>2026-04-28T08:55:25Z</time></trkpt><trkpt lat="29.152319630849874" lon="-9.748684512062333"><ele>591.0</ele><time>2026-04-28T08:55:26Z</time></trkpt><trkpt lat="29.152136079665187" lon="-9.74888626754191"><ele>591.0</ele><time>2026-04-28T08:55:27Z</time></trkpt><trkpt lat="29.151945578420598" lon="-9.74907516214204"><ele>591.0</ele><time>2026-04-28T08:55:28Z</time></trkpt><trkpt lat="29.151745489266073" lon="-9.749252630536743"><ele>592.0</ele><time>2026-04-28T08:55:29Z</time></trkpt><trkpt lat="29.151544088548796" lon="-9.749425894426075"><ele>593.0</ele><time>2026-04-28T08:55:30Z</time></trkpt><trkpt lat="29.151339245419088" lon="-9.749594686620233"><ele>593.0</ele><time>2026-04-28T08:55:31Z</time></trkpt><trkpt lat="29.151126137340867" lon="-9.749748984017677"><ele>593.0</ele><time>2026-04-28T08:55:32Z</time></trkpt><trkpt lat="29.15091722540378" lon="-9.749922826409824"><ele>591.5</ele><time>2026-04-28T08:55:33Z</time></trkpt><trkpt lat="29.150706525203347" lon="-9.750099639475923"><ele>590.0</ele><time>2026-04-28T08:55:34Z</time></trkpt><trkpt lat="29.15049188398362" lon="-9.750283074297721"><ele>590.0</ele><time>2026-04-28T08:55:35Z</time></trkpt><trkpt lat="29.15027437919475" lon="-9.75047129590122"><ele>590.0</ele><time>2026-04-28T08:55:36Z</time></trkpt><trkpt lat="29.15006143886197" lon="-9.750655677994493"><ele>589.0</ele><time>2026-04-28T08:55:37Z</time></trkpt><trkpt lat="29.149849168423042" lon="-9.75084051313568"><ele>588.0</ele><time>2026-04-28T08:55:38Z</time></trkpt><trkpt lat="29.149638685423216" lon="-9.751024634480808"><ele>589.5</ele><time>2026-04-28T08:55:39Z</time></trkpt><trkpt lat="29.149424256580854" lon="-9.751210159960948"><ele>591.0</ele><time>2026-04-28T08:55:40Z</time></trkpt><trkpt lat="29.14921142616711" lon="-9.751394817561492"><ele>588.5</ele><time>2026-04-28T08:55:41Z</time></trkpt><trkpt lat="29.148995895368262" lon="-9.751580005874155"><ele>586.0</ele><time>2026-04-28T08:55:42Z</time></trkpt><trkpt lat="29.148779432489967" lon="-9.7517658266508"><ele>587.5</ele><time>2026-04-28T08:55:43Z</time></trkpt><trkpt lat="29.148563925070818" lon="-9.7519500025394"><ele>589.0</ele><time>2026-04-28T08:55:44Z</time></trkpt><trkpt lat="29.14834846664587" lon="-9.752136681246983"><ele>587.5</ele><time>2026-04-28T08:55:45Z</time></trkpt><trkpt lat="29.14813454419029" lon="-9.752320150349409"><ele>586.0</ele><time>2026-04-28T08:55:46Z</time></trkpt><trkpt lat="29.147916703201158" lon="-9.752505942891503"><ele>586.0</ele><time>2026-04-28T08:55:47Z</time></trkpt><trkpt lat="29.147701277129528" lon="-9.752690573286069"><ele>586.0</ele><time>2026-04-28T08:55:48Z</time></trkpt><trkpt lat="29.14748940193796" lon="-9.752873694533333"><ele>584.0</ele><time>2026-04-28T08:55:49Z</time></trkpt><trkpt lat="29.147275781805774" lon="-9.753057623022785"><ele>582.0</ele><time>2026-04-28T08:55:50Z</time></trkpt><trkpt lat="29.147064746802705" lon="-9.75323948008839"><ele>582.0</ele><time>2026-04-28T08:55:51Z</time></trkpt><trkpt lat="29.146851573451997" lon="-9.753423464532306"><ele>582.0</ele><time>2026-04-28T08:55:52Z</time></trkpt><trkpt lat="29.146637891472555" lon="-9.753606362174649"><ele>581.5</ele><time>2026-04-28T08:55:53Z</time></trkpt><trkpt lat="29.14642268091721" lon="-9.753789624804662"><ele>581.0</ele><time>2026-04-28T08:55:54Z</time></trkpt><trkpt lat="29.146206282613495" lon="-9.753975280802239"><ele>581.0</ele><time>2026-04-28T08:55:55Z</time></trkpt><trkpt lat="29.14599100136211" lon="-9.7541608138633"><ele>581.0</ele><time>2026-04-28T08:55:56Z</time></trkpt><trkpt lat="29.145776611342928" lon="-9.754345457889379"><ele>580.5</ele><time>2026-04-28T08:55:57Z</time></trkpt><trkpt lat="29.145570908803123" lon="-9.7545463699771"><ele>580.0</ele><time>2026-04-28T08:55:58Z</time></trkpt><trkpt lat="29.145353412521807" lon="-9.75473589951375"><ele>580.0</ele><time>2026-04-28T08:55:59Z</time></trkpt><trkpt lat="29.145138064147737" lon="-9.754923636642415"><ele>580.0</ele><time>2026-04-28T08:56:00Z</time></trkpt><trkpt lat="29.14492317244437" lon="-9.755110975658043"><ele>579.0</ele><time>2026-04-28T08:56:01Z</time></trkpt><trkpt lat="29.14471136999114" lon="-9.755295621534074"><ele>578.0</ele><time>2026-04-28T08:56:02Z</time></trkpt><trkpt lat="29.14450156428422" lon="-9.755477913961059"><ele>578.0</ele><time>2026-04-28T08:56:03Z</time></trkpt><trkpt lat="29.144292135025115" lon="-9.755657778336062"><ele>578.0</ele><time>2026-04-28T08:56:04Z</time></trkpt><trkpt lat="29.144088431440682" lon="-9.755834606440025"><ele>578.5</ele><time>2026-04-28T08:56:05Z</time></trkpt><trkpt lat="29.143883702297583" lon="-9.756012004522256"><ele>579.0</ele><time>2026-04-28T08:56:06Z</time></trkpt><trkpt lat="29.143682824187053" lon="-9.756186125969945"><ele>579.0</ele><time>2026-04-28T08:56:07Z</time></trkpt><trkpt lat="29.143480496461322" lon="-9.756361499370202"><ele>579.0</ele><time>2026-04-28T08:56:08Z</time></trkpt><trkpt lat="29.143279861220716" lon="-9.756535405917251"><ele>578.5</ele><time>2026-04-28T08:56:09Z</time></trkpt><trkpt lat="29.14305931530237" lon="-9.756678246487951"><ele>578.0</ele><time>2026-04-28T08:56:10Z</time></trkpt><trkpt lat="29.142860546320048" lon="-9.756854555707285"><ele>577.0</ele><time>2026-04-28T08:56:11Z</time></trkpt><trkpt lat="29.142665360755778" lon="-9.757034534565982"><ele>576.0</ele><time>2026-04-28T08:56:12Z</time></trkpt><trkpt lat="29.14247523467959" lon="-9.757221984065799"><ele>575.5</ele><time>2026-04-28T08:56:13Z</time></trkpt><trkpt lat="29.14229325497401" lon="-9.75741754821389"><ele>575.0</ele><time>2026-04-28T08:56:14Z</time></trkpt><trkpt lat="29.142113968508884" lon="-9.757620494500154"><ele>575.5</ele><time>2026-04-28T08:56:15Z</time></trkpt><trkpt lat="29.141937112756217" lon="-9.75783059439699"><ele>576.0</ele><time>2026-04-28T08:56:16Z</time></trkpt><trkpt lat="29.14176415544275" lon="-9.758044544493076"><ele>576.0</ele><time>2026-04-28T08:56:17Z</time></trkpt><trkpt lat="29.14159277000946" lon="-9.758266763264915"><ele>576.0</ele><time>2026-04-28T08:56:18Z</time></trkpt><trkpt lat="29.141427812033992" lon="-9.758493287657288"><ele>575.0</ele><time>2026-04-28T08:56:19Z</time></trkpt><trkpt lat="29.14126218775885" lon="-9.758722604550398"><ele>574.0</ele><time>2026-04-28T08:56:20Z</time></trkpt><trkpt lat="29.141093093587482" lon="-9.758950778261205"><ele>574.0</ele><time>2026-04-28T08:56:21Z</time></trkpt><trkpt lat="29.140921789057543" lon="-9.759180462000826"><ele>574.0</ele><time>2026-04-28T08:56:22Z</time></trkpt><trkpt lat="29.140747746178683" lon="-9.759410759825238"><ele>572.0</ele><time>2026-04-28T08:56:23Z</time></trkpt><trkpt lat="29.140573225977406" lon="-9.759639482234594"><ele>570.0</ele><time>2026-04-28T08:56:24Z</time></trkpt><trkpt lat="29.140396725927957" lon="-9.759873346696088"><ele>570.0</ele><time>2026-04-28T08:56:25Z</time></trkpt><trkpt lat="29.140223990997118" lon="-9.760102656125484"><ele>570.0</ele><time>2026-04-28T08:56:26Z</time></trkpt><trkpt lat="29.140054089014036" lon="-9.760334040209937"><ele>570.0</ele><time>2026-04-28T08:56:27Z</time></trkpt><trkpt lat="29.139888973656642" lon="-9.760559443633703"><ele>570.0</ele><time>2026-04-28T08:56:28Z</time></trkpt><trkpt lat="29.139728900583993" lon="-9.760774852509986"><ele>570.0</ele><time>2026-04-28T08:56:29Z</time></trkpt><trkpt lat="29.1395755233064" lon="-9.760982573665865"><ele>570.0</ele><time>2026-04-28T08:56:30Z</time></trkpt><trkpt lat="29.139428117947705" lon="-9.761183184071998"><ele>570.0</ele><time>2026-04-28T08:56:31Z</time></trkpt><trkpt lat="29.139281635180474" lon="-9.761376232421096"><ele>570.0</ele><time>2026-04-28T08:56:32Z</time></trkpt><trkpt lat="29.1391386647793" lon="-9.761565163264638"><ele>570.0</ele><time>2026-04-28T08:56:33Z</time></trkpt><trkpt lat="29.138994298776833" lon="-9.761755995642048"><ele>570.0</ele><time>2026-04-28T08:56:34Z</time></trkpt><trkpt lat="29.13885233528102" lon="-9.761948354339893"><ele>570.0</ele><time>2026-04-28T08:56:35Z</time></trkpt><trkpt lat="29.138706418945734" lon="-9.762148546389868"><ele>570.0</ele><time>2026-04-28T08:56:36Z</time></trkpt><trkpt lat="29.13855849891755" lon="-9.762345269364841"><ele>570.0</ele><time>2026-04-28T08:56:37Z</time></trkpt><trkpt lat="29.138412462881384" lon="-9.762541016382123"><ele>570.0</ele><time>2026-04-28T08:56:38Z</time></trkpt><trkpt lat="29.138263254508562" lon="-9.762743472007715"><ele>568.0</ele><time>2026-04-28T08:56:39Z</time></trkpt><trkpt lat="29.138110795843712" lon="-9.762951000370022"><ele>566.0</ele><time>2026-04-28T08:56:40Z</time></trkpt><trkpt lat="29.1379558340699" lon="-9.763160320404552"><ele>566.0</ele><time>2026-04-28T08:56:41Z</time></trkpt><trkpt lat="29.13779604400468" lon="-9.76337568266744"><ele>566.0</ele><time>2026-04-28T08:56:42Z</time></trkpt><trkpt lat="29.137640945320907" lon="-9.763592072334237"><ele>566.5</ele><time>2026-04-28T08:56:43Z</time></trkpt><trkpt lat="29.13749121755606" lon="-9.763814830008048"><ele>567.0</ele><time>2026-04-28T08:56:44Z</time></trkpt><trkpt lat="29.13734360622891" lon="-9.764041239994077"><ele>565.5</ele><time>2026-04-28T08:56:45Z</time></trkpt><trkpt lat="29.137196987018296" lon="-9.76427503226838"><ele>564.0</ele><time>2026-04-28T08:56:46Z</time></trkpt><trkpt lat="29.137049067547817" lon="-9.764527433115264"><ele>564.0</ele><time>2026-04-28T08:56:47Z</time></trkpt><trkpt lat="29.136899386410718" lon="-9.76479748320035"><ele>564.0</ele><time>2026-04-28T08:56:48Z</time></trkpt><trkpt lat="29.136753448415476" lon="-9.765070442117148"><ele>564.0</ele><time>2026-04-28T08:56:49Z</time></trkpt><trkpt lat="29.136611319370967" lon="-9.765340333798038"><ele>564.0</ele><time>2026-04-28T08:56:50Z</time></trkpt><trkpt lat="29.136468412316294" lon="-9.76560758468588"><ele>561.5</ele><time>2026-04-28T08:56:51Z</time></trkpt><trkpt lat="29.136322645533507" lon="-9.765870077536135"><ele>559.0</ele><time>2026-04-28T08:56:52Z</time></trkpt><trkpt lat="29.13617631376526" lon="-9.766134727431094"><ele>557.0</ele><time>2026-04-28T08:56:53Z</time></trkpt><trkpt lat="29.13603029203174" lon="-9.76640308226227"><ele>555.0</ele><time>2026-04-28T08:56:54Z</time></trkpt><trkpt lat="29.135883612396135" lon="-9.766671001689456"><ele>554.0</ele><time>2026-04-28T08:56:55Z</time></trkpt><trkpt lat="29.13573520146905" lon="-9.766939460139248"><ele>553.0</ele><time>2026-04-28T08:56:56Z</time></trkpt><trkpt lat="29.13558716263598" lon="-9.76720796263243"><ele>552.0</ele><time>2026-04-28T08:56:57Z</time></trkpt><trkpt lat="29.13543723292638" lon="-9.767474745197157"><ele>551.0</ele><time>2026-04-28T08:56:58Z</time></trkpt><trkpt lat="29.135291444333763" lon="-9.767740898520616"><ele>549.5</ele><time>2026-04-28T08:56:59Z</time></trkpt><trkpt lat="29.135143729200255" lon="-9.768008314372215"><ele>548.0</ele><time>2026-04-28T08:57:00Z</time></trkpt><trkpt lat="29.134996956133218" lon="-9.768274298876559"><ele>547.0</ele><time>2026-04-28T08:57:01Z</time></trkpt><trkpt lat="29.134850636944176" lon="-9.768543038627787"><ele>546.0</ele><time>2026-04-28T08:57:02Z</time></trkpt><trkpt lat="29.13470518842847" lon="-9.768812360104413"><ele>546.0</ele><time>2026-04-28T08:57:03Z</time></trkpt><trkpt lat="29.13455804483172" lon="-9.76908131976712"><ele>546.0</ele><time>2026-04-28T08:57:04Z</time></trkpt><trkpt lat="29.134411060124442" lon="-9.769349850337491"><ele>545.5</ele><time>2026-04-28T08:57:05Z</time></trkpt><trkpt lat="29.134264560172596" lon="-9.769618234340081"><ele>545.0</ele><time>2026-04-28T08:57:06Z</time></trkpt><trkpt lat="29.134117884669703" lon="-9.769883967360432"><ele>544.0</ele><time>2026-04-28T08:57:07Z</time></trkpt><trkpt lat="29.133971230306454" lon="-9.770148497647572"><ele>543.0</ele><time>2026-04-28T08:57:08Z</time></trkpt><trkpt lat="29.13382541730399" lon="-9.770412357598508"><ele>542.0</ele><time>2026-04-28T08:57:09Z</time></trkpt><trkpt lat="29.133682587595917" lon="-9.770675462865356"><ele>541.0</ele><time>2026-04-28T08:57:10Z</time></trkpt><trkpt lat="29.13354063256317" lon="-9.770937132458736"><ele>540.5</ele><time>2026-04-28T08:57:11Z</time></trkpt><trkpt lat="29.13339582820505" lon="-9.77120190424723"><ele>540.0</ele><time>2026-04-28T08:57:12Z</time></trkpt><trkpt lat="29.133253103685842" lon="-9.77146341418689"><ele>539.0</ele><time>2026-04-28T08:57:13Z</time></trkpt><trkpt lat="29.133110720849437" lon="-9.771724650311363"><ele>538.0</ele><time>2026-04-28T08:57:14Z</time></trkpt><trkpt lat="29.132967720100915" lon="-9.771982905741309"><ele>537.5</ele><time>2026-04-28T08:57:15Z</time></trkpt><trkpt lat="29.132827638839593" lon="-9.772232769954456"><ele>537.0</ele><time>2026-04-28T08:57:16Z</time></trkpt><trkpt lat="29.13269475020093" lon="-9.772470352936102"><ele>537.5</ele><time>2026-04-28T08:57:17Z</time></trkpt><trkpt lat="29.132569434899015" lon="-9.772697096140815"><ele>538.0</ele><time>2026-04-28T08:57:18Z</time></trkpt><trkpt lat="29.13244781011579" lon="-9.772921824977498"><ele>536.5</ele><time>2026-04-28T08:57:19Z</time></trkpt><trkpt lat="29.132326038293414" lon="-9.773152674022416"><ele>535.0</ele><time>2026-04-28T08:57:20Z</time></trkpt><trkpt lat="29.13220500218296" lon="-9.773385208110614"><ele>534.5</ele><time>2026-04-28T08:57:21Z</time></trkpt><trkpt lat="29.132077687593075" lon="-9.773615700447644"><ele>534.0</ele><time>2026-04-28T08:57:22Z</time></trkpt><trkpt lat="29.131951347678104" lon="-9.7738404170982"><ele>534.0</ele><time>2026-04-28T08:57:23Z</time></trkpt><trkpt lat="29.131825396439833" lon="-9.774066388935392"><ele>534.0</ele><time>2026-04-28T08:57:24Z</time></trkpt><trkpt lat="29.131704344515025" lon="-9.774290165379313"><ele>534.0</ele><time>2026-04-28T08:57:25Z</time></trkpt><trkpt lat="29.131583062111048" lon="-9.774515801308882"><ele>534.0</ele><time>2026-04-28T08:57:26Z</time></trkpt><trkpt lat="29.131460539127666" lon="-9.774742695648298"><ele>534.0</ele><time>2026-04-28T08:57:27Z</time></trkpt><trkpt lat="29.13133526353197" lon="-9.774969001039404"><ele>534.0</ele><time>2026-04-28T08:57:28Z</time></trkpt><trkpt lat="29.13120824374591" lon="-9.775197344632542"><ele>535.0</ele><time>2026-04-28T08:57:29Z</time></trkpt><trkpt lat="29.131079972242443" lon="-9.775430812079492"><ele>536.0</ele><time>2026-04-28T08:57:30Z</time></trkpt><trkpt lat="29.130947940071437" lon="-9.77566919336709"><ele>536.0</ele><time>2026-04-28T08:57:31Z</time></trkpt><trkpt lat="29.130812512801118" lon="-9.775912639233157"><ele>536.0</ele><time>2026-04-28T08:57:32Z</time></trkpt><trkpt lat="29.130678786277723" lon="-9.776161363199897"><ele>536.0</ele><time>2026-04-28T08:57:33Z</time></trkpt><trkpt lat="29.130546387773173" lon="-9.776411853206326"><ele>536.0</ele><time>2026-04-28T08:57:34Z</time></trkpt><trkpt lat="29.130410658442464" lon="-9.776662522433897"><ele>536.5</ele><time>2026-04-28T08:57:35Z</time></trkpt><trkpt lat="29.13027391164134" lon="-9.776912058548517"><ele>537.0</ele><time>2026-04-28T08:57:36Z</time></trkpt><trkpt lat="29.130136873035777" lon="-9.777158812186626"><ele>537.0</ele><time>2026-04-28T08:57:37Z</time></trkpt><trkpt lat="29.130002445469355" lon="-9.777402358188892"><ele>537.0</ele><time>2026-04-28T08:57:38Z</time></trkpt><trkpt lat="29.129876792313677" lon="-9.777632234194058"><ele>536.6666666666666</ele><time>2026-04-28T08:57:39Z</time></trkpt><trkpt lat="29.129758321543257" lon="-9.777850499932915"><ele>536.3333333333333</ele><time>2026-04-28T08:57:40Z</time></trkpt><trkpt lat="29.129648187075713" lon="-9.778055214485422"><ele>536.0</ele><time>2026-04-28T08:57:41Z</time></trkpt><trkpt lat="29.12953874655942" lon="-9.77825971358205"><ele>536.0</ele><time>2026-04-28T08:57:42Z</time></trkpt><trkpt lat="29.12943088434242" lon="-9.778461137943937"><ele>536.0</ele><time>2026-04-28T08:57:43Z</time></trkpt><trkpt lat="29.1293209607195" lon="-9.778662183479938"><ele>536.0</ele><time>2026-04-28T08:57:44Z</time></trkpt><trkpt lat="29.129215853289598" lon="-9.778857542289641"><ele>536.0</ele><time>2026-04-28T08:57:45Z</time></trkpt><trkpt lat="29.129114127450972" lon="-9.77904548515595"><ele>536.0</ele><time>2026-04-28T08:57:46Z</time></trkpt><trkpt lat="29.129013687512643" lon="-9.779226699533297"><ele>536.0</ele><time>2026-04-28T08:57:47Z</time></trkpt><trkpt lat="29.128918282084385" lon="-9.779402663105992"><ele>535.3333333333333</ele><time>2026-04-28T08:57:48Z</time></trkpt><trkpt lat="29.12882491508141" lon="-9.779576360487312"><ele>534.6666666666666</ele><time>2026-04-28T08:57:49Z</time></trkpt><trkpt lat="29.128733513013042" lon="-9.77974805861819"><ele>534.0</ele><time>2026-04-28T08:57:50Z</time></trkpt><trkpt lat="29.128642366802133" lon="-9.779916364391763"><ele>534.0</ele><time>2026-04-28T08:57:51Z</time></trkpt><trkpt lat="29.12855254624495" lon="-9.780084061453454"><ele>534.0</ele><time>2026-04-28T08:57:52Z</time></trkpt><trkpt lat="29.128458856285945" lon="-9.780254116875634"><ele>534.0</ele><time>2026-04-28T08:57:53Z</time></trkpt><trkpt lat="29.12836711297333" lon="-9.780423125945692"><ele>533.0</ele><time>2026-04-28T08:57:54Z</time></trkpt><trkpt lat="29.128274099799892" lon="-9.780591216102618"><ele>532.0</ele><time>2026-04-28T08:57:55Z</time></trkpt><trkpt lat="29.12817852612334" lon="-9.780762138092125"><ele>531.0</ele><time>2026-04-28T08:57:56Z</time></trkpt><trkpt lat="29.128084456775376" lon="-9.78093102406382"><ele>530.6666666666666</ele><time>2026-04-28T08:57:57Z</time></trkpt><trkpt lat="29.127988871225988" lon="-9.781105786378417"><ele>530.3333333333333</ele><time>2026-04-28T08:57:58Z</time></trkpt><trkpt lat="29.12789236730399" lon="-9.781285096808663"><ele>530.0</ele><time>2026-04-28T08:57:59Z</time></trkpt><trkpt lat="29.127792047641776" lon="-9.78146807228204"><ele>530.0</ele><time>2026-04-28T08:58:00Z</time></trkpt><trkpt lat="29.127688716415292" lon="-9.781656209611569"><ele>530.0</ele><time>2026-04-28T08:58:01Z</time></trkpt><trkpt lat="29.127592919561824" lon="-9.781830226004887"><ele>530.0</ele><time>2026-04-28T08:58:02Z</time></trkpt><trkpt lat="29.127498461561764" lon="-9.781996001505066"><ele>529.6666666666666</ele><time>2026-04-28T08:58:03Z</time></trkpt><trkpt lat="29.12740345782021" lon="-9.78216293222522"><ele>529.3333333333334</ele><time>2026-04-28T08:58:04Z</time></trkpt><trkpt lat="29.12730476831455" lon="-9.782332655020602"><ele>529.0</ele><time>2026-04-28T08:58:05Z</time></trkpt><trkpt lat="29.127224925923155" lon="-9.78251254975599"><ele>529.0</ele><time>2026-04-28T08:58:06Z</time></trkpt><trkpt lat="29.127127692433078" lon="-9.782693425651773"><ele>529.0</ele><time>2026-04-28T08:58:07Z</time></trkpt><trkpt lat="29.127022926745553" lon="-9.782888605358332"><ele>529.0</ele><time>2026-04-28T08:58:08Z</time></trkpt><trkpt lat="29.12692050022654" lon="-9.783079507192301"><ele>529.0</ele><time>2026-04-28T08:58:09Z</time></trkpt><trkpt lat="29.126827037780107" lon="-9.783253706189768"><ele>529.0</ele><time>2026-04-28T08:58:10Z</time></trkpt><trkpt lat="29.12675314964396" lon="-9.783391248467785"><ele>529.0</ele><time>2026-04-28T08:58:11Z</time></trkpt><trkpt lat="29.12668699008721" lon="-9.783514372766659"><ele>529.0</ele><time>2026-04-28T08:58:12Z</time></trkpt><trkpt lat="29.126617526423075" lon="-9.783643646081574"><ele>529.5</ele><time>2026-04-28T08:58:13Z</time></trkpt><trkpt lat="29.126550000820128" lon="-9.783769312619604"><ele>530.0</ele><time>2026-04-28T08:58:14Z</time></trkpt><trkpt lat="29.126487350040865" lon="-9.783885907021231"><ele>530.5</ele><time>2026-04-28T08:58:15Z</time></trkpt><trkpt lat="29.1264257938772" lon="-9.784000464307498"><ele>531.0</ele><time>2026-04-28T08:58:16Z</time></trkpt><trkpt lat="29.126360599958584" lon="-9.784121791531591"><ele>531.0</ele><time>2026-04-28T08:58:17Z</time></trkpt><trkpt lat="29.12629241173736" lon="-9.784248485345557"><ele>531.0</ele><time>2026-04-28T08:58:18Z</time></trkpt><trkpt lat="29.126219246142245" lon="-9.784385290540072"><ele>531.0</ele><time>2026-04-28T08:58:19Z</time></trkpt><trkpt lat="29.126141673032176" lon="-9.784531727504838"><ele>531.0</ele><time>2026-04-28T08:58:20Z</time></trkpt><trkpt lat="29.126057711308064" lon="-9.78469471824696"><ele>531.0</ele><time>2026-04-28T08:58:21Z</time></trkpt><trkpt lat="29.125972858589186" lon="-9.784857964552572"><ele>531.0</ele><time>2026-04-28T08:58:22Z</time></trkpt><trkpt lat="29.125882476393492" lon="-9.78502682660544"><ele>531.0</ele><time>2026-04-28T08:58:23Z</time></trkpt><trkpt lat="29.12578482940793" lon="-9.785204856474897"><ele>530.6666666666666</ele><time>2026-04-28T08:58:24Z</time></trkpt><trkpt lat="29.125681717234393" lon="-9.785393121096911"><ele>530.3333333333333</ele><time>2026-04-28T08:58:25Z</time></trkpt><trkpt lat="29.12557626231482" lon="-9.785585906774212"><ele>530.0</ele><time>2026-04-28T08:58:26Z</time></trkpt><trkpt lat="29.125467809503334" lon="-9.785783928130014"><ele>530.0</ele><time>2026-04-28T08:58:27Z</time></trkpt><trkpt lat="29.125352909054495" lon="-9.78599365455891"><ele>530.0</ele><time>2026-04-28T08:58:28Z</time></trkpt><trkpt lat="29.12523397291794" lon="-9.786210746123642"><ele>530.0</ele><time>2026-04-28T08:58:29Z</time></trkpt><trkpt lat="29.125118654759063" lon="-9.786421238178294"><ele>529.6666666666666</ele><time>2026-04-28T08:58:30Z</time></trkpt><trkpt lat="29.125001854395478" lon="-9.786635650753402"><ele>529.3333333333334</ele><time>2026-04-28T08:58:31Z</time></trkpt><trkpt lat="29.12488137951737" lon="-9.786854905241874"><ele>529.0</ele><time>2026-04-28T08:58:32Z</time></trkpt><trkpt lat="29.124755257628543" lon="-9.787084934221928"><ele>527.5</ele><time>2026-04-28T08:58:33Z</time></trkpt><trkpt lat="29.124629705703764" lon="-9.787321502010725"><ele>526.0</ele><time>2026-04-28T08:58:34Z</time></trkpt><trkpt lat="29.124507162463495" lon="-9.787560148376341"><ele>525.5</ele><time>2026-04-28T08:58:35Z</time></trkpt><trkpt lat="29.12438241596772" lon="-9.78779968308328"><ele>525.0</ele><time>2026-04-28T08:58:36Z</time></trkpt><trkpt lat="29.124255814309027" lon="-9.788042969189128"><ele>525.0</ele><time>2026-04-28T08:58:37Z</time></trkpt><trkpt lat="29.124129623194058" lon="-9.788284672792338"><ele>525.0</ele><time>2026-04-28T08:58:38Z</time></trkpt><trkpt lat="29.124015268360417" lon="-9.78852552531727"><ele>524.5</ele><time>2026-04-28T08:58:39Z</time></trkpt><trkpt lat="29.1239132881442" lon="-9.788769351079948"><ele>524.0</ele><time>2026-04-28T08:58:40Z</time></trkpt><trkpt lat="29.123819655480737" lon="-9.789013036793913"><ele>524.0</ele><time>2026-04-28T08:58:41Z</time></trkpt><trkpt lat="29.123734523793818" lon="-9.789262731992695"><ele>524.0</ele><time>2026-04-28T08:58:42Z</time></trkpt><trkpt lat="29.123650848811923" lon="-9.789512939871083"><ele>524.0</ele><time>2026-04-28T08:58:43Z</time></trkpt><trkpt lat="29.12356839560706" lon="-9.789764030650948"><ele>524.0</ele><time>2026-04-28T08:58:44Z</time></trkpt><trkpt lat="29.12349211561752" lon="-9.789998512642837"><ele>524.0</ele><time>2026-04-28T08:58:45Z</time></trkpt><trkpt lat="29.123420483449866" lon="-9.790217371157427"><ele>524.0</ele><time>2026-04-28T08:58:46Z</time></trkpt><trkpt lat="29.123351281293488" lon="-9.790428579469754"><ele>524.0</ele><time>2026-04-28T08:58:47Z</time></trkpt><trkpt lat="29.12328562615878" lon="-9.790629161620052"><ele>523.6666666666666</ele><time>2026-04-28T08:58:48Z</time></trkpt><trkpt lat="29.1232184457097" lon="-9.790834403721671"><ele>523.3333333333334</ele><time>2026-04-28T08:58:49Z</time></trkpt><trkpt lat="29.12314660801061" lon="-9.791052755755096"><ele>523.0</ele><time>2026-04-28T08:58:50Z</time></trkpt><trkpt lat="29.123070352983117" lon="-9.791281702912451"><ele>523.0</ele><time>2026-04-28T08:58:51Z</time></trkpt><trkpt lat="29.122994100108034" lon="-9.79151064366526"><ele>523.0</ele><time>2026-04-28T08:58:52Z</time></trkpt><trkpt lat="29.122913553477023" lon="-9.791751903181332"><ele>523.0</ele><time>2026-04-28T08:58:53Z</time></trkpt><trkpt lat="29.12282056215783" lon="-9.791985511408269"><ele>523.0</ele><time>2026-04-28T08:58:54Z</time></trkpt><trkpt lat="29.12275515398589" lon="-9.792228107206993"><ele>523.0</ele><time>2026-04-28T08:58:55Z</time></trkpt><trkpt lat="29.122662644294376" lon="-9.792457126229"><ele>523.0</ele><time>2026-04-28T08:58:56Z</time></trkpt><trkpt lat="29.122599193041868" lon="-9.79269979024347"><ele>522.6666666666667</ele><time>2026-04-28T08:58:57Z</time></trkpt><trkpt lat="29.122522638215223" lon="-9.792938235199813"><ele>522.3333333333334</ele><time>2026-04-28T08:58:58Z</time></trkpt><trkpt lat="29.12244456893762" lon="-9.79317763469874"><ele>522.0</ele><time>2026-04-28T08:58:59Z</time></trkpt><trkpt lat="29.1223550153267" lon="-9.793410496071267"><ele>521.3333333333334</ele><time>2026-04-28T08:59:00Z</time></trkpt><trkpt lat="29.122277345215075" lon="-9.793648352100197"><ele>520.6666666666667</ele><time>2026-04-28T08:59:01Z</time></trkpt><trkpt lat="29.12219760127362" lon="-9.793889871718186"><ele>520.0</ele><time>2026-04-28T08:59:02Z</time></trkpt><trkpt lat="29.12211964682442" lon="-9.79412780323164"><ele>520.0</ele><time>2026-04-28T08:59:03Z</time></trkpt><trkpt lat="29.122056724907207" lon="-9.794371504496706"><ele>520.0</ele><time>2026-04-28T08:59:04Z</time></trkpt><trkpt lat="29.121980707565893" lon="-9.794605377065828"><ele>520.0</ele><time>2026-04-28T08:59:05Z</time></trkpt><trkpt lat="29.121904480498944" lon="-9.7948355649399"><ele>520.0</ele><time>2026-04-28T08:59:06Z</time></trkpt><trkpt lat="29.121829346997938" lon="-9.795064539159876"><ele>520.0</ele><time>2026-04-28T08:59:07Z</time></trkpt><trkpt lat="29.121754814142754" lon="-9.795292167213901"><ele>520.0</ele><time>2026-04-28T08:59:08Z</time></trkpt><trkpt lat="29.12167963016286" lon="-9.795523375627544"><ele>519.6666666666667</ele><time>2026-04-28T08:59:09Z</time></trkpt><trkpt lat="29.121600222908732" lon="-9.795762806884161"><ele>519.3333333333334</ele><time>2026-04-28T08:59:10Z</time></trkpt><trkpt lat="29.121522458404414" lon="-9.795999993169227"><ele>519.0</ele><time>2026-04-28T08:59:11Z</time></trkpt><trkpt lat="29.12144334989338" lon="-9.79624127873942"><ele>519.0</ele><time>2026-04-28T08:59:12Z</time></trkpt><trkpt lat="29.12136369815377" lon="-9.796484221181272"><ele>519.0</ele><time>2026-04-28T08:59:13Z</time></trkpt><trkpt lat="29.12128345166923" lon="-9.796728336695317"><ele>520.0</ele><time>2026-04-28T08:59:14Z</time></trkpt><trkpt lat="29.121203468406144" lon="-9.796973255136553"><ele>521.0</ele><time>2026-04-28T08:59:15Z</time></trkpt><trkpt lat="29.121123380939373" lon="-9.797218492666124"><ele>521.0</ele><time>2026-04-28T08:59:16Z</time></trkpt><trkpt lat="29.12104228201269" lon="-9.797464388708754"><ele>521.0</ele><time>2026-04-28T08:59:17Z</time></trkpt><trkpt lat="29.120962292966194" lon="-9.797708946439796"><ele>521.0</ele><time>2026-04-28T08:59:18Z</time></trkpt><trkpt lat="29.120880919678786" lon="-9.797957413428865"><ele>521.0</ele><time>2026-04-28T08:59:19Z</time></trkpt><trkpt lat="29.12079967609802" lon="-9.7982050388737"><ele>521.0</ele><time>2026-04-28T08:59:20Z</time></trkpt><trkpt lat="29.12071916129215" lon="-9.798448986069488"><ele>521.0</ele><time>2026-04-28T08:59:21Z</time></trkpt><trkpt lat="29.120636790662928" lon="-9.79869996259209"><ele>519.5</ele><time>2026-04-28T08:59:22Z</time></trkpt><trkpt lat="29.120555658157773" lon="-9.798947859814593"><ele>518.0</ele><time>2026-04-28T08:59:23Z</time></trkpt><trkpt lat="29.12047533265773" lon="-9.799193159438683"><ele>517.0</ele><time>2026-04-28T08:59:24Z</time></trkpt><trkpt lat="29.12039419773565" lon="-9.799439560110976"><ele>516.0</ele><time>2026-04-28T08:59:25Z</time></trkpt><trkpt lat="29.120312993407317" lon="-9.799686380224433"><ele>516.0</ele><time>2026-04-28T08:59:26Z</time></trkpt><trkpt lat="29.12023094112161" lon="-9.799937345975966"><ele>516.0</ele><time>2026-04-28T08:59:27Z</time></trkpt><trkpt lat="29.120148537693478" lon="-9.800189386472388"><ele>516.0</ele><time>2026-04-28T08:59:28Z</time></trkpt><trkpt lat="29.1200654296071" lon="-9.800443582248835"><ele>516.0</ele><time>2026-04-28T08:59:29Z</time></trkpt><trkpt lat="29.119981789132677" lon="-9.800695884660898"><ele>516.0</ele><time>2026-04-28T08:59:30Z</time></trkpt><trkpt lat="29.119880164895964" lon="-9.800946291604195"><ele>516.0</ele><time>2026-04-28T08:59:31Z</time></trkpt><trkpt lat="29.119796350272964" lon="-9.801199907915118"><ele>516.0</ele><time>2026-04-28T08:59:32Z</time></trkpt><trkpt lat="29.119710905892468" lon="-9.801459722773432"><ele>516.0</ele><time>2026-04-28T08:59:33Z</time></trkpt><trkpt lat="29.11962623374531" lon="-9.801716828916328"><ele>516.5</ele><time>2026-04-28T08:59:34Z</time></trkpt><trkpt lat="29.119540901322846" lon="-9.801975521306376"><ele>517.0</ele><time>2026-04-28T08:59:35Z</time></trkpt><trkpt lat="29.119457103540697" lon="-9.802234125404391"><ele>517.0</ele><time>2026-04-28T08:59:36Z</time></trkpt><trkpt lat="29.119370604555577" lon="-9.802497181408224"><ele>517.0</ele><time>2026-04-28T08:59:37Z</time></trkpt><trkpt lat="29.11928568131783" lon="-9.802758333213024"><ele>515.0</ele><time>2026-04-28T08:59:38Z</time></trkpt><trkpt lat="29.119202374994302" lon="-9.803018803871888"><ele>513.0</ele><time>2026-04-28T08:59:39Z</time></trkpt><trkpt lat="29.11912080733997" lon="-9.803276000192339"><ele>513.5</ele><time>2026-04-28T08:59:40Z</time></trkpt><trkpt lat="29.119037459945595" lon="-9.80352981669889"><ele>514.0</ele><time>2026-04-28T08:59:41Z</time></trkpt><trkpt lat="29.1189520815385" lon="-9.803781253896721"><ele>514.0</ele><time>2026-04-28T08:59:42Z</time></trkpt><trkpt lat="29.118867842523755" lon="-9.80403083900686"><ele>514.0</ele><time>2026-04-28T08:59:43Z</time></trkpt><trkpt lat="29.118784900659975" lon="-9.804286139373842"><ele>514.0</ele><time>2026-04-28T08:59:44Z</time></trkpt><trkpt lat="29.1187012798764" lon="-9.804540579668783"><ele>514.0</ele><time>2026-04-28T08:59:45Z</time></trkpt><trkpt lat="29.118617525529007" lon="-9.804800640546318"><ele>514.0</ele><time>2026-04-28T08:59:46Z</time></trkpt><trkpt lat="29.118537116149962" lon="-9.805059506406373"><ele>514.0</ele><time>2026-04-28T08:59:47Z</time></trkpt><trkpt lat="29.118454646703228" lon="-9.805311196950479"><ele>514.0</ele><time>2026-04-28T08:59:48Z</time></trkpt><trkpt lat="29.118369605416493" lon="-9.805559962502054"><ele>514.0</ele><time>2026-04-28T08:59:49Z</time></trkpt><trkpt lat="29.118285348154675" lon="-9.805811238129007"><ele>512.5</ele><time>2026-04-28T08:59:50Z</time></trkpt><trkpt lat="29.11820362579171" lon="-9.806065551766041"><ele>511.0</ele><time>2026-04-28T08:59:51Z</time></trkpt><trkpt lat="29.11812428779531" lon="-9.806322078812856"><ele>511.0</ele><time>2026-04-28T08:59:52Z</time></trkpt><trkpt lat="29.11804149485565" lon="-9.806579100130223"><ele>511.0</ele><time>2026-04-28T08:59:53Z</time></trkpt><trkpt lat="29.11795620954344" lon="-9.806837903750369"><ele>511.5</ele><time>2026-04-28T08:59:54Z</time></trkpt><trkpt lat="29.117870159679565" lon="-9.807096572828184"><ele>512.0</ele><time>2026-04-28T08:59:55Z</time></trkpt><trkpt lat="29.117783141971234" lon="-9.807356154391066"><ele>512.0</ele><time>2026-04-28T08:59:56Z</time></trkpt><trkpt lat="29.117695748622502" lon="-9.807616467864232"><ele>512.0</ele><time>2026-04-28T08:59:57Z</time></trkpt><trkpt lat="29.117610181954912" lon="-9.807878164909624"><ele>511.5</ele><time>2026-04-28T08:59:58Z</time></trkpt><trkpt lat="29.117525279902736" lon="-9.808137393124746"><ele>511.0</ele><time>2026-04-28T08:59:59Z</time></trkpt><trkpt lat="29.117436526727136" lon="-9.808400784695042"><ele>511.0</ele><time>2026-04-28T09:00:00Z</time></trkpt><trkpt lat="29.117349295618116" lon="-9.808658738604024"><ele>511.0</ele><time>2026-04-28T09:00:01Z</time></trkpt><trkpt lat="29.11726174507905" lon="-9.808917769533688"><ele>511.0</ele><time>2026-04-28T09:00:02Z</time></trkpt><trkpt lat="29.117177349887402" lon="-9.809178369881106"><ele>511.0</ele><time>2026-04-28T09:00:03Z</time></trkpt><trkpt lat="29.1170954919822" lon="-9.809441300130722"><ele>511.0</ele><time>2026-04-28T09:00:04Z</time></trkpt><trkpt lat="29.117014439008898" lon="-9.809704540316748"><ele>511.0</ele><time>2026-04-28T09:00:05Z</time></trkpt><trkpt lat="29.11693143279849" lon="-9.809968675981963"><ele>510.0</ele><time>2026-04-28T09:00:06Z</time></trkpt><trkpt lat="29.11684526476969" lon="-9.810226994336677"><ele>509.0</ele><time>2026-04-28T09:00:07Z</time></trkpt><trkpt lat="29.116757778765" lon="-9.810488693424684"><ele>509.0</ele><time>2026-04-28T09:00:08Z</time></trkpt><trkpt lat="29.116669928116806" lon="-9.810753893673445"><ele>509.0</ele><time>2026-04-28T09:00:09Z</time></trkpt><trkpt lat="29.116584114148083" lon="-9.81101338515702"><ele>509.0</ele><time>2026-04-28T09:00:10Z</time></trkpt><trkpt lat="29.11649825165218" lon="-9.811276653538316"><ele>509.0</ele><time>2026-04-28T09:00:11Z</time></trkpt><trkpt lat="29.116412981186674" lon="-9.811542525594753"><ele>509.0</ele><time>2026-04-28T09:00:12Z</time></trkpt><trkpt lat="29.116328008182286" lon="-9.811807515994824"><ele>509.0</ele><time>2026-04-28T09:00:13Z</time></trkpt><trkpt lat="29.11624192907606" lon="-9.812070697544396"><ele>509.0</ele><time>2026-04-28T09:00:14Z</time></trkpt><trkpt lat="29.116155844796392" lon="-9.812332538459142"><ele>509.0</ele><time>2026-04-28T09:00:15Z</time></trkpt><trkpt lat="29.116068492473463" lon="-9.81259513223596"><ele>508.0</ele><time>2026-04-28T09:00:16Z</time></trkpt><trkpt lat="29.115981328723926" lon="-9.81285846438856"><ele>507.0</ele><time>2026-04-28T09:00:17Z</time></trkpt><trkpt lat="29.11589629779442" lon="-9.813118573127936"><ele>507.0</ele><time>2026-04-28T09:00:18Z</time></trkpt><trkpt lat="29.11581016985497" lon="-9.81338014475052"><ele>507.0</ele><time>2026-04-28T09:00:19Z</time></trkpt><trkpt lat="29.11572432037968" lon="-9.813642207534627"><ele>507.5</ele><time>2026-04-28T09:00:20Z</time></trkpt><trkpt lat="29.115637697095696" lon="-9.81390498085709"><ele>508.0</ele><time>2026-04-28T09:00:21Z</time></trkpt><trkpt lat="29.115549141094032" lon="-9.814167792367561"><ele>508.0</ele><time>2026-04-28T09:00:22Z</time></trkpt><trkpt lat="29.11545923665771" lon="-9.814432143747334"><ele>508.0</ele><time>2026-04-28T09:00:23Z</time></trkpt><trkpt lat="29.11537320093903" lon="-9.814695607891721"><ele>508.0</ele><time>2026-04-28T09:00:24Z</time></trkpt><trkpt lat="29.115288266588408" lon="-9.814961495389236"><ele>508.0</ele><time>2026-04-28T09:00:25Z</time></trkpt><trkpt lat="29.115202188932525" lon="-9.815228286920592"><ele>508.5</ele><time>2026-04-28T09:00:26Z</time></trkpt><trkpt lat="29.115116590494647" lon="-9.815493710587909"><ele>509.0</ele><time>2026-04-28T09:00:27Z</time></trkpt><trkpt lat="29.115029704586576" lon="-9.815759116129252"><ele>508.5</ele><time>2026-04-28T09:00:28Z</time></trkpt><trkpt lat="29.114943863694997" lon="-9.81601824128576"><ele>508.0</ele><time>2026-04-28T09:00:29Z</time></trkpt><trkpt lat="29.114858502552703" lon="-9.816276097644144"><ele>507.5</ele><time>2026-04-28T09:00:30Z</time></trkpt><trkpt lat="29.11477306280324" lon="-9.81653297547901"><ele>507.0</ele><time>2026-04-28T09:00:31Z</time></trkpt><trkpt lat="29.114688548346816" lon="-9.816792270512456"><ele>507.0</ele><time>2026-04-28T09:00:32Z</time></trkpt><trkpt lat="29.114605635929788" lon="-9.817051352644736"><ele>507.0</ele><time>2026-04-28T09:00:33Z</time></trkpt><trkpt lat="29.11452365945043" lon="-9.81730880305461"><ele>507.0</ele><time>2026-04-28T09:00:34Z</time></trkpt><trkpt lat="29.114439375723265" lon="-9.81756244663607"><ele>507.0</ele><time>2026-04-28T09:00:35Z</time></trkpt><trkpt lat="29.114353737153248" lon="-9.817816442687906"><ele>506.5</ele><time>2026-04-28T09:00:36Z</time></trkpt><trkpt lat="29.11427003864514" lon="-9.818070737321204"><ele>506.0</ele><time>2026-04-28T09:00:37Z</time></trkpt><trkpt lat="29.11418801731415" lon="-9.818321719691768"><ele>506.0</ele><time>2026-04-28T09:00:38Z</time></trkpt><trkpt lat="29.114105451768584" lon="-9.818575703934613"><ele>506.0</ele><time>2026-04-28T09:00:39Z</time></trkpt><trkpt lat="29.114024723790944" lon="-9.818829784084196"><ele>506.0</ele><time>2026-04-28T09:00:40Z</time></trkpt><trkpt lat="29.113941814972687" lon="-9.819082146291978"><ele>506.0</ele><time>2026-04-28T09:00:41Z</time></trkpt><trkpt lat="29.113858805767013" lon="-9.819330074435443"><ele>506.0</ele><time>2026-04-28T09:00:42Z</time></trkpt><trkpt lat="29.11377584156775" lon="-9.819578563398476"><ele>506.0</ele><time>2026-04-28T09:00:43Z</time></trkpt><trkpt lat="29.113694917338943" lon="-9.819828894926122"><ele>506.0</ele><time>2026-04-28T09:00:44Z</time></trkpt><trkpt lat="29.11361216440766" lon="-9.820078968695162"><ele>506.0</ele><time>2026-04-28T09:00:45Z</time></trkpt><trkpt lat="29.113529967608567" lon="-9.820328967630916"><ele>505.5</ele><time>2026-04-28T09:00:46Z</time></trkpt><trkpt lat="29.113448155585285" lon="-9.820578635961326"><ele>505.0</ele><time>2026-04-28T09:00:47Z</time></trkpt><trkpt lat="29.11336678372626" lon="-9.820827160476835"><ele>505.0</ele><time>2026-04-28T09:00:48Z</time></trkpt><trkpt lat="29.113285835834525" lon="-9.821075312142188"><ele>505.0</ele><time>2026-04-28T09:00:49Z</time></trkpt><trkpt lat="29.113203320861395" lon="-9.82132598027694"><ele>505.0</ele><time>2026-04-28T09:00:50Z</time></trkpt><trkpt lat="29.113121229489757" lon="-9.821578113909528"><ele>505.0</ele><time>2026-04-28T09:00:51Z</time></trkpt><trkpt lat="29.113036861872892" lon="-9.821833610460628"><ele>506.0</ele><time>2026-04-28T09:00:52Z</time></trkpt><trkpt lat="29.11295369773315" lon="-9.822086693358607"><ele>507.0</ele><time>2026-04-28T09:00:53Z</time></trkpt><trkpt lat="29.112868834560455" lon="-9.822342557138699"><ele>507.0</ele><time>2026-04-28T09:00:54Z</time></trkpt><trkpt lat="29.112784437180547" lon="-9.822598699271568"><ele>507.0</ele><time>2026-04-28T09:00:55Z</time></trkpt><trkpt lat="29.112698924137494" lon="-9.822857162366432"><ele>505.5</ele><time>2026-04-28T09:00:56Z</time></trkpt><trkpt lat="29.112613816459266" lon="-9.823118231953144"><ele>504.0</ele><time>2026-04-28T09:00:57Z</time></trkpt><trkpt lat="29.11252804944527" lon="-9.823379118773165"><ele>504.5</ele><time>2026-04-28T09:00:58Z</time></trkpt><trkpt lat="29.112441842075864" lon="-9.823638651856552"><ele>505.0</ele><time>2026-04-28T09:00:59Z</time></trkpt><trkpt lat="29.112370254599178" lon="-9.823907358254226"><ele>506.0</ele><time>2026-04-28T09:01:00Z</time></trkpt><trkpt lat="29.11228337126289" lon="-9.824168898015548"><ele>507.0</ele><time>2026-04-28T09:01:01Z</time></trkpt><trkpt lat="29.11218148034927" lon="-9.824424154571783"><ele>507.5</ele><time>2026-04-28T09:01:02Z</time></trkpt><trkpt lat="29.1120936954679" lon="-9.824688710410442"><ele>508.0</ele><time>2026-04-28T09:01:03Z</time></trkpt><trkpt lat="29.112006665944623" lon="-9.824954637198243"><ele>505.5</ele><time>2026-04-28T09:01:04Z</time></trkpt><trkpt lat="29.111918588459545" lon="-9.82522430839988"><ele>503.0</ele><time>2026-04-28T09:01:05Z</time></trkpt><trkpt lat="29.111829305283404" lon="-9.82549277030231"><ele>503.0</ele><time>2026-04-28T09:01:06Z</time></trkpt><trkpt lat="29.111741474113288" lon="-9.825763389007554"><ele>503.0</ele><time>2026-04-28T09:01:07Z</time></trkpt><trkpt lat="29.111653893245958" lon="-9.826032493393217"><ele>503.5</ele><time>2026-04-28T09:01:08Z</time></trkpt><trkpt lat="29.111565123932987" lon="-9.826300680475597"><ele>504.0</ele><time>2026-04-28T09:01:09Z</time></trkpt><trkpt lat="29.111475706750657" lon="-9.826570434043859"><ele>503.5</ele><time>2026-04-28T09:01:10Z</time></trkpt><trkpt lat="29.11138602870892" lon="-9.826839913192774"><ele>503.0</ele><time>2026-04-28T09:01:11Z</time></trkpt><trkpt lat="29.111294073964" lon="-9.8271111455975"><ele>503.0</ele><time>2026-04-28T09:01:12Z</time></trkpt><trkpt lat="29.11120288145186" lon="-9.827380260875781"><ele>503.0</ele><time>2026-04-28T09:01:13Z</time></trkpt><trkpt lat="29.11111067451935" lon="-9.827651438577279"><ele>502.5</ele><time>2026-04-28T09:01:14Z</time></trkpt><trkpt lat="29.111021784891744" lon="-9.827922546057803"><ele>502.0</ele><time>2026-04-28T09:01:15Z</time></trkpt><trkpt lat="29.11093476716847" lon="-9.828193946451874"><ele>502.0</ele><time>2026-04-28T09:01:16Z</time></trkpt><trkpt lat="29.110844417057713" lon="-9.82846822506614"><ele>502.0</ele><time>2026-04-28T09:01:17Z</time></trkpt><trkpt lat="29.110751101095573" lon="-9.828740061110137"><ele>502.5</ele><time>2026-04-28T09:01:18Z</time></trkpt><trkpt lat="29.11065667220844" lon="-9.829013738253401"><ele>503.0</ele><time>2026-04-28T09:01:19Z</time></trkpt><trkpt lat="29.11058185581319" lon="-9.829290861936062"><ele>503.0</ele><time>2026-04-28T09:01:20Z</time></trkpt><trkpt lat="29.1104915699164" lon="-9.829567940856414"><ele>503.0</ele><time>2026-04-28T09:01:21Z</time></trkpt><trkpt lat="29.110402477899015" lon="-9.82984004680035"><ele>503.0</ele><time>2026-04-28T09:01:22Z</time></trkpt><trkpt lat="29.110311156160705" lon="-9.830118962919459"><ele>503.0</ele><time>2026-04-28T09:01:23Z</time></trkpt><trkpt lat="29.1102216003358" lon="-9.830392485668886"><ele>502.5</ele><time>2026-04-28T09:01:24Z</time></trkpt><trkpt lat="29.110131179059348" lon="-9.830666632597147"><ele>502.0</ele><time>2026-04-28T09:01:25Z</time></trkpt><trkpt lat="29.110041124505546" lon="-9.8309415388455"><ele>501.5</ele><time>2026-04-28T09:01:26Z</time></trkpt><trkpt lat="29.109953226970028" lon="-9.831208515346727"><ele>501.0</ele><time>2026-04-28T09:01:27Z</time></trkpt><trkpt lat="29.10984935742931" lon="-9.831472685651812"><ele>500.5</ele><time>2026-04-28T09:01:28Z</time></trkpt><trkpt lat="29.109763627531525" lon="-9.831737989532721"><ele>500.0</ele><time>2026-04-28T09:01:29Z</time></trkpt><trkpt lat="29.10967547598746" lon="-9.832001136840729"><ele>500.0</ele><time>2026-04-28T09:01:30Z</time></trkpt><trkpt lat="29.109586113681537" lon="-9.832261435150428"><ele>500.0</ele><time>2026-04-28T09:01:31Z</time></trkpt><trkpt lat="29.109497798882124" lon="-9.832520132386263"><ele>499.5</ele><time>2026-04-28T09:01:32Z</time></trkpt><trkpt lat="29.109413703003234" lon="-9.832778602364911"><ele>499.0</ele><time>2026-04-28T09:01:33Z</time></trkpt><trkpt lat="29.10932971735816" lon="-9.833035900420377"><ele>499.0</ele><time>2026-04-28T09:01:34Z</time></trkpt><trkpt lat="29.109244760080276" lon="-9.83329229033818"><ele>499.0</ele><time>2026-04-28T09:01:35Z</time></trkpt><trkpt lat="29.109158058042933" lon="-9.833548756928206"><ele>498.5</ele><time>2026-04-28T09:01:36Z</time></trkpt><trkpt lat="29.109073000108655" lon="-9.833803496572894"><ele>498.0</ele><time>2026-04-28T09:01:37Z</time></trkpt><trkpt lat="29.108990969774975" lon="-9.83405642096278"><ele>498.0</ele><time>2026-04-28T09:01:38Z</time></trkpt><trkpt lat="29.10891048543455" lon="-9.834306789824174"><ele>498.0</ele><time>2026-04-28T09:01:39Z</time></trkpt><trkpt lat="29.108829771288914" lon="-9.834554128738878"><ele>498.0</ele><time>2026-04-28T09:01:40Z</time></trkpt><trkpt lat="29.108747876202557" lon="-9.834797474499247"><ele>498.0</ele><time>2026-04-28T09:01:41Z</time></trkpt><trkpt lat="29.108668905710726" lon="-9.835029361855497"><ele>498.0</ele><time>2026-04-28T09:01:42Z</time></trkpt><trkpt lat="29.10859006885883" lon="-9.835263021841413"><ele>498.0</ele><time>2026-04-28T09:01:43Z</time></trkpt><trkpt lat="29.108511361848542" lon="-9.835501099361426"><ele>498.0</ele><time>2026-04-28T09:01:44Z</time></trkpt><trkpt lat="29.108431459867077" lon="-9.835742804260448"><ele>498.0</ele><time>2026-04-28T09:01:45Z</time></trkpt><trkpt lat="29.108348621825954" lon="-9.835985875327943"><ele>497.5</ele><time>2026-04-28T09:01:46Z</time></trkpt><trkpt lat="29.10826206428396" lon="-9.836235350598333"><ele>497.0</ele><time>2026-04-28T09:01:47Z</time></trkpt><trkpt lat="29.10817610997311" lon="-9.836488556537525"><ele>497.0</ele><time>2026-04-28T09:01:48Z</time></trkpt><trkpt lat="29.108089320737328" lon="-9.836745551314273"><ele>497.0</ele><time>2026-04-28T09:01:49Z</time></trkpt><trkpt lat="29.107999655258116" lon="-9.837011064386388"><ele>496.5</ele><time>2026-04-28T09:01:50Z</time></trkpt><trkpt lat="29.107907105786097" lon="-9.837284429895528"><ele>496.0</ele><time>2026-04-28T09:01:51Z</time></trkpt><trkpt lat="29.10781274569725" lon="-9.837562706233445"><ele>495.0</ele><time>2026-04-28T09:01:52Z</time></trkpt><trkpt lat="29.107715828883084" lon="-9.837846211400366"><ele>494.0</ele><time>2026-04-28T09:01:53Z</time></trkpt><trkpt lat="29.10761855672097" lon="-9.838132355460978"><ele>494.0</ele><time>2026-04-28T09:01:54Z</time></trkpt><trkpt lat="29.10752199943904" lon="-9.838418162392697"><ele>494.0</ele><time>2026-04-28T09:01:55Z</time></trkpt><trkpt lat="29.107428283150004" lon="-9.838699712917368"><ele>494.5</ele><time>2026-04-28T09:01:56Z</time></trkpt><trkpt lat="29.107337431493722" lon="-9.838973619362779"><ele>495.0</ele><time>2026-04-28T09:01:57Z</time></trkpt><trkpt lat="29.107244582122643" lon="-9.839248028565867"><ele>496.0</ele><time>2026-04-28T09:01:58Z</time></trkpt><trkpt lat="29.10715329915596" lon="-9.839514396739672"><ele>497.0</ele><time>2026-04-28T09:01:59Z</time></trkpt><trkpt lat="29.10706375894108" lon="-9.839778576141258"><ele>497.0</ele><time>2026-04-28T09:02:00Z</time></trkpt><trkpt lat="29.10697518974297" lon="-9.840042619837948"><ele>497.0</ele><time>2026-04-28T09:02:01Z</time></trkpt><trkpt lat="29.10688425591663" lon="-9.840305999622505"><ele>497.0</ele><time>2026-04-28T09:02:02Z</time></trkpt><trkpt lat="29.106792335984416" lon="-9.840564039322304"><ele>497.0</ele><time>2026-04-28T09:02:03Z</time></trkpt><trkpt lat="29.10670115847183" lon="-9.8408198249944"><ele>496.0</ele><time>2026-04-28T09:02:04Z</time></trkpt><trkpt lat="29.106614783621524" lon="-9.841075860260052"><ele>495.0</ele><time>2026-04-28T09:02:05Z</time></trkpt><trkpt lat="29.106531757935613" lon="-9.84133028877139"><ele>495.0</ele><time>2026-04-28T09:02:06Z</time></trkpt><trkpt lat="29.10644669000687" lon="-9.841583247060209"><ele>495.0</ele><time>2026-04-28T09:02:07Z</time></trkpt><trkpt lat="29.106359582729635" lon="-9.841834873813193"><ele>494.5</ele><time>2026-04-28T09:02:08Z</time></trkpt><trkpt lat="29.106274915002373" lon="-9.842085750221969"><ele>494.0</ele><time>2026-04-28T09:02:09Z</time></trkpt><trkpt lat="29.106190449570597" lon="-9.84234078133595"><ele>494.0</ele><time>2026-04-28T09:02:10Z</time></trkpt><trkpt lat="29.10610700715634" lon="-9.842593103955512"><ele>494.0</ele><time>2026-04-28T09:02:11Z</time></trkpt><trkpt lat="29.106020718156927" lon="-9.842845369081664"><ele>494.0</ele><time>2026-04-28T09:02:12Z</time></trkpt><trkpt lat="29.1059328737094" lon="-9.843101589210685"><ele>494.0</ele><time>2026-04-28T09:02:13Z</time></trkpt><trkpt lat="29.10584650410935" lon="-9.843358300691914"><ele>493.5</ele><time>2026-04-28T09:02:14Z</time></trkpt><trkpt lat="29.10576189695343" lon="-9.843618837232839"><ele>493.0</ele><time>2026-04-28T09:02:15Z</time></trkpt><trkpt lat="29.105675640364616" lon="-9.843880875318074"><ele>493.0</ele><time>2026-04-28T09:02:16Z</time></trkpt><trkpt lat="29.1055838912284" lon="-9.844142088596357"><ele>493.0</ele><time>2026-04-28T09:02:17Z</time></trkpt><trkpt lat="29.105489617176296" lon="-9.844402308012315"><ele>493.0</ele><time>2026-04-28T09:02:18Z</time></trkpt><trkpt lat="29.10539662304216" lon="-9.84466592794082"><ele>493.0</ele><time>2026-04-28T09:02:19Z</time></trkpt><trkpt lat="29.105307168140286" lon="-9.844925347704251"><ele>492.5</ele><time>2026-04-28T09:02:20Z</time></trkpt><trkpt lat="29.10522484337173" lon="-9.845171937123158"><ele>492.0</ele><time>2026-04-28T09:02:21Z</time></trkpt><trkpt lat="29.105146736202585" lon="-9.84540885100613"><ele>492.0</ele><time>2026-04-28T09:02:22Z</time></trkpt><trkpt lat="29.10506430411415" lon="-9.84565053391312"><ele>492.0</ele><time>2026-04-28T09:02:23Z</time></trkpt><trkpt lat="29.104979706255616" lon="-9.845895930140792"><ele>491.5</ele><time>2026-04-28T09:02:24Z</time></trkpt><trkpt lat="29.10489373099564" lon="-9.846145191157511"><ele>491.0</ele><time>2026-04-28T09:02:25Z</time></trkpt><trkpt lat="29.104807543113957" lon="-9.846396491544263"><ele>491.0</ele><time>2026-04-28T09:02:26Z</time></trkpt><trkpt lat="29.104719845285025" lon="-9.846650263174327"><ele>491.0</ele><time>2026-04-28T09:02:27Z</time></trkpt><trkpt lat="29.104630543343063" lon="-9.846903505795881"><ele>491.5</ele><time>2026-04-28T09:02:28Z</time></trkpt><trkpt lat="29.104540631786403" lon="-9.847156976181424"><ele>492.0</ele><time>2026-04-28T09:02:29Z</time></trkpt><trkpt lat="29.104452395474308" lon="-9.847414110097443"><ele>490.5</ele><time>2026-04-28T09:02:30Z</time></trkpt><trkpt lat="29.10436343630297" lon="-9.84767289975212"><ele>489.0</ele><time>2026-04-28T09:02:31Z</time></trkpt><trkpt lat="29.104275324253386" lon="-9.847929789810348"><ele>489.0</ele><time>2026-04-28T09:02:32Z</time></trkpt><trkpt lat="29.10418733360809" lon="-9.848186275323895"><ele>489.0</ele><time>2026-04-28T09:02:33Z</time></trkpt><trkpt lat="29.104098151611467" lon="-9.848446187896595"><ele>489.5</ele><time>2026-04-28T09:02:34Z</time></trkpt><trkpt lat="29.104010588069606" lon="-9.848704270606666"><ele>490.0</ele><time>2026-04-28T09:02:35Z</time></trkpt><trkpt lat="29.103921260179632" lon="-9.848963798312344"><ele>490.0</ele><time>2026-04-28T09:02:36Z</time></trkpt><trkpt lat="29.103831029180597" lon="-9.849223993149263"><ele>490.0</ele><time>2026-04-28T09:02:37Z</time></trkpt><trkpt lat="29.103738127509015" lon="-9.849486834706632"><ele>490.5</ele><time>2026-04-28T09:02:38Z</time></trkpt><trkpt lat="29.10364566815913" lon="-9.84975216604421"><ele>491.0</ele><time>2026-04-28T09:02:39Z</time></trkpt><trkpt lat="29.10355303492432" lon="-9.850021958561337"><ele>489.0</ele><time>2026-04-28T09:02:40Z</time></trkpt><trkpt lat="29.103460940073074" lon="-9.850292518334689"><ele>487.0</ele><time>2026-04-28T09:02:41Z</time></trkpt><trkpt lat="29.103368451097573" lon="-9.850564674945787"><ele>487.0</ele><time>2026-04-28T09:02:42Z</time></trkpt><trkpt lat="29.10327529520466" lon="-9.850839261493919"><ele>487.0</ele><time>2026-04-28T09:02:43Z</time></trkpt><trkpt lat="29.103179500867075" lon="-9.851113510383792"><ele>488.0</ele><time>2026-04-28T09:02:44Z</time></trkpt><trkpt lat="29.103083478400197" lon="-9.85138583356148"><ele>489.0</ele><time>2026-04-28T09:02:45Z</time></trkpt><trkpt lat="29.10298699665423" lon="-9.851659004643913"><ele>488.5</ele><time>2026-04-28T09:02:46Z</time></trkpt><trkpt lat="29.102891460356368" lon="-9.851935187311414"><ele>488.0</ele><time>2026-04-28T09:02:47Z</time></trkpt><trkpt lat="29.102802808204828" lon="-9.8522026531176"><ele>488.0</ele><time>2026-04-28T09:02:48Z</time></trkpt><trkpt lat="29.102713719729817" lon="-9.852469654740593"><ele>488.0</ele><time>2026-04-28T09:02:49Z</time></trkpt><trkpt lat="29.10262385271363" lon="-9.852736377142085"><ele>488.5</ele><time>2026-04-28T09:02:50Z</time></trkpt><trkpt lat="29.102533626443037" lon="-9.852998674464793"><ele>489.0</ele><time>2026-04-28T09:02:51Z</time></trkpt><trkpt lat="29.102441487237694" lon="-9.853260624124625"><ele>487.5</ele><time>2026-04-28T09:02:52Z</time></trkpt><trkpt lat="29.102351180384826" lon="-9.853519808452518"><ele>486.0</ele><time>2026-04-28T09:02:53Z</time></trkpt><trkpt lat="29.1022607972292" lon="-9.853783450392442"><ele>486.0</ele><time>2026-04-28T09:02:54Z</time></trkpt><trkpt lat="29.102171893354505" lon="-9.854045129911608"><ele>486.0</ele><time>2026-04-28T09:02:55Z</time></trkpt><trkpt lat="29.102084245275407" lon="-9.854308502747974"><ele>486.5</ele><time>2026-04-28T09:02:56Z</time></trkpt><trkpt lat="29.101996534992434" lon="-9.854570813225932"><ele>487.0</ele><time>2026-04-28T09:02:57Z</time></trkpt><trkpt lat="29.101907543367858" lon="-9.854832404899962"><ele>487.0</ele><time>2026-04-28T09:02:58Z</time></trkpt><trkpt lat="29.101818118460976" lon="-9.855091671726429"><ele>487.0</ele><time>2026-04-28T09:02:59Z</time></trkpt><trkpt lat="29.1017279507136" lon="-9.855351296798617"><ele>487.0</ele><time>2026-04-28T09:03:00Z</time></trkpt><trkpt lat="29.101637129271875" lon="-9.855610363437021"><ele>487.0</ele><time>2026-04-28T09:03:01Z</time></trkpt><trkpt lat="29.101546577862038" lon="-9.855870697913842"><ele>487.0</ele><time>2026-04-28T09:03:02Z</time></trkpt><trkpt lat="29.101455802279958" lon="-9.85613068724583"><ele>487.0</ele><time>2026-04-28T09:03:03Z</time></trkpt><trkpt lat="29.101366153866778" lon="-9.856390989815772"><ele>487.0</ele><time>2026-04-28T09:03:04Z</time></trkpt><trkpt lat="29.101279830047265" lon="-9.85664901997939"><ele>487.0</ele><time>2026-04-28T09:03:05Z</time></trkpt><trkpt lat="29.101190145177583" lon="-9.856910537011915"><ele>487.0</ele><time>2026-04-28T09:03:06Z</time></trkpt><trkpt lat="29.101099770117774" lon="-9.857170884642343"><ele>487.0</ele><time>2026-04-28T09:03:07Z</time></trkpt><trkpt lat="29.101011945169848" lon="-9.857429505678601"><ele>487.0</ele><time>2026-04-28T09:03:08Z</time></trkpt><trkpt lat="29.1009259461494" lon="-9.85768800870802"><ele>487.0</ele><time>2026-04-28T09:03:09Z</time></trkpt><trkpt lat="29.100837974599113" lon="-9.857951380855189"><ele>487.0</ele><time>2026-04-28T09:03:10Z</time></trkpt><trkpt lat="29.100746364404674" lon="-9.858211923848005"><ele>487.0</ele><time>2026-04-28T09:03:11Z</time></trkpt><trkpt lat="29.100653429075066" lon="-9.858470497415789"><ele>486.0</ele><time>2026-04-28T09:03:12Z</time></trkpt><trkpt lat="29.100562062543005" lon="-9.858727634238498"><ele>485.0</ele><time>2026-04-28T09:03:13Z</time></trkpt><trkpt lat="29.100470668251162" lon="-9.858987027856864"><ele>485.0</ele><time>2026-04-28T09:03:14Z</time></trkpt><trkpt lat="29.100381553191404" lon="-9.859248343088803"><ele>485.0</ele><time>2026-04-28T09:03:15Z</time></trkpt><trkpt lat="29.100291074135228" lon="-9.859512440098069"><ele>485.5</ele><time>2026-04-28T09:03:16Z</time></trkpt><trkpt lat="29.100200044039905" lon="-9.859777249469307"><ele>486.0</ele><time>2026-04-28T09:03:17Z</time></trkpt><trkpt lat="29.100108621023484" lon="-9.860043153383439"><ele>485.5</ele><time>2026-04-28T09:03:18Z</time></trkpt><trkpt lat="29.10001489254599" lon="-9.860311084966998"><ele>485.0</ele><time>2026-04-28T09:03:19Z</time></trkpt><trkpt lat="29.099919689702965" lon="-9.860579407329572"><ele>484.5</ele><time>2026-04-28T09:03:20Z</time></trkpt><trkpt lat="29.09982848852221" lon="-9.86084847396358"><ele>484.0</ele><time>2026-04-28T09:03:21Z</time></trkpt><trkpt lat="29.09973547917276" lon="-9.861117589567895"><ele>483.5</ele><time>2026-04-28T09:03:22Z</time></trkpt><trkpt lat="29.09963971946668" lon="-9.8613827284608"><ele>483.0</ele><time>2026-04-28T09:03:23Z</time></trkpt><trkpt lat="29.099547163305218" lon="-9.861647346356959"><ele>483.0</ele><time>2026-04-28T09:03:24Z</time></trkpt><trkpt lat="29.099459060027588" lon="-9.861911282455793"><ele>483.0</ele><time>2026-04-28T09:03:25Z</time></trkpt><trkpt lat="29.099371527798446" lon="-9.862173778586635"><ele>483.0</ele><time>2026-04-28T09:03:26Z</time></trkpt><trkpt lat="29.099284118317584" lon="-9.862434465112386"><ele>483.0</ele><time>2026-04-28T09:03:27Z</time></trkpt><trkpt lat="29.099194286921602" lon="-9.862690783915177"><ele>482.5</ele><time>2026-04-28T09:03:28Z</time></trkpt><trkpt lat="29.09910329118999" lon="-9.862946649097482"><ele>482.0</ele><time>2026-04-28T09:03:29Z</time></trkpt><trkpt lat="29.099014754473266" lon="-9.863203514226546"><ele>482.0</ele><time>2026-04-28T09:03:30Z</time></trkpt><trkpt lat="29.09892907416124" lon="-9.863458004317673"><ele>482.0</ele><time>2026-04-28T09:03:31Z</time></trkpt><trkpt lat="29.098840288834207" lon="-9.86371279510511"><ele>482.0</ele><time>2026-04-28T09:03:32Z</time></trkpt><trkpt lat="29.098751486544177" lon="-9.86396419266124"><ele>482.0</ele><time>2026-04-28T09:03:33Z</time></trkpt><trkpt lat="29.098662736956815" lon="-9.864216851469436"><ele>482.0</ele><time>2026-04-28T09:03:34Z</time></trkpt><trkpt lat="29.09857412564377" lon="-9.86447253462797"><ele>482.0</ele><time>2026-04-28T09:03:35Z</time></trkpt><trkpt lat="29.098488954006076" lon="-9.864725496786425"><ele>482.0</ele><time>2026-04-28T09:03:36Z</time></trkpt><trkpt lat="29.098401288663858" lon="-9.86498214044275"><ele>482.0</ele><time>2026-04-28T09:03:37Z</time></trkpt><trkpt lat="29.098313313446557" lon="-9.86523636463161"><ele>482.5</ele><time>2026-04-28T09:03:38Z</time></trkpt><trkpt lat="29.09822488263626" lon="-9.865490454980844"><ele>483.0</ele><time>2026-04-28T09:03:39Z</time></trkpt><trkpt lat="29.0981374038756" lon="-9.865745000285523"><ele>481.0</ele><time>2026-04-28T09:03:40Z</time></trkpt><trkpt lat="29.09805195263377" lon="-9.865997698991112"><ele>479.0</ele><time>2026-04-28T09:03:41Z</time></trkpt><trkpt lat="29.097965340222768" lon="-9.866250507367086"><ele>479.0</ele><time>2026-04-28T09:03:42Z</time></trkpt><trkpt lat="29.097877872459836" lon="-9.866504945678665"><ele>479.0</ele><time>2026-04-28T09:03:43Z</time></trkpt><trkpt lat="29.09778949803697" lon="-9.866755825992742"><ele>479.5</ele><time>2026-04-28T09:03:44Z</time></trkpt><trkpt lat="29.09769973783372" lon="-9.867013641251148"><ele>480.0</ele><time>2026-04-28T09:03:45Z</time></trkpt><trkpt lat="29.097611445965345" lon="-9.867271072412644"><ele>480.0</ele><time>2026-04-28T09:03:46Z</time></trkpt><trkpt lat="29.097523000712403" lon="-9.86752594900693"><ele>480.0</ele><time>2026-04-28T09:03:47Z</time></trkpt><trkpt lat="29.09743460349486" lon="-9.867786135396853"><ele>479.5</ele><time>2026-04-28T09:03:48Z</time></trkpt><trkpt lat="29.097345126824987" lon="-9.868046291689916"><ele>479.0</ele><time>2026-04-28T09:03:49Z</time></trkpt><trkpt lat="29.09725373633027" lon="-9.868307846970502"><ele>479.0</ele><time>2026-04-28T09:03:50Z</time></trkpt><trkpt lat="29.09716416539643" lon="-9.868568146147153"><ele>479.0</ele><time>2026-04-28T09:03:51Z</time></trkpt><trkpt lat="29.097074669502184" lon="-9.8688320848876"><ele>479.0</ele><time>2026-04-28T09:03:52Z</time></trkpt><trkpt lat="29.09698360368996" lon="-9.869096768826047"><ele>479.0</ele><time>2026-04-28T09:03:53Z</time></trkpt><trkpt lat="29.096891660608485" lon="-9.869362149827197"><ele>478.5</ele><time>2026-04-28T09:03:54Z</time></trkpt><trkpt lat="29.096798193481042" lon="-9.869629376354313"><ele>478.0</ele><time>2026-04-28T09:03:55Z</time></trkpt><trkpt lat="29.096704229994913" lon="-9.869895659690217"><ele>477.5</ele><time>2026-04-28T09:03:56Z</time></trkpt><trkpt lat="29.096610080051185" lon="-9.87016311927"><ele>477.0</ele><time>2026-04-28T09:03:57Z</time></trkpt><trkpt lat="29.096516390807952" lon="-9.87043132772253"><ele>476.0</ele><time>2026-04-28T09:03:58Z</time></trkpt><trkpt lat="29.096422706287974" lon="-9.870699487706935"><ele>475.0</ele><time>2026-04-28T09:03:59Z</time></trkpt><trkpt lat="29.0963288391216" lon="-9.870969094091256"><ele>475.0</ele><time>2026-04-28T09:04:00Z</time></trkpt><trkpt lat="29.09623516283077" lon="-9.871239164222919"><ele>475.0</ele><time>2026-04-28T09:04:01Z</time></trkpt><trkpt lat="29.096142579878414" lon="-9.871509313938388"><ele>475.0</ele><time>2026-04-28T09:04:02Z</time></trkpt><trkpt lat="29.096051597769513" lon="-9.871780890531397"><ele>475.0</ele><time>2026-04-28T09:04:03Z</time></trkpt><trkpt lat="29.095957980312996" lon="-9.87205521792584"><ele>475.0</ele><time>2026-04-28T09:04:04Z</time></trkpt><trkpt lat="29.095862638422425" lon="-9.872325917590084"><ele>475.0</ele><time>2026-04-28T09:04:05Z</time></trkpt><trkpt lat="29.095766846694836" lon="-9.872597487122269"><ele>475.0</ele><time>2026-04-28T09:04:06Z</time></trkpt><trkpt lat="29.095670268179962" lon="-9.872871994491621"><ele>475.0</ele><time>2026-04-28T09:04:07Z</time></trkpt><trkpt lat="29.095575950545687" lon="-9.873143722412685"><ele>475.0</ele><time>2026-04-28T09:04:08Z</time></trkpt><trkpt lat="29.095483553093615" lon="-9.873414019854188"><ele>475.0</ele><time>2026-04-28T09:04:09Z</time></trkpt><trkpt lat="29.095389418671598" lon="-9.873684546671985"><ele>475.0</ele><time>2026-04-28T09:04:10Z</time></trkpt><trkpt lat="29.095292875158023" lon="-9.873957445080611"><ele>475.0</ele><time>2026-04-28T09:04:11Z</time></trkpt><trkpt lat="29.095197229193893" lon="-9.874227719015034"><ele>473.5</ele><time>2026-04-28T09:04:12Z</time></trkpt><trkpt lat="29.095104989591437" lon="-9.874497319109253"><ele>472.0</ele><time>2026-04-28T09:04:13Z</time></trkpt><trkpt lat="29.095012336319268" lon="-9.874769685717768"><ele>472.0</ele><time>2026-04-28T09:04:14Z</time></trkpt><trkpt lat="29.094919179595905" lon="-9.875039322286932"><ele>472.0</ele><time>2026-04-28T09:04:15Z</time></trkpt><trkpt lat="29.09482277991777" lon="-9.87531148794063"><ele>472.0</ele><time>2026-04-28T09:04:16Z</time></trkpt><trkpt lat="29.09472784383637" lon="-9.875582899634555"><ele>472.0</ele><time>2026-04-28T09:04:17Z</time></trkpt><trkpt lat="29.09463303768421" lon="-9.875854548622735"><ele>472.5</ele><time>2026-04-28T09:04:18Z</time></trkpt><trkpt lat="29.094540039786676" lon="-9.87612667360796"><ele>473.0</ele><time>2026-04-28T09:04:19Z</time></trkpt><trkpt lat="29.094444992006512" lon="-9.876399387904435"><ele>473.0</ele><time>2026-04-28T09:04:20Z</time></trkpt><trkpt lat="29.094348465142225" lon="-9.876668155365156"><ele>473.0</ele><time>2026-04-28T09:04:21Z</time></trkpt><trkpt lat="29.094253257798186" lon="-9.876938661270614"><ele>472.0</ele><time>2026-04-28T09:04:22Z</time></trkpt><trkpt lat="29.094157860530956" lon="-9.877211293789033"><ele>471.0</ele><time>2026-04-28T09:04:23Z</time></trkpt><trkpt lat="29.094060391891734" lon="-9.877486340841372"><ele>471.0</ele><time>2026-04-28T09:04:24Z</time></trkpt><trkpt lat="29.093964118743244" lon="-9.877758464357244"><ele>471.0</ele><time>2026-04-28T09:04:25Z</time></trkpt><trkpt lat="29.0938683858907" lon="-9.878034059535574"><ele>471.0</ele><time>2026-04-28T09:04:26Z</time></trkpt><trkpt lat="29.093773376224192" lon="-9.878307403874967"><ele>471.0</ele><time>2026-04-28T09:04:27Z</time></trkpt><trkpt lat="29.09367747047751" lon="-9.878580605618428"><ele>470.5</ele><time>2026-04-28T09:04:28Z</time></trkpt><trkpt lat="29.093581107377698" lon="-9.878855677306403"><ele>470.0</ele><time>2026-04-28T09:04:29Z</time></trkpt><trkpt lat="29.093487131181668" lon="-9.879130819249946"><ele>470.0</ele><time>2026-04-28T09:04:30Z</time></trkpt><trkpt lat="29.093394550455415" lon="-9.879406966240053"><ele>470.0</ele><time>2026-04-28T09:04:31Z</time></trkpt><trkpt lat="29.093304718107344" lon="-9.879683103455662"><ele>469.5</ele><time>2026-04-28T09:04:32Z</time></trkpt><trkpt lat="29.093216324779945" lon="-9.879958168695149"><ele>469.0</ele><time>2026-04-28T09:04:33Z</time></trkpt><trkpt lat="29.09313015058083" lon="-9.880235007300614"><ele>468.5</ele><time>2026-04-28T09:04:34Z</time></trkpt><trkpt lat="29.09304344016442" lon="-9.880509550400541"><ele>468.0</ele><time>2026-04-28T09:04:35Z</time></trkpt><trkpt lat="29.092952051241085" lon="-9.880786007926481"><ele>468.0</ele><time>2026-04-28T09:04:36Z</time></trkpt><trkpt lat="29.09286318039593" lon="-9.881057245273286"><ele>468.0</ele><time>2026-04-28T09:04:37Z</time></trkpt><trkpt lat="29.09277709333104" lon="-9.881335118516358"><ele>468.0</ele><time>2026-04-28T09:04:38Z</time></trkpt><trkpt lat="29.092693618955842" lon="-9.881612357970857"><ele>468.0</ele><time>2026-04-28T09:04:39Z</time></trkpt><trkpt lat="29.09260659620882" lon="-9.881890101716058"><ele>468.0</ele><time>2026-04-28T09:04:40Z</time></trkpt><trkpt lat="29.092516060366872" lon="-9.882164841792278"><ele>468.0</ele><time>2026-04-28T09:04:41Z</time></trkpt><trkpt lat="29.09242513973526" lon="-9.882438876945145"><ele>467.5</ele><time>2026-04-28T09:04:42Z</time></trkpt><trkpt lat="29.092335649626907" lon="-9.882714430761643"><ele>467.0</ele><time>2026-04-28T09:04:43Z</time></trkpt><trkpt lat="29.09224786266886" lon="-9.882985687411802"><ele>467.0</ele><time>2026-04-28T09:04:44Z</time></trkpt><trkpt lat="29.092158664375344" lon="-9.883261194652414"><ele>467.0</ele><time>2026-04-28T09:04:45Z</time></trkpt><trkpt lat="29.092071266623705" lon="-9.883534353157028"><ele>467.0</ele><time>2026-04-28T09:04:46Z</time></trkpt><trkpt lat="29.091984623263077" lon="-9.883808686004528"><ele>467.0</ele><time>2026-04-28T09:04:47Z</time></trkpt><trkpt lat="29.09189798031697" lon="-9.884079674681225"><ele>467.0</ele><time>2026-04-28T09:04:48Z</time></trkpt><trkpt lat="29.091811539820224" lon="-9.884351035670104"><ele>467.0</ele><time>2026-04-28T09:04:49Z</time></trkpt><trkpt lat="29.091724121228243" lon="-9.88462431521659"><ele>467.0</ele><time>2026-04-28T09:04:50Z</time></trkpt><trkpt lat="29.091638512043165" lon="-9.884898646215548"><ele>467.0</ele><time>2026-04-28T09:04:51Z</time></trkpt><trkpt lat="29.09155214880418" lon="-9.885174650460984"><ele>466.5</ele><time>2026-04-28T09:04:52Z</time></trkpt><trkpt lat="29.091469644365887" lon="-9.885451343988404"><ele>466.0</ele><time>2026-04-28T09:04:53Z</time></trkpt><trkpt lat="29.09139280394544" lon="-9.885728719132937"><ele>466.0</ele><time>2026-04-28T09:04:54Z</time></trkpt><trkpt lat="29.091318488365015" lon="-9.88600847554387"><ele>466.0</ele><time>2026-04-28T09:04:55Z</time></trkpt><trkpt lat="29.091244890056235" lon="-9.886287739851918"><ele>466.0</ele><time>2026-04-28T09:04:56Z</time></trkpt><trkpt lat="29.091170692404884" lon="-9.886568225716239"><ele>466.0</ele><time>2026-04-28T09:04:57Z</time></trkpt><trkpt lat="29.091093824540067" lon="-9.88684921324644"><ele>466.0</ele><time>2026-04-28T09:04:58Z</time></trkpt><trkpt lat="29.0910174330687" lon="-9.887129462846417"><ele>466.0</ele><time>2026-04-28T09:04:59Z</time></trkpt><trkpt lat="29.090944253047514" lon="-9.887410654854046"><ele>465.5</ele><time>2026-04-28T09:05:00Z</time></trkpt><trkpt lat="29.090870225452754" lon="-9.887692947617051"><ele>465.0</ele><time>2026-04-28T09:05:01Z</time></trkpt><trkpt lat="29.090794439576346" lon="-9.88797278970613"><ele>464.0</ele><time>2026-04-28T09:05:02Z</time></trkpt><trkpt lat="29.090718043552748" lon="-9.888252629894216"><ele>463.0</ele><time>2026-04-28T09:05:03Z</time></trkpt><trkpt lat="29.09064009326289" lon="-9.888535535977917"><ele>463.0</ele><time>2026-04-28T09:05:04Z</time></trkpt><trkpt lat="29.090562715065012" lon="-9.888815129621012"><ele>463.0</ele><time>2026-04-28T09:05:05Z</time></trkpt><trkpt lat="29.090485397634662" lon="-9.889097472169574"><ele>463.5</ele><time>2026-04-28T09:05:06Z</time></trkpt><trkpt lat="29.090409586749534" lon="-9.889381096715399"><ele>464.0</ele><time>2026-04-28T09:05:07Z</time></trkpt><trkpt lat="29.090334891655804" lon="-9.889664906258988"><ele>464.0</ele><time>2026-04-28T09:05:08Z</time></trkpt><trkpt lat="29.090258177638322" lon="-9.889949261205599"><ele>464.0</ele><time>2026-04-28T09:05:09Z</time></trkpt><trkpt lat="29.09018005608368" lon="-9.890233680566947"><ele>463.0</ele><time>2026-04-28T09:05:10Z</time></trkpt><trkpt lat="29.090103070682552" lon="-9.890514960405762"><ele>462.0</ele><time>2026-04-28T09:05:11Z</time></trkpt><trkpt lat="29.090026547111325" lon="-9.890798601193216"><ele>461.5</ele><time>2026-04-28T09:05:12Z</time></trkpt><trkpt lat="29.08995127264047" lon="-9.891083591099482"><ele>461.0</ele><time>2026-04-28T09:05:13Z</time></trkpt><trkpt lat="29.089873489457702" lon="-9.891367859207419"><ele>460.5</ele><time>2026-04-28T09:05:14Z</time></trkpt><trkpt lat="29.089790605469485" lon="-9.891651939873276"><ele>460.0</ele><time>2026-04-28T09:05:15Z</time></trkpt><trkpt lat="29.0897087537587" lon="-9.891936392684933"><ele>460.0</ele><time>2026-04-28T09:05:16Z</time></trkpt><trkpt lat="29.089632463529192" lon="-9.89222379483459"><ele>460.0</ele><time>2026-04-28T09:05:17Z</time></trkpt><trkpt lat="29.089558561652698" lon="-9.892512387684704"><ele>460.0</ele><time>2026-04-28T09:05:18Z</time></trkpt><trkpt lat="29.089481366046858" lon="-9.892799609066877"><ele>460.0</ele><time>2026-04-28T09:05:19Z</time></trkpt><trkpt lat="29.0894041548351" lon="-9.893086090676526"><ele>460.0</ele><time>2026-04-28T09:05:20Z</time></trkpt><trkpt lat="29.08932534305922" lon="-9.893373558548376"><ele>460.0</ele><time>2026-04-28T09:05:21Z</time></trkpt><trkpt lat="29.089247976203435" lon="-9.893662517516272"><ele>460.0</ele><time>2026-04-28T09:05:22Z</time></trkpt><trkpt lat="29.08916895196892" lon="-9.893946760520905"><ele>460.0</ele><time>2026-04-28T09:05:23Z</time></trkpt><trkpt lat="29.089086032437855" lon="-9.89422985049375"><ele>461.0</ele><time>2026-04-28T09:05:24Z</time></trkpt><trkpt lat="29.0889975623703" lon="-9.894512422623352"><ele>462.0</ele><time>2026-04-28T09:05:25Z</time></trkpt><trkpt lat="29.088902447569883" lon="-9.89479070664614"><ele>462.0</ele><time>2026-04-28T09:05:26Z</time></trkpt><trkpt lat="29.088800433704048" lon="-9.895068309952434"><ele>462.0</ele><time>2026-04-28T09:05:27Z</time></trkpt><trkpt lat="29.088691063333908" lon="-9.895343895282156"><ele>461.5</ele><time>2026-04-28T09:05:28Z</time></trkpt><trkpt lat="29.08857614304061" lon="-9.895615093521661"><ele>461.0</ele><time>2026-04-28T09:05:29Z</time></trkpt><trkpt lat="29.08845379749083" lon="-9.895883089616778"><ele>460.5</ele><time>2026-04-28T09:05:30Z</time></trkpt><trkpt lat="29.088323825978705" lon="-9.896146718868923"><ele>460.0</ele><time>2026-04-28T09:05:31Z</time></trkpt><trkpt lat="29.088185445305932" lon="-9.896403949253132"><ele>460.0</ele><time>2026-04-28T09:05:32Z</time></trkpt><trkpt lat="29.088042284899696" lon="-9.896655903537665"><ele>460.0</ele><time>2026-04-28T09:05:33Z</time></trkpt><trkpt lat="29.087899172677094" lon="-9.896906276969823"><ele>459.5</ele><time>2026-04-28T09:05:34Z</time></trkpt><trkpt lat="29.087756022890037" lon="-9.897156637889276"><ele>459.0</ele><time>2026-04-28T09:05:35Z</time></trkpt><trkpt lat="29.0876106690968" lon="-9.897407957372137"><ele>459.0</ele><time>2026-04-28T09:05:36Z</time></trkpt><trkpt lat="29.08746542792439" lon="-9.89766051568463"><ele>459.0</ele><time>2026-04-28T09:05:37Z</time></trkpt><trkpt lat="29.087322545156308" lon="-9.897908137651878"><ele>459.0</ele><time>2026-04-28T09:05:38Z</time></trkpt><trkpt lat="29.0871776383353" lon="-9.898158270796012"><ele>459.0</ele><time>2026-04-28T09:05:39Z</time></trkpt><trkpt lat="29.087030942818323" lon="-9.89841295026553"><ele>459.0</ele><time>2026-04-28T09:05:40Z</time></trkpt><trkpt lat="29.086886718449943" lon="-9.89866490006089"><ele>459.0</ele><time>2026-04-28T09:05:41Z</time></trkpt><trkpt lat="29.08674079138608" lon="-9.89891806930876"><ele>459.0</ele><time>2026-04-28T09:05:42Z</time></trkpt><trkpt lat="29.086594677499676" lon="-9.8991698920978"><ele>459.0</ele><time>2026-04-28T09:05:43Z</time></trkpt><trkpt lat="29.08644733282962" lon="-9.899423747989708"><ele>458.0</ele><time>2026-04-28T09:05:44Z</time></trkpt><trkpt lat="29.086299409261485" lon="-9.899677582629309"><ele>457.0</ele><time>2026-04-28T09:05:45Z</time></trkpt><trkpt lat="29.086151194387686" lon="-9.899929627810616"><ele>457.0</ele><time>2026-04-28T09:05:46Z</time></trkpt><trkpt lat="29.08600287174218" lon="-9.90018080016412"><ele>457.0</ele><time>2026-04-28T09:05:47Z</time></trkpt><trkpt lat="29.085857982087116" lon="-9.900433820904157"><ele>457.0</ele><time>2026-04-28T09:05:48Z</time></trkpt><trkpt lat="29.085715342784287" lon="-9.900689292617793"><ele>457.0</ele><time>2026-04-28T09:05:49Z</time></trkpt><trkpt lat="29.085572299930398" lon="-9.90094717138254"><ele>456.5</ele><time>2026-04-28T09:05:50Z</time></trkpt><trkpt lat="29.08542825602113" lon="-9.901199770656053"><ele>456.0</ele><time>2026-04-28T09:05:51Z</time></trkpt><trkpt lat="29.08528139529758" lon="-9.901454736910361"><ele>456.0</ele><time>2026-04-28T09:05:52Z</time></trkpt><trkpt lat="29.085132935755087" lon="-9.901707166436323"><ele>456.0</ele><time>2026-04-28T09:05:53Z</time></trkpt><trkpt lat="29.084981621608033" lon="-9.901960496086355"><ele>455.5</ele><time>2026-04-28T09:05:54Z</time></trkpt><trkpt lat="29.08483083173359" lon="-9.902212235068964"><ele>455.0</ele><time>2026-04-28T09:05:55Z</time></trkpt><trkpt lat="29.084676364511758" lon="-9.902458286183688"><ele>455.5</ele><time>2026-04-28T09:05:56Z</time></trkpt><trkpt lat="29.08451108556323" lon="-9.902698006586814"><ele>456.0</ele><time>2026-04-28T09:05:57Z</time></trkpt><trkpt lat="29.08433612763602" lon="-9.902924172264761"><ele>456.0</ele><time>2026-04-28T09:05:58Z</time></trkpt><trkpt lat="29.084149614648187" lon="-9.903141101039585"><ele>456.0</ele><time>2026-04-28T09:05:59Z</time></trkpt><trkpt lat="29.08394903896529" lon="-9.903344714697381"><ele>455.5</ele><time>2026-04-28T09:06:00Z</time></trkpt><trkpt lat="29.083741783585623" lon="-9.903536805048985"><ele>455.0</ele><time>2026-04-28T09:06:01Z</time></trkpt><trkpt lat="29.083526549332436" lon="-9.903720219835558"><ele>455.0</ele><time>2026-04-28T09:06:02Z</time></trkpt><trkpt lat="29.083303498440678" lon="-9.903891180232888"><ele>455.0</ele><time>2026-04-28T09:06:03Z</time></trkpt><trkpt lat="29.083071676897788" lon="-9.904047108803827"><ele>455.0</ele><time>2026-04-28T09:06:04Z</time></trkpt><trkpt lat="29.082835828758228" lon="-9.904186418932133"><ele>455.0</ele><time>2026-04-28T09:06:05Z</time></trkpt><trkpt lat="29.08258997830164" lon="-9.904322668217809"><ele>454.5</ele><time>2026-04-28T09:06:06Z</time></trkpt><trkpt lat="29.082347269852907" lon="-9.904454817580678"><ele>454.0</ele><time>2026-04-28T09:06:07Z</time></trkpt><trkpt lat="29.082103564915496" lon="-9.904588470980363"><ele>454.0</ele><time>2026-04-28T09:06:08Z</time></trkpt><trkpt lat="29.081861244696192" lon="-9.90472430555005"><ele>454.0</ele><time>2026-04-28T09:06:09Z</time></trkpt><trkpt lat="29.081617811280893" lon="-9.904862835040985"><ele>453.5</ele><time>2026-04-28T09:06:10Z</time></trkpt><trkpt lat="29.081372695404998" lon="-9.90500009649923"><ele>453.0</ele><time>2026-04-28T09:06:11Z</time></trkpt><trkpt lat="29.08112655445845" lon="-9.905138069080692"><ele>452.5</ele><time>2026-04-28T09:06:12Z</time></trkpt><trkpt lat="29.080880910401678" lon="-9.905273439647155"><ele>452.0</ele><time>2026-04-28T09:06:13Z</time></trkpt><trkpt lat="29.080634999299296" lon="-9.905409162853408"><ele>452.0</ele><time>2026-04-28T09:06:14Z</time></trkpt><trkpt lat="29.08038721364824" lon="-9.905546878511649"><ele>452.0</ele><time>2026-04-28T09:06:15Z</time></trkpt><trkpt lat="29.080142564408263" lon="-9.905681056102322"><ele>450.5</ele><time>2026-04-28T09:06:16Z</time></trkpt><trkpt lat="29.079897476973876" lon="-9.905815419797191"><ele>449.0</ele><time>2026-04-28T09:06:17Z</time></trkpt><trkpt lat="29.079652630091072" lon="-9.905950647980175"><ele>449.0</ele><time>2026-04-28T09:06:18Z</time></trkpt><trkpt lat="29.079408137020305" lon="-9.906087513044952"><ele>449.0</ele><time>2026-04-28T09:06:19Z</time></trkpt><trkpt lat="29.079164169753085" lon="-9.90622629024853"><ele>447.5</ele><time>2026-04-28T09:06:20Z</time></trkpt><trkpt lat="29.078920871017534" lon="-9.906362436888024"><ele>446.0</ele><time>2026-04-28T09:06:21Z</time></trkpt><trkpt lat="29.078679853039425" lon="-9.906497399092052"><ele>446.0</ele><time>2026-04-28T09:06:22Z</time></trkpt><trkpt lat="29.078432805728987" lon="-9.906636391980921"><ele>446.0</ele><time>2026-04-28T09:06:23Z</time></trkpt><trkpt lat="29.07818837649098" lon="-9.90677411707346"><ele>447.0</ele><time>2026-04-28T09:06:24Z</time></trkpt><trkpt lat="29.07794103399173" lon="-9.90691053358653"><ele>448.0</ele><time>2026-04-28T09:06:25Z</time></trkpt><trkpt lat="29.077694076978528" lon="-9.907045845398336"><ele>448.0</ele><time>2026-04-28T09:06:26Z</time></trkpt><trkpt lat="29.077447672387056" lon="-9.90718175046624"><ele>448.0</ele><time>2026-04-28T09:06:27Z</time></trkpt><trkpt lat="29.0772002708019" lon="-9.907317826914463"><ele>448.0</ele><time>2026-04-28T09:06:28Z</time></trkpt><trkpt lat="29.076952886156565" lon="-9.907458469171122"><ele>448.0</ele><time>2026-04-28T09:06:29Z</time></trkpt><trkpt lat="29.076702593668106" lon="-9.907599466986408"><ele>447.5</ele><time>2026-04-28T09:06:30Z</time></trkpt><trkpt lat="29.0764466824436" lon="-9.907738885940459"><ele>447.0</ele><time>2026-04-28T09:06:31Z</time></trkpt><trkpt lat="29.076191424862014" lon="-9.90787827648112"><ele>447.0</ele><time>2026-04-28T09:06:32Z</time></trkpt><trkpt lat="29.075934982962504" lon="-9.90802148283804"><ele>447.0</ele><time>2026-04-28T09:06:33Z</time></trkpt><trkpt lat="29.075680258615826" lon="-9.908166994942556"><ele>447.5</ele><time>2026-04-28T09:06:34Z</time></trkpt><trkpt lat="29.075427525740817" lon="-9.908322724109667"><ele>448.0</ele><time>2026-04-28T09:06:35Z</time></trkpt><trkpt lat="29.07519006708626" lon="-9.908493884869966"><ele>448.0</ele><time>2026-04-28T09:06:36Z</time></trkpt><trkpt lat="29.074962166072076" lon="-9.908683521754618"><ele>448.0</ele><time>2026-04-28T09:06:37Z</time></trkpt><trkpt lat="29.074748975450863" lon="-9.908888390021485"><ele>447.5</ele><time>2026-04-28T09:06:38Z</time></trkpt><trkpt lat="29.07454825090252" lon="-9.909108841273724"><ele>447.0</ele><time>2026-04-28T09:06:39Z</time></trkpt><trkpt lat="29.074365072542573" lon="-9.909345592367998"><ele>447.0</ele><time>2026-04-28T09:06:40Z</time></trkpt><trkpt lat="29.074199484153027" lon="-9.909594078757102"><ele>447.0</ele><time>2026-04-28T09:06:41Z</time></trkpt><trkpt lat="29.074048781958826" lon="-9.909853974858812"><ele>447.5</ele><time>2026-04-28T09:06:42Z</time></trkpt><trkpt lat="29.07390763145788" lon="-9.910119585232918"><ele>448.0</ele><time>2026-04-28T09:06:43Z</time></trkpt><trkpt lat="29.073781297264283" lon="-9.910390172022193"><ele>448.0</ele><time>2026-04-28T09:06:44Z</time></trkpt><trkpt lat="29.07366136320516" lon="-9.910664846375859"><ele>448.0</ele><time>2026-04-28T09:06:45Z</time></trkpt><trkpt lat="29.07354324493763" lon="-9.910935176562136"><ele>446.5</ele><time>2026-04-28T09:06:46Z</time></trkpt><trkpt lat="29.073422518290425" lon="-9.911204058924406"><ele>445.0</ele><time>2026-04-28T09:06:47Z</time></trkpt><trkpt lat="29.07330054149464" lon="-9.9114687782244"><ele>445.5</ele><time>2026-04-28T09:06:48Z</time></trkpt><trkpt lat="29.073179047921467" lon="-9.911732028555242"><ele>446.0</ele><time>2026-04-28T09:06:49Z</time></trkpt><trkpt lat="29.073058319964982" lon="-9.911993170769382"><ele>446.0</ele><time>2026-04-28T09:06:50Z</time></trkpt><trkpt lat="29.072938318755114" lon="-9.912256112539117"><ele>446.0</ele><time>2026-04-28T09:06:51Z</time></trkpt><trkpt lat="29.072819823578648" lon="-9.912517814818484"><ele>446.5</ele><time>2026-04-28T09:06:52Z</time></trkpt><trkpt lat="29.072698892120975" lon="-9.912777549205671"><ele>447.0</ele><time>2026-04-28T09:06:53Z</time></trkpt><trkpt lat="29.072577552364475" lon="-9.913039954886239"><ele>447.0</ele><time>2026-04-28T09:06:54Z</time></trkpt><trkpt lat="29.07245823934563" lon="-9.91329883273347"><ele>447.0</ele><time>2026-04-28T09:06:55Z</time></trkpt><trkpt lat="29.07233742119631" lon="-9.913560153717432"><ele>446.5</ele><time>2026-04-28T09:06:56Z</time></trkpt><trkpt lat="29.072215147655015" lon="-9.913820029552225"><ele>446.0</ele><time>2026-04-28T09:06:57Z</time></trkpt><trkpt lat="29.07209157067226" lon="-9.914081450220452"><ele>446.0</ele><time>2026-04-28T09:06:58Z</time></trkpt><trkpt lat="29.07196937574975" lon="-9.914342729313546"><ele>446.0</ele><time>2026-04-28T09:06:59Z</time></trkpt><trkpt lat="29.071848073022394" lon="-9.914608485352558"><ele>446.0</ele><time>2026-04-28T09:07:00Z</time></trkpt><trkpt lat="29.071726863769147" lon="-9.914872038019041"><ele>446.0</ele><time>2026-04-28T09:07:01Z</time></trkpt><trkpt lat="29.07160341213833" lon="-9.915134741376153"><ele>445.0</ele><time>2026-04-28T09:07:02Z</time></trkpt><trkpt lat="29.071480706982523" lon="-9.91539923783168"><ele>444.0</ele><time>2026-04-28T09:07:03Z</time></trkpt><trkpt lat="29.071357855516993" lon="-9.91566527803637"><ele>445.0</ele><time>2026-04-28T09:07:04Z</time></trkpt><trkpt lat="29.071233956987367" lon="-9.91593208045634"><ele>446.0</ele><time>2026-04-28T09:07:05Z</time></trkpt><trkpt lat="29.071110828910417" lon="-9.916200213477696"><ele>446.0</ele><time>2026-04-28T09:07:06Z</time></trkpt><trkpt lat="29.07098606256872" lon="-9.91646648814208"><ele>446.0</ele><time>2026-04-28T09:07:07Z</time></trkpt><trkpt lat="29.070860242364546" lon="-9.91673397389497"><ele>444.5</ele><time>2026-04-28T09:07:08Z</time></trkpt><trkpt lat="29.070734666946375" lon="-9.91700206907875"><ele>443.0</ele><time>2026-04-28T09:07:09Z</time></trkpt><trkpt lat="29.070608205586957" lon="-9.917270784379381"><ele>443.0</ele><time>2026-04-28T09:07:10Z</time></trkpt><trkpt lat="29.070483068365697" lon="-9.917538924853927"><ele>443.0</ele><time>2026-04-28T09:07:11Z</time></trkpt><trkpt lat="29.07035557077673" lon="-9.917808364200047"><ele>442.0</ele><time>2026-04-28T09:07:12Z</time></trkpt><trkpt lat="29.070229618236258" lon="-9.91807492326496"><ele>441.0</ele><time>2026-04-28T09:07:13Z</time></trkpt><trkpt lat="29.070103468826296" lon="-9.91834265764341"><ele>441.0</ele><time>2026-04-28T09:07:14Z</time></trkpt><trkpt lat="29.069977696343" lon="-9.918610404588057"><ele>441.0</ele><time>2026-04-28T09:07:15Z</time></trkpt><trkpt lat="29.06984958802689" lon="-9.918878658388998"><ele>441.0</ele><time>2026-04-28T09:07:16Z</time></trkpt><trkpt lat="29.069721763582578" lon="-9.919143354684264"><ele>441.0</ele><time>2026-04-28T09:07:17Z</time></trkpt><trkpt lat="29.069594951593324" lon="-9.919406937869145"><ele>440.5</ele><time>2026-04-28T09:07:18Z</time></trkpt><trkpt lat="29.06946991871469" lon="-9.9196723228476"><ele>440.0</ele><time>2026-04-28T09:07:19Z</time></trkpt><trkpt lat="29.06934555156288" lon="-9.919937689666984"><ele>439.5</ele><time>2026-04-28T09:07:20Z</time></trkpt><trkpt lat="29.069222293370814" lon="-9.920203231602011"><ele>439.0</ele><time>2026-04-28T09:07:21Z</time></trkpt><trkpt lat="29.06909984298778" lon="-9.92046903029274"><ele>439.0</ele><time>2026-04-28T09:07:22Z</time></trkpt><trkpt lat="29.068974657766997" lon="-9.920736154648276"><ele>439.0</ele><time>2026-04-28T09:07:23Z</time></trkpt><trkpt lat="29.068848631528144" lon="-9.92100290397475"><ele>439.0</ele><time>2026-04-28T09:07:24Z</time></trkpt><trkpt lat="29.06872114778338" lon="-9.921267965629186"><ele>439.0</ele><time>2026-04-28T09:07:25Z</time></trkpt><trkpt lat="29.068595099427938" lon="-9.92153285881004"><ele>439.0</ele><time>2026-04-28T09:07:26Z</time></trkpt><trkpt lat="29.06846884854634" lon="-9.921800995516405"><ele>439.0</ele><time>2026-04-28T09:07:27Z</time></trkpt><trkpt lat="29.068342801813095" lon="-9.922067740757994"><ele>439.0</ele><time>2026-04-28T09:07:28Z</time></trkpt><trkpt lat="29.068216146118758" lon="-9.922335643372584"><ele>439.0</ele><time>2026-04-28T09:07:29Z</time></trkpt><trkpt lat="29.06809184036451" lon="-9.92260233323281"><ele>439.0</ele><time>2026-04-28T09:07:30Z</time></trkpt><trkpt lat="29.067967619642165" lon="-9.922870016907034"><ele>439.0</ele><time>2026-04-28T09:07:31Z</time></trkpt><trkpt lat="29.067845007403886" lon="-9.923135441653049"><ele>438.0</ele><time>2026-04-28T09:07:32Z</time></trkpt><trkpt lat="29.067719684938577" lon="-9.923401952480896"><ele>437.0</ele><time>2026-04-28T09:07:33Z</time></trkpt><trkpt lat="29.06759278837428" lon="-9.923664315186151"><ele>437.0</ele><time>2026-04-28T09:07:34Z</time></trkpt><trkpt lat="29.06746684503203" lon="-9.923929073339318"><ele>437.0</ele><time>2026-04-28T09:07:35Z</time></trkpt><trkpt lat="29.067342872729395" lon="-9.924193865694244"><ele>437.5</ele><time>2026-04-28T09:07:36Z</time></trkpt><trkpt lat="29.06721814855625" lon="-9.924457664379634"><ele>438.0</ele><time>2026-04-28T09:07:37Z</time></trkpt><trkpt lat="29.067093306557577" lon="-9.924721242811199"><ele>438.0</ele><time>2026-04-28T09:07:38Z</time></trkpt><trkpt lat="29.0669674670303" lon="-9.924987502253963"><ele>438.0</ele><time>2026-04-28T09:07:39Z</time></trkpt><trkpt lat="29.066843032096774" lon="-9.92525170546146"><ele>438.0</ele><time>2026-04-28T09:07:40Z</time></trkpt><trkpt lat="29.06671931205852" lon="-9.925515691445975"><ele>438.0</ele><time>2026-04-28T09:07:41Z</time></trkpt><trkpt lat="29.066594969725156" lon="-9.925779950599738"><ele>438.0</ele><time>2026-04-28T09:07:42Z</time></trkpt><trkpt lat="29.066471827949968" lon="-9.926043810318523"><ele>438.0</ele><time>2026-04-28T09:07:43Z</time></trkpt><trkpt lat="29.06635183876962" lon="-9.926305442542072"><ele>438.0</ele><time>2026-04-28T09:07:44Z</time></trkpt><trkpt lat="29.066224845650883" lon="-9.926566797908052"><ele>438.0</ele><time>2026-04-28T09:07:45Z</time></trkpt><trkpt lat="29.06609854378036" lon="-9.926826199896123"><ele>436.5</ele><time>2026-04-28T09:07:46Z</time></trkpt><trkpt lat="29.06597208864812" lon="-9.927085437751881"><ele>435.0</ele><time>2026-04-28T09:07:47Z</time></trkpt><trkpt lat="29.065848598437285" lon="-9.927343842036894"><ele>434.5</ele><time>2026-04-28T09:07:48Z</time></trkpt><trkpt lat="29.065726505055206" lon="-9.927605816555554"><ele>434.0</ele><time>2026-04-28T09:07:49Z</time></trkpt><trkpt lat="29.0656035966841" lon="-9.927868873142549"><ele>434.0</ele><time>2026-04-28T09:07:50Z</time></trkpt><trkpt lat="29.065481596608585" lon="-9.928130248314547"><ele>434.0</ele><time>2026-04-28T09:07:51Z</time></trkpt><trkpt lat="29.065358701003298" lon="-9.928391604550482"><ele>433.5</ele><time>2026-04-28T09:07:52Z</time></trkpt><trkpt lat="29.065235457615973" lon="-9.928654676263026"><ele>433.0</ele><time>2026-04-28T09:07:53Z</time></trkpt><trkpt lat="29.06511197417287" lon="-9.928918140920674"><ele>433.0</ele><time>2026-04-28T09:07:54Z</time></trkpt><trkpt lat="29.064988063128677" lon="-9.929180977803005"><ele>433.0</ele><time>2026-04-28T09:07:55Z</time></trkpt><trkpt lat="29.064864169679574" lon="-9.929441382647367"><ele>433.5</ele><time>2026-04-28T09:07:56Z</time></trkpt><trkpt lat="29.064741525274624" lon="-9.92970625117306"><ele>434.0</ele><time>2026-04-28T09:07:57Z</time></trkpt><trkpt lat="29.064618824196124" lon="-9.929969366310138"><ele>433.5</ele><time>2026-04-28T09:07:58Z</time></trkpt><trkpt lat="29.064494915530766" lon="-9.930230914368469"><ele>433.0</ele><time>2026-04-28T09:07:59Z</time></trkpt><trkpt lat="29.06437004531223" lon="-9.930491024797771"><ele>433.0</ele><time>2026-04-28T09:08:00Z</time></trkpt><trkpt lat="29.064238730413564" lon="-9.93074637166745"><ele>433.0</ele><time>2026-04-28T09:08:01Z</time></trkpt><trkpt lat="29.064100342804842" lon="-9.930998487082235"><ele>433.0</ele><time>2026-04-28T09:08:02Z</time></trkpt><trkpt lat="29.06395910613268" lon="-9.931248227954988"><ele>433.0</ele><time>2026-04-28T09:08:03Z</time></trkpt><trkpt lat="29.063819979169043" lon="-9.931494012179117"><ele>432.5</ele><time>2026-04-28T09:08:04Z</time></trkpt><trkpt lat="29.063679908044115" lon="-9.931744204233413"><ele>432.0</ele><time>2026-04-28T09:08:05Z</time></trkpt><trkpt lat="29.06354078017206" lon="-9.931991443459715"><ele>432.0</ele><time>2026-04-28T09:08:06Z</time></trkpt><trkpt lat="29.063399682038565" lon="-9.932241056473265"><ele>432.0</ele><time>2026-04-28T09:08:07Z</time></trkpt><trkpt lat="29.063258387041202" lon="-9.932486059276206"><ele>432.5</ele><time>2026-04-28T09:08:08Z</time></trkpt><trkpt lat="29.063115727661334" lon="-9.932732390038327"><ele>433.0</ele><time>2026-04-28T09:08:09Z</time></trkpt><trkpt lat="29.062974586093148" lon="-9.932980818721372"><ele>433.0</ele><time>2026-04-28T09:08:10Z</time></trkpt><trkpt lat="29.06283343268654" lon="-9.933228541672335"><ele>433.0</ele><time>2026-04-28T09:08:11Z</time></trkpt><trkpt lat="29.062692357613912" lon="-9.933475619148814"><ele>433.5</ele><time>2026-04-28T09:08:12Z</time></trkpt><trkpt lat="29.062552123900645" lon="-9.933721853645528"><ele>434.0</ele><time>2026-04-28T09:08:13Z</time></trkpt><trkpt lat="29.06241234054963" lon="-9.933968814028185"><ele>434.0</ele><time>2026-04-28T09:08:14Z</time></trkpt><trkpt lat="29.062271677480673" lon="-9.934218399056151"><ele>434.0</ele><time>2026-04-28T09:08:15Z</time></trkpt><trkpt lat="29.06213108502219" lon="-9.934467019684947"><ele>434.0</ele><time>2026-04-28T09:08:16Z</time></trkpt><trkpt lat="29.061985077947938" lon="-9.934715793469373"><ele>434.0</ele><time>2026-04-28T09:08:17Z</time></trkpt><trkpt lat="29.06183878264792" lon="-9.934963540083553"><ele>433.5</ele><time>2026-04-28T09:08:18Z</time></trkpt><trkpt lat="29.061695323784082" lon="-9.93521131676331"><ele>433.0</ele><time>2026-04-28T09:08:19Z</time></trkpt><trkpt lat="29.061557086908586" lon="-9.935461934580987"><ele>433.0</ele><time>2026-04-28T09:08:20Z</time></trkpt><trkpt lat="29.06142518406633" lon="-9.935717998508474"><ele>433.0</ele><time>2026-04-28T09:08:21Z</time></trkpt><trkpt lat="29.061301441171537" lon="-9.935980403216755"><ele>433.0</ele><time>2026-04-28T09:08:22Z</time></trkpt><trkpt lat="29.061186424518862" lon="-9.936248678982466"><ele>433.0</ele><time>2026-04-28T09:08:23Z</time></trkpt><trkpt lat="29.061079186274583" lon="-9.936519182925252"><ele>431.5</ele><time>2026-04-28T09:08:24Z</time></trkpt><trkpt lat="29.06097299384222" lon="-9.936793755868067"><ele>430.0</ele><time>2026-04-28T09:08:25Z</time></trkpt><trkpt lat="29.060875001963165" lon="-9.937066868392542"><ele>430.0</ele><time>2026-04-28T09:08:26Z</time></trkpt><trkpt lat="29.06078323771891" lon="-9.93734392878013"><ele>430.0</ele><time>2026-04-28T09:08:27Z</time></trkpt><trkpt lat="29.060699447621047" lon="-9.937625155419491"><ele>430.5</ele><time>2026-04-28T09:08:28Z</time></trkpt><trkpt lat="29.060618103189523" lon="-9.937904645617342"><ele>431.0</ele><time>2026-04-28T09:08:29Z</time></trkpt><trkpt lat="29.060534719660144" lon="-9.938183511877709"><ele>430.0</ele><time>2026-04-28T09:08:30Z</time></trkpt><trkpt lat="29.060450046550724" lon="-9.938465949072077"><ele>429.0</ele><time>2026-04-28T09:08:31Z</time></trkpt><trkpt lat="29.060367847444127" lon="-9.938740923247181"><ele>429.0</ele><time>2026-04-28T09:08:32Z</time></trkpt><trkpt lat="29.060285836099077" lon="-9.939020034707411"><ele>429.0</ele><time>2026-04-28T09:08:33Z</time></trkpt><trkpt lat="29.06020390491928" lon="-9.939299310691949"><ele>430.5</ele><time>2026-04-28T09:08:34Z</time></trkpt><trkpt lat="29.06012295535095" lon="-9.939575671667797"><ele>432.0</ele><time>2026-04-28T09:08:35Z</time></trkpt><trkpt lat="29.060040580302974" lon="-9.939852554407622"><ele>431.0</ele><time>2026-04-28T09:08:36Z</time></trkpt><trkpt lat="29.059956504374266" lon="-9.940129568929398"><ele>430.0</ele><time>2026-04-28T09:08:37Z</time></trkpt><trkpt lat="29.05987357468554" lon="-9.940407591267904"><ele>431.5</ele><time>2026-04-28T09:08:38Z</time></trkpt><trkpt lat="29.059792433628953" lon="-9.94068349616945"><ele>433.0</ele><time>2026-04-28T09:08:39Z</time></trkpt><trkpt lat="29.05971170728747" lon="-9.940959247156398"><ele>433.0</ele><time>2026-04-28T09:08:40Z</time></trkpt><trkpt lat="29.059629922017226" lon="-9.941235140339433"><ele>433.0</ele><time>2026-04-28T09:08:41Z</time></trkpt><trkpt lat="29.059548950662165" lon="-9.941512416230179"><ele>431.0</ele><time>2026-04-28T09:08:42Z</time></trkpt><trkpt lat="29.059467890301136" lon="-9.941787527620617"><ele>429.0</ele><time>2026-04-28T09:08:43Z</time></trkpt><trkpt lat="29.059384428565252" lon="-9.94206102109487"><ele>429.0</ele><time>2026-04-28T09:08:44Z</time></trkpt><trkpt lat="29.059297181621655" lon="-9.942337016420653"><ele>429.0</ele><time>2026-04-28T09:08:45Z</time></trkpt><trkpt lat="29.059204980847614" lon="-9.94260820807699"><ele>431.0</ele><time>2026-04-28T09:08:46Z</time></trkpt><trkpt lat="29.059106848765335" lon="-9.942881204174189"><ele>433.0</ele><time>2026-04-28T09:08:47Z</time></trkpt><trkpt lat="29.059001682655435" lon="-9.943148094082575"><ele>431.0</ele><time>2026-04-28T09:08:48Z</time></trkpt><trkpt lat="29.058889915105194" lon="-9.943411862824455"><ele>429.0</ele><time>2026-04-28T09:08:49Z</time></trkpt><trkpt lat="29.05877554641927" lon="-9.943671367077522"><ele>429.0</ele><time>2026-04-28T09:08:50Z</time></trkpt><trkpt lat="29.05865980601849" lon="-9.94393272358862"><ele>429.0</ele><time>2026-04-28T09:08:51Z</time></trkpt><trkpt lat="29.058544897660504" lon="-9.94419669475038"><ele>427.0</ele><time>2026-04-28T09:08:52Z</time></trkpt><trkpt lat="29.05842966403129" lon="-9.944461730863177"><ele>425.0</ele><time>2026-04-28T09:08:53Z</time></trkpt><trkpt lat="29.058315259517062" lon="-9.944726762864082"><ele>424.5</ele><time>2026-04-28T09:08:54Z</time></trkpt><trkpt lat="29.058198170532187" lon="-9.944992780391848"><ele>424.0</ele><time>2026-04-28T09:08:55Z</time></trkpt><trkpt lat="29.058079991413457" lon="-9.945258424092634"><ele>424.0</ele><time>2026-04-28T09:08:56Z</time></trkpt><trkpt lat="29.05796255533152" lon="-9.945525204333629"><ele>424.0</ele><time>2026-04-28T09:08:57Z</time></trkpt><trkpt lat="29.057844380462008" lon="-9.945791212872079"><ele>423.0</ele><time>2026-04-28T09:08:58Z</time></trkpt><trkpt lat="29.05772726756861" lon="-9.946057690762984"><ele>422.0</ele><time>2026-04-28T09:08:59Z</time></trkpt><trkpt lat="29.057625060106645" lon="-9.946335426808577"><ele>422.0</ele><time>2026-04-28T09:09:00Z</time></trkpt><trkpt lat="29.057491741899234" lon="-9.946591788108885"><ele>422.0</ele><time>2026-04-28T09:09:01Z</time></trkpt><trkpt lat="29.057369876822428" lon="-9.94685461584382"><ele>423.5</ele><time>2026-04-28T09:09:02Z</time></trkpt><trkpt lat="29.057243782790188" lon="-9.947117843974697"><ele>425.0</ele><time>2026-04-28T09:09:03Z</time></trkpt><trkpt lat="29.05711489447305" lon="-9.947377167868522"><ele>423.0</ele><time>2026-04-28T09:09:04Z</time></trkpt><trkpt lat="29.056979672943516" lon="-9.947633180554664"><ele>421.0</ele><time>2026-04-28T09:09:05Z</time></trkpt><trkpt lat="29.056839327963164" lon="-9.94788380140866"><ele>421.0</ele><time>2026-04-28T09:09:06Z</time></trkpt><trkpt lat="29.056696821362756" lon="-9.948134270141082"><ele>421.0</ele><time>2026-04-28T09:09:07Z</time></trkpt><trkpt lat="29.056553127101143" lon="-9.948382811738709"><ele>422.0</ele><time>2026-04-28T09:09:08Z</time></trkpt><trkpt lat="29.056409802327707" lon="-9.948629656970802"><ele>423.0</ele><time>2026-04-28T09:09:09Z</time></trkpt><trkpt lat="29.056266206730157" lon="-9.948876340509234"><ele>423.0</ele><time>2026-04-28T09:09:10Z</time></trkpt><trkpt lat="29.056119467396673" lon="-9.949122884827293"><ele>423.0</ele><time>2026-04-28T09:09:11Z</time></trkpt><trkpt lat="29.055974842565483" lon="-9.949369563151878"><ele>423.0</ele><time>2026-04-28T09:09:12Z</time></trkpt><trkpt lat="29.055832060782876" lon="-9.949615703007746"><ele>423.0</ele><time>2026-04-28T09:09:13Z</time></trkpt><trkpt lat="29.055688350595332" lon="-9.949863102694122"><ele>420.5</ele><time>2026-04-28T09:09:14Z</time></trkpt><trkpt lat="29.05554577954385" lon="-9.950109050769191"><ele>418.0</ele><time>2026-04-28T09:09:15Z</time></trkpt><trkpt lat="29.055399584486818" lon="-9.950355462544213"><ele>418.0</ele><time>2026-04-28T09:09:16Z</time></trkpt><trkpt lat="29.055256877192612" lon="-9.950601944489472"><ele>418.0</ele><time>2026-04-28T09:09:17Z</time></trkpt><trkpt lat="29.055110609961144" lon="-9.95084852996215"><ele>419.0</ele><time>2026-04-28T09:09:18Z</time></trkpt><trkpt lat="29.0549655217091" lon="-9.951095003629089"><ele>420.0</ele><time>2026-04-28T09:09:19Z</time></trkpt><trkpt lat="29.054820022734987" lon="-9.951340690652051"><ele>420.0</ele><time>2026-04-28T09:09:20Z</time></trkpt><trkpt lat="29.05467704403951" lon="-9.951586260645085"><ele>420.0</ele><time>2026-04-28T09:09:21Z</time></trkpt><trkpt lat="29.054532687178792" lon="-9.951832922929762"><ele>417.5</ele><time>2026-04-28T09:09:22Z</time></trkpt><trkpt lat="29.05439037699725" lon="-9.952078835962956"><ele>415.0</ele><time>2026-04-28T09:09:23Z</time></trkpt><trkpt lat="29.05424710475064" lon="-9.952324096727082"><ele>415.0</ele><time>2026-04-28T09:09:24Z</time></trkpt><trkpt lat="29.054100773042506" lon="-9.952570585272547"><ele>415.0</ele><time>2026-04-28T09:09:25Z</time></trkpt><trkpt lat="29.053956885842624" lon="-9.952816214715114"><ele>415.0</ele><time>2026-04-28T09:09:26Z</time></trkpt><trkpt lat="29.053812012266263" lon="-9.953062076985137"><ele>415.0</ele><time>2026-04-28T09:09:27Z</time></trkpt><trkpt lat="29.05366755665248" lon="-9.95330926518396"><ele>413.5</ele><time>2026-04-28T09:09:28Z</time></trkpt><trkpt lat="29.053524307495177" lon="-9.953553774533695"><ele>412.0</ele><time>2026-04-28T09:09:29Z</time></trkpt><trkpt lat="29.05338163294903" lon="-9.95379878317599"><ele>412.5</ele><time>2026-04-28T09:09:30Z</time></trkpt><trkpt lat="29.05323763122861" lon="-9.954044920679397"><ele>413.0</ele><time>2026-04-28T09:09:31Z</time></trkpt><trkpt lat="29.0530963834452" lon="-9.95429013239547"><ele>413.0</ele><time>2026-04-28T09:09:32Z</time></trkpt><trkpt lat="29.052951768866272" lon="-9.954537746784311"><ele>413.0</ele><time>2026-04-28T09:09:33Z</time></trkpt><trkpt lat="29.0528065403126" lon="-9.954783082826072"><ele>413.0</ele><time>2026-04-28T09:09:34Z</time></trkpt><trkpt lat="29.05266178596025" lon="-9.955027128893537"><ele>413.0</ele><time>2026-04-28T09:09:35Z</time></trkpt><trkpt lat="29.05251539523357" lon="-9.955274241193088"><ele>413.5</ele><time>2026-04-28T09:09:36Z</time></trkpt><trkpt lat="29.052371834713956" lon="-9.955521171478088"><ele>414.0</ele><time>2026-04-28T09:09:37Z</time></trkpt><trkpt lat="29.052228511832833" lon="-9.955773915590752"><ele>412.0</ele><time>2026-04-28T09:09:38Z</time></trkpt><trkpt lat="29.052086102681756" lon="-9.956016515754458"><ele>410.0</ele><time>2026-04-28T09:09:39Z</time></trkpt><trkpt lat="29.051940335855587" lon="-9.956260290255017"><ele>410.0</ele><time>2026-04-28T09:09:40Z</time></trkpt><trkpt lat="29.051793151807605" lon="-9.956504025384376"><ele>410.0</ele><time>2026-04-28T09:09:41Z</time></trkpt><trkpt lat="29.051647686390154" lon="-9.956747125073512"><ele>410.5</ele><time>2026-04-28T09:09:42Z</time></trkpt><trkpt lat="29.05150657116864" lon="-9.956991551628583"><ele>411.0</ele><time>2026-04-28T09:09:43Z</time></trkpt><trkpt lat="29.05136466189144" lon="-9.957238010705957"><ele>411.0</ele><time>2026-04-28T09:09:44Z</time></trkpt><trkpt lat="29.05122320496644" lon="-9.957481682107277"><ele>411.0</ele><time>2026-04-28T09:09:45Z</time></trkpt><trkpt lat="29.05108073705304" lon="-9.957723940310718"><ele>409.5</ele><time>2026-04-28T09:09:46Z</time></trkpt><trkpt lat="29.050937136445736" lon="-9.957965877995704"><ele>408.0</ele><time>2026-04-28T09:09:47Z</time></trkpt><trkpt lat="29.050792706896416" lon="-9.958209273299548"><ele>408.5</ele><time>2026-04-28T09:09:48Z</time></trkpt><trkpt lat="29.050648485637915" lon="-9.95845218949311"><ele>409.0</ele><time>2026-04-28T09:09:49Z</time></trkpt><trkpt lat="29.05050973108494" lon="-9.958695017140181"><ele>409.0</ele><time>2026-04-28T09:09:50Z</time></trkpt><trkpt lat="29.050368909284884" lon="-9.958940418873826"><ele>409.0</ele><time>2026-04-28T09:09:51Z</time></trkpt><trkpt lat="29.0502269098903" lon="-9.959183084336164"><ele>409.5</ele><time>2026-04-28T09:09:52Z</time></trkpt><trkpt lat="29.050084119140685" lon="-9.959424780351473"><ele>410.0</ele><time>2026-04-28T09:09:53Z</time></trkpt><trkpt lat="29.04994158486104" lon="-9.959665783791555"><ele>410.0</ele><time>2026-04-28T09:09:54Z</time></trkpt><trkpt lat="29.049800621354287" lon="-9.959908773374162"><ele>410.0</ele><time>2026-04-28T09:09:55Z</time></trkpt><trkpt lat="29.049660473518607" lon="-9.960150668431245"><ele>407.5</ele><time>2026-04-28T09:09:56Z</time></trkpt><trkpt lat="29.049519053662625" lon="-9.960392477637084"><ele>405.0</ele><time>2026-04-28T09:09:57Z</time></trkpt><trkpt lat="29.049375554414596" lon="-9.960634782130068"><ele>404.0</ele><time>2026-04-28T09:09:58Z</time></trkpt><trkpt lat="29.049232509822073" lon="-9.960877712599821"><ele>403.0</ele><time>2026-04-28T09:09:59Z</time></trkpt><trkpt lat="29.049090440527472" lon="-9.961118380383315"><ele>405.0</ele><time>2026-04-28T09:10:00Z</time></trkpt><trkpt lat="29.04894721319907" lon="-9.961358814501567"><ele>407.0</ele><time>2026-04-28T09:10:01Z</time></trkpt><trkpt lat="29.04880325607762" lon="-9.961602847828308"><ele>406.0</ele><time>2026-04-28T09:10:02Z</time></trkpt><trkpt lat="29.048662545973365" lon="-9.96184342820202"><ele>405.0</ele><time>2026-04-28T09:10:03Z</time></trkpt><trkpt lat="29.04851980453061" lon="-9.962086776094013"><ele>405.0</ele><time>2026-04-28T09:10:04Z</time></trkpt><trkpt lat="29.04837647078068" lon="-9.96232669748955"><ele>405.0</ele><time>2026-04-28T09:10:05Z</time></trkpt><trkpt lat="29.048233362186267" lon="-9.962565117061736"><ele>405.5</ele><time>2026-04-28T09:10:06Z</time></trkpt><trkpt lat="29.04808894570888" lon="-9.962802823716853"><ele>406.0</ele><time>2026-04-28T09:10:07Z</time></trkpt><trkpt lat="29.047943264987158" lon="-9.963035246283143"><ele>406.0</ele><time>2026-04-28T09:10:08Z</time></trkpt><trkpt lat="29.047788692402627" lon="-9.963263098965436"><ele>406.0</ele><time>2026-04-28T09:10:09Z</time></trkpt><trkpt lat="29.047627944683725" lon="-9.963484464300237"><ele>406.5</ele><time>2026-04-28T09:10:10Z</time></trkpt><trkpt lat="29.04746301083652" lon="-9.963702500760352"><ele>407.0</ele><time>2026-04-28T09:10:11Z</time></trkpt><trkpt lat="29.04729650660087" lon="-9.963917496769133"><ele>407.0</ele><time>2026-04-28T09:10:12Z</time></trkpt><trkpt lat="29.047132632859107" lon="-9.964134364816324"><ele>407.0</ele><time>2026-04-28T09:10:13Z</time></trkpt><trkpt lat="29.04697026331511" lon="-9.964353442977496"><ele>403.5</ele><time>2026-04-28T09:10:14Z</time></trkpt><trkpt lat="29.04680735065309" lon="-9.964572503709684"><ele>400.0</ele><time>2026-04-28T09:10:15Z</time></trkpt><trkpt lat="29.04664354259865" lon="-9.96479121992619"><ele>400.5</ele><time>2026-04-28T09:10:16Z</time></trkpt><trkpt lat="29.046478407201047" lon="-9.965007985819488"><ele>401.0</ele><time>2026-04-28T09:10:17Z</time></trkpt><trkpt lat="29.04631265118509" lon="-9.965225600287157"><ele>401.0</ele><time>2026-04-28T09:10:18Z</time></trkpt><trkpt lat="29.046147808963067" lon="-9.965441828534045"><ele>401.0</ele><time>2026-04-28T09:10:19Z</time></trkpt><trkpt lat="29.045982044021354" lon="-9.965660779867267"><ele>402.0</ele><time>2026-04-28T09:10:20Z</time></trkpt><trkpt lat="29.045817768061532" lon="-9.965881690912513"><ele>403.0</ele><time>2026-04-28T09:10:21Z</time></trkpt><trkpt lat="29.045653808227943" lon="-9.966104728439714"><ele>403.0</ele><time>2026-04-28T09:10:22Z</time></trkpt><trkpt lat="29.04549526280869" lon="-9.966329061590123"><ele>403.0</ele><time>2026-04-28T09:10:23Z</time></trkpt><trkpt lat="29.04534245545944" lon="-9.96655838373548"><ele>400.0</ele><time>2026-04-28T09:10:24Z</time></trkpt><trkpt lat="29.045197135092728" lon="-9.966799495351054"><ele>397.0</ele><time>2026-04-28T09:10:25Z</time></trkpt><trkpt lat="29.045065885194596" lon="-9.967047247581982"><ele>397.0</ele><time>2026-04-28T09:10:26Z</time></trkpt><trkpt lat="29.044943593356557" lon="-9.967302311254512"><ele>397.0</ele><time>2026-04-28T09:10:27Z</time></trkpt><trkpt lat="29.044830449607577" lon="-9.967562663109454"><ele>397.0</ele><time>2026-04-28T09:10:28Z</time></trkpt><trkpt lat="29.044719703864914" lon="-9.967824874222542"><ele>397.0</ele><time>2026-04-28T09:10:29Z</time></trkpt><trkpt lat="29.04460872363484" lon="-9.968087800724224"><ele>397.0</ele><time>2026-04-28T09:10:30Z</time></trkpt><trkpt lat="29.04449822295785" lon="-9.968350197167801"><ele>397.0</ele><time>2026-04-28T09:10:31Z</time></trkpt><trkpt lat="29.04438572681295" lon="-9.968613902482545"><ele>395.0</ele><time>2026-04-28T09:10:32Z</time></trkpt><trkpt lat="29.04427157470784" lon="-9.968874356175968"><ele>393.0</ele><time>2026-04-28T09:10:33Z</time></trkpt><trkpt lat="29.044156061744314" lon="-9.969134766508025"><ele>393.5</ele><time>2026-04-28T09:10:34Z</time></trkpt><trkpt lat="29.044040749393027" lon="-9.969394407902765"><ele>394.0</ele><time>2026-04-28T09:10:35Z</time></trkpt><trkpt lat="29.043924823307343" lon="-9.969656935989391"><ele>394.0</ele><time>2026-04-28T09:10:36Z</time></trkpt><trkpt lat="29.04381102312215" lon="-9.969920482839292"><ele>394.0</ele><time>2026-04-28T09:10:37Z</time></trkpt><trkpt lat="29.043696823414397" lon="-9.97018439284157"><ele>393.0</ele><time>2026-04-28T09:10:38Z</time></trkpt><trkpt lat="29.04358045239353" lon="-9.970446525899044"><ele>392.0</ele><time>2026-04-28T09:10:39Z</time></trkpt><trkpt lat="29.04346338392841" lon="-9.970706854219538"><ele>392.5</ele><time>2026-04-28T09:10:40Z</time></trkpt><trkpt lat="29.043346995573824" lon="-9.970966779728522"><ele>393.0</ele><time>2026-04-28T09:10:41Z</time></trkpt><trkpt lat="29.043230973239808" lon="-9.971229634241041"><ele>393.0</ele><time>2026-04-28T09:10:42Z</time></trkpt><trkpt lat="29.043114962735352" lon="-9.971492343729741"><ele>393.0</ele><time>2026-04-28T09:10:43Z</time></trkpt><trkpt lat="29.043001891712553" lon="-9.971752953353093"><ele>391.5</ele><time>2026-04-28T09:10:44Z</time></trkpt><trkpt lat="29.042886968373928" lon="-9.972017002955555"><ele>390.0</ele><time>2026-04-28T09:10:45Z</time></trkpt><trkpt lat="29.042771627261505" lon="-9.972277365458915"><ele>388.0</ele><time>2026-04-28T09:10:46Z</time></trkpt><trkpt lat="29.042655277680204" lon="-9.972539329623542"><ele>386.0</ele><time>2026-04-28T09:10:47Z</time></trkpt><trkpt lat="29.0425395309878" lon="-9.972799835748834"><ele>389.5</ele><time>2026-04-28T09:10:48Z</time></trkpt><trkpt lat="29.04242416845422" lon="-9.973058700388847"><ele>393.0</ele><time>2026-04-28T09:10:49Z</time></trkpt><trkpt lat="29.042308578077165" lon="-9.973318041296476"><ele>391.0</ele><time>2026-04-28T09:10:50Z</time></trkpt><trkpt lat="29.042194420462806" lon="-9.973580333592487"><ele>389.0</ele><time>2026-04-28T09:10:51Z</time></trkpt><trkpt lat="29.04208031226434" lon="-9.973841862228012"><ele>389.0</ele><time>2026-04-28T09:10:52Z</time></trkpt><trkpt lat="29.041966406460272" lon="-9.974102076024838"><ele>389.0</ele><time>2026-04-28T09:10:53Z</time></trkpt><trkpt lat="29.041849329408926" lon="-9.974364018513162"><ele>388.5</ele><time>2026-04-28T09:10:54Z</time></trkpt><trkpt lat="29.041732193607682" lon="-9.974623262414523"><ele>388.0</ele><time>2026-04-28T09:10:55Z</time></trkpt><trkpt lat="29.041616738941254" lon="-9.974880622275233"><ele>388.5</ele><time>2026-04-28T09:10:56Z</time></trkpt><trkpt lat="29.04149931982297" lon="-9.975142543261732"><ele>389.0</ele><time>2026-04-28T09:10:57Z</time></trkpt><trkpt lat="29.04138676572276" lon="-9.975399873712142"><ele>389.0</ele><time>2026-04-28T09:10:58Z</time></trkpt><trkpt lat="29.041274703432826" lon="-9.975658480443174"><ele>389.0</ele><time>2026-04-28T09:10:59Z</time></trkpt><trkpt lat="29.041160645611487" lon="-9.975916960441351"><ele>388.5</ele><time>2026-04-28T09:11:00Z</time></trkpt><trkpt lat="29.041046081813892" lon="-9.97617443740309"><ele>388.0</ele><time>2026-04-28T09:11:01Z</time></trkpt><trkpt lat="29.04093103321667" lon="-9.976431081164614"><ele>387.5</ele><time>2026-04-28T09:11:02Z</time></trkpt><trkpt lat="29.0408178905862" lon="-9.976688020882257"><ele>387.0</ele><time>2026-04-28T09:11:03Z</time></trkpt><trkpt lat="29.040705919868092" lon="-9.976945469261391"><ele>389.0</ele><time>2026-04-28T09:11:04Z</time></trkpt><trkpt lat="29.040595134883112" lon="-9.977202640710644"><ele>391.0</ele><time>2026-04-28T09:11:05Z</time></trkpt><trkpt lat="29.040483741019614" lon="-9.977459681403351"><ele>390.5</ele><time>2026-04-28T09:11:06Z</time></trkpt><trkpt lat="29.040372769170517" lon="-9.977712627566891"><ele>390.0</ele><time>2026-04-28T09:11:07Z</time></trkpt><trkpt lat="29.04026138889501" lon="-9.977965006125402"><ele>390.0</ele><time>2026-04-28T09:11:08Z</time></trkpt><trkpt lat="29.040147616102235" lon="-9.978218090070316"><ele>390.0</ele><time>2026-04-28T09:11:09Z</time></trkpt><trkpt lat="29.04003540652577" lon="-9.978468868846592"><ele>392.5</ele><time>2026-04-28T09:11:10Z</time></trkpt><trkpt lat="29.039924134890644" lon="-9.978719346184437"><ele>395.0</ele><time>2026-04-28T09:11:11Z</time></trkpt><trkpt lat="29.03981461583793" lon="-9.978970344773119"><ele>393.5</ele><time>2026-04-28T09:11:12Z</time></trkpt><trkpt lat="29.039706619103075" lon="-9.979221358208752"><ele>392.0</ele><time>2026-04-28T09:11:13Z</time></trkpt><trkpt lat="29.039599352968427" lon="-9.979473221112977"><ele>392.0</ele><time>2026-04-28T09:11:14Z</time></trkpt><trkpt lat="29.039493432937395" lon="-9.97972095768174"><ele>392.0</ele><time>2026-04-28T09:11:15Z</time></trkpt><trkpt lat="29.039381622579143" lon="-9.979969852625258"><ele>390.0</ele><time>2026-04-28T09:11:16Z</time></trkpt><trkpt lat="29.03926957529122" lon="-9.980216808514697"><ele>388.0</ele><time>2026-04-28T09:11:17Z</time></trkpt><trkpt lat="29.03915587938864" lon="-9.980463225238626"><ele>389.5</ele><time>2026-04-28T09:11:18Z</time></trkpt><trkpt lat="29.03904391602136" lon="-9.98070808388186"><ele>391.0</ele><time>2026-04-28T09:11:19Z</time></trkpt><trkpt lat="29.03893266714064" lon="-9.980956287574598"><ele>391.0</ele><time>2026-04-28T09:11:20Z</time></trkpt><trkpt lat="29.038824378035137" lon="-9.981203050135596"><ele>391.0</ele><time>2026-04-28T09:11:21Z</time></trkpt><trkpt lat="29.03871960068667" lon="-9.981453140155294"><ele>389.0</ele><time>2026-04-28T09:11:22Z</time></trkpt><trkpt lat="29.03861403779999" lon="-9.981706064750307"><ele>387.0</ele><time>2026-04-28T09:11:23Z</time></trkpt><trkpt lat="29.038506674845724" lon="-9.981953500747785"><ele>387.0</ele><time>2026-04-28T09:11:24Z</time></trkpt><trkpt lat="29.038392751651084" lon="-9.98220071575102"><ele>387.0</ele><time>2026-04-28T09:11:25Z</time></trkpt><trkpt lat="29.038278790941735" lon="-9.982447876306264"><ele>388.0</ele><time>2026-04-28T09:11:26Z</time></trkpt><trkpt lat="29.038166591306258" lon="-9.982698072600664"><ele>389.0</ele><time>2026-04-28T09:11:27Z</time></trkpt><trkpt lat="29.03805639453028" lon="-9.982948090491277"><ele>389.0</ele><time>2026-04-28T09:11:28Z</time></trkpt><trkpt lat="29.03794416095959" lon="-9.983201816989942"><ele>389.0</ele><time>2026-04-28T09:11:29Z</time></trkpt><trkpt lat="29.037831737529487" lon="-9.983455922654429"><ele>386.5</ele><time>2026-04-28T09:11:30Z</time></trkpt><trkpt lat="29.037717590130622" lon="-9.983708593773462"><ele>384.0</ele><time>2026-04-28T09:11:31Z</time></trkpt><trkpt lat="29.0376043939657" lon="-9.983960325948166"><ele>382.5</ele><time>2026-04-28T09:11:32Z</time></trkpt><trkpt lat="29.03749201691422" lon="-9.984215384702164"><ele>381.0</ele><time>2026-04-28T09:11:33Z</time></trkpt><trkpt lat="29.037382967392002" lon="-9.984471268725226"><ele>384.0</ele><time>2026-04-28T09:11:34Z</time></trkpt><trkpt lat="29.03727547859797" lon="-9.984726296527022"><ele>387.0</ele><time>2026-04-28T09:11:35Z</time></trkpt><trkpt lat="29.037166165489435" lon="-9.98498026029908"><ele>385.5</ele><time>2026-04-28T09:11:36Z</time></trkpt><trkpt lat="29.037054992742576" lon="-9.985232800727209"><ele>384.0</ele><time>2026-04-28T09:11:37Z</time></trkpt><trkpt lat="29.036942575211228" lon="-9.985486833180643"><ele>384.0</ele><time>2026-04-28T09:11:38Z</time></trkpt><trkpt lat="29.036831303014957" lon="-9.985741284647428"><ele>384.0</ele><time>2026-04-28T09:11:39Z</time></trkpt><trkpt lat="29.036719589463157" lon="-9.985995784264368"><ele>384.5</ele><time>2026-04-28T09:11:40Z</time></trkpt><trkpt lat="29.03660752818289" lon="-9.986247361214822"><ele>385.0</ele><time>2026-04-28T09:11:41Z</time></trkpt><trkpt lat="29.036493911221495" lon="-9.986499511309795"><ele>383.0</ele><time>2026-04-28T09:11:42Z</time></trkpt><trkpt lat="29.036379659605448" lon="-9.986751418491043"><ele>381.0</ele><time>2026-04-28T09:11:43Z</time></trkpt><trkpt lat="29.036265157380864" lon="-9.98700597147874"><ele>381.0</ele><time>2026-04-28T09:11:44Z</time></trkpt><trkpt lat="29.0361536103965" lon="-9.987258495522976"><ele>381.0</ele><time>2026-04-28T09:11:45Z</time></trkpt><trkpt lat="29.03603754640548" lon="-9.987511071212749"><ele>381.0</ele><time>2026-04-28T09:11:46Z</time></trkpt><trkpt lat="29.035919966100305" lon="-9.98776186688774"><ele>381.0</ele><time>2026-04-28T09:11:47Z</time></trkpt><trkpt lat="29.03579664938433" lon="-9.988011385818467"><ele>381.0</ele><time>2026-04-28T09:11:48Z</time></trkpt><trkpt lat="29.03566824167952" lon="-9.988258822791847"><ele>381.0</ele><time>2026-04-28T09:11:49Z</time></trkpt><trkpt lat="29.03553754786721" lon="-9.988503637491128"><ele>379.0</ele><time>2026-04-28T09:11:50Z</time></trkpt><trkpt lat="29.03540486355407" lon="-9.988751838709307"><ele>377.0</ele><time>2026-04-28T09:11:51Z</time></trkpt><trkpt lat="29.035273695287007" lon="-9.989000110051256"><ele>376.0</ele><time>2026-04-28T09:11:52Z</time></trkpt><trkpt lat="29.035138851980125" lon="-9.989248458626177"><ele>375.0</ele><time>2026-04-28T09:11:53Z</time></trkpt><trkpt lat="29.035003993482842" lon="-9.98949663463153"><ele>376.0</ele><time>2026-04-28T09:11:54Z</time></trkpt><trkpt lat="29.03487041043288" lon="-9.989744573427895"><ele>377.0</ele><time>2026-04-28T09:11:55Z</time></trkpt><trkpt lat="29.03473421873088" lon="-9.98999268182515"><ele>375.0</ele><time>2026-04-28T09:11:56Z</time></trkpt><trkpt lat="29.034594739989657" lon="-9.990239332183682"><ele>373.0</ele><time>2026-04-28T09:11:57Z</time></trkpt><trkpt lat="29.034477520208704" lon="-9.990499342604837"><ele>373.0</ele><time>2026-04-28T09:11:58Z</time></trkpt><trkpt lat="29.03434513226822" lon="-9.99075226801185"><ele>373.0</ele><time>2026-04-28T09:11:59Z</time></trkpt><trkpt lat="29.034211644738775" lon="-9.991004946250477"><ele>374.0</ele><time>2026-04-28T09:12:00Z</time></trkpt><trkpt lat="29.0340728144471" lon="-9.991249210623511"><ele>375.0</ele><time>2026-04-28T09:12:01Z</time></trkpt><trkpt lat="29.033945314816858" lon="-9.991506523727175"><ele>373.5</ele><time>2026-04-28T09:12:02Z</time></trkpt><trkpt lat="29.033816278854065" lon="-9.991756889737381"><ele>372.0</ele><time>2026-04-28T09:12:03Z</time></trkpt><trkpt lat="29.03368321414703" lon="-9.992006399712501"><ele>372.0</ele><time>2026-04-28T09:12:04Z</time></trkpt><trkpt lat="29.03354889448454" lon="-9.992251794967146"><ele>372.0</ele><time>2026-04-28T09:12:05Z</time></trkpt><trkpt lat="29.03341511263738" lon="-9.992500323118875"><ele>372.5</ele><time>2026-04-28T09:12:06Z</time></trkpt><trkpt lat="29.03328330794611" lon="-9.992751263134924"><ele>373.0</ele><time>2026-04-28T09:12:07Z</time></trkpt><trkpt lat="29.033154629733502" lon="-9.993001535941437"><ele>373.0</ele><time>2026-04-28T09:12:08Z</time></trkpt><trkpt lat="29.0330250339947" lon="-9.993252929367351"><ele>373.0</ele><time>2026-04-28T09:12:09Z</time></trkpt><trkpt lat="29.03289338350678" lon="-9.993502138199931"><ele>373.0</ele><time>2026-04-28T09:12:10Z</time></trkpt><trkpt lat="29.032759461087807" lon="-9.99375379844052"><ele>373.0</ele><time>2026-04-28T09:12:11Z</time></trkpt><trkpt lat="29.032625352901814" lon="-9.994005537358946"><ele>372.5</ele><time>2026-04-28T09:12:12Z</time></trkpt><trkpt lat="29.032493353848214" lon="-9.994254628392712"><ele>372.0</ele><time>2026-04-28T09:12:13Z</time></trkpt><trkpt lat="29.03235834602479" lon="-9.99450405045173"><ele>372.0</ele><time>2026-04-28T09:12:14Z</time></trkpt><trkpt lat="29.032226783046404" lon="-9.994752851219177"><ele>372.0</ele><time>2026-04-28T09:12:15Z</time></trkpt><trkpt lat="29.032095674070135" lon="-9.995001696429494"><ele>370.5</ele><time>2026-04-28T09:12:16Z</time></trkpt><trkpt lat="29.031961707494837" lon="-9.99525335132801"><ele>369.0</ele><time>2026-04-28T09:12:17Z</time></trkpt><trkpt lat="29.031831716005893" lon="-9.995500435976004"><ele>369.0</ele><time>2026-04-28T09:12:18Z</time></trkpt><trkpt lat="29.031701541675094" lon="-9.9957473430501"><ele>369.0</ele><time>2026-04-28T09:12:19Z</time></trkpt><trkpt lat="29.0315692433515" lon="-9.995995014301272"><ele>368.5</ele><time>2026-04-28T09:12:20Z</time></trkpt><trkpt lat="29.03143475801423" lon="-9.996242803519756"><ele>368.0</ele><time>2026-04-28T09:12:21Z</time></trkpt><trkpt lat="29.03130412249625" lon="-9.99648991023978"><ele>367.0</ele><time>2026-04-28T09:12:22Z</time></trkpt><trkpt lat="29.03117570012583" lon="-9.996735812226676"><ele>366.0</ele><time>2026-04-28T09:12:23Z</time></trkpt><trkpt lat="29.031047481502622" lon="-9.996979744948334"><ele>366.0</ele><time>2026-04-28T09:12:24Z</time></trkpt><trkpt lat="29.030924397764796" lon="-9.997213047278144"><ele>366.0</ele><time>2026-04-28T09:12:25Z</time></trkpt><trkpt lat="29.030808399167515" lon="-9.997436140846405"><ele>367.0</ele><time>2026-04-28T09:12:26Z</time></trkpt><trkpt lat="29.030697397906017" lon="-9.99764707788566"><ele>368.0</ele><time>2026-04-28T09:12:27Z</time></trkpt><trkpt lat="29.03058996014516" lon="-9.997853864690043"><ele>369.0</ele><time>2026-04-28T09:12:28Z</time></trkpt><trkpt lat="29.03048553060607" lon="-9.998047824873618"><ele>369.0</ele><time>2026-04-28T09:12:29Z</time></trkpt><trkpt lat="29.030379885498533" lon="-9.998247713689134"><ele>369.0</ele><time>2026-04-28T09:12:30Z</time></trkpt><trkpt lat="29.030272267314082" lon="-9.998451698597036"><ele>369.0</ele><time>2026-04-28T09:12:31Z</time></trkpt><trkpt lat="29.030157791227605" lon="-9.998668706185704"><ele>368.5</ele><time>2026-04-28T09:12:32Z</time></trkpt><trkpt lat="29.03003814533585" lon="-9.998894131042723"><ele>368.0</ele><time>2026-04-28T09:12:33Z</time></trkpt><trkpt lat="29.02991344570577" lon="-9.999126514379508"><ele>367.0</ele><time>2026-04-28T09:12:34Z</time></trkpt><trkpt lat="29.029786300843732" lon="-9.999361511982716"><ele>366.0</ele><time>2026-04-28T09:12:35Z</time></trkpt><trkpt lat="29.02966090472239" lon="-9.999596678431125"><ele>366.0</ele><time>2026-04-28T09:12:36Z</time></trkpt><trkpt lat="29.029527869229405" lon="-9.999843230799279"><ele>366.0</ele><time>2026-04-28T09:12:37Z</time></trkpt><trkpt lat="29.02939509767986" lon="-10.000091332027043"><ele>366.0</ele><time>2026-04-28T09:12:38Z</time></trkpt><trkpt lat="29.029261463871652" lon="-10.00033903012574"><ele>366.0</ele><time>2026-04-28T09:12:39Z</time></trkpt><trkpt lat="29.029126386754964" lon="-10.000592454846002"><ele>367.0</ele><time>2026-04-28T09:12:40Z</time></trkpt><trkpt lat="29.028990659907556" lon="-10.000850559946572"><ele>368.0</ele><time>2026-04-28T09:12:41Z</time></trkpt><trkpt lat="29.02885579165386" lon="-10.001110914690383"><ele>368.0</ele><time>2026-04-28T09:12:42Z</time></trkpt><trkpt lat="29.028718382657587" lon="-10.001372701754024"><ele>368.0</ele><time>2026-04-28T09:12:43Z</time></trkpt><trkpt lat="29.02857753668535" lon="-10.001636018540376"><ele>367.5</ele><time>2026-04-28T09:12:44Z</time></trkpt><trkpt lat="29.02843521155645" lon="-10.001900510888472"><ele>367.0</ele><time>2026-04-28T09:12:45Z</time></trkpt><trkpt lat="29.028293042852987" lon="-10.0021666231588"><ele>368.0</ele><time>2026-04-28T09:12:46Z</time></trkpt><trkpt lat="29.028149936194907" lon="-10.002434513526296"><ele>369.0</ele><time>2026-04-28T09:12:47Z</time></trkpt><trkpt lat="29.02800924177013" lon="-10.002705636690273"><ele>369.0</ele><time>2026-04-28T09:12:48Z</time></trkpt><trkpt lat="29.027868588972876" lon="-10.002979295576507"><ele>369.0</ele><time>2026-04-28T09:12:49Z</time></trkpt><trkpt lat="29.027728162610902" lon="-10.003256437970915"><ele>368.0</ele><time>2026-04-28T09:12:50Z</time></trkpt><trkpt lat="29.02759148179535" lon="-10.003536250466727"><ele>367.0</ele><time>2026-04-28T09:12:51Z</time></trkpt><trkpt lat="29.027459238120443" lon="-10.00382051472601"><ele>367.5</ele><time>2026-04-28T09:12:52Z</time></trkpt><trkpt lat="29.027330163336245" lon="-10.004108692202315"><ele>368.0</ele><time>2026-04-28T09:12:53Z</time></trkpt><trkpt lat="29.027204262658145" lon="-10.004397342329721"><ele>368.0</ele><time>2026-04-28T09:12:54Z</time></trkpt><trkpt lat="29.02707705658887" lon="-10.004685861792193"><ele>368.0</ele><time>2026-04-28T09:12:55Z</time></trkpt><trkpt lat="29.02694880814091" lon="-10.004974824701797"><ele>367.0</ele><time>2026-04-28T09:12:56Z</time></trkpt><trkpt lat="29.026819122517217" lon="-10.005266713830592"><ele>366.0</ele><time>2026-04-28T09:12:57Z</time></trkpt><trkpt lat="29.026686610391483" lon="-10.005556858741649"><ele>366.5</ele><time>2026-04-28T09:12:58Z</time></trkpt><trkpt lat="29.02655514096251" lon="-10.005844462761285"><ele>367.0</ele><time>2026-04-28T09:12:59Z</time></trkpt><trkpt lat="29.02642329323373" lon="-10.006135927027406"><ele>367.0</ele><time>2026-04-28T09:13:00Z</time></trkpt><trkpt lat="29.026296229737177" lon="-10.006424640512359"><ele>367.0</ele><time>2026-04-28T09:13:01Z</time></trkpt><trkpt lat="29.02617441211108" lon="-10.006704750323244"><ele>365.5</ele><time>2026-04-28T09:13:02Z</time></trkpt><trkpt lat="29.026054104271203" lon="-10.006976176852683"><ele>364.0</ele><time>2026-04-28T09:13:03Z</time></trkpt><trkpt lat="29.025936136757135" lon="-10.007240395778714"><ele>365.0</ele><time>2026-04-28T09:13:04Z</time></trkpt><trkpt lat="29.02582003487323" lon="-10.00750269271432"><ele>366.0</ele><time>2026-04-28T09:13:05Z</time></trkpt><trkpt lat="29.025708989328347" lon="-10.00776049977048"><ele>366.0</ele><time>2026-04-28T09:13:06Z</time></trkpt><trkpt lat="29.025597668656072" lon="-10.008016912244557"><ele>366.0</ele><time>2026-04-28T09:13:07Z</time></trkpt><trkpt lat="29.02548567035439" lon="-10.008268005342792"><ele>364.5</ele><time>2026-04-28T09:13:08Z</time></trkpt><trkpt lat="29.025373827799562" lon="-10.00851604006215"><ele>363.0</ele><time>2026-04-28T09:13:09Z</time></trkpt><trkpt lat="29.02526455985548" lon="-10.008761755048708"><ele>363.0</ele><time>2026-04-28T09:13:10Z</time></trkpt><trkpt lat="29.025159218184466" lon="-10.009004629549645"><ele>363.0</ele><time>2026-04-28T09:13:11Z</time></trkpt><trkpt lat="29.02505542480661" lon="-10.009245273663192"><ele>362.5</ele><time>2026-04-28T09:13:12Z</time></trkpt><trkpt lat="29.024950719472855" lon="-10.009484853758291"><ele>362.0</ele><time>2026-04-28T09:13:13Z</time></trkpt><trkpt lat="29.024846109677544" lon="-10.009719898361768"><ele>362.0</ele><time>2026-04-28T09:13:14Z</time></trkpt><trkpt lat="29.024740312401203" lon="-10.00995539920123"><ele>362.0</ele><time>2026-04-28T09:13:15Z</time></trkpt><trkpt lat="29.024634060959464" lon="-10.010189623925625"><ele>361.0</ele><time>2026-04-28T09:13:16Z</time></trkpt><trkpt lat="29.02453050642452" lon="-10.010422897322366"><ele>360.0</ele><time>2026-04-28T09:13:17Z</time></trkpt><trkpt lat="29.024427051475975" lon="-10.010659599587122"><ele>359.0</ele><time>2026-04-28T09:13:18Z</time></trkpt><trkpt lat="29.024323534929945" lon="-10.010892415643532"><ele>358.0</ele><time>2026-04-28T09:13:19Z</time></trkpt><trkpt lat="29.02421756679251" lon="-10.011126745185441"><ele>360.0</ele><time>2026-04-28T09:13:20Z</time></trkpt><trkpt lat="29.024112608658662" lon="-10.01136295654623"><ele>362.0</ele><time>2026-04-28T09:13:21Z</time></trkpt><trkpt lat="29.02400724232342" lon="-10.011602130779139"><ele>361.0</ele><time>2026-04-28T09:13:22Z</time></trkpt><trkpt lat="29.023899701644858" lon="-10.011844802071828"><ele>360.0</ele><time>2026-04-28T09:13:23Z</time></trkpt><trkpt lat="29.02379181945792" lon="-10.012089258080183"><ele>360.0</ele><time>2026-04-28T09:13:24Z</time></trkpt><trkpt lat="29.023681987847926" lon="-10.012341231270298"><ele>360.0</ele><time>2026-04-28T09:13:25Z</time></trkpt><trkpt lat="29.023569167501265" lon="-10.012593474304614"><ele>358.0</ele><time>2026-04-28T09:13:26Z</time></trkpt><trkpt lat="29.02345446372658" lon="-10.012845531252468"><ele>356.0</ele><time>2026-04-28T09:13:27Z</time></trkpt><trkpt lat="29.023337280914124" lon="-10.01310001055967"><ele>357.0</ele><time>2026-04-28T09:13:28Z</time></trkpt><trkpt lat="29.02322250273418" lon="-10.013354567875531"><ele>358.0</ele><time>2026-04-28T09:13:29Z</time></trkpt><trkpt lat="29.023108894103203" lon="-10.013613760084697"><ele>358.0</ele><time>2026-04-28T09:13:30Z</time></trkpt><trkpt lat="29.022995113837254" lon="-10.013875856190499"><ele>358.0</ele><time>2026-04-28T09:13:31Z</time></trkpt><trkpt lat="29.0228797706403" lon="-10.014138884539198"><ele>357.0</ele><time>2026-04-28T09:13:32Z</time></trkpt><trkpt lat="29.02276008364126" lon="-10.014403911599524"><ele>356.0</ele><time>2026-04-28T09:13:33Z</time></trkpt><trkpt lat="29.022641052631524" lon="-10.014665541443376"><ele>356.0</ele><time>2026-04-28T09:13:34Z</time></trkpt><trkpt lat="29.022522165269578" lon="-10.01492924357326"><ele>356.0</ele><time>2026-04-28T09:13:35Z</time></trkpt><trkpt lat="29.022403898811394" lon="-10.015196378127085"><ele>355.0</ele><time>2026-04-28T09:13:36Z</time></trkpt><trkpt lat="29.022286977893476" lon="-10.015462492551693"><ele>354.0</ele><time>2026-04-28T09:13:37Z</time></trkpt><trkpt lat="29.02216804489169" lon="-10.015732665483949"><ele>353.0</ele><time>2026-04-28T09:13:38Z</time></trkpt><trkpt lat="29.02205046364419" lon="-10.016000523192284"><ele>352.0</ele><time>2026-04-28T09:13:39Z</time></trkpt><trkpt lat="29.02193161665015" lon="-10.016268638415632"><ele>352.0</ele><time>2026-04-28T09:13:40Z</time></trkpt><trkpt lat="29.02181325969922" lon="-10.01653399771507"><ele>352.0</ele><time>2026-04-28T09:13:41Z</time></trkpt><trkpt lat="29.021695187702896" lon="-10.016797512978036"><ele>353.0</ele><time>2026-04-28T09:13:42Z</time></trkpt><trkpt lat="29.021576082428528" lon="-10.017060742525992"><ele>354.0</ele><time>2026-04-28T09:13:43Z</time></trkpt><trkpt lat="29.02145738650578" lon="-10.017321700873318"><ele>352.5</ele><time>2026-04-28T09:13:44Z</time></trkpt><trkpt lat="29.021339469847774" lon="-10.017583649154995"><ele>351.0</ele><time>2026-04-28T09:13:45Z</time></trkpt><trkpt lat="29.021223560737507" lon="-10.017846112710858"><ele>351.0</ele><time>2026-04-28T09:13:46Z</time></trkpt><trkpt lat="29.02111122711064" lon="-10.018107522723573"><ele>351.0</ele><time>2026-04-28T09:13:47Z</time></trkpt><trkpt lat="29.020998267323673" lon="-10.018368347210737"><ele>350.0</ele><time>2026-04-28T09:13:48Z</time></trkpt><trkpt lat="29.020884572383387" lon="-10.01862875971309"><ele>349.0</ele><time>2026-04-28T09:13:49Z</time></trkpt><trkpt lat="29.020770300826307" lon="-10.018888256108962"><ele>350.5</ele><time>2026-04-28T09:13:50Z</time></trkpt><trkpt lat="29.02065408219892" lon="-10.019146825920037"><ele>352.0</ele><time>2026-04-28T09:13:51Z</time></trkpt><trkpt lat="29.020539678362265" lon="-10.019402452362655"><ele>352.0</ele><time>2026-04-28T09:13:52Z</time></trkpt><trkpt lat="29.020428217761314" lon="-10.019658195632031"><ele>352.0</ele><time>2026-04-28T09:13:53Z</time></trkpt><trkpt lat="29.020318470774818" lon="-10.019919868379795"><ele>351.5</ele><time>2026-04-28T09:13:54Z</time></trkpt><trkpt lat="29.02020757283934" lon="-10.020176536713738"><ele>351.0</ele><time>2026-04-28T09:13:55Z</time></trkpt><trkpt lat="29.020093014501263" lon="-10.020432397503175"><ele>351.0</ele><time>2026-04-28T09:13:56Z</time></trkpt><trkpt lat="29.019977090625098" lon="-10.02068879818191"><ele>351.0</ele><time>2026-04-28T09:13:57Z</time></trkpt><trkpt lat="29.0198617944723" lon="-10.02094538877259"><ele>351.0</ele><time>2026-04-28T09:13:58Z</time></trkpt><trkpt lat="29.019745437688282" lon="-10.021200549507375"><ele>351.0</ele><time>2026-04-28T09:13:59Z</time></trkpt><trkpt lat="29.019630035572586" lon="-10.021457974068921"><ele>350.0</ele><time>2026-04-28T09:14:00Z</time></trkpt><trkpt lat="29.01951486168242" lon="-10.021715236706948"><ele>349.0</ele><time>2026-04-28T09:14:01Z</time></trkpt><trkpt lat="29.01939775471234" lon="-10.021972054474926"><ele>349.0</ele><time>2026-04-28T09:14:02Z</time></trkpt><trkpt lat="29.019282898743647" lon="-10.022226946992498"><ele>349.0</ele><time>2026-04-28T09:14:03Z</time></trkpt><trkpt lat="29.01916807816456" lon="-10.022482349414195"><ele>348.5</ele><time>2026-04-28T09:14:04Z</time></trkpt><trkpt lat="29.01905482321843" lon="-10.022736659743538"><ele>348.0</ele><time>2026-04-28T09:14:05Z</time></trkpt><trkpt lat="29.01894337829127" lon="-10.02299337122344"><ele>348.0</ele><time>2026-04-28T09:14:06Z</time></trkpt><trkpt lat="29.01883317426683" lon="-10.023245893945893"><ele>348.0</ele><time>2026-04-28T09:14:07Z</time></trkpt><trkpt lat="29.01872173123573" lon="-10.023500381079975"><ele>347.0</ele><time>2026-04-28T09:14:08Z</time></trkpt><trkpt lat="29.018609640693096" lon="-10.023751247434932"><ele>346.0</ele><time>2026-04-28T09:14:09Z</time></trkpt><trkpt lat="29.018498020616963" lon="-10.024000621424443"><ele>345.5</ele><time>2026-04-28T09:14:10Z</time></trkpt><trkpt lat="29.01838778785212" lon="-10.024249317085761"><ele>345.0</ele><time>2026-04-28T09:14:11Z</time></trkpt><trkpt lat="29.018281503065786" lon="-10.024493237314893"><ele>345.0</ele><time>2026-04-28T09:14:12Z</time></trkpt><trkpt lat="29.01818078866007" lon="-10.024711592842015"><ele>345.0</ele><time>2026-04-28T09:14:13Z</time></trkpt><trkpt lat="29.01808643622049" lon="-10.024919749512994"><ele>345.0</ele><time>2026-04-28T09:14:14Z</time></trkpt><trkpt lat="29.017997346414905" lon="-10.025115872337386"><ele>345.0</ele><time>2026-04-28T09:14:15Z</time></trkpt><trkpt lat="29.01791254272204" lon="-10.02530618744802"><ele>345.0</ele><time>2026-04-28T09:14:16Z</time></trkpt><trkpt lat="29.017831815966368" lon="-10.025488059761733"><ele>345.0</ele><time>2026-04-28T09:14:17Z</time></trkpt><trkpt lat="29.017752294147122" lon="-10.025663423709817"><ele>344.6666666666667</ele><time>2026-04-28T09:14:18Z</time></trkpt><trkpt lat="29.017664530684126" lon="-10.025862156286546"><ele>344.33333333333337</ele><time>2026-04-28T09:14:19Z</time></trkpt><trkpt lat="29.017570459609786" lon="-10.026076349806393"><ele>344.0</ele><time>2026-04-28T09:14:20Z</time></trkpt><trkpt lat="29.017472683690546" lon="-10.026297125727814"><ele>345.0</ele><time>2026-04-28T09:14:21Z</time></trkpt><trkpt lat="29.01737638672028" lon="-10.026511096859894"><ele>346.0</ele><time>2026-04-28T09:14:22Z</time></trkpt><trkpt lat="29.017280312024624" lon="-10.026731311916627"><ele>347.0</ele><time>2026-04-28T09:14:23Z</time></trkpt><trkpt lat="29.017184879606226" lon="-10.026950266377419"><ele>347.0</ele><time>2026-04-28T09:14:24Z</time></trkpt><trkpt lat="29.017091962624473" lon="-10.027173413458955"><ele>347.0</ele><time>2026-04-28T09:14:25Z</time></trkpt><trkpt lat="29.017000719100146" lon="-10.027409167082501"><ele>347.0</ele><time>2026-04-28T09:14:26Z</time></trkpt><trkpt lat="29.016914619017058" lon="-10.027650916529067"><ele>345.5</ele><time>2026-04-28T09:14:27Z</time></trkpt><trkpt lat="29.01683649350603" lon="-10.027900285051313"><ele>344.0</ele><time>2026-04-28T09:14:28Z</time></trkpt><trkpt lat="29.01676281257756" lon="-10.028143115404058"><ele>344.0</ele><time>2026-04-28T09:14:29Z</time></trkpt><trkpt lat="29.016693523193336" lon="-10.028380167511948"><ele>344.0</ele><time>2026-04-28T09:14:30Z</time></trkpt><trkpt lat="29.016631136116356" lon="-10.028608391048486"><ele>344.0</ele><time>2026-04-28T09:14:31Z</time></trkpt><trkpt lat="29.01657988834009" lon="-10.028822499384807"><ele>344.0</ele><time>2026-04-28T09:14:32Z</time></trkpt><trkpt lat="29.016533231077236" lon="-10.029032295577052"><ele>344.0</ele><time>2026-04-28T09:14:33Z</time></trkpt><trkpt lat="29.01649283454871" lon="-10.02923325322686"><ele>344.0</ele><time>2026-04-28T09:14:34Z</time></trkpt><trkpt lat="29.016458650417526" lon="-10.029430036594245"><ele>343.0</ele><time>2026-04-28T09:14:35Z</time></trkpt><trkpt lat="29.01643006860713" lon="-10.029620933621308"><ele>342.0</ele><time>2026-04-28T09:14:36Z</time></trkpt><trkpt lat="29.016403439545197" lon="-10.029817790239436"><ele>341.0</ele><time>2026-04-28T09:14:37Z</time></trkpt><trkpt lat="29.01637661288247" lon="-10.030038678376986"><ele>340.33333333333337</ele><time>2026-04-28T09:14:38Z</time></trkpt><trkpt lat="29.016354270392622" lon="-10.030264388644126"><ele>339.6666666666667</ele><time>2026-04-28T09:14:39Z</time></trkpt><trkpt lat="29.016337238732596" lon="-10.030485933086391"><ele>339.0</ele><time>2026-04-28T09:14:40Z</time></trkpt><trkpt lat="29.016319768704268" lon="-10.030714427818975"><ele>337.6666666666667</ele><time>2026-04-28T09:14:41Z</time></trkpt><trkpt lat="29.01630409099993" lon="-10.030947656989063"><ele>336.33333333333337</ele><time>2026-04-28T09:14:42Z</time></trkpt><trkpt lat="29.016289702088347" lon="-10.031174205620282"><ele>335.0</ele><time>2026-04-28T09:14:43Z</time></trkpt><trkpt lat="29.016275595611233" lon="-10.03139441266915"><ele>335.0</ele><time>2026-04-28T09:14:44Z</time></trkpt><trkpt lat="29.016260217077033" lon="-10.031616029244843"><ele>335.0</ele><time>2026-04-28T09:14:45Z</time></trkpt><trkpt lat="29.016247804440255" lon="-10.031831787365979"><ele>335.0</ele><time>2026-04-28T09:14:46Z</time></trkpt><trkpt lat="29.016237249278085" lon="-10.032040894439241"><ele>334.0</ele><time>2026-04-28T09:14:47Z</time></trkpt><trkpt lat="29.016228923457415" lon="-10.032242497530339"><ele>333.0</ele><time>2026-04-28T09:14:48Z</time></trkpt><trkpt lat="29.016220996657072" lon="-10.032435709886185"><ele>332.0</ele><time>2026-04-28T09:14:49Z</time></trkpt><trkpt lat="29.01621392900727" lon="-10.032619464799598"><ele>332.0</ele><time>2026-04-28T09:14:50Z</time></trkpt><trkpt lat="29.016207707720287" lon="-10.032792569392045"><ele>332.0</ele><time>2026-04-28T09:14:51Z</time></trkpt><trkpt lat="29.016201937283416" lon="-10.0329565432756"><ele>332.0</ele><time>2026-04-28T09:14:52Z</time></trkpt><trkpt lat="29.016196241667103" lon="-10.033117991240902"><ele>332.0</ele><time>2026-04-28T09:14:53Z</time></trkpt><trkpt lat="29.016189990498525" lon="-10.03327799561112"><ele>331.75</ele><time>2026-04-28T09:14:54Z</time></trkpt><trkpt lat="29.016183154555197" lon="-10.033441021843837"><ele>331.5</ele><time>2026-04-28T09:14:55Z</time></trkpt><trkpt lat="29.01617934140083" lon="-10.033597346524434"><ele>331.25</ele><time>2026-04-28T09:14:56Z</time></trkpt><trkpt lat="29.01617573405743" lon="-10.033745896737303"><ele>331.0</ele><time>2026-04-28T09:14:57Z</time></trkpt><trkpt lat="29.016170164287924" lon="-10.033881735548064"><ele>331.0</ele><time>2026-04-28T09:14:58Z</time></trkpt><trkpt lat="29.016161660264558" lon="-10.034001368863558"><ele>331.0</ele><time>2026-04-28T09:14:59Z</time></trkpt><trkpt lat="29.01614868503349" lon="-10.034107715508524"><ele>331.0</ele><time>2026-04-28T09:15:00Z</time></trkpt><trkpt lat="29.016132023158676" lon="-10.034199047020019"><ele>331.0</ele><time>2026-04-28T09:15:01Z</time></trkpt><trkpt lat="29.01611527348817" lon="-10.034285411232723"><ele>331.0</ele><time>2026-04-28T09:15:02Z</time></trkpt><trkpt lat="29.01609909490066" lon="-10.034370737854593"><ele>331.0</ele><time>2026-04-28T09:15:03Z</time></trkpt><trkpt lat="29.01608690088162" lon="-10.034451111755041"><ele>331.0</ele><time>2026-04-28T09:15:04Z</time></trkpt><trkpt lat="29.016071612320687" lon="-10.034578110437375"><ele>331.0</ele><time>2026-04-28T09:15:06Z</time></trkpt><trkpt lat="29.01604076010491" lon="-10.03470701788326"><ele>331.0</ele><time>2026-04-28T09:15:08Z</time></trkpt><trkpt lat="29.01601498380746" lon="-10.034793282900543"><ele>331.0</ele><time>2026-04-28T09:15:09Z</time></trkpt><trkpt lat="29.01598835593463" lon="-10.034878737158028"><ele>331.0</ele><time>2026-04-28T09:15:10Z</time></trkpt><trkpt lat="29.015963958974275" lon="-10.034958157988846"><ele>331.0</ele><time>2026-04-28T09:15:11Z</time></trkpt><trkpt lat="29.01593947761109" lon="-10.035038619426984"><ele>331.0</ele><time>2026-04-28T09:15:12Z</time></trkpt><trkpt lat="29.01590644395896" lon="-10.035140994138441"><ele>331.0</ele><time>2026-04-28T09:15:13Z</time></trkpt><trkpt lat="29.01587556413466" lon="-10.035232916102949"><ele>331.0</ele><time>2026-04-28T09:15:14Z</time></trkpt><trkpt lat="29.015847744151973" lon="-10.03531616919186"><ele>331.0</ele><time>2026-04-28T09:15:15Z</time></trkpt><trkpt lat="29.0158222103532" lon="-10.035392808899708"><ele>331.0</ele><time>2026-04-28T09:15:16Z</time></trkpt><trkpt lat="29.01579218805387" lon="-10.035479210477204"><ele>331.0</ele><time>2026-04-28T09:15:17Z</time></trkpt><trkpt lat="29.01576227186441" lon="-10.035573343101754"><ele>331.0</ele><time>2026-04-28T09:15:18Z</time></trkpt><trkpt lat="29.01573931410172" lon="-10.03567573540542"><ele>331.0</ele><time>2026-04-28T09:15:19Z</time></trkpt><trkpt lat="29.01573028223111" lon="-10.035774786432956"><ele>331.0</ele><time>2026-04-28T09:15:20Z</time></trkpt><trkpt lat="29.01572911983001" lon="-10.035864565689975"><ele>331.0</ele><time>2026-04-28T09:15:21Z</time></trkpt><trkpt lat="29.015721686343316" lon="-10.035962011388845"><ele>331.0</ele><time>2026-04-28T09:15:22Z</time></trkpt><trkpt lat="29.015684702543478" lon="-10.036046131588789"><ele>330.8</ele><time>2026-04-28T09:15:23Z</time></trkpt><trkpt lat="29.01563459961612" lon="-10.036115389677349"><ele>330.6</ele><time>2026-04-28T09:15:24Z</time></trkpt><trkpt lat="29.015554760028994" lon="-10.036180742906689"><ele>330.4</ele><time>2026-04-28T09:15:25Z</time></trkpt><trkpt lat="29.01546972939681" lon="-10.036255548268636"><ele>330.2</ele><time>2026-04-28T09:15:26Z</time></trkpt><trkpt lat="29.015389492065097" lon="-10.036350654514454"><ele>330.0</ele><time>2026-04-28T09:15:27Z</time></trkpt><trkpt lat="29.015304536191778" lon="-10.03647247528287"><ele>330.0</ele><time>2026-04-28T09:15:28Z</time></trkpt><trkpt lat="29.015211604924176" lon="-10.036603000831693"><ele>330.0</ele><time>2026-04-28T09:15:29Z</time></trkpt><trkpt lat="29.015121384781658" lon="-10.03672978264699"><ele>330.0</ele><time>2026-04-28T09:15:30Z</time></trkpt><trkpt lat="29.01503557275442" lon="-10.036850270511607"><ele>330.0</ele><time>2026-04-28T09:15:31Z</time></trkpt><trkpt lat="29.014953132454448" lon="-10.03696223627401"><ele>330.0</ele><time>2026-04-28T09:15:32Z</time></trkpt><trkpt lat="29.014872856667566" lon="-10.037063257000918"><ele>330.0</ele><time>2026-04-28T09:15:33Z</time></trkpt><trkpt lat="29.014770970832508" lon="-10.037174841379043"><ele>330.0</ele><time>2026-04-28T09:15:34Z</time></trkpt><trkpt lat="29.014646777580147" lon="-10.037301162160958"><ele>330.0</ele><time>2026-04-28T09:15:35Z</time></trkpt><trkpt lat="29.01453628263518" lon="-10.037409164497788"><ele>330.0</ele><time>2026-04-28T09:15:36Z</time></trkpt><trkpt lat="29.01443349031498" lon="-10.037507653026337"><ele>330.0</ele><time>2026-04-28T09:15:37Z</time></trkpt><trkpt lat="29.014336559631193" lon="-10.037599288288604"><ele>330.0</ele><time>2026-04-28T09:15:38Z</time></trkpt><trkpt lat="29.014235756254937" lon="-10.037695063952556"><ele>330.0</ele><time>2026-04-28T09:15:39Z</time></trkpt><trkpt lat="29.01413331591976" lon="-10.03780044156052"><ele>329.6666666666667</ele><time>2026-04-28T09:15:40Z</time></trkpt><trkpt lat="29.01402032727972" lon="-10.037920361041126"><ele>329.33333333333337</ele><time>2026-04-28T09:15:41Z</time></trkpt><trkpt lat="29.013907577322104" lon="-10.038035531626669"><ele>329.0</ele><time>2026-04-28T09:15:42Z</time></trkpt><trkpt lat="29.013787613480243" lon="-10.038149775524316"><ele>329.0</ele><time>2026-04-28T09:15:43Z</time></trkpt><trkpt lat="29.013666004363575" lon="-10.03826637853117"><ele>329.0</ele><time>2026-04-28T09:15:44Z</time></trkpt><trkpt lat="29.01355337539381" lon="-10.038370428810346"><ele>329.0</ele><time>2026-04-28T09:15:45Z</time></trkpt><trkpt lat="29.01344562898239" lon="-10.038465092867323"><ele>329.0</ele><time>2026-04-28T09:15:46Z</time></trkpt><trkpt lat="29.013343845900057" lon="-10.038554576870665"><ele>329.0</ele><time>2026-04-28T09:15:47Z</time></trkpt><trkpt lat="29.013235493160405" lon="-10.038650067056533"><ele>329.0</ele><time>2026-04-28T09:15:48Z</time></trkpt><trkpt lat="29.01311486793343" lon="-10.038755775700222"><ele>329.0</ele><time>2026-04-28T09:15:49Z</time></trkpt><trkpt lat="29.0129783971471" lon="-10.038876918043757"><ele>329.0</ele><time>2026-04-28T09:15:50Z</time></trkpt><trkpt lat="29.012834989157582" lon="-10.039000436897753"><ele>329.0</ele><time>2026-04-28T09:15:51Z</time></trkpt><trkpt lat="29.012698708990996" lon="-10.039116113415622"><ele>329.0</ele><time>2026-04-28T09:15:52Z</time></trkpt><trkpt lat="29.012556620945233" lon="-10.039235033918064"><ele>328.0</ele><time>2026-04-28T09:15:53Z</time></trkpt><trkpt lat="29.012410861092736" lon="-10.03935951258247"><ele>327.0</ele><time>2026-04-28T09:15:54Z</time></trkpt><trkpt lat="29.012277092630033" lon="-10.03947284737177"><ele>326.0</ele><time>2026-04-28T09:15:55Z</time></trkpt><trkpt lat="29.012151562178474" lon="-10.039580182268766"><ele>326.0</ele><time>2026-04-28T09:15:56Z</time></trkpt><trkpt lat="29.01202349359388" lon="-10.039691415295302"><ele>326.0</ele><time>2026-04-28T09:15:57Z</time></trkpt><trkpt lat="29.011901445393477" lon="-10.039796746975478"><ele>326.0</ele><time>2026-04-28T09:15:58Z</time></trkpt><trkpt lat="29.011781373651186" lon="-10.039892372067339"><ele>326.0</ele><time>2026-04-28T09:15:59Z</time></trkpt><trkpt lat="29.011657117096135" lon="-10.039990483745969"><ele>326.0</ele><time>2026-04-28T09:16:00Z</time></trkpt><trkpt lat="29.011528901460117" lon="-10.040100410142395"><ele>326.0</ele><time>2026-04-28T09:16:01Z</time></trkpt><trkpt lat="29.011392095761405" lon="-10.040221509036726"><ele>326.0</ele><time>2026-04-28T09:16:02Z</time></trkpt><trkpt lat="29.011248244244694" lon="-10.040347437256827"><ele>326.0</ele><time>2026-04-28T09:16:03Z</time></trkpt><trkpt lat="29.011091696398946" lon="-10.040479281357241"><ele>326.0</ele><time>2026-04-28T09:16:04Z</time></trkpt><trkpt lat="29.010925670857798" lon="-10.040617646107476"><ele>326.0</ele><time>2026-04-28T09:16:05Z</time></trkpt><trkpt lat="29.010764677524158" lon="-10.040751781796994"><ele>326.0</ele><time>2026-04-28T09:16:06Z</time></trkpt><trkpt lat="29.010604383442836" lon="-10.040885793168453"><ele>326.0</ele><time>2026-04-28T09:16:07Z</time></trkpt><trkpt lat="29.010445393324133" lon="-10.04101945123731"><ele>326.0</ele><time>2026-04-28T09:16:08Z</time></trkpt><trkpt lat="29.010289101558566" lon="-10.041147992065024"><ele>326.0</ele><time>2026-04-28T09:16:09Z</time></trkpt><trkpt lat="29.01013193888102" lon="-10.041282179926228"><ele>326.0</ele><time>2026-04-28T09:16:10Z</time></trkpt><trkpt lat="29.009978998979125" lon="-10.041431324347043"><ele>325.0</ele><time>2026-04-28T09:16:11Z</time></trkpt><trkpt lat="29.00981100765812" lon="-10.041581073107075"><ele>324.0</ele><time>2026-04-28T09:16:12Z</time></trkpt><trkpt lat="29.009626503902364" lon="-10.041706122533393"><ele>323.0</ele><time>2026-04-28T09:16:13Z</time></trkpt><trkpt lat="29.009439287218704" lon="-10.041833634810294"><ele>323.0</ele><time>2026-04-28T09:16:14Z</time></trkpt><trkpt lat="29.009262516235683" lon="-10.041963290163649"><ele>323.0</ele><time>2026-04-28T09:16:15Z</time></trkpt><trkpt lat="29.009100800985667" lon="-10.04208071354601"><ele>323.0</ele><time>2026-04-28T09:16:16Z</time></trkpt><trkpt lat="29.008944259805503" lon="-10.042193837931256"><ele>323.0</ele><time>2026-04-28T09:16:17Z</time></trkpt><trkpt lat="29.00879943903991" lon="-10.042301128985956"><ele>323.0</ele><time>2026-04-28T09:16:18Z</time></trkpt><trkpt lat="29.008661693792515" lon="-10.042403544630494"><ele>323.0</ele><time>2026-04-28T09:16:19Z</time></trkpt><trkpt lat="29.008533586286976" lon="-10.04249781675128"><ele>322.75</ele><time>2026-04-28T09:16:20Z</time></trkpt><trkpt lat="29.008417329669463" lon="-10.042581186570711"><ele>322.5</ele><time>2026-04-28T09:16:21Z</time></trkpt><trkpt lat="29.008311790236874" lon="-10.042659378276161"><ele>322.25</ele><time>2026-04-28T09:16:22Z</time></trkpt><trkpt lat="29.008212408083516" lon="-10.04273309853317"><ele>322.0</ele><time>2026-04-28T09:16:23Z</time></trkpt><trkpt lat="29.00811787144998" lon="-10.042802978927309"><ele>322.0</ele><time>2026-04-28T09:16:24Z</time></trkpt><trkpt lat="29.00801913152264" lon="-10.042871260708031"><ele>322.0</ele><time>2026-04-28T09:16:25Z</time></trkpt><trkpt lat="29.007911241352804" lon="-10.042944155053021"><ele>322.0</ele><time>2026-04-28T09:16:26Z</time></trkpt><trkpt lat="29.0078028155568" lon="-10.043012793750508"><ele>322.0</ele><time>2026-04-28T09:16:27Z</time></trkpt><trkpt lat="29.007698810092243" lon="-10.043076797825977"><ele>322.0</ele><time>2026-04-28T09:16:28Z</time></trkpt><trkpt lat="29.007598446640294" lon="-10.04314599391774"><ele>322.0</ele><time>2026-04-28T09:16:29Z</time></trkpt><trkpt lat="29.00750801308492" lon="-10.043209705319187"><ele>322.0</ele><time>2026-04-28T09:16:30Z</time></trkpt><trkpt lat="29.007421103530206" lon="-10.043273794891096"><ele>322.0</ele><time>2026-04-28T09:16:31Z</time></trkpt><trkpt lat="29.00733372477678" lon="-10.043340083707779"><ele>322.0</ele><time>2026-04-28T09:16:32Z</time></trkpt><trkpt lat="29.007247566432337" lon="-10.043403954347058"><ele>322.0</ele><time>2026-04-28T09:16:33Z</time></trkpt><trkpt lat="29.00717365780753" lon="-10.043460775781185"><ele>322.0</ele><time>2026-04-28T09:16:34Z</time></trkpt><trkpt lat="29.007107342927004" lon="-10.043514385359773"><ele>322.0</ele><time>2026-04-28T09:16:35Z</time></trkpt><trkpt lat="29.007048550421363" lon="-10.043569274490498"><ele>322.0</ele><time>2026-04-28T09:16:36Z</time></trkpt><trkpt lat="29.00699526227996" lon="-10.043623731965095"><ele>322.0</ele><time>2026-04-28T09:16:37Z</time></trkpt><trkpt lat="29.006943816868894" lon="-10.043680146868752"><ele>322.0</ele><time>2026-04-28T09:16:38Z</time></trkpt><trkpt lat="29.00689093275079" lon="-10.043733749921142"><ele>322.0</ele><time>2026-04-28T09:16:39Z</time></trkpt><trkpt lat="29.006831231700893" lon="-10.043774826902974"><ele>322.0</ele><time>2026-04-28T09:16:40Z</time></trkpt><trkpt lat="29.006746565792554" lon="-10.043810726586925"><ele>322.0</ele><time>2026-04-28T09:16:41Z</time></trkpt><trkpt lat="29.006644750927453" lon="-10.043864071466134"><ele>322.0</ele><time>2026-04-28T09:16:42Z</time></trkpt><trkpt lat="29.006531624098802" lon="-10.043934313277727"><ele>322.0</ele><time>2026-04-28T09:16:43Z</time></trkpt><trkpt lat="29.006427561049588" lon="-10.04400851553082"><ele>321.5</ele><time>2026-04-28T09:16:44Z</time></trkpt><trkpt lat="29.006323506674427" lon="-10.044092635484231"><ele>321.0</ele><time>2026-04-28T09:16:45Z</time></trkpt><trkpt lat="29.00621804892051" lon="-10.044185490525065"><ele>320.5</ele><time>2026-04-28T09:16:46Z</time></trkpt><trkpt lat="29.006113043995946" lon="-10.04427382104544"><ele>320.0</ele><time>2026-04-28T09:16:47Z</time></trkpt><trkpt lat="29.00601075656505" lon="-10.044352903446935"><ele>320.0</ele><time>2026-04-28T09:16:48Z</time></trkpt><trkpt lat="29.005899745381093" lon="-10.044425901796032"><ele>320.0</ele><time>2026-04-28T09:16:49Z</time></trkpt><trkpt lat="29.00577958341006" lon="-10.044500326760843"><ele>320.0</ele><time>2026-04-28T09:16:50Z</time></trkpt><trkpt lat="29.005653981225397" lon="-10.044580693966049"><ele>320.0</ele><time>2026-04-28T09:16:51Z</time></trkpt><trkpt lat="29.005521546663093" lon="-10.044665859962516"><ele>319.75</ele><time>2026-04-28T09:16:52Z</time></trkpt><trkpt lat="29.005395009125742" lon="-10.044753303041892"><ele>319.5</ele><time>2026-04-28T09:16:53Z</time></trkpt><trkpt lat="29.005276619640377" lon="-10.044841053538969"><ele>319.25</ele><time>2026-04-28T09:16:54Z</time></trkpt><trkpt lat="29.005150716915363" lon="-10.044936048374622"><ele>319.0</ele><time>2026-04-28T09:16:55Z</time></trkpt><trkpt lat="29.005003561477007" lon="-10.045042811336732"><ele>318.3333333333333</ele><time>2026-04-28T09:16:56Z</time></trkpt><trkpt lat="29.004854139206106" lon="-10.045153744095717"><ele>317.6666666666667</ele><time>2026-04-28T09:16:57Z</time></trkpt><trkpt lat="29.004717910887024" lon="-10.04525814666226"><ele>317.0</ele><time>2026-04-28T09:16:58Z</time></trkpt><trkpt lat="29.004591823881306" lon="-10.045353620619107"><ele>317.0</ele><time>2026-04-28T09:16:59Z</time></trkpt><trkpt lat="29.004472129965027" lon="-10.04544229344045"><ele>317.0</ele><time>2026-04-28T09:17:00Z</time></trkpt><trkpt lat="29.004356014914812" lon="-10.045529617795589"><ele>317.0</ele><time>2026-04-28T09:17:01Z</time></trkpt><trkpt lat="29.00424561391772" lon="-10.045612444268196"><ele>317.0</ele><time>2026-04-28T09:17:02Z</time></trkpt><trkpt lat="29.00414282005639" lon="-10.045692590953307"><ele>316.75</ele><time>2026-04-28T09:17:03Z</time></trkpt><trkpt lat="29.004042973730282" lon="-10.045773670868071"><ele>316.5</ele><time>2026-04-28T09:17:04Z</time></trkpt><trkpt lat="29.00393694299246" lon="-10.045856781420076"><ele>316.25</ele><time>2026-04-28T09:17:05Z</time></trkpt><trkpt lat="29.00382775816618" lon="-10.04594205454729"><ele>316.0</ele><time>2026-04-28T09:17:06Z</time></trkpt><trkpt lat="29.003720387741357" lon="-10.046019848185773"><ele>316.0</ele><time>2026-04-28T09:17:07Z</time></trkpt><trkpt lat="29.003622488749652" lon="-10.04608912554059"><ele>316.0</ele><time>2026-04-28T09:17:08Z</time></trkpt><trkpt lat="29.003529674471213" lon="-10.046156281457906"><ele>316.0</ele><time>2026-04-28T09:17:09Z</time></trkpt><trkpt lat="29.003444424359987" lon="-10.046217975296575"><ele>316.0</ele><time>2026-04-28T09:17:10Z</time></trkpt><trkpt lat="29.003362413667897" lon="-10.046279736796686"><ele>316.0</ele><time>2026-04-28T09:17:11Z</time></trkpt><trkpt lat="29.003287857954707" lon="-10.046337190091975"><ele>315.6</ele><time>2026-04-28T09:17:12Z</time></trkpt><trkpt lat="29.003219859883476" lon="-10.046389338364781"><ele>315.20000000000005</ele><time>2026-04-28T09:17:13Z</time></trkpt><trkpt lat="29.003166235804223" lon="-10.046429457782079"><ele>314.79999999999995</ele><time>2026-04-28T09:17:14Z</time></trkpt><trkpt lat="29.00307831290716" lon="-10.046499791097778"><ele>314.4</ele><time>2026-04-28T09:17:16Z</time></trkpt><trkpt lat="29.003002015975497" lon="-10.046574879905394"><ele>314.0</ele><time>2026-04-28T09:17:18Z</time></trkpt><trkpt lat="29.002908121617782" lon="-10.04666878948224"><ele>314.0</ele><time>2026-04-28T09:17:20Z</time></trkpt><trkpt lat="29.00276128134138" lon="-10.046745593263424"><ele>314.0</ele><time>2026-04-28T09:17:22Z</time></trkpt><trkpt lat="29.002679223877742" lon="-10.046787524700107"><ele>314.0</ele><time>2026-04-28T09:17:23Z</time></trkpt><trkpt lat="29.00258669890609" lon="-10.046850788175584"><ele>314.0</ele><time>2026-04-28T09:17:24Z</time></trkpt><trkpt lat="29.00248102626262" lon="-10.046896982859435"><ele>314.0</ele><time>2026-04-28T09:17:25Z</time></trkpt><trkpt lat="29.00238482982727" lon="-10.046993765417211"><ele>314.0</ele><time>2026-04-28T09:17:26Z</time></trkpt><trkpt lat="29.00228000590795" lon="-10.04706842506144"><ele>314.0</ele><time>2026-04-28T09:17:27Z</time></trkpt><trkpt lat="29.002180341948282" lon="-10.047141860565032"><ele>314.0</ele><time>2026-04-28T09:17:28Z</time></trkpt><trkpt lat="29.00208933022256" lon="-10.047207726385988"><ele>314.0</ele><time>2026-04-28T09:17:29Z</time></trkpt><trkpt lat="29.00200061472344" lon="-10.04726932067203"><ele>314.0</ele><time>2026-04-28T09:17:30Z</time></trkpt><trkpt lat="29.001909585830013" lon="-10.047333790284616"><ele>314.0</ele><time>2026-04-28T09:17:31Z</time></trkpt><trkpt lat="29.001817172376896" lon="-10.047400087637946"><ele>314.0</ele><time>2026-04-28T09:17:32Z</time></trkpt><trkpt lat="29.001721800129737" lon="-10.0474661664511"><ele>314.0</ele><time>2026-04-28T09:17:33Z</time></trkpt><trkpt lat="29.001625788839497" lon="-10.04753332840239"><ele>313.5</ele><time>2026-04-28T09:17:34Z</time></trkpt><trkpt lat="29.001524443109528" lon="-10.047602766084633"><ele>313.0</ele><time>2026-04-28T09:17:35Z</time></trkpt><trkpt lat="29.001420573933842" lon="-10.0476739489821"><ele>312.5</ele><time>2026-04-28T09:17:36Z</time></trkpt><trkpt lat="29.001306960707673" lon="-10.04775424761656"><ele>312.0</ele><time>2026-04-28T09:17:37Z</time></trkpt><trkpt lat="29.00119193539851" lon="-10.047842949506025"><ele>312.0</ele><time>2026-04-28T09:17:38Z</time></trkpt><trkpt lat="29.001086156841843" lon="-10.047923646188043"><ele>312.0</ele><time>2026-04-28T09:17:39Z</time></trkpt><trkpt lat="29.000974984439857" lon="-10.048004234049007"><ele>312.0</ele><time>2026-04-28T09:17:40Z</time></trkpt><trkpt lat="29.000859391108225" lon="-10.048084285853372"><ele>312.0</ele><time>2026-04-28T09:17:41Z</time></trkpt><trkpt lat="29.00073179808668" lon="-10.04817378526895"><ele>312.25</ele><time>2026-04-28T09:17:42Z</time></trkpt><trkpt lat="29.000614430808465" lon="-10.048260725162846"><ele>312.5</ele><time>2026-04-28T09:17:43Z</time></trkpt><trkpt lat="29.00050509706429" lon="-10.048343688208485"><ele>312.75</ele><time>2026-04-28T09:17:44Z</time></trkpt><trkpt lat="29.00039525586971" lon="-10.048426996945913"><ele>313.0</ele><time>2026-04-28T09:17:45Z</time></trkpt><trkpt lat="29.000281905384902" lon="-10.048513944469075"><ele>313.0</ele><time>2026-04-28T09:17:46Z</time></trkpt><trkpt lat="29.000169230980028" lon="-10.048600446093722"><ele>313.0</ele><time>2026-04-28T09:17:47Z</time></trkpt><trkpt lat="29.000058192366446" lon="-10.048684823202692"><ele>313.0</ele><time>2026-04-28T09:17:48Z</time></trkpt><trkpt lat="28.999946566223844" lon="-10.048766638470074"><ele>313.0</ele><time>2026-04-28T09:17:49Z</time></trkpt><trkpt lat="28.999834803898665" lon="-10.048847748844391"><ele>313.0</ele><time>2026-04-28T09:17:50Z</time></trkpt><trkpt lat="28.99972339100265" lon="-10.048930019393142"><ele>313.0</ele><time>2026-04-28T09:17:51Z</time></trkpt><trkpt lat="28.99961349566774" lon="-10.049004736328627"><ele>313.0</ele><time>2026-04-28T09:17:52Z</time></trkpt><trkpt lat="28.999511164332425" lon="-10.049073760750899"><ele>313.0</ele><time>2026-04-28T09:17:53Z</time></trkpt><trkpt lat="28.99940107764061" lon="-10.04915005937643"><ele>313.25</ele><time>2026-04-28T09:17:54Z</time></trkpt><trkpt lat="28.99928592328126" lon="-10.049233427699926"><ele>313.5</ele><time>2026-04-28T09:17:55Z</time></trkpt><trkpt lat="28.999163006969756" lon="-10.049320610406848"><ele>313.75</ele><time>2026-04-28T09:17:56Z</time></trkpt><trkpt lat="28.99903503982148" lon="-10.049414577761382"><ele>314.0</ele><time>2026-04-28T09:17:57Z</time></trkpt><trkpt lat="28.998896324240707" lon="-10.049516498451037"><ele>313.33333333333337</ele><time>2026-04-28T09:17:58Z</time></trkpt><trkpt lat="28.99874854831974" lon="-10.049626481706301"><ele>312.6666666666667</ele><time>2026-04-28T09:17:59Z</time></trkpt><trkpt lat="28.998599326186714" lon="-10.049736869358396"><ele>312.0</ele><time>2026-04-28T09:18:00Z</time></trkpt><trkpt lat="28.998461524505544" lon="-10.049838414913603"><ele>311.3333333333333</ele><time>2026-04-28T09:18:01Z</time></trkpt><trkpt lat="28.998327426381486" lon="-10.049934480812984"><ele>310.66666666666663</ele><time>2026-04-28T09:18:02Z</time></trkpt><trkpt lat="28.99820234640784" lon="-10.0500264655129"><ele>310.0</ele><time>2026-04-28T09:18:03Z</time></trkpt><trkpt lat="28.998077731442645" lon="-10.050119619073534"><ele>310.0</ele><time>2026-04-28T09:18:04Z</time></trkpt><trkpt lat="28.99794912878004" lon="-10.050213386728505"><ele>310.0</ele><time>2026-04-28T09:18:05Z</time></trkpt><trkpt lat="28.997816576051232" lon="-10.05030872460454"><ele>310.0</ele><time>2026-04-28T09:18:06Z</time></trkpt><trkpt lat="28.997681699187517" lon="-10.05040625292106"><ele>310.0</ele><time>2026-04-28T09:18:07Z</time></trkpt><trkpt lat="28.997547943560818" lon="-10.050502813331912"><ele>310.0</ele><time>2026-04-28T09:18:08Z</time></trkpt><trkpt lat="28.99741884245096" lon="-10.05059441841578"><ele>310.0</ele><time>2026-04-28T09:18:09Z</time></trkpt><trkpt lat="28.997297702769995" lon="-10.050680353381168"><ele>310.0</ele><time>2026-04-28T09:18:10Z</time></trkpt><trkpt lat="28.99718495869597" lon="-10.050762159522247"><ele>310.0</ele><time>2026-04-28T09:18:11Z</time></trkpt><trkpt lat="28.997079753903122" lon="-10.05084033017601"><ele>310.0</ele><time>2026-04-28T09:18:12Z</time></trkpt><trkpt lat="28.996979111508093" lon="-10.050911520356417"><ele>310.0</ele><time>2026-04-28T09:18:13Z</time></trkpt><trkpt lat="28.996884039584405" lon="-10.050977267193353"><ele>310.0</ele><time>2026-04-28T09:18:14Z</time></trkpt><trkpt lat="28.996795887763053" lon="-10.051041503471124"><ele>310.0</ele><time>2026-04-28T09:18:15Z</time></trkpt><trkpt lat="28.99671399015082" lon="-10.051101320650762"><ele>310.0</ele><time>2026-04-28T09:18:16Z</time></trkpt><trkpt lat="28.996636016059483" lon="-10.05115964192468"><ele>310.0</ele><time>2026-04-28T09:18:17Z</time></trkpt><trkpt lat="28.9965646408044" lon="-10.051213871672152"><ele>310.0</ele><time>2026-04-28T09:18:18Z</time></trkpt><trkpt lat="28.996496958630214" lon="-10.051269230721925"><ele>309.57142857142856</ele><time>2026-04-28T09:18:19Z</time></trkpt><trkpt lat="28.99643697883478" lon="-10.051322830409108"><ele>309.1428571428571</ele><time>2026-04-28T09:18:20Z</time></trkpt><trkpt lat="28.99638198102183" lon="-10.051382533197273"><ele>308.71428571428567</ele><time>2026-04-28T09:18:21Z</time></trkpt><trkpt lat="28.996329547470253" lon="-10.051453036814973"><ele>308.2857142857143</ele><time>2026-04-28T09:18:22Z</time></trkpt><trkpt lat="28.99627964223712" lon="-10.051519847788937"><ele>307.85714285714283</ele><time>2026-04-28T09:18:23Z</time></trkpt><trkpt lat="28.99622575599616" lon="-10.051569672095797"><ele>307.4285714285714</ele><time>2026-04-28T09:18:24Z</time></trkpt><trkpt lat="28.996164327993405" lon="-10.051598980308174"><ele>307.0</ele><time>2026-04-28T09:18:25Z</time></trkpt><trkpt lat="28.996094458173637" lon="-10.051610210927453"><ele>307.0</ele><time>2026-04-28T09:18:26Z</time></trkpt><trkpt lat="28.996016752869004" lon="-10.051627118455915"><ele>307.0</ele><time>2026-04-28T09:18:27Z</time></trkpt><trkpt lat="28.995933086174364" lon="-10.051657238102237"><ele>307.0</ele><time>2026-04-28T09:18:28Z</time></trkpt><trkpt lat="28.995846358189944" lon="-10.05170983237442"><ele>307.0</ele><time>2026-04-28T09:18:29Z</time></trkpt><trkpt lat="28.9957462419113" lon="-10.051775362341827"><ele>307.0</ele><time>2026-04-28T09:18:30Z</time></trkpt><trkpt lat="28.99563523793963" lon="-10.051850277318522"><ele>306.75</ele><time>2026-04-28T09:18:31Z</time></trkpt><trkpt lat="28.995518853467672" lon="-10.051932616155048"><ele>306.5</ele><time>2026-04-28T09:18:32Z</time></trkpt><trkpt lat="28.995403512725847" lon="-10.052015165888328"><ele>306.25</ele><time>2026-04-28T09:18:33Z</time></trkpt><trkpt lat="28.995293995415334" lon="-10.052097568139535"><ele>306.0</ele><time>2026-04-28T09:18:34Z</time></trkpt><trkpt lat="28.995190786818743" lon="-10.052180613977917"><ele>306.0</ele><time>2026-04-28T09:18:35Z</time></trkpt><trkpt lat="28.99508439154174" lon="-10.052271630629026"><ele>306.0</ele><time>2026-04-28T09:18:36Z</time></trkpt><trkpt lat="28.994975550254814" lon="-10.052363159584269"><ele>306.0</ele><time>2026-04-28T09:18:37Z</time></trkpt><trkpt lat="28.994866602147518" lon="-10.052448911988877"><ele>306.0</ele><time>2026-04-28T09:18:38Z</time></trkpt><trkpt lat="28.99475681754629" lon="-10.052530126744363"><ele>306.0</ele><time>2026-04-28T09:18:39Z</time></trkpt><trkpt lat="28.99464443234593" lon="-10.052613638188744"><ele>306.0</ele><time>2026-04-28T09:18:40Z</time></trkpt><trkpt lat="28.99453310429502" lon="-10.05269547395373"><ele>306.0</ele><time>2026-04-28T09:18:41Z</time></trkpt><trkpt lat="28.994421638023663" lon="-10.052774825386228"><ele>306.0</ele><time>2026-04-28T09:18:42Z</time></trkpt><trkpt lat="28.994308634485012" lon="-10.052854199425248"><ele>306.0</ele><time>2026-04-28T09:18:43Z</time></trkpt><trkpt lat="28.994195623812246" lon="-10.052933200263684"><ele>306.0</ele><time>2026-04-28T09:18:44Z</time></trkpt><trkpt lat="28.99408279254758" lon="-10.053015141257992"><ele>306.0</ele><time>2026-04-28T09:18:45Z</time></trkpt><trkpt lat="28.993969430442743" lon="-10.053095631863888"><ele>306.0</ele><time>2026-04-28T09:18:46Z</time></trkpt><trkpt lat="28.993851137659668" lon="-10.053175069984182"><ele>306.0</ele><time>2026-04-28T09:18:47Z</time></trkpt><trkpt lat="28.99372942390113" lon="-10.053256198202355"><ele>306.0</ele><time>2026-04-28T09:18:48Z</time></trkpt><trkpt lat="28.99360894941051" lon="-10.053340754070078"><ele>306.0</ele><time>2026-04-28T09:18:49Z</time></trkpt><trkpt lat="28.993495156802283" lon="-10.053425543172935"><ele>306.0</ele><time>2026-04-28T09:18:50Z</time></trkpt><trkpt lat="28.993394404245322" lon="-10.053503989451974"><ele>305.2</ele><time>2026-04-28T09:18:51Z</time></trkpt><trkpt lat="28.99330749964364" lon="-10.053570013288725"><ele>304.40000000000003</ele><time>2026-04-28T09:18:52Z</time></trkpt><trkpt lat="28.99323377033177" lon="-10.053623510494063"><ele>303.6</ele><time>2026-04-28T09:18:53Z</time></trkpt><trkpt lat="28.99317874309507" lon="-10.053663615278131"><ele>302.8</ele><time>2026-04-28T09:18:54Z</time></trkpt><trkpt lat="28.99310061165314" lon="-10.053694631919797"><ele>302.0</ele><time>2026-04-28T09:19:28Z</time></trkpt><trkpt lat="28.993001863047557" lon="-10.053763400915148"><ele>302.0</ele><time>2026-04-28T09:19:30Z</time></trkpt><trkpt lat="28.992944463494897" lon="-10.053810982755536"><ele>302.0</ele><time>2026-04-28T09:19:31Z</time></trkpt><trkpt lat="28.99287939925372" lon="-10.05386663285527"><ele>302.0</ele><time>2026-04-28T09:19:32Z</time></trkpt><trkpt lat="28.992808687631616" lon="-10.053933111336393"><ele>302.0</ele><time>2026-04-28T09:19:33Z</time></trkpt><trkpt lat="28.99274546530292" lon="-10.054002130218306"><ele>302.0</ele><time>2026-04-28T09:19:34Z</time></trkpt><trkpt lat="28.99268864755553" lon="-10.054061646559239"><ele>302.0</ele><time>2026-04-28T09:19:35Z</time></trkpt><trkpt lat="28.992614902895387" lon="-10.054110029401727"><ele>302.8</ele><time>2026-04-28T09:19:36Z</time></trkpt><trkpt lat="28.99252926178885" lon="-10.054153061053558"><ele>303.6</ele><time>2026-04-28T09:19:37Z</time></trkpt><trkpt lat="28.992435296423498" lon="-10.05420158447011"><ele>304.40000000000003</ele><time>2026-04-28T09:19:38Z</time></trkpt><trkpt lat="28.992331643059263" lon="-10.054265391781158"><ele>305.2</ele><time>2026-04-28T09:19:39Z</time></trkpt><trkpt lat="28.99222797649592" lon="-10.054334514018143"><ele>306.0</ele><time>2026-04-28T09:19:40Z</time></trkpt><trkpt lat="28.992126555582885" lon="-10.054404074007973"><ele>306.0</ele><time>2026-04-28T09:19:41Z</time></trkpt><trkpt lat="28.99202341497553" lon="-10.054473873607161"><ele>306.0</ele><time>2026-04-28T09:19:42Z</time></trkpt><trkpt lat="28.991918580679712" lon="-10.054552614813826"><ele>306.0</ele><time>2026-04-28T09:19:43Z</time></trkpt><trkpt lat="28.99182286703756" lon="-10.054622704280906"><ele>306.0</ele><time>2026-04-28T09:19:44Z</time></trkpt><trkpt lat="28.991730894836643" lon="-10.054688479828872"><ele>305.25</ele><time>2026-04-28T09:19:45Z</time></trkpt><trkpt lat="28.991657235188732" lon="-10.054764476413384"><ele>304.5</ele><time>2026-04-28T09:19:46Z</time></trkpt><trkpt lat="28.991565890714764" lon="-10.054832635790165"><ele>303.75</ele><time>2026-04-28T09:19:47Z</time></trkpt><trkpt lat="28.991466282184795" lon="-10.054907319870669"><ele>303.0</ele><time>2026-04-28T09:19:48Z</time></trkpt><trkpt lat="28.991352608521158" lon="-10.054968670364522"><ele>303.0</ele><time>2026-04-28T09:19:49Z</time></trkpt><trkpt lat="28.991239751874733" lon="-10.055053461349047"><ele>303.0</ele><time>2026-04-28T09:19:50Z</time></trkpt><trkpt lat="28.99113268902024" lon="-10.055130577477566"><ele>303.0</ele><time>2026-04-28T09:19:51Z</time></trkpt><trkpt lat="28.991029158674102" lon="-10.055205876413789"><ele>303.0</ele><time>2026-04-28T09:19:52Z</time></trkpt><trkpt lat="28.990931253284337" lon="-10.055276372528516"><ele>303.25</ele><time>2026-04-28T09:19:53Z</time></trkpt><trkpt lat="28.990827166418374" lon="-10.055348909577567"><ele>303.5</ele><time>2026-04-28T09:19:54Z</time></trkpt><trkpt lat="28.99071924337931" lon="-10.055426096933845"><ele>303.75</ele><time>2026-04-28T09:19:55Z</time></trkpt><trkpt lat="28.990609646224" lon="-10.055506596593004"><ele>304.0</ele><time>2026-04-28T09:19:56Z</time></trkpt><trkpt lat="28.990504356830154" lon="-10.055584456406512"><ele>304.0</ele><time>2026-04-28T09:19:57Z</time></trkpt><trkpt lat="28.990402948350987" lon="-10.05566065725632"><ele>304.0</ele><time>2026-04-28T09:19:58Z</time></trkpt><trkpt lat="28.990306574324265" lon="-10.055732673471445"><ele>304.0</ele><time>2026-04-28T09:19:59Z</time></trkpt><trkpt lat="28.990211895519074" lon="-10.055801858011487"><ele>304.0</ele><time>2026-04-28T09:20:00Z</time></trkpt><trkpt lat="28.990123101865166" lon="-10.055869482202581"><ele>304.0</ele><time>2026-04-28T09:20:01Z</time></trkpt><trkpt lat="28.990041771618596" lon="-10.055931315624942"><ele>304.0</ele><time>2026-04-28T09:20:02Z</time></trkpt><trkpt lat="28.989964235424207" lon="-10.055986067292961"><ele>304.0</ele><time>2026-04-28T09:20:03Z</time></trkpt><trkpt lat="28.98989058239448" lon="-10.0560381627637"><ele>304.0</ele><time>2026-04-28T09:20:04Z</time></trkpt><trkpt lat="28.98982182520839" lon="-10.056087756300608"><ele>304.0</ele><time>2026-04-28T09:20:05Z</time></trkpt><trkpt lat="28.989756157024818" lon="-10.056134947409587"><ele>304.0</ele><time>2026-04-28T09:20:06Z</time></trkpt><trkpt lat="28.989687458108172" lon="-10.056184100427105"><ele>304.3333333333333</ele><time>2026-04-28T09:20:07Z</time></trkpt><trkpt lat="28.989610404027033" lon="-10.056240443163503"><ele>304.66666666666663</ele><time>2026-04-28T09:20:08Z</time></trkpt><trkpt lat="28.98953563542985" lon="-10.056290961022775"><ele>305.0</ele><time>2026-04-28T09:20:09Z</time></trkpt><trkpt lat="28.98946717343192" lon="-10.056337316197109"><ele>305.3333333333333</ele><time>2026-04-28T09:20:10Z</time></trkpt><trkpt lat="28.989399167084784" lon="-10.056384075904697"><ele>305.6666666666667</ele><time>2026-04-28T09:20:11Z</time></trkpt><trkpt lat="28.989327449880175" lon="-10.056435045882695"><ele>306.0</ele><time>2026-04-28T09:20:12Z</time></trkpt><trkpt lat="28.989252919289456" lon="-10.056491841136648"><ele>305.6</ele><time>2026-04-28T09:20:13Z</time></trkpt><trkpt lat="28.989173198224524" lon="-10.056548541931244"><ele>305.20000000000005</ele><time>2026-04-28T09:20:14Z</time></trkpt><trkpt lat="28.989098762994832" lon="-10.056600932100297"><ele>304.79999999999995</ele><time>2026-04-28T09:20:15Z</time></trkpt><trkpt lat="28.98902162996566" lon="-10.056653689627913"><ele>304.4</ele><time>2026-04-28T09:20:16Z</time></trkpt><trkpt lat="28.988943179859785" lon="-10.056709030762477"><ele>304.0</ele><time>2026-04-28T09:20:17Z</time></trkpt><trkpt lat="28.988862604088414" lon="-10.056769184483807"><ele>304.0</ele><time>2026-04-28T09:20:18Z</time></trkpt><trkpt lat="28.988787560621695" lon="-10.056826103058244"><ele>304.0</ele><time>2026-04-28T09:20:19Z</time></trkpt><trkpt lat="28.988719126764597" lon="-10.056881243896674"><ele>304.0</ele><time>2026-04-28T09:20:20Z</time></trkpt><trkpt lat="28.988656435505874" lon="-10.056932072304878"><ele>304.0</ele><time>2026-04-28T09:20:21Z</time></trkpt><trkpt lat="28.988592286448185" lon="-10.056982248199636"><ele>304.0</ele><time>2026-04-28T09:20:22Z</time></trkpt><trkpt lat="28.988530752218306" lon="-10.057033645242019"><ele>304.0</ele><time>2026-04-28T09:20:23Z</time></trkpt><trkpt lat="28.988474553679737" lon="-10.057084871450513"><ele>304.0</ele><time>2026-04-28T09:20:24Z</time></trkpt><trkpt lat="28.988417600298867" lon="-10.057145157805179"><ele>304.0</ele><time>2026-04-28T09:20:25Z</time></trkpt><trkpt lat="28.98836523136678" lon="-10.057205547316107"><ele>304.0</ele><time>2026-04-28T09:20:26Z</time></trkpt><trkpt lat="28.98831313649531" lon="-10.05725533916871"><ele>304.0</ele><time>2026-04-28T09:20:27Z</time></trkpt><trkpt lat="28.98821407611668" lon="-10.057353480710402"><ele>304.0</ele><time>2026-04-28T09:20:29Z</time></trkpt><trkpt lat="28.98815077634927" lon="-10.05732271830333"><ele>304.0</ele><time>2026-04-28T09:20:30Z</time></trkpt><trkpt lat="28.98806816259933" lon="-10.057365049603066"><ele>304.0</ele><time>2026-04-28T09:20:33Z</time></trkpt><trkpt lat="28.987976451260803" lon="-10.057446552668464"><ele>304.0</ele><time>2026-04-28T09:20:35Z</time></trkpt><trkpt lat="28.9879162323929" lon="-10.05748846810363"><ele>304.0</ele><time>2026-04-28T09:20:36Z</time></trkpt><trkpt lat="28.987814281560954" lon="-10.057551434114819"><ele>304.0</ele><time>2026-04-28T09:20:38Z</time></trkpt><trkpt lat="28.987731315054145" lon="-10.057597366960568"><ele>304.0</ele><time>2026-04-28T09:20:40Z</time></trkpt><trkpt lat="28.987657066440846" lon="-10.057599502476515"><ele>304.0</ele><time>2026-04-28T09:20:42Z</time></trkpt><trkpt lat="28.98769406799892" lon="-10.057534465177962"><ele>304.0</ele><time>2026-04-28T09:20:54Z</time></trkpt><trkpt lat="28.987614389967053" lon="-10.057474871084064"><ele>304.0</ele><time>2026-04-28T09:20:55Z</time></trkpt><trkpt lat="28.987576228819517" lon="-10.057417264185313"><ele>304.0</ele><time>2026-04-28T09:29:27Z</time></trkpt><trkpt lat="28.987488505472434" lon="-10.057383903476241"><ele>304.0</ele><time>2026-04-28T09:29:37Z</time></trkpt><trkpt lat="28.98735950616892" lon="-10.057354538346429"><ele>303.5</ele><time>2026-04-28T09:29:39Z</time></trkpt><trkpt lat="28.98728474589301" lon="-10.057365010795232"><ele>303.0</ele><time>2026-04-28T09:29:40Z</time></trkpt><trkpt lat="28.98722026371736" lon="-10.05738075666405"><ele>302.5</ele><time>2026-04-28T09:29:41Z</time></trkpt><trkpt lat="28.987156188729298" lon="-10.057381432633486"><ele>302.0</ele><time>2026-04-28T09:29:42Z</time></trkpt><trkpt lat="28.98709144180107" lon="-10.05738399750848"><ele>301.5</ele><time>2026-04-28T09:29:43Z</time></trkpt><trkpt lat="28.9869680811153" lon="-10.057397098348666"><ele>301.0</ele><time>2026-04-28T09:29:45Z</time></trkpt><trkpt lat="28.986825643516433" lon="-10.057411601627559"><ele>301.0</ele><time>2026-04-28T09:29:47Z</time></trkpt><trkpt lat="28.986741659360174" lon="-10.057429716313584"><ele>301.0</ele><time>2026-04-28T09:29:48Z</time></trkpt><trkpt lat="28.98667590828843" lon="-10.05745610958805"><ele>301.0</ele><time>2026-04-28T09:29:49Z</time></trkpt><trkpt lat="28.986572469394247" lon="-10.057498804893278"><ele>301.0</ele><time>2026-04-28T09:29:51Z</time></trkpt><trkpt lat="28.986516698562614" lon="-10.057541242795523"><ele>301.0</ele><time>2026-04-28T09:29:52Z</time></trkpt><trkpt lat="28.986475275192433" lon="-10.05760256876931"><ele>301.0</ele><time>2026-04-28T09:29:53Z</time></trkpt><trkpt lat="28.986462289454778" lon="-10.057676894354845"><ele>301.0</ele><time>2026-04-28T09:29:54Z</time></trkpt><trkpt lat="28.986507953336073" lon="-10.057811880818335"><ele>301.0</ele><time>2026-04-28T09:29:56Z</time></trkpt><trkpt lat="28.98654792486764" lon="-10.0578690803914"><ele>301.0</ele><time>2026-04-28T09:29:57Z</time></trkpt><trkpt lat="28.98659601104502" lon="-10.057929643857266"><ele>301.0</ele><time>2026-04-28T09:29:58Z</time></trkpt><trkpt lat="28.986647879444636" lon="-10.058000671087672"><ele>301.0</ele><time>2026-04-28T09:30:00Z</time></trkpt><trkpt lat="28.986700818287016" lon="-10.058070134756687"><ele>301.0</ele><time>2026-04-28T09:30:03Z</time></trkpt><trkpt lat="28.986738071309777" lon="-10.058142344226082"><ele>301.0</ele><time>2026-04-28T09:30:07Z</time></trkpt><trkpt lat="28.98683731624845" lon="-10.058254485254123"><ele>301.0</ele><time>2026-04-28T09:30:19Z</time></trkpt><trkpt lat="28.986881049503868" lon="-10.058319463776552"><ele>301.0</ele><time>2026-04-28T09:30:20Z</time></trkpt><trkpt lat="28.986933261891547" lon="-10.058402253184378"><ele>301.0</ele><time>2026-04-28T09:30:21Z</time></trkpt><trkpt lat="28.986993505585808" lon="-10.058495594224002"><ele>301.0</ele><time>2026-04-28T09:30:22Z</time></trkpt><trkpt lat="28.987056045512812" lon="-10.05859753632004"><ele>301.66666666666663</ele><time>2026-04-28T09:30:23Z</time></trkpt><trkpt lat="28.98710670897809" lon="-10.058677176037296"><ele>302.3333333333333</ele><time>2026-04-28T09:30:24Z</time></trkpt><trkpt lat="28.98714844359479" lon="-10.058748025982876"><ele>303.0</ele><time>2026-04-28T09:30:25Z</time></trkpt><trkpt lat="28.98719174267866" lon="-10.058821482706923"><ele>303.6666666666667</ele><time>2026-04-28T09:30:26Z</time></trkpt><trkpt lat="28.98724684457735" lon="-10.058920209428873"><ele>304.33333333333337</ele><time>2026-04-28T09:30:27Z</time></trkpt><trkpt lat="28.987309382963993" lon="-10.059013552379541"><ele>305.0</ele><time>2026-04-28T09:30:28Z</time></trkpt><trkpt lat="28.987367315178606" lon="-10.059107293172987"><ele>305.33333333333337</ele><time>2026-04-28T09:30:29Z</time></trkpt><trkpt lat="28.987425252409526" lon="-10.059203306993567"><ele>305.6666666666667</ele><time>2026-04-28T09:30:30Z</time></trkpt><trkpt lat="28.987476956577854" lon="-10.059294299050405"><ele>306.0</ele><time>2026-04-28T09:30:31Z</time></trkpt><trkpt lat="28.98752588583543" lon="-10.059370134363249"><ele>306.3333333333333</ele><time>2026-04-28T09:30:32Z</time></trkpt><trkpt lat="28.987569314831322" lon="-10.059442974760524"><ele>306.66666666666663</ele><time>2026-04-28T09:30:33Z</time></trkpt><trkpt lat="28.987612535239176" lon="-10.059516895466214"><ele>307.0</ele><time>2026-04-28T09:30:34Z</time></trkpt><trkpt lat="28.987670229510467" lon="-10.059609216271058"><ele>307.0</ele><time>2026-04-28T09:30:35Z</time></trkpt><trkpt lat="28.98773686793639" lon="-10.059709435134602"><ele>307.0</ele><time>2026-04-28T09:30:36Z</time></trkpt><trkpt lat="28.98779767104215" lon="-10.059808162051187"><ele>307.0</ele><time>2026-04-28T09:30:37Z</time></trkpt><trkpt lat="28.987859299179753" lon="-10.059915557503313"><ele>307.0</ele><time>2026-04-28T09:30:38Z</time></trkpt><trkpt lat="28.987925074751463" lon="-10.060021840778974"><ele>307.0</ele><time>2026-04-28T09:30:39Z</time></trkpt><trkpt lat="28.98799309805933" lon="-10.060133146094483"><ele>307.2</ele><time>2026-04-28T09:30:40Z</time></trkpt><trkpt lat="28.98806118277559" lon="-10.060243856743758"><ele>307.4</ele><time>2026-04-28T09:30:41Z</time></trkpt><trkpt lat="28.98812663410511" lon="-10.06034629604558"><ele>307.6</ele><time>2026-04-28T09:30:42Z</time></trkpt><trkpt lat="28.98818566384626" lon="-10.060446284072416"><ele>307.8</ele><time>2026-04-28T09:30:43Z</time></trkpt><trkpt lat="28.988241584357322" lon="-10.06053692358971"><ele>308.0</ele><time>2026-04-28T09:30:44Z</time></trkpt><trkpt lat="28.988292860522304" lon="-10.060623128161092"><ele>308.0</ele><time>2026-04-28T09:30:45Z</time></trkpt><trkpt lat="28.988337038602456" lon="-10.060700065594558"><ele>308.0</ele><time>2026-04-28T09:30:46Z</time></trkpt><trkpt lat="28.98837922739648" lon="-10.06077007374561"><ele>308.0</ele><time>2026-04-28T09:30:47Z</time></trkpt><trkpt lat="28.98841589106587" lon="-10.0608373283193"><ele>308.0</ele><time>2026-04-28T09:30:48Z</time></trkpt><trkpt lat="28.98845663630759" lon="-10.060895453717881"><ele>308.0</ele><time>2026-04-28T09:30:49Z</time></trkpt><trkpt lat="28.988500949358095" lon="-10.060968446601304"><ele>308.0</ele><time>2026-04-28T09:30:50Z</time></trkpt><trkpt lat="28.988548110654584" lon="-10.061051752668794"><ele>308.0</ele><time>2026-04-28T09:30:51Z</time></trkpt><trkpt lat="28.98859679746762" lon="-10.061134843928864"><ele>308.0</ele><time>2026-04-28T09:30:52Z</time></trkpt><trkpt lat="28.988647008080832" lon="-10.061223365714259"><ele>308.0</ele><time>2026-04-28T09:30:53Z</time></trkpt><trkpt lat="28.9886971906235" lon="-10.061318284242496"><ele>308.0</ele><time>2026-04-28T09:30:54Z</time></trkpt><trkpt lat="28.988755876965243" lon="-10.061416039416297"><ele>308.0</ele><time>2026-04-28T09:30:55Z</time></trkpt><trkpt lat="28.988813954073564" lon="-10.061510546271537"><ele>308.0</ele><time>2026-04-28T09:30:56Z</time></trkpt><trkpt lat="28.98886734715294" lon="-10.061598543716617"><ele>308.0</ele><time>2026-04-28T09:30:57Z</time></trkpt><trkpt lat="28.98891712915967" lon="-10.061686936737566"><ele>308.0</ele><time>2026-04-28T09:30:58Z</time></trkpt><trkpt lat="28.988966339882136" lon="-10.061772378961223"><ele>308.0</ele><time>2026-04-28T09:30:59Z</time></trkpt><trkpt lat="28.989012800383364" lon="-10.061851437886897"><ele>308.0</ele><time>2026-04-28T09:31:00Z</time></trkpt><trkpt lat="28.989060241779764" lon="-10.06193268175874"><ele>308.0</ele><time>2026-04-28T09:31:01Z</time></trkpt><trkpt lat="28.989117449339208" lon="-10.062010178230796"><ele>308.0</ele><time>2026-04-28T09:31:02Z</time></trkpt><trkpt lat="28.98915750788228" lon="-10.06209322353259"><ele>308.0</ele><time>2026-04-28T09:31:03Z</time></trkpt><trkpt lat="28.989210811384954" lon="-10.062168556070898"><ele>308.0</ele><time>2026-04-28T09:31:04Z</time></trkpt><trkpt lat="28.98926102413769" lon="-10.062258275132724"><ele>308.0</ele><time>2026-04-28T09:31:05Z</time></trkpt><trkpt lat="28.989307622207466" lon="-10.062340632625006"><ele>308.0</ele><time>2026-04-28T09:31:06Z</time></trkpt><trkpt lat="28.989350027817377" lon="-10.062416780560714"><ele>308.0</ele><time>2026-04-28T09:31:07Z</time></trkpt><trkpt lat="28.98939796292038" lon="-10.062498050542102"><ele>308.4</ele><time>2026-04-28T09:31:08Z</time></trkpt><trkpt lat="28.98944949453728" lon="-10.062584123176732"><ele>308.8</ele><time>2026-04-28T09:31:09Z</time></trkpt><trkpt lat="28.989499094527293" lon="-10.062661603316743"><ele>309.2</ele><time>2026-04-28T09:31:10Z</time></trkpt><trkpt lat="28.989554172660966" lon="-10.062757991475188"><ele>309.6</ele><time>2026-04-28T09:31:11Z</time></trkpt><trkpt lat="28.989611290069544" lon="-10.062857070522012"><ele>310.0</ele><time>2026-04-28T09:31:12Z</time></trkpt><trkpt lat="28.989671519107745" lon="-10.062955792482336"><ele>310.0</ele><time>2026-04-28T09:31:13Z</time></trkpt><trkpt lat="28.989730789368874" lon="-10.063057016571793"><ele>310.0</ele><time>2026-04-28T09:31:14Z</time></trkpt><trkpt lat="28.989793395695866" lon="-10.06315660517974"><ele>310.0</ele><time>2026-04-28T09:31:15Z</time></trkpt><trkpt lat="28.989850852213618" lon="-10.063256332174106"><ele>310.0</ele><time>2026-04-28T09:31:16Z</time></trkpt><trkpt lat="28.989909963639825" lon="-10.063354796784807"><ele>310.0</ele><time>2026-04-28T09:31:17Z</time></trkpt><trkpt lat="28.9899702377597" lon="-10.063456827781502"><ele>310.0</ele><time>2026-04-28T09:31:18Z</time></trkpt><trkpt lat="28.99003225585884" lon="-10.063561607919734"><ele>310.0</ele><time>2026-04-28T09:31:19Z</time></trkpt><trkpt lat="28.99010303474579" lon="-10.063670637155592"><ele>310.0</ele><time>2026-04-28T09:31:20Z</time></trkpt><trkpt lat="28.99017428048339" lon="-10.063785522926326"><ele>310.0</ele><time>2026-04-28T09:31:21Z</time></trkpt><trkpt lat="28.99024132739433" lon="-10.06389618524716"><ele>310.0</ele><time>2026-04-28T09:31:22Z</time></trkpt><trkpt lat="28.99030924446635" lon="-10.06400998780335"><ele>310.0</ele><time>2026-04-28T09:31:23Z</time></trkpt><trkpt lat="28.990376418694638" lon="-10.064118371231165"><ele>310.0</ele><time>2026-04-28T09:31:24Z</time></trkpt><trkpt lat="28.990437992804445" lon="-10.064212988676408"><ele>310.0</ele><time>2026-04-28T09:31:25Z</time></trkpt><trkpt lat="28.990494546193887" lon="-10.064305906467904"><ele>310.0</ele><time>2026-04-28T09:31:26Z</time></trkpt><trkpt lat="28.990547022999625" lon="-10.064390836005359"><ele>310.0</ele><time>2026-04-28T09:31:27Z</time></trkpt><trkpt lat="28.99060469023882" lon="-10.064483046330405"><ele>310.0</ele><time>2026-04-28T09:31:28Z</time></trkpt><trkpt lat="28.9906588921415" lon="-10.064570463068476"><ele>310.0</ele><time>2026-04-28T09:31:29Z</time></trkpt><trkpt lat="28.990710358689444" lon="-10.064647508162157"><ele>310.0</ele><time>2026-04-28T09:31:30Z</time></trkpt><trkpt lat="28.99075822889726" lon="-10.064720125664524"><ele>310.0</ele><time>2026-04-28T09:31:31Z</time></trkpt><trkpt lat="28.990816583743687" lon="-10.064793956142346"><ele>310.0</ele><time>2026-04-28T09:31:32Z</time></trkpt><trkpt lat="28.99087599184188" lon="-10.064885986285681"><ele>309.8</ele><time>2026-04-28T09:31:33Z</time></trkpt><trkpt lat="28.99093740717791" lon="-10.064994499831874"><ele>309.6</ele><time>2026-04-28T09:31:34Z</time></trkpt><trkpt lat="28.99099341354367" lon="-10.065097076396835"><ele>309.4</ele><time>2026-04-28T09:31:35Z</time></trkpt><trkpt lat="28.991052517826333" lon="-10.065201751023313"><ele>309.2</ele><time>2026-04-28T09:31:36Z</time></trkpt><trkpt lat="28.99110822867821" lon="-10.065293630193672"><ele>309.0</ele><time>2026-04-28T09:31:37Z</time></trkpt><trkpt lat="28.991162148719066" lon="-10.065388013914475"><ele>309.0</ele><time>2026-04-28T09:31:38Z</time></trkpt><trkpt lat="28.99122013587307" lon="-10.06548303516422"><ele>309.0</ele><time>2026-04-28T09:31:39Z</time></trkpt><trkpt lat="28.991278632776442" lon="-10.065580920995238"><ele>309.0</ele><time>2026-04-28T09:31:40Z</time></trkpt><trkpt lat="28.99133613841765" lon="-10.065666313669086"><ele>309.0</ele><time>2026-04-28T09:31:41Z</time></trkpt><trkpt lat="28.991394011172265" lon="-10.065763233263766"><ele>309.0</ele><time>2026-04-28T09:31:42Z</time></trkpt><trkpt lat="28.991447574145443" lon="-10.065852735627406"><ele>309.0</ele><time>2026-04-28T09:31:43Z</time></trkpt><trkpt lat="28.99150273855556" lon="-10.065945308465611"><ele>309.0</ele><time>2026-04-28T09:31:44Z</time></trkpt><trkpt lat="28.991557060623233" lon="-10.0660354350509"><ele>309.0</ele><time>2026-04-28T09:31:45Z</time></trkpt><trkpt lat="28.99160756550442" lon="-10.0661225768407"><ele>309.0</ele><time>2026-04-28T09:31:46Z</time></trkpt><trkpt lat="28.991662786784165" lon="-10.06621755763517"><ele>309.0</ele><time>2026-04-28T09:31:47Z</time></trkpt><trkpt lat="28.99172258217727" lon="-10.066312918645405"><ele>308.5</ele><time>2026-04-28T09:31:48Z</time></trkpt><trkpt lat="28.991772844477545" lon="-10.066398175631132"><ele>308.0</ele><time>2026-04-28T09:31:49Z</time></trkpt><trkpt lat="28.991822727239732" lon="-10.066475413649759"><ele>307.5</ele><time>2026-04-28T09:31:50Z</time></trkpt><trkpt lat="28.99187122507036" lon="-10.066555379966932"><ele>307.0</ele><time>2026-04-28T09:31:51Z</time></trkpt><trkpt lat="28.99192530078014" lon="-10.066639214377469"><ele>306.5</ele><time>2026-04-28T09:31:52Z</time></trkpt><trkpt lat="28.991982555929894" lon="-10.066728741957155"><ele>306.0</ele><time>2026-04-28T09:31:53Z</time></trkpt><trkpt lat="28.99204703805699" lon="-10.066831279020343"><ele>306.0</ele><time>2026-04-28T09:31:54Z</time></trkpt><trkpt lat="28.99211403384797" lon="-10.066939293948355"><ele>306.0</ele><time>2026-04-28T09:31:55Z</time></trkpt><trkpt lat="28.992187571045935" lon="-10.06706164613957"><ele>306.0</ele><time>2026-04-28T09:31:56Z</time></trkpt><trkpt lat="28.992258930253946" lon="-10.067179351151935"><ele>306.0</ele><time>2026-04-28T09:31:57Z</time></trkpt><trkpt lat="28.992326953458" lon="-10.067292564693865"><ele>306.0</ele><time>2026-04-28T09:31:58Z</time></trkpt><trkpt lat="28.99239568937687" lon="-10.067405356542467"><ele>306.0</ele><time>2026-04-28T09:31:59Z</time></trkpt><trkpt lat="28.992463307089345" lon="-10.067516168676937"><ele>306.0</ele><time>2026-04-28T09:32:00Z</time></trkpt><trkpt lat="28.992528517595588" lon="-10.067624692944376"><ele>306.0</ele><time>2026-04-28T09:32:01Z</time></trkpt><trkpt lat="28.992597120546044" lon="-10.067740708104925"><ele>305.5</ele><time>2026-04-28T09:32:02Z</time></trkpt><trkpt lat="28.99266692899468" lon="-10.06786005088414"><ele>305.0</ele><time>2026-04-28T09:32:03Z</time></trkpt><trkpt lat="28.99274127883254" lon="-10.06798399776141"><ele>304.5</ele><time>2026-04-28T09:32:04Z</time></trkpt><trkpt lat="28.99281332998021" lon="-10.068103466119586"><ele>304.0</ele><time>2026-04-28T09:32:05Z</time></trkpt><trkpt lat="28.992881302809163" lon="-10.068219204596943"><ele>304.0</ele><time>2026-04-28T09:32:06Z</time></trkpt><trkpt lat="28.99295156525454" lon="-10.068339322190647"><ele>304.0</ele><time>2026-04-28T09:32:07Z</time></trkpt><trkpt lat="28.99302008766722" lon="-10.068457447425237"><ele>304.0</ele><time>2026-04-28T09:32:08Z</time></trkpt><trkpt lat="28.993087758938948" lon="-10.068572407403776"><ele>304.0</ele><time>2026-04-28T09:32:09Z</time></trkpt><trkpt lat="28.993156424726987" lon="-10.068685957873257"><ele>304.0</ele><time>2026-04-28T09:32:10Z</time></trkpt><trkpt lat="28.993221979469183" lon="-10.068797749038083"><ele>304.0</ele><time>2026-04-28T09:32:11Z</time></trkpt><trkpt lat="28.993280539404648" lon="-10.068900804712868"><ele>304.0</ele><time>2026-04-28T09:32:12Z</time></trkpt><trkpt lat="28.99333151146325" lon="-10.068990840084284"><ele>304.0</ele><time>2026-04-28T09:32:13Z</time></trkpt><trkpt lat="28.993381103194167" lon="-10.069074888780563"><ele>304.0</ele><time>2026-04-28T09:32:14Z</time></trkpt><trkpt lat="28.993434819266984" lon="-10.069154770641296"><ele>303.0</ele><time>2026-04-28T09:32:15Z</time></trkpt><trkpt lat="28.993494515774373" lon="-10.069231073360607"><ele>302.0</ele><time>2026-04-28T09:32:16Z</time></trkpt><trkpt lat="28.99354212514826" lon="-10.069316981580679"><ele>301.0</ele><time>2026-04-28T09:32:17Z</time></trkpt><trkpt lat="28.993608942248905" lon="-10.069355185696223"><ele>300.0</ele><time>2026-04-28T09:32:18Z</time></trkpt><trkpt lat="28.993666819335367" lon="-10.06940526373272"><ele>299.0</ele><time>2026-04-28T09:32:19Z</time></trkpt><trkpt lat="28.993722501034256" lon="-10.06945085316728"><ele>298.0</ele><time>2026-04-28T09:32:20Z</time></trkpt><trkpt lat="28.99376582082726" lon="-10.069517629712873"><ele>298.0</ele><time>2026-04-28T09:32:21Z</time></trkpt><trkpt lat="28.99376936750792" lon="-10.069617877303747"><ele>298.0</ele><time>2026-04-28T09:32:22Z</time></trkpt><trkpt lat="28.993811182008276" lon="-10.069714130619287"><ele>298.0</ele><time>2026-04-28T09:32:23Z</time></trkpt><trkpt lat="28.993868175866684" lon="-10.069805860949051"><ele>298.0</ele><time>2026-04-28T09:32:24Z</time></trkpt><trkpt lat="28.99390733496268" lon="-10.069918135246803"><ele>298.0</ele><time>2026-04-28T09:32:25Z</time></trkpt><trkpt lat="28.99401104238543" lon="-10.070006233543273"><ele>298.0</ele><time>2026-04-28T09:32:26Z</time></trkpt><trkpt lat="28.99410231127589" lon="-10.070111700769942"><ele>298.0</ele><time>2026-04-28T09:32:27Z</time></trkpt><trkpt lat="28.99419975939171" lon="-10.070217968043783"><ele>298.0</ele><time>2026-04-28T09:32:28Z</time></trkpt><trkpt lat="28.994296001624875" lon="-10.070317649132727"><ele>298.0</ele><time>2026-04-28T09:32:29Z</time></trkpt><trkpt lat="28.994393781043872" lon="-10.070410955055191"><ele>298.0</ele><time>2026-04-28T09:32:30Z</time></trkpt><trkpt lat="28.994488915351955" lon="-10.070504729840728"><ele>298.0</ele><time>2026-04-28T09:32:31Z</time></trkpt><trkpt lat="28.994580337164365" lon="-10.070592768387701"><ele>298.0</ele><time>2026-04-28T09:32:32Z</time></trkpt><trkpt lat="28.99466303514654" lon="-10.070672001997982"><ele>298.0</ele><time>2026-04-28T09:32:33Z</time></trkpt><trkpt lat="28.99474099629979" lon="-10.070745429144901"><ele>298.2</ele><time>2026-04-28T09:32:34Z</time></trkpt><trkpt lat="28.99481434111127" lon="-10.070810051166742"><ele>298.4</ele><time>2026-04-28T09:32:35Z</time></trkpt><trkpt lat="28.99489093230862" lon="-10.070880452045866"><ele>298.59999999999997</ele><time>2026-04-28T09:32:36Z</time></trkpt><trkpt lat="28.994967872839915" lon="-10.070952519731149"><ele>298.8</ele><time>2026-04-28T09:32:37Z</time></trkpt><trkpt lat="28.995050828984272" lon="-10.071029234259457"><ele>299.0</ele><time>2026-04-28T09:32:38Z</time></trkpt><trkpt lat="28.99513080713924" lon="-10.071108719202547"><ele>299.0</ele><time>2026-04-28T09:32:39Z</time></trkpt><trkpt lat="28.995212053274127" lon="-10.071188370991889"><ele>299.0</ele><time>2026-04-28T09:32:40Z</time></trkpt><trkpt lat="28.995293518339224" lon="-10.071266897741998"><ele>299.0</ele><time>2026-04-28T09:32:41Z</time></trkpt><trkpt lat="28.9953747317206" lon="-10.071345799345954"><ele>299.0</ele><time>2026-04-28T09:32:42Z</time></trkpt><trkpt lat="28.995455135945154" lon="-10.071427655615953"><ele>299.0</ele><time>2026-04-28T09:32:43Z</time></trkpt><trkpt lat="28.99553660292125" lon="-10.071510442524824"><ele>299.0</ele><time>2026-04-28T09:32:44Z</time></trkpt><trkpt lat="28.995617772493592" lon="-10.071586913502568"><ele>299.0</ele><time>2026-04-28T09:32:45Z</time></trkpt><trkpt lat="28.99569979964537" lon="-10.071660206542226"><ele>299.0</ele><time>2026-04-28T09:32:46Z</time></trkpt><trkpt lat="28.995781661341187" lon="-10.071733402389247"><ele>299.0</ele><time>2026-04-28T09:32:47Z</time></trkpt><trkpt lat="28.995863507411876" lon="-10.071805132429661"><ele>299.0</ele><time>2026-04-28T09:32:48Z</time></trkpt><trkpt lat="28.99594418497479" lon="-10.071872992892777"><ele>299.59999999999997</ele><time>2026-04-28T09:32:49Z</time></trkpt><trkpt lat="28.996027652512705" lon="-10.071942059982732"><ele>300.2</ele><time>2026-04-28T09:32:50Z</time></trkpt><trkpt lat="28.99611476383993" lon="-10.07201099689807"><ele>300.79999999999995</ele><time>2026-04-28T09:32:51Z</time></trkpt><trkpt lat="28.996198297507096" lon="-10.072072192143704"><ele>301.4</ele><time>2026-04-28T09:32:52Z</time></trkpt><trkpt lat="28.996286650199387" lon="-10.072127733627838"><ele>302.0</ele><time>2026-04-28T09:32:53Z</time></trkpt><trkpt lat="28.996377813806664" lon="-10.072181295280533"><ele>302.0</ele><time>2026-04-28T09:32:54Z</time></trkpt><trkpt lat="28.996458986228316" lon="-10.07222652198075"><ele>302.0</ele><time>2026-04-28T09:32:55Z</time></trkpt><trkpt lat="28.996538434979893" lon="-10.072266069533969"><ele>302.0</ele><time>2026-04-28T09:32:56Z</time></trkpt><trkpt lat="28.99663311915904" lon="-10.072301291554295"><ele>302.0</ele><time>2026-04-28T09:32:57Z</time></trkpt><trkpt lat="28.996739576710976" lon="-10.072330849744164"><ele>302.0</ele><time>2026-04-28T09:32:58Z</time></trkpt><trkpt lat="28.99684307232614" lon="-10.07236187675309"><ele>301.6</ele><time>2026-04-28T09:32:59Z</time></trkpt><trkpt lat="28.996943474730262" lon="-10.072391617386348"><ele>301.2</ele><time>2026-04-28T09:33:00Z</time></trkpt><trkpt lat="28.997048633776807" lon="-10.072419503969284"><ele>300.8</ele><time>2026-04-28T09:33:01Z</time></trkpt><trkpt lat="28.99715887159181" lon="-10.072444756550818"><ele>300.4</ele><time>2026-04-28T09:33:02Z</time></trkpt><trkpt lat="28.9972686953656" lon="-10.072471819841839"><ele>300.0</ele><time>2026-04-28T09:33:03Z</time></trkpt><trkpt lat="28.997391165948653" lon="-10.072499626731712"><ele>299.25</ele><time>2026-04-28T09:33:04Z</time></trkpt><trkpt lat="28.997521357032685" lon="-10.072530869764288"><ele>298.5</ele><time>2026-04-28T09:33:05Z</time></trkpt><trkpt lat="28.997660839624107" lon="-10.072559734352621"><ele>297.75</ele><time>2026-04-28T09:33:06Z</time></trkpt><trkpt lat="28.997797062744304" lon="-10.072588869957922"><ele>297.0</ele><time>2026-04-28T09:33:07Z</time></trkpt><trkpt lat="28.997931931552337" lon="-10.072618983020485"><ele>297.0</ele><time>2026-04-28T09:33:08Z</time></trkpt><trkpt lat="28.998070684667667" lon="-10.072649517235762"><ele>297.0</ele><time>2026-04-28T09:33:09Z</time></trkpt><trkpt lat="28.998209851922795" lon="-10.072680575231777"><ele>297.0</ele><time>2026-04-28T09:33:10Z</time></trkpt><trkpt lat="28.998345700786622" lon="-10.072713074861543"><ele>297.0</ele><time>2026-04-28T09:33:11Z</time></trkpt><trkpt lat="28.99848669479204" lon="-10.07274986541162"><ele>298.25</ele><time>2026-04-28T09:33:12Z</time></trkpt><trkpt lat="28.998620144181327" lon="-10.072780292541667"><ele>299.5</ele><time>2026-04-28T09:33:13Z</time></trkpt><trkpt lat="28.9987548683267" lon="-10.072808514024246"><ele>300.75</ele><time>2026-04-28T09:33:14Z</time></trkpt><trkpt lat="28.998885865834673" lon="-10.072836307374647"><ele>302.0</ele><time>2026-04-28T09:33:15Z</time></trkpt><trkpt lat="28.999012222898013" lon="-10.07286383677559"><ele>302.0</ele><time>2026-04-28T09:33:16Z</time></trkpt><trkpt lat="28.99912797699421" lon="-10.072886654531136"><ele>302.0</ele><time>2026-04-28T09:33:17Z</time></trkpt><trkpt lat="28.999252626558505" lon="-10.072910844754672"><ele>302.0</ele><time>2026-04-28T09:33:18Z</time></trkpt><trkpt lat="28.99938488226691" lon="-10.0729357248857"><ele>302.0</ele><time>2026-04-28T09:33:19Z</time></trkpt><trkpt lat="28.999519887556165" lon="-10.072969757092066"><ele>301.75</ele><time>2026-04-28T09:33:20Z</time></trkpt><trkpt lat="28.999658895521502" lon="-10.07300459046314"><ele>301.5</ele><time>2026-04-28T09:33:21Z</time></trkpt><trkpt lat="28.99980343102509" lon="-10.073022464435788"><ele>301.25</ele><time>2026-04-28T09:33:22Z</time></trkpt><trkpt lat="28.999952935822325" lon="-10.073058272915722"><ele>301.0</ele><time>2026-04-28T09:33:23Z</time></trkpt><trkpt lat="29.0001055793726" lon="-10.073094998692033"><ele>301.0</ele><time>2026-04-28T09:33:24Z</time></trkpt><trkpt lat="29.00025777086684" lon="-10.073131579658812"><ele>301.0</ele><time>2026-04-28T09:33:25Z</time></trkpt><trkpt lat="29.000406795470305" lon="-10.073167399431211"><ele>301.0</ele><time>2026-04-28T09:33:26Z</time></trkpt><trkpt lat="29.00054562052323" lon="-10.07321630557629"><ele>301.0</ele><time>2026-04-28T09:33:27Z</time></trkpt><trkpt lat="29.000675380708387" lon="-10.073244815658985"><ele>301.0</ele><time>2026-04-28T09:33:28Z</time></trkpt><trkpt lat="29.000795111168607" lon="-10.073270397235335"><ele>301.0</ele><time>2026-04-28T09:33:29Z</time></trkpt><trkpt lat="29.000901076402084" lon="-10.073288472669939"><ele>301.0</ele><time>2026-04-28T09:33:30Z</time></trkpt><trkpt lat="29.00100134870663" lon="-10.073291305346192"><ele>301.0</ele><time>2026-04-28T09:33:31Z</time></trkpt><trkpt lat="29.001092331850128" lon="-10.073277176122827"><ele>301.0</ele><time>2026-04-28T09:33:32Z</time></trkpt><trkpt lat="29.001170730506768" lon="-10.073256126392096"><ele>301.0</ele><time>2026-04-28T09:33:33Z</time></trkpt><trkpt lat="29.00123959422182" lon="-10.073247393363491"><ele>301.0</ele><time>2026-04-28T09:33:34Z</time></trkpt><trkpt lat="29.00134496487552" lon="-10.07329975317439"><ele>301.0</ele><time>2026-04-28T09:33:36Z</time></trkpt><trkpt lat="29.001376018031497" lon="-10.073364156632975"><ele>301.0</ele><time>2026-04-28T09:33:37Z</time></trkpt><trkpt lat="29.001358864371856" lon="-10.073534211259801"><ele>300.5</ele><time>2026-04-28T09:33:39Z</time></trkpt><trkpt lat="29.00130704347878" lon="-10.073631926710162"><ele>300.0</ele><time>2026-04-28T09:33:40Z</time></trkpt><trkpt lat="29.001254141264305" lon="-10.073743708815288"><ele>299.5</ele><time>2026-04-28T09:33:41Z</time></trkpt><trkpt lat="29.00121309274137" lon="-10.073879422999534"><ele>299.0</ele><time>2026-04-28T09:33:42Z</time></trkpt><trkpt lat="29.001157243955838" lon="-10.074031922235513"><ele>297.6666666666667</ele><time>2026-04-28T09:33:43Z</time></trkpt><trkpt lat="29.00110754081593" lon="-10.074205247038686"><ele>296.3333333333333</ele><time>2026-04-28T09:33:44Z</time></trkpt><trkpt lat="29.00111534511198" lon="-10.07440167107714"><ele>295.0</ele><time>2026-04-28T09:33:45Z</time></trkpt><trkpt lat="29.001083724319006" lon="-10.07459156457576"><ele>295.0</ele><time>2026-04-28T09:33:46Z</time></trkpt><trkpt lat="29.001050736745054" lon="-10.074797319093578"><ele>295.0</ele><time>2026-04-28T09:33:47Z</time></trkpt><trkpt lat="29.001015764089793" lon="-10.075008914084803"><ele>295.0</ele><time>2026-04-28T09:33:48Z</time></trkpt><trkpt lat="29.00098246235999" lon="-10.075212188494824"><ele>295.3333333333333</ele><time>2026-04-28T09:33:49Z</time></trkpt><trkpt lat="29.000948034935295" lon="-10.075419756824857"><ele>295.6666666666667</ele><time>2026-04-28T09:33:50Z</time></trkpt><trkpt lat="29.00091415880756" lon="-10.075622104734537"><ele>296.0</ele><time>2026-04-28T09:33:51Z</time></trkpt><trkpt lat="29.000881491318285" lon="-10.075820906529376"><ele>296.0</ele><time>2026-04-28T09:33:52Z</time></trkpt><trkpt lat="29.00084997093766" lon="-10.076021389102461"><ele>296.0</ele><time>2026-04-28T09:33:53Z</time></trkpt><trkpt lat="29.00081836542116" lon="-10.076223078573898"><ele>296.0</ele><time>2026-04-28T09:33:54Z</time></trkpt><trkpt lat="29.000787541108053" lon="-10.076423878610775"><ele>297.0</ele><time>2026-04-28T09:33:55Z</time></trkpt><trkpt lat="29.00075551366132" lon="-10.076625642262716"><ele>298.0</ele><time>2026-04-28T09:33:56Z</time></trkpt><trkpt lat="29.000722140378844" lon="-10.076825218365842"><ele>299.0</ele><time>2026-04-28T09:33:57Z</time></trkpt><trkpt lat="29.000689605029823" lon="-10.077022616720226"><ele>299.0</ele><time>2026-04-28T09:33:58Z</time></trkpt><trkpt lat="29.00065984082351" lon="-10.077207489346119"><ele>299.0</ele><time>2026-04-28T09:33:59Z</time></trkpt><trkpt lat="29.00063362332371" lon="-10.077384053821431"><ele>299.0</ele><time>2026-04-28T09:34:00Z</time></trkpt><trkpt lat="29.00060665707936" lon="-10.077550106511179"><ele>298.75</ele><time>2026-04-28T09:34:01Z</time></trkpt><trkpt lat="29.000581526654607" lon="-10.077712274119902"><ele>298.5</ele><time>2026-04-28T09:34:02Z</time></trkpt><trkpt lat="29.000553288723136" lon="-10.077879423027557"><ele>298.25</ele><time>2026-04-28T09:34:03Z</time></trkpt><trkpt lat="29.000528015814574" lon="-10.078050087348792"><ele>298.0</ele><time>2026-04-28T09:34:04Z</time></trkpt><trkpt lat="29.00050384921609" lon="-10.078225551008458"><ele>298.0</ele><time>2026-04-28T09:34:05Z</time></trkpt><trkpt lat="29.00048275145713" lon="-10.078408212994926"><ele>298.0</ele><time>2026-04-28T09:34:06Z</time></trkpt><trkpt lat="29.00045859921836" lon="-10.078599329723817"><ele>298.0</ele><time>2026-04-28T09:34:07Z</time></trkpt><trkpt lat="29.00042858492855" lon="-10.078797000476557"><ele>298.0</ele><time>2026-04-28T09:34:08Z</time></trkpt><trkpt lat="29.000394304452804" lon="-10.07900740669261"><ele>298.0</ele><time>2026-04-28T09:34:09Z</time></trkpt><trkpt lat="29.000360164174154" lon="-10.079226714430444"><ele>298.0</ele><time>2026-04-28T09:34:10Z</time></trkpt><trkpt lat="29.000326346781844" lon="-10.079452558598364"><ele>297.66666666666663</ele><time>2026-04-28T09:34:11Z</time></trkpt><trkpt lat="29.000291510209056" lon="-10.07968826160644"><ele>297.3333333333333</ele><time>2026-04-28T09:34:12Z</time></trkpt><trkpt lat="29.00025630456272" lon="-10.07992865037852"><ele>297.0</ele><time>2026-04-28T09:34:13Z</time></trkpt><trkpt lat="29.00022042479752" lon="-10.080173078990251"><ele>297.0</ele><time>2026-04-28T09:34:14Z</time></trkpt><trkpt lat="29.00018576651468" lon="-10.080416762046879"><ele>297.0</ele><time>2026-04-28T09:34:15Z</time></trkpt><trkpt lat="29.000152584822697" lon="-10.080655982320097"><ele>297.0</ele><time>2026-04-28T09:34:16Z</time></trkpt><trkpt lat="29.000118530534717" lon="-10.08088905140931"><ele>296.6666666666667</ele><time>2026-04-28T09:34:17Z</time></trkpt><trkpt lat="29.00008409763265" lon="-10.0811146983114"><ele>296.33333333333337</ele><time>2026-04-28T09:34:18Z</time></trkpt><trkpt lat="29.000050673847" lon="-10.081335010464821"><ele>296.0</ele><time>2026-04-28T09:34:19Z</time></trkpt><trkpt lat="29.000019586898684" lon="-10.08155395795992"><ele>295.0</ele><time>2026-04-28T09:34:20Z</time></trkpt><trkpt lat="28.999988435196475" lon="-10.081777203553644"><ele>294.0</ele><time>2026-04-28T09:34:21Z</time></trkpt><trkpt lat="28.999957513707663" lon="-10.082004219893793"><ele>293.0</ele><time>2026-04-28T09:34:22Z</time></trkpt><trkpt lat="28.99992178998251" lon="-10.08223455270027"><ele>293.33333333333337</ele><time>2026-04-28T09:34:23Z</time></trkpt><trkpt lat="28.99988789340479" lon="-10.082465716749248"><ele>293.6666666666667</ele><time>2026-04-28T09:34:24Z</time></trkpt><trkpt lat="28.999852323371048" lon="-10.0826965550975"><ele>294.0</ele><time>2026-04-28T09:34:25Z</time></trkpt><trkpt lat="28.9998151016382" lon="-10.082927126868409"><ele>294.0</ele><time>2026-04-28T09:34:26Z</time></trkpt><trkpt lat="28.999779219610737" lon="-10.083159295435227"><ele>294.0</ele><time>2026-04-28T09:34:27Z</time></trkpt><trkpt lat="28.999746011058615" lon="-10.083390614369318"><ele>294.0</ele><time>2026-04-28T09:34:28Z</time></trkpt><trkpt lat="28.999712805217808" lon="-10.083621921015716"><ele>294.0</ele><time>2026-04-28T09:34:29Z</time></trkpt><trkpt lat="28.999678652596117" lon="-10.083854127690746"><ele>294.0</ele><time>2026-04-28T09:34:30Z</time></trkpt><trkpt lat="28.999648122312134" lon="-10.084073878835554"><ele>294.0</ele><time>2026-04-28T09:34:31Z</time></trkpt><trkpt lat="28.999618207510157" lon="-10.084293221227984"><ele>294.0</ele><time>2026-04-28T09:34:32Z</time></trkpt><trkpt lat="28.99958579929405" lon="-10.084521189461219"><ele>294.0</ele><time>2026-04-28T09:34:33Z</time></trkpt><trkpt lat="28.99955406140692" lon="-10.084746527717149"><ele>294.0</ele><time>2026-04-28T09:34:34Z</time></trkpt><trkpt lat="28.999523156651833" lon="-10.084968759915636"><ele>294.0</ele><time>2026-04-28T09:34:35Z</time></trkpt><trkpt lat="28.999490303942416" lon="-10.085191428158184"><ele>294.0</ele><time>2026-04-28T09:34:36Z</time></trkpt><trkpt lat="28.99945472601672" lon="-10.085410740557318"><ele>294.0</ele><time>2026-04-28T09:34:37Z</time></trkpt><trkpt lat="28.999420638404178" lon="-10.085623040633719"><ele>294.3333333333333</ele><time>2026-04-28T09:34:38Z</time></trkpt><trkpt lat="28.999388098933565" lon="-10.085836716544664"><ele>294.66666666666663</ele><time>2026-04-28T09:34:39Z</time></trkpt><trkpt lat="28.999357056344518" lon="-10.086051714457694"><ele>295.0</ele><time>2026-04-28T09:34:40Z</time></trkpt><trkpt lat="28.99932615578086" lon="-10.086272803020163"><ele>295.0</ele><time>2026-04-28T09:34:41Z</time></trkpt><trkpt lat="28.99929509200598" lon="-10.086493332762343"><ele>295.0</ele><time>2026-04-28T09:34:42Z</time></trkpt><trkpt lat="28.999263963163923" lon="-10.08671104203131"><ele>295.0</ele><time>2026-04-28T09:34:43Z</time></trkpt><trkpt lat="28.99923337216788" lon="-10.086926110104557"><ele>295.0</ele><time>2026-04-28T09:34:44Z</time></trkpt><trkpt lat="28.999203257537154" lon="-10.087139361628513"><ele>295.0</ele><time>2026-04-28T09:34:45Z</time></trkpt><trkpt lat="28.999174172432863" lon="-10.087354501101109"><ele>295.0</ele><time>2026-04-28T09:34:46Z</time></trkpt><trkpt lat="28.999142380764603" lon="-10.087570352479284"><ele>295.66666666666663</ele><time>2026-04-28T09:34:47Z</time></trkpt><trkpt lat="28.999110697160496" lon="-10.087784165816153"><ele>296.3333333333333</ele><time>2026-04-28T09:34:48Z</time></trkpt><trkpt lat="28.99907905715306" lon="-10.087998546191423"><ele>297.0</ele><time>2026-04-28T09:34:49Z</time></trkpt><trkpt lat="28.999047413584822" lon="-10.088213952718139"><ele>297.6666666666667</ele><time>2026-04-28T09:34:50Z</time></trkpt><trkpt lat="28.999014331256827" lon="-10.088430937759613"><ele>298.33333333333337</ele><time>2026-04-28T09:34:51Z</time></trkpt><trkpt lat="28.998982463789925" lon="-10.088650250370954"><ele>299.0</ele><time>2026-04-28T09:34:52Z</time></trkpt><trkpt lat="28.99895028524307" lon="-10.088869814377649"><ele>299.0</ele><time>2026-04-28T09:34:53Z</time></trkpt><trkpt lat="28.99891587684038" lon="-10.089089912305274"><ele>299.0</ele><time>2026-04-28T09:34:54Z</time></trkpt><trkpt lat="28.99888182495823" lon="-10.08931036152416"><ele>299.0</ele><time>2026-04-28T09:34:55Z</time></trkpt><trkpt lat="28.99884861877005" lon="-10.089532563579857"><ele>298.0</ele><time>2026-04-28T09:34:56Z</time></trkpt><trkpt lat="28.99881617294538" lon="-10.089757128895208"><ele>297.0</ele><time>2026-04-28T09:34:57Z</time></trkpt><trkpt lat="28.9987865807413" lon="-10.089985145889163"><ele>296.0</ele><time>2026-04-28T09:34:58Z</time></trkpt><trkpt lat="28.998756495394606" lon="-10.09021503608651"><ele>293.6666666666667</ele><time>2026-04-28T09:34:59Z</time></trkpt><trkpt lat="28.99872567281391" lon="-10.09044800857602"><ele>291.3333333333333</ele><time>2026-04-28T09:35:00Z</time></trkpt><trkpt lat="28.99869574972497" lon="-10.090685933812113"><ele>289.0</ele><time>2026-04-28T09:35:01Z</time></trkpt><trkpt lat="28.998668144371468" lon="-10.090925509192479"><ele>288.0</ele><time>2026-04-28T09:35:02Z</time></trkpt><trkpt lat="28.99864868443163" lon="-10.091167260471336"><ele>287.0</ele><time>2026-04-28T09:35:03Z</time></trkpt><trkpt lat="28.998638156995504" lon="-10.091412181413832"><ele>286.0</ele><time>2026-04-28T09:35:04Z</time></trkpt><trkpt lat="28.998640711453564" lon="-10.091659089451525"><ele>285.3333333333333</ele><time>2026-04-28T09:35:05Z</time></trkpt><trkpt lat="28.998655766885296" lon="-10.091904876546167"><ele>284.6666666666667</ele><time>2026-04-28T09:35:06Z</time></trkpt><trkpt lat="28.998684740182682" lon="-10.09214990187154"><ele>284.0</ele><time>2026-04-28T09:35:07Z</time></trkpt><trkpt lat="28.998727340404425" lon="-10.092392590300806"><ele>283.33333333333337</ele><time>2026-04-28T09:35:08Z</time></trkpt><trkpt lat="28.998783018106167" lon="-10.092633550745346"><ele>282.6666666666667</ele><time>2026-04-28T09:35:09Z</time></trkpt><trkpt lat="28.998849960062547" lon="-10.092871211706138"><ele>282.0</ele><time>2026-04-28T09:35:10Z</time></trkpt><trkpt lat="28.998923773262298" lon="-10.09310354239286"><ele>282.0</ele><time>2026-04-28T09:35:11Z</time></trkpt><trkpt lat="28.998999886865022" lon="-10.09333305887785"><ele>282.0</ele><time>2026-04-28T09:35:12Z</time></trkpt><trkpt lat="28.99907317846" lon="-10.09356151021582"><ele>282.0</ele><time>2026-04-28T09:35:13Z</time></trkpt><trkpt lat="28.999144814286545" lon="-10.093790062426717"><ele>281.6666666666667</ele><time>2026-04-28T09:35:14Z</time></trkpt><trkpt lat="28.999218654366405" lon="-10.094018530944226"><ele>281.33333333333337</ele><time>2026-04-28T09:35:15Z</time></trkpt><trkpt lat="28.99929481124894" lon="-10.0942505403674"><ele>281.0</ele><time>2026-04-28T09:35:16Z</time></trkpt><trkpt lat="28.999372611095964" lon="-10.094483983049718"><ele>281.0</ele><time>2026-04-28T09:35:17Z</time></trkpt><trkpt lat="28.999451746540775" lon="-10.094719786967605"><ele>281.0</ele><time>2026-04-28T09:35:18Z</time></trkpt><trkpt lat="28.99953107380622" lon="-10.094958276790086"><ele>281.0</ele><time>2026-04-28T09:35:19Z</time></trkpt><trkpt lat="28.999610587302953" lon="-10.09519943082004"><ele>280.0</ele><time>2026-04-28T09:35:20Z</time></trkpt><trkpt lat="28.999694167150025" lon="-10.095444039122189"><ele>279.0</ele><time>2026-04-28T09:35:21Z</time></trkpt><trkpt lat="28.999776057873316" lon="-10.095692452767885"><ele>278.5</ele><time>2026-04-28T09:35:22Z</time></trkpt><trkpt lat="28.99985690989176" lon="-10.09593871115926"><ele>278.0</ele><time>2026-04-28T09:35:23Z</time></trkpt><trkpt lat="28.99993624779081" lon="-10.09618499616398"><ele>278.0</ele><time>2026-04-28T09:35:24Z</time></trkpt><trkpt lat="29.000017315273" lon="-10.096430692219297"><ele>278.0</ele><time>2026-04-28T09:35:25Z</time></trkpt><trkpt lat="29.00010052269512" lon="-10.096675987892725"><ele>278.5</ele><time>2026-04-28T09:35:26Z</time></trkpt><trkpt lat="29.00018285250873" lon="-10.096920915350582"><ele>279.0</ele><time>2026-04-28T09:35:27Z</time></trkpt><trkpt lat="29.000262550939386" lon="-10.097164516172953"><ele>279.0</ele><time>2026-04-28T09:35:28Z</time></trkpt><trkpt lat="29.000343184839362" lon="-10.097411423417308"><ele>279.0</ele><time>2026-04-28T09:35:29Z</time></trkpt><trkpt lat="29.000423920307856" lon="-10.097661333405648"><ele>278.0</ele><time>2026-04-28T09:35:30Z</time></trkpt><trkpt lat="29.000505275389482" lon="-10.097911744100559"><ele>277.0</ele><time>2026-04-28T09:35:31Z</time></trkpt><trkpt lat="29.00058649901331" lon="-10.098162939357655"><ele>278.0</ele><time>2026-04-28T09:35:32Z</time></trkpt><trkpt lat="29.000668393481696" lon="-10.098415971621142"><ele>279.0</ele><time>2026-04-28T09:35:33Z</time></trkpt><trkpt lat="29.000752281453746" lon="-10.098668050863225"><ele>278.5</ele><time>2026-04-28T09:35:34Z</time></trkpt><trkpt lat="29.00083533989808" lon="-10.098919027722156"><ele>278.0</ele><time>2026-04-28T09:35:35Z</time></trkpt><trkpt lat="29.000919915376052" lon="-10.099171899953173"><ele>278.0</ele><time>2026-04-28T09:35:36Z</time></trkpt><trkpt lat="29.001003633433303" lon="-10.099422087359608"><ele>278.0</ele><time>2026-04-28T09:35:37Z</time></trkpt><trkpt lat="29.001086674585988" lon="-10.09967129088441"><ele>277.5</ele><time>2026-04-28T09:35:38Z</time></trkpt><trkpt lat="29.00116966850372" lon="-10.099922234812022"><ele>277.0</ele><time>2026-04-28T09:35:39Z</time></trkpt><trkpt lat="29.001252053034722" lon="-10.10017483538865"><ele>277.0</ele><time>2026-04-28T09:35:40Z</time></trkpt><trkpt lat="29.00133426709837" lon="-10.10042612222255"><ele>277.0</ele><time>2026-04-28T09:35:41Z</time></trkpt><trkpt lat="29.00141658074957" lon="-10.10067733956414"><ele>276.5</ele><time>2026-04-28T09:35:42Z</time></trkpt><trkpt lat="29.001497352815033" lon="-10.100930411698567"><ele>276.0</ele><time>2026-04-28T09:35:43Z</time></trkpt><trkpt lat="29.001578317575035" lon="-10.101181494939436"><ele>276.0</ele><time>2026-04-28T09:35:44Z</time></trkpt><trkpt lat="29.001661507760478" lon="-10.101432421197336"><ele>276.0</ele><time>2026-04-28T09:35:45Z</time></trkpt><trkpt lat="29.001744697282955" lon="-10.101686503238394"><ele>276.0</ele><time>2026-04-28T09:35:46Z</time></trkpt><trkpt lat="29.00182813444213" lon="-10.101941536932129"><ele>276.0</ele><time>2026-04-28T09:35:47Z</time></trkpt><trkpt lat="29.001910951692384" lon="-10.102197835247312"><ele>275.0</ele><time>2026-04-28T09:35:48Z</time></trkpt><trkpt lat="29.001993383872133" lon="-10.102454585735659"><ele>274.0</ele><time>2026-04-28T09:35:49Z</time></trkpt><trkpt lat="29.00207599245036" lon="-10.102713425162749"><ele>274.0</ele><time>2026-04-28T09:35:50Z</time></trkpt><trkpt lat="29.002160918748583" lon="-10.102973937346611"><ele>274.0</ele><time>2026-04-28T09:35:51Z</time></trkpt><trkpt lat="29.00224879765489" lon="-10.103234748727541"><ele>274.0</ele><time>2026-04-28T09:35:52Z</time></trkpt><trkpt lat="29.002337076474987" lon="-10.10349804062151"><ele>274.0</ele><time>2026-04-28T09:35:53Z</time></trkpt><trkpt lat="29.002423504658005" lon="-10.103764266698215"><ele>273.5</ele><time>2026-04-28T09:35:54Z</time></trkpt><trkpt lat="29.00250732659744" lon="-10.10403198756614"><ele>273.0</ele><time>2026-04-28T09:35:55Z</time></trkpt><trkpt lat="29.0025924435492" lon="-10.104300543884325"><ele>272.0</ele><time>2026-04-28T09:35:56Z</time></trkpt><trkpt lat="29.00268072696775" lon="-10.104570079617254"><ele>271.0</ele><time>2026-04-28T09:35:57Z</time></trkpt><trkpt lat="29.002770214706203" lon="-10.104837833971635"><ele>270.0</ele><time>2026-04-28T09:35:58Z</time></trkpt><trkpt lat="29.002860153307356" lon="-10.105107724310926"><ele>269.0</ele><time>2026-04-28T09:35:59Z</time></trkpt><trkpt lat="29.002950964631417" lon="-10.10537719662054"><ele>269.0</ele><time>2026-04-28T09:36:00Z</time></trkpt><trkpt lat="29.003041915973977" lon="-10.105647240644313"><ele>269.0</ele><time>2026-04-28T09:36:01Z</time></trkpt><trkpt lat="29.00313423509207" lon="-10.1059217076937"><ele>267.5</ele><time>2026-04-28T09:36:02Z</time></trkpt><trkpt lat="29.00322450373906" lon="-10.106195378555846"><ele>266.0</ele><time>2026-04-28T09:36:03Z</time></trkpt><trkpt lat="29.003314387468667" lon="-10.106468701853151"><ele>266.0</ele><time>2026-04-28T09:36:04Z</time></trkpt><trkpt lat="29.00340418918143" lon="-10.106739628473996"><ele>266.0</ele><time>2026-04-28T09:36:05Z</time></trkpt><trkpt lat="29.003494192931367" lon="-10.107008667874108"><ele>266.0</ele><time>2026-04-28T09:36:06Z</time></trkpt><trkpt lat="29.00357854799513" lon="-10.107273775466322"><ele>266.0</ele><time>2026-04-28T09:36:07Z</time></trkpt><trkpt lat="29.003661864129437" lon="-10.107534697584619"><ele>264.5</ele><time>2026-04-28T09:36:08Z</time></trkpt><trkpt lat="29.003746882360936" lon="-10.1077980321986"><ele>263.0</ele><time>2026-04-28T09:36:09Z</time></trkpt><trkpt lat="29.00383423106206" lon="-10.108061240741716"><ele>262.5</ele><time>2026-04-28T09:36:10Z</time></trkpt><trkpt lat="29.003920834242425" lon="-10.108322512791386"><ele>262.0</ele><time>2026-04-28T09:36:11Z</time></trkpt><trkpt lat="29.00400619027679" lon="-10.108583994488471"><ele>262.0</ele><time>2026-04-28T09:36:12Z</time></trkpt><trkpt lat="29.00408995973008" lon="-10.108843278076357"><ele>262.0</ele><time>2026-04-28T09:36:13Z</time></trkpt><trkpt lat="29.00417350969296" lon="-10.109103303493193"><ele>262.0</ele><time>2026-04-28T09:36:14Z</time></trkpt><trkpt lat="29.004258888914915" lon="-10.109362232292204"><ele>262.0</ele><time>2026-04-28T09:36:15Z</time></trkpt><trkpt lat="29.004344887894074" lon="-10.109623338330808"><ele>262.0</ele><time>2026-04-28T09:36:16Z</time></trkpt><trkpt lat="29.004428617881445" lon="-10.109888180172387"><ele>262.0</ele><time>2026-04-28T09:36:17Z</time></trkpt><trkpt lat="29.004509390883257" lon="-10.110156784161843"><ele>262.0</ele><time>2026-04-28T09:36:18Z</time></trkpt><trkpt lat="29.00458597969217" lon="-10.110428867420751"><ele>262.0</ele><time>2026-04-28T09:36:19Z</time></trkpt><trkpt lat="29.004657675578414" lon="-10.110703763158135"><ele>261.5</ele><time>2026-04-28T09:36:20Z</time></trkpt><trkpt lat="29.004721810558596" lon="-10.11098195868462"><ele>261.0</ele><time>2026-04-28T09:36:21Z</time></trkpt><trkpt lat="29.004777465013746" lon="-10.111262854025155"><ele>261.0</ele><time>2026-04-28T09:36:22Z</time></trkpt><trkpt lat="29.00482823012031" lon="-10.111546706755094"><ele>261.0</ele><time>2026-04-28T09:36:23Z</time></trkpt><trkpt lat="29.00487669196623" lon="-10.111830382378034"><ele>260.0</ele><time>2026-04-28T09:36:24Z</time></trkpt><trkpt lat="29.00492369529252" lon="-10.112115459712184"><ele>259.0</ele><time>2026-04-28T09:36:25Z</time></trkpt><trkpt lat="29.004970447475365" lon="-10.1123991084712"><ele>258.0</ele><time>2026-04-28T09:36:26Z</time></trkpt><trkpt lat="29.00501795111746" lon="-10.112681001564132"><ele>257.0</ele><time>2026-04-28T09:36:27Z</time></trkpt><trkpt lat="29.005064595044214" lon="-10.112963706205024"><ele>256.0</ele><time>2026-04-28T09:36:28Z</time></trkpt><trkpt lat="29.005110972233137" lon="-10.113245838370572"><ele>255.0</ele><time>2026-04-28T09:36:29Z</time></trkpt><trkpt lat="29.005157390057388" lon="-10.113529325702777"><ele>255.0</ele><time>2026-04-28T09:36:30Z</time></trkpt><trkpt lat="29.00520373524959" lon="-10.113810015827209"><ele>255.0</ele><time>2026-04-28T09:36:31Z</time></trkpt><trkpt lat="29.005249803854294" lon="-10.114091162878662"><ele>255.0</ele><time>2026-04-28T09:36:32Z</time></trkpt><trkpt lat="29.005292890562288" lon="-10.114372780127505"><ele>255.0</ele><time>2026-04-28T09:36:33Z</time></trkpt><trkpt lat="29.005336752294507" lon="-10.114656291949537"><ele>253.5</ele><time>2026-04-28T09:36:34Z</time></trkpt><trkpt lat="29.00538028869202" lon="-10.114938236040327"><ele>252.0</ele><time>2026-04-28T09:36:35Z</time></trkpt><trkpt lat="29.00542487982886" lon="-10.115219669834957"><ele>252.0</ele><time>2026-04-28T09:36:36Z</time></trkpt><trkpt lat="29.005470984407154" lon="-10.115500619538734"><ele>252.0</ele><time>2026-04-28T09:36:37Z</time></trkpt><trkpt lat="29.00551674097376" lon="-10.115779854509816"><ele>251.0</ele><time>2026-04-28T09:36:38Z</time></trkpt><trkpt lat="29.00556334356666" lon="-10.11605905320962"><ele>250.0</ele><time>2026-04-28T09:36:39Z</time></trkpt><trkpt lat="29.00560972176935" lon="-10.116337053373025"><ele>250.0</ele><time>2026-04-28T09:36:40Z</time></trkpt><trkpt lat="29.005654299550308" lon="-10.116618152587352"><ele>250.0</ele><time>2026-04-28T09:36:41Z</time></trkpt><trkpt lat="29.005698938129033" lon="-10.116898749713528"><ele>250.0</ele><time>2026-04-28T09:36:42Z</time></trkpt><trkpt lat="29.005744196233906" lon="-10.117183900030334"><ele>250.0</ele><time>2026-04-28T09:36:43Z</time></trkpt><trkpt lat="29.00578901849495" lon="-10.117469322014149"><ele>251.0</ele><time>2026-04-28T09:36:44Z</time></trkpt><trkpt lat="29.005834358623588" lon="-10.117756570930684"><ele>252.0</ele><time>2026-04-28T09:36:45Z</time></trkpt><trkpt lat="29.005880610131015" lon="-10.11804268241756"><ele>251.0</ele><time>2026-04-28T09:36:46Z</time></trkpt><trkpt lat="29.005927885796886" lon="-10.118328120559708"><ele>250.0</ele><time>2026-04-28T09:36:47Z</time></trkpt><trkpt lat="29.005973890145974" lon="-10.118610599435899"><ele>250.0</ele><time>2026-04-28T09:36:48Z</time></trkpt><trkpt lat="29.006018529054057" lon="-10.11889537176279"><ele>250.0</ele><time>2026-04-28T09:36:49Z</time></trkpt><trkpt lat="29.006065014999237" lon="-10.119178442104491"><ele>249.5</ele><time>2026-04-28T09:36:50Z</time></trkpt><trkpt lat="29.006111125931504" lon="-10.119461374100917"><ele>249.0</ele><time>2026-04-28T09:36:51Z</time></trkpt><trkpt lat="29.006158916854353" lon="-10.1197443590723"><ele>250.0</ele><time>2026-04-28T09:36:52Z</time></trkpt><trkpt lat="29.006205547901978" lon="-10.120026997692733"><ele>251.0</ele><time>2026-04-28T09:36:53Z</time></trkpt><trkpt lat="29.006249981998444" lon="-10.120310318117689"><ele>251.0</ele><time>2026-04-28T09:36:54Z</time></trkpt><trkpt lat="29.006296270802718" lon="-10.120594707853188"><ele>251.0</ele><time>2026-04-28T09:36:55Z</time></trkpt><trkpt lat="29.006341596131556" lon="-10.120879672143944"><ele>251.0</ele><time>2026-04-28T09:36:56Z</time></trkpt><trkpt lat="29.00638827028109" lon="-10.121164091599436"><ele>251.0</ele><time>2026-04-28T09:36:57Z</time></trkpt><trkpt lat="29.006434307836365" lon="-10.121450139422212"><ele>250.0</ele><time>2026-04-28T09:36:58Z</time></trkpt><trkpt lat="29.006480625319572" lon="-10.121736192597345"><ele>249.0</ele><time>2026-04-28T09:36:59Z</time></trkpt><trkpt lat="29.006526854147022" lon="-10.122023439464444"><ele>249.0</ele><time>2026-04-28T09:37:00Z</time></trkpt><trkpt lat="29.006572952861998" lon="-10.122311318765828"><ele>249.0</ele><time>2026-04-28T09:37:01Z</time></trkpt><trkpt lat="29.00662031636223" lon="-10.122599730369679"><ele>248.5</ele><time>2026-04-28T09:37:02Z</time></trkpt><trkpt lat="29.006665881452687" lon="-10.12288876207052"><ele>248.0</ele><time>2026-04-28T09:37:03Z</time></trkpt><trkpt lat="29.006712623684717" lon="-10.123178189455382"><ele>248.5</ele><time>2026-04-28T09:37:04Z</time></trkpt><trkpt lat="29.006761492636432" lon="-10.123468049398658"><ele>249.0</ele><time>2026-04-28T09:37:05Z</time></trkpt><trkpt lat="29.006810702472297" lon="-10.123758747068749"><ele>249.0</ele><time>2026-04-28T09:37:06Z</time></trkpt><trkpt lat="29.006857000697607" lon="-10.124050122670322"><ele>249.0</ele><time>2026-04-28T09:37:07Z</time></trkpt><trkpt lat="29.0069027226323" lon="-10.124342484367864"><ele>249.5</ele><time>2026-04-28T09:37:08Z</time></trkpt><trkpt lat="29.006950807990144" lon="-10.12463667636741"><ele>250.0</ele><time>2026-04-28T09:37:09Z</time></trkpt><trkpt lat="29.00699814390662" lon="-10.124928950153144"><ele>249.0</ele><time>2026-04-28T09:37:10Z</time></trkpt><trkpt lat="29.007046881860877" lon="-10.125221020167361"><ele>248.0</ele><time>2026-04-28T09:37:11Z</time></trkpt><trkpt lat="29.007095780766058" lon="-10.125509422378595"><ele>247.5</ele><time>2026-04-28T09:37:12Z</time></trkpt><trkpt lat="29.00714076150543" lon="-10.125801907310855"><ele>247.0</ele><time>2026-04-28T09:37:13Z</time></trkpt><trkpt lat="29.00717892901432" lon="-10.126091671192647"><ele>247.0</ele><time>2026-04-28T09:37:14Z</time></trkpt><trkpt lat="29.007211997694768" lon="-10.126382906585528"><ele>247.0</ele><time>2026-04-28T09:37:15Z</time></trkpt><trkpt lat="29.0072402111188" lon="-10.126674844337096"><ele>246.5</ele><time>2026-04-28T09:37:16Z</time></trkpt><trkpt lat="29.007260410896585" lon="-10.126972003996093"><ele>246.0</ele><time>2026-04-28T09:37:17Z</time></trkpt><trkpt lat="29.00727486438759" lon="-10.127268946883472"><ele>246.0</ele><time>2026-04-28T09:37:18Z</time></trkpt><trkpt lat="29.00728688132028" lon="-10.12756598607499"><ele>246.0</ele><time>2026-04-28T09:37:19Z</time></trkpt><trkpt lat="29.00729925917308" lon="-10.127860581919887"><ele>246.0</ele><time>2026-04-28T09:37:20Z</time></trkpt><trkpt lat="29.00731438591426" lon="-10.128154500753487"><ele>246.0</ele><time>2026-04-28T09:37:21Z</time></trkpt><trkpt lat="29.007329568268414" lon="-10.12844787749407"><ele>246.0</ele><time>2026-04-28T09:37:22Z</time></trkpt><trkpt lat="29.007343922959155" lon="-10.12874204564919"><ele>246.0</ele><time>2026-04-28T09:37:23Z</time></trkpt><trkpt lat="29.00735729844449" lon="-10.129037387248683"><ele>246.0</ele><time>2026-04-28T09:37:24Z</time></trkpt><trkpt lat="29.007372720176928" lon="-10.129334397302888"><ele>246.0</ele><time>2026-04-28T09:37:25Z</time></trkpt><trkpt lat="29.007387322793285" lon="-10.129631984690139"><ele>245.5</ele><time>2026-04-28T09:37:26Z</time></trkpt><trkpt lat="29.007400482471535" lon="-10.129929872468763"><ele>245.0</ele><time>2026-04-28T09:37:27Z</time></trkpt><trkpt lat="29.00741363101225" lon="-10.130228099140265"><ele>245.0</ele><time>2026-04-28T09:37:28Z</time></trkpt><trkpt lat="29.007427378469526" lon="-10.130528403238783"><ele>245.0</ele><time>2026-04-28T09:37:29Z</time></trkpt><trkpt lat="29.00744179760982" lon="-10.130828730355944"><ele>244.5</ele><time>2026-04-28T09:37:30Z</time></trkpt><trkpt lat="29.007456569685775" lon="-10.131129345764135"><ele>244.0</ele><time>2026-04-28T09:37:31Z</time></trkpt><trkpt lat="29.007471358900446" lon="-10.131430108710923"><ele>244.0</ele><time>2026-04-28T09:37:32Z</time></trkpt><trkpt lat="29.007484989423258" lon="-10.131733169853648"><ele>244.0</ele><time>2026-04-28T09:37:33Z</time></trkpt><trkpt lat="29.007495836636743" lon="-10.13203546498166"><ele>244.0</ele><time>2026-04-28T09:37:34Z</time></trkpt><trkpt lat="29.007509092307437" lon="-10.132338278194524"><ele>244.0</ele><time>2026-04-28T09:37:35Z</time></trkpt><trkpt lat="29.007524666144636" lon="-10.132641805385555"><ele>244.0</ele><time>2026-04-28T09:37:36Z</time></trkpt><trkpt lat="29.007541180112685" lon="-10.132942997845175"><ele>244.0</ele><time>2026-04-28T09:37:37Z</time></trkpt><trkpt lat="29.007556831139276" lon="-10.133244785058194"><ele>243.5</ele><time>2026-04-28T09:37:38Z</time></trkpt><trkpt lat="29.007569875383798" lon="-10.133545254005327"><ele>243.0</ele><time>2026-04-28T09:37:39Z</time></trkpt><trkpt lat="29.007581402490402" lon="-10.13384570390765"><ele>242.5</ele><time>2026-04-28T09:37:40Z</time></trkpt><trkpt lat="29.00759579036309" lon="-10.134145017455994"><ele>242.0</ele><time>2026-04-28T09:37:41Z</time></trkpt><trkpt lat="29.00760967433123" lon="-10.134446327860172"><ele>242.0</ele><time>2026-04-28T09:37:42Z</time></trkpt><trkpt lat="29.00762426760642" lon="-10.134749593798363"><ele>242.0</ele><time>2026-04-28T09:37:43Z</time></trkpt><trkpt lat="29.007638954845827" lon="-10.135051689563511"><ele>241.5</ele><time>2026-04-28T09:37:44Z</time></trkpt><trkpt lat="29.00765350239024" lon="-10.135356679437987"><ele>241.0</ele><time>2026-04-28T09:37:45Z</time></trkpt><trkpt lat="29.007671292441223" lon="-10.13566113158265"><ele>241.0</ele><time>2026-04-28T09:37:46Z</time></trkpt><trkpt lat="29.007686067714626" lon="-10.13596489306232"><ele>241.0</ele><time>2026-04-28T09:37:47Z</time></trkpt><trkpt lat="29.007698883898883" lon="-10.136269411759715"><ele>240.0</ele><time>2026-04-28T09:37:48Z</time></trkpt><trkpt lat="29.007712316813677" lon="-10.136575000040326"><ele>239.0</ele><time>2026-04-28T09:37:49Z</time></trkpt><trkpt lat="29.007727603110407" lon="-10.136880185314016"><ele>239.0</ele><time>2026-04-28T09:37:50Z</time></trkpt><trkpt lat="29.007742950727494" lon="-10.137186229642468"><ele>239.0</ele><time>2026-04-28T09:37:51Z</time></trkpt><trkpt lat="29.00775716606556" lon="-10.13749376297761"><ele>240.0</ele><time>2026-04-28T09:37:52Z</time></trkpt><trkpt lat="29.007771752791747" lon="-10.13779802962394"><ele>241.0</ele><time>2026-04-28T09:37:53Z</time></trkpt><trkpt lat="29.007785862354048" lon="-10.138103654574785"><ele>240.5</ele><time>2026-04-28T09:37:54Z</time></trkpt><trkpt lat="29.00779828024494" lon="-10.138408287330128"><ele>240.0</ele><time>2026-04-28T09:37:55Z</time></trkpt><trkpt lat="29.00781133785109" lon="-10.138711208948276"><ele>240.0</ele><time>2026-04-28T09:37:56Z</time></trkpt><trkpt lat="29.00782442480978" lon="-10.139013514951843"><ele>240.0</ele><time>2026-04-28T09:37:57Z</time></trkpt><trkpt lat="29.007839667935286" lon="-10.139313935722486"><ele>240.0</ele><time>2026-04-28T09:37:58Z</time></trkpt><trkpt lat="29.007855624077227" lon="-10.139610786530186"><ele>240.0</ele><time>2026-04-28T09:37:59Z</time></trkpt><trkpt lat="29.007869562605116" lon="-10.139907527625203"><ele>240.0</ele><time>2026-04-28T09:38:00Z</time></trkpt><trkpt lat="29.007884302153478" lon="-10.140202105896137"><ele>240.0</ele><time>2026-04-28T09:38:01Z</time></trkpt><trkpt lat="29.00789810902171" lon="-10.140497220457743"><ele>239.0</ele><time>2026-04-28T09:38:02Z</time></trkpt><trkpt lat="29.007911480117198" lon="-10.1407904645488"><ele>238.0</ele><time>2026-04-28T09:38:03Z</time></trkpt><trkpt lat="29.007924562104694" lon="-10.14108168794337"><ele>238.0</ele><time>2026-04-28T09:38:04Z</time></trkpt><trkpt lat="29.00793555120452" lon="-10.141372124788582"><ele>238.0</ele><time>2026-04-28T09:38:05Z</time></trkpt><trkpt lat="29.007940479524798" lon="-10.14166497377147"><ele>238.0</ele><time>2026-04-28T09:38:06Z</time></trkpt><trkpt lat="29.007939616895293" lon="-10.14195454768943"><ele>238.0</ele><time>2026-04-28T09:38:07Z</time></trkpt><trkpt lat="29.00792829418462" lon="-10.142242854210215"><ele>237.0</ele><time>2026-04-28T09:38:08Z</time></trkpt><trkpt lat="29.007904639092313" lon="-10.142529584085858"><ele>236.0</ele><time>2026-04-28T09:38:09Z</time></trkpt><trkpt lat="29.00786857777671" lon="-10.142812413735195"><ele>236.0</ele><time>2026-04-28T09:38:10Z</time></trkpt><trkpt lat="29.007824360358537" lon="-10.14309309778178"><ele>236.0</ele><time>2026-04-28T09:38:11Z</time></trkpt><trkpt lat="29.007772752910316" lon="-10.143373192538741"><ele>236.5</ele><time>2026-04-28T09:38:12Z</time></trkpt><trkpt lat="29.00771609064828" lon="-10.143650992115685"><ele>237.0</ele><time>2026-04-28T09:38:13Z</time></trkpt><trkpt lat="29.007647630451658" lon="-10.143925789999733"><ele>236.5</ele><time>2026-04-28T09:38:14Z</time></trkpt><trkpt lat="29.007566527099474" lon="-10.144196286335708"><ele>236.0</ele><time>2026-04-28T09:38:15Z</time></trkpt><trkpt lat="29.007471633252674" lon="-10.144459133125084"><ele>236.0</ele><time>2026-04-28T09:38:16Z</time></trkpt><trkpt lat="29.007369526036104" lon="-10.144718091560762"><ele>236.0</ele><time>2026-04-28T09:38:17Z</time></trkpt><trkpt lat="29.007259429357298" lon="-10.144972392977389"><ele>235.5</ele><time>2026-04-28T09:38:18Z</time></trkpt><trkpt lat="29.007142794028237" lon="-10.145222446098701"><ele>235.0</ele><time>2026-04-28T09:38:19Z</time></trkpt><trkpt lat="29.007019484180727" lon="-10.145468846039734"><ele>235.0</ele><time>2026-04-28T09:38:20Z</time></trkpt><trkpt lat="29.006889979686967" lon="-10.14570979015957"><ele>235.0</ele><time>2026-04-28T09:38:21Z</time></trkpt><trkpt lat="29.00675731855695" lon="-10.145948903590114"><ele>233.5</ele><time>2026-04-28T09:38:22Z</time></trkpt><trkpt lat="29.006626019036002" lon="-10.146187601569492"><ele>232.0</ele><time>2026-04-28T09:38:23Z</time></trkpt><trkpt lat="29.006497965672892" lon="-10.146429162712934"><ele>232.5</ele><time>2026-04-28T09:38:24Z</time></trkpt><trkpt lat="29.006370405965612" lon="-10.146668174885644"><ele>233.0</ele><time>2026-04-28T09:38:25Z</time></trkpt><trkpt lat="29.006244145854684" lon="-10.146905286711943"><ele>233.0</ele><time>2026-04-28T09:38:26Z</time></trkpt><trkpt lat="29.006118835562045" lon="-10.14713718187763"><ele>233.0</ele><time>2026-04-28T09:38:27Z</time></trkpt><trkpt lat="29.005993270452358" lon="-10.147373575244309"><ele>233.0</ele><time>2026-04-28T09:38:28Z</time></trkpt><trkpt lat="29.005865959221286" lon="-10.147606882658112"><ele>233.0</ele><time>2026-04-28T09:38:29Z</time></trkpt><trkpt lat="29.005736236476427" lon="-10.147841534446403"><ele>233.0</ele><time>2026-04-28T09:38:30Z</time></trkpt><trkpt lat="29.005607204921876" lon="-10.148080531478275"><ele>233.0</ele><time>2026-04-28T09:38:31Z</time></trkpt><trkpt lat="29.00548016598587" lon="-10.148322886578613"><ele>233.0</ele><time>2026-04-28T09:38:32Z</time></trkpt><trkpt lat="29.00535014106954" lon="-10.14856640027552"><ele>233.0</ele><time>2026-04-28T09:38:33Z</time></trkpt><trkpt lat="29.005220157461878" lon="-10.148812119407081"><ele>232.5</ele><time>2026-04-28T09:38:34Z</time></trkpt><trkpt lat="29.005089399072723" lon="-10.1490563944133"><ele>232.0</ele><time>2026-04-28T09:38:35Z</time></trkpt><trkpt lat="29.004957286716817" lon="-10.149297734791267"><ele>232.0</ele><time>2026-04-28T09:38:36Z</time></trkpt><trkpt lat="29.004825287595363" lon="-10.149539346422864"><ele>232.0</ele><time>2026-04-28T09:38:37Z</time></trkpt><trkpt lat="29.004694343365546" lon="-10.14978178194042"><ele>232.0</ele><time>2026-04-28T09:38:38Z</time></trkpt><trkpt lat="29.0045640161439" lon="-10.150023016626633"><ele>232.0</ele><time>2026-04-28T09:38:39Z</time></trkpt><trkpt lat="29.004435490982665" lon="-10.150265603387385"><ele>232.0</ele><time>2026-04-28T09:38:40Z</time></trkpt><trkpt lat="29.004307538462378" lon="-10.150507785225422"><ele>232.0</ele><time>2026-04-28T09:38:41Z</time></trkpt><trkpt lat="29.004178677033813" lon="-10.150749187383068"><ele>230.5</ele><time>2026-04-28T09:38:42Z</time></trkpt><trkpt lat="29.00404862352903" lon="-10.150991210813475"><ele>229.0</ele><time>2026-04-28T09:38:43Z</time></trkpt><trkpt lat="29.003919089615717" lon="-10.151232130145328"><ele>229.0</ele><time>2026-04-28T09:38:44Z</time></trkpt><trkpt lat="29.00379060001674" lon="-10.151473928299565"><ele>229.0</ele><time>2026-04-28T09:38:45Z</time></trkpt><trkpt lat="29.0036621791552" lon="-10.151713228622294"><ele>229.5</ele><time>2026-04-28T09:38:46Z</time></trkpt><trkpt lat="29.00353569374198" lon="-10.151952699139738"><ele>230.0</ele><time>2026-04-28T09:38:47Z</time></trkpt><trkpt lat="29.003409128843963" lon="-10.152193523672759"><ele>229.5</ele><time>2026-04-28T09:38:48Z</time></trkpt><trkpt lat="29.003281764639922" lon="-10.152432990813391"><ele>229.0</ele><time>2026-04-28T09:38:49Z</time></trkpt><trkpt lat="29.00315264237524" lon="-10.152669842440602"><ele>229.0</ele><time>2026-04-28T09:38:50Z</time></trkpt><trkpt lat="29.003023531506695" lon="-10.152907512189254"><ele>229.0</ele><time>2026-04-28T09:38:51Z</time></trkpt><trkpt lat="29.002894450871345" lon="-10.153145713055759"><ele>228.0</ele><time>2026-04-28T09:38:52Z</time></trkpt><trkpt lat="29.0027647362996" lon="-10.153384809482477"><ele>227.0</ele><time>2026-04-28T09:38:53Z</time></trkpt><trkpt lat="29.002634770970968" lon="-10.153624183843961"><ele>227.0</ele><time>2026-04-28T09:38:54Z</time></trkpt><trkpt lat="29.002506210044302" lon="-10.15386107503814"><ele>227.0</ele><time>2026-04-28T09:38:55Z</time></trkpt><trkpt lat="29.00237956775939" lon="-10.154099909196558"><ele>229.0</ele><time>2026-04-28T09:38:56Z</time></trkpt><trkpt lat="29.00225386671721" lon="-10.154340226641615"><ele>231.0</ele><time>2026-04-28T09:38:57Z</time></trkpt><trkpt lat="29.002126678995946" lon="-10.154578699524116"><ele>231.0</ele><time>2026-04-28T09:38:58Z</time></trkpt><trkpt lat="29.001998301409635" lon="-10.154818829836863"><ele>231.0</ele><time>2026-04-28T09:38:59Z</time></trkpt><trkpt lat="29.001871759526537" lon="-10.155056338807823"><ele>230.0</ele><time>2026-04-28T09:39:00Z</time></trkpt><trkpt lat="29.00174455021894" lon="-10.155294813808833"><ele>229.0</ele><time>2026-04-28T09:39:01Z</time></trkpt><trkpt lat="29.001617360548668" lon="-10.15553457532098"><ele>228.5</ele><time>2026-04-28T09:39:02Z</time></trkpt><trkpt lat="29.00148910477256" lon="-10.15577534596388"><ele>228.0</ele><time>2026-04-28T09:39:03Z</time></trkpt><trkpt lat="29.001357898892067" lon="-10.156013213809551"><ele>228.0</ele><time>2026-04-28T09:39:04Z</time></trkpt><trkpt lat="29.00122686681009" lon="-10.156252943068703"><ele>228.0</ele><time>2026-04-28T09:39:05Z</time></trkpt><trkpt lat="29.00109219054971" lon="-10.156490088584123"><ele>227.5</ele><time>2026-04-28T09:39:06Z</time></trkpt><trkpt lat="29.000957558202302" lon="-10.156724734345907"><ele>227.0</ele><time>2026-04-28T09:39:07Z</time></trkpt><trkpt lat="29.0008251155813" lon="-10.156962780917524"><ele>227.0</ele><time>2026-04-28T09:39:08Z</time></trkpt><trkpt lat="29.000698760088483" lon="-10.157203118066198"><ele>227.0</ele><time>2026-04-28T09:39:09Z</time></trkpt><trkpt lat="29.000597002180495" lon="-10.157459623268794"><ele>227.5</ele><time>2026-04-28T09:39:10Z</time></trkpt><trkpt lat="29.000454601867276" lon="-10.157688415055627"><ele>228.0</ele><time>2026-04-28T09:39:11Z</time></trkpt><trkpt lat="29.000328657482047" lon="-10.157928221164571"><ele>228.0</ele><time>2026-04-28T09:39:12Z</time></trkpt><trkpt lat="29.0002034512477" lon="-10.158167203710262"><ele>228.0</ele><time>2026-04-28T09:39:13Z</time></trkpt><trkpt lat="29.000075074495577" lon="-10.158406353984969"><ele>227.0</ele><time>2026-04-28T09:39:14Z</time></trkpt><trkpt lat="28.99994622519995" lon="-10.158642214940892"><ele>226.0</ele><time>2026-04-28T09:39:15Z</time></trkpt><trkpt lat="28.999818786074332" lon="-10.158880159927248"><ele>226.0</ele><time>2026-04-28T09:39:16Z</time></trkpt><trkpt lat="28.99969118271844" lon="-10.159116589672289"><ele>226.0</ele><time>2026-04-28T09:39:17Z</time></trkpt><trkpt lat="28.999563148351246" lon="-10.159352304566749"><ele>226.0</ele><time>2026-04-28T09:39:18Z</time></trkpt><trkpt lat="28.99943613117009" lon="-10.159588324206505"><ele>226.0</ele><time>2026-04-28T09:39:19Z</time></trkpt><trkpt lat="28.999309465089535" lon="-10.159821045229343"><ele>225.5</ele><time>2026-04-28T09:39:20Z</time></trkpt><trkpt lat="28.999184589429827" lon="-10.160055346165704"><ele>225.0</ele><time>2026-04-28T09:39:21Z</time></trkpt><trkpt lat="28.999058741895446" lon="-10.160291067940683"><ele>225.0</ele><time>2026-04-28T09:39:22Z</time></trkpt><trkpt lat="28.99893360781571" lon="-10.160524004371897"><ele>225.0</ele><time>2026-04-28T09:39:23Z</time></trkpt><trkpt lat="28.998805699203164" lon="-10.1607606890785"><ele>225.0</ele><time>2026-04-28T09:39:24Z</time></trkpt><trkpt lat="28.998679957711364" lon="-10.161000437731095"><ele>225.0</ele><time>2026-04-28T09:39:25Z</time></trkpt><trkpt lat="28.998552884010973" lon="-10.161236097528812"><ele>225.0</ele><time>2026-04-28T09:39:26Z</time></trkpt><trkpt lat="28.998426340042826" lon="-10.161472917185543"><ele>225.0</ele><time>2026-04-28T09:39:27Z</time></trkpt><trkpt lat="28.998300193016348" lon="-10.161709737636983"><ele>225.0</ele><time>2026-04-28T09:39:28Z</time></trkpt><trkpt lat="28.998172563656247" lon="-10.161941591806048"><ele>225.0</ele><time>2026-04-28T09:39:29Z</time></trkpt><trkpt lat="28.998043926013885" lon="-10.162177058131876"><ele>224.5</ele><time>2026-04-28T09:39:30Z</time></trkpt><trkpt lat="28.99791649696623" lon="-10.162414541670106"><ele>224.0</ele><time>2026-04-28T09:39:31Z</time></trkpt><trkpt lat="28.997791531367493" lon="-10.162653440595387"><ele>224.0</ele><time>2026-04-28T09:39:32Z</time></trkpt><trkpt lat="28.99766661689808" lon="-10.162887819760577"><ele>224.0</ele><time>2026-04-28T09:39:33Z</time></trkpt><trkpt lat="28.997540573676314" lon="-10.16312131386112"><ele>224.0</ele><time>2026-04-28T09:39:34Z</time></trkpt><trkpt lat="28.997414027312974" lon="-10.163354529976742"><ele>224.0</ele><time>2026-04-28T09:39:35Z</time></trkpt><trkpt lat="28.99728655345803" lon="-10.163585890693396"><ele>224.0</ele><time>2026-04-28T09:39:36Z</time></trkpt><trkpt lat="28.997160213133466" lon="-10.163816805812784"><ele>224.0</ele><time>2026-04-28T09:39:37Z</time></trkpt><trkpt lat="28.997033446835626" lon="-10.164051081177671"><ele>223.0</ele><time>2026-04-28T09:39:38Z</time></trkpt><trkpt lat="28.996907476403823" lon="-10.164286468817082"><ele>222.0</ele><time>2026-04-28T09:39:39Z</time></trkpt><trkpt lat="28.996784687304128" lon="-10.164519985301308"><ele>222.0</ele><time>2026-04-28T09:39:40Z</time></trkpt><trkpt lat="28.996661363941037" lon="-10.16475247904033"><ele>222.0</ele><time>2026-04-28T09:39:41Z</time></trkpt><trkpt lat="28.996538136270473" lon="-10.164985070368816"><ele>221.5</ele><time>2026-04-28T09:39:42Z</time></trkpt><trkpt lat="28.996413490711177" lon="-10.165216884076562"><ele>221.0</ele><time>2026-04-28T09:39:43Z</time></trkpt><trkpt lat="28.996286909757732" lon="-10.165448544142997"><ele>221.0</ele><time>2026-04-28T09:39:44Z</time></trkpt><trkpt lat="28.99616018385673" lon="-10.165679985910513"><ele>221.0</ele><time>2026-04-28T09:39:45Z</time></trkpt><trkpt lat="28.996034091422725" lon="-10.165911281369906"><ele>221.0</ele><time>2026-04-28T09:39:46Z</time></trkpt><trkpt lat="28.995907384448383" lon="-10.166145887073824"><ele>221.0</ele><time>2026-04-28T09:39:47Z</time></trkpt><trkpt lat="28.99578858945706" lon="-10.166365079833074"><ele>221.0</ele><time>2026-04-28T09:39:48Z</time></trkpt><trkpt lat="28.995677571803327" lon="-10.166567050899012"><ele>221.0</ele><time>2026-04-28T09:39:49Z</time></trkpt><trkpt lat="28.995572189245607" lon="-10.166759216145154"><ele>221.0</ele><time>2026-04-28T09:39:50Z</time></trkpt><trkpt lat="28.995476694099793" lon="-10.16694496166355"><ele>221.0</ele><time>2026-04-28T09:39:51Z</time></trkpt><trkpt lat="28.995379270781797" lon="-10.167132736443715"><ele>221.0</ele><time>2026-04-28T09:39:52Z</time></trkpt><trkpt lat="28.99527725539501" lon="-10.167321851413138"><ele>221.0</ele><time>2026-04-28T09:39:53Z</time></trkpt><trkpt lat="28.99517454451888" lon="-10.167507329323447"><ele>221.0</ele><time>2026-04-28T09:39:54Z</time></trkpt><trkpt lat="28.99507979724767" lon="-10.167681622145142"><ele>221.0</ele><time>2026-04-28T09:39:55Z</time></trkpt><trkpt lat="28.994989941560604" lon="-10.167846067846643"><ele>221.0</ele><time>2026-04-28T09:39:56Z</time></trkpt><trkpt lat="28.994907879852075" lon="-10.168000493783575"><ele>221.0</ele><time>2026-04-28T09:39:57Z</time></trkpt><trkpt lat="28.994838202994767" lon="-10.168134832210558"><ele>221.00000000000003</ele><time>2026-04-28T09:39:58Z</time></trkpt><trkpt lat="28.994784796127558" lon="-10.168247260101543"><ele>221.00000000000003</ele><time>2026-04-28T09:39:59Z</time></trkpt><trkpt lat="28.99474726583419" lon="-10.168341700445131"><ele>221.0</ele><time>2026-04-28T09:40:00Z</time></trkpt><trkpt lat="28.994736426143607" lon="-10.168421520778239"><ele>221.0</ele><time>2026-04-28T09:40:01Z</time></trkpt><trkpt lat="28.994793958483168" lon="-10.168593536088919"><ele>221.0</ele><time>2026-04-28T09:40:03Z</time></trkpt><trkpt lat="28.994864564876714" lon="-10.168677366183386"><ele>221.0</ele><time>2026-04-28T09:40:04Z</time></trkpt><trkpt lat="28.994963225128252" lon="-10.16876249116736"><ele>221.0</ele><time>2026-04-28T09:40:05Z</time></trkpt><trkpt lat="28.995078601609915" lon="-10.168860027268254"><ele>221.0</ele><time>2026-04-28T09:40:06Z</time></trkpt><trkpt lat="28.99520787557768" lon="-10.168970782273307"><ele>220.66666666666669</ele><time>2026-04-28T09:40:07Z</time></trkpt><trkpt lat="28.995346378951403" lon="-10.169090569108135"><ele>220.33333333333331</ele><time>2026-04-28T09:40:08Z</time></trkpt><trkpt lat="28.995480607299562" lon="-10.169212484609954"><ele>220.0</ele><time>2026-04-28T09:40:09Z</time></trkpt><trkpt lat="28.995624019747062" lon="-10.169351023291547"><ele>220.0</ele><time>2026-04-28T09:40:10Z</time></trkpt><trkpt lat="28.995777250013294" lon="-10.169496452670723"><ele>220.0</ele><time>2026-04-28T09:40:11Z</time></trkpt><trkpt lat="28.995930328707004" lon="-10.16963669038844"><ele>220.0</ele><time>2026-04-28T09:40:12Z</time></trkpt><trkpt lat="28.996085154773912" lon="-10.169779068807529"><ele>220.0</ele><time>2026-04-28T09:40:13Z</time></trkpt><trkpt lat="28.99623835582281" lon="-10.169921516187154"><ele>220.0</ele><time>2026-04-28T09:40:14Z</time></trkpt><trkpt lat="28.99638445634717" lon="-10.1700572651177"><ele>220.0</ele><time>2026-04-28T09:40:15Z</time></trkpt><trkpt lat="28.996519346886" lon="-10.170185757342935"><ele>220.0</ele><time>2026-04-28T09:40:16Z</time></trkpt><trkpt lat="28.996651941113164" lon="-10.170312825971736"><ele>220.0</ele><time>2026-04-28T09:40:17Z</time></trkpt><trkpt lat="28.996784162672736" lon="-10.170438918188633"><ele>220.0</ele><time>2026-04-28T09:40:18Z</time></trkpt><trkpt lat="28.996920452248503" lon="-10.170564882180427"><ele>220.0</ele><time>2026-04-28T09:40:19Z</time></trkpt><trkpt lat="28.9970575319298" lon="-10.170690092813082"><ele>220.0</ele><time>2026-04-28T09:40:20Z</time></trkpt><trkpt lat="28.997189612960486" lon="-10.170814967618128"><ele>220.0</ele><time>2026-04-28T09:40:21Z</time></trkpt><trkpt lat="28.99731766154037" lon="-10.170936076034746"><ele>220.0</ele><time>2026-04-28T09:40:22Z</time></trkpt><trkpt lat="28.997444516347255" lon="-10.171054086781085"><ele>220.0</ele><time>2026-04-28T09:40:23Z</time></trkpt><trkpt lat="28.997568896806055" lon="-10.17117089117704"><ele>220.0</ele><time>2026-04-28T09:40:24Z</time></trkpt><trkpt lat="28.997695189545887" lon="-10.171287781318336"><ele>219.66666666666666</ele><time>2026-04-28T09:40:25Z</time></trkpt><trkpt lat="28.997817715044395" lon="-10.171401058685401"><ele>219.33333333333331</ele><time>2026-04-28T09:40:26Z</time></trkpt><trkpt lat="28.99794609241976" lon="-10.171522172801161"><ele>219.0</ele><time>2026-04-28T09:40:27Z</time></trkpt><trkpt lat="28.998082141858" lon="-10.171650095108772"><ele>219.0</ele><time>2026-04-28T09:40:28Z</time></trkpt><trkpt lat="28.99822805691918" lon="-10.171785825401923"><ele>219.0</ele><time>2026-04-28T09:40:29Z</time></trkpt><trkpt lat="28.998380054193493" lon="-10.171925531118424"><ele>219.0</ele><time>2026-04-28T09:40:30Z</time></trkpt><trkpt lat="28.998530033662036" lon="-10.172065748357278"><ele>219.0</ele><time>2026-04-28T09:40:31Z</time></trkpt><trkpt lat="28.99867543956587" lon="-10.172205668706939"><ele>219.0</ele><time>2026-04-28T09:40:32Z</time></trkpt><trkpt lat="28.99882053743504" lon="-10.172345970925116"><ele>219.0</ele><time>2026-04-28T09:40:33Z</time></trkpt><trkpt lat="28.998967970977482" lon="-10.172483360860781"><ele>218.66666666666669</ele><time>2026-04-28T09:40:34Z</time></trkpt><trkpt lat="28.99911149017771" lon="-10.17262077745954"><ele>218.33333333333334</ele><time>2026-04-28T09:40:35Z</time></trkpt><trkpt lat="28.999256116146" lon="-10.17275840380785"><ele>218.0</ele><time>2026-04-28T09:40:36Z</time></trkpt><trkpt lat="28.99940328481674" lon="-10.17289583096894"><ele>218.0</ele><time>2026-04-28T09:40:37Z</time></trkpt><trkpt lat="28.99955176218606" lon="-10.173033541770584"><ele>218.0</ele><time>2026-04-28T09:40:38Z</time></trkpt><trkpt lat="28.999698442975493" lon="-10.173171381702195"><ele>218.0</ele><time>2026-04-28T09:40:39Z</time></trkpt><trkpt lat="28.999845774124363" lon="-10.173309698800916"><ele>218.33333333333334</ele><time>2026-04-28T09:40:40Z</time></trkpt><trkpt lat="28.999994655938867" lon="-10.173448101528002"><ele>218.66666666666669</ele><time>2026-04-28T09:40:41Z</time></trkpt><trkpt lat="29.0001455611235" lon="-10.173587764510202"><ele>219.0</ele><time>2026-04-28T09:40:42Z</time></trkpt><trkpt lat="29.000297433284224" lon="-10.173726702594996"><ele>219.0</ele><time>2026-04-28T09:40:43Z</time></trkpt><trkpt lat="29.000448104341626" lon="-10.17386466431778"><ele>219.0</ele><time>2026-04-28T09:40:44Z</time></trkpt><trkpt lat="29.00059908438251" lon="-10.174002802564463"><ele>219.0</ele><time>2026-04-28T09:40:45Z</time></trkpt><trkpt lat="29.000748494146904" lon="-10.174140098528632"><ele>219.66666666666669</ele><time>2026-04-28T09:40:46Z</time></trkpt><trkpt lat="29.00089332926172" lon="-10.17427390436033"><ele>220.33333333333334</ele><time>2026-04-28T09:40:47Z</time></trkpt><trkpt lat="29.001036366499658" lon="-10.174414681735842"><ele>221.0</ele><time>2026-04-28T09:40:48Z</time></trkpt><trkpt lat="29.001180445804945" lon="-10.174555147281483"><ele>221.0</ele><time>2026-04-28T09:40:49Z</time></trkpt><trkpt lat="29.001325014086625" lon="-10.174694383641162"><ele>221.0</ele><time>2026-04-28T09:40:50Z</time></trkpt><trkpt lat="29.001475164446326" lon="-10.174848687887302"><ele>221.0</ele><time>2026-04-28T09:40:51Z</time></trkpt><trkpt lat="29.001627893184274" lon="-10.17501454328851"><ele>219.66666666666669</ele><time>2026-04-28T09:40:52Z</time></trkpt><trkpt lat="29.001781382784962" lon="-10.175189881340229"><ele>218.33333333333331</ele><time>2026-04-28T09:40:53Z</time></trkpt><trkpt lat="29.00193501777021" lon="-10.175369444018486"><ele>217.0</ele><time>2026-04-28T09:40:54Z</time></trkpt><trkpt lat="29.002088053038868" lon="-10.175550882604961"><ele>217.33333333333331</ele><time>2026-04-28T09:40:55Z</time></trkpt><trkpt lat="29.002242006939838" lon="-10.175736081943244"><ele>217.66666666666669</ele><time>2026-04-28T09:40:56Z</time></trkpt><trkpt lat="29.002394441744006" lon="-10.175926033846173"><ele>218.0</ele><time>2026-04-28T09:40:57Z</time></trkpt><trkpt lat="29.002545690238712" lon="-10.176118335798606"><ele>218.0</ele><time>2026-04-28T09:40:58Z</time></trkpt><trkpt lat="29.002693133894656" lon="-10.176310756965224"><ele>218.0</ele><time>2026-04-28T09:40:59Z</time></trkpt><trkpt lat="29.002841572368013" lon="-10.176500692650905"><ele>218.0</ele><time>2026-04-28T09:41:00Z</time></trkpt><trkpt lat="29.002990373977372" lon="-10.176688246934349"><ele>218.33333333333334</ele><time>2026-04-28T09:41:01Z</time></trkpt><trkpt lat="29.003138681614267" lon="-10.176874936258558"><ele>218.66666666666669</ele><time>2026-04-28T09:41:02Z</time></trkpt><trkpt lat="29.003285598181908" lon="-10.177060177054788"><ele>219.0</ele><time>2026-04-28T09:41:03Z</time></trkpt><trkpt lat="29.003432829927558" lon="-10.177244018334989"><ele>218.33333333333331</ele><time>2026-04-28T09:41:04Z</time></trkpt><trkpt lat="29.003578155095006" lon="-10.17742890878582"><ele>217.66666666666666</ele><time>2026-04-28T09:41:05Z</time></trkpt><trkpt lat="29.003721714560744" lon="-10.177613011141698"><ele>217.0</ele><time>2026-04-28T09:41:06Z</time></trkpt><trkpt lat="29.003864591123595" lon="-10.177796397469287"><ele>217.0</ele><time>2026-04-28T09:41:07Z</time></trkpt><trkpt lat="29.004008864200465" lon="-10.177977978091853"><ele>217.0</ele><time>2026-04-28T09:41:08Z</time></trkpt><trkpt lat="29.004152149312134" lon="-10.178160120585463"><ele>217.0</ele><time>2026-04-28T09:41:09Z</time></trkpt><trkpt lat="29.004295591114733" lon="-10.178342303231073"><ele>216.66666666666666</ele><time>2026-04-28T09:41:10Z</time></trkpt><trkpt lat="29.004439038693842" lon="-10.178522785437151"><ele>216.33333333333331</ele><time>2026-04-28T09:41:11Z</time></trkpt><trkpt lat="29.004582237849966" lon="-10.178702703635897"><ele>216.0</ele><time>2026-04-28T09:41:12Z</time></trkpt><trkpt lat="29.004723451203258" lon="-10.178882862694628"><ele>216.0</ele><time>2026-04-28T09:41:13Z</time></trkpt><trkpt lat="29.004864882877566" lon="-10.179059961313683"><ele>216.0</ele><time>2026-04-28T09:41:14Z</time></trkpt><trkpt lat="29.004996355169194" lon="-10.179225714408636"><ele>216.0</ele><time>2026-04-28T09:41:15Z</time></trkpt><trkpt lat="29.005128514874215" lon="-10.17939320017201"><ele>216.33333333333331</ele><time>2026-04-28T09:41:16Z</time></trkpt><trkpt lat="29.00526679840287" lon="-10.179563379835972"><ele>216.66666666666666</ele><time>2026-04-28T09:41:17Z</time></trkpt><trkpt lat="29.005402634046103" lon="-10.179737158687754"><ele>217.0</ele><time>2026-04-28T09:41:18Z</time></trkpt><trkpt lat="29.005540959961714" lon="-10.179911247121336"><ele>217.0</ele><time>2026-04-28T09:41:19Z</time></trkpt><trkpt lat="29.005678932910666" lon="-10.180087211899881"><ele>217.0</ele><time>2026-04-28T09:41:20Z</time></trkpt><trkpt lat="29.00581673646723" lon="-10.180264378641132"><ele>217.0</ele><time>2026-04-28T09:41:21Z</time></trkpt><trkpt lat="29.005950670649227" lon="-10.180440147215092"><ele>216.66666666666666</ele><time>2026-04-28T09:41:22Z</time></trkpt><trkpt lat="29.0060787223515" lon="-10.180609835115318"><ele>216.33333333333331</ele><time>2026-04-28T09:41:23Z</time></trkpt><trkpt lat="29.006200383969578" lon="-10.180777282639756"><ele>216.0</ele><time>2026-04-28T09:41:24Z</time></trkpt><trkpt lat="29.006317724422203" lon="-10.180945778370974"><ele>215.66666666666669</ele><time>2026-04-28T09:41:25Z</time></trkpt><trkpt lat="29.00642769919789" lon="-10.181114079583493"><ele>215.33333333333334</ele><time>2026-04-28T09:41:26Z</time></trkpt><trkpt lat="29.006522997518914" lon="-10.18127701226"><ele>215.0</ele><time>2026-04-28T09:41:27Z</time></trkpt><trkpt lat="29.00661029498747" lon="-10.181451724579386"><ele>215.0</ele><time>2026-04-28T09:41:28Z</time></trkpt><trkpt lat="29.00669140809426" lon="-10.181637583642662"><ele>215.0</ele><time>2026-04-28T09:41:29Z</time></trkpt><trkpt lat="29.006759342966316" lon="-10.181831833053822"><ele>215.0</ele><time>2026-04-28T09:41:30Z</time></trkpt><trkpt lat="29.006813335316927" lon="-10.182034193578504"><ele>215.0</ele><time>2026-04-28T09:41:31Z</time></trkpt><trkpt lat="29.00685184580787" lon="-10.18223852435652"><ele>215.0</ele><time>2026-04-28T09:41:32Z</time></trkpt><trkpt lat="29.006868565669304" lon="-10.182435242821985"><ele>215.0</ele><time>2026-04-28T09:41:33Z</time></trkpt><trkpt lat="29.006873063743836" lon="-10.182639106462915"><ele>214.66666666666669</ele><time>2026-04-28T09:41:34Z</time></trkpt><trkpt lat="29.006869452195307" lon="-10.182846134493994"><ele>214.33333333333331</ele><time>2026-04-28T09:41:35Z</time></trkpt><trkpt lat="29.006859795172815" lon="-10.183059231463819"><ele>214.0</ele><time>2026-04-28T09:41:36Z</time></trkpt><trkpt lat="29.00684148200131" lon="-10.18327945025856"><ele>213.66666666666666</ele><time>2026-04-28T09:41:37Z</time></trkpt><trkpt lat="29.00681436348554" lon="-10.183502991611483"><ele>213.33333333333331</ele><time>2026-04-28T09:41:38Z</time></trkpt><trkpt lat="29.0067848052096" lon="-10.183731085644716"><ele>213.0</ele><time>2026-04-28T09:41:39Z</time></trkpt><trkpt lat="29.006754791404454" lon="-10.183963165236728"><ele>212.0</ele><time>2026-04-28T09:41:40Z</time></trkpt><trkpt lat="29.006722854285776" lon="-10.184197730740344"><ele>211.0</ele><time>2026-04-28T09:41:41Z</time></trkpt><trkpt lat="29.00669351703141" lon="-10.184428363279435"><ele>210.0</ele><time>2026-04-28T09:41:42Z</time></trkpt><trkpt lat="29.006665585785207" lon="-10.184659325431392"><ele>209.33333333333331</ele><time>2026-04-28T09:41:43Z</time></trkpt><trkpt lat="29.006638364738354" lon="-10.184889000985324"><ele>208.66666666666666</ele><time>2026-04-28T09:41:44Z</time></trkpt><trkpt lat="29.006604794326105" lon="-10.185105580347344"><ele>208.0</ele><time>2026-04-28T09:41:45Z</time></trkpt><trkpt lat="29.006562128758823" lon="-10.18532404728265"><ele>208.0</ele><time>2026-04-28T09:41:46Z</time></trkpt><trkpt lat="29.006511748090375" lon="-10.185538638814487"><ele>208.0</ele><time>2026-04-28T09:41:47Z</time></trkpt><trkpt lat="29.00645240635825" lon="-10.185749717315105"><ele>208.0</ele><time>2026-04-28T09:41:48Z</time></trkpt><trkpt lat="29.006379201620497" lon="-10.18595878784744"><ele>208.33333333333331</ele><time>2026-04-28T09:41:49Z</time></trkpt><trkpt lat="29.006291526323505" lon="-10.186162324024338"><ele>208.66666666666669</ele><time>2026-04-28T09:41:50Z</time></trkpt><trkpt lat="29.006194055824736" lon="-10.186363410822763"><ele>209.0</ele><time>2026-04-28T09:41:51Z</time></trkpt><trkpt lat="29.006093007897938" lon="-10.186562541167271"><ele>208.66666666666669</ele><time>2026-04-28T09:41:52Z</time></trkpt><trkpt lat="29.005963115776535" lon="-10.186736530046705"><ele>208.33333333333331</ele><time>2026-04-28T09:41:53Z</time></trkpt><trkpt lat="29.0058488753744" lon="-10.186928675516052"><ele>208.0</ele><time>2026-04-28T09:41:54Z</time></trkpt><trkpt lat="29.005711438120965" lon="-10.18710860081542"><ele>208.0</ele><time>2026-04-28T09:41:55Z</time></trkpt><trkpt lat="29.005560154761323" lon="-10.187292579265627"><ele>208.0</ele><time>2026-04-28T09:41:56Z</time></trkpt><trkpt lat="29.00540457871916" lon="-10.1874793940755"><ele>208.0</ele><time>2026-04-28T09:41:57Z</time></trkpt><trkpt lat="29.00524617765621" lon="-10.187670706600324"><ele>207.5</ele><time>2026-04-28T09:41:58Z</time></trkpt><trkpt lat="29.005085828067717" lon="-10.187860456188627"><ele>207.0</ele><time>2026-04-28T09:41:59Z</time></trkpt><trkpt lat="29.004922871427187" lon="-10.188048605335357"><ele>207.0</ele><time>2026-04-28T09:42:00Z</time></trkpt><trkpt lat="29.004758520565158" lon="-10.188241120891085"><ele>207.0</ele><time>2026-04-28T09:42:01Z</time></trkpt><trkpt lat="29.00459331989797" lon="-10.188435532355747"><ele>207.0</ele><time>2026-04-28T09:42:02Z</time></trkpt><trkpt lat="29.00442775568486" lon="-10.188631841239863"><ele>207.0</ele><time>2026-04-28T09:42:03Z</time></trkpt><trkpt lat="29.0042626088007" lon="-10.188828829518654"><ele>207.0</ele><time>2026-04-28T09:42:04Z</time></trkpt><trkpt lat="29.004095975416238" lon="-10.189025583663735"><ele>207.0</ele><time>2026-04-28T09:42:05Z</time></trkpt><trkpt lat="29.003927927303565" lon="-10.1892257601017"><ele>207.0</ele><time>2026-04-28T09:42:06Z</time></trkpt><trkpt lat="29.00376137860755" lon="-10.189427859859572"><ele>207.0</ele><time>2026-04-28T09:42:07Z</time></trkpt><trkpt lat="29.003592684203998" lon="-10.189628838183351"><ele>207.0</ele><time>2026-04-28T09:42:08Z</time></trkpt><trkpt lat="29.00342218056943" lon="-10.18982948006179"><ele>207.0</ele><time>2026-04-28T09:42:09Z</time></trkpt><trkpt lat="29.003251937654472" lon="-10.190032047581344"><ele>205.5</ele><time>2026-04-28T09:42:10Z</time></trkpt><trkpt lat="29.003081321157403" lon="-10.190234482821847"><ele>204.0</ele><time>2026-04-28T09:42:11Z</time></trkpt><trkpt lat="29.002910968963484" lon="-10.190438923773643"><ele>204.0</ele><time>2026-04-28T09:42:12Z</time></trkpt><trkpt lat="29.002738764586887" lon="-10.190644545626576"><ele>204.0</ele><time>2026-04-28T09:42:13Z</time></trkpt><trkpt lat="29.002566396024356" lon="-10.190849753459538"><ele>204.0</ele><time>2026-04-28T09:42:14Z</time></trkpt><trkpt lat="29.002392451376625" lon="-10.191057102880386"><ele>204.0</ele><time>2026-04-28T09:42:15Z</time></trkpt><trkpt lat="29.002219168141483" lon="-10.191263865925926"><ele>204.0</ele><time>2026-04-28T09:42:16Z</time></trkpt><trkpt lat="29.0020423312938" lon="-10.191470372299573"><ele>204.0</ele><time>2026-04-28T09:42:17Z</time></trkpt><trkpt lat="29.001864977776375" lon="-10.191677281035691"><ele>204.0</ele><time>2026-04-28T09:42:18Z</time></trkpt><trkpt lat="29.001690653292567" lon="-10.191885166571396"><ele>204.0</ele><time>2026-04-28T09:42:19Z</time></trkpt><trkpt lat="29.001516787739682" lon="-10.192092175042443"><ele>204.0</ele><time>2026-04-28T09:42:20Z</time></trkpt><trkpt lat="29.001340545263094" lon="-10.192302123311343"><ele>204.0</ele><time>2026-04-28T09:42:21Z</time></trkpt><trkpt lat="29.001163036499133" lon="-10.192511147237775"><ele>204.0</ele><time>2026-04-28T09:42:22Z</time></trkpt><trkpt lat="29.001006261839056" lon="-10.192739870766243"><ele>204.0</ele><time>2026-04-28T09:42:23Z</time></trkpt><trkpt lat="29.00083045020664" lon="-10.192949023061429"><ele>204.0</ele><time>2026-04-28T09:42:24Z</time></trkpt><trkpt lat="29.000654362290508" lon="-10.193158115012238"><ele>204.0</ele><time>2026-04-28T09:42:25Z</time></trkpt><trkpt lat="29.00047785483779" lon="-10.193368000479929"><ele>204.0</ele><time>2026-04-28T09:42:26Z</time></trkpt><trkpt lat="29.000299992155217" lon="-10.19357949148338"><ele>204.0</ele><time>2026-04-28T09:42:27Z</time></trkpt><trkpt lat="29.000122983059157" lon="-10.193789970250046"><ele>204.0</ele><time>2026-04-28T09:42:28Z</time></trkpt><trkpt lat="28.999947459641962" lon="-10.193998784206853"><ele>204.0</ele><time>2026-04-28T09:42:29Z</time></trkpt><trkpt lat="28.99977280058576" lon="-10.194206569859592"><ele>203.5</ele><time>2026-04-28T09:42:30Z</time></trkpt><trkpt lat="28.999599189039973" lon="-10.194412872907778"><ele>203.0</ele><time>2026-04-28T09:42:31Z</time></trkpt><trkpt lat="28.99942736023404" lon="-10.194617078034955"><ele>203.0</ele><time>2026-04-28T09:42:32Z</time></trkpt><trkpt lat="28.99925897896129" lon="-10.194817396471693"><ele>203.0</ele><time>2026-04-28T09:42:33Z</time></trkpt><trkpt lat="28.999093725204062" lon="-10.19501399420881"><ele>203.5</ele><time>2026-04-28T09:42:34Z</time></trkpt><trkpt lat="28.99892896898953" lon="-10.195209276873687"><ele>204.0</ele><time>2026-04-28T09:42:35Z</time></trkpt><trkpt lat="28.998766489317408" lon="-10.195400767489415"><ele>204.0</ele><time>2026-04-28T09:42:36Z</time></trkpt><trkpt lat="28.998592495006463" lon="-10.19557666691598"><ele>204.0</ele><time>2026-04-28T09:42:37Z</time></trkpt><trkpt lat="28.998434107519174" lon="-10.195765799832268"><ele>203.5</ele><time>2026-04-28T09:42:38Z</time></trkpt><trkpt lat="28.99827696163293" lon="-10.195952350756448"><ele>203.0</ele><time>2026-04-28T09:42:39Z</time></trkpt><trkpt lat="28.99811868784148" lon="-10.196135045936021"><ele>203.0</ele><time>2026-04-28T09:42:40Z</time></trkpt><trkpt lat="28.99796201683515" lon="-10.196318007644816"><ele>203.0</ele><time>2026-04-28T09:42:41Z</time></trkpt><trkpt lat="28.99780659840988" lon="-10.196501579955964"><ele>203.0</ele><time>2026-04-28T09:42:42Z</time></trkpt><trkpt lat="28.99765136022486" lon="-10.196682691911848"><ele>202.66666666666669</ele><time>2026-04-28T09:42:43Z</time></trkpt><trkpt lat="28.99749930442543" lon="-10.196863891597685"><ele>202.33333333333331</ele><time>2026-04-28T09:42:44Z</time></trkpt><trkpt lat="28.99734994447125" lon="-10.197049202866507"><ele>202.0</ele><time>2026-04-28T09:42:45Z</time></trkpt><trkpt lat="28.997199738130774" lon="-10.197231559525273"><ele>201.33333333333331</ele><time>2026-04-28T09:42:46Z</time></trkpt><trkpt lat="28.997046555042587" lon="-10.197412554315703"><ele>200.66666666666669</ele><time>2026-04-28T09:42:47Z</time></trkpt><trkpt lat="28.996895280578446" lon="-10.197591892037666"><ele>200.0</ele><time>2026-04-28T09:42:48Z</time></trkpt><trkpt lat="28.99674459391551" lon="-10.197773555654178"><ele>199.66666666666669</ele><time>2026-04-28T09:42:49Z</time></trkpt><trkpt lat="28.996594110357503" lon="-10.197955209963533"><ele>199.33333333333331</ele><time>2026-04-28T09:42:50Z</time></trkpt><trkpt lat="28.996441986552167" lon="-10.198135253206882"><ele>199.0</ele><time>2026-04-28T09:42:51Z</time></trkpt><trkpt lat="28.996289257238395" lon="-10.198314392736231"><ele>199.0</ele><time>2026-04-28T09:42:52Z</time></trkpt><trkpt lat="28.996136989954664" lon="-10.198495163363907"><ele>199.0</ele><time>2026-04-28T09:42:53Z</time></trkpt><trkpt lat="28.995982866841018" lon="-10.198677802639807"><ele>199.0</ele><time>2026-04-28T09:42:54Z</time></trkpt><trkpt lat="28.995827362247375" lon="-10.198862162534232"><ele>199.66666666666666</ele><time>2026-04-28T09:42:55Z</time></trkpt><trkpt lat="28.995671880394944" lon="-10.199047116455574"><ele>200.33333333333331</ele><time>2026-04-28T09:42:56Z</time></trkpt><trkpt lat="28.995528797741905" lon="-10.199245774106474"><ele>201.0</ele><time>2026-04-28T09:42:57Z</time></trkpt><trkpt lat="28.99537324061368" lon="-10.199432980917045"><ele>201.0</ele><time>2026-04-28T09:42:58Z</time></trkpt><trkpt lat="28.995216681947106" lon="-10.199621626510076"><ele>201.0</ele><time>2026-04-28T09:42:59Z</time></trkpt><trkpt lat="28.995059541345686" lon="-10.199810973315902"><ele>201.5</ele><time>2026-04-28T09:43:00Z</time></trkpt><trkpt lat="28.994902104769118" lon="-10.200001125443412"><ele>202.0</ele><time>2026-04-28T09:43:01Z</time></trkpt><trkpt lat="28.99474529185085" lon="-10.200190693295943"><ele>202.0</ele><time>2026-04-28T09:43:02Z</time></trkpt><trkpt lat="28.994588431379775" lon="-10.200380318630472"><ele>202.0</ele><time>2026-04-28T09:43:03Z</time></trkpt><trkpt lat="28.994430792268215" lon="-10.200570545689427"><ele>202.0</ele><time>2026-04-28T09:43:04Z</time></trkpt><trkpt lat="28.994273002881197" lon="-10.200760997278621"><ele>202.0</ele><time>2026-04-28T09:43:05Z</time></trkpt><trkpt lat="28.994114481551836" lon="-10.200951512010844"><ele>202.0</ele><time>2026-04-28T09:43:06Z</time></trkpt><trkpt lat="28.993956206055902" lon="-10.201142799434585"><ele>202.0</ele><time>2026-04-28T09:43:07Z</time></trkpt><trkpt lat="28.993797826322833" lon="-10.201334239421534"><ele>201.0</ele><time>2026-04-28T09:43:08Z</time></trkpt><trkpt lat="28.993634911769178" lon="-10.201524174194887"><ele>200.0</ele><time>2026-04-28T09:43:09Z</time></trkpt><trkpt lat="28.993470120457232" lon="-10.201712317838268"><ele>201.0</ele><time>2026-04-28T09:43:10Z</time></trkpt><trkpt lat="28.993304253659804" lon="-10.2019012497173"><ele>202.0</ele><time>2026-04-28T09:43:11Z</time></trkpt><trkpt lat="28.993137648067602" lon="-10.202091386667322"><ele>202.0</ele><time>2026-04-28T09:43:12Z</time></trkpt><trkpt lat="28.992971813335018" lon="-10.202280966518792"><ele>202.0</ele><time>2026-04-28T09:43:13Z</time></trkpt><trkpt lat="28.992797608815863" lon="-10.202461982287485"><ele>202.0</ele><time>2026-04-28T09:43:14Z</time></trkpt><trkpt lat="28.992635339065444" lon="-10.20265765369194"><ele>202.0</ele><time>2026-04-28T09:43:15Z</time></trkpt><trkpt lat="28.992472862420595" lon="-10.20285174947731"><ele>202.0</ele><time>2026-04-28T09:43:16Z</time></trkpt><trkpt lat="28.992310115611193" lon="-10.203048642143562"><ele>202.0</ele><time>2026-04-28T09:43:17Z</time></trkpt><trkpt lat="28.99215742676499" lon="-10.203257726129372"><ele>201.0</ele><time>2026-04-28T09:43:18Z</time></trkpt><trkpt lat="28.99199500104685" lon="-10.203454367666549"><ele>200.0</ele><time>2026-04-28T09:43:19Z</time></trkpt><trkpt lat="28.991832785262226" lon="-10.203651114567288"><ele>200.0</ele><time>2026-04-28T09:43:20Z</time></trkpt><trkpt lat="28.991670184056893" lon="-10.203844683391733"><ele>200.0</ele><time>2026-04-28T09:43:21Z</time></trkpt><trkpt lat="28.991506558228156" lon="-10.204038125365969"><ele>200.0</ele><time>2026-04-28T09:43:22Z</time></trkpt><trkpt lat="28.991342815570366" lon="-10.204231685358804"><ele>200.0</ele><time>2026-04-28T09:43:23Z</time></trkpt><trkpt lat="28.991164422598075" lon="-10.204409632272133"><ele>200.0</ele><time>2026-04-28T09:43:24Z</time></trkpt><trkpt lat="28.991000334108747" lon="-10.204604848351622"><ele>200.0</ele><time>2026-04-28T09:43:25Z</time></trkpt><trkpt lat="28.990835851142904" lon="-10.204800103822818"><ele>200.5</ele><time>2026-04-28T09:43:26Z</time></trkpt><trkpt lat="28.990670175120126" lon="-10.204996347991326"><ele>201.0</ele><time>2026-04-28T09:43:27Z</time></trkpt><trkpt lat="28.99050308333246" lon="-10.205191573532664"><ele>201.0</ele><time>2026-04-28T09:43:28Z</time></trkpt><trkpt lat="28.99033650474629" lon="-10.205387603457273"><ele>201.0</ele><time>2026-04-28T09:43:29Z</time></trkpt><trkpt lat="28.99017068913408" lon="-10.205585266571525"><ele>201.0</ele><time>2026-04-28T09:43:30Z</time></trkpt><trkpt lat="28.990005539628324" lon="-10.205785298686461"><ele>201.0</ele><time>2026-04-28T09:43:31Z</time></trkpt><trkpt lat="28.989838862067284" lon="-10.2059834508397"><ele>201.0</ele><time>2026-04-28T09:43:32Z</time></trkpt><trkpt lat="28.989671176055655" lon="-10.206181045907517"><ele>201.0</ele><time>2026-04-28T09:43:33Z</time></trkpt><trkpt lat="28.98950327182055" lon="-10.206378669695704"><ele>201.0</ele><time>2026-04-28T09:43:34Z</time></trkpt><trkpt lat="28.989336276578953" lon="-10.206576068408499"><ele>201.0</ele><time>2026-04-28T09:43:35Z</time></trkpt><trkpt lat="28.989169339487383" lon="-10.206776736746209"><ele>200.5</ele><time>2026-04-28T09:43:36Z</time></trkpt><trkpt lat="28.98900287119471" lon="-10.20697551874742"><ele>200.0</ele><time>2026-04-28T09:43:37Z</time></trkpt><trkpt lat="28.988835502978823" lon="-10.207171876704694"><ele>200.5</ele><time>2026-04-28T09:43:38Z</time></trkpt><trkpt lat="28.98866868597677" lon="-10.207368390190641"><ele>201.0</ele><time>2026-04-28T09:43:39Z</time></trkpt><trkpt lat="28.988500948643996" lon="-10.207563698354164"><ele>201.5</ele><time>2026-04-28T09:43:40Z</time></trkpt><trkpt lat="28.988334944253875" lon="-10.207759309816332"><ele>202.0</ele><time>2026-04-28T09:43:41Z</time></trkpt><trkpt lat="28.988170315081177" lon="-10.207956389890175"><ele>202.0</ele><time>2026-04-28T09:43:42Z</time></trkpt><trkpt lat="28.98800438993988" lon="-10.208155026180448"><ele>202.0</ele><time>2026-04-28T09:43:43Z</time></trkpt><trkpt lat="28.987840070831055" lon="-10.20835140019051"><ele>201.0</ele><time>2026-04-28T09:43:44Z</time></trkpt><trkpt lat="28.987674316351942" lon="-10.20854991807671"><ele>200.0</ele><time>2026-04-28T09:43:45Z</time></trkpt><trkpt lat="28.987508074642175" lon="-10.208748051852748"><ele>200.0</ele><time>2026-04-28T09:43:46Z</time></trkpt><trkpt lat="28.987340551528888" lon="-10.20894691406026"><ele>200.0</ele><time>2026-04-28T09:43:47Z</time></trkpt><trkpt lat="28.987173823626932" lon="-10.20914360888013"><ele>200.0</ele><time>2026-04-28T09:43:48Z</time></trkpt><trkpt lat="28.987007444634898" lon="-10.209341271128489"><ele>200.0</ele><time>2026-04-28T09:43:49Z</time></trkpt><trkpt lat="28.98684049928819" lon="-10.209539545467322"><ele>200.0</ele><time>2026-04-28T09:43:50Z</time></trkpt><trkpt lat="28.98667451625674" lon="-10.209733707265482"><ele>200.0</ele><time>2026-04-28T09:43:51Z</time></trkpt><trkpt lat="28.98650987974936" lon="-10.209929575292472"><ele>199.5</ele><time>2026-04-28T09:43:52Z</time></trkpt><trkpt lat="28.986345023875984" lon="-10.21012430153214"><ele>199.0</ele><time>2026-04-28T09:43:53Z</time></trkpt><trkpt lat="28.98617898638522" lon="-10.21032055621744"><ele>199.0</ele><time>2026-04-28T09:43:54Z</time></trkpt><trkpt lat="28.98601637066788" lon="-10.210516898053534"><ele>199.0</ele><time>2026-04-28T09:43:55Z</time></trkpt><trkpt lat="28.985851902561585" lon="-10.21071462560136"><ele>199.5</ele><time>2026-04-28T09:43:56Z</time></trkpt><trkpt lat="28.985685679727894" lon="-10.210910991670458"><ele>200.0</ele><time>2026-04-28T09:43:57Z</time></trkpt><trkpt lat="28.9855198697465" lon="-10.211104398995017"><ele>200.0</ele><time>2026-04-28T09:43:58Z</time></trkpt><trkpt lat="28.98535335160693" lon="-10.211298882328087"><ele>200.0</ele><time>2026-04-28T09:43:59Z</time></trkpt><trkpt lat="28.985187822436625" lon="-10.211494308123124"><ele>200.0</ele><time>2026-04-28T09:44:00Z</time></trkpt><trkpt lat="28.985023417945406" lon="-10.211690365194626"><ele>200.0</ele><time>2026-04-28T09:44:01Z</time></trkpt><trkpt lat="28.984860080612364" lon="-10.21188679112804"><ele>199.5</ele><time>2026-04-28T09:44:02Z</time></trkpt><trkpt lat="28.984698185414008" lon="-10.212085602706512"><ele>199.0</ele><time>2026-04-28T09:44:03Z</time></trkpt><trkpt lat="28.98453593076729" lon="-10.212281741742787"><ele>199.5</ele><time>2026-04-28T09:44:04Z</time></trkpt><trkpt lat="28.984371385369666" lon="-10.212475391794474"><ele>200.0</ele><time>2026-04-28T09:44:05Z</time></trkpt><trkpt lat="28.984206370526948" lon="-10.212667018553308"><ele>199.5</ele><time>2026-04-28T09:44:06Z</time></trkpt><trkpt lat="28.984040255504503" lon="-10.212859792005027"><ele>199.0</ele><time>2026-04-28T09:44:07Z</time></trkpt><trkpt lat="28.983874301860496" lon="-10.213050550007106"><ele>199.0</ele><time>2026-04-28T09:44:08Z</time></trkpt><trkpt lat="28.98371133361693" lon="-10.21324157807727"><ele>199.0</ele><time>2026-04-28T09:44:09Z</time></trkpt><trkpt lat="28.983550752228805" lon="-10.213435252773522"><ele>199.0</ele><time>2026-04-28T09:44:10Z</time></trkpt><trkpt lat="28.98339088058039" lon="-10.213626547696677"><ele>199.0</ele><time>2026-04-28T09:44:11Z</time></trkpt><trkpt lat="28.983228847572093" lon="-10.213818295906162"><ele>199.5</ele><time>2026-04-28T09:44:12Z</time></trkpt><trkpt lat="28.98306456205129" lon="-10.21401047588467"><ele>200.0</ele><time>2026-04-28T09:44:13Z</time></trkpt><trkpt lat="28.98290184089598" lon="-10.214204317800993"><ele>200.0</ele><time>2026-04-28T09:44:14Z</time></trkpt><trkpt lat="28.982740655049763" lon="-10.214398825609408"><ele>200.0</ele><time>2026-04-28T09:44:15Z</time></trkpt><trkpt lat="28.982579111059344" lon="-10.214592140072524"><ele>199.5</ele><time>2026-04-28T09:44:16Z</time></trkpt><trkpt lat="28.982415486489124" lon="-10.214783980603752"><ele>199.0</ele><time>2026-04-28T09:44:17Z</time></trkpt><trkpt lat="28.982251592412396" lon="-10.21497621534229"><ele>200.0</ele><time>2026-04-28T09:44:18Z</time></trkpt><trkpt lat="28.982090269460453" lon="-10.215168746482833"><ele>201.0</ele><time>2026-04-28T09:44:19Z</time></trkpt><trkpt lat="28.981932874583638" lon="-10.215360583903042"><ele>201.0</ele><time>2026-04-28T09:44:20Z</time></trkpt><trkpt lat="28.981774802139697" lon="-10.215554548262133"><ele>201.0</ele><time>2026-04-28T09:44:21Z</time></trkpt><trkpt lat="28.981614705691534" lon="-10.215745800950058"><ele>201.0</ele><time>2026-04-28T09:44:22Z</time></trkpt><trkpt lat="28.98145190164701" lon="-10.215933767499402"><ele>201.0</ele><time>2026-04-28T09:44:23Z</time></trkpt><trkpt lat="28.981289364341706" lon="-10.216120631328959"><ele>201.0</ele><time>2026-04-28T09:44:24Z</time></trkpt><trkpt lat="28.9811279930292" lon="-10.216309421576197"><ele>201.0</ele><time>2026-04-28T09:44:25Z</time></trkpt><trkpt lat="28.98096768419358" lon="-10.216500441887785"><ele>200.0</ele><time>2026-04-28T09:44:26Z</time></trkpt><trkpt lat="28.980806902712068" lon="-10.216694240486927"><ele>199.0</ele><time>2026-04-28T09:44:27Z</time></trkpt><trkpt lat="28.980646703854525" lon="-10.216889643309106"><ele>199.0</ele><time>2026-04-28T09:44:28Z</time></trkpt><trkpt lat="28.980484394034267" lon="-10.217085678108102"><ele>199.0</ele><time>2026-04-28T09:44:29Z</time></trkpt><trkpt lat="28.98032043867436" lon="-10.217279483791042"><ele>199.0</ele><time>2026-04-28T09:44:30Z</time></trkpt><trkpt lat="28.98015271598136" lon="-10.217471518405716"><ele>199.0</ele><time>2026-04-28T09:44:31Z</time></trkpt><trkpt lat="28.979983855349655" lon="-10.217661332232163"><ele>198.5</ele><time>2026-04-28T09:44:32Z</time></trkpt><trkpt lat="28.979834029460257" lon="-10.217867093615546"><ele>198.0</ele><time>2026-04-28T09:44:33Z</time></trkpt><trkpt lat="28.979674342699084" lon="-10.218062112696238"><ele>197.5</ele><time>2026-04-28T09:44:34Z</time></trkpt><trkpt lat="28.979514379949794" lon="-10.218257800612028"><ele>197.0</ele><time>2026-04-28T09:44:35Z</time></trkpt><trkpt lat="28.979353194909887" lon="-10.218454983798292"><ele>197.0</ele><time>2026-04-28T09:44:36Z</time></trkpt><trkpt lat="28.97919260234442" lon="-10.218651415004992"><ele>197.0</ele><time>2026-04-28T09:44:37Z</time></trkpt><trkpt lat="28.979032637269174" lon="-10.21884707272872"><ele>198.0</ele><time>2026-04-28T09:44:38Z</time></trkpt><trkpt lat="28.978872177402373" lon="-10.219043335644795"><ele>199.0</ele><time>2026-04-28T09:44:39Z</time></trkpt><trkpt lat="28.978711578372245" lon="-10.219238371632605"><ele>199.0</ele><time>2026-04-28T09:44:40Z</time></trkpt><trkpt lat="28.97855017545218" lon="-10.219431760804483"><ele>199.0</ele><time>2026-04-28T09:44:41Z</time></trkpt><trkpt lat="28.978387391840574" lon="-10.219626804286182"><ele>198.0</ele><time>2026-04-28T09:44:42Z</time></trkpt><trkpt lat="28.978226040077313" lon="-10.219820161394841"><ele>197.0</ele><time>2026-04-28T09:44:43Z</time></trkpt><trkpt lat="28.978064958274917" lon="-10.220013748967155"><ele>197.0</ele><time>2026-04-28T09:44:44Z</time></trkpt><trkpt lat="28.977902422822183" lon="-10.220209083535792"><ele>197.0</ele><time>2026-04-28T09:44:45Z</time></trkpt><trkpt lat="28.97774086033618" lon="-10.22040308953662"><ele>197.0</ele><time>2026-04-28T09:44:46Z</time></trkpt><trkpt lat="28.977578214347353" lon="-10.220597854075262"><ele>197.0</ele><time>2026-04-28T09:44:47Z</time></trkpt><trkpt lat="28.977418548460133" lon="-10.220790935668624"><ele>196.5</ele><time>2026-04-28T09:44:48Z</time></trkpt><trkpt lat="28.977258367705065" lon="-10.220983941158693"><ele>196.0</ele><time>2026-04-28T09:44:49Z</time></trkpt><trkpt lat="28.97709817469847" lon="-10.221176894251785"><ele>196.0</ele><time>2026-04-28T09:44:50Z</time></trkpt><trkpt lat="28.97693610668045" lon="-10.221371677924754"><ele>196.0</ele><time>2026-04-28T09:44:51Z</time></trkpt><trkpt lat="28.976758186085046" lon="-10.221544882093278"><ele>195.5</ele><time>2026-04-28T09:44:52Z</time></trkpt><trkpt lat="28.97659492328945" lon="-10.221735828090871"><ele>195.0</ele><time>2026-04-28T09:44:53Z</time></trkpt><trkpt lat="28.97642644596014" lon="-10.22192308585916"><ele>195.0</ele><time>2026-04-28T09:44:54Z</time></trkpt><trkpt lat="28.976251285835954" lon="-10.222101166409018"><ele>195.0</ele><time>2026-04-28T09:44:55Z</time></trkpt><trkpt lat="28.976070759261262" lon="-10.222276119903324"><ele>195.5</ele><time>2026-04-28T09:44:56Z</time></trkpt><trkpt lat="28.9758857097718" lon="-10.222444253248858"><ele>196.0</ele><time>2026-04-28T09:44:57Z</time></trkpt><trkpt lat="28.975694712529915" lon="-10.222606697268619"><ele>196.0</ele><time>2026-04-28T09:44:58Z</time></trkpt><trkpt lat="28.975502911375266" lon="-10.222766658711427"><ele>196.0</ele><time>2026-04-28T09:44:59Z</time></trkpt><trkpt lat="28.975316869910102" lon="-10.222925809759943"><ele>196.0</ele><time>2026-04-28T09:45:00Z</time></trkpt><trkpt lat="28.975142716145047" lon="-10.223078378443104"><ele>196.0</ele><time>2026-04-28T09:45:01Z</time></trkpt><trkpt lat="28.9749751937087" lon="-10.22322462993943"><ele>196.0</ele><time>2026-04-28T09:45:02Z</time></trkpt><trkpt lat="28.974816467703825" lon="-10.223365073471815"><ele>195.33333333333331</ele><time>2026-04-28T09:45:03Z</time></trkpt><trkpt lat="28.97466645262887" lon="-10.223501843079934"><ele>194.66666666666669</ele><time>2026-04-28T09:45:04Z</time></trkpt><trkpt lat="28.97452657515462" lon="-10.223634576559773"><ele>194.0</ele><time>2026-04-28T09:45:05Z</time></trkpt><trkpt lat="28.974399363114642" lon="-10.223766554688154"><ele>194.0</ele><time>2026-04-28T09:45:06Z</time></trkpt><trkpt lat="28.974293308026184" lon="-10.223905667855986"><ele>194.0</ele><time>2026-04-28T09:45:07Z</time></trkpt><trkpt lat="28.974201747969943" lon="-10.224057062212498"><ele>194.0</ele><time>2026-04-28T09:45:08Z</time></trkpt><trkpt lat="28.97411587183104" lon="-10.224236495927094"><ele>194.0</ele><time>2026-04-28T09:45:09Z</time></trkpt><trkpt lat="28.974054383663482" lon="-10.224421742134732"><ele>194.0</ele><time>2026-04-28T09:45:10Z</time></trkpt><trkpt lat="28.97401830422128" lon="-10.224618659961937"><ele>194.0</ele><time>2026-04-28T09:45:11Z</time></trkpt><trkpt lat="28.97400464242808" lon="-10.224825285225343"><ele>194.0</ele><time>2026-04-28T09:45:12Z</time></trkpt><trkpt lat="28.974012432282343" lon="-10.225045842546747"><ele>194.0</ele><time>2026-04-28T09:45:13Z</time></trkpt><trkpt lat="28.974026784597644" lon="-10.22527498775915"><ele>194.0</ele><time>2026-04-28T09:45:14Z</time></trkpt><trkpt lat="28.974035039536627" lon="-10.225502372857681"><ele>194.66666666666669</ele><time>2026-04-28T09:45:15Z</time></trkpt><trkpt lat="28.974048259338357" lon="-10.225709600591"><ele>195.33333333333331</ele><time>2026-04-28T09:45:16Z</time></trkpt><trkpt lat="28.974062632341084" lon="-10.22590153476501"><ele>196.0</ele><time>2026-04-28T09:45:17Z</time></trkpt><trkpt lat="28.97409037979637" lon="-10.226080449920941"><ele>196.0</ele><time>2026-04-28T09:45:18Z</time></trkpt><trkpt lat="28.97407784485062" lon="-10.226247589240808"><ele>196.0</ele><time>2026-04-28T09:45:19Z</time></trkpt><trkpt lat="28.97407586400198" lon="-10.226405660998099"><ele>196.0</ele><time>2026-04-28T09:45:20Z</time></trkpt><trkpt lat="28.97405944659144" lon="-10.226574733410608"><ele>196.0</ele><time>2026-04-28T09:45:21Z</time></trkpt><trkpt lat="28.97401849152203" lon="-10.226751892869974"><ele>195.66666666666666</ele><time>2026-04-28T09:45:22Z</time></trkpt><trkpt lat="28.973951913818027" lon="-10.226932421142385"><ele>195.33333333333331</ele><time>2026-04-28T09:45:23Z</time></trkpt><trkpt lat="28.97386532649317" lon="-10.227096197957975"><ele>195.0</ele><time>2026-04-28T09:45:24Z</time></trkpt><trkpt lat="28.973766970786453" lon="-10.227235276488068"><ele>194.33333333333331</ele><time>2026-04-28T09:45:25Z</time></trkpt><trkpt lat="28.973659879541877" lon="-10.227350144657246"><ele>193.66666666666666</ele><time>2026-04-28T09:45:26Z</time></trkpt><trkpt lat="28.973535038665" lon="-10.227450393397415"><ele>193.0</ele><time>2026-04-28T09:45:27Z</time></trkpt><trkpt lat="28.973394500458024" lon="-10.227529620287193"><ele>194.66666666666666</ele><time>2026-04-28T09:45:28Z</time></trkpt><trkpt lat="28.97324207989419" lon="-10.227586239078056"><ele>196.33333333333331</ele><time>2026-04-28T09:45:29Z</time></trkpt><trkpt lat="28.973075409981927" lon="-10.227625561875373"><ele>198.0</ele><time>2026-04-28T09:45:30Z</time></trkpt><trkpt lat="28.972894668924493" lon="-10.227646770924489"><ele>198.0</ele><time>2026-04-28T09:45:31Z</time></trkpt><trkpt lat="28.972702211330706" lon="-10.227653972656704"><ele>198.0</ele><time>2026-04-28T09:45:32Z</time></trkpt><trkpt lat="28.972506914233858" lon="-10.227651032685026"><ele>198.0</ele><time>2026-04-28T09:45:33Z</time></trkpt><trkpt lat="28.97230786905397" lon="-10.227657611003977"><ele>198.0</ele><time>2026-04-28T09:45:34Z</time></trkpt><trkpt lat="28.97210889497737" lon="-10.227675412551532"><ele>198.0</ele><time>2026-04-28T09:45:35Z</time></trkpt><trkpt lat="28.971912850237977" lon="-10.227704989100301"><ele>198.0</ele><time>2026-04-28T09:45:36Z</time></trkpt><trkpt lat="28.971716726696055" lon="-10.227748941649535"><ele>196.66666666666669</ele><time>2026-04-28T09:45:37Z</time></trkpt><trkpt lat="28.97151875018866" lon="-10.227803801247653"><ele>195.33333333333334</ele><time>2026-04-28T09:45:38Z</time></trkpt><trkpt lat="28.971328450905293" lon="-10.227868421194106"><ele>194.0</ele><time>2026-04-28T09:45:39Z</time></trkpt><trkpt lat="28.971146022059315" lon="-10.227932819555289"><ele>194.0</ele><time>2026-04-28T09:45:40Z</time></trkpt><trkpt lat="28.97096942174269" lon="-10.227997808497529"><ele>194.0</ele><time>2026-04-28T09:45:41Z</time></trkpt><trkpt lat="28.970798218929325" lon="-10.22805755208832"><ele>194.0</ele><time>2026-04-28T09:45:42Z</time></trkpt><trkpt lat="28.97063163591749" lon="-10.228112077983448"><ele>192.5</ele><time>2026-04-28T09:45:43Z</time></trkpt><trkpt lat="28.970475703769953" lon="-10.228169924603792"><ele>191.0</ele><time>2026-04-28T09:45:44Z</time></trkpt><trkpt lat="28.97034203685793" lon="-10.228235215135582"><ele>189.5</ele><time>2026-04-28T09:45:45Z</time></trkpt><trkpt lat="28.970233904399574" lon="-10.22831472374336"><ele>188.0</ele><time>2026-04-28T09:45:46Z</time></trkpt><trkpt lat="28.97014120180217" lon="-10.228415046395192"><ele>188.0</ele><time>2026-04-28T09:45:47Z</time></trkpt><trkpt lat="28.97006176017218" lon="-10.228541370704864"><ele>188.0</ele><time>2026-04-28T09:45:48Z</time></trkpt><trkpt lat="28.969999791398454" lon="-10.228697185908167"><ele>188.0</ele><time>2026-04-28T09:45:49Z</time></trkpt><trkpt lat="28.96993317019026" lon="-10.22888478971501"><ele>189.66666666666666</ele><time>2026-04-28T09:45:50Z</time></trkpt><trkpt lat="28.96986186542437" lon="-10.229076669577779"><ele>191.33333333333331</ele><time>2026-04-28T09:45:51Z</time></trkpt><trkpt lat="28.969799027741985" lon="-10.22925696114563"><ele>193.0</ele><time>2026-04-28T09:45:52Z</time></trkpt><trkpt lat="28.969748637032662" lon="-10.229425302625781"><ele>193.0</ele><time>2026-04-28T09:45:53Z</time></trkpt><trkpt lat="28.969715408850817" lon="-10.229584970406998"><ele>193.0</ele><time>2026-04-28T09:45:54Z</time></trkpt><trkpt lat="28.969702104264567" lon="-10.229744821854652"><ele>193.0</ele><time>2026-04-28T09:45:55Z</time></trkpt><trkpt lat="28.969706351911125" lon="-10.229915870458411"><ele>193.0</ele><time>2026-04-28T09:45:56Z</time></trkpt><trkpt lat="28.969730010599587" lon="-10.23009730413667"><ele>193.33333333333331</ele><time>2026-04-28T09:45:57Z</time></trkpt><trkpt lat="28.96977482731013" lon="-10.230287397061744"><ele>193.66666666666669</ele><time>2026-04-28T09:45:58Z</time></trkpt><trkpt lat="28.96984672177575" lon="-10.230486923694789"><ele>194.0</ele><time>2026-04-28T09:45:59Z</time></trkpt><trkpt lat="28.969928194660206" lon="-10.230690522156298"><ele>194.33333333333334</ele><time>2026-04-28T09:46:00Z</time></trkpt><trkpt lat="28.970006830078617" lon="-10.230888362693504"><ele>194.66666666666669</ele><time>2026-04-28T09:46:01Z</time></trkpt><trkpt lat="28.97008026953079" lon="-10.23108291944717"><ele>195.0</ele><time>2026-04-28T09:46:02Z</time></trkpt><trkpt lat="28.970151283129" lon="-10.231278016064616"><ele>195.66666666666669</ele><time>2026-04-28T09:46:03Z</time></trkpt><trkpt lat="28.970223737748274" lon="-10.231475022125732"><ele>196.33333333333334</ele><time>2026-04-28T09:46:04Z</time></trkpt><trkpt lat="28.97029844437633" lon="-10.231672882386455"><ele>197.0</ele><time>2026-04-28T09:46:05Z</time></trkpt><trkpt lat="28.970372248430646" lon="-10.231868306999809"><ele>197.0</ele><time>2026-04-28T09:46:06Z</time></trkpt><trkpt lat="28.97044410882657" lon="-10.232062934745718"><ele>197.0</ele><time>2026-04-28T09:46:07Z</time></trkpt><trkpt lat="28.970522536019015" lon="-10.232253692312907"><ele>197.0</ele><time>2026-04-28T09:46:08Z</time></trkpt><trkpt lat="28.970613715705728" lon="-10.232440801349233"><ele>197.33333333333334</ele><time>2026-04-28T09:46:09Z</time></trkpt><trkpt lat="28.970720295554802" lon="-10.232627447308806"><ele>197.66666666666669</ele><time>2026-04-28T09:46:10Z</time></trkpt><trkpt lat="28.970851049154625" lon="-10.232810955226848"><ele>198.0</ele><time>2026-04-28T09:46:11Z</time></trkpt><trkpt lat="28.970998341831603" lon="-10.232987778902508"><ele>200.33333333333331</ele><time>2026-04-28T09:46:12Z</time></trkpt><trkpt lat="28.971134466570863" lon="-10.2331532146717"><ele>202.66666666666666</ele><time>2026-04-28T09:46:13Z</time></trkpt><trkpt lat="28.97126817934282" lon="-10.233321249940497"><ele>205.0</ele><time>2026-04-28T09:46:14Z</time></trkpt><trkpt lat="28.97138703226658" lon="-10.23347434690877"><ele>205.0</ele><time>2026-04-28T09:46:15Z</time></trkpt><trkpt lat="28.97149748025089" lon="-10.233618520013122"><ele>205.0</ele><time>2026-04-28T09:46:16Z</time></trkpt><trkpt lat="28.971599525773605" lon="-10.233754425385255"><ele>205.0</ele><time>2026-04-28T09:46:17Z</time></trkpt><trkpt lat="28.97170546608617" lon="-10.233901308157703"><ele>204.66666666666666</ele><time>2026-04-28T09:46:18Z</time></trkpt><trkpt lat="28.971803334400832" lon="-10.234050957907225"><ele>204.33333333333331</ele><time>2026-04-28T09:46:19Z</time></trkpt><trkpt lat="28.971891431677854" lon="-10.234206944024814"><ele>204.0</ele><time>2026-04-28T09:46:20Z</time></trkpt><trkpt lat="28.97196296122211" lon="-10.234371810974006"><ele>204.0</ele><time>2026-04-28T09:46:21Z</time></trkpt><trkpt lat="28.972019785710653" lon="-10.234551024585056"><ele>204.0</ele><time>2026-04-28T09:46:22Z</time></trkpt><trkpt lat="28.972064401362616" lon="-10.23474055158709"><ele>204.0</ele><time>2026-04-28T09:46:23Z</time></trkpt><trkpt lat="28.97209618588721" lon="-10.234936593491897"><ele>204.0</ele><time>2026-04-28T09:46:24Z</time></trkpt><trkpt lat="28.972104809012563" lon="-10.235134781666202"><ele>204.0</ele><time>2026-04-28T09:46:25Z</time></trkpt><trkpt lat="28.972099362023826" lon="-10.235357142521716"><ele>204.0</ele><time>2026-04-28T09:46:26Z</time></trkpt><trkpt lat="28.972087732486795" lon="-10.235589136857744"><ele>204.33333333333331</ele><time>2026-04-28T09:46:27Z</time></trkpt><trkpt lat="28.972073403725886" lon="-10.235828774907253"><ele>204.66666666666666</ele><time>2026-04-28T09:46:28Z</time></trkpt><trkpt lat="28.97205354711227" lon="-10.236071291039117"><ele>205.0</ele><time>2026-04-28T09:46:29Z</time></trkpt><trkpt lat="28.97203575026181" lon="-10.236318991912164"><ele>205.0</ele><time>2026-04-28T09:46:30Z</time></trkpt><trkpt lat="28.972021156310674" lon="-10.236572975577728"><ele>205.0</ele><time>2026-04-28T09:46:31Z</time></trkpt><trkpt lat="28.972007839013916" lon="-10.236826923125792"><ele>205.0</ele><time>2026-04-28T09:46:32Z</time></trkpt><trkpt lat="28.971992672965193" lon="-10.237079143534586"><ele>205.0</ele><time>2026-04-28T09:46:33Z</time></trkpt><trkpt lat="28.971975656861442" lon="-10.237332205666068"><ele>205.0</ele><time>2026-04-28T09:46:34Z</time></trkpt><trkpt lat="28.971956623711115" lon="-10.23758413146806"><ele>205.0</ele><time>2026-04-28T09:46:35Z</time></trkpt><trkpt lat="28.971938073176418" lon="-10.237825238555716"><ele>205.0</ele><time>2026-04-28T09:46:36Z</time></trkpt><trkpt lat="28.971924363407638" lon="-10.238056504605266"><ele>205.0</ele><time>2026-04-28T09:46:37Z</time></trkpt><trkpt lat="28.97191074010236" lon="-10.238284199426417"><ele>205.0</ele><time>2026-04-28T09:46:38Z</time></trkpt><trkpt lat="28.971897224637576" lon="-10.23850639450362"><ele>204.33333333333331</ele><time>2026-04-28T09:46:39Z</time></trkpt><trkpt lat="28.97188468500417" lon="-10.238725116745385"><ele>203.66666666666669</ele><time>2026-04-28T09:46:40Z</time></trkpt><trkpt lat="28.971873365884445" lon="-10.238943384390781"><ele>203.0</ele><time>2026-04-28T09:46:41Z</time></trkpt><trkpt lat="28.971872259973445" lon="-10.239160159718809"><ele>202.66666666666669</ele><time>2026-04-28T09:46:42Z</time></trkpt><trkpt lat="28.97188884139249" lon="-10.239374576735418"><ele>202.33333333333331</ele><time>2026-04-28T09:46:43Z</time></trkpt><trkpt lat="28.971919405692475" lon="-10.239590238293623"><ele>202.0</ele><time>2026-04-28T09:46:44Z</time></trkpt><trkpt lat="28.971963318898936" lon="-10.23979801841811"><ele>201.33333333333331</ele><time>2026-04-28T09:46:45Z</time></trkpt><trkpt lat="28.972024832742264" lon="-10.240005784639395"><ele>200.66666666666669</ele><time>2026-04-28T09:46:46Z</time></trkpt><trkpt lat="28.972106567677585" lon="-10.240210054607768"><ele>200.0</ele><time>2026-04-28T09:46:47Z</time></trkpt><trkpt lat="28.972205674236783" lon="-10.24040825356405"><ele>200.0</ele><time>2026-04-28T09:46:48Z</time></trkpt><trkpt lat="28.972321022872478" lon="-10.24061088379507"><ele>200.0</ele><time>2026-04-28T09:46:49Z</time></trkpt><trkpt lat="28.97243271356506" lon="-10.240802566830768"><ele>200.0</ele><time>2026-04-28T09:46:50Z</time></trkpt><trkpt lat="28.97254176250022" lon="-10.240993175008555"><ele>200.33333333333334</ele><time>2026-04-28T09:46:51Z</time></trkpt><trkpt lat="28.972648654753844" lon="-10.241183078135698"><ele>200.66666666666669</ele><time>2026-04-28T09:46:52Z</time></trkpt><trkpt lat="28.97275465361385" lon="-10.24136855135046"><ele>201.0</ele><time>2026-04-28T09:46:53Z</time></trkpt><trkpt lat="28.97285926978237" lon="-10.241550845219319"><ele>201.0</ele><time>2026-04-28T09:46:54Z</time></trkpt><trkpt lat="28.972982809786973" lon="-10.241717654814964"><ele>201.0</ele><time>2026-04-28T09:46:55Z</time></trkpt><trkpt lat="28.97308647828633" lon="-10.241910764083043"><ele>201.0</ele><time>2026-04-28T09:46:56Z</time></trkpt><trkpt lat="28.973190255132078" lon="-10.242107604613079"><ele>201.33333333333331</ele><time>2026-04-28T09:46:57Z</time></trkpt><trkpt lat="28.973293934335366" lon="-10.242313513801927"><ele>201.66666666666666</ele><time>2026-04-28T09:46:58Z</time></trkpt><trkpt lat="28.97337741390345" lon="-10.242544660954698"><ele>202.0</ele><time>2026-04-28T09:46:59Z</time></trkpt><trkpt lat="28.97347340741797" lon="-10.242782196531207"><ele>200.5</ele><time>2026-04-28T09:47:00Z</time></trkpt><trkpt lat="28.973568472452946" lon="-10.24304256047545"><ele>199.0</ele><time>2026-04-28T09:47:01Z</time></trkpt><trkpt lat="28.973669193316578" lon="-10.243310961271156"><ele>199.0</ele><time>2026-04-28T09:47:02Z</time></trkpt><trkpt lat="28.973773912920876" lon="-10.24358467320098"><ele>199.0</ele><time>2026-04-28T09:47:03Z</time></trkpt><trkpt lat="28.97387945338666" lon="-10.243865066624696"><ele>198.0</ele><time>2026-04-28T09:47:04Z</time></trkpt><trkpt lat="28.97398449645441" lon="-10.244138800588992"><ele>197.0</ele><time>2026-04-28T09:47:05Z</time></trkpt><trkpt lat="28.97408680040711" lon="-10.24440528716932"><ele>197.5</ele><time>2026-04-28T09:47:06Z</time></trkpt><trkpt lat="28.974188512645156" lon="-10.24466754267002"><ele>198.0</ele><time>2026-04-28T09:47:07Z</time></trkpt><trkpt lat="28.974288992586928" lon="-10.244926646308729"><ele>196.5</ele><time>2026-04-28T09:47:08Z</time></trkpt><trkpt lat="28.974385818775513" lon="-10.245181276838618"><ele>195.0</ele><time>2026-04-28T09:47:09Z</time></trkpt><trkpt lat="28.974479236323443" lon="-10.24542988516333"><ele>193.5</ele><time>2026-04-28T09:47:10Z</time></trkpt><trkpt lat="28.974568960337095" lon="-10.245665811110449"><ele>192.0</ele><time>2026-04-28T09:47:11Z</time></trkpt><trkpt lat="28.974659394427857" lon="-10.245902909622066"><ele>192.0</ele><time>2026-04-28T09:47:12Z</time></trkpt><trkpt lat="28.97474808733935" lon="-10.246139234478738"><ele>192.0</ele><time>2026-04-28T09:47:13Z</time></trkpt><trkpt lat="28.974832002720408" lon="-10.24637214529101"><ele>192.0</ele><time>2026-04-28T09:47:14Z</time></trkpt><trkpt lat="28.974910943443774" lon="-10.24660613532938"><ele>193.0</ele><time>2026-04-28T09:47:15Z</time></trkpt><trkpt lat="28.97498413328347" lon="-10.246840415668872"><ele>194.0</ele><time>2026-04-28T09:47:16Z</time></trkpt><trkpt lat="28.97507352093557" lon="-10.247067192767645"><ele>195.0</ele><time>2026-04-28T09:47:17Z</time></trkpt><trkpt lat="28.975108242876676" lon="-10.247320528111004"><ele>195.0</ele><time>2026-04-28T09:47:18Z</time></trkpt><trkpt lat="28.975161655576134" lon="-10.247564580116405"><ele>195.0</ele><time>2026-04-28T09:47:19Z</time></trkpt><trkpt lat="28.975211348960567" lon="-10.247809223508124"><ele>195.0</ele><time>2026-04-28T09:47:20Z</time></trkpt><trkpt lat="28.97525554761105" lon="-10.24805946275394"><ele>195.0</ele><time>2026-04-28T09:47:21Z</time></trkpt><trkpt lat="28.975293448545514" lon="-10.24832052985248"><ele>195.0</ele><time>2026-04-28T09:47:22Z</time></trkpt><trkpt lat="28.97532636307267" lon="-10.248593311142526"><ele>195.0</ele><time>2026-04-28T09:47:23Z</time></trkpt><trkpt lat="28.97535220005597" lon="-10.248862635771014"><ele>195.0</ele><time>2026-04-28T09:47:24Z</time></trkpt><trkpt lat="28.97537559638005" lon="-10.24912898858771"><ele>194.5</ele><time>2026-04-28T09:47:25Z</time></trkpt><trkpt lat="28.97539968636917" lon="-10.249394527235616"><ele>194.0</ele><time>2026-04-28T09:47:26Z</time></trkpt><trkpt lat="28.975423104660436" lon="-10.249659321025906"><ele>192.5</ele><time>2026-04-28T09:47:27Z</time></trkpt><trkpt lat="28.975446547510117" lon="-10.249925496948478"><ele>191.0</ele><time>2026-04-28T09:47:28Z</time></trkpt><trkpt lat="28.97546877991798" lon="-10.250190238432683"><ele>191.0</ele><time>2026-04-28T09:47:29Z</time></trkpt><trkpt lat="28.975490487907045" lon="-10.250457303544357"><ele>191.0</ele><time>2026-04-28T09:47:30Z</time></trkpt><trkpt lat="28.975513732152834" lon="-10.250722012693927"><ele>190.5</ele><time>2026-04-28T09:47:31Z</time></trkpt><trkpt lat="28.975536460656635" lon="-10.250985501297508"><ele>190.0</ele><time>2026-04-28T09:47:32Z</time></trkpt><trkpt lat="28.97555950478848" lon="-10.251249420348032"><ele>190.0</ele><time>2026-04-28T09:47:33Z</time></trkpt><trkpt lat="28.975585784618936" lon="-10.25151229980891"><ele>190.0</ele><time>2026-04-28T09:47:34Z</time></trkpt><trkpt lat="28.975610298566515" lon="-10.251775508956538"><ele>190.0</ele><time>2026-04-28T09:47:35Z</time></trkpt><trkpt lat="28.975639300493633" lon="-10.252035447885072"><ele>190.0</ele><time>2026-04-28T09:47:36Z</time></trkpt><trkpt lat="28.975678753389158" lon="-10.252295304848214"><ele>189.5</ele><time>2026-04-28T09:47:37Z</time></trkpt><trkpt lat="28.975725063495297" lon="-10.252553409169362"><ele>189.0</ele><time>2026-04-28T09:47:38Z</time></trkpt><trkpt lat="28.975787176993585" lon="-10.252808369598942"><ele>188.5</ele><time>2026-04-28T09:47:39Z</time></trkpt><trkpt lat="28.975853796824687" lon="-10.25305947045628"><ele>188.0</ele><time>2026-04-28T09:47:40Z</time></trkpt><trkpt lat="28.975917867728352" lon="-10.253309022827072"><ele>188.0</ele><time>2026-04-28T09:47:41Z</time></trkpt><trkpt lat="28.975981884054615" lon="-10.253553223820601"><ele>188.0</ele><time>2026-04-28T09:47:42Z</time></trkpt><trkpt lat="28.97604450313275" lon="-10.253796152140565"><ele>188.0</ele><time>2026-04-28T09:47:43Z</time></trkpt><trkpt lat="28.97610574380972" lon="-10.254037430311934"><ele>189.0</ele><time>2026-04-28T09:47:44Z</time></trkpt><trkpt lat="28.976168029918046" lon="-10.25428088532866"><ele>190.0</ele><time>2026-04-28T09:47:45Z</time></trkpt><trkpt lat="28.976229770749455" lon="-10.254524141882179"><ele>191.0</ele><time>2026-04-28T09:47:46Z</time></trkpt><trkpt lat="28.97628938059886" lon="-10.254767691252843"><ele>191.0</ele><time>2026-04-28T09:47:47Z</time></trkpt><trkpt lat="28.9763487028928" lon="-10.255011956510478"><ele>191.0</ele><time>2026-04-28T09:47:48Z</time></trkpt><trkpt lat="28.976410570684173" lon="-10.255256809407303"><ele>191.0</ele><time>2026-04-28T09:47:49Z</time></trkpt><trkpt lat="28.97647124045783" lon="-10.255500108985748"><ele>190.33333333333331</ele><time>2026-04-28T09:47:50Z</time></trkpt><trkpt lat="28.976532260653403" lon="-10.255743284868714"><ele>189.66666666666666</ele><time>2026-04-28T09:47:51Z</time></trkpt><trkpt lat="28.97659364366014" lon="-10.255987250957856"><ele>189.0</ele><time>2026-04-28T09:47:52Z</time></trkpt><trkpt lat="28.976655911404745" lon="-10.256233216307187"><ele>188.0</ele><time>2026-04-28T09:47:53Z</time></trkpt><trkpt lat="28.976718566583784" lon="-10.256483272763843"><ele>187.0</ele><time>2026-04-28T09:47:54Z</time></trkpt><trkpt lat="28.976781651214665" lon="-10.25673661474947"><ele>187.0</ele><time>2026-04-28T09:47:55Z</time></trkpt><trkpt lat="28.976844818247123" lon="-10.256993964767055"><ele>187.0</ele><time>2026-04-28T09:47:56Z</time></trkpt><trkpt lat="28.976909368247153" lon="-10.257254015431474"><ele>187.5</ele><time>2026-04-28T09:47:57Z</time></trkpt><trkpt lat="28.97697291372908" lon="-10.257514228374093"><ele>188.0</ele><time>2026-04-28T09:47:58Z</time></trkpt><trkpt lat="28.977038596305675" lon="-10.257776826048229"><ele>188.0</ele><time>2026-04-28T09:47:59Z</time></trkpt><trkpt lat="28.977104960239735" lon="-10.258038692579847"><ele>188.0</ele><time>2026-04-28T09:48:00Z</time></trkpt><trkpt lat="28.97717164651396" lon="-10.258298605744173"><ele>187.0</ele><time>2026-04-28T09:48:01Z</time></trkpt><trkpt lat="28.97723904651003" lon="-10.258556116335432"><ele>186.0</ele><time>2026-04-28T09:48:02Z</time></trkpt><trkpt lat="28.977303716751358" lon="-10.258811018024725"><ele>188.0</ele><time>2026-04-28T09:48:03Z</time></trkpt><trkpt lat="28.977368349361647" lon="-10.25906342432157"><ele>190.0</ele><time>2026-04-28T09:48:04Z</time></trkpt><trkpt lat="28.97743021759538" lon="-10.259310892034007"><ele>190.0</ele><time>2026-04-28T09:48:05Z</time></trkpt><trkpt lat="28.977489788068468" lon="-10.259552612708916"><ele>190.0</ele><time>2026-04-28T09:48:06Z</time></trkpt><trkpt lat="28.977547551829073" lon="-10.259788318890964"><ele>190.0</ele><time>2026-04-28T09:48:07Z</time></trkpt><trkpt lat="28.977604515312656" lon="-10.260021510644645"><ele>190.66666666666669</ele><time>2026-04-28T09:48:08Z</time></trkpt><trkpt lat="28.977659984665515" lon="-10.260258139035951"><ele>191.33333333333334</ele><time>2026-04-28T09:48:09Z</time></trkpt><trkpt lat="28.97771967337193" lon="-10.26049856885564"><ele>192.0</ele><time>2026-04-28T09:48:10Z</time></trkpt><trkpt lat="28.977778872907503" lon="-10.260739649659474"><ele>193.33333333333331</ele><time>2026-04-28T09:48:11Z</time></trkpt><trkpt lat="28.97783846092672" lon="-10.260981897545248"><ele>194.66666666666666</ele><time>2026-04-28T09:48:12Z</time></trkpt><trkpt lat="28.977900194603123" lon="-10.26122849369225"><ele>196.0</ele><time>2026-04-28T09:48:13Z</time></trkpt><trkpt lat="28.977962801656503" lon="-10.261473184951795"><ele>196.5</ele><time>2026-04-28T09:48:14Z</time></trkpt><trkpt lat="28.978027090264227" lon="-10.261719491315962"><ele>197.0</ele><time>2026-04-28T09:48:15Z</time></trkpt><trkpt lat="28.97809294989826" lon="-10.261969569006594"><ele>197.0</ele><time>2026-04-28T09:48:16Z</time></trkpt><trkpt lat="28.978157068797568" lon="-10.262221037779463"><ele>197.0</ele><time>2026-04-28T09:48:17Z</time></trkpt><trkpt lat="28.97822118008977" lon="-10.262476268121334"><ele>196.5</ele><time>2026-04-28T09:48:18Z</time></trkpt><trkpt lat="28.97828543111675" lon="-10.262734247859212"><ele>196.0</ele><time>2026-04-28T09:48:19Z</time></trkpt><trkpt lat="28.97834938899181" lon="-10.262995849593665"><ele>195.5</ele><time>2026-04-28T09:48:20Z</time></trkpt><trkpt lat="28.978414683271577" lon="-10.263259325476968"><ele>195.0</ele><time>2026-04-28T09:48:21Z</time></trkpt><trkpt lat="28.978481588024884" lon="-10.263520810102506"><ele>195.0</ele><time>2026-04-28T09:48:22Z</time></trkpt><trkpt lat="28.97854957547607" lon="-10.263781158615943"><ele>195.0</ele><time>2026-04-28T09:48:23Z</time></trkpt><trkpt lat="28.978617772636767" lon="-10.264041590125522"><ele>193.0</ele><time>2026-04-28T09:48:24Z</time></trkpt><trkpt lat="28.978683787368034" lon="-10.264302435114287"><ele>191.0</ele><time>2026-04-28T09:48:25Z</time></trkpt><trkpt lat="28.978749124055366" lon="-10.264562382733473"><ele>191.5</ele><time>2026-04-28T09:48:26Z</time></trkpt><trkpt lat="28.978814098330425" lon="-10.26482224934896"><ele>192.0</ele><time>2026-04-28T09:48:27Z</time></trkpt><trkpt lat="28.978880062017634" lon="-10.265080776023128"><ele>192.0</ele><time>2026-04-28T09:48:28Z</time></trkpt><trkpt lat="28.97894722334114" lon="-10.265340772922432"><ele>192.0</ele><time>2026-04-28T09:48:29Z</time></trkpt><trkpt lat="28.97901151145658" lon="-10.26559870310134"><ele>191.5</ele><time>2026-04-28T09:48:30Z</time></trkpt><trkpt lat="28.979073721811552" lon="-10.265857176809929"><ele>191.0</ele><time>2026-04-28T09:48:31Z</time></trkpt><trkpt lat="28.979136958799007" lon="-10.26611751042369"><ele>191.0</ele><time>2026-04-28T09:48:32Z</time></trkpt><trkpt lat="28.979201808609172" lon="-10.266378711575461"><ele>191.0</ele><time>2026-04-28T09:48:33Z</time></trkpt><trkpt lat="28.979267659652574" lon="-10.266643174941327"><ele>189.5</ele><time>2026-04-28T09:48:34Z</time></trkpt><trkpt lat="28.97933277770808" lon="-10.266912201224478"><ele>188.0</ele><time>2026-04-28T09:48:35Z</time></trkpt><trkpt lat="28.979398969412255" lon="-10.267184303627078"><ele>186.5</ele><time>2026-04-28T09:48:36Z</time></trkpt><trkpt lat="28.979467133307352" lon="-10.267458726281523"><ele>185.0</ele><time>2026-04-28T09:48:37Z</time></trkpt><trkpt lat="28.979537722696694" lon="-10.267735363374054"><ele>185.0</ele><time>2026-04-28T09:48:38Z</time></trkpt><trkpt lat="28.979607710429196" lon="-10.268011875589341"><ele>185.0</ele><time>2026-04-28T09:48:39Z</time></trkpt><trkpt lat="28.979677914416886" lon="-10.268288050934487"><ele>184.0</ele><time>2026-04-28T09:48:40Z</time></trkpt><trkpt lat="28.979746561579407" lon="-10.268565179565766"><ele>183.0</ele><time>2026-04-28T09:48:41Z</time></trkpt><trkpt lat="28.97981594723203" lon="-10.268844571337947"><ele>181.5</ele><time>2026-04-28T09:48:42Z</time></trkpt><trkpt lat="28.979883827842812" lon="-10.26912319974315"><ele>180.0</ele><time>2026-04-28T09:48:43Z</time></trkpt><trkpt lat="28.979953655618942" lon="-10.269401025182558"><ele>180.0</ele><time>2026-04-28T09:48:44Z</time></trkpt><trkpt lat="28.980022426163536" lon="-10.269678509469873"><ele>180.0</ele><time>2026-04-28T09:48:45Z</time></trkpt><trkpt lat="28.980090148574885" lon="-10.269951197499612"><ele>179.5</ele><time>2026-04-28T09:48:46Z</time></trkpt><trkpt lat="28.98015627381613" lon="-10.270221187515348"><ele>179.0</ele><time>2026-04-28T09:48:47Z</time></trkpt><trkpt lat="28.98022184048644" lon="-10.270488573176491"><ele>180.0</ele><time>2026-04-28T09:48:48Z</time></trkpt><trkpt lat="28.980288155305292" lon="-10.270754111090895"><ele>181.0</ele><time>2026-04-28T09:48:49Z</time></trkpt><trkpt lat="28.980352953843862" lon="-10.2710161557698"><ele>181.0</ele><time>2026-04-28T09:48:50Z</time></trkpt><trkpt lat="28.980418293481073" lon="-10.271276905669188"><ele>181.0</ele><time>2026-04-28T09:48:51Z</time></trkpt><trkpt lat="28.98048275138245" lon="-10.27153712976458"><ele>181.5</ele><time>2026-04-28T09:48:52Z</time></trkpt><trkpt lat="28.980547625537987" lon="-10.27179710604735"><ele>182.0</ele><time>2026-04-28T09:48:53Z</time></trkpt><trkpt lat="28.980612115175003" lon="-10.272054395020316"><ele>182.5</ele><time>2026-04-28T09:48:54Z</time></trkpt><trkpt lat="28.9806772527745" lon="-10.272308720444265"><ele>183.0</ele><time>2026-04-28T09:48:55Z</time></trkpt><trkpt lat="28.980743962627503" lon="-10.272563830730974"><ele>183.0</ele><time>2026-04-28T09:48:56Z</time></trkpt><trkpt lat="28.980807876156266" lon="-10.272816353956536"><ele>183.0</ele><time>2026-04-28T09:48:57Z</time></trkpt><trkpt lat="28.980871648224245" lon="-10.273068950153267"><ele>182.0</ele><time>2026-04-28T09:48:58Z</time></trkpt><trkpt lat="28.980935676622945" lon="-10.27332229644098"><ele>181.0</ele><time>2026-04-28T09:48:59Z</time></trkpt><trkpt lat="28.981002406591756" lon="-10.27357530328672"><ele>181.0</ele><time>2026-04-28T09:49:00Z</time></trkpt><trkpt lat="28.98106786391627" lon="-10.273829504251749"><ele>181.0</ele><time>2026-04-28T09:49:01Z</time></trkpt><trkpt lat="28.981131757216392" lon="-10.27408418347332"><ele>182.0</ele><time>2026-04-28T09:49:02Z</time></trkpt><trkpt lat="28.981193852809692" lon="-10.274340040339759"><ele>183.0</ele><time>2026-04-28T09:49:03Z</time></trkpt><trkpt lat="28.981256490791317" lon="-10.27459418178853"><ele>182.5</ele><time>2026-04-28T09:49:04Z</time></trkpt><trkpt lat="28.981321488922003" lon="-10.27484947778181"><ele>182.0</ele><time>2026-04-28T09:49:05Z</time></trkpt><trkpt lat="28.981385791699577" lon="-10.275103955334046"><ele>182.0</ele><time>2026-04-28T09:49:06Z</time></trkpt><trkpt lat="28.981450895321398" lon="-10.275357583993154"><ele>182.0</ele><time>2026-04-28T09:49:07Z</time></trkpt><trkpt lat="28.98151483757595" lon="-10.275608110412552"><ele>183.5</ele><time>2026-04-28T09:49:08Z</time></trkpt><trkpt lat="28.981578826638962" lon="-10.275856002776429"><ele>185.0</ele><time>2026-04-28T09:49:09Z</time></trkpt><trkpt lat="28.981640941571523" lon="-10.276104446827143"><ele>185.0</ele><time>2026-04-28T09:49:10Z</time></trkpt><trkpt lat="28.98169941393305" lon="-10.276359159079892"><ele>185.0</ele><time>2026-04-28T09:49:11Z</time></trkpt><trkpt lat="28.98175972780438" lon="-10.276613029935426"><ele>185.5</ele><time>2026-04-28T09:49:12Z</time></trkpt><trkpt lat="28.98182209186578" lon="-10.276868650275157"><ele>186.0</ele><time>2026-04-28T09:49:13Z</time></trkpt><trkpt lat="28.9818866442668" lon="-10.277125628655943"><ele>187.5</ele><time>2026-04-28T09:49:14Z</time></trkpt><trkpt lat="28.9819518557835" lon="-10.277381343566805"><ele>189.0</ele><time>2026-04-28T09:49:15Z</time></trkpt><trkpt lat="28.982019460907953" lon="-10.277640004613467"><ele>189.0</ele><time>2026-04-28T09:49:16Z</time></trkpt><trkpt lat="28.982091949279063" lon="-10.277902479124414"><ele>189.0</ele><time>2026-04-28T09:49:17Z</time></trkpt><trkpt lat="28.982168999044788" lon="-10.278163773461497"><ele>188.5</ele><time>2026-04-28T09:49:18Z</time></trkpt><trkpt lat="28.98225468166283" lon="-10.27843232103666"><ele>188.0</ele><time>2026-04-28T09:49:19Z</time></trkpt><trkpt lat="28.98234701015903" lon="-10.278705782934166"><ele>188.0</ele><time>2026-04-28T09:49:20Z</time></trkpt><trkpt lat="28.982440592438575" lon="-10.278990096599928"><ele>188.0</ele><time>2026-04-28T09:49:21Z</time></trkpt><trkpt lat="28.98253707579489" lon="-10.279277698192256"><ele>186.5</ele><time>2026-04-28T09:49:22Z</time></trkpt><trkpt lat="28.98263038102906" lon="-10.279565649827813"><ele>185.0</ele><time>2026-04-28T09:49:23Z</time></trkpt><trkpt lat="28.982719791258724" lon="-10.279850605265027"><ele>185.0</ele><time>2026-04-28T09:49:24Z</time></trkpt><trkpt lat="28.982809455287576" lon="-10.280134665469937"><ele>185.0</ele><time>2026-04-28T09:49:25Z</time></trkpt><trkpt lat="28.98290118358661" lon="-10.2804176098156"><ele>185.5</ele><time>2026-04-28T09:49:26Z</time></trkpt><trkpt lat="28.982992830877446" lon="-10.280699567260966"><ele>186.0</ele><time>2026-04-28T09:49:27Z</time></trkpt><trkpt lat="28.983085300949302" lon="-10.280979775819445"><ele>186.0</ele><time>2026-04-28T09:49:28Z</time></trkpt><trkpt lat="28.983172603718387" lon="-10.281259294833927"><ele>186.0</ele><time>2026-04-28T09:49:29Z</time></trkpt><trkpt lat="28.983258703164495" lon="-10.281539336168079"><ele>186.5</ele><time>2026-04-28T09:49:30Z</time></trkpt><trkpt lat="28.983357375923827" lon="-10.281811597113752"><ele>187.0</ele><time>2026-04-28T09:49:31Z</time></trkpt><trkpt lat="28.98341870434498" lon="-10.282100352559821"><ele>186.0</ele><time>2026-04-28T09:49:32Z</time></trkpt><trkpt lat="28.983494351929956" lon="-10.282381996487015"><ele>185.0</ele><time>2026-04-28T09:49:33Z</time></trkpt><trkpt lat="28.98356704048299" lon="-10.282661069002424"><ele>185.0</ele><time>2026-04-28T09:49:34Z</time></trkpt><trkpt lat="28.983641070295697" lon="-10.282943617441063"><ele>185.0</ele><time>2026-04-28T09:49:35Z</time></trkpt><trkpt lat="28.983714377662867" lon="-10.283229605780967"><ele>184.5</ele><time>2026-04-28T09:49:36Z</time></trkpt><trkpt lat="28.983788188573506" lon="-10.283518237328744"><ele>184.0</ele><time>2026-04-28T09:49:37Z</time></trkpt><trkpt lat="28.98386113043366" lon="-10.283805054673191"><ele>183.0</ele><time>2026-04-28T09:49:38Z</time></trkpt><trkpt lat="28.983934430461225" lon="-10.284091661140454"><ele>182.0</ele><time>2026-04-28T09:49:39Z</time></trkpt><trkpt lat="28.984007240451678" lon="-10.28437726591728"><ele>182.0</ele><time>2026-04-28T09:49:40Z</time></trkpt><trkpt lat="28.984078582814753" lon="-10.284659253944579"><ele>182.0</ele><time>2026-04-28T09:49:41Z</time></trkpt><trkpt lat="28.98415112048757" lon="-10.28493994620225"><ele>183.0</ele><time>2026-04-28T09:49:42Z</time></trkpt><trkpt lat="28.984221868786985" lon="-10.285214511211432"><ele>184.0</ele><time>2026-04-28T09:49:43Z</time></trkpt><trkpt lat="28.984291323181257" lon="-10.28548679017396"><ele>184.0</ele><time>2026-04-28T09:49:44Z</time></trkpt><trkpt lat="28.9843597161845" lon="-10.28575581503148"><ele>184.0</ele><time>2026-04-28T09:49:45Z</time></trkpt><trkpt lat="28.984426514717526" lon="-10.286024304933433"><ele>184.0</ele><time>2026-04-28T09:49:46Z</time></trkpt><trkpt lat="28.984494331480036" lon="-10.286294353249637"><ele>184.0</ele><time>2026-04-28T09:49:47Z</time></trkpt><trkpt lat="28.984562520429407" lon="-10.286562675553059"><ele>184.5</ele><time>2026-04-28T09:49:48Z</time></trkpt><trkpt lat="28.98463270502355" lon="-10.28683317731526"><ele>185.0</ele><time>2026-04-28T09:49:49Z</time></trkpt><trkpt lat="28.98470328931347" lon="-10.287107612661261"><ele>184.5</ele><time>2026-04-28T09:49:50Z</time></trkpt><trkpt lat="28.984774608435075" lon="-10.287385292590901"><ele>184.0</ele><time>2026-04-28T09:49:51Z</time></trkpt><trkpt lat="28.98484772082892" lon="-10.287665880068522"><ele>184.0</ele><time>2026-04-28T09:49:52Z</time></trkpt><trkpt lat="28.984920430569694" lon="-10.287949969905528"><ele>184.0</ele><time>2026-04-28T09:49:53Z</time></trkpt><trkpt lat="28.984992198558725" lon="-10.288236597253993"><ele>183.0</ele><time>2026-04-28T09:49:54Z</time></trkpt><trkpt lat="28.985065332173537" lon="-10.288525690838245"><ele>182.0</ele><time>2026-04-28T09:49:55Z</time></trkpt><trkpt lat="28.98513962440993" lon="-10.288816075481463"><ele>182.0</ele><time>2026-04-28T09:49:56Z</time></trkpt><trkpt lat="28.985215197679363" lon="-10.289108929171189"><ele>182.0</ele><time>2026-04-28T09:49:57Z</time></trkpt><trkpt lat="28.985292583501128" lon="-10.289402475877504"><ele>182.0</ele><time>2026-04-28T09:49:58Z</time></trkpt><trkpt lat="28.985370338490785" lon="-10.289697261614053"><ele>182.0</ele><time>2026-04-28T09:49:59Z</time></trkpt><trkpt lat="28.985445555337744" lon="-10.289993709486481"><ele>182.0</ele><time>2026-04-28T09:50:00Z</time></trkpt><trkpt lat="28.985518295917927" lon="-10.290287906609976"><ele>182.0</ele><time>2026-04-28T09:50:01Z</time></trkpt><trkpt lat="28.985591628779904" lon="-10.290581381408563"><ele>182.5</ele><time>2026-04-28T09:50:02Z</time></trkpt><trkpt lat="28.98566618373821" lon="-10.290870925091703"><ele>183.0</ele><time>2026-04-28T09:50:03Z</time></trkpt><trkpt lat="28.985742203580156" lon="-10.291159824328522"><ele>184.0</ele><time>2026-04-28T09:50:04Z</time></trkpt><trkpt lat="28.985819051547914" lon="-10.291448709769202"><ele>185.0</ele><time>2026-04-28T09:50:05Z</time></trkpt><trkpt lat="28.985895086216384" lon="-10.291735393043526"><ele>185.0</ele><time>2026-04-28T09:50:06Z</time></trkpt><trkpt lat="28.985967979734237" lon="-10.292019590709609"><ele>185.0</ele><time>2026-04-28T09:50:07Z</time></trkpt><trkpt lat="28.986040129251816" lon="-10.29230459043955"><ele>186.5</ele><time>2026-04-28T09:50:08Z</time></trkpt><trkpt lat="28.986113462516272" lon="-10.292587783802588"><ele>188.0</ele><time>2026-04-28T09:50:09Z</time></trkpt><trkpt lat="28.986186339108187" lon="-10.292871994849698"><ele>188.0</ele><time>2026-04-28T09:50:10Z</time></trkpt><trkpt lat="28.986258839186597" lon="-10.293155971714956"><ele>188.0</ele><time>2026-04-28T09:50:11Z</time></trkpt><trkpt lat="28.986329094405495" lon="-10.293438665880718"><ele>188.0</ele><time>2026-04-28T09:50:12Z</time></trkpt><trkpt lat="28.98639817080475" lon="-10.293719782991815"><ele>188.0</ele><time>2026-04-28T09:50:13Z</time></trkpt><trkpt lat="28.98646819790157" lon="-10.294000980279133"><ele>188.5</ele><time>2026-04-28T09:50:14Z</time></trkpt><trkpt lat="28.986540307078037" lon="-10.294283902274936"><ele>189.0</ele><time>2026-04-28T09:50:15Z</time></trkpt><trkpt lat="28.98661256101786" lon="-10.294565757150268"><ele>190.5</ele><time>2026-04-28T09:50:16Z</time></trkpt><trkpt lat="28.986685730823982" lon="-10.294848968055419"><ele>192.0</ele><time>2026-04-28T09:50:17Z</time></trkpt><trkpt lat="28.98675834382632" lon="-10.295133300090868"><ele>192.0</ele><time>2026-04-28T09:50:18Z</time></trkpt><trkpt lat="28.98683048648087" lon="-10.295415577970237"><ele>192.0</ele><time>2026-04-28T09:50:19Z</time></trkpt><trkpt lat="28.986902512257863" lon="-10.29569535403739"><ele>194.0</ele><time>2026-04-28T09:50:20Z</time></trkpt><trkpt lat="28.98697349571283" lon="-10.29597540694723"><ele>196.0</ele><time>2026-04-28T09:50:21Z</time></trkpt><trkpt lat="28.98704417406188" lon="-10.296253632171672"><ele>197.0</ele><time>2026-04-28T09:50:22Z</time></trkpt><trkpt lat="28.98711586539044" lon="-10.296535663907266"><ele>198.0</ele><time>2026-04-28T09:50:23Z</time></trkpt><trkpt lat="28.98718995829019" lon="-10.296820556569013"><ele>198.0</ele><time>2026-04-28T09:50:24Z</time></trkpt><trkpt lat="28.98726389211285" lon="-10.297111362267202"><ele>198.0</ele><time>2026-04-28T09:50:25Z</time></trkpt><trkpt lat="28.987338711224595" lon="-10.297407045436803"><ele>196.0</ele><time>2026-04-28T09:50:26Z</time></trkpt><trkpt lat="28.98741399464394" lon="-10.297705518014629"><ele>194.0</ele><time>2026-04-28T09:50:27Z</time></trkpt><trkpt lat="28.98749075471217" lon="-10.298006285915195"><ele>195.0</ele><time>2026-04-28T09:50:28Z</time></trkpt><trkpt lat="28.98756584300044" lon="-10.298304956610837"><ele>196.0</ele><time>2026-04-28T09:50:29Z</time></trkpt><trkpt lat="28.98764138561096" lon="-10.298598595774363"><ele>196.0</ele><time>2026-04-28T09:50:30Z</time></trkpt><trkpt lat="28.987718893879087" lon="-10.298889821297186"><ele>196.0</ele><time>2026-04-28T09:50:31Z</time></trkpt><trkpt lat="28.987794900926524" lon="-10.299180130842398"><ele>196.5</ele><time>2026-04-28T09:50:32Z</time></trkpt><trkpt lat="28.98786995381952" lon="-10.299465979330561"><ele>197.0</ele><time>2026-04-28T09:50:33Z</time></trkpt><trkpt lat="28.98794501977807" lon="-10.29974832850775"><ele>197.5</ele><time>2026-04-28T09:50:34Z</time></trkpt><trkpt lat="28.988017739526956" lon="-10.300030936523418"><ele>198.0</ele><time>2026-04-28T09:50:35Z</time></trkpt><trkpt lat="28.988087297146993" lon="-10.300309281411016"><ele>198.5</ele><time>2026-04-28T09:50:36Z</time></trkpt><trkpt lat="28.98815713641258" lon="-10.300583365933266"><ele>199.0</ele><time>2026-04-28T09:50:37Z</time></trkpt><trkpt lat="28.988226876323846" lon="-10.300856534664035"><ele>199.0</ele><time>2026-04-28T09:50:38Z</time></trkpt><trkpt lat="28.9882979315919" lon="-10.301128379572003"><ele>199.0</ele><time>2026-04-28T09:50:39Z</time></trkpt><trkpt lat="28.988367961378042" lon="-10.301397646820934"><ele>200.5</ele><time>2026-04-28T09:50:40Z</time></trkpt><trkpt lat="28.98843907903405" lon="-10.301663293148867"><ele>202.0</ele><time>2026-04-28T09:50:41Z</time></trkpt><trkpt lat="28.98850656052968" lon="-10.301923409942495"><ele>202.0</ele><time>2026-04-28T09:50:42Z</time></trkpt><trkpt lat="28.988569513271447" lon="-10.302175208643385"><ele>202.0</ele><time>2026-04-28T09:50:43Z</time></trkpt><trkpt lat="28.988635987883903" lon="-10.302426457555784"><ele>203.5</ele><time>2026-04-28T09:50:44Z</time></trkpt><trkpt lat="28.988705554724127" lon="-10.302680063753844"><ele>205.0</ele><time>2026-04-28T09:50:45Z</time></trkpt><trkpt lat="28.98876934995289" lon="-10.302935587492701"><ele>206.5</ele><time>2026-04-28T09:50:46Z</time></trkpt><trkpt lat="28.98883489389755" lon="-10.30319335542672"><ele>208.0</ele><time>2026-04-28T09:50:47Z</time></trkpt><trkpt lat="28.988896637877858" lon="-10.303444992395267"><ele>208.0</ele><time>2026-04-28T09:50:48Z</time></trkpt><trkpt lat="28.9889579539392" lon="-10.30368568033322"><ele>208.0</ele><time>2026-04-28T09:50:49Z</time></trkpt><trkpt lat="28.989014794508904" lon="-10.303907913043352"><ele>208.0</ele><time>2026-04-28T09:50:50Z</time></trkpt><trkpt lat="28.989071025166936" lon="-10.3041271088851"><ele>207.33333333333331</ele><time>2026-04-28T09:50:51Z</time></trkpt><trkpt lat="28.989126226601165" lon="-10.30435444997869"><ele>206.66666666666669</ele><time>2026-04-28T09:50:52Z</time></trkpt><trkpt lat="28.989182355488325" lon="-10.304583918601663"><ele>206.0</ele><time>2026-04-28T09:50:53Z</time></trkpt><trkpt lat="28.98924258003208" lon="-10.304815874556622"><ele>205.33333333333334</ele><time>2026-04-28T09:50:54Z</time></trkpt><trkpt lat="28.989303094538847" lon="-10.305053295953195"><ele>204.66666666666669</ele><time>2026-04-28T09:50:55Z</time></trkpt><trkpt lat="28.989364996424985" lon="-10.305294031980342"><ele>204.0</ele><time>2026-04-28T09:50:56Z</time></trkpt><trkpt lat="28.98942865704065" lon="-10.305538630395047"><ele>202.5</ele><time>2026-04-28T09:50:57Z</time></trkpt><trkpt lat="28.989494887660122" lon="-10.3057868276706"><ele>201.0</ele><time>2026-04-28T09:50:58Z</time></trkpt><trkpt lat="28.989558347890316" lon="-10.306033446514974"><ele>201.0</ele><time>2026-04-28T09:50:59Z</time></trkpt><trkpt lat="28.989621448756445" lon="-10.306274275811038"><ele>201.0</ele><time>2026-04-28T09:51:00Z</time></trkpt><trkpt lat="28.989679129626737" lon="-10.306512593898232"><ele>201.0</ele><time>2026-04-28T09:51:01Z</time></trkpt><trkpt lat="28.989734930685714" lon="-10.306744326575885"><ele>200.33333333333331</ele><time>2026-04-28T09:51:02Z</time></trkpt><trkpt lat="28.98979256828804" lon="-10.306973149446026"><ele>199.66666666666666</ele><time>2026-04-28T09:51:03Z</time></trkpt><trkpt lat="28.9898525945599" lon="-10.307205265554888"><ele>199.0</ele><time>2026-04-28T09:51:04Z</time></trkpt><trkpt lat="28.989917125247437" lon="-10.307439036713282"><ele>198.33333333333331</ele><time>2026-04-28T09:51:05Z</time></trkpt><trkpt lat="28.989985992268643" lon="-10.307677556818435"><ele>197.66666666666669</ele><time>2026-04-28T09:51:06Z</time></trkpt><trkpt lat="28.99005530393156" lon="-10.307915746287382"><ele>197.0</ele><time>2026-04-28T09:51:07Z</time></trkpt><trkpt lat="28.990126859647653" lon="-10.308154242043484"><ele>196.33333333333334</ele><time>2026-04-28T09:51:08Z</time></trkpt><trkpt lat="28.990199887280106" lon="-10.308395414788496"><ele>195.66666666666669</ele><time>2026-04-28T09:51:09Z</time></trkpt><trkpt lat="28.990276352594783" lon="-10.308638636389608"><ele>195.0</ele><time>2026-04-28T09:51:10Z</time></trkpt><trkpt lat="28.990357625049135" lon="-10.308881149528325"><ele>194.0</ele><time>2026-04-28T09:51:11Z</time></trkpt><trkpt lat="28.990435364462083" lon="-10.309124464873095"><ele>193.0</ele><time>2026-04-28T09:51:12Z</time></trkpt><trkpt lat="28.990514465057792" lon="-10.309369945044288"><ele>193.0</ele><time>2026-04-28T09:51:13Z</time></trkpt><trkpt lat="28.99059360591738" lon="-10.309619150047206"><ele>193.0</ele><time>2026-04-28T09:51:14Z</time></trkpt><trkpt lat="28.990673032818794" lon="-10.30986913845071"><ele>193.5</ele><time>2026-04-28T09:51:15Z</time></trkpt><trkpt lat="28.990752661727548" lon="-10.310122342828105"><ele>194.0</ele><time>2026-04-28T09:51:16Z</time></trkpt><trkpt lat="28.990832757374225" lon="-10.310378017591917"><ele>193.5</ele><time>2026-04-28T09:51:17Z</time></trkpt><trkpt lat="28.99091396773918" lon="-10.310632134560937"><ele>193.0</ele><time>2026-04-28T09:51:18Z</time></trkpt><trkpt lat="28.99099360427465" lon="-10.310885791107873"><ele>193.0</ele><time>2026-04-28T09:51:19Z</time></trkpt><trkpt lat="28.99107329657921" lon="-10.311135419666329"><ele>193.0</ele><time>2026-04-28T09:51:20Z</time></trkpt><trkpt lat="28.99115227647531" lon="-10.311384395019319"><ele>193.5</ele><time>2026-04-28T09:51:21Z</time></trkpt><trkpt lat="28.991231378943375" lon="-10.311633510857993"><ele>194.0</ele><time>2026-04-28T09:51:22Z</time></trkpt><trkpt lat="28.991310955138495" lon="-10.31188035047753"><ele>194.0</ele><time>2026-04-28T09:51:23Z</time></trkpt><trkpt lat="28.99139080505744" lon="-10.31212547063137"><ele>194.0</ele><time>2026-04-28T09:51:24Z</time></trkpt><trkpt lat="28.99147092629042" lon="-10.312371628908783"><ele>194.0</ele><time>2026-04-28T09:51:25Z</time></trkpt><trkpt lat="28.99154990811838" lon="-10.312617787953194"><ele>194.0</ele><time>2026-04-28T09:51:26Z</time></trkpt><trkpt lat="28.991626456580153" lon="-10.312861083983885"><ele>193.0</ele><time>2026-04-28T09:51:27Z</time></trkpt><trkpt lat="28.99170440231311" lon="-10.313103734903892"><ele>192.0</ele><time>2026-04-28T09:51:28Z</time></trkpt><trkpt lat="28.991782456893304" lon="-10.313348071850644"><ele>192.0</ele><time>2026-04-28T09:51:29Z</time></trkpt><trkpt lat="28.99186079582052" lon="-10.313593553563292"><ele>192.0</ele><time>2026-04-28T09:51:30Z</time></trkpt><trkpt lat="28.99193969608226" lon="-10.313841524910721"><ele>192.5</ele><time>2026-04-28T09:51:31Z</time></trkpt><trkpt lat="28.992019812023155" lon="-10.31409156171285"><ele>193.0</ele><time>2026-04-28T09:51:32Z</time></trkpt><trkpt lat="28.992101570651823" lon="-10.314343897667554"><ele>193.0</ele><time>2026-04-28T09:51:33Z</time></trkpt><trkpt lat="28.992184262449488" lon="-10.314600928943351"><ele>193.0</ele><time>2026-04-28T09:51:34Z</time></trkpt><trkpt lat="28.992262570609427" lon="-10.314861823229473"><ele>192.5</ele><time>2026-04-28T09:51:35Z</time></trkpt><trkpt lat="28.99234088307921" lon="-10.315120593600392"><ele>192.0</ele><time>2026-04-28T09:51:36Z</time></trkpt><trkpt lat="28.99241999045365" lon="-10.31537882195531"><ele>191.0</ele><time>2026-04-28T09:51:37Z</time></trkpt><trkpt lat="28.99250017445122" lon="-10.315634791149737"><ele>190.0</ele><time>2026-04-28T09:51:38Z</time></trkpt><trkpt lat="28.992579800803266" lon="-10.315883329778252"><ele>189.66666666666669</ele><time>2026-04-28T09:51:39Z</time></trkpt><trkpt lat="28.992656675346556" lon="-10.316123987853953"><ele>189.33333333333334</ele><time>2026-04-28T09:51:40Z</time></trkpt><trkpt lat="28.9927339878473" lon="-10.316360938343166"><ele>189.0</ele><time>2026-04-28T09:51:41Z</time></trkpt><trkpt lat="28.99281253176464" lon="-10.316598279535073"><ele>189.66666666666666</ele><time>2026-04-28T09:51:42Z</time></trkpt><trkpt lat="28.99289174256396" lon="-10.316836515204075"><ele>190.33333333333331</ele><time>2026-04-28T09:51:43Z</time></trkpt><trkpt lat="28.99296960628581" lon="-10.317073151570057"><ele>191.0</ele><time>2026-04-28T09:51:44Z</time></trkpt><trkpt lat="28.993045375008936" lon="-10.31731263001644"><ele>192.0</ele><time>2026-04-28T09:51:45Z</time></trkpt><trkpt lat="28.993120291029353" lon="-10.317549453037998"><ele>193.0</ele><time>2026-04-28T09:51:46Z</time></trkpt><trkpt lat="28.993194606475672" lon="-10.317784687746789"><ele>194.0</ele><time>2026-04-28T09:51:47Z</time></trkpt><trkpt lat="28.99327120705046" lon="-10.318024062992407"><ele>197.0</ele><time>2026-04-28T09:51:48Z</time></trkpt><trkpt lat="28.993348538099074" lon="-10.318266411504675"><ele>200.0</ele><time>2026-04-28T09:51:49Z</time></trkpt><trkpt lat="28.993428542649742" lon="-10.318512869450842"><ele>200.0</ele><time>2026-04-28T09:51:50Z</time></trkpt><trkpt lat="28.993506611871" lon="-10.318761120049174"><ele>200.0</ele><time>2026-04-28T09:51:51Z</time></trkpt><trkpt lat="28.993581464474207" lon="-10.31901362048256"><ele>201.0</ele><time>2026-04-28T09:51:52Z</time></trkpt><trkpt lat="28.99365592804286" lon="-10.319265630269852"><ele>202.0</ele><time>2026-04-28T09:51:53Z</time></trkpt><trkpt lat="28.993731551075324" lon="-10.319519668807486"><ele>200.0</ele><time>2026-04-28T09:51:54Z</time></trkpt><trkpt lat="28.993809890267528" lon="-10.319778739001308"><ele>198.0</ele><time>2026-04-28T09:51:55Z</time></trkpt><trkpt lat="28.99389355677001" lon="-10.320038241440608"><ele>198.0</ele><time>2026-04-28T09:51:56Z</time></trkpt><trkpt lat="28.993981071267555" lon="-10.32030070574856"><ele>198.0</ele><time>2026-04-28T09:51:57Z</time></trkpt><trkpt lat="28.994068283293558" lon="-10.32056220227625"><ele>197.5</ele><time>2026-04-28T09:51:58Z</time></trkpt><trkpt lat="28.994157904197337" lon="-10.320824077308506"><ele>197.0</ele><time>2026-04-28T09:51:59Z</time></trkpt><trkpt lat="28.99424123546436" lon="-10.321085515886798"><ele>198.0</ele><time>2026-04-28T09:52:00Z</time></trkpt><trkpt lat="28.994324582075457" lon="-10.32134874255896"><ele>199.0</ele><time>2026-04-28T09:52:01Z</time></trkpt><trkpt lat="28.99440920406185" lon="-10.321611037234776"><ele>200.0</ele><time>2026-04-28T09:52:02Z</time></trkpt><trkpt lat="28.994492137034197" lon="-10.321874103662315"><ele>201.0</ele><time>2026-04-28T09:52:03Z</time></trkpt><trkpt lat="28.994575573561004" lon="-10.322137122633388"><ele>201.0</ele><time>2026-04-28T09:52:04Z</time></trkpt><trkpt lat="28.994657907344806" lon="-10.322399759411034"><ele>201.0</ele><time>2026-04-28T09:52:05Z</time></trkpt><trkpt lat="28.994741817784806" lon="-10.322659290249158"><ele>201.0</ele><time>2026-04-28T09:52:06Z</time></trkpt><trkpt lat="28.99482237679058" lon="-10.322918135320473"><ele>201.0</ele><time>2026-04-28T09:52:07Z</time></trkpt><trkpt lat="28.994903771549215" lon="-10.323175067400236"><ele>202.5</ele><time>2026-04-28T09:52:08Z</time></trkpt><trkpt lat="28.994981322519088" lon="-10.32343063068024"><ele>204.0</ele><time>2026-04-28T09:52:09Z</time></trkpt><trkpt lat="28.995062734550167" lon="-10.323683401061091"><ele>205.5</ele><time>2026-04-28T09:52:10Z</time></trkpt><trkpt lat="28.995143215905525" lon="-10.323936683674935"><ele>207.0</ele><time>2026-04-28T09:52:11Z</time></trkpt><trkpt lat="28.99522178384751" lon="-10.3241925276795"><ele>207.0</ele><time>2026-04-28T09:52:12Z</time></trkpt><trkpt lat="28.995303661344952" lon="-10.32444450867691"><ele>207.0</ele><time>2026-04-28T09:52:13Z</time></trkpt><trkpt lat="28.99538594973045" lon="-10.32469713811597"><ele>207.0</ele><time>2026-04-28T09:52:14Z</time></trkpt><trkpt lat="28.995467692592968" lon="-10.324954011648533"><ele>207.0</ele><time>2026-04-28T09:52:15Z</time></trkpt><trkpt lat="28.99555049922919" lon="-10.32521189782325"><ele>207.0</ele><time>2026-04-28T09:52:16Z</time></trkpt><trkpt lat="28.9956288993026" lon="-10.325471811566125"><ele>207.0</ele><time>2026-04-28T09:52:17Z</time></trkpt><trkpt lat="28.9957091662949" lon="-10.325730148433802"><ele>207.5</ele><time>2026-04-28T09:52:18Z</time></trkpt><trkpt lat="28.99579124510834" lon="-10.325981723603453"><ele>208.0</ele><time>2026-04-28T09:52:19Z</time></trkpt><trkpt lat="28.99587038433162" lon="-10.326231019103714"><ele>208.33333333333331</ele><time>2026-04-28T09:52:20Z</time></trkpt><trkpt lat="28.995953926028502" lon="-10.326469050887253"><ele>208.66666666666669</ele><time>2026-04-28T09:52:21Z</time></trkpt><trkpt lat="28.996026224435663" lon="-10.32669880410535"><ele>209.0</ele><time>2026-04-28T09:52:22Z</time></trkpt><trkpt lat="28.99609419630538" lon="-10.326919576913001"><ele>209.0</ele><time>2026-04-28T09:52:23Z</time></trkpt><trkpt lat="28.996163426173638" lon="-10.327139416628448"><ele>209.0</ele><time>2026-04-28T09:52:24Z</time></trkpt><trkpt lat="28.99623475238593" lon="-10.327361646281652"><ele>209.0</ele><time>2026-04-28T09:52:25Z</time></trkpt><trkpt lat="28.996310880644465" lon="-10.327598919712264"><ele>211.0</ele><time>2026-04-28T09:52:26Z</time></trkpt><trkpt lat="28.996394694331016" lon="-10.32784681704905"><ele>213.0</ele><time>2026-04-28T09:52:27Z</time></trkpt><trkpt lat="28.996476145422452" lon="-10.328094597920023"><ele>215.0</ele><time>2026-04-28T09:52:28Z</time></trkpt><trkpt lat="28.996559062945312" lon="-10.328349897137667"><ele>217.0</ele><time>2026-04-28T09:52:29Z</time></trkpt><trkpt lat="28.996638334037275" lon="-10.328604420632791"><ele>216.5</ele><time>2026-04-28T09:52:30Z</time></trkpt><trkpt lat="28.996714700518982" lon="-10.328851526470158"><ele>216.0</ele><time>2026-04-28T09:52:31Z</time></trkpt><trkpt lat="28.99679274454992" lon="-10.32910232044434"><ele>216.0</ele><time>2026-04-28T09:52:32Z</time></trkpt><trkpt lat="28.996870275780005" lon="-10.329354886304387"><ele>216.0</ele><time>2026-04-28T09:52:33Z</time></trkpt><trkpt lat="28.996944547302945" lon="-10.329609152407404"><ele>216.5</ele><time>2026-04-28T09:52:34Z</time></trkpt><trkpt lat="28.997016517108637" lon="-10.329866414211141"><ele>217.0</ele><time>2026-04-28T09:52:35Z</time></trkpt><trkpt lat="28.997090026327026" lon="-10.33012977277024"><ele>217.0</ele><time>2026-04-28T09:52:36Z</time></trkpt><trkpt lat="28.99716426786213" lon="-10.330390883516706"><ele>217.0</ele><time>2026-04-28T09:52:37Z</time></trkpt><trkpt lat="28.99723895513033" lon="-10.330650015388853"><ele>217.5</ele><time>2026-04-28T09:52:38Z</time></trkpt><trkpt lat="28.997314418846372" lon="-10.330907009605207"><ele>218.0</ele><time>2026-04-28T09:52:39Z</time></trkpt><trkpt lat="28.99738731819114" lon="-10.33116358723149"><ele>218.5</ele><time>2026-04-28T09:52:40Z</time></trkpt><trkpt lat="28.997456772572196" lon="-10.331421574111756"><ele>219.0</ele><time>2026-04-28T09:52:41Z</time></trkpt><trkpt lat="28.997520353367467" lon="-10.331680157826417"><ele>219.0</ele><time>2026-04-28T09:52:42Z</time></trkpt><trkpt lat="28.997585575329857" lon="-10.331938716511658"><ele>219.0</ele><time>2026-04-28T09:52:43Z</time></trkpt><trkpt lat="28.997652824996617" lon="-10.33219822852016"><ele>219.5</ele><time>2026-04-28T09:52:44Z</time></trkpt><trkpt lat="28.99771928045526" lon="-10.332461905101978"><ele>220.0</ele><time>2026-04-28T09:52:45Z</time></trkpt><trkpt lat="28.997784587817872" lon="-10.33272860257116"><ele>220.0</ele><time>2026-04-28T09:52:46Z</time></trkpt><trkpt lat="28.99785093186439" lon="-10.332993733835282"><ele>220.0</ele><time>2026-04-28T09:52:47Z</time></trkpt><trkpt lat="28.997918080246592" lon="-10.333258591790758"><ele>219.5</ele><time>2026-04-28T09:52:48Z</time></trkpt><trkpt lat="28.997983749209123" lon="-10.33351772849125"><ele>219.0</ele><time>2026-04-28T09:52:49Z</time></trkpt><trkpt lat="28.99805073299083" lon="-10.333773117489079"><ele>220.0</ele><time>2026-04-28T09:52:50Z</time></trkpt><trkpt lat="28.99811840507833" lon="-10.334032286391123"><ele>221.0</ele><time>2026-04-28T09:52:51Z</time></trkpt><trkpt lat="28.99818369205474" lon="-10.334294572968075"><ele>221.0</ele><time>2026-04-28T09:52:52Z</time></trkpt><trkpt lat="28.998250509585766" lon="-10.334557519365218"><ele>221.0</ele><time>2026-04-28T09:52:53Z</time></trkpt><trkpt lat="28.998318630744425" lon="-10.334820852143237"><ele>225.0</ele><time>2026-04-28T09:52:54Z</time></trkpt><trkpt lat="28.998386433025328" lon="-10.335084606216842"><ele>229.0</ele><time>2026-04-28T09:52:55Z</time></trkpt><trkpt lat="28.99845489827547" lon="-10.335347356711473"><ele>229.0</ele><time>2026-04-28T09:52:56Z</time></trkpt><trkpt lat="28.998520702708383" lon="-10.335605810002763"><ele>229.0</ele><time>2026-04-28T09:52:57Z</time></trkpt><trkpt lat="28.99858419101309" lon="-10.335855246394853"><ele>229.0</ele><time>2026-04-28T09:52:58Z</time></trkpt><trkpt lat="28.99864425792435" lon="-10.33610339584531"><ele>229.0</ele><time>2026-04-28T09:52:59Z</time></trkpt><trkpt lat="28.9987011032129" lon="-10.33634351444383"><ele>229.0</ele><time>2026-04-28T09:53:00Z</time></trkpt><trkpt lat="28.998756391945054" lon="-10.336572706384333"><ele>229.33333333333331</ele><time>2026-04-28T09:53:01Z</time></trkpt><trkpt lat="28.998811898302947" lon="-10.336797700443414"><ele>229.66666666666669</ele><time>2026-04-28T09:53:02Z</time></trkpt><trkpt lat="28.99886922850936" lon="-10.337020774968662"><ele>230.0</ele><time>2026-04-28T09:53:03Z</time></trkpt><trkpt lat="28.99892480636223" lon="-10.337245070007228"><ele>230.0</ele><time>2026-04-28T09:53:04Z</time></trkpt><trkpt lat="28.998979803461683" lon="-10.337464152741044"><ele>230.0</ele><time>2026-04-28T09:53:05Z</time></trkpt><trkpt lat="28.999033241421575" lon="-10.337676491160277"><ele>230.0</ele><time>2026-04-28T09:53:06Z</time></trkpt><trkpt lat="28.99908475790777" lon="-10.337886357677068"><ele>229.66666666666669</ele><time>2026-04-28T09:53:07Z</time></trkpt><trkpt lat="28.999137570288454" lon="-10.338094411004693"><ele>229.33333333333331</ele><time>2026-04-28T09:53:08Z</time></trkpt><trkpt lat="28.999191828189154" lon="-10.33830199769647"><ele>229.0</ele><time>2026-04-28T09:53:09Z</time></trkpt><trkpt lat="28.99925185770514" lon="-10.338509669204878"><ele>229.0</ele><time>2026-04-28T09:53:10Z</time></trkpt><trkpt lat="28.99931420431814" lon="-10.338720643494954"><ele>229.0</ele><time>2026-04-28T09:53:11Z</time></trkpt><trkpt lat="28.999378624390044" lon="-10.338935457722414"><ele>229.0</ele><time>2026-04-28T09:53:12Z</time></trkpt><trkpt lat="28.99944710307934" lon="-10.33914943993282"><ele>229.66666666666666</ele><time>2026-04-28T09:53:13Z</time></trkpt><trkpt lat="28.99952503414911" lon="-10.33935645272887"><ele>230.33333333333331</ele><time>2026-04-28T09:53:14Z</time></trkpt><trkpt lat="28.999613788400517" lon="-10.339558327621939"><ele>231.0</ele><time>2026-04-28T09:53:15Z</time></trkpt><trkpt lat="28.999709851694565" lon="-10.33975886257095"><ele>229.66666666666669</ele><time>2026-04-28T09:53:16Z</time></trkpt><trkpt lat="28.999819108435094" lon="-10.339956022130409"><ele>228.33333333333334</ele><time>2026-04-28T09:53:17Z</time></trkpt><trkpt lat="28.99994352444492" lon="-10.340151271906466"><ele>227.0</ele><time>2026-04-28T09:53:18Z</time></trkpt><trkpt lat="29.000086870514654" lon="-10.340346527867725"><ele>227.0</ele><time>2026-04-28T09:53:19Z</time></trkpt><trkpt lat="29.00025286486447" lon="-10.340546933428765"><ele>227.0</ele><time>2026-04-28T09:53:20Z</time></trkpt><trkpt lat="29.00043300589916" lon="-10.34074875870826"><ele>225.0</ele><time>2026-04-28T09:53:21Z</time></trkpt><trkpt lat="29.00061612917851" lon="-10.340945742317032"><ele>223.0</ele><time>2026-04-28T09:53:22Z</time></trkpt><trkpt lat="29.000811817322667" lon="-10.341142437860148"><ele>223.0</ele><time>2026-04-28T09:53:23Z</time></trkpt><trkpt lat="29.00102824373688" lon="-10.3413369833724"><ele>223.0</ele><time>2026-04-28T09:53:24Z</time></trkpt><trkpt lat="29.001256920682746" lon="-10.341522197506903"><ele>223.0</ele><time>2026-04-28T09:53:25Z</time></trkpt><trkpt lat="29.00147921773341" lon="-10.341700805933634"><ele>223.0</ele><time>2026-04-28T09:53:26Z</time></trkpt><trkpt lat="29.001682099112184" lon="-10.341864502432916"><ele>224.0</ele><time>2026-04-28T09:53:27Z</time></trkpt><trkpt lat="29.001874116882586" lon="-10.342021476412015"><ele>225.0</ele><time>2026-04-28T09:53:28Z</time></trkpt><trkpt lat="29.002058970898847" lon="-10.342172447908945"><ele>223.0</ele><time>2026-04-28T09:53:29Z</time></trkpt><trkpt lat="29.00225289320812" lon="-10.342326146943778"><ele>221.0</ele><time>2026-04-28T09:53:30Z</time></trkpt><trkpt lat="29.002451981250527" lon="-10.342479728905007"><ele>223.0</ele><time>2026-04-28T09:53:31Z</time></trkpt><trkpt lat="29.002644795727917" lon="-10.342628313336647"><ele>225.0</ele><time>2026-04-28T09:53:32Z</time></trkpt><trkpt lat="29.002837094097995" lon="-10.34277594961877"><ele>225.0</ele><time>2026-04-28T09:53:33Z</time></trkpt><trkpt lat="29.00303568256792" lon="-10.342911905120722"><ele>225.0</ele><time>2026-04-28T09:53:34Z</time></trkpt><trkpt lat="29.003247858015023" lon="-10.343032751673586"><ele>225.0</ele><time>2026-04-28T09:53:35Z</time></trkpt><trkpt lat="29.00346575082861" lon="-10.343147269463524"><ele>225.0</ele><time>2026-04-28T09:53:36Z</time></trkpt><trkpt lat="29.003695203965215" lon="-10.343268221605953"><ele>225.0</ele><time>2026-04-28T09:53:37Z</time></trkpt><trkpt lat="29.00392245976967" lon="-10.34339230234119"><ele>225.0</ele><time>2026-04-28T09:53:38Z</time></trkpt><trkpt lat="29.004143264098197" lon="-10.343518348899194"><ele>226.0</ele><time>2026-04-28T09:53:39Z</time></trkpt><trkpt lat="29.004362584413393" lon="-10.34364253629142"><ele>227.0</ele><time>2026-04-28T09:53:40Z</time></trkpt><trkpt lat="29.004582330729956" lon="-10.343766800583756"><ele>226.5</ele><time>2026-04-28T09:53:41Z</time></trkpt><trkpt lat="29.00480109231676" lon="-10.343888338094432"><ele>226.0</ele><time>2026-04-28T09:53:42Z</time></trkpt><trkpt lat="29.005013510228547" lon="-10.344003555322491"><ele>228.0</ele><time>2026-04-28T09:53:43Z</time></trkpt><trkpt lat="29.00522150009606" lon="-10.344114745355194"><ele>230.0</ele><time>2026-04-28T09:53:44Z</time></trkpt><trkpt lat="29.00542663176277" lon="-10.344224013853276"><ele>230.0</ele><time>2026-04-28T09:53:45Z</time></trkpt><trkpt lat="29.005624618736196" lon="-10.344329119459694"><ele>230.0</ele><time>2026-04-28T09:53:46Z</time></trkpt><trkpt lat="29.00580874549021" lon="-10.344428159682156"><ele>230.0</ele><time>2026-04-28T09:53:47Z</time></trkpt><trkpt lat="29.00597885817168" lon="-10.344518284868876"><ele>231.66666666666669</ele><time>2026-04-28T09:53:48Z</time></trkpt><trkpt lat="29.0061416157008" lon="-10.344600899235878"><ele>233.33333333333331</ele><time>2026-04-28T09:53:49Z</time></trkpt><trkpt lat="29.006290713036375" lon="-10.344678069679071"><ele>235.0</ele><time>2026-04-28T09:53:50Z</time></trkpt><trkpt lat="29.00641555009585" lon="-10.344748504345683"><ele>234.83333333333331</ele><time>2026-04-28T09:53:51Z</time></trkpt><trkpt lat="29.006510472000937" lon="-10.344806679932292"><ele>234.66666666666666</ele><time>2026-04-28T09:53:52Z</time></trkpt><trkpt lat="29.00658038696145" lon="-10.344850100005925"><ele>234.5</ele><time>2026-04-28T09:53:53Z</time></trkpt><trkpt lat="29.006672353127787" lon="-10.344903204775415"><ele>234.33333333333331</ele><time>2026-04-28T09:53:55Z</time></trkpt><trkpt lat="29.006737343849597" lon="-10.34493054179662"><ele>234.16666666666666</ele><time>2026-04-28T09:53:57Z</time></trkpt><trkpt lat="29.006813345504998" lon="-10.344932372753634"><ele>234.0</ele><time>2026-04-28T09:54:00Z</time></trkpt><trkpt lat="29.006870275958065" lon="-10.344974868056298"><ele>234.0</ele><time>2026-04-28T10:04:23Z</time></trkpt><trkpt lat="29.00692626990838" lon="-10.345078047233967"><ele>234.0</ele><time>2026-04-28T10:04:25Z</time></trkpt><trkpt lat="29.00697239903334" lon="-10.345151315899765"><ele>234.0</ele><time>2026-04-28T10:04:26Z</time></trkpt><trkpt lat="29.00701901448117" lon="-10.345219438008522"><ele>234.0</ele><time>2026-04-28T10:04:27Z</time></trkpt><trkpt lat="29.007072926808355" lon="-10.345283206558447"><ele>234.0</ele><time>2026-04-28T10:04:28Z</time></trkpt><trkpt lat="29.007119895668755" lon="-10.345342716934004"><ele>234.0</ele><time>2026-04-28T10:04:29Z</time></trkpt><trkpt lat="29.00719483368405" lon="-10.345435876798692"><ele>234.0</ele><time>2026-04-28T10:04:31Z</time></trkpt><trkpt lat="29.007229939995824" lon="-10.34549591037233"><ele>234.0</ele><time>2026-04-28T10:04:32Z</time></trkpt><trkpt lat="29.007258485630082" lon="-10.34557078673769"><ele>234.0</ele><time>2026-04-28T10:04:33Z</time></trkpt><trkpt lat="29.00728681232921" lon="-10.345658934664572"><ele>234.0</ele><time>2026-04-28T10:04:34Z</time></trkpt><trkpt lat="29.007316202542494" lon="-10.345737457937668"><ele>234.0</ele><time>2026-04-28T10:04:35Z</time></trkpt><trkpt lat="29.007354467895194" lon="-10.345849823186853"><ele>234.0</ele><time>2026-04-28T10:04:37Z</time></trkpt><trkpt lat="29.007385722309184" lon="-10.345939262317236"><ele>233.39999999999998</ele><time>2026-04-28T10:04:39Z</time></trkpt><trkpt lat="29.007415519404123" lon="-10.34603495435474"><ele>232.79999999999998</ele><time>2026-04-28T10:04:41Z</time></trkpt><trkpt lat="29.007443664908823" lon="-10.346118942156233"><ele>232.20000000000002</ele><time>2026-04-28T10:04:43Z</time></trkpt><trkpt lat="29.00750050057546" lon="-10.346265569700428"><ele>231.60000000000002</ele><time>2026-04-28T10:04:45Z</time></trkpt><trkpt lat="29.00753298670885" lon="-10.346342762169847"><ele>231.0</ele><time>2026-04-28T10:04:46Z</time></trkpt><trkpt lat="29.007558534193347" lon="-10.346429289330585"><ele>229.4</ele><time>2026-04-28T10:04:47Z</time></trkpt><trkpt lat="29.00759067564994" lon="-10.346541690368904"><ele>227.8</ele><time>2026-04-28T10:04:48Z</time></trkpt><trkpt lat="29.00762628753721" lon="-10.346650726257124"><ele>226.20000000000002</ele><time>2026-04-28T10:04:49Z</time></trkpt><trkpt lat="29.00766196412427" lon="-10.346759723086361"><ele>224.60000000000002</ele><time>2026-04-28T10:04:50Z</time></trkpt><trkpt lat="29.007697631540804" lon="-10.346851758426121"><ele>223.0</ele><time>2026-04-28T10:04:51Z</time></trkpt><trkpt lat="29.007719725204527" lon="-10.346921568852657"><ele>223.0</ele><time>2026-04-28T10:04:52Z</time></trkpt><trkpt lat="29.007750439565577" lon="-10.34705228769988"><ele>223.0</ele><time>2026-04-28T10:04:54Z</time></trkpt><trkpt lat="29.007773950099995" lon="-10.347132011984472"><ele>223.0</ele><time>2026-04-28T10:04:55Z</time></trkpt><trkpt lat="29.007808922741688" lon="-10.347273206087142"><ele>223.0</ele><time>2026-04-28T10:04:57Z</time></trkpt><trkpt lat="29.007836421671445" lon="-10.347353449525743"><ele>223.0</ele><time>2026-04-28T10:04:58Z</time></trkpt><trkpt lat="29.007861712845905" lon="-10.347441920776264"><ele>222.0</ele><time>2026-04-28T10:04:59Z</time></trkpt><trkpt lat="29.007884572102178" lon="-10.347528444555538"><ele>221.0</ele><time>2026-04-28T10:05:00Z</time></trkpt><trkpt lat="29.0079095821188" lon="-10.347693461342242"><ele>220.0</ele><time>2026-04-28T10:05:02Z</time></trkpt><trkpt lat="29.007918090202345" lon="-10.347783386930363"><ele>219.0</ele><time>2026-04-28T10:05:03Z</time></trkpt><trkpt lat="29.00792504085898" lon="-10.347864937107762"><ele>218.0</ele><time>2026-04-28T10:05:04Z</time></trkpt><trkpt lat="29.00792341681694" lon="-10.347953439008428"><ele>218.00000000000003</ele><time>2026-04-28T10:05:05Z</time></trkpt><trkpt lat="29.007925304178382" lon="-10.348035200766118"><ele>218.0</ele><time>2026-04-28T10:05:06Z</time></trkpt><trkpt lat="29.007930879700254" lon="-10.348140555144813"><ele>218.0</ele><time>2026-04-28T10:05:08Z</time></trkpt><trkpt lat="29.007941244220337" lon="-10.348229402605636"><ele>218.0</ele><time>2026-04-28T10:05:09Z</time></trkpt><trkpt lat="29.007948055650303" lon="-10.348309992276029"><ele>218.00000000000003</ele><time>2026-04-28T10:05:10Z</time></trkpt><trkpt lat="29.007957757085105" lon="-10.348427310182025"><ele>218.0</ele><time>2026-04-28T10:05:12Z</time></trkpt><trkpt lat="29.007952015101612" lon="-10.348510153132173"><ele>217.4</ele><time>2026-04-28T10:05:14Z</time></trkpt><trkpt lat="29.00795141728475" lon="-10.348613629609083"><ele>216.8</ele><time>2026-04-28T10:05:16Z</time></trkpt><trkpt lat="29.007960904195848" lon="-10.348740204444196"><ele>216.2</ele><time>2026-04-28T10:05:18Z</time></trkpt><trkpt lat="29.007956261367234" lon="-10.348841746148201"><ele>215.6</ele><time>2026-04-28T10:05:20Z</time></trkpt><trkpt lat="29.00791011867163" lon="-10.348936077387789"><ele>215.0</ele><time>2026-04-28T10:05:23Z</time></trkpt><trkpt lat="29.007861654772768" lon="-10.34903256763268"><ele>214.4</ele><time>2026-04-28T10:05:25Z</time></trkpt><trkpt lat="29.007852260388354" lon="-10.349182642108241"><ele>213.8</ele><time>2026-04-28T10:05:27Z</time></trkpt><trkpt lat="29.00786009589873" lon="-10.349280371070687"><ele>213.2</ele><time>2026-04-28T10:05:28Z</time></trkpt><trkpt lat="29.00787408387639" lon="-10.34938486879635"><ele>212.6</ele><time>2026-04-28T10:05:29Z</time></trkpt><trkpt lat="29.007885826850448" lon="-10.349485379374453"><ele>212.0</ele><time>2026-04-28T10:05:30Z</time></trkpt><trkpt lat="29.00788991385377" lon="-10.349582568826145"><ele>212.0</ele><time>2026-04-28T10:05:31Z</time></trkpt><trkpt lat="29.007889895726652" lon="-10.349667757173341"><ele>212.0</ele><time>2026-04-28T10:05:32Z</time></trkpt><trkpt lat="29.007892225965065" lon="-10.349743721325867"><ele>212.0</ele><time>2026-04-28T10:05:33Z</time></trkpt><trkpt lat="29.007898275284663" lon="-10.349824134435616"><ele>212.0</ele><time>2026-04-28T10:05:34Z</time></trkpt><trkpt lat="29.00790593902176" lon="-10.349906082760535"><ele>212.0</ele><time>2026-04-28T10:05:35Z</time></trkpt><trkpt lat="29.007913939488258" lon="-10.349990869787508"><ele>212.0</ele><time>2026-04-28T10:05:36Z</time></trkpt><trkpt lat="29.00792164131804" lon="-10.35007450675519"><ele>212.0</ele><time>2026-04-28T10:05:37Z</time></trkpt><trkpt lat="29.007929838202358" lon="-10.350159527677775"><ele>211.8</ele><time>2026-04-28T10:05:38Z</time></trkpt><trkpt lat="29.007943094494443" lon="-10.350249865584932"><ele>211.6</ele><time>2026-04-28T10:05:39Z</time></trkpt><trkpt lat="29.00795680451212" lon="-10.350346952525562"><ele>211.4</ele><time>2026-04-28T10:05:40Z</time></trkpt><trkpt lat="29.00797101721567" lon="-10.3504471385628"><ele>211.20000000000002</ele><time>2026-04-28T10:05:41Z</time></trkpt><trkpt lat="29.00799046672603" lon="-10.350557437197688"><ele>211.0</ele><time>2026-04-28T10:05:42Z</time></trkpt><trkpt lat="29.008012977058808" lon="-10.350672306874614"><ele>210.75</ele><time>2026-04-28T10:05:43Z</time></trkpt><trkpt lat="29.008035981451872" lon="-10.350793272882049"><ele>210.5</ele><time>2026-04-28T10:05:44Z</time></trkpt><trkpt lat="29.008060668609446" lon="-10.350921402076716"><ele>210.25</ele><time>2026-04-28T10:05:45Z</time></trkpt><trkpt lat="29.00808819055511" lon="-10.351053749584052"><ele>210.0</ele><time>2026-04-28T10:05:46Z</time></trkpt><trkpt lat="29.0081183316968" lon="-10.351188296067056"><ele>210.0</ele><time>2026-04-28T10:05:47Z</time></trkpt><trkpt lat="29.008145556159114" lon="-10.351324586254115"><ele>210.0</ele><time>2026-04-28T10:05:48Z</time></trkpt><trkpt lat="29.00817936750293" lon="-10.351466147534534"><ele>210.0</ele><time>2026-04-28T10:05:49Z</time></trkpt><trkpt lat="29.008212718726213" lon="-10.35161276882064"><ele>210.0</ele><time>2026-04-28T10:05:50Z</time></trkpt><trkpt lat="29.008249185831325" lon="-10.35176958406194"><ele>209.66666666666669</ele><time>2026-04-28T10:05:51Z</time></trkpt><trkpt lat="29.008288615566304" lon="-10.351937922580984"><ele>209.33333333333334</ele><time>2026-04-28T10:05:52Z</time></trkpt><trkpt lat="29.008327673933273" lon="-10.352112248922415"><ele>209.0</ele><time>2026-04-28T10:05:53Z</time></trkpt><trkpt lat="29.008370646758863" lon="-10.352294979418538"><ele>207.33333333333334</ele><time>2026-04-28T10:05:54Z</time></trkpt><trkpt lat="29.008422832172805" lon="-10.352495900524708"><ele>205.66666666666669</ele><time>2026-04-28T10:05:55Z</time></trkpt><trkpt lat="29.008462944577257" lon="-10.352705800494737"><ele>204.0</ele><time>2026-04-28T10:05:56Z</time></trkpt><trkpt lat="29.008512636936807" lon="-10.352919188025837"><ele>203.33333333333331</ele><time>2026-04-28T10:05:57Z</time></trkpt><trkpt lat="29.008559594182195" lon="-10.353132789581732"><ele>202.66666666666666</ele><time>2026-04-28T10:05:58Z</time></trkpt><trkpt lat="29.00860501939413" lon="-10.353349079351055"><ele>202.0</ele><time>2026-04-28T10:05:59Z</time></trkpt><trkpt lat="29.008649438889567" lon="-10.353572394532113"><ele>202.0</ele><time>2026-04-28T10:06:00Z</time></trkpt><trkpt lat="29.008696560002857" lon="-10.353802150869539"><ele>202.0</ele><time>2026-04-28T10:06:01Z</time></trkpt><trkpt lat="29.008745465091934" lon="-10.35403674325865"><ele>202.0</ele><time>2026-04-28T10:06:02Z</time></trkpt><trkpt lat="29.008799363504135" lon="-10.354273455570052"><ele>201.0</ele><time>2026-04-28T10:06:03Z</time></trkpt><trkpt lat="29.00885192965022" lon="-10.354507399457363"><ele>200.0</ele><time>2026-04-28T10:06:04Z</time></trkpt><trkpt lat="29.008904760742173" lon="-10.354741344845543"><ele>199.0</ele><time>2026-04-28T10:06:05Z</time></trkpt><trkpt lat="29.008954355319123" lon="-10.354967543411023"><ele>198.33333333333331</ele><time>2026-04-28T10:06:06Z</time></trkpt><trkpt lat="29.009002317551822" lon="-10.355189680102878"><ele>197.66666666666669</ele><time>2026-04-28T10:06:07Z</time></trkpt><trkpt lat="29.00904735286667" lon="-10.355404662796541"><ele>197.0</ele><time>2026-04-28T10:06:08Z</time></trkpt><trkpt lat="29.009093968070246" lon="-10.355616293324005"><ele>197.0</ele><time>2026-04-28T10:06:09Z</time></trkpt><trkpt lat="29.009143493399357" lon="-10.355845692849389"><ele>197.0</ele><time>2026-04-28T10:06:10Z</time></trkpt><trkpt lat="29.00919810487699" lon="-10.356095892013068"><ele>197.0</ele><time>2026-04-28T10:06:11Z</time></trkpt><trkpt lat="29.009256950740202" lon="-10.356356369438945"><ele>196.0</ele><time>2026-04-28T10:06:12Z</time></trkpt><trkpt lat="29.009317606928285" lon="-10.356621204273393"><ele>195.0</ele><time>2026-04-28T10:06:13Z</time></trkpt><trkpt lat="29.009380300255543" lon="-10.356903299495361"><ele>195.0</ele><time>2026-04-28T10:06:14Z</time></trkpt><trkpt lat="29.009456494682983" lon="-10.357188491495695"><ele>195.0</ele><time>2026-04-28T10:06:15Z</time></trkpt><trkpt lat="29.00951640556144" lon="-10.357486014109814"><ele>193.0</ele><time>2026-04-28T10:06:16Z</time></trkpt><trkpt lat="29.009561902094468" lon="-10.357782132826229"><ele>191.0</ele><time>2026-04-28T10:06:17Z</time></trkpt><trkpt lat="29.009625936489392" lon="-10.35807258601143"><ele>188.5</ele><time>2026-04-28T10:06:18Z</time></trkpt><trkpt lat="29.009689472329228" lon="-10.358362220809623"><ele>186.0</ele><time>2026-04-28T10:06:19Z</time></trkpt><trkpt lat="29.009756130496637" lon="-10.358648422551326"><ele>184.5</ele><time>2026-04-28T10:06:20Z</time></trkpt><trkpt lat="29.00982508722811" lon="-10.358921295266105"><ele>183.0</ele><time>2026-04-28T10:06:21Z</time></trkpt><trkpt lat="29.009892821166563" lon="-10.359171134079533"><ele>183.0</ele><time>2026-04-28T10:06:22Z</time></trkpt><trkpt lat="29.009965787513874" lon="-10.359411510788775"><ele>183.0</ele><time>2026-04-28T10:06:23Z</time></trkpt><trkpt lat="29.010050174706784" lon="-10.359657963246418"><ele>183.66666666666666</ele><time>2026-04-28T10:06:24Z</time></trkpt><trkpt lat="29.010143012764736" lon="-10.359904606876666"><ele>184.33333333333331</ele><time>2026-04-28T10:06:25Z</time></trkpt><trkpt lat="29.01023414583782" lon="-10.360114787193288"><ele>185.0</ele><time>2026-04-28T10:06:26Z</time></trkpt><trkpt lat="29.010319966197716" lon="-10.360284270757266"><ele>185.0</ele><time>2026-04-28T10:06:27Z</time></trkpt><trkpt lat="29.010400158104236" lon="-10.360435490053135"><ele>185.0</ele><time>2026-04-28T10:06:28Z</time></trkpt><trkpt lat="29.010477747706446" lon="-10.360573504575319"><ele>185.0</ele><time>2026-04-28T10:06:29Z</time></trkpt><trkpt lat="29.010546071485674" lon="-10.360702649240835"><ele>185.0</ele><time>2026-04-28T10:06:30Z</time></trkpt><trkpt lat="29.01060800718571" lon="-10.3608201678776"><ele>185.25</ele><time>2026-04-28T10:06:31Z</time></trkpt><trkpt lat="29.01066934878891" lon="-10.360926225526475"><ele>185.5</ele><time>2026-04-28T10:06:32Z</time></trkpt><trkpt lat="29.010736022851248" lon="-10.361034451400206"><ele>185.75</ele><time>2026-04-28T10:06:33Z</time></trkpt><trkpt lat="29.010809400089066" lon="-10.361152254063475"><ele>186.0</ele><time>2026-04-28T10:06:34Z</time></trkpt><trkpt lat="29.010889092514077" lon="-10.361291993623405"><ele>185.0</ele><time>2026-04-28T10:06:35Z</time></trkpt><trkpt lat="29.010976407577242" lon="-10.361444654038992"><ele>184.0</ele><time>2026-04-28T10:06:36Z</time></trkpt><trkpt lat="29.011072134858118" lon="-10.361606331393657"><ele>183.0</ele><time>2026-04-28T10:06:37Z</time></trkpt><trkpt lat="29.01116868481578" lon="-10.361768948326855"><ele>183.0</ele><time>2026-04-28T10:06:38Z</time></trkpt><trkpt lat="29.011267309711684" lon="-10.361936438860253"><ele>183.0</ele><time>2026-04-28T10:06:39Z</time></trkpt><trkpt lat="29.011365654980224" lon="-10.362103950847738"><ele>183.0</ele><time>2026-04-28T10:06:40Z</time></trkpt><trkpt lat="29.011470216864275" lon="-10.362281029188162"><ele>182.33333333333334</ele><time>2026-04-28T10:06:41Z</time></trkpt><trkpt lat="29.011578334118575" lon="-10.362464337339983"><ele>181.66666666666669</ele><time>2026-04-28T10:06:42Z</time></trkpt><trkpt lat="29.01169848760476" lon="-10.362669195154687"><ele>181.0</ele><time>2026-04-28T10:06:43Z</time></trkpt><trkpt lat="29.011814015610028" lon="-10.36286997107745"><ele>179.0</ele><time>2026-04-28T10:06:44Z</time></trkpt><trkpt lat="29.011925783373506" lon="-10.363068600128354"><ele>177.0</ele><time>2026-04-28T10:06:45Z</time></trkpt><trkpt lat="29.012035361978256" lon="-10.363268039651013"><ele>175.0</ele><time>2026-04-28T10:06:46Z</time></trkpt><trkpt lat="29.01214280302417" lon="-10.363468878799068"><ele>175.0</ele><time>2026-04-28T10:06:47Z</time></trkpt><trkpt lat="29.01225017567316" lon="-10.363667096077195"><ele>175.0</ele><time>2026-04-28T10:06:48Z</time></trkpt><trkpt lat="29.012357606443928" lon="-10.363873445229924"><ele>175.0</ele><time>2026-04-28T10:06:49Z</time></trkpt><trkpt lat="29.012456971729613" lon="-10.364085610066962"><ele>175.0</ele><time>2026-04-28T10:06:50Z</time></trkpt><trkpt lat="29.012549848953686" lon="-10.364299015854417"><ele>175.0</ele><time>2026-04-28T10:06:51Z</time></trkpt><trkpt lat="29.012639461508424" lon="-10.364517358520775"><ele>175.0</ele><time>2026-04-28T10:06:52Z</time></trkpt><trkpt lat="29.01271930668297" lon="-10.36474618713605"><ele>174.66666666666669</ele><time>2026-04-28T10:06:53Z</time></trkpt><trkpt lat="29.01279010080552" lon="-10.364979775013687"><ele>174.33333333333334</ele><time>2026-04-28T10:06:54Z</time></trkpt><trkpt lat="29.012859779702925" lon="-10.365224356206566"><ele>174.0</ele><time>2026-04-28T10:06:55Z</time></trkpt><trkpt lat="29.01292512095972" lon="-10.365473066760492"><ele>172.5</ele><time>2026-04-28T10:06:56Z</time></trkpt><trkpt lat="29.01298072329789" lon="-10.365727037176635"><ele>171.0</ele><time>2026-04-28T10:06:57Z</time></trkpt><trkpt lat="29.01303048209359" lon="-10.365983142557097"><ele>171.0</ele><time>2026-04-28T10:06:58Z</time></trkpt><trkpt lat="29.013075870824434" lon="-10.366246309572897"><ele>171.0</ele><time>2026-04-28T10:06:59Z</time></trkpt><trkpt lat="29.013118112926215" lon="-10.36650927375302"><ele>169.0</ele><time>2026-04-28T10:07:00Z</time></trkpt><trkpt lat="29.01315924232761" lon="-10.366770006365893"><ele>167.0</ele><time>2026-04-28T10:07:01Z</time></trkpt><trkpt lat="29.013195199442464" lon="-10.367029889801241"><ele>168.33333333333331</ele><time>2026-04-28T10:07:02Z</time></trkpt><trkpt lat="29.01323280177882" lon="-10.367282620043762"><ele>169.66666666666666</ele><time>2026-04-28T10:07:03Z</time></trkpt><trkpt lat="29.01327143387878" lon="-10.367531849452945"><ele>171.0</ele><time>2026-04-28T10:07:04Z</time></trkpt><trkpt lat="29.01331354528211" lon="-10.36778287856462"><ele>170.5</ele><time>2026-04-28T10:07:05Z</time></trkpt><trkpt lat="29.013356883018805" lon="-10.368039269988383"><ele>170.0</ele><time>2026-04-28T10:07:06Z</time></trkpt><trkpt lat="29.01339896438766" lon="-10.368294063616297"><ele>170.0</ele><time>2026-04-28T10:07:07Z</time></trkpt><trkpt lat="29.01343882280233" lon="-10.3685565773985"><ele>170.0</ele><time>2026-04-28T10:07:08Z</time></trkpt><trkpt lat="29.013477450320938" lon="-10.368822874288952"><ele>170.0</ele><time>2026-04-28T10:07:09Z</time></trkpt><trkpt lat="29.013517564854414" lon="-10.369090514613003"><ele>170.0</ele><time>2026-04-28T10:07:10Z</time></trkpt><trkpt lat="29.013559905193397" lon="-10.369359587769207"><ele>170.0</ele><time>2026-04-28T10:07:11Z</time></trkpt><trkpt lat="29.01360039170524" lon="-10.369625960350872"><ele>170.0</ele><time>2026-04-28T10:07:12Z</time></trkpt><trkpt lat="29.01363751616749" lon="-10.36988437649192"><ele>170.5</ele><time>2026-04-28T10:07:13Z</time></trkpt><trkpt lat="29.013674720487113" lon="-10.370146518047918"><ele>171.0</ele><time>2026-04-28T10:07:14Z</time></trkpt><trkpt lat="29.013715677607852" lon="-10.370403710302499"><ele>172.0</ele><time>2026-04-28T10:07:15Z</time></trkpt><trkpt lat="29.013757684393084" lon="-10.37065259412099"><ele>173.0</ele><time>2026-04-28T10:07:16Z</time></trkpt><trkpt lat="29.013798270982864" lon="-10.370897872583626"><ele>174.0</ele><time>2026-04-28T10:07:17Z</time></trkpt><trkpt lat="29.01383600176695" lon="-10.371127572841317"><ele>174.0</ele><time>2026-04-28T10:07:18Z</time></trkpt><trkpt lat="29.013870477547055" lon="-10.37133489751613"><ele>174.0</ele><time>2026-04-28T10:07:19Z</time></trkpt><trkpt lat="29.013903153887597" lon="-10.37152863111536"><ele>174.0</ele><time>2026-04-28T10:07:20Z</time></trkpt><trkpt lat="29.013934447646758" lon="-10.371723887944196"><ele>176.0</ele><time>2026-04-28T10:07:21Z</time></trkpt><trkpt lat="29.013967135100277" lon="-10.3719217011212"><ele>178.0</ele><time>2026-04-28T10:07:22Z</time></trkpt><trkpt lat="29.01400205670553" lon="-10.372122841927046"><ele>180.0</ele><time>2026-04-28T10:07:23Z</time></trkpt><trkpt lat="29.014039583328834" lon="-10.3723232773571"><ele>181.33333333333334</ele><time>2026-04-28T10:07:24Z</time></trkpt><trkpt lat="29.014073680824612" lon="-10.372507454461417"><ele>182.66666666666669</ele><time>2026-04-28T10:07:25Z</time></trkpt><trkpt lat="29.014102769977818" lon="-10.37268485338932"><ele>184.0</ele><time>2026-04-28T10:07:26Z</time></trkpt><trkpt lat="29.01412889172394" lon="-10.372857908989323"><ele>185.33333333333334</ele><time>2026-04-28T10:07:27Z</time></trkpt><trkpt lat="29.01415474190826" lon="-10.373030337907467"><ele>186.66666666666666</ele><time>2026-04-28T10:07:28Z</time></trkpt><trkpt lat="29.014182037661133" lon="-10.37320981645068"><ele>188.0</ele><time>2026-04-28T10:07:29Z</time></trkpt><trkpt lat="29.014211781386262" lon="-10.373384504150922"><ele>188.5</ele><time>2026-04-28T10:07:30Z</time></trkpt><trkpt lat="29.014237180661834" lon="-10.373543407156921"><ele>189.0</ele><time>2026-04-28T10:07:31Z</time></trkpt><trkpt lat="29.014260646041745" lon="-10.373699058963101"><ele>189.5</ele><time>2026-04-28T10:07:32Z</time></trkpt><trkpt lat="29.01428543129948" lon="-10.373860186167892"><ele>190.0</ele><time>2026-04-28T10:07:33Z</time></trkpt><trkpt lat="29.014314221840934" lon="-10.374018587510214"><ele>190.5</ele><time>2026-04-28T10:07:34Z</time></trkpt><trkpt lat="29.01434419933282" lon="-10.374170561080634"><ele>191.0</ele><time>2026-04-28T10:07:35Z</time></trkpt><trkpt lat="29.014371609618227" lon="-10.374318638128386"><ele>191.5</ele><time>2026-04-28T10:07:36Z</time></trkpt><trkpt lat="29.014393136304484" lon="-10.374476152542593"><ele>192.0</ele><time>2026-04-28T10:07:37Z</time></trkpt><trkpt lat="29.01441337490819" lon="-10.374644796486999"><ele>191.33333333333334</ele><time>2026-04-28T10:07:38Z</time></trkpt><trkpt lat="29.014426118062516" lon="-10.374815193185883"><ele>190.66666666666669</ele><time>2026-04-28T10:07:39Z</time></trkpt><trkpt lat="29.014436421387927" lon="-10.374993492687171"><ele>190.0</ele><time>2026-04-28T10:07:40Z</time></trkpt><trkpt lat="29.014446879863684" lon="-10.375178867561846"><ele>190.0</ele><time>2026-04-28T10:07:41Z</time></trkpt><trkpt lat="29.01445465805435" lon="-10.375364814737079"><ele>190.0</ele><time>2026-04-28T10:07:42Z</time></trkpt><trkpt lat="29.014460546417958" lon="-10.37555677588022"><ele>190.0</ele><time>2026-04-28T10:07:43Z</time></trkpt><trkpt lat="29.014465120546387" lon="-10.37575201896361"><ele>189.0</ele><time>2026-04-28T10:07:44Z</time></trkpt><trkpt lat="29.01446811830263" lon="-10.375953306623984"><ele>188.0</ele><time>2026-04-28T10:07:45Z</time></trkpt><trkpt lat="29.014472793186624" lon="-10.376158725237515"><ele>187.0</ele><time>2026-04-28T10:07:46Z</time></trkpt><trkpt lat="29.014484689458936" lon="-10.376368385562554"><ele>186.0</ele><time>2026-04-28T10:07:47Z</time></trkpt><trkpt lat="29.014502938865206" lon="-10.376587763767185"><ele>185.0</ele><time>2026-04-28T10:07:48Z</time></trkpt><trkpt lat="29.01452497507067" lon="-10.376813220083948"><ele>184.0</ele><time>2026-04-28T10:07:49Z</time></trkpt><trkpt lat="29.014552240878494" lon="-10.3770369431099"><ele>182.66666666666669</ele><time>2026-04-28T10:07:50Z</time></trkpt><trkpt lat="29.01459023833244" lon="-10.377260063583186"><ele>181.33333333333334</ele><time>2026-04-28T10:07:51Z</time></trkpt><trkpt lat="29.0146386633956" lon="-10.37748066524044"><ele>180.0</ele><time>2026-04-28T10:07:52Z</time></trkpt><trkpt lat="29.01470259556899" lon="-10.377697709853948"><ele>180.0</ele><time>2026-04-28T10:07:53Z</time></trkpt><trkpt lat="29.014782873791603" lon="-10.37790112820017"><ele>180.0</ele><time>2026-04-28T10:07:54Z</time></trkpt><trkpt lat="29.01488613458867" lon="-10.378083159789224"><ele>180.0</ele><time>2026-04-28T10:07:55Z</time></trkpt><trkpt lat="29.015001307896757" lon="-10.378250592585642"><ele>181.0</ele><time>2026-04-28T10:07:56Z</time></trkpt><trkpt lat="29.015120665323426" lon="-10.37841669764119"><ele>182.0</ele><time>2026-04-28T10:07:57Z</time></trkpt><trkpt lat="29.01524574869086" lon="-10.378577584531653"><ele>183.0</ele><time>2026-04-28T10:07:58Z</time></trkpt><trkpt lat="29.015384119276646" lon="-10.378738048113949"><ele>183.0</ele><time>2026-04-28T10:07:59Z</time></trkpt><trkpt lat="29.01553109719745" lon="-10.378885886462598"><ele>183.0</ele><time>2026-04-28T10:08:00Z</time></trkpt><trkpt lat="29.015687239886297" lon="-10.379022712749153"><ele>183.0</ele><time>2026-04-28T10:08:01Z</time></trkpt><trkpt lat="29.01586175795825" lon="-10.379145640823655"><ele>183.0</ele><time>2026-04-28T10:08:02Z</time></trkpt><trkpt lat="29.016053630639586" lon="-10.379247922488833"><ele>183.0</ele><time>2026-04-28T10:08:03Z</time></trkpt><trkpt lat="29.0162510417838" lon="-10.379339752691031"><ele>183.0</ele><time>2026-04-28T10:08:04Z</time></trkpt><trkpt lat="29.016456784257468" lon="-10.379428792422924"><ele>182.33333333333334</ele><time>2026-04-28T10:08:05Z</time></trkpt><trkpt lat="29.016655700785225" lon="-10.379514526556067"><ele>181.66666666666669</ele><time>2026-04-28T10:08:06Z</time></trkpt><trkpt lat="29.01686078904602" lon="-10.379590778079985"><ele>181.0</ele><time>2026-04-28T10:08:07Z</time></trkpt><trkpt lat="29.017065458134123" lon="-10.379670584385511"><ele>180.66666666666669</ele><time>2026-04-28T10:08:08Z</time></trkpt><trkpt lat="29.01727277257969" lon="-10.379749997561913"><ele>180.33333333333334</ele><time>2026-04-28T10:08:09Z</time></trkpt><trkpt lat="29.017475582338385" lon="-10.379834323543307"><ele>180.0</ele><time>2026-04-28T10:08:10Z</time></trkpt><trkpt lat="29.01767914507773" lon="-10.379923029030095"><ele>179.33333333333334</ele><time>2026-04-28T10:08:11Z</time></trkpt><trkpt lat="29.01788639838827" lon="-10.380010277868701"><ele>178.66666666666669</ele><time>2026-04-28T10:08:12Z</time></trkpt><trkpt lat="29.01808235206061" lon="-10.380090492426442"><ele>178.0</ele><time>2026-04-28T10:08:13Z</time></trkpt><trkpt lat="29.01827169290389" lon="-10.380163465939509"><ele>178.0</ele><time>2026-04-28T10:08:14Z</time></trkpt><trkpt lat="29.01846234912627" lon="-10.380235480485458"><ele>178.0</ele><time>2026-04-28T10:08:15Z</time></trkpt><trkpt lat="29.01865484743402" lon="-10.38031442700592"><ele>178.0</ele><time>2026-04-28T10:08:16Z</time></trkpt><trkpt lat="29.01884091198923" lon="-10.380391432311598"><ele>178.0</ele><time>2026-04-28T10:08:17Z</time></trkpt><trkpt lat="29.019025039618548" lon="-10.3804664055529"><ele>178.0</ele><time>2026-04-28T10:08:18Z</time></trkpt><trkpt lat="29.019207079318036" lon="-10.38054042058222"><ele>178.0</ele><time>2026-04-28T10:08:19Z</time></trkpt><trkpt lat="29.019378687377902" lon="-10.380611799158157"><ele>177.33333333333334</ele><time>2026-04-28T10:08:20Z</time></trkpt><trkpt lat="29.019543315646988" lon="-10.38068231724999"><ele>176.66666666666666</ele><time>2026-04-28T10:08:21Z</time></trkpt><trkpt lat="29.01970923359036" lon="-10.380752588279101"><ele>176.0</ele><time>2026-04-28T10:08:22Z</time></trkpt><trkpt lat="29.019883788891224" lon="-10.380820314140221"><ele>176.33333333333331</ele><time>2026-04-28T10:08:23Z</time></trkpt><trkpt lat="29.020055518294733" lon="-10.38088768443582"><ele>176.66666666666666</ele><time>2026-04-28T10:08:24Z</time></trkpt><trkpt lat="29.020229212460986" lon="-10.380957943754867"><ele>177.0</ele><time>2026-04-28T10:08:25Z</time></trkpt><trkpt lat="29.02039216782854" lon="-10.381024377470105"><ele>177.0</ele><time>2026-04-28T10:08:26Z</time></trkpt><trkpt lat="29.02055742109888" lon="-10.381093732465008"><ele>177.0</ele><time>2026-04-28T10:08:27Z</time></trkpt><trkpt lat="29.020709212136374" lon="-10.381156824125137"><ele>177.0</ele><time>2026-04-28T10:08:28Z</time></trkpt><trkpt lat="29.020866450171972" lon="-10.38122017001793"><ele>177.0</ele><time>2026-04-28T10:08:29Z</time></trkpt><trkpt lat="29.021026773852807" lon="-10.381284649092851"><ele>177.0</ele><time>2026-04-28T10:08:30Z</time></trkpt><trkpt lat="29.021191043033358" lon="-10.381355108403781"><ele>177.0</ele><time>2026-04-28T10:08:31Z</time></trkpt><trkpt lat="29.02135509212088" lon="-10.381428586159155"><ele>177.0</ele><time>2026-04-28T10:08:32Z</time></trkpt><trkpt lat="29.02151751943712" lon="-10.381505899486788"><ele>177.0</ele><time>2026-04-28T10:08:33Z</time></trkpt><trkpt lat="29.021673847014306" lon="-10.381593195123266"><ele>177.0</ele><time>2026-04-28T10:08:34Z</time></trkpt><trkpt lat="29.021825694337043" lon="-10.381691846817493"><ele>176.33333333333334</ele><time>2026-04-28T10:08:35Z</time></trkpt><trkpt lat="29.021971838779915" lon="-10.381801306661643"><ele>175.66666666666669</ele><time>2026-04-28T10:08:36Z</time></trkpt><trkpt lat="29.022112639974402" lon="-10.381923447350479"><ele>175.0</ele><time>2026-04-28T10:08:37Z</time></trkpt><trkpt lat="29.022251837655716" lon="-10.382057825707891"><ele>175.66666666666669</ele><time>2026-04-28T10:08:38Z</time></trkpt><trkpt lat="29.02239110508396" lon="-10.382201128981743"><ele>176.33333333333334</ele><time>2026-04-28T10:08:39Z</time></trkpt><trkpt lat="29.02252240738108" lon="-10.38235358748659"><ele>177.0</ele><time>2026-04-28T10:08:40Z</time></trkpt><trkpt lat="29.02264507880042" lon="-10.382524974946895"><ele>177.0</ele><time>2026-04-28T10:08:41Z</time></trkpt><trkpt lat="29.022745823722108" lon="-10.382703118639013"><ele>177.0</ele><time>2026-04-28T10:08:42Z</time></trkpt><trkpt lat="29.022834044072813" lon="-10.382888311198652"><ele>177.0</ele><time>2026-04-28T10:08:43Z</time></trkpt><trkpt lat="29.02291755385011" lon="-10.383066236132219"><ele>177.0</ele><time>2026-04-28T10:08:44Z</time></trkpt><trkpt lat="29.022992763381367" lon="-10.38322906464682"><ele>177.0</ele><time>2026-04-28T10:08:45Z</time></trkpt><trkpt lat="29.023073012551215" lon="-10.383403635799338"><ele>177.0</ele><time>2026-04-28T10:08:46Z</time></trkpt><trkpt lat="29.023153389483156" lon="-10.383583675897611"><ele>177.0</ele><time>2026-04-28T10:08:47Z</time></trkpt><trkpt lat="29.023234854021133" lon="-10.383778519271923"><ele>177.0</ele><time>2026-04-28T10:08:48Z</time></trkpt><trkpt lat="29.02331598551643" lon="-10.383984052395565"><ele>177.0</ele><time>2026-04-28T10:08:49Z</time></trkpt><trkpt lat="29.02339427342497" lon="-10.384200114604832"><ele>176.66666666666666</ele><time>2026-04-28T10:08:50Z</time></trkpt><trkpt lat="29.023463615031737" lon="-10.384415927698296"><ele>176.33333333333331</ele><time>2026-04-28T10:08:51Z</time></trkpt><trkpt lat="29.02352061353014" lon="-10.384639232344087"><ele>176.0</ele><time>2026-04-28T10:08:52Z</time></trkpt><trkpt lat="29.023569180082255" lon="-10.384885480520582"><ele>175.5</ele><time>2026-04-28T10:08:53Z</time></trkpt><trkpt lat="29.023608356419924" lon="-10.385144464068745"><ele>175.0</ele><time>2026-04-28T10:08:54Z</time></trkpt><trkpt lat="29.023645629620905" lon="-10.38540073885905"><ele>176.0</ele><time>2026-04-28T10:08:55Z</time></trkpt><trkpt lat="29.02367965089773" lon="-10.385654008842922"><ele>177.0</ele><time>2026-04-28T10:08:56Z</time></trkpt><trkpt lat="29.023715279771746" lon="-10.385907653202988"><ele>178.0</ele><time>2026-04-28T10:08:57Z</time></trkpt><trkpt lat="29.02375066977772" lon="-10.386160914738767"><ele>179.0</ele><time>2026-04-28T10:08:58Z</time></trkpt><trkpt lat="29.023786630120952" lon="-10.386414267680594"><ele>180.0</ele><time>2026-04-28T10:08:59Z</time></trkpt><trkpt lat="29.02382152529169" lon="-10.386663582694267"><ele>181.0</ele><time>2026-04-28T10:09:00Z</time></trkpt><trkpt lat="29.02385392865123" lon="-10.38691348094813"><ele>181.0</ele><time>2026-04-28T10:09:01Z</time></trkpt><trkpt lat="29.023885156679373" lon="-10.387167786763605"><ele>181.0</ele><time>2026-04-28T10:09:02Z</time></trkpt><trkpt lat="29.023913561830536" lon="-10.387414339591299"><ele>181.0</ele><time>2026-04-28T10:09:03Z</time></trkpt><trkpt lat="29.023938444141695" lon="-10.387643858398139"><ele>181.66666666666669</ele><time>2026-04-28T10:09:04Z</time></trkpt><trkpt lat="29.0239508296464" lon="-10.387860026301603"><ele>182.33333333333334</ele><time>2026-04-28T10:09:05Z</time></trkpt><trkpt lat="29.02394447180638" lon="-10.388082866059976"><ele>183.0</ele><time>2026-04-28T10:09:06Z</time></trkpt><trkpt lat="29.023932100912127" lon="-10.388323242742374"><ele>184.0</ele><time>2026-04-28T10:09:07Z</time></trkpt><trkpt lat="29.02391702309944" lon="-10.388587032919645"><ele>185.0</ele><time>2026-04-28T10:09:08Z</time></trkpt><trkpt lat="29.023903108713238" lon="-10.388858040140935"><ele>185.5</ele><time>2026-04-28T10:09:09Z</time></trkpt><trkpt lat="29.023889614110224" lon="-10.389124163466"><ele>186.0</ele><time>2026-04-28T10:09:10Z</time></trkpt><trkpt lat="29.02388009865479" lon="-10.389387892762256"><ele>186.0</ele><time>2026-04-28T10:09:11Z</time></trkpt><trkpt lat="29.023872645893572" lon="-10.389650972594346"><ele>186.0</ele><time>2026-04-28T10:09:12Z</time></trkpt><trkpt lat="29.023863086072385" lon="-10.389914587956406"><ele>183.5</ele><time>2026-04-28T10:09:13Z</time></trkpt><trkpt lat="29.023854511208835" lon="-10.3901805871163"><ele>181.0</ele><time>2026-04-28T10:09:14Z</time></trkpt><trkpt lat="29.02384606329758" lon="-10.390447435304203"><ele>179.5</ele><time>2026-04-28T10:09:15Z</time></trkpt><trkpt lat="29.02383430550109" lon="-10.390714279695894"><ele>178.0</ele><time>2026-04-28T10:09:16Z</time></trkpt><trkpt lat="29.023821804777395" lon="-10.39097351567053"><ele>178.0</ele><time>2026-04-28T10:09:17Z</time></trkpt><trkpt lat="29.02381338306471" lon="-10.391221836328542"><ele>178.0</ele><time>2026-04-28T10:09:18Z</time></trkpt><trkpt lat="29.023805635769826" lon="-10.391468215642824"><ele>178.0</ele><time>2026-04-28T10:09:19Z</time></trkpt><trkpt lat="29.023796671415415" lon="-10.391712995788035"><ele>178.0</ele><time>2026-04-28T10:09:20Z</time></trkpt><trkpt lat="29.023789164389765" lon="-10.39195703671986"><ele>178.0</ele><time>2026-04-28T10:09:21Z</time></trkpt><trkpt lat="29.023779420631893" lon="-10.392213555623288"><ele>178.0</ele><time>2026-04-28T10:09:22Z</time></trkpt><trkpt lat="29.023768240218615" lon="-10.392469198865495"><ele>178.33333333333334</ele><time>2026-04-28T10:09:23Z</time></trkpt><trkpt lat="29.02375596786756" lon="-10.392723032682724"><ele>178.66666666666666</ele><time>2026-04-28T10:09:24Z</time></trkpt><trkpt lat="29.02374189962508" lon="-10.392974821643822"><ele>179.0</ele><time>2026-04-28T10:09:25Z</time></trkpt><trkpt lat="29.023730298379594" lon="-10.393227663672402"><ele>179.0</ele><time>2026-04-28T10:09:26Z</time></trkpt><trkpt lat="29.02372218717501" lon="-10.393475035692546"><ele>179.0</ele><time>2026-04-28T10:09:27Z</time></trkpt><trkpt lat="29.02371439293396" lon="-10.393725469778762"><ele>179.0</ele><time>2026-04-28T10:09:28Z</time></trkpt><trkpt lat="29.023706185662384" lon="-10.39397368200472"><ele>179.33333333333331</ele><time>2026-04-28T10:09:29Z</time></trkpt><trkpt lat="29.023697550989322" lon="-10.394223140744904"><ele>179.66666666666666</ele><time>2026-04-28T10:09:30Z</time></trkpt><trkpt lat="29.02369051650378" lon="-10.394474672763005"><ele>180.0</ele><time>2026-04-28T10:09:31Z</time></trkpt><trkpt lat="29.023686834524415" lon="-10.394726846131055"><ele>180.0</ele><time>2026-04-28T10:09:32Z</time></trkpt><trkpt lat="29.02368686958984" lon="-10.394981144213807"><ele>180.0</ele><time>2026-04-28T10:09:33Z</time></trkpt><trkpt lat="29.02368989589722" lon="-10.395231757281516"><ele>180.0</ele><time>2026-04-28T10:09:34Z</time></trkpt><trkpt lat="29.023695061725807" lon="-10.395484324185773"><ele>180.66666666666666</ele><time>2026-04-28T10:09:35Z</time></trkpt><trkpt lat="29.02370567833934" lon="-10.395736484860684"><ele>181.33333333333331</ele><time>2026-04-28T10:09:36Z</time></trkpt><trkpt lat="29.023716770063107" lon="-10.395988026772441"><ele>182.0</ele><time>2026-04-28T10:09:37Z</time></trkpt><trkpt lat="29.023730706011683" lon="-10.3962413474287"><ele>182.33333333333331</ele><time>2026-04-28T10:09:38Z</time></trkpt><trkpt lat="29.02374455285347" lon="-10.396496578927401"><ele>182.66666666666666</ele><time>2026-04-28T10:09:39Z</time></trkpt><trkpt lat="29.02376053070321" lon="-10.396750464964528"><ele>183.0</ele><time>2026-04-28T10:09:40Z</time></trkpt><trkpt lat="29.02377723998069" lon="-10.397003827980392"><ele>183.0</ele><time>2026-04-28T10:09:41Z</time></trkpt><trkpt lat="29.023791355323407" lon="-10.39725841245732"><ele>183.0</ele><time>2026-04-28T10:09:42Z</time></trkpt><trkpt lat="29.023801774059688" lon="-10.397514021454985"><ele>183.0</ele><time>2026-04-28T10:09:43Z</time></trkpt><trkpt lat="29.023810804147796" lon="-10.39777581002301"><ele>183.5</ele><time>2026-04-28T10:09:44Z</time></trkpt><trkpt lat="29.023818043992843" lon="-10.398031834471517"><ele>184.0</ele><time>2026-04-28T10:09:45Z</time></trkpt><trkpt lat="29.023822612756913" lon="-10.398299364994486"><ele>184.0</ele><time>2026-04-28T10:09:46Z</time></trkpt><trkpt lat="29.02382481556276" lon="-10.398566335634639"><ele>184.0</ele><time>2026-04-28T10:09:47Z</time></trkpt><trkpt lat="29.023826976120912" lon="-10.398833696146472"><ele>183.0</ele><time>2026-04-28T10:09:48Z</time></trkpt><trkpt lat="29.023824733238442" lon="-10.399101391586177"><ele>182.0</ele><time>2026-04-28T10:09:49Z</time></trkpt><trkpt lat="29.023815805966006" lon="-10.399372889966921"><ele>182.0</ele><time>2026-04-28T10:09:50Z</time></trkpt><trkpt lat="29.023805103925376" lon="-10.39964230877872"><ele>182.0</ele><time>2026-04-28T10:09:51Z</time></trkpt><trkpt lat="29.023794910683435" lon="-10.399914175045145"><ele>181.0</ele><time>2026-04-28T10:09:52Z</time></trkpt><trkpt lat="29.023783527486277" lon="-10.400189386838537"><ele>180.0</ele><time>2026-04-28T10:09:53Z</time></trkpt><trkpt lat="29.023771330942818" lon="-10.40046350550616"><ele>179.5</ele><time>2026-04-28T10:09:54Z</time></trkpt><trkpt lat="29.023753456476104" lon="-10.400741870026073"><ele>179.0</ele><time>2026-04-28T10:09:55Z</time></trkpt><trkpt lat="29.023734012587855" lon="-10.401018670012935"><ele>179.0</ele><time>2026-04-28T10:09:56Z</time></trkpt><trkpt lat="29.023712070040297" lon="-10.401297833353976"><ele>179.0</ele><time>2026-04-28T10:09:57Z</time></trkpt><trkpt lat="29.02368546921391" lon="-10.401576200743296"><ele>179.5</ele><time>2026-04-28T10:09:58Z</time></trkpt><trkpt lat="29.023651030571415" lon="-10.401853181763135"><ele>180.0</ele><time>2026-04-28T10:09:59Z</time></trkpt><trkpt lat="29.02361137137812" lon="-10.402130600463273"><ele>179.0</ele><time>2026-04-28T10:10:00Z</time></trkpt><trkpt lat="29.023563405890684" lon="-10.402410628674481"><ele>178.0</ele><time>2026-04-28T10:10:01Z</time></trkpt><trkpt lat="29.02351245370021" lon="-10.402688093025013"><ele>178.0</ele><time>2026-04-28T10:10:02Z</time></trkpt><trkpt lat="29.023458439117288" lon="-10.402964262131862"><ele>178.0</ele><time>2026-04-28T10:10:03Z</time></trkpt><trkpt lat="29.023400419278527" lon="-10.403240177008326"><ele>178.5</ele><time>2026-04-28T10:10:04Z</time></trkpt><trkpt lat="29.02333931949073" lon="-10.403513308621497"><ele>179.0</ele><time>2026-04-28T10:10:05Z</time></trkpt><trkpt lat="29.023274228869607" lon="-10.40378781195398"><ele>178.0</ele><time>2026-04-28T10:10:06Z</time></trkpt><trkpt lat="29.023209829586136" lon="-10.404059259265953"><ele>177.0</ele><time>2026-04-28T10:10:07Z</time></trkpt><trkpt lat="29.02314522115001" lon="-10.404334679542025"><ele>177.0</ele><time>2026-04-28T10:10:08Z</time></trkpt><trkpt lat="29.023080537834943" lon="-10.404608072034256"><ele>177.0</ele><time>2026-04-28T10:10:09Z</time></trkpt><trkpt lat="29.0230141829875" lon="-10.404883351067406"><ele>177.0</ele><time>2026-04-28T10:10:10Z</time></trkpt><trkpt lat="29.02294834289527" lon="-10.405157198251962"><ele>177.0</ele><time>2026-04-28T10:10:11Z</time></trkpt><trkpt lat="29.022883623439238" lon="-10.405431519240135"><ele>177.5</ele><time>2026-04-28T10:10:12Z</time></trkpt><trkpt lat="29.022819308698274" lon="-10.405712754699609"><ele>178.0</ele><time>2026-04-28T10:10:13Z</time></trkpt><trkpt lat="29.022752922231657" lon="-10.405989011841372"><ele>178.0</ele><time>2026-04-28T10:10:14Z</time></trkpt><trkpt lat="29.02268636256822" lon="-10.406269132423708"><ele>178.0</ele><time>2026-04-28T10:10:15Z</time></trkpt><trkpt lat="29.022619547430686" lon="-10.406547823705809"><ele>177.5</ele><time>2026-04-28T10:10:16Z</time></trkpt><trkpt lat="29.022553519267408" lon="-10.40682832153309"><ele>177.0</ele><time>2026-04-28T10:10:17Z</time></trkpt><trkpt lat="29.0224856383227" lon="-10.407109491611704"><ele>179.5</ele><time>2026-04-28T10:10:18Z</time></trkpt><trkpt lat="29.02241681862628" lon="-10.407391345221209"><ele>182.0</ele><time>2026-04-28T10:10:19Z</time></trkpt><trkpt lat="29.022346850482553" lon="-10.407672450971"><ele>182.0</ele><time>2026-04-28T10:10:20Z</time></trkpt><trkpt lat="29.022279749316063" lon="-10.407952288606646"><ele>182.0</ele><time>2026-04-28T10:10:21Z</time></trkpt><trkpt lat="29.022212239870814" lon="-10.408231090215157"><ele>182.5</ele><time>2026-04-28T10:10:22Z</time></trkpt><trkpt lat="29.022144615129445" lon="-10.408512226768657"><ele>183.0</ele><time>2026-04-28T10:10:23Z</time></trkpt><trkpt lat="29.022076853453605" lon="-10.408792283526761"><ele>181.5</ele><time>2026-04-28T10:10:24Z</time></trkpt><trkpt lat="29.022009663397792" lon="-10.409069496000985"><ele>180.0</ele><time>2026-04-28T10:10:25Z</time></trkpt><trkpt lat="29.021942135633473" lon="-10.409349585972064"><ele>180.0</ele><time>2026-04-28T10:10:26Z</time></trkpt><trkpt lat="29.02187760205154" lon="-10.409630150712422"><ele>180.0</ele><time>2026-04-28T10:10:27Z</time></trkpt><trkpt lat="29.02181043932918" lon="-10.409912384277535"><ele>179.0</ele><time>2026-04-28T10:10:28Z</time></trkpt><trkpt lat="29.021743535329755" lon="-10.410196190102655"><ele>178.0</ele><time>2026-04-28T10:10:29Z</time></trkpt><trkpt lat="29.021677982140524" lon="-10.410475207317722"><ele>180.5</ele><time>2026-04-28T10:10:30Z</time></trkpt><trkpt lat="29.021613375404876" lon="-10.410755031316551"><ele>183.0</ele><time>2026-04-28T10:10:31Z</time></trkpt><trkpt lat="29.021545449554715" lon="-10.411034980336325"><ele>183.0</ele><time>2026-04-28T10:10:32Z</time></trkpt><trkpt lat="29.021479482828756" lon="-10.411308133531941"><ele>183.0</ele><time>2026-04-28T10:10:33Z</time></trkpt><trkpt lat="29.021417523765386" lon="-10.411576495780816"><ele>183.0</ele><time>2026-04-28T10:10:34Z</time></trkpt><trkpt lat="29.02135755561686" lon="-10.411843623048918"><ele>183.0</ele><time>2026-04-28T10:10:35Z</time></trkpt><trkpt lat="29.021298308004813" lon="-10.412107161161515"><ele>184.5</ele><time>2026-04-28T10:10:36Z</time></trkpt><trkpt lat="29.021235995740657" lon="-10.412359548232939"><ele>186.0</ele><time>2026-04-28T10:10:37Z</time></trkpt><trkpt lat="29.021172834512353" lon="-10.41260871674712"><ele>186.0</ele><time>2026-04-28T10:10:38Z</time></trkpt><trkpt lat="29.021105894713592" lon="-10.412864861454409"><ele>186.0</ele><time>2026-04-28T10:10:39Z</time></trkpt><trkpt lat="29.021039151749825" lon="-10.413122936499208"><ele>184.5</ele><time>2026-04-28T10:10:40Z</time></trkpt><trkpt lat="29.02097241333162" lon="-10.413387215086146"><ele>183.0</ele><time>2026-04-28T10:10:41Z</time></trkpt><trkpt lat="29.020906339076067" lon="-10.413657513198316"><ele>181.5</ele><time>2026-04-28T10:10:42Z</time></trkpt><trkpt lat="29.020840652385303" lon="-10.413928836129244"><ele>180.0</ele><time>2026-04-28T10:10:43Z</time></trkpt><trkpt lat="29.020774249311774" lon="-10.41420073083058"><ele>182.5</ele><time>2026-04-28T10:10:44Z</time></trkpt><trkpt lat="29.02070131087434" lon="-10.414471301084228"><ele>185.0</ele><time>2026-04-28T10:10:45Z</time></trkpt><trkpt lat="29.02061990227014" lon="-10.414737795020324"><ele>185.0</ele><time>2026-04-28T10:10:46Z</time></trkpt><trkpt lat="29.02052925411628" lon="-10.414987628661791"><ele>185.0</ele><time>2026-04-28T10:10:47Z</time></trkpt><trkpt lat="29.02043013608045" lon="-10.415229633566213"><ele>185.0</ele><time>2026-04-28T10:10:48Z</time></trkpt><trkpt lat="29.020330153905643" lon="-10.415445271086464"><ele>185.0</ele><time>2026-04-28T10:10:49Z</time></trkpt><trkpt lat="29.020224752717986" lon="-10.415634999985237"><ele>185.0</ele><time>2026-04-28T10:10:50Z</time></trkpt><trkpt lat="29.020106661490498" lon="-10.415820428230985"><ele>185.0</ele><time>2026-04-28T10:10:51Z</time></trkpt><trkpt lat="29.019968098760817" lon="-10.416000136448565"><ele>185.0</ele><time>2026-04-28T10:10:52Z</time></trkpt><trkpt lat="29.019799127305113" lon="-10.416165842181114"><ele>185.0</ele><time>2026-04-28T10:10:53Z</time></trkpt><trkpt lat="29.019608613923868" lon="-10.416327452023651"><ele>185.0</ele><time>2026-04-28T10:10:54Z</time></trkpt><trkpt lat="29.019407768596277" lon="-10.416500611777934"><ele>185.0</ele><time>2026-04-28T10:10:55Z</time></trkpt><trkpt lat="29.019196967404767" lon="-10.416670496449985"><ele>186.0</ele><time>2026-04-28T10:10:56Z</time></trkpt><trkpt lat="29.01896763955957" lon="-10.416825229050472"><ele>187.0</ele><time>2026-04-28T10:10:57Z</time></trkpt><trkpt lat="29.018717061490268" lon="-10.416972709698358"><ele>187.0</ele><time>2026-04-28T10:10:58Z</time></trkpt><trkpt lat="29.018454329751915" lon="-10.417120662206024"><ele>187.0</ele><time>2026-04-28T10:10:59Z</time></trkpt><trkpt lat="29.018188715826305" lon="-10.417275591596484"><ele>184.5</ele><time>2026-04-28T10:11:00Z</time></trkpt><trkpt lat="29.017928261934696" lon="-10.417426502773598"><ele>182.0</ele><time>2026-04-28T10:11:01Z</time></trkpt><trkpt lat="29.01766902006474" lon="-10.417576960523434"><ele>183.0</ele><time>2026-04-28T10:11:02Z</time></trkpt><trkpt lat="29.01741250105638" lon="-10.41772641332494"><ele>184.0</ele><time>2026-04-28T10:11:03Z</time></trkpt><trkpt lat="29.01715635406019" lon="-10.41787551802089"><ele>182.5</ele><time>2026-04-28T10:11:04Z</time></trkpt><trkpt lat="29.016901308589112" lon="-10.418025263753012"><ele>181.0</ele><time>2026-04-28T10:11:05Z</time></trkpt><trkpt lat="29.016648957361944" lon="-10.418173280517234"><ele>180.5</ele><time>2026-04-28T10:11:06Z</time></trkpt><trkpt lat="29.016400398526997" lon="-10.418321201662806"><ele>180.0</ele><time>2026-04-28T10:11:07Z</time></trkpt><trkpt lat="29.016145688211598" lon="-10.418468667891183"><ele>180.0</ele><time>2026-04-28T10:11:08Z</time></trkpt><trkpt lat="29.015894562424755" lon="-10.4186163790464"><ele>180.0</ele><time>2026-04-28T10:11:09Z</time></trkpt><trkpt lat="29.015642573001788" lon="-10.418765688527225"><ele>179.0</ele><time>2026-04-28T10:11:10Z</time></trkpt><trkpt lat="29.015395548188426" lon="-10.418909026099298"><ele>178.0</ele><time>2026-04-28T10:11:11Z</time></trkpt><trkpt lat="29.015157846606762" lon="-10.419047726490586"><ele>176.5</ele><time>2026-04-28T10:11:12Z</time></trkpt><trkpt lat="29.014935790178352" lon="-10.419177728166108"><ele>175.0</ele><time>2026-04-28T10:11:13Z</time></trkpt><trkpt lat="29.014722272976076" lon="-10.419301586547938"><ele>175.0</ele><time>2026-04-28T10:11:14Z</time></trkpt><trkpt lat="29.014504706966786" lon="-10.419429983676084"><ele>175.0</ele><time>2026-04-28T10:11:15Z</time></trkpt><trkpt lat="29.014290703607994" lon="-10.419568658237235"><ele>174.5</ele><time>2026-04-28T10:11:16Z</time></trkpt><trkpt lat="29.01408181837368" lon="-10.419716273578326"><ele>174.0</ele><time>2026-04-28T10:11:17Z</time></trkpt><trkpt lat="29.013881603728027" lon="-10.419881143372857"><ele>174.0</ele><time>2026-04-28T10:11:18Z</time></trkpt><trkpt lat="29.01369198799916" lon="-10.420062204934483"><ele>174.0</ele><time>2026-04-28T10:11:19Z</time></trkpt><trkpt lat="29.013507333979256" lon="-10.420251082563238"><ele>174.5</ele><time>2026-04-28T10:11:20Z</time></trkpt><trkpt lat="29.013318443232805" lon="-10.420452057777062"><ele>175.0</ele><time>2026-04-28T10:11:21Z</time></trkpt><trkpt lat="29.013127379814208" lon="-10.420654240321381"><ele>175.5</ele><time>2026-04-28T10:11:22Z</time></trkpt><trkpt lat="29.012937446705376" lon="-10.420857456692135"><ele>176.0</ele><time>2026-04-28T10:11:23Z</time></trkpt><trkpt lat="29.012745951985266" lon="-10.421063247761198"><ele>176.0</ele><time>2026-04-28T10:11:24Z</time></trkpt><trkpt lat="29.01255287029852" lon="-10.421265628342185"><ele>176.0</ele><time>2026-04-28T10:11:25Z</time></trkpt><trkpt lat="29.01236056304774" lon="-10.421464705778684"><ele>174.5</ele><time>2026-04-28T10:11:26Z</time></trkpt><trkpt lat="29.012169829212496" lon="-10.42166456460538"><ele>173.0</ele><time>2026-04-28T10:11:27Z</time></trkpt><trkpt lat="29.011975021543766" lon="-10.421868109937819"><ele>173.0</ele><time>2026-04-28T10:11:28Z</time></trkpt><trkpt lat="29.011781688274343" lon="-10.42207151071946"><ele>173.0</ele><time>2026-04-28T10:11:29Z</time></trkpt><trkpt lat="29.0115898204475" lon="-10.422271103153827"><ele>173.0</ele><time>2026-04-28T10:11:30Z</time></trkpt><trkpt lat="29.0113981158862" lon="-10.422477734713036"><ele>173.0</ele><time>2026-04-28T10:11:31Z</time></trkpt><trkpt lat="29.011205571739172" lon="-10.42268644005171"><ele>173.0</ele><time>2026-04-28T10:11:32Z</time></trkpt><trkpt lat="29.011012494507945" lon="-10.422891635306"><ele>173.0</ele><time>2026-04-28T10:11:33Z</time></trkpt><trkpt lat="29.01081901141436" lon="-10.423093437750248"><ele>171.5</ele><time>2026-04-28T10:11:34Z</time></trkpt><trkpt lat="29.010631084424684" lon="-10.42329531923308"><ele>170.0</ele><time>2026-04-28T10:11:35Z</time></trkpt><trkpt lat="29.010445776246097" lon="-10.423489440352528"><ele>170.0</ele><time>2026-04-28T10:11:36Z</time></trkpt><trkpt lat="29.01026166729886" lon="-10.423682401069948"><ele>170.0</ele><time>2026-04-28T10:11:37Z</time></trkpt><trkpt lat="29.010077338333428" lon="-10.42387349551885"><ele>171.5</ele><time>2026-04-28T10:11:38Z</time></trkpt><trkpt lat="29.009892840350936" lon="-10.424072184594207"><ele>173.0</ele><time>2026-04-28T10:11:39Z</time></trkpt><trkpt lat="29.00970897070742" lon="-10.424269548503037"><ele>173.0</ele><time>2026-04-28T10:11:40Z</time></trkpt><trkpt lat="29.009523628195964" lon="-10.424467502863147"><ele>173.0</ele><time>2026-04-28T10:11:41Z</time></trkpt><trkpt lat="29.009337737769155" lon="-10.424662901610423"><ele>173.0</ele><time>2026-04-28T10:11:42Z</time></trkpt><trkpt lat="29.009154587673294" lon="-10.424857448439099"><ele>173.0</ele><time>2026-04-28T10:11:43Z</time></trkpt><trkpt lat="29.00897646810532" lon="-10.425051950165894"><ele>173.0</ele><time>2026-04-28T10:11:44Z</time></trkpt><trkpt lat="29.00879492548539" lon="-10.425246317184152"><ele>173.0</ele><time>2026-04-28T10:11:45Z</time></trkpt><trkpt lat="29.008610746308538" lon="-10.425440493037108"><ele>173.0</ele><time>2026-04-28T10:11:46Z</time></trkpt><trkpt lat="29.008423825322886" lon="-10.425634040421365"><ele>173.0</ele><time>2026-04-28T10:11:47Z</time></trkpt><trkpt lat="29.008235795261545" lon="-10.425826194340395"><ele>174.0</ele><time>2026-04-28T10:11:48Z</time></trkpt><trkpt lat="29.0080495229725" lon="-10.426020390707135"><ele>175.0</ele><time>2026-04-28T10:11:49Z</time></trkpt><trkpt lat="29.007866559860457" lon="-10.426216046880908"><ele>173.0</ele><time>2026-04-28T10:11:50Z</time></trkpt><trkpt lat="29.00768529949423" lon="-10.426410042763772"><ele>171.0</ele><time>2026-04-28T10:11:51Z</time></trkpt><trkpt lat="29.007515862519934" lon="-10.42659293622079"><ele>172.66666666666666</ele><time>2026-04-28T10:11:52Z</time></trkpt><trkpt lat="29.007358114262598" lon="-10.426766616294183"><ele>174.33333333333331</ele><time>2026-04-28T10:11:53Z</time></trkpt><trkpt lat="29.007207273576245" lon="-10.426926988428871"><ele>176.0</ele><time>2026-04-28T10:11:54Z</time></trkpt><trkpt lat="29.007055681997276" lon="-10.42708113934013"><ele>175.33333333333331</ele><time>2026-04-28T10:11:55Z</time></trkpt><trkpt lat="29.00689168085879" lon="-10.427237547029183"><ele>174.66666666666666</ele><time>2026-04-28T10:11:56Z</time></trkpt><trkpt lat="29.006715775605002" lon="-10.427398232708535"><ele>174.0</ele><time>2026-04-28T10:11:57Z</time></trkpt><trkpt lat="29.00652288529346" lon="-10.427559852457051"><ele>174.0</ele><time>2026-04-28T10:11:58Z</time></trkpt><trkpt lat="29.006315381807788" lon="-10.427720841217281"><ele>174.0</ele><time>2026-04-28T10:11:59Z</time></trkpt><trkpt lat="29.006093348728246" lon="-10.427874765747655"><ele>173.0</ele><time>2026-04-28T10:12:00Z</time></trkpt><trkpt lat="29.005860590920857" lon="-10.428015470708521"><ele>172.0</ele><time>2026-04-28T10:12:01Z</time></trkpt><trkpt lat="29.005613816240036" lon="-10.428146123356298"><ele>172.0</ele><time>2026-04-28T10:12:02Z</time></trkpt><trkpt lat="29.005356037452703" lon="-10.42826740634853"><ele>172.0</ele><time>2026-04-28T10:12:03Z</time></trkpt><trkpt lat="29.005095627054107" lon="-10.428377336532327"><ele>171.0</ele><time>2026-04-28T10:12:04Z</time></trkpt><trkpt lat="29.004826523535783" lon="-10.42848533380843"><ele>170.0</ele><time>2026-04-28T10:12:05Z</time></trkpt><trkpt lat="29.004555704318413" lon="-10.428593283114527"><ele>170.0</ele><time>2026-04-28T10:12:06Z</time></trkpt><trkpt lat="29.004288915983697" lon="-10.428697030544603"><ele>170.0</ele><time>2026-04-28T10:12:07Z</time></trkpt><trkpt lat="29.004027472706895" lon="-10.428799906834607"><ele>168.0</ele><time>2026-04-28T10:12:08Z</time></trkpt><trkpt lat="29.003767416019407" lon="-10.428901592939466"><ele>166.0</ele><time>2026-04-28T10:12:09Z</time></trkpt><trkpt lat="29.003515582548125" lon="-10.42900230676647"><ele>165.0</ele><time>2026-04-28T10:12:10Z</time></trkpt><trkpt lat="29.003270607279894" lon="-10.42910141303742"><ele>164.0</ele><time>2026-04-28T10:12:11Z</time></trkpt><trkpt lat="29.0030220077175" lon="-10.429200384195115"><ele>164.0</ele><time>2026-04-28T10:12:12Z</time></trkpt><trkpt lat="29.00276464571273" lon="-10.42930175873583"><ele>164.0</ele><time>2026-04-28T10:12:13Z</time></trkpt><trkpt lat="29.00251026559826" lon="-10.42940052272611"><ele>164.0</ele><time>2026-04-28T10:12:14Z</time></trkpt><trkpt lat="29.002261614749784" lon="-10.429499276649324"><ele>164.0</ele><time>2026-04-28T10:12:15Z</time></trkpt><trkpt lat="29.002010068041173" lon="-10.429599314242209"><ele>165.0</ele><time>2026-04-28T10:12:16Z</time></trkpt><trkpt lat="29.001760794588947" lon="-10.429699188689606"><ele>166.0</ele><time>2026-04-28T10:12:17Z</time></trkpt><trkpt lat="29.001515247433478" lon="-10.429798411165358"><ele>166.5</ele><time>2026-04-28T10:12:18Z</time></trkpt><trkpt lat="29.00126846364282" lon="-10.429896235838354"><ele>167.0</ele><time>2026-04-28T10:12:19Z</time></trkpt><trkpt lat="29.001026351216876" lon="-10.42999263666137"><ele>168.0</ele><time>2026-04-28T10:12:20Z</time></trkpt><trkpt lat="29.00078930280595" lon="-10.430086307061583"><ele>169.0</ele><time>2026-04-28T10:12:21Z</time></trkpt><trkpt lat="29.00056829475135" lon="-10.43017813469123"><ele>169.0</ele><time>2026-04-28T10:12:22Z</time></trkpt><trkpt lat="29.000359598115207" lon="-10.430265342185864"><ele>169.0</ele><time>2026-04-28T10:12:23Z</time></trkpt><trkpt lat="29.000155144216915" lon="-10.430351634605728"><ele>169.0</ele><time>2026-04-28T10:12:24Z</time></trkpt><trkpt lat="28.99994849498668" lon="-10.430441082811834"><ele>168.5</ele><time>2026-04-28T10:12:25Z</time></trkpt><trkpt lat="28.9997422920646" lon="-10.430540368138642"><ele>168.0</ele><time>2026-04-28T10:12:26Z</time></trkpt><trkpt lat="28.999539247271084" lon="-10.430654385003269"><ele>168.0</ele><time>2026-04-28T10:12:27Z</time></trkpt><trkpt lat="28.99933934832813" lon="-10.430784860279203"><ele>168.0</ele><time>2026-04-28T10:12:28Z</time></trkpt><trkpt lat="28.999146665343094" lon="-10.430927408258817"><ele>168.5</ele><time>2026-04-28T10:12:29Z</time></trkpt><trkpt lat="28.99895037942815" lon="-10.43108180443324"><ele>169.0</ele><time>2026-04-28T10:12:30Z</time></trkpt><trkpt lat="28.998755613544276" lon="-10.431247091703407"><ele>170.0</ele><time>2026-04-28T10:12:31Z</time></trkpt><trkpt lat="28.998568650752862" lon="-10.431417215923462"><ele>171.0</ele><time>2026-04-28T10:12:32Z</time></trkpt><trkpt lat="28.998385762286873" lon="-10.431591803970834"><ele>169.0</ele><time>2026-04-28T10:12:33Z</time></trkpt><trkpt lat="28.998208175080187" lon="-10.43175843564236"><ele>167.0</ele><time>2026-04-28T10:12:34Z</time></trkpt><trkpt lat="28.998032025673037" lon="-10.43192057687201"><ele>167.0</ele><time>2026-04-28T10:12:35Z</time></trkpt><trkpt lat="28.99785230832348" lon="-10.432086295993894"><ele>167.0</ele><time>2026-04-28T10:12:36Z</time></trkpt><trkpt lat="28.9976732810869" lon="-10.432254766445395"><ele>166.5</ele><time>2026-04-28T10:12:37Z</time></trkpt><trkpt lat="28.997489397642262" lon="-10.432422920874703"><ele>166.0</ele><time>2026-04-28T10:12:38Z</time></trkpt><trkpt lat="28.997301530481042" lon="-10.43259251369976"><ele>166.0</ele><time>2026-04-28T10:12:39Z</time></trkpt><trkpt lat="28.99711453706565" lon="-10.432764336027311"><ele>166.0</ele><time>2026-04-28T10:12:40Z</time></trkpt><trkpt lat="28.99692369158846" lon="-10.432940844802841"><ele>165.5</ele><time>2026-04-28T10:12:41Z</time></trkpt><trkpt lat="28.996734416953775" lon="-10.433114131157618"><ele>165.0</ele><time>2026-04-28T10:12:42Z</time></trkpt><trkpt lat="28.99654722579843" lon="-10.433284061929886"><ele>165.0</ele><time>2026-04-28T10:12:43Z</time></trkpt><trkpt lat="28.996360626076697" lon="-10.433450343045429"><ele>165.0</ele><time>2026-04-28T10:12:44Z</time></trkpt><trkpt lat="28.99617459382811" lon="-10.433616080462993"><ele>165.0</ele><time>2026-04-28T10:12:45Z</time></trkpt><trkpt lat="28.995988400089708" lon="-10.433782842998163"><ele>165.0</ele><time>2026-04-28T10:12:46Z</time></trkpt><trkpt lat="28.995802220607285" lon="-10.433953347437713"><ele>165.5</ele><time>2026-04-28T10:12:47Z</time></trkpt><trkpt lat="28.995622034199886" lon="-10.434124091751848"><ele>166.0</ele><time>2026-04-28T10:12:48Z</time></trkpt><trkpt lat="28.995442008423463" lon="-10.43429935716372"><ele>166.0</ele><time>2026-04-28T10:12:49Z</time></trkpt><trkpt lat="28.99526115602069" lon="-10.434479385237296"><ele>166.0</ele><time>2026-04-28T10:12:50Z</time></trkpt><trkpt lat="28.99507975485262" lon="-10.434661847424984"><ele>164.0</ele><time>2026-04-28T10:12:51Z</time></trkpt><trkpt lat="28.994905828835016" lon="-10.434847662759038"><ele>162.0</ele><time>2026-04-28T10:12:52Z</time></trkpt><trkpt lat="28.994739012590525" lon="-10.435025679339702"><ele>162.0</ele><time>2026-04-28T10:12:53Z</time></trkpt><trkpt lat="28.994589259235898" lon="-10.43519434767359"><ele>162.0</ele><time>2026-04-28T10:12:54Z</time></trkpt><trkpt lat="28.994444566139496" lon="-10.435359779417691"><ele>162.0</ele><time>2026-04-28T10:12:55Z</time></trkpt><trkpt lat="28.994312558131913" lon="-10.435522942527564"><ele>162.0</ele><time>2026-04-28T10:12:56Z</time></trkpt><trkpt lat="28.994194117637072" lon="-10.435686041481585"><ele>162.0</ele><time>2026-04-28T10:12:57Z</time></trkpt><trkpt lat="28.994090008916263" lon="-10.43584586925613"><ele>162.0</ele><time>2026-04-28T10:12:58Z</time></trkpt><trkpt lat="28.993992511431003" lon="-10.436018306896276"><ele>162.0</ele><time>2026-04-28T10:12:59Z</time></trkpt><trkpt lat="28.99390907105832" lon="-10.436204964468146"><ele>162.0</ele><time>2026-04-28T10:13:00Z</time></trkpt><trkpt lat="28.993847824767265" lon="-10.436400426192069"><ele>162.0</ele><time>2026-04-28T10:13:01Z</time></trkpt><trkpt lat="28.993812315556333" lon="-10.436597702462821"><ele>161.66666666666666</ele><time>2026-04-28T10:13:02Z</time></trkpt><trkpt lat="28.99380340819662" lon="-10.436798835908231"><ele>161.33333333333331</ele><time>2026-04-28T10:13:03Z</time></trkpt><trkpt lat="28.993822448261316" lon="-10.436995770573617"><ele>161.0</ele><time>2026-04-28T10:13:04Z</time></trkpt><trkpt lat="28.993870524679465" lon="-10.437183382839985"><ele>161.0</ele><time>2026-04-28T10:13:05Z</time></trkpt><trkpt lat="28.993938999651775" lon="-10.437362932299425"><ele>161.0</ele><time>2026-04-28T10:13:06Z</time></trkpt><trkpt lat="28.994005761359748" lon="-10.437532618939496"><ele>161.0</ele><time>2026-04-28T10:13:07Z</time></trkpt><trkpt lat="28.994057617552446" lon="-10.437699660185132"><ele>161.0</ele><time>2026-04-28T10:13:08Z</time></trkpt><trkpt lat="28.994087166870454" lon="-10.437867562097797"><ele>161.0</ele><time>2026-04-28T10:13:09Z</time></trkpt><trkpt lat="28.994087625703596" lon="-10.43804097359642"><ele>161.0</ele><time>2026-04-28T10:13:10Z</time></trkpt><trkpt lat="28.994048059389943" lon="-10.438228427034375"><ele>158.66666666666666</ele><time>2026-04-28T10:13:11Z</time></trkpt><trkpt lat="28.993980061989273" lon="-10.438435163325968"><ele>156.33333333333334</ele><time>2026-04-28T10:13:12Z</time></trkpt><trkpt lat="28.99389846880299" lon="-10.438653578303137"><ele>154.0</ele><time>2026-04-28T10:13:13Z</time></trkpt><trkpt lat="28.993805651513444" lon="-10.438878006224035"><ele>154.0</ele><time>2026-04-28T10:13:14Z</time></trkpt><trkpt lat="28.993709644867717" lon="-10.439115943075459"><ele>154.0</ele><time>2026-04-28T10:13:15Z</time></trkpt><trkpt lat="28.993623021051892" lon="-10.439358028967089"><ele>154.0</ele><time>2026-04-28T10:13:16Z</time></trkpt><trkpt lat="28.993545210219715" lon="-10.43960485178097"><ele>154.0</ele><time>2026-04-28T10:13:17Z</time></trkpt><trkpt lat="28.993477038066914" lon="-10.43985423370197"><ele>158.5</ele><time>2026-04-28T10:13:18Z</time></trkpt><trkpt lat="28.993422604783692" lon="-10.44010683183295"><ele>163.0</ele><time>2026-04-28T10:13:19Z</time></trkpt><trkpt lat="28.993375966634435" lon="-10.440359801228386"><ele>162.66666666666669</ele><time>2026-04-28T10:13:20Z</time></trkpt><trkpt lat="28.99333145856602" lon="-10.440608386517734"><ele>162.33333333333334</ele><time>2026-04-28T10:13:21Z</time></trkpt><trkpt lat="28.993276763598573" lon="-10.440847675087285"><ele>162.0</ele><time>2026-04-28T10:13:22Z</time></trkpt><trkpt lat="28.993209702919323" lon="-10.441078556156002"><ele>161.0</ele><time>2026-04-28T10:13:23Z</time></trkpt><trkpt lat="28.99312524177194" lon="-10.441320478793434"><ele>160.0</ele><time>2026-04-28T10:13:24Z</time></trkpt><trkpt lat="28.993034573687535" lon="-10.44157046620664"><ele>160.0</ele><time>2026-04-28T10:13:25Z</time></trkpt><trkpt lat="28.992940797266627" lon="-10.44182607893825"><ele>160.0</ele><time>2026-04-28T10:13:26Z</time></trkpt><trkpt lat="28.99284829528358" lon="-10.442060626920284"><ele>158.5</ele><time>2026-04-28T10:13:27Z</time></trkpt><trkpt lat="28.99275012181792" lon="-10.442295351370754"><ele>157.0</ele><time>2026-04-28T10:13:28Z</time></trkpt><trkpt lat="28.99264411096368" lon="-10.442534583878437"><ele>157.0</ele><time>2026-04-28T10:13:29Z</time></trkpt><trkpt lat="28.99252590044414" lon="-10.442781454065024"><ele>157.0</ele><time>2026-04-28T10:13:30Z</time></trkpt><trkpt lat="28.99240283248457" lon="-10.443027108262166"><ele>156.0</ele><time>2026-04-28T10:13:31Z</time></trkpt><trkpt lat="28.992274883275677" lon="-10.44328080506603"><ele>155.0</ele><time>2026-04-28T10:13:32Z</time></trkpt><trkpt lat="28.9921501942024" lon="-10.44354353509487"><ele>152.5</ele><time>2026-04-28T10:13:33Z</time></trkpt><trkpt lat="28.99202962871278" lon="-10.443814488802595"><ele>150.0</ele><time>2026-04-28T10:13:34Z</time></trkpt><trkpt lat="28.991902863232824" lon="-10.444077882712747"><ele>150.0</ele><time>2026-04-28T10:13:35Z</time></trkpt><trkpt lat="28.99177305933264" lon="-10.444340687565065"><ele>150.0</ele><time>2026-04-28T10:13:36Z</time></trkpt><trkpt lat="28.99164286200215" lon="-10.444608426074874"><ele>148.5</ele><time>2026-04-28T10:13:37Z</time></trkpt><trkpt lat="28.99151326693013" lon="-10.444874429616775"><ele>147.0</ele><time>2026-04-28T10:13:38Z</time></trkpt><trkpt lat="28.99138351016313" lon="-10.445138885749397"><ele>147.0</ele><time>2026-04-28T10:13:39Z</time></trkpt><trkpt lat="28.991251724011455" lon="-10.445400846751442"><ele>147.0</ele><time>2026-04-28T10:13:40Z</time></trkpt><trkpt lat="28.991118861786873" lon="-10.445664939546749"><ele>147.0</ele><time>2026-04-28T10:13:41Z</time></trkpt><trkpt lat="28.99098578609384" lon="-10.445929216156507"><ele>147.0</ele><time>2026-04-28T10:13:42Z</time></trkpt><trkpt lat="28.990854559839782" lon="-10.446197317668274"><ele>145.5</ele><time>2026-04-28T10:13:43Z</time></trkpt><trkpt lat="28.99072375628446" lon="-10.446461721004402"><ele>144.0</ele><time>2026-04-28T10:13:44Z</time></trkpt><trkpt lat="28.990592869544443" lon="-10.446729012749259"><ele>144.0</ele><time>2026-04-28T10:13:45Z</time></trkpt><trkpt lat="28.990464537767945" lon="-10.446991302351075"><ele>144.0</ele><time>2026-04-28T10:13:46Z</time></trkpt><trkpt lat="28.990334604839273" lon="-10.447256122847651"><ele>144.5</ele><time>2026-04-28T10:13:47Z</time></trkpt><trkpt lat="28.990205772090366" lon="-10.447517813751391"><ele>145.0</ele><time>2026-04-28T10:13:48Z</time></trkpt><trkpt lat="28.99007968201326" lon="-10.447776492991254"><ele>149.0</ele><time>2026-04-28T10:13:49Z</time></trkpt><trkpt lat="28.989952140163144" lon="-10.448035126730819"><ele>153.0</ele><time>2026-04-28T10:13:50Z</time></trkpt><trkpt lat="28.98982456907346" lon="-10.44829758320765"><ele>153.0</ele><time>2026-04-28T10:13:51Z</time></trkpt><trkpt lat="28.98969762567349" lon="-10.448556774102057"><ele>153.0</ele><time>2026-04-28T10:13:52Z</time></trkpt><trkpt lat="28.98957540730206" lon="-10.448810065390791"><ele>155.5</ele><time>2026-04-28T10:13:53Z</time></trkpt><trkpt lat="28.98945391431896" lon="-10.449060710170214"><ele>158.0</ele><time>2026-04-28T10:13:54Z</time></trkpt><trkpt lat="28.989333390674485" lon="-10.449311008583964"><ele>158.0</ele><time>2026-04-28T10:13:55Z</time></trkpt><trkpt lat="28.989213791407316" lon="-10.449559694559078"><ele>158.0</ele><time>2026-04-28T10:13:56Z</time></trkpt><trkpt lat="28.9890923243917" lon="-10.449808233113696"><ele>158.0</ele><time>2026-04-28T10:13:57Z</time></trkpt><trkpt lat="28.988968092648093" lon="-10.450052162665406"><ele>158.0</ele><time>2026-04-28T10:13:58Z</time></trkpt><trkpt lat="28.988843471145394" lon="-10.450297226629212"><ele>157.0</ele><time>2026-04-28T10:13:59Z</time></trkpt><trkpt lat="28.9887170271777" lon="-10.450546344106515"><ele>156.0</ele><time>2026-04-28T10:14:00Z</time></trkpt><trkpt lat="28.988588588682365" lon="-10.450805101063734"><ele>156.0</ele><time>2026-04-28T10:14:01Z</time></trkpt><trkpt lat="28.988462040020288" lon="-10.451067444463385"><ele>156.0</ele><time>2026-04-28T10:14:02Z</time></trkpt><trkpt lat="28.98833078544256" lon="-10.451337994194677"><ele>153.0</ele><time>2026-04-28T10:14:03Z</time></trkpt><trkpt lat="28.988198443655016" lon="-10.451612118037707"><ele>150.0</ele><time>2026-04-28T10:14:04Z</time></trkpt><trkpt lat="28.988062127622936" lon="-10.451887199065935"><ele>148.5</ele><time>2026-04-28T10:14:05Z</time></trkpt><trkpt lat="28.987924165014768" lon="-10.452166219464232"><ele>147.0</ele><time>2026-04-28T10:14:06Z</time></trkpt><trkpt lat="28.98778595877271" lon="-10.452449273175366"><ele>147.0</ele><time>2026-04-28T10:14:07Z</time></trkpt><trkpt lat="28.98764653879449" lon="-10.452731542316402"><ele>147.0</ele><time>2026-04-28T10:14:08Z</time></trkpt><trkpt lat="28.9875089781637" lon="-10.453005846267656"><ele>144.5</ele><time>2026-04-28T10:14:09Z</time></trkpt><trkpt lat="28.98737004067839" lon="-10.453284499572169"><ele>142.0</ele><time>2026-04-28T10:14:10Z</time></trkpt><trkpt lat="28.987236007899845" lon="-10.453555500867362"><ele>142.0</ele><time>2026-04-28T10:14:11Z</time></trkpt><trkpt lat="28.98710272318432" lon="-10.453821204285923"><ele>142.0</ele><time>2026-04-28T10:14:12Z</time></trkpt><trkpt lat="28.986973377799604" lon="-10.454084149574836"><ele>142.0</ele><time>2026-04-28T10:14:13Z</time></trkpt><trkpt lat="28.98683833078014" lon="-10.454338063593966"><ele>142.0</ele><time>2026-04-28T10:14:14Z</time></trkpt><trkpt lat="28.986701091087333" lon="-10.454589881911023"><ele>142.5</ele><time>2026-04-28T10:14:15Z</time></trkpt><trkpt lat="28.986559818400284" lon="-10.454833482800488"><ele>143.0</ele><time>2026-04-28T10:14:16Z</time></trkpt><trkpt lat="28.986415079830454" lon="-10.455081808914274"><ele>143.0</ele><time>2026-04-28T10:14:17Z</time></trkpt><trkpt lat="28.986269343300805" lon="-10.455333597313224"><ele>143.0</ele><time>2026-04-28T10:14:18Z</time></trkpt><trkpt lat="28.986122845570048" lon="-10.455584083241316"><ele>142.0</ele><time>2026-04-28T10:14:19Z</time></trkpt><trkpt lat="28.985975703842634" lon="-10.455833395404097"><ele>141.0</ele><time>2026-04-28T10:14:20Z</time></trkpt><trkpt lat="28.98583091996644" lon="-10.456080857073529"><ele>143.0</ele><time>2026-04-28T10:14:21Z</time></trkpt><trkpt lat="28.98568312612452" lon="-10.45633254962831"><ele>145.0</ele><time>2026-04-28T10:14:22Z</time></trkpt><trkpt lat="28.98553470514866" lon="-10.456583810500861"><ele>145.0</ele><time>2026-04-28T10:14:23Z</time></trkpt><trkpt lat="28.985384419810423" lon="-10.456839508495847"><ele>145.0</ele><time>2026-04-28T10:14:24Z</time></trkpt><trkpt lat="28.985231258448174" lon="-10.457091858292346"><ele>145.0</ele><time>2026-04-28T10:14:25Z</time></trkpt><trkpt lat="28.985077721358575" lon="-10.457347610968997"><ele>145.0</ele><time>2026-04-28T10:14:26Z</time></trkpt><trkpt lat="28.98492340959928" lon="-10.45760493999688"><ele>145.0</ele><time>2026-04-28T10:14:27Z</time></trkpt><trkpt lat="28.984765491798495" lon="-10.457871404182859"><ele>145.0</ele><time>2026-04-28T10:14:28Z</time></trkpt><trkpt lat="28.984609866932736" lon="-10.458137769844008"><ele>143.0</ele><time>2026-04-28T10:14:29Z</time></trkpt><trkpt lat="28.984454477234323" lon="-10.45840097427267"><ele>141.0</ele><time>2026-04-28T10:14:30Z</time></trkpt><trkpt lat="28.984299545549945" lon="-10.4586611382147"><ele>140.5</ele><time>2026-04-28T10:14:31Z</time></trkpt><trkpt lat="28.984147490662206" lon="-10.458917250318276"><ele>140.0</ele><time>2026-04-28T10:14:32Z</time></trkpt><trkpt lat="28.984000245372936" lon="-10.459170331041504"><ele>140.0</ele><time>2026-04-28T10:14:33Z</time></trkpt><trkpt lat="28.9838552913023" lon="-10.45942263500689"><ele>140.0</ele><time>2026-04-28T10:14:34Z</time></trkpt><trkpt lat="28.98371545921915" lon="-10.459666499198551"><ele>141.5</ele><time>2026-04-28T10:14:35Z</time></trkpt><trkpt lat="28.983576986282383" lon="-10.459901907673538"><ele>143.0</ele><time>2026-04-28T10:14:36Z</time></trkpt><trkpt lat="28.98343469091152" lon="-10.460138395216557"><ele>143.0</ele><time>2026-04-28T10:14:37Z</time></trkpt><trkpt lat="28.98329107769302" lon="-10.460374574804149"><ele>143.0</ele><time>2026-04-28T10:14:38Z</time></trkpt><trkpt lat="28.983147767627557" lon="-10.460613334088782"><ele>143.0</ele><time>2026-04-28T10:14:39Z</time></trkpt><trkpt lat="28.983007208316256" lon="-10.460847863183007"><ele>143.0</ele><time>2026-04-28T10:14:40Z</time></trkpt><trkpt lat="28.982867223254786" lon="-10.461079704946997"><ele>145.0</ele><time>2026-04-28T10:14:41Z</time></trkpt><trkpt lat="28.98272846350199" lon="-10.46131254288886"><ele>147.0</ele><time>2026-04-28T10:14:42Z</time></trkpt><trkpt lat="28.982591289184448" lon="-10.461546991733716"><ele>147.5</ele><time>2026-04-28T10:14:43Z</time></trkpt><trkpt lat="28.98245829992703" lon="-10.461775518271256"><ele>148.0</ele><time>2026-04-28T10:14:44Z</time></trkpt><trkpt lat="28.982323966646053" lon="-10.462007110558057"><ele>148.0</ele><time>2026-04-28T10:14:45Z</time></trkpt><trkpt lat="28.98219116202805" lon="-10.462230007009596"><ele>148.0</ele><time>2026-04-28T10:14:46Z</time></trkpt><trkpt lat="28.982063497902075" lon="-10.462440237218509"><ele>148.0</ele><time>2026-04-28T10:14:47Z</time></trkpt><trkpt lat="28.981940903753813" lon="-10.462645911980868"><ele>148.0</ele><time>2026-04-28T10:14:48Z</time></trkpt><trkpt lat="28.981823151370026" lon="-10.462843943585575"><ele>148.0</ele><time>2026-04-28T10:14:49Z</time></trkpt><trkpt lat="28.9817081451692" lon="-10.46304600095859"><ele>150.0</ele><time>2026-04-28T10:14:50Z</time></trkpt><trkpt lat="28.981595237335707" lon="-10.463252471359107"><ele>152.0</ele><time>2026-04-28T10:14:51Z</time></trkpt><trkpt lat="28.98148326784179" lon="-10.463477071552315"><ele>154.0</ele><time>2026-04-28T10:14:52Z</time></trkpt><trkpt lat="28.98137992807634" lon="-10.463711055432475"><ele>155.0</ele><time>2026-04-28T10:14:53Z</time></trkpt><trkpt lat="28.981280672288126" lon="-10.463960584468879"><ele>156.0</ele><time>2026-04-28T10:14:54Z</time></trkpt><trkpt lat="28.981185307482484" lon="-10.46423053970069"><ele>156.0</ele><time>2026-04-28T10:14:55Z</time></trkpt><trkpt lat="28.981097682103165" lon="-10.4644985708784"><ele>156.0</ele><time>2026-04-28T10:14:56Z</time></trkpt><trkpt lat="28.98100967439482" lon="-10.464754972634482"><ele>158.5</ele><time>2026-04-28T10:14:57Z</time></trkpt><trkpt lat="28.980921301336814" lon="-10.464999888300216"><ele>161.0</ele><time>2026-04-28T10:14:58Z</time></trkpt><trkpt lat="28.980836584978324" lon="-10.465242027546587"><ele>161.0</ele><time>2026-04-28T10:14:59Z</time></trkpt><trkpt lat="28.980757791661656" lon="-10.465472939196188"><ele>161.0</ele><time>2026-04-28T10:15:00Z</time></trkpt><trkpt lat="28.980675420808442" lon="-10.46568305262954"><ele>161.0</ele><time>2026-04-28T10:15:01Z</time></trkpt><trkpt lat="28.98057867444686" lon="-10.465886699286271"><ele>161.0</ele><time>2026-04-28T10:15:02Z</time></trkpt><trkpt lat="28.98045170002885" lon="-10.46609171356054"><ele>161.0</ele><time>2026-04-28T10:15:03Z</time></trkpt><trkpt lat="28.98029855501319" lon="-10.46631465521498"><ele>161.0</ele><time>2026-04-28T10:15:04Z</time></trkpt><trkpt lat="28.980144213120674" lon="-10.466540341187459"><ele>161.0</ele><time>2026-04-28T10:15:05Z</time></trkpt><trkpt lat="28.979993017243384" lon="-10.46676430117984"><ele>161.0</ele><time>2026-04-28T10:15:06Z</time></trkpt><trkpt lat="28.979844519168257" lon="-10.466990771648193"><ele>161.0</ele><time>2026-04-28T10:15:07Z</time></trkpt><trkpt lat="28.979688289107653" lon="-10.467225807311799"><ele>163.5</ele><time>2026-04-28T10:15:08Z</time></trkpt><trkpt lat="28.97951290112086" lon="-10.46747010424919"><ele>166.0</ele><time>2026-04-28T10:15:09Z</time></trkpt><trkpt lat="28.979337061494185" lon="-10.467711169031496"><ele>167.5</ele><time>2026-04-28T10:15:10Z</time></trkpt><trkpt lat="28.979169874910156" lon="-10.467947951239706"><ele>169.0</ele><time>2026-04-28T10:15:11Z</time></trkpt><trkpt lat="28.97900974179326" lon="-10.468178024936401"><ele>169.0</ele><time>2026-04-28T10:15:12Z</time></trkpt><trkpt lat="28.97885793229011" lon="-10.468399883234857"><ele>169.0</ele><time>2026-04-28T10:15:13Z</time></trkpt><trkpt lat="28.97870883495911" lon="-10.468612258607292"><ele>169.66666666666669</ele><time>2026-04-28T10:15:14Z</time></trkpt><trkpt lat="28.97856298348223" lon="-10.468818081342352"><ele>170.33333333333334</ele><time>2026-04-28T10:15:15Z</time></trkpt><trkpt lat="28.978426843632022" lon="-10.46900787190926"><ele>171.0</ele><time>2026-04-28T10:15:16Z</time></trkpt><trkpt lat="28.97830382697181" lon="-10.469187468067307"><ele>171.0</ele><time>2026-04-28T10:15:17Z</time></trkpt><trkpt lat="28.978187055519545" lon="-10.469358907614955"><ele>171.0</ele><time>2026-04-28T10:15:18Z</time></trkpt><trkpt lat="28.978075494471124" lon="-10.469524824734059"><ele>171.0</ele><time>2026-04-28T10:15:19Z</time></trkpt><trkpt lat="28.97796562027993" lon="-10.469690576366512"><ele>171.33333333333334</ele><time>2026-04-28T10:15:20Z</time></trkpt><trkpt lat="28.97785152196505" lon="-10.469859238865105"><ele>171.66666666666669</ele><time>2026-04-28T10:15:21Z</time></trkpt><trkpt lat="28.977726695093484" lon="-10.470036781879957"><ele>172.0</ele><time>2026-04-28T10:15:22Z</time></trkpt><trkpt lat="28.97759988474692" lon="-10.470218462729548"><ele>171.33333333333334</ele><time>2026-04-28T10:15:23Z</time></trkpt><trkpt lat="28.977469027135427" lon="-10.470408456136294"><ele>170.66666666666666</ele><time>2026-04-28T10:15:24Z</time></trkpt><trkpt lat="28.9773349751221" lon="-10.470605506510475"><ele>170.0</ele><time>2026-04-28T10:15:25Z</time></trkpt><trkpt lat="28.977194051912182" lon="-10.470804587414072"><ele>170.0</ele><time>2026-04-28T10:15:26Z</time></trkpt><trkpt lat="28.977052426759737" lon="-10.471000491345471"><ele>170.0</ele><time>2026-04-28T10:15:27Z</time></trkpt><trkpt lat="28.97691163496435" lon="-10.471205153624823"><ele>170.5</ele><time>2026-04-28T10:15:28Z</time></trkpt><trkpt lat="28.976764986339763" lon="-10.471413007761917"><ele>171.0</ele><time>2026-04-28T10:15:29Z</time></trkpt><trkpt lat="28.976622585052162" lon="-10.47161683513305"><ele>168.5</ele><time>2026-04-28T10:15:30Z</time></trkpt><trkpt lat="28.976477399514575" lon="-10.471823454553618"><ele>166.0</ele><time>2026-04-28T10:15:31Z</time></trkpt><trkpt lat="28.97633096957026" lon="-10.472029661640185"><ele>166.0</ele><time>2026-04-28T10:15:32Z</time></trkpt><trkpt lat="28.976186815557142" lon="-10.472235677798635"><ele>166.0</ele><time>2026-04-28T10:15:33Z</time></trkpt><trkpt lat="28.976043071919587" lon="-10.472442844658744"><ele>166.0</ele><time>2026-04-28T10:15:34Z</time></trkpt><trkpt lat="28.975896882681234" lon="-10.472650887374929"><ele>166.0</ele><time>2026-04-28T10:15:35Z</time></trkpt><trkpt lat="28.9757548254539" lon="-10.472855936030951"><ele>164.5</ele><time>2026-04-28T10:15:36Z</time></trkpt><trkpt lat="28.975615110268322" lon="-10.47307154473247"><ele>163.0</ele><time>2026-04-28T10:15:37Z</time></trkpt><trkpt lat="28.975475805046084" lon="-10.47328981645653"><ele>163.0</ele><time>2026-04-28T10:15:38Z</time></trkpt><trkpt lat="28.9753340382714" lon="-10.473522944373038"><ele>163.0</ele><time>2026-04-28T10:15:39Z</time></trkpt><trkpt lat="28.97519333816656" lon="-10.473760383489086"><ele>163.5</ele><time>2026-04-28T10:15:40Z</time></trkpt><trkpt lat="28.975042253673877" lon="-10.474005289587364"><ele>164.0</ele><time>2026-04-28T10:15:41Z</time></trkpt><trkpt lat="28.97487996694958" lon="-10.474258613266139"><ele>161.0</ele><time>2026-04-28T10:15:42Z</time></trkpt><trkpt lat="28.974714163488283" lon="-10.474513270262097"><ele>158.0</ele><time>2026-04-28T10:15:43Z</time></trkpt><trkpt lat="28.974553780371107" lon="-10.474759371877994"><ele>158.0</ele><time>2026-04-28T10:15:44Z</time></trkpt><trkpt lat="28.97440776176133" lon="-10.474987252684725"><ele>158.0</ele><time>2026-04-28T10:15:45Z</time></trkpt><trkpt lat="28.974272292988648" lon="-10.475204983846794"><ele>157.66666666666666</ele><time>2026-04-28T10:15:46Z</time></trkpt><trkpt lat="28.97414344894332" lon="-10.47541149380506"><ele>157.33333333333334</ele><time>2026-04-28T10:15:47Z</time></trkpt><trkpt lat="28.974017885166482" lon="-10.475611826145297"><ele>157.0</ele><time>2026-04-28T10:15:48Z</time></trkpt><trkpt lat="28.97390609544156" lon="-10.475811667051525"><ele>157.0</ele><time>2026-04-28T10:15:49Z</time></trkpt><trkpt lat="28.9738033126099" lon="-10.476028372064437"><ele>157.0</ele><time>2026-04-28T10:15:50Z</time></trkpt><trkpt lat="28.973725004926017" lon="-10.476253101955285"><ele>157.0</ele><time>2026-04-28T10:15:51Z</time></trkpt><trkpt lat="28.97367115363566" lon="-10.476479335438695"><ele>157.33333333333334</ele><time>2026-04-28T10:15:52Z</time></trkpt><trkpt lat="28.973635277974175" lon="-10.476700278733091"><ele>157.66666666666666</ele><time>2026-04-28T10:15:53Z</time></trkpt><trkpt lat="28.973615205094195" lon="-10.476910634143167"><ele>158.0</ele><time>2026-04-28T10:15:54Z</time></trkpt><trkpt lat="28.973609801516275" lon="-10.477128147127935"><ele>158.33333333333331</ele><time>2026-04-28T10:15:55Z</time></trkpt><trkpt lat="28.973625180877807" lon="-10.477346907846306"><ele>158.66666666666666</ele><time>2026-04-28T10:15:56Z</time></trkpt><trkpt lat="28.973666769742277" lon="-10.47757329575483"><ele>159.0</ele><time>2026-04-28T10:15:57Z</time></trkpt><trkpt lat="28.973721006322144" lon="-10.47780368335672"><ele>157.33333333333334</ele><time>2026-04-28T10:15:58Z</time></trkpt><trkpt lat="28.973782957215008" lon="-10.478023377142582"><ele>155.66666666666669</ele><time>2026-04-28T10:15:59Z</time></trkpt><trkpt lat="28.973854292667475" lon="-10.478234336818288"><ele>154.0</ele><time>2026-04-28T10:16:00Z</time></trkpt><trkpt lat="28.97393973521769" lon="-10.478438490824283"><ele>154.0</ele><time>2026-04-28T10:16:01Z</time></trkpt><trkpt lat="28.974042779481547" lon="-10.478634527007568"><ele>154.0</ele><time>2026-04-28T10:16:02Z</time></trkpt><trkpt lat="28.97416819431762" lon="-10.478818408536107"><ele>154.0</ele><time>2026-04-28T10:16:03Z</time></trkpt><trkpt lat="28.97430727154827" lon="-10.478990281671148"><ele>152.33333333333334</ele><time>2026-04-28T10:16:04Z</time></trkpt><trkpt lat="28.97445204781321" lon="-10.479163485672073"><ele>150.66666666666666</ele><time>2026-04-28T10:16:05Z</time></trkpt><trkpt lat="28.97459129425937" lon="-10.479339640684687"><ele>149.0</ele><time>2026-04-28T10:16:06Z</time></trkpt><trkpt lat="28.97473036944614" lon="-10.479521626822812"><ele>148.66666666666666</ele><time>2026-04-28T10:16:07Z</time></trkpt><trkpt lat="28.97486986618301" lon="-10.479705697744976"><ele>148.33333333333334</ele><time>2026-04-28T10:16:08Z</time></trkpt><trkpt lat="28.975004554200574" lon="-10.479886447259004"><ele>148.0</ele><time>2026-04-28T10:16:09Z</time></trkpt><trkpt lat="28.975131820320254" lon="-10.480068857918845"><ele>150.33333333333334</ele><time>2026-04-28T10:16:10Z</time></trkpt><trkpt lat="28.975240482983008" lon="-10.480242536686772"><ele>152.66666666666666</ele><time>2026-04-28T10:16:11Z</time></trkpt><trkpt lat="28.975342312181652" lon="-10.480417339261887"><ele>155.0</ele><time>2026-04-28T10:16:12Z</time></trkpt><trkpt lat="28.975431112452654" lon="-10.480595514394413"><ele>155.0</ele><time>2026-04-28T10:16:13Z</time></trkpt><trkpt lat="28.97551812674722" lon="-10.480775321527743"><ele>155.0</ele><time>2026-04-28T10:16:14Z</time></trkpt><trkpt lat="28.975594569964578" lon="-10.480937793770988"><ele>155.0</ele><time>2026-04-28T10:16:15Z</time></trkpt><trkpt lat="28.975650643811484" lon="-10.48109248126002"><ele>155.0</ele><time>2026-04-28T10:16:16Z</time></trkpt><trkpt lat="28.975688944770788" lon="-10.481250025945382"><ele>155.0</ele><time>2026-04-28T10:16:17Z</time></trkpt><trkpt lat="28.975692596501727" lon="-10.481410671950316"><ele>155.0</ele><time>2026-04-28T10:16:18Z</time></trkpt><trkpt lat="28.975658961467545" lon="-10.481580720402146"><ele>155.0</ele><time>2026-04-28T10:16:19Z</time></trkpt><trkpt lat="28.97559619612599" lon="-10.481777503180767"><ele>152.0</ele><time>2026-04-28T10:16:20Z</time></trkpt><trkpt lat="28.975531059942735" lon="-10.481990285852735"><ele>149.0</ele><time>2026-04-28T10:16:21Z</time></trkpt><trkpt lat="28.975466755987178" lon="-10.482195732468675"><ele>146.0</ele><time>2026-04-28T10:16:22Z</time></trkpt><trkpt lat="28.975388110830384" lon="-10.482385730404271"><ele>145.0</ele><time>2026-04-28T10:16:23Z</time></trkpt><trkpt lat="28.97528785286176" lon="-10.482556848577262"><ele>144.0</ele><time>2026-04-28T10:16:24Z</time></trkpt><trkpt lat="28.97516200957493" lon="-10.482714878597548"><ele>143.0</ele><time>2026-04-28T10:16:25Z</time></trkpt><trkpt lat="28.975016031491553" lon="-10.482867396271368"><ele>144.33333333333331</ele><time>2026-04-28T10:16:26Z</time></trkpt><trkpt lat="28.974845057202025" lon="-10.483018563709853"><ele>145.66666666666666</ele><time>2026-04-28T10:16:27Z</time></trkpt><trkpt lat="28.974667737187474" lon="-10.483156335974948"><ele>147.0</ele><time>2026-04-28T10:16:28Z</time></trkpt><trkpt lat="28.974477010217594" lon="-10.483286466339973"><ele>147.0</ele><time>2026-04-28T10:16:29Z</time></trkpt><trkpt lat="28.974262305770996" lon="-10.483418754941848"><ele>147.0</ele><time>2026-04-28T10:16:30Z</time></trkpt><trkpt lat="28.97402540030992" lon="-10.483547761964973"><ele>148.5</ele><time>2026-04-28T10:16:31Z</time></trkpt><trkpt lat="28.97379372803825" lon="-10.483661171516092"><ele>150.0</ele><time>2026-04-28T10:16:32Z</time></trkpt><trkpt lat="28.973548956001924" lon="-10.483761121280786"><ele>150.0</ele><time>2026-04-28T10:16:33Z</time></trkpt><trkpt lat="28.973293278033502" lon="-10.48384951849404"><ele>150.0</ele><time>2026-04-28T10:16:34Z</time></trkpt><trkpt lat="28.973042990290626" lon="-10.483930423626742"><ele>150.0</ele><time>2026-04-28T10:16:35Z</time></trkpt><trkpt lat="28.972799210384917" lon="-10.484010052538508"><ele>150.0</ele><time>2026-04-28T10:16:36Z</time></trkpt><trkpt lat="28.97255996375494" lon="-10.484094804937342"><ele>152.5</ele><time>2026-04-28T10:16:37Z</time></trkpt><trkpt lat="28.972316853424772" lon="-10.484186927668603"><ele>155.0</ele><time>2026-04-28T10:16:38Z</time></trkpt><trkpt lat="28.972071820144375" lon="-10.484284465221702"><ele>155.0</ele><time>2026-04-28T10:16:39Z</time></trkpt><trkpt lat="28.971826737820354" lon="-10.484384207889498"><ele>155.0</ele><time>2026-04-28T10:16:40Z</time></trkpt><trkpt lat="28.97158693884831" lon="-10.48448295565231"><ele>155.0</ele><time>2026-04-28T10:16:41Z</time></trkpt><trkpt lat="28.97135188864289" lon="-10.4845897578754"><ele>155.0</ele><time>2026-04-28T10:16:42Z</time></trkpt><trkpt lat="28.971114147038932" lon="-10.484706767634624"><ele>155.0</ele><time>2026-04-28T10:16:43Z</time></trkpt><trkpt lat="28.970860333960513" lon="-10.48483970473571"><ele>155.0</ele><time>2026-04-28T10:16:44Z</time></trkpt><trkpt lat="28.970607425344202" lon="-10.484968432584886"><ele>157.0</ele><time>2026-04-28T10:16:45Z</time></trkpt><trkpt lat="28.970363215467696" lon="-10.48509107720135"><ele>159.0</ele><time>2026-04-28T10:16:46Z</time></trkpt><trkpt lat="28.970122599780215" lon="-10.485207103370584"><ele>160.0</ele><time>2026-04-28T10:16:47Z</time></trkpt><trkpt lat="28.96988978609114" lon="-10.485327570623662"><ele>161.0</ele><time>2026-04-28T10:16:48Z</time></trkpt><trkpt lat="28.9696598223345" lon="-10.48545315456763"><ele>158.0</ele><time>2026-04-28T10:16:49Z</time></trkpt><trkpt lat="28.96943899355312" lon="-10.48557882488327"><ele>155.0</ele><time>2026-04-28T10:16:50Z</time></trkpt><trkpt lat="28.969221915647474" lon="-10.485719843353126"><ele>157.5</ele><time>2026-04-28T10:16:51Z</time></trkpt><trkpt lat="28.96901837311053" lon="-10.48589311842356"><ele>160.0</ele><time>2026-04-28T10:16:52Z</time></trkpt><trkpt lat="28.968829876624806" lon="-10.486098281534844"><ele>159.5</ele><time>2026-04-28T10:16:53Z</time></trkpt><trkpt lat="28.9686498529477" lon="-10.48630132783405"><ele>159.0</ele><time>2026-04-28T10:16:54Z</time></trkpt><trkpt lat="28.96847778297141" lon="-10.486485513185922"><ele>160.0</ele><time>2026-04-28T10:16:55Z</time></trkpt><trkpt lat="28.96830751104071" lon="-10.486663975218343"><ele>161.0</ele><time>2026-04-28T10:16:56Z</time></trkpt><trkpt lat="28.96813371438138" lon="-10.486842134463924"><ele>161.0</ele><time>2026-04-28T10:16:57Z</time></trkpt><trkpt lat="28.96795992584424" lon="-10.487021927064017"><ele>161.0</ele><time>2026-04-28T10:16:58Z</time></trkpt><trkpt lat="28.967778819062183" lon="-10.487212911169173"><ele>161.0</ele><time>2026-04-28T10:16:59Z</time></trkpt><trkpt lat="28.967595701570954" lon="-10.487403371584895"><ele>161.0</ele><time>2026-04-28T10:17:00Z</time></trkpt><trkpt lat="28.967407994641228" lon="-10.487596869503081"><ele>161.0</ele><time>2026-04-28T10:17:01Z</time></trkpt><trkpt lat="28.96721512129844" lon="-10.487794497065652"><ele>161.0</ele><time>2026-04-28T10:17:02Z</time></trkpt><trkpt lat="28.967013063002888" lon="-10.488000606472616"><ele>161.0</ele><time>2026-04-28T10:17:03Z</time></trkpt><trkpt lat="28.966801423927954" lon="-10.488214048280469"><ele>161.0</ele><time>2026-04-28T10:17:04Z</time></trkpt><trkpt lat="28.96659197740035" lon="-10.488429604623917"><ele>161.0</ele><time>2026-04-28T10:17:05Z</time></trkpt><trkpt lat="28.96638776179245" lon="-10.488641368982181"><ele>161.0</ele><time>2026-04-28T10:17:06Z</time></trkpt><trkpt lat="28.966185194566446" lon="-10.488852608922727"><ele>161.0</ele><time>2026-04-28T10:17:07Z</time></trkpt><trkpt lat="28.965984057111836" lon="-10.489059506490907"><ele>161.0</ele><time>2026-04-28T10:17:08Z</time></trkpt><trkpt lat="28.965782947564012" lon="-10.48926597744378"><ele>163.5</ele><time>2026-04-28T10:17:09Z</time></trkpt><trkpt lat="28.965580148830128" lon="-10.489472781152978"><ele>166.0</ele><time>2026-04-28T10:17:10Z</time></trkpt><trkpt lat="28.96537334478413" lon="-10.489685135832305"><ele>166.0</ele><time>2026-04-28T10:17:11Z</time></trkpt><trkpt lat="28.96516771459217" lon="-10.489897909605494"><ele>166.0</ele><time>2026-04-28T10:17:12Z</time></trkpt><trkpt lat="28.96496362240934" lon="-10.490109459377894"><ele>166.5</ele><time>2026-04-28T10:17:13Z</time></trkpt><trkpt lat="28.964761011420748" lon="-10.490318861192724"><ele>167.0</ele><time>2026-04-28T10:17:14Z</time></trkpt><trkpt lat="28.96456237483166" lon="-10.490531191510579"><ele>167.0</ele><time>2026-04-28T10:17:15Z</time></trkpt><trkpt lat="28.96436194644065" lon="-10.490743935803696"><ele>167.0</ele><time>2026-04-28T10:17:16Z</time></trkpt><trkpt lat="28.964162685818756" lon="-10.490951094027169"><ele>167.5</ele><time>2026-04-28T10:17:17Z</time></trkpt><trkpt lat="28.96395936380896" lon="-10.491158938267482"><ele>168.0</ele><time>2026-04-28T10:17:18Z</time></trkpt><trkpt lat="28.96375814337993" lon="-10.491367050253189"><ele>168.0</ele><time>2026-04-28T10:17:19Z</time></trkpt><trkpt lat="28.96355500830045" lon="-10.491577691903675"><ele>168.0</ele><time>2026-04-28T10:17:20Z</time></trkpt><trkpt lat="28.963355350036753" lon="-10.491783779157377"><ele>168.5</ele><time>2026-04-28T10:17:21Z</time></trkpt><trkpt lat="28.963152507407987" lon="-10.491992151564277"><ele>169.0</ele><time>2026-04-28T10:17:22Z</time></trkpt><trkpt lat="28.962953827864723" lon="-10.492197348787661"><ele>169.0</ele><time>2026-04-28T10:17:23Z</time></trkpt><trkpt lat="28.962754127368292" lon="-10.492399752617377"><ele>169.0</ele><time>2026-04-28T10:17:24Z</time></trkpt><trkpt lat="28.96255352106687" lon="-10.492605282529597"><ele>169.0</ele><time>2026-04-28T10:17:25Z</time></trkpt><trkpt lat="28.962353826423747" lon="-10.49281426372169"><ele>169.0</ele><time>2026-04-28T10:17:26Z</time></trkpt><trkpt lat="28.962157914229206" lon="-10.493020720617361"><ele>169.0</ele><time>2026-04-28T10:17:27Z</time></trkpt><trkpt lat="28.96195936901442" lon="-10.493229043603343"><ele>169.0</ele><time>2026-04-28T10:17:28Z</time></trkpt><trkpt lat="28.9617584962814" lon="-10.49343789155369"><ele>169.5</ele><time>2026-04-28T10:17:29Z</time></trkpt><trkpt lat="28.96155717584396" lon="-10.493645877404795"><ele>170.0</ele><time>2026-04-28T10:17:30Z</time></trkpt><trkpt lat="28.96135568832531" lon="-10.49385535124572"><ele>170.0</ele><time>2026-04-28T10:17:31Z</time></trkpt><trkpt lat="28.961156163491484" lon="-10.494068776602187"><ele>170.0</ele><time>2026-04-28T10:17:32Z</time></trkpt><trkpt lat="28.96095718385128" lon="-10.49428477289412"><ele>170.0</ele><time>2026-04-28T10:17:33Z</time></trkpt><trkpt lat="28.960758369081507" lon="-10.494498658785613"><ele>170.0</ele><time>2026-04-28T10:17:34Z</time></trkpt><trkpt lat="28.960563333987782" lon="-10.494710887304723"><ele>170.0</ele><time>2026-04-28T10:17:35Z</time></trkpt><trkpt lat="28.960376943346503" lon="-10.494928368753852"><ele>170.0</ele><time>2026-04-28T10:17:36Z</time></trkpt><trkpt lat="28.960205335099612" lon="-10.495156011828884"><ele>170.0</ele><time>2026-04-28T10:17:37Z</time></trkpt><trkpt lat="28.960050712760452" lon="-10.495400185886362"><ele>170.0</ele><time>2026-04-28T10:17:38Z</time></trkpt><trkpt lat="28.95991613387431" lon="-10.495660472955635"><ele>172.5</ele><time>2026-04-28T10:17:39Z</time></trkpt><trkpt lat="28.959800602813885" lon="-10.495932559818526"><ele>175.0</ele><time>2026-04-28T10:17:40Z</time></trkpt><trkpt lat="28.9597018608032" lon="-10.496214505947762"><ele>176.0</ele><time>2026-04-28T10:17:41Z</time></trkpt><trkpt lat="28.959622666081138" lon="-10.4965043751416"><ele>177.0</ele><time>2026-04-28T10:17:42Z</time></trkpt><trkpt lat="28.95955978845631" lon="-10.496798038739954"><ele>177.0</ele><time>2026-04-28T10:17:43Z</time></trkpt><trkpt lat="28.95951175402698" lon="-10.497092756093972"><ele>177.0</ele><time>2026-04-28T10:17:44Z</time></trkpt><trkpt lat="28.959477850819432" lon="-10.49739169829046"><ele>177.0</ele><time>2026-04-28T10:17:45Z</time></trkpt><trkpt lat="28.95946647123075" lon="-10.497696157102826"><ele>177.0</ele><time>2026-04-28T10:17:46Z</time></trkpt><trkpt lat="28.959475717401357" lon="-10.497999875855653"><ele>178.5</ele><time>2026-04-28T10:17:47Z</time></trkpt><trkpt lat="28.959492256687785" lon="-10.498299063234743"><ele>180.0</ele><time>2026-04-28T10:17:48Z</time></trkpt><trkpt lat="28.95950400507028" lon="-10.498604431306251"><ele>179.5</ele><time>2026-04-28T10:17:49Z</time></trkpt><trkpt lat="28.959509880140374" lon="-10.498907622545795"><ele>179.0</ele><time>2026-04-28T10:17:50Z</time></trkpt><trkpt lat="28.95951079017088" lon="-10.499209439776742"><ele>179.0</ele><time>2026-04-28T10:17:51Z</time></trkpt><trkpt lat="28.959514101660393" lon="-10.499510938903944"><ele>179.0</ele><time>2026-04-28T10:17:52Z</time></trkpt><trkpt lat="28.959516197297923" lon="-10.499809545851884"><ele>180.5</ele><time>2026-04-28T10:17:53Z</time></trkpt><trkpt lat="28.95952053334464" lon="-10.500104393015416"><ele>182.0</ele><time>2026-04-28T10:17:54Z</time></trkpt><trkpt lat="28.959524496445063" lon="-10.500398373641769"><ele>183.0</ele><time>2026-04-28T10:17:55Z</time></trkpt><trkpt lat="28.959527996156876" lon="-10.5006888616547"><ele>184.0</ele><time>2026-04-28T10:17:56Z</time></trkpt><trkpt lat="28.95953123295871" lon="-10.500966963288484"><ele>184.0</ele><time>2026-04-28T10:17:57Z</time></trkpt><trkpt lat="28.959534527778178" lon="-10.501239330755851"><ele>184.0</ele><time>2026-04-28T10:17:58Z</time></trkpt><trkpt lat="28.959534360084135" lon="-10.501519838797375"><ele>185.0</ele><time>2026-04-28T10:17:59Z</time></trkpt><trkpt lat="28.959533206065977" lon="-10.501795778784041"><ele>186.0</ele><time>2026-04-28T10:18:00Z</time></trkpt><trkpt lat="28.959530689618926" lon="-10.502077649059736"><ele>187.5</ele><time>2026-04-28T10:18:01Z</time></trkpt><trkpt lat="28.959532630106867" lon="-10.502354209526267"><ele>189.0</ele><time>2026-04-28T10:18:02Z</time></trkpt><trkpt lat="28.95953817535355" lon="-10.502623895057566"><ele>189.0</ele><time>2026-04-28T10:18:03Z</time></trkpt><trkpt lat="28.95954333167726" lon="-10.502879223203692"><ele>189.0</ele><time>2026-04-28T10:18:04Z</time></trkpt><trkpt lat="28.959542764216135" lon="-10.503122506977357"><ele>189.0</ele><time>2026-04-28T10:18:05Z</time></trkpt><trkpt lat="28.959540814048186" lon="-10.50336471097501"><ele>190.0</ele><time>2026-04-28T10:18:06Z</time></trkpt><trkpt lat="28.959544826602183" lon="-10.503623457090388"><ele>191.0</ele><time>2026-04-28T10:18:07Z</time></trkpt><trkpt lat="28.959551907117284" lon="-10.503895427804258"><ele>191.0</ele><time>2026-04-28T10:18:08Z</time></trkpt><trkpt lat="28.95955868617087" lon="-10.504179188806253"><ele>191.0</ele><time>2026-04-28T10:18:09Z</time></trkpt><trkpt lat="28.959563319644747" lon="-10.504465389417582"><ele>192.0</ele><time>2026-04-28T10:18:10Z</time></trkpt><trkpt lat="28.959567639423298" lon="-10.504754031640209"><ele>193.0</ele><time>2026-04-28T10:18:11Z</time></trkpt><trkpt lat="28.959573389218892" lon="-10.50503495034485"><ele>193.0</ele><time>2026-04-28T10:18:12Z</time></trkpt><trkpt lat="28.959579170809196" lon="-10.505301946689652"><ele>193.0</ele><time>2026-04-28T10:18:13Z</time></trkpt><trkpt lat="28.959582569780093" lon="-10.505567920196917"><ele>191.5</ele><time>2026-04-28T10:18:14Z</time></trkpt><trkpt lat="28.959581866551787" lon="-10.505832374981486"><ele>190.0</ele><time>2026-04-28T10:18:15Z</time></trkpt><trkpt lat="28.959578313511045" lon="-10.506101075530907"><ele>188.0</ele><time>2026-04-28T10:18:16Z</time></trkpt><trkpt lat="28.959576263239324" lon="-10.506366170033374"><ele>186.0</ele><time>2026-04-28T10:18:17Z</time></trkpt><trkpt lat="28.959576579693895" lon="-10.506633529233556"><ele>186.0</ele><time>2026-04-28T10:18:18Z</time></trkpt><trkpt lat="28.959580034394243" lon="-10.506905239662046"><ele>186.0</ele><time>2026-04-28T10:18:19Z</time></trkpt><trkpt lat="28.959584638918724" lon="-10.507176644676006"><ele>186.0</ele><time>2026-04-28T10:18:20Z</time></trkpt><trkpt lat="28.95958854750222" lon="-10.507447813565722"><ele>186.0</ele><time>2026-04-28T10:18:21Z</time></trkpt><trkpt lat="28.959592768465782" lon="-10.50771862082553"><ele>186.5</ele><time>2026-04-28T10:18:22Z</time></trkpt><trkpt lat="28.959594403724704" lon="-10.507996494271218"><ele>187.0</ele><time>2026-04-28T10:18:23Z</time></trkpt><trkpt lat="28.959597030053526" lon="-10.508275350944777"><ele>187.0</ele><time>2026-04-28T10:18:24Z</time></trkpt><trkpt lat="28.959600986209978" lon="-10.508557290264635"><ele>187.0</ele><time>2026-04-28T10:18:25Z</time></trkpt><trkpt lat="28.959608812386513" lon="-10.508842524457934"><ele>184.5</ele><time>2026-04-28T10:18:26Z</time></trkpt><trkpt lat="28.95961181944808" lon="-10.509126868361898"><ele>182.0</ele><time>2026-04-28T10:18:27Z</time></trkpt><trkpt lat="28.959611607405133" lon="-10.50941214114954"><ele>181.33333333333331</ele><time>2026-04-28T10:18:28Z</time></trkpt><trkpt lat="28.959612866363827" lon="-10.50968179397063"><ele>180.66666666666666</ele><time>2026-04-28T10:18:29Z</time></trkpt><trkpt lat="28.959615181907814" lon="-10.509924202780933"><ele>180.0</ele><time>2026-04-28T10:18:30Z</time></trkpt><trkpt lat="28.959615848495506" lon="-10.510149009980372"><ele>180.0</ele><time>2026-04-28T10:18:31Z</time></trkpt><trkpt lat="28.959615013095707" lon="-10.510366077199066"><ele>180.0</ele><time>2026-04-28T10:18:32Z</time></trkpt><trkpt lat="28.95960780399079" lon="-10.510583835417806"><ele>180.0</ele><time>2026-04-28T10:18:33Z</time></trkpt><trkpt lat="28.959590839338045" lon="-10.510794081952092"><ele>179.66666666666666</ele><time>2026-04-28T10:18:34Z</time></trkpt><trkpt lat="28.959560835719085" lon="-10.510993359837745"><ele>179.33333333333331</ele><time>2026-04-28T10:18:35Z</time></trkpt><trkpt lat="28.959512818370754" lon="-10.51119695446575"><ele>179.0</ele><time>2026-04-28T10:18:36Z</time></trkpt><trkpt lat="28.95943708271606" lon="-10.511397921411088"><ele>178.66666666666666</ele><time>2026-04-28T10:18:37Z</time></trkpt><trkpt lat="28.959342917535384" lon="-10.511615724882253"><ele>178.33333333333334</ele><time>2026-04-28T10:18:38Z</time></trkpt><trkpt lat="28.95923560139626" lon="-10.511842927772895"><ele>178.0</ele><time>2026-04-28T10:18:39Z</time></trkpt><trkpt lat="28.95912707477155" lon="-10.51207870870179"><ele>178.0</ele><time>2026-04-28T10:18:40Z</time></trkpt><trkpt lat="28.95901473401054" lon="-10.512310571917624"><ele>178.0</ele><time>2026-04-28T10:18:41Z</time></trkpt><trkpt lat="28.95891036485297" lon="-10.512538576961145"><ele>178.0</ele><time>2026-04-28T10:18:42Z</time></trkpt><trkpt lat="28.95881357280076" lon="-10.512759783209052"><ele>178.0</ele><time>2026-04-28T10:18:43Z</time></trkpt><trkpt lat="28.958715346083565" lon="-10.512985008840298"><ele>178.0</ele><time>2026-04-28T10:18:44Z</time></trkpt><trkpt lat="28.95862019747889" lon="-10.513201763373496"><ele>178.0</ele><time>2026-04-28T10:18:45Z</time></trkpt><trkpt lat="28.958528103584342" lon="-10.513409870204548"><ele>178.0</ele><time>2026-04-28T10:18:46Z</time></trkpt><trkpt lat="28.958436863359086" lon="-10.513617863450024"><ele>178.0</ele><time>2026-04-28T10:18:47Z</time></trkpt><trkpt lat="28.958348162722814" lon="-10.513815702350715"><ele>176.33333333333334</ele><time>2026-04-28T10:18:48Z</time></trkpt><trkpt lat="28.958266075365966" lon="-10.514005785408749"><ele>174.66666666666666</ele><time>2026-04-28T10:18:49Z</time></trkpt><trkpt lat="28.958183234982787" lon="-10.51419381142994"><ele>173.0</ele><time>2026-04-28T10:18:50Z</time></trkpt><trkpt lat="28.9581006725204" lon="-10.51438736667662"><ele>171.0</ele><time>2026-04-28T10:18:51Z</time></trkpt><trkpt lat="28.958015500717813" lon="-10.514581421345657"><ele>169.0</ele><time>2026-04-28T10:18:52Z</time></trkpt><trkpt lat="28.95792388338709" lon="-10.514776073636629"><ele>167.0</ele><time>2026-04-28T10:18:53Z</time></trkpt><trkpt lat="28.95782632140957" lon="-10.514967558832279"><ele>167.0</ele><time>2026-04-28T10:18:54Z</time></trkpt><trkpt lat="28.95772360205966" lon="-10.515160342415468"><ele>167.0</ele><time>2026-04-28T10:18:55Z</time></trkpt><trkpt lat="28.957616032573224" lon="-10.515369846044436"><ele>167.0</ele><time>2026-04-28T10:18:56Z</time></trkpt><trkpt lat="28.957506888732066" lon="-10.515595540342158"><ele>165.5</ele><time>2026-04-28T10:18:57Z</time></trkpt><trkpt lat="28.957397822700713" lon="-10.515825956639333"><ele>164.0</ele><time>2026-04-28T10:18:58Z</time></trkpt><trkpt lat="28.957285017148514" lon="-10.516059779887813"><ele>162.5</ele><time>2026-04-28T10:18:59Z</time></trkpt><trkpt lat="28.957172582798194" lon="-10.516294680908755"><ele>161.0</ele><time>2026-04-28T10:19:00Z</time></trkpt><trkpt lat="28.95706204244477" lon="-10.516537958662791"><ele>161.0</ele><time>2026-04-28T10:19:01Z</time></trkpt><trkpt lat="28.95695198164596" lon="-10.5167810048712"><ele>161.0</ele><time>2026-04-28T10:19:02Z</time></trkpt><trkpt lat="28.956839593037937" lon="-10.517022349106313"><ele>161.0</ele><time>2026-04-28T10:19:03Z</time></trkpt><trkpt lat="28.95672698001874" lon="-10.517258285677139"><ele>161.0</ele><time>2026-04-28T10:19:04Z</time></trkpt><trkpt lat="28.95661620088822" lon="-10.517494851222368"><ele>161.0</ele><time>2026-04-28T10:19:05Z</time></trkpt><trkpt lat="28.956507833080256" lon="-10.51772686712052"><ele>161.0</ele><time>2026-04-28T10:19:06Z</time></trkpt><trkpt lat="28.956397681100334" lon="-10.517966464597666"><ele>159.0</ele><time>2026-04-28T10:19:07Z</time></trkpt><trkpt lat="28.956283016068216" lon="-10.518213520013552"><ele>157.0</ele><time>2026-04-28T10:19:08Z</time></trkpt><trkpt lat="28.956164257366417" lon="-10.518468293855017"><ele>158.0</ele><time>2026-04-28T10:19:09Z</time></trkpt><trkpt lat="28.956041569643563" lon="-10.51873772136324"><ele>159.0</ele><time>2026-04-28T10:19:10Z</time></trkpt><trkpt lat="28.955927949199168" lon="-10.519004168553568"><ele>163.5</ele><time>2026-04-28T10:19:11Z</time></trkpt><trkpt lat="28.95582488721109" lon="-10.519272164060137"><ele>168.0</ele><time>2026-04-28T10:19:12Z</time></trkpt><trkpt lat="28.95573765464283" lon="-10.519546404602835"><ele>168.5</ele><time>2026-04-28T10:19:13Z</time></trkpt><trkpt lat="28.955664804618074" lon="-10.519827651318446"><ele>169.0</ele><time>2026-04-28T10:19:14Z</time></trkpt><trkpt lat="28.955604682483717" lon="-10.520109315632885"><ele>169.0</ele><time>2026-04-28T10:19:15Z</time></trkpt><trkpt lat="28.955552017015503" lon="-10.520378534275405"><ele>169.0</ele><time>2026-04-28T10:19:16Z</time></trkpt><trkpt lat="28.955503221019345" lon="-10.520644774703749"><ele>168.33333333333334</ele><time>2026-04-28T10:19:17Z</time></trkpt><trkpt lat="28.955461713438467" lon="-10.520901776564747"><ele>167.66666666666666</ele><time>2026-04-28T10:19:18Z</time></trkpt><trkpt lat="28.95543318716408" lon="-10.521147690256333"><ele>167.0</ele><time>2026-04-28T10:19:19Z</time></trkpt><trkpt lat="28.955404646449285" lon="-10.521384161193659"><ele>165.66666666666666</ele><time>2026-04-28T10:19:20Z</time></trkpt><trkpt lat="28.955373940738717" lon="-10.521618122602568"><ele>164.33333333333334</ele><time>2026-04-28T10:19:21Z</time></trkpt><trkpt lat="28.95534040758734" lon="-10.521857517796125"><ele>163.0</ele><time>2026-04-28T10:19:22Z</time></trkpt><trkpt lat="28.955305960934805" lon="-10.522108016173004"><ele>160.0</ele><time>2026-04-28T10:19:23Z</time></trkpt><trkpt lat="28.955269857816372" lon="-10.522370480319093"><ele>157.0</ele><time>2026-04-28T10:19:24Z</time></trkpt><trkpt lat="28.955231393187788" lon="-10.522642080949998"><ele>154.0</ele><time>2026-04-28T10:19:25Z</time></trkpt><trkpt lat="28.955194846711056" lon="-10.522915382931489"><ele>151.0</ele><time>2026-04-28T10:19:26Z</time></trkpt><trkpt lat="28.955158470398032" lon="-10.523196394324865"><ele>151.0</ele><time>2026-04-28T10:19:27Z</time></trkpt><trkpt lat="28.955119446305535" lon="-10.523482779379808"><ele>151.0</ele><time>2026-04-28T10:19:28Z</time></trkpt><trkpt lat="28.955080960622464" lon="-10.523779744850716"><ele>151.0</ele><time>2026-04-28T10:19:29Z</time></trkpt><trkpt lat="28.955041920053436" lon="-10.524080756522933"><ele>151.0</ele><time>2026-04-28T10:19:30Z</time></trkpt><trkpt lat="28.95500041211537" lon="-10.524386737116151"><ele>149.0</ele><time>2026-04-28T10:19:31Z</time></trkpt><trkpt lat="28.954959690592613" lon="-10.524695433688994"><ele>147.0</ele><time>2026-04-28T10:19:32Z</time></trkpt><trkpt lat="28.954917366092715" lon="-10.524999006597334"><ele>147.0</ele><time>2026-04-28T10:19:33Z</time></trkpt><trkpt lat="28.954872025771266" lon="-10.525302251580007"><ele>147.0</ele><time>2026-04-28T10:19:34Z</time></trkpt><trkpt lat="28.95482894938035" lon="-10.52559701637691"><ele>146.5</ele><time>2026-04-28T10:19:35Z</time></trkpt><trkpt lat="28.954792127090542" lon="-10.525888159949428"><ele>146.0</ele><time>2026-04-28T10:19:36Z</time></trkpt><trkpt lat="28.954757743970834" lon="-10.52617665639588"><ele>147.5</ele><time>2026-04-28T10:19:37Z</time></trkpt><trkpt lat="28.954730555823865" lon="-10.526451105484927"><ele>149.0</ele><time>2026-04-28T10:19:38Z</time></trkpt><trkpt lat="28.954712609628867" lon="-10.526711029926716"><ele>149.0</ele><time>2026-04-28T10:19:39Z</time></trkpt><trkpt lat="28.95471198470578" lon="-10.52696627175574"><ele>149.0</ele><time>2026-04-28T10:19:40Z</time></trkpt><trkpt lat="28.954735953987843" lon="-10.527227133881217"><ele>148.5</ele><time>2026-04-28T10:19:41Z</time></trkpt><trkpt lat="28.954784885601207" lon="-10.52750276453398"><ele>148.0</ele><time>2026-04-28T10:19:42Z</time></trkpt><trkpt lat="28.954864783205473" lon="-10.527788955398192"><ele>147.5</ele><time>2026-04-28T10:19:43Z</time></trkpt><trkpt lat="28.95496705065415" lon="-10.528077201178293"><ele>147.0</ele><time>2026-04-28T10:19:44Z</time></trkpt><trkpt lat="28.955079324825444" lon="-10.528358902949414"><ele>149.5</ele><time>2026-04-28T10:19:45Z</time></trkpt><trkpt lat="28.9551894852838" lon="-10.528634711387609"><ele>152.0</ele><time>2026-04-28T10:19:46Z</time></trkpt><trkpt lat="28.95529474841562" lon="-10.52891769093318"><ele>152.0</ele><time>2026-04-28T10:19:47Z</time></trkpt><trkpt lat="28.955397709346254" lon="-10.529207817694452"><ele>152.0</ele><time>2026-04-28T10:19:48Z</time></trkpt><trkpt lat="28.955489870655406" lon="-10.529492598664163"><ele>153.0</ele><time>2026-04-28T10:19:49Z</time></trkpt><trkpt lat="28.95557818645869" lon="-10.529779874359201"><ele>154.0</ele><time>2026-04-28T10:19:50Z</time></trkpt><trkpt lat="28.955661720276606" lon="-10.530074937355042"><ele>154.0</ele><time>2026-04-28T10:19:51Z</time></trkpt><trkpt lat="28.95574435483669" lon="-10.530381164091512"><ele>154.0</ele><time>2026-04-28T10:19:52Z</time></trkpt><trkpt lat="28.95582477463442" lon="-10.530692159568328"><ele>155.5</ele><time>2026-04-28T10:19:53Z</time></trkpt><trkpt lat="28.955909174678265" lon="-10.53099786946613"><ele>157.0</ele><time>2026-04-28T10:19:54Z</time></trkpt><trkpt lat="28.956000785219604" lon="-10.53129206673979"><ele>157.0</ele><time>2026-04-28T10:19:55Z</time></trkpt><trkpt lat="28.95610403646373" lon="-10.531575225500658"><ele>157.0</ele><time>2026-04-28T10:19:56Z</time></trkpt><trkpt lat="28.956212811603397" lon="-10.531851145370593"><ele>156.5</ele><time>2026-04-28T10:19:57Z</time></trkpt><trkpt lat="28.95632171881389" lon="-10.532112384973365"><ele>156.0</ele><time>2026-04-28T10:19:58Z</time></trkpt><trkpt lat="28.95642121076057" lon="-10.532362624161584"><ele>156.0</ele><time>2026-04-28T10:19:59Z</time></trkpt><trkpt lat="28.95651510481711" lon="-10.532610534915607"><ele>156.0</ele><time>2026-04-28T10:20:00Z</time></trkpt><trkpt lat="28.956595724042952" lon="-10.532872940978995"><ele>159.5</ele><time>2026-04-28T10:20:01Z</time></trkpt><trkpt lat="28.95666621651011" lon="-10.533155685565653"><ele>163.0</ele><time>2026-04-28T10:20:02Z</time></trkpt><trkpt lat="28.956733822772595" lon="-10.533439638887748"><ele>163.0</ele><time>2026-04-28T10:20:03Z</time></trkpt><trkpt lat="28.956795699260688" lon="-10.533698923404858"><ele>163.0</ele><time>2026-04-28T10:20:04Z</time></trkpt><trkpt lat="28.956849359810764" lon="-10.533942072922049"><ele>163.0</ele><time>2026-04-28T10:20:05Z</time></trkpt><trkpt lat="28.956897946850596" lon="-10.534169511962425"><ele>163.0</ele><time>2026-04-28T10:20:06Z</time></trkpt><trkpt lat="28.95695069161671" lon="-10.53439858525236"><ele>163.0</ele><time>2026-04-28T10:20:07Z</time></trkpt><trkpt lat="28.95700792101817" lon="-10.534639849175717"><ele>162.0</ele><time>2026-04-28T10:20:08Z</time></trkpt><trkpt lat="28.957068702241838" lon="-10.534900234035815"><ele>161.0</ele><time>2026-04-28T10:20:09Z</time></trkpt><trkpt lat="28.95713472112431" lon="-10.535180300950369"><ele>159.0</ele><time>2026-04-28T10:20:10Z</time></trkpt><trkpt lat="28.95720653219352" lon="-10.535458664142482"><ele>157.0</ele><time>2026-04-28T10:20:11Z</time></trkpt><trkpt lat="28.957282132122934" lon="-10.535708974895742"><ele>157.0</ele><time>2026-04-28T10:20:12Z</time></trkpt><trkpt lat="28.957366261207753" lon="-10.535935942787878"><ele>157.0</ele><time>2026-04-28T10:20:13Z</time></trkpt><trkpt lat="28.957456902193574" lon="-10.536148771149392"><ele>157.0</ele><time>2026-04-28T10:20:14Z</time></trkpt><trkpt lat="28.957548128911977" lon="-10.536339659311299"><ele>158.0</ele><time>2026-04-28T10:20:15Z</time></trkpt><trkpt lat="28.957640236041907" lon="-10.536519267919202"><ele>159.0</ele><time>2026-04-28T10:20:16Z</time></trkpt><trkpt lat="28.957722783280094" lon="-10.536702641167668"><ele>160.0</ele><time>2026-04-28T10:20:17Z</time></trkpt><trkpt lat="28.95779585532882" lon="-10.536902111498144"><ele>156.0</ele><time>2026-04-28T10:20:18Z</time></trkpt><trkpt lat="28.95786817762823" lon="-10.537106580064645"><ele>152.0</ele><time>2026-04-28T10:20:19Z</time></trkpt><trkpt lat="28.957937157190624" lon="-10.537297556909996"><ele>148.0</ele><time>2026-04-28T10:20:20Z</time></trkpt><trkpt lat="28.958005430335998" lon="-10.53748008970186"><ele>148.0</ele><time>2026-04-28T10:20:21Z</time></trkpt><trkpt lat="28.958079025559424" lon="-10.537654554555324"><ele>148.0</ele><time>2026-04-28T10:20:22Z</time></trkpt><trkpt lat="28.958156460693218" lon="-10.537821529890826"><ele>148.0</ele><time>2026-04-28T10:20:23Z</time></trkpt><trkpt lat="28.95823019866227" lon="-10.537985148750648"><ele>143.66666666666669</ele><time>2026-04-28T10:20:24Z</time></trkpt><trkpt lat="28.9582902111029" lon="-10.538148745284873"><ele>139.33333333333334</ele><time>2026-04-28T10:20:25Z</time></trkpt><trkpt lat="28.958330139936663" lon="-10.538315263565066"><ele>135.0</ele><time>2026-04-28T10:20:26Z</time></trkpt><trkpt lat="28.958343069845164" lon="-10.538488133103222"><ele>135.0</ele><time>2026-04-28T10:20:27Z</time></trkpt><trkpt lat="28.958330122364043" lon="-10.538679884036423"><ele>135.0</ele><time>2026-04-28T10:20:28Z</time></trkpt><trkpt lat="28.95827951453985" lon="-10.538891556895505"><ele>135.0</ele><time>2026-04-28T10:20:29Z</time></trkpt><trkpt lat="28.95822398661481" lon="-10.539101809847374"><ele>132.66666666666666</ele><time>2026-04-28T10:20:30Z</time></trkpt><trkpt lat="28.95818162343675" lon="-10.539289613985073"><ele>130.33333333333331</ele><time>2026-04-28T10:20:31Z</time></trkpt><trkpt lat="28.958151760732214" lon="-10.539463845499396"><ele>128.0</ele><time>2026-04-28T10:20:32Z</time></trkpt><trkpt lat="28.958149468566837" lon="-10.539627363270721"><ele>126.0</ele><time>2026-04-28T10:20:33Z</time></trkpt><trkpt lat="28.95818550291466" lon="-10.53979158620557"><ele>124.0</ele><time>2026-04-28T10:20:34Z</time></trkpt><trkpt lat="28.958241241641144" lon="-10.539968709564123"><ele>122.0</ele><time>2026-04-28T10:20:35Z</time></trkpt><trkpt lat="28.958275098834633" lon="-10.540155021922748"><ele>122.0</ele><time>2026-04-28T10:20:36Z</time></trkpt><trkpt lat="28.958252236747878" lon="-10.54035153211914"><ele>122.0</ele><time>2026-04-28T10:20:37Z</time></trkpt><trkpt lat="28.95821104478231" lon="-10.540547502072231"><ele>122.0</ele><time>2026-04-28T10:20:38Z</time></trkpt><trkpt lat="28.95817063348008" lon="-10.54073348699586"><ele>122.33333333333333</ele><time>2026-04-28T10:20:39Z</time></trkpt><trkpt lat="28.9581258447485" lon="-10.540926404945115"><ele>122.66666666666666</ele><time>2026-04-28T10:20:40Z</time></trkpt><trkpt lat="28.958067673314037" lon="-10.54114112853212"><ele>123.0</ele><time>2026-04-28T10:20:41Z</time></trkpt><trkpt lat="28.957996419249397" lon="-10.5413762438268"><ele>120.66666666666666</ele><time>2026-04-28T10:20:42Z</time></trkpt><trkpt lat="28.957918334155153" lon="-10.541605165208491"><ele>118.33333333333333</ele><time>2026-04-28T10:20:43Z</time></trkpt><trkpt lat="28.95784071251659" lon="-10.541825213666208"><ele>116.0</ele><time>2026-04-28T10:20:44Z</time></trkpt><trkpt lat="28.957778156537472" lon="-10.542034457816523"><ele>113.0</ele><time>2026-04-28T10:20:45Z</time></trkpt><trkpt lat="28.957731039240993" lon="-10.54223959943927"><ele>110.0</ele><time>2026-04-28T10:20:46Z</time></trkpt><trkpt lat="28.9577082462535" lon="-10.542441694269147"><ele>107.0</ele><time>2026-04-28T10:20:47Z</time></trkpt><trkpt lat="28.957711227919756" lon="-10.542631100382746"><ele>107.0</ele><time>2026-04-28T10:20:48Z</time></trkpt><trkpt lat="28.9577385021037" lon="-10.542821966325889"><ele>107.0</ele><time>2026-04-28T10:20:49Z</time></trkpt><trkpt lat="28.95779643953644" lon="-10.543016742849323"><ele>107.0</ele><time>2026-04-28T10:20:50Z</time></trkpt><trkpt lat="28.957875511059896" lon="-10.54321519270746"><ele>106.33333333333333</ele><time>2026-04-28T10:20:51Z</time></trkpt><trkpt lat="28.957977510122685" lon="-10.543397858743292"><ele>105.66666666666666</ele><time>2026-04-28T10:20:52Z</time></trkpt><trkpt lat="28.958099688619566" lon="-10.543573415932395"><ele>105.0</ele><time>2026-04-28T10:20:53Z</time></trkpt><trkpt lat="28.958231397873952" lon="-10.543732961726715"><ele>104.0</ele><time>2026-04-28T10:20:54Z</time></trkpt><trkpt lat="28.958351195210373" lon="-10.54386627492561"><ele>103.0</ele><time>2026-04-28T10:20:55Z</time></trkpt><trkpt lat="28.958463993411907" lon="-10.543988182269036"><ele>102.0</ele><time>2026-04-28T10:20:56Z</time></trkpt><trkpt lat="28.958561628890767" lon="-10.544118294887454"><ele>102.0</ele><time>2026-04-28T10:20:57Z</time></trkpt><trkpt lat="28.958645737668686" lon="-10.544275781577824"><ele>102.0</ele><time>2026-04-28T10:20:58Z</time></trkpt><trkpt lat="28.958733516519768" lon="-10.54447803892608"><ele>102.0</ele><time>2026-04-28T10:20:59Z</time></trkpt><trkpt lat="28.958834345220613" lon="-10.544702643591233"><ele>101.0</ele><time>2026-04-28T10:21:00Z</time></trkpt><trkpt lat="28.9589501037983" lon="-10.544940747716893"><ele>100.0</ele><time>2026-04-28T10:21:01Z</time></trkpt><trkpt lat="28.95906877435424" lon="-10.54518089366922"><ele>99.0</ele><time>2026-04-28T10:21:02Z</time></trkpt><trkpt lat="28.959186754529437" lon="-10.545415578286814"><ele>98.0</ele><time>2026-04-28T10:21:03Z</time></trkpt><trkpt lat="28.9593029973715" lon="-10.545645423200867"><ele>98.0</ele><time>2026-04-28T10:21:04Z</time></trkpt><trkpt lat="28.95942488464479" lon="-10.545868833303242"><ele>98.0</ele><time>2026-04-28T10:21:05Z</time></trkpt><trkpt lat="28.9595507670827" lon="-10.546084276299819"><ele>98.66666666666666</ele><time>2026-04-28T10:21:06Z</time></trkpt><trkpt lat="28.959676791990955" lon="-10.546290791565305"><ele>99.33333333333334</ele><time>2026-04-28T10:21:07Z</time></trkpt><trkpt lat="28.959805119130706" lon="-10.546479336404786"><ele>100.0</ele><time>2026-04-28T10:21:08Z</time></trkpt><trkpt lat="28.959944392738812" lon="-10.546659414026646"><ele>101.33333333333334</ele><time>2026-04-28T10:21:09Z</time></trkpt><trkpt lat="28.960094169800854" lon="-10.546810899088781"><ele>102.66666666666666</ele><time>2026-04-28T10:21:10Z</time></trkpt><trkpt lat="28.96025125454715" lon="-10.546948926577995"><ele>104.0</ele><time>2026-04-28T10:21:11Z</time></trkpt><trkpt lat="28.960409736792077" lon="-10.547067254170173"><ele>100.0</ele><time>2026-04-28T10:21:12Z</time></trkpt><trkpt lat="28.960554927773742" lon="-10.547176571067679"><ele>96.0</ele><time>2026-04-28T10:21:13Z</time></trkpt><trkpt lat="28.960685451762465" lon="-10.547302979817148"><ele>92.0</ele><time>2026-04-28T10:21:14Z</time></trkpt><trkpt lat="28.96079517989842" lon="-10.54745192373849"><ele>90.66666666666667</ele><time>2026-04-28T10:21:15Z</time></trkpt><trkpt lat="28.960888398034975" lon="-10.54763057150738"><ele>89.33333333333333</ele><time>2026-04-28T10:21:16Z</time></trkpt><trkpt lat="28.960962024367944" lon="-10.547838753464044"><ele>88.0</ele><time>2026-04-28T10:21:17Z</time></trkpt><trkpt lat="28.961022575735296" lon="-10.548059760242728"><ele>87.66666666666666</ele><time>2026-04-28T10:21:18Z</time></trkpt><trkpt lat="28.961058328933355" lon="-10.548270181429466"><ele>87.33333333333333</ele><time>2026-04-28T10:21:19Z</time></trkpt><trkpt lat="28.961074381092487" lon="-10.5484903518826"><ele>87.0</ele><time>2026-04-28T10:21:20Z</time></trkpt><trkpt lat="28.961072073672536" lon="-10.548736647146859"><ele>86.0</ele><time>2026-04-28T10:21:21Z</time></trkpt><trkpt lat="28.9610540898245" lon="-10.549006803310949"><ele>85.0</ele><time>2026-04-28T10:21:22Z</time></trkpt><trkpt lat="28.961028235215185" lon="-10.549281836462452"><ele>84.0</ele><time>2026-04-28T10:21:23Z</time></trkpt><trkpt lat="28.961002138139783" lon="-10.549561407789238"><ele>83.0</ele><time>2026-04-28T10:21:24Z</time></trkpt><trkpt lat="28.960980044334583" lon="-10.5498444736569"><ele>83.0</ele><time>2026-04-28T10:21:25Z</time></trkpt><trkpt lat="28.960961770307414" lon="-10.550129992674306"><ele>83.0</ele><time>2026-04-28T10:21:26Z</time></trkpt><trkpt lat="28.960944611345088" lon="-10.550420217832011"><ele>86.0</ele><time>2026-04-28T10:21:27Z</time></trkpt><trkpt lat="28.96093215781307" lon="-10.55070211055589"><ele>89.0</ele><time>2026-04-28T10:21:28Z</time></trkpt><trkpt lat="28.960913929687248" lon="-10.550986455858759"><ele>88.0</ele><time>2026-04-28T10:21:29Z</time></trkpt><trkpt lat="28.960893534183953" lon="-10.551264228952093"><ele>87.0</ele><time>2026-04-28T10:21:30Z</time></trkpt><trkpt lat="28.960876373351283" lon="-10.551537441694824"><ele>84.5</ele><time>2026-04-28T10:21:31Z</time></trkpt><trkpt lat="28.960862211238062" lon="-10.55180312856429"><ele>82.0</ele><time>2026-04-28T10:21:32Z</time></trkpt><trkpt lat="28.96085409349809" lon="-10.55206025529863"><ele>82.0</ele><time>2026-04-28T10:21:33Z</time></trkpt><trkpt lat="28.960858303377783" lon="-10.552315937153585"><ele>82.0</ele><time>2026-04-28T10:21:34Z</time></trkpt><trkpt lat="28.960880225038593" lon="-10.55257244277857"><ele>82.0</ele><time>2026-04-28T10:21:35Z</time></trkpt><trkpt lat="28.96090948284547" lon="-10.55282104510829"><ele>79.66666666666666</ele><time>2026-04-28T10:21:36Z</time></trkpt><trkpt lat="28.96093294996449" lon="-10.55306309835968"><ele>77.33333333333333</ele><time>2026-04-28T10:21:37Z</time></trkpt><trkpt lat="28.960949681116947" lon="-10.553304995015436"><ele>75.0</ele><time>2026-04-28T10:21:38Z</time></trkpt><trkpt lat="28.960966248647626" lon="-10.553545366885462"><ele>74.33333333333333</ele><time>2026-04-28T10:21:39Z</time></trkpt><trkpt lat="28.96098236988919" lon="-10.553799640432313"><ele>73.66666666666666</ele><time>2026-04-28T10:21:40Z</time></trkpt><trkpt lat="28.96099408409375" lon="-10.55405510781251"><ele>73.0</ele><time>2026-04-28T10:21:41Z</time></trkpt><trkpt lat="28.9610029158815" lon="-10.554305450250121"><ele>71.66666666666666</ele><time>2026-04-28T10:21:42Z</time></trkpt><trkpt lat="28.960993113257274" lon="-10.554538911569127"><ele>70.33333333333333</ele><time>2026-04-28T10:21:43Z</time></trkpt><trkpt lat="28.960956161478173" lon="-10.554761357267077"><ele>69.0</ele><time>2026-04-28T10:21:44Z</time></trkpt><trkpt lat="28.960897824620183" lon="-10.55499982446987"><ele>68.5</ele><time>2026-04-28T10:21:45Z</time></trkpt><trkpt lat="28.960834481545497" lon="-10.555270999962014"><ele>68.0</ele><time>2026-04-28T10:21:46Z</time></trkpt><trkpt lat="28.960773685243574" lon="-10.555557331561284"><ele>68.0</ele><time>2026-04-28T10:21:47Z</time></trkpt><trkpt lat="28.960712361666605" lon="-10.555844098599929"><ele>68.0</ele><time>2026-04-28T10:21:48Z</time></trkpt><trkpt lat="28.96064788201025" lon="-10.556125274679452"><ele>67.0</ele><time>2026-04-28T10:21:49Z</time></trkpt><trkpt lat="28.96058641929124" lon="-10.556409019422658"><ele>66.0</ele><time>2026-04-28T10:21:50Z</time></trkpt><trkpt lat="28.96052428460339" lon="-10.556691692820541"><ele>66.0</ele><time>2026-04-28T10:21:51Z</time></trkpt><trkpt lat="28.96045862443666" lon="-10.55697531396866"><ele>66.0</ele><time>2026-04-28T10:21:52Z</time></trkpt><trkpt lat="28.96039227959207" lon="-10.557257397081244"><ele>65.0</ele><time>2026-04-28T10:21:53Z</time></trkpt><trkpt lat="28.96032672861655" lon="-10.557541886540147"><ele>64.0</ele><time>2026-04-28T10:21:54Z</time></trkpt><trkpt lat="28.960266173277333" lon="-10.557827992257517"><ele>62.5</ele><time>2026-04-28T10:21:55Z</time></trkpt><trkpt lat="28.960206677276258" lon="-10.55810820633881"><ele>61.0</ele><time>2026-04-28T10:21:56Z</time></trkpt><trkpt lat="28.960149625472816" lon="-10.55838820908195"><ele>61.0</ele><time>2026-04-28T10:21:57Z</time></trkpt><trkpt lat="28.96010046164201" lon="-10.55866614604143"><ele>61.0</ele><time>2026-04-28T10:21:58Z</time></trkpt><trkpt lat="28.960066041047238" lon="-10.5589363475393"><ele>62.0</ele><time>2026-04-28T10:21:59Z</time></trkpt><trkpt lat="28.960048957007256" lon="-10.559196826253856"><ele>63.0</ele><time>2026-04-28T10:22:00Z</time></trkpt><trkpt lat="28.96004390909711" lon="-10.559461558242932"><ele>61.5</ele><time>2026-04-28T10:22:01Z</time></trkpt><trkpt lat="28.960048650814205" lon="-10.559727139823028"><ele>60.0</ele><time>2026-04-28T10:22:02Z</time></trkpt><trkpt lat="28.960066477558854" lon="-10.559986882385179"><ele>60.0</ele><time>2026-04-28T10:22:03Z</time></trkpt><trkpt lat="28.96009226232754" lon="-10.560252528984238"><ele>60.0</ele><time>2026-04-28T10:22:04Z</time></trkpt><trkpt lat="28.960125401140363" lon="-10.560513053272228"><ele>59.0</ele><time>2026-04-28T10:22:05Z</time></trkpt><trkpt lat="28.960157883293707" lon="-10.560773875908188"><ele>58.0</ele><time>2026-04-28T10:22:06Z</time></trkpt><trkpt lat="28.960190878605655" lon="-10.561046877221603"><ele>57.0</ele><time>2026-04-28T10:22:07Z</time></trkpt><trkpt lat="28.960218397826715" lon="-10.561317654721192"><ele>56.0</ele><time>2026-04-28T10:22:08Z</time></trkpt><trkpt lat="28.96024576364254" lon="-10.561573016004544"><ele>56.0</ele><time>2026-04-28T10:22:09Z</time></trkpt><trkpt lat="28.960271871601343" lon="-10.561810427576084"><ele>56.0</ele><time>2026-04-28T10:22:10Z</time></trkpt><trkpt lat="28.96029654207975" lon="-10.56203713321039"><ele>56.0</ele><time>2026-04-28T10:22:11Z</time></trkpt><trkpt lat="28.960319548262234" lon="-10.562254037902283"><ele>55.333333333333336</ele><time>2026-04-28T10:22:12Z</time></trkpt><trkpt lat="28.960341584533833" lon="-10.56246114345754"><ele>54.66666666666667</ele><time>2026-04-28T10:22:13Z</time></trkpt><trkpt lat="28.960366411262676" lon="-10.562678290071181"><ele>54.0</ele><time>2026-04-28T10:22:14Z</time></trkpt><trkpt lat="28.96039115254762" lon="-10.562914066781136"><ele>52.5</ele><time>2026-04-28T10:22:15Z</time></trkpt><trkpt lat="28.96042008753964" lon="-10.563166994031489"><ele>51.0</ele><time>2026-04-28T10:22:16Z</time></trkpt><trkpt lat="28.960447360618865" lon="-10.563429802653259"><ele>50.0</ele><time>2026-04-28T10:22:17Z</time></trkpt><trkpt lat="28.960475134541706" lon="-10.563700431897388"><ele>49.0</ele><time>2026-04-28T10:22:18Z</time></trkpt><trkpt lat="28.960503853148396" lon="-10.563972725988194"><ele>49.0</ele><time>2026-04-28T10:22:19Z</time></trkpt><trkpt lat="28.96053617541937" lon="-10.564252834963924"><ele>49.0</ele><time>2026-04-28T10:22:20Z</time></trkpt><trkpt lat="28.960566676471586" lon="-10.564528944440696"><ele>47.5</ele><time>2026-04-28T10:22:21Z</time></trkpt><trkpt lat="28.96059712906732" lon="-10.564811990480424"><ele>46.0</ele><time>2026-04-28T10:22:22Z</time></trkpt><trkpt lat="28.960627563691695" lon="-10.565094430532024"><ele>47.5</ele><time>2026-04-28T10:22:23Z</time></trkpt><trkpt lat="28.96065786868506" lon="-10.565377519780096"><ele>49.0</ele><time>2026-04-28T10:22:24Z</time></trkpt><trkpt lat="28.960686788578563" lon="-10.56566265608713"><ele>49.0</ele><time>2026-04-28T10:22:25Z</time></trkpt><trkpt lat="28.960717646435143" lon="-10.565940036193066"><ele>49.0</ele><time>2026-04-28T10:22:26Z</time></trkpt><trkpt lat="28.96074909400784" lon="-10.566213987583748"><ele>46.5</ele><time>2026-04-28T10:22:27Z</time></trkpt><trkpt lat="28.960780694631772" lon="-10.566475108243788"><ele>44.0</ele><time>2026-04-28T10:22:28Z</time></trkpt><trkpt lat="28.96080633868449" lon="-10.566726434516463"><ele>44.0</ele><time>2026-04-28T10:22:29Z</time></trkpt><trkpt lat="28.96083255179416" lon="-10.566993713451593"><ele>44.0</ele><time>2026-04-28T10:22:30Z</time></trkpt><trkpt lat="28.96085179120132" lon="-10.567272065112011"><ele>44.0</ele><time>2026-04-28T10:22:31Z</time></trkpt><trkpt lat="28.960866362005124" lon="-10.567548757615429"><ele>44.0</ele><time>2026-04-28T10:22:32Z</time></trkpt><trkpt lat="28.96087020441536" lon="-10.567837481212122"><ele>44.0</ele><time>2026-04-28T10:22:33Z</time></trkpt><trkpt lat="28.960865996763264" lon="-10.568133964222232"><ele>44.0</ele><time>2026-04-28T10:22:34Z</time></trkpt><trkpt lat="28.96085636664254" lon="-10.568427325246965"><ele>44.0</ele><time>2026-04-28T10:22:35Z</time></trkpt><trkpt lat="28.96084574229169" lon="-10.568724174035147"><ele>44.0</ele><time>2026-04-28T10:22:36Z</time></trkpt><trkpt lat="28.960834800668156" lon="-10.56902215293169"><ele>44.0</ele><time>2026-04-28T10:22:37Z</time></trkpt><trkpt lat="28.960824848375857" lon="-10.569320397393877"><ele>44.0</ele><time>2026-04-28T10:22:38Z</time></trkpt><trkpt lat="28.960817517395686" lon="-10.56960775189302"><ele>44.5</ele><time>2026-04-28T10:22:39Z</time></trkpt><trkpt lat="28.96080972983449" lon="-10.569893404157918"><ele>45.0</ele><time>2026-04-28T10:22:40Z</time></trkpt><trkpt lat="28.960802643018695" lon="-10.570179817052098"><ele>44.5</ele><time>2026-04-28T10:22:41Z</time></trkpt><trkpt lat="28.96079170753815" lon="-10.57046453427499"><ele>44.0</ele><time>2026-04-28T10:22:42Z</time></trkpt><trkpt lat="28.960781038090186" lon="-10.570745496539944"><ele>44.0</ele><time>2026-04-28T10:22:43Z</time></trkpt><trkpt lat="28.960769729355945" lon="-10.571022142453849"><ele>44.0</ele><time>2026-04-28T10:22:44Z</time></trkpt><trkpt lat="28.9607630135314" lon="-10.571295540342213"><ele>44.5</ele><time>2026-04-28T10:22:45Z</time></trkpt><trkpt lat="28.96075404059775" lon="-10.571566783276307"><ele>45.0</ele><time>2026-04-28T10:22:46Z</time></trkpt><trkpt lat="28.96074581486354" lon="-10.571837881004408"><ele>44.5</ele><time>2026-04-28T10:22:47Z</time></trkpt><trkpt lat="28.9607397267945" lon="-10.57210715887503"><ele>44.0</ele><time>2026-04-28T10:22:48Z</time></trkpt><trkpt lat="28.9607344312183" lon="-10.572362855854093"><ele>44.0</ele><time>2026-04-28T10:22:49Z</time></trkpt><trkpt lat="28.960728448773157" lon="-10.572613579975739"><ele>44.0</ele><time>2026-04-28T10:22:50Z</time></trkpt><trkpt lat="28.96071962766469" lon="-10.572860059612152"><ele>44.0</ele><time>2026-04-28T10:22:51Z</time></trkpt><trkpt lat="28.960705447939684" lon="-10.573105784423031"><ele>44.0</ele><time>2026-04-28T10:22:52Z</time></trkpt><trkpt lat="28.960692743812935" lon="-10.5733500593728"><ele>44.0</ele><time>2026-04-28T10:22:53Z</time></trkpt><trkpt lat="28.96068532993836" lon="-10.573589084303991"><ele>44.0</ele><time>2026-04-28T10:22:54Z</time></trkpt><trkpt lat="28.96068099903893" lon="-10.57382497546177"><ele>43.666666666666664</ele><time>2026-04-28T10:22:55Z</time></trkpt><trkpt lat="28.96067496526353" lon="-10.574071555638854"><ele>43.333333333333336</ele><time>2026-04-28T10:22:56Z</time></trkpt><trkpt lat="28.960668248753535" lon="-10.57433272562872"><ele>43.0</ele><time>2026-04-28T10:22:57Z</time></trkpt><trkpt lat="28.960664578081712" lon="-10.574593688718156"><ele>43.66666666666667</ele><time>2026-04-28T10:22:58Z</time></trkpt><trkpt lat="28.960667460588322" lon="-10.57484975353006"><ele>44.333333333333336</ele><time>2026-04-28T10:22:59Z</time></trkpt><trkpt lat="28.96067687747605" lon="-10.575106999426248"><ele>45.0</ele><time>2026-04-28T10:23:00Z</time></trkpt><trkpt lat="28.960690117195774" lon="-10.57536549558032"><ele>45.5</ele><time>2026-04-28T10:23:01Z</time></trkpt><trkpt lat="28.960707067559873" lon="-10.575637301488063"><ele>46.0</ele><time>2026-04-28T10:23:02Z</time></trkpt><trkpt lat="28.960730436246937" lon="-10.575899442220994"><ele>46.0</ele><time>2026-04-28T10:23:03Z</time></trkpt><trkpt lat="28.96075945444621" lon="-10.576156259978385"><ele>46.0</ele><time>2026-04-28T10:23:04Z</time></trkpt><trkpt lat="28.960792419364132" lon="-10.57641372464124"><ele>46.0</ele><time>2026-04-28T10:23:05Z</time></trkpt><trkpt lat="28.96083427968513" lon="-10.576670855858069"><ele>46.0</ele><time>2026-04-28T10:23:06Z</time></trkpt><trkpt lat="28.960880380702584" lon="-10.576924601127658"><ele>46.5</ele><time>2026-04-28T10:23:07Z</time></trkpt><trkpt lat="28.960925088475964" lon="-10.577185953897919"><ele>47.0</ele><time>2026-04-28T10:23:08Z</time></trkpt><trkpt lat="28.960965999263422" lon="-10.57744421997484"><ele>47.0</ele><time>2026-04-28T10:23:09Z</time></trkpt><trkpt lat="28.96100557916328" lon="-10.577703608787624"><ele>47.0</ele><time>2026-04-28T10:23:10Z</time></trkpt><trkpt lat="28.961046741775192" lon="-10.577964074796373"><ele>47.0</ele><time>2026-04-28T10:23:11Z</time></trkpt><trkpt lat="28.961086276936157" lon="-10.57822183948904"><ele>47.0</ele><time>2026-04-28T10:23:12Z</time></trkpt><trkpt lat="28.961124988222952" lon="-10.578484146398042"><ele>47.0</ele><time>2026-04-28T10:23:13Z</time></trkpt><trkpt lat="28.96116446559734" lon="-10.578739719961293"><ele>47.0</ele><time>2026-04-28T10:23:14Z</time></trkpt><trkpt lat="28.9612036182692" lon="-10.57899772323082"><ele>47.0</ele><time>2026-04-28T10:23:15Z</time></trkpt><trkpt lat="28.96124112137732" lon="-10.57925501967988"><ele>47.0</ele><time>2026-04-28T10:23:16Z</time></trkpt><trkpt lat="28.96127828149229" lon="-10.579513933770617"><ele>46.5</ele><time>2026-04-28T10:23:17Z</time></trkpt><trkpt lat="28.961314373920796" lon="-10.5797737256181"><ele>46.0</ele><time>2026-04-28T10:23:18Z</time></trkpt><trkpt lat="28.96135356685012" lon="-10.580031333795123"><ele>46.0</ele><time>2026-04-28T10:23:19Z</time></trkpt><trkpt lat="28.96139493380211" lon="-10.580296243380669"><ele>46.0</ele><time>2026-04-28T10:23:20Z</time></trkpt><trkpt lat="28.96143656562584" lon="-10.580573690621993"><ele>45.0</ele><time>2026-04-28T10:23:21Z</time></trkpt><trkpt lat="28.961482258993502" lon="-10.580873015438383"><ele>44.0</ele><time>2026-04-28T10:23:22Z</time></trkpt><trkpt lat="28.96152945837927" lon="-10.581183185012579"><ele>44.0</ele><time>2026-04-28T10:23:23Z</time></trkpt><trkpt lat="28.96157495467846" lon="-10.58148305071761"><ele>44.0</ele><time>2026-04-28T10:23:24Z</time></trkpt><trkpt lat="28.961616820428432" lon="-10.581771049616652"><ele>44.0</ele><time>2026-04-28T10:23:25Z</time></trkpt><trkpt lat="28.961660648613854" lon="-10.582054137351626"><ele>44.0</ele><time>2026-04-28T10:23:26Z</time></trkpt><trkpt lat="28.96170494023542" lon="-10.582336066059392"><ele>43.5</ele><time>2026-04-28T10:23:27Z</time></trkpt><trkpt lat="28.961750989853154" lon="-10.582615594147374"><ele>43.0</ele><time>2026-04-28T10:23:28Z</time></trkpt><trkpt lat="28.961798330436128" lon="-10.582890161491818"><ele>42.5</ele><time>2026-04-28T10:23:29Z</time></trkpt><trkpt lat="28.961851581623357" lon="-10.583155963433354"><ele>42.0</ele><time>2026-04-28T10:23:30Z</time></trkpt><trkpt lat="28.961915592178272" lon="-10.583411439047001"><ele>42.0</ele><time>2026-04-28T10:23:31Z</time></trkpt><trkpt lat="28.96199011296063" lon="-10.583661496172361"><ele>42.0</ele><time>2026-04-28T10:23:32Z</time></trkpt><trkpt lat="28.96207886989896" lon="-10.583909960138042"><ele>41.0</ele><time>2026-04-28T10:23:33Z</time></trkpt><trkpt lat="28.9621816363178" lon="-10.584154335191325"><ele>40.0</ele><time>2026-04-28T10:23:34Z</time></trkpt><trkpt lat="28.962300711948085" lon="-10.584401846181217"><ele>40.0</ele><time>2026-04-28T10:23:35Z</time></trkpt><trkpt lat="28.96244089778876" lon="-10.584657284793343"><ele>40.0</ele><time>2026-04-28T10:23:36Z</time></trkpt><trkpt lat="28.962585436102636" lon="-10.584914085878546"><ele>40.0</ele><time>2026-04-28T10:23:37Z</time></trkpt><trkpt lat="28.962720742990026" lon="-10.585157264751166"><ele>40.0</ele><time>2026-04-28T10:23:38Z</time></trkpt><trkpt lat="28.962850278746977" lon="-10.585404625439816"><ele>39.5</ele><time>2026-04-28T10:23:39Z</time></trkpt><trkpt lat="28.9629796890005" lon="-10.585651156244625"><ele>39.0</ele><time>2026-04-28T10:23:40Z</time></trkpt><trkpt lat="28.963114771638097" lon="-10.585900540779782"><ele>39.0</ele><time>2026-04-28T10:23:41Z</time></trkpt><trkpt lat="28.963254652396824" lon="-10.586151930794541"><ele>39.0</ele><time>2026-04-28T10:23:42Z</time></trkpt><trkpt lat="28.963399307159428" lon="-10.586410755584179"><ele>38.5</ele><time>2026-04-28T10:23:43Z</time></trkpt><trkpt lat="28.963540979671286" lon="-10.586664608047089"><ele>38.0</ele><time>2026-04-28T10:23:44Z</time></trkpt><trkpt lat="28.9636749383708" lon="-10.586910596750943"><ele>38.5</ele><time>2026-04-28T10:23:45Z</time></trkpt><trkpt lat="28.96380620277002" lon="-10.58715042735384"><ele>39.0</ele><time>2026-04-28T10:23:46Z</time></trkpt><trkpt lat="28.963937509817548" lon="-10.587386389189184"><ele>39.0</ele><time>2026-04-28T10:23:47Z</time></trkpt><trkpt lat="28.96406588951044" lon="-10.587617891354228"><ele>39.0</ele><time>2026-04-28T10:23:48Z</time></trkpt><trkpt lat="28.96418764286211" lon="-10.587849502712492"><ele>39.0</ele><time>2026-04-28T10:23:49Z</time></trkpt><trkpt lat="28.964308135546943" lon="-10.588085547603825"><ele>39.0</ele><time>2026-04-28T10:23:50Z</time></trkpt><trkpt lat="28.964420637099646" lon="-10.588316853686564"><ele>39.0</ele><time>2026-04-28T10:23:51Z</time></trkpt><trkpt lat="28.964521067241733" lon="-10.588555091642451"><ele>39.0</ele><time>2026-04-28T10:23:52Z</time></trkpt><trkpt lat="28.964578093668756" lon="-10.588818769159927"><ele>38.0</ele><time>2026-04-28T10:23:53Z</time></trkpt><trkpt lat="28.964669121678806" lon="-10.589072867782976"><ele>37.0</ele><time>2026-04-28T10:23:54Z</time></trkpt><trkpt lat="28.96472082358161" lon="-10.589360001691139"><ele>37.0</ele><time>2026-04-28T10:23:55Z</time></trkpt><trkpt lat="28.964761057517908" lon="-10.589662804685968"><ele>37.0</ele><time>2026-04-28T10:23:56Z</time></trkpt><trkpt lat="28.96479832587277" lon="-10.589971230105204"><ele>37.0</ele><time>2026-04-28T10:23:57Z</time></trkpt><trkpt lat="28.964833920373895" lon="-10.590273439900294"><ele>37.0</ele><time>2026-04-28T10:23:58Z</time></trkpt><trkpt lat="28.964872519496588" lon="-10.590581027913961"><ele>37.0</ele><time>2026-04-28T10:23:59Z</time></trkpt><trkpt lat="28.964912520790804" lon="-10.59088410094147"><ele>37.0</ele><time>2026-04-28T10:24:00Z</time></trkpt><trkpt lat="28.96494828632453" lon="-10.591184914834074"><ele>36.5</ele><time>2026-04-28T10:24:01Z</time></trkpt><trkpt lat="28.964985010316227" lon="-10.591490322679816"><ele>36.0</ele><time>2026-04-28T10:24:02Z</time></trkpt><trkpt lat="28.96502184171764" lon="-10.591796060188726"><ele>36.0</ele><time>2026-04-28T10:24:03Z</time></trkpt><trkpt lat="28.965056937618414" lon="-10.59209486997367"><ele>36.0</ele><time>2026-04-28T10:24:04Z</time></trkpt><trkpt lat="28.965090419923087" lon="-10.592377689783058"><ele>36.0</ele><time>2026-04-28T10:24:05Z</time></trkpt><trkpt lat="28.96512419349029" lon="-10.59265911726835"><ele>36.0</ele><time>2026-04-28T10:24:06Z</time></trkpt><trkpt lat="28.965160290834305" lon="-10.592938752163858"><ele>36.0</ele><time>2026-04-28T10:24:07Z</time></trkpt><trkpt lat="28.965198211021953" lon="-10.593217370122385"><ele>36.0</ele><time>2026-04-28T10:24:08Z</time></trkpt><trkpt lat="28.96523261411798" lon="-10.59349380852385"><ele>35.5</ele><time>2026-04-28T10:24:09Z</time></trkpt><trkpt lat="28.96526446931715" lon="-10.59377077901131"><ele>35.0</ele><time>2026-04-28T10:24:10Z</time></trkpt><trkpt lat="28.96529589216475" lon="-10.59405421767292"><ele>35.0</ele><time>2026-04-28T10:24:11Z</time></trkpt><trkpt lat="28.965328284150303" lon="-10.59434772664316"><ele>35.0</ele><time>2026-04-28T10:24:12Z</time></trkpt><trkpt lat="28.96536302388936" lon="-10.594635592016138"><ele>34.5</ele><time>2026-04-28T10:24:13Z</time></trkpt><trkpt lat="28.965397241185872" lon="-10.594915025005355"><ele>34.0</ele><time>2026-04-28T10:24:14Z</time></trkpt><trkpt lat="28.965432155623702" lon="-10.595201623953217"><ele>35.0</ele><time>2026-04-28T10:24:15Z</time></trkpt><trkpt lat="28.96546478481155" lon="-10.595489404718428"><ele>36.0</ele><time>2026-04-28T10:24:16Z</time></trkpt><trkpt lat="28.965495835123736" lon="-10.595769024577546"><ele>36.0</ele><time>2026-04-28T10:24:17Z</time></trkpt><trkpt lat="28.96552971165512" lon="-10.596050559364471"><ele>36.0</ele><time>2026-04-28T10:24:18Z</time></trkpt><trkpt lat="28.96556744694116" lon="-10.596334864022516"><ele>36.0</ele><time>2026-04-28T10:24:19Z</time></trkpt><trkpt lat="28.965601616604296" lon="-10.596613345660982"><ele>36.0</ele><time>2026-04-28T10:24:20Z</time></trkpt><trkpt lat="28.96563443741074" lon="-10.59688726221584"><ele>36.333333333333336</ele><time>2026-04-28T10:24:21Z</time></trkpt><trkpt lat="28.96566535603249" lon="-10.597148517974999"><ele>36.66666666666667</ele><time>2026-04-28T10:24:22Z</time></trkpt><trkpt lat="28.965693336016102" lon="-10.597390587072065"><ele>37.0</ele><time>2026-04-28T10:24:23Z</time></trkpt><trkpt lat="28.96571997718047" lon="-10.597615748889933"><ele>37.0</ele><time>2026-04-28T10:24:24Z</time></trkpt><trkpt lat="28.9657471423535" lon="-10.597826609540775"><ele>37.0</ele><time>2026-04-28T10:24:25Z</time></trkpt><trkpt lat="28.96577222175612" lon="-10.598013933838526"><ele>37.0</ele><time>2026-04-28T10:24:26Z</time></trkpt><trkpt lat="28.96579625795938" lon="-10.598190356400886"><ele>37.0</ele><time>2026-04-28T10:24:27Z</time></trkpt><trkpt lat="28.96582012665446" lon="-10.598365941768083"><ele>37.0</ele><time>2026-04-28T10:24:28Z</time></trkpt><trkpt lat="28.965842674757074" lon="-10.598543060935762"><ele>37.0</ele><time>2026-04-28T10:24:29Z</time></trkpt><trkpt lat="28.96586465083609" lon="-10.598721244347438"><ele>36.5</ele><time>2026-04-28T10:24:30Z</time></trkpt><trkpt lat="28.96588359735246" lon="-10.598885749276864"><ele>36.0</ele><time>2026-04-28T10:24:31Z</time></trkpt><trkpt lat="28.96588947478765" lon="-10.59902373128839"><ele>35.5</ele><time>2026-04-28T10:24:32Z</time></trkpt><trkpt lat="28.965869297995322" lon="-10.599150230794285"><ele>35.0</ele><time>2026-04-28T10:24:33Z</time></trkpt><trkpt lat="28.96582330355312" lon="-10.599270809566592"><ele>35.0</ele><time>2026-04-28T10:24:34Z</time></trkpt><trkpt lat="28.965746930303627" lon="-10.59938959824376"><ele>35.0</ele><time>2026-04-28T10:24:35Z</time></trkpt><trkpt lat="28.96564980149185" lon="-10.59951437711045"><ele>35.0</ele><time>2026-04-28T10:24:36Z</time></trkpt><trkpt lat="28.965543567112196" lon="-10.599654708205383"><ele>35.0</ele><time>2026-04-28T10:24:37Z</time></trkpt><trkpt lat="28.965432439076455" lon="-10.59980735738083"><ele>35.0</ele><time>2026-04-28T10:24:38Z</time></trkpt><trkpt lat="28.965321707700518" lon="-10.599966843114913"><ele>35.0</ele><time>2026-04-28T10:24:39Z</time></trkpt><trkpt lat="28.965212260306014" lon="-10.60012853241648"><ele>35.0</ele><time>2026-04-28T10:24:40Z</time></trkpt><trkpt lat="28.965100970703915" lon="-10.600297304183213"><ele>35.0</ele><time>2026-04-28T10:24:41Z</time></trkpt><trkpt lat="28.964982357534385" lon="-10.600474973530476"><ele>35.0</ele><time>2026-04-28T10:24:42Z</time></trkpt><trkpt lat="28.96486166240372" lon="-10.600650495831825"><ele>35.0</ele><time>2026-04-28T10:24:43Z</time></trkpt><trkpt lat="28.964739535523428" lon="-10.600831914091751"><ele>35.0</ele><time>2026-04-28T10:24:44Z</time></trkpt><trkpt lat="28.964618946579876" lon="-10.601016188953794"><ele>35.0</ele><time>2026-04-28T10:24:45Z</time></trkpt><trkpt lat="28.96450208785276" lon="-10.601196059204668"><ele>35.0</ele><time>2026-04-28T10:24:46Z</time></trkpt><trkpt lat="28.964392319316378" lon="-10.601373188740226"><ele>34.666666666666664</ele><time>2026-04-28T10:24:47Z</time></trkpt><trkpt lat="28.964284778316166" lon="-10.601548796944028"><ele>34.333333333333336</ele><time>2026-04-28T10:24:48Z</time></trkpt><trkpt lat="28.964180477458623" lon="-10.60172711981485"><ele>34.0</ele><time>2026-04-28T10:24:49Z</time></trkpt><trkpt lat="28.964081079820527" lon="-10.60190571471715"><ele>34.0</ele><time>2026-04-28T10:24:50Z</time></trkpt><trkpt lat="28.96399926030025" lon="-10.60206141887824"><ele>34.0</ele><time>2026-04-28T10:24:51Z</time></trkpt><trkpt lat="28.96393147999356" lon="-10.602188280494703"><ele>34.0</ele><time>2026-04-28T10:24:52Z</time></trkpt><trkpt lat="28.96387930704365" lon="-10.602286027884183"><ele>34.0</ele><time>2026-04-28T10:24:53Z</time></trkpt><trkpt lat="28.9638375152139" lon="-10.60236505102736"><ele>34.0</ele><time>2026-04-28T10:24:54Z</time></trkpt><trkpt lat="28.96380272839783" lon="-10.602432605064912"><ele>34.0</ele><time>2026-04-28T10:24:55Z</time></trkpt><trkpt lat="28.963747314666282" lon="-10.602551543007126"><ele>34.0</ele><time>2026-04-28T10:24:57Z</time></trkpt><trkpt lat="28.963691838726646" lon="-10.602652367698214"><ele>34.0</ele><time>2026-04-28T10:24:59Z</time></trkpt><trkpt lat="28.963635776153605" lon="-10.60275320951699"><ele>34.0</ele><time>2026-04-28T10:25:01Z</time></trkpt><trkpt lat="28.96358676441579" lon="-10.602847360489507"><ele>33.5</ele><time>2026-04-28T10:25:03Z</time></trkpt><trkpt lat="28.963535975215443" lon="-10.602945987934543"><ele>33.0</ele><time>2026-04-28T10:25:05Z</time></trkpt><trkpt lat="28.963491911755348" lon="-10.603030647619269"><ele>32.5</ele><time>2026-04-28T10:25:07Z</time></trkpt><trkpt lat="28.963449622020015" lon="-10.603108440415701"><ele>32.0</ele><time>2026-04-28T10:25:09Z</time></trkpt><trkpt lat="28.96340427592831" lon="-10.60318650428802"><ele>31.500000000000004</ele><time>2026-04-28T10:25:11Z</time></trkpt><trkpt lat="28.963357182286472" lon="-10.603254812230357"><ele>31.0</ele><time>2026-04-28T10:25:13Z</time></trkpt><trkpt lat="28.963304180480687" lon="-10.603339200029616"><ele>31.0</ele><time>2026-04-28T10:25:15Z</time></trkpt><trkpt lat="28.96325144827095" lon="-10.603416082556617"><ele>31.0</ele><time>2026-04-28T10:25:17Z</time></trkpt><trkpt lat="28.963199904005414" lon="-10.603495652298264"><ele>31.0</ele><time>2026-04-28T10:25:19Z</time></trkpt><trkpt lat="28.96314155481533" lon="-10.603585138421256"><ele>31.0</ele><time>2026-04-28T10:25:21Z</time></trkpt><trkpt lat="28.963080070046853" lon="-10.603668656896359"><ele>31.0</ele><time>2026-04-28T10:25:23Z</time></trkpt><trkpt lat="28.96302167487568" lon="-10.603761050006398"><ele>29.200000000000003</ele><time>2026-04-28T10:25:25Z</time></trkpt><trkpt lat="28.96296398089456" lon="-10.60385910525162"><ele>27.400000000000002</ele><time>2026-04-28T10:25:27Z</time></trkpt><trkpt lat="28.96290392442667" lon="-10.60396316940554"><ele>25.6</ele><time>2026-04-28T10:25:29Z</time></trkpt><trkpt lat="28.962853920044036" lon="-10.604022860995919"><ele>23.8</ele><time>2026-04-28T10:25:31Z</time></trkpt><trkpt lat="28.962778391868444" lon="-10.604103657707796"><ele>22.0</ele><time>2026-04-28T10:25:41Z</time></trkpt><trkpt lat="28.962691346897962" lon="-10.604166548841683"><ele>22.0</ele><time>2026-04-28T10:25:48.999Z</time></trkpt><trkpt lat="28.962630470335004" lon="-10.604240570790056"><ele>22.0</ele><time>2026-04-28T10:25:50.999Z</time></trkpt><trkpt lat="28.962583071337445" lon="-10.604319576806253"><ele>22.0</ele><time>2026-04-28T10:25:52.999Z</time></trkpt><trkpt lat="28.962494662869712" lon="-10.604386328573653"><ele>22.0</ele><time>2026-04-28T10:25:54.999Z</time></trkpt><trkpt lat="28.96239265359783" lon="-10.604463349641692"><ele>22.0</ele><time>2026-04-28T10:25:56.999Z</time></trkpt><trkpt lat="28.962331273385534" lon="-10.604509694177443"><ele>20.666666666666664</ele><time>2026-04-28T10:25:57.999Z</time></trkpt><trkpt lat="28.96226865463714" lon="-10.604556881448"><ele>19.333333333333332</ele><time>2026-04-28T10:25:58.999Z</time></trkpt><trkpt lat="28.96216634502336" lon="-10.604633521553078"><ele>18.0</ele><time>2026-04-28T10:26:00.999Z</time></trkpt><trkpt lat="28.962095689413104" lon="-10.604686404846753"><ele>16.666666666666668</ele><time>2026-04-28T10:26:01.999Z</time></trkpt><trkpt lat="28.962023886105822" lon="-10.604740045680712"><ele>15.333333333333334</ele><time>2026-04-28T10:26:02.999Z</time></trkpt><trkpt lat="28.96196728025632" lon="-10.604782333220802"><ele>14.0</ele><time>2026-04-28T10:26:03.999Z</time></trkpt><trkpt lat="28.96187543200654" lon="-10.604825070747646"><ele>14.0</ele><time>2026-04-28T10:26:05.999Z</time></trkpt><trkpt lat="28.961802009941803" lon="-10.604871362644808"><ele>13.999999999999998</ele><time>2026-04-28T10:26:40.999Z</time></trkpt><trkpt lat="28.96174485425848" lon="-10.604922489983853"><ele>13.999999999999998</ele><time>2026-04-28T10:26:41.999Z</time></trkpt><trkpt lat="28.961664235281685" lon="-10.604957175734812"><ele>14.0</ele><time>2026-04-28T10:26:42.999Z</time></trkpt><trkpt lat="28.96159314985214" lon="-10.605045267635383"><ele>14.0</ele><time>2026-04-28T10:26:43.999Z</time></trkpt><trkpt lat="28.96153270107512" lon="-10.605151375092545"><ele>13.799999999999999</ele><time>2026-04-28T10:26:44.999Z</time></trkpt><trkpt lat="28.961483914044507" lon="-10.605272761472184"><ele>13.599999999999998</ele><time>2026-04-28T10:26:45.999Z</time></trkpt><trkpt lat="28.96145254499342" lon="-10.605391153954079"><ele>13.4</ele><time>2026-04-28T10:26:46.999Z</time></trkpt><trkpt lat="28.961469406679736" lon="-10.605503829939247"><ele>13.2</ele><time>2026-04-28T10:26:47.999Z</time></trkpt><trkpt lat="28.96146333077032" lon="-10.605606130250042"><ele>13.0</ele><time>2026-04-28T10:26:48.999Z</time></trkpt><trkpt lat="28.961458421593875" lon="-10.605688786252028"><ele>12.4</ele><time>2026-04-28T10:26:49.999Z</time></trkpt><trkpt lat="28.96145066254196" lon="-10.605812914258095"><ele>11.8</ele><time>2026-04-28T10:26:51.999Z</time></trkpt><trkpt lat="28.961426466364898" lon="-10.605898162858391"><ele>11.2</ele><time>2026-04-28T10:38:13.001Z</time></trkpt><trkpt lat="28.96147401855234" lon="-10.606006179251617"><ele>10.6</ele><time>2026-04-28T10:38:15.001Z</time></trkpt><trkpt lat="28.96148393122688" lon="-10.60614564905048"><ele>10.0</ele><time>2026-04-28T10:38:17.001Z</time></trkpt><trkpt lat="28.96149303038366" lon="-10.60630801789645"><ele>9.333333333333334</ele><time>2026-04-28T10:38:19.001Z</time></trkpt><trkpt lat="28.961510555342763" lon="-10.60641286823539"><ele>8.666666666666668</ele><time>2026-04-28T10:38:20.001Z</time></trkpt><trkpt lat="28.961531566000573" lon="-10.606488127190284"><ele>8.0</ele><time>2026-04-28T10:38:21.001Z</time></trkpt><trkpt lat="28.961545717970424" lon="-10.606577997562493"><ele>7.333333333333334</ele><time>2026-04-28T10:38:23.001Z</time></trkpt><trkpt lat="28.96153293687003" lon="-10.606696784426525"><ele>6.666666666666667</ele><time>2026-04-28T10:38:25.001Z</time></trkpt><trkpt lat="28.961512896333353" lon="-10.60679182204123"><ele>6.0</ele><time>2026-04-28T10:38:26.001Z</time></trkpt><trkpt lat="28.961497860949642" lon="-10.60688828884805"><ele>6.0</ele><time>2026-04-28T10:38:27.001Z</time></trkpt><trkpt lat="28.96148294297617" lon="-10.606963410223841"><ele>6.0</ele><time>2026-04-28T10:38:28.001Z</time></trkpt><trkpt lat="28.961465139675934" lon="-10.607082230796982"><ele>6.0</ele><time>2026-04-28T10:38:30.001Z</time></trkpt><trkpt lat="28.961450685352837" lon="-10.60718061835885"><ele>6.0</ele><time>2026-04-28T10:38:32.001Z</time></trkpt><trkpt lat="28.961430136725358" lon="-10.607281620878975"><ele>6.0</ele><time>2026-04-28T10:38:35.001Z</time></trkpt><trkpt lat="28.96143105681984" lon="-10.60738651424155"><ele>6.0</ele><time>2026-04-28T10:38:37.001Z</time></trkpt><trkpt lat="28.96145612118628" lon="-10.607472176200464"><ele>5.333333333333333</ele><time>2026-04-28T10:38:38.001Z</time></trkpt><trkpt lat="28.96148852924855" lon="-10.60755498861998"><ele>4.666666666666667</ele><time>2026-04-28T10:38:39.001Z</time></trkpt><trkpt lat="28.9616147878852" lon="-10.607575195290877"><ele>4.0</ele><time>2026-04-28T10:38:40.001Z</time></trkpt><trkpt lat="28.961649367909217" lon="-10.607641804602729"><ele>3.333333333333333</ele><time>2026-04-28T10:38:42Z</time></trkpt><trkpt lat="28.96169187289596" lon="-10.607716961119213"><ele>2.6666666666666665</ele><time>2026-04-28T10:38:44Z</time></trkpt><trkpt lat="28.961725939708195" lon="-10.60777816321248"><ele>2.0</ele><time>2026-04-28T10:38:46Z</time></trkpt><trkpt lat="28.961766213342198" lon="-10.607845434192033"><ele>1.8</ele><time>2026-04-28T10:38:49Z</time></trkpt><trkpt lat="28.961896360950732" lon="-10.607760054253015"><ele>1.6</ele><time>2026-04-28T10:38:53Z</time></trkpt><trkpt lat="28.961959538331172" lon="-10.607723267113979"><ele>1.4000000000000001</ele><time>2026-04-28T10:38:54Z</time></trkpt><trkpt lat="28.962023642860164" lon="-10.607688322891562"><ele>1.2000000000000002</ele><time>2026-04-28T10:38:55Z</time></trkpt><trkpt lat="28.962131973630306" lon="-10.607633569068783"><ele>1.0</ele><time>2026-04-28T10:38:57Z</time></trkpt><trkpt lat="28.96222987574757" lon="-10.607581648668262"><ele>0.9999999999999999</ele><time>2026-04-28T10:38:59Z</time></trkpt><trkpt lat="28.962321663539146" lon="-10.607535884844088"><ele>1.0</ele><time>2026-04-28T10:39:01Z</time></trkpt><trkpt lat="28.96239231130932" lon="-10.60750110751526"><ele>1.0</ele><time>2026-04-28T10:39:03Z</time></trkpt><trkpt lat="28.9624637020354" lon="-10.607472629547676"><ele>1.0</ele><time>2026-04-28T10:39:05Z</time></trkpt><trkpt lat="28.96251514870076" lon="-10.607425414056532"><ele>0.9999999999999999</ele><time>2026-04-28T10:39:07Z</time></trkpt><trkpt lat="28.962571415142683" lon="-10.607359807464777"><ele>1.0</ele><time>2026-04-28T10:39:09Z</time></trkpt><trkpt lat="28.962608814777443" lon="-10.607272570682364"><ele>0.9999999999999999</ele><time>2026-04-28T10:39:11Z</time></trkpt><trkpt lat="28.962628078691523" lon="-10.607187856810715"><ele>1.0</ele><time>2026-04-28T10:39:13Z</time></trkpt><trkpt lat="28.962622564654087" lon="-10.607104007644509"><ele>1.0</ele><time>2026-04-28T10:39:15Z</time></trkpt><trkpt lat="28.962601648905835" lon="-10.607022703021634"><ele>1.0</ele><time>2026-04-28T10:39:17Z</time></trkpt><trkpt lat="28.962568199102908" lon="-10.60694185361581"><ele>0.9999999999999999</ele><time>2026-04-28T10:39:19Z</time></trkpt><trkpt lat="28.962530942418113" lon="-10.606832983030039"><ele>1.0</ele><time>2026-04-28T10:39:21Z</time></trkpt><trkpt lat="28.962499487490042" lon="-10.606705061725899"><ele>1.8</ele><time>2026-04-28T10:39:23Z</time></trkpt><trkpt lat="28.962478678935504" lon="-10.606577786781317"><ele>2.6</ele><time>2026-04-28T10:39:25Z</time></trkpt><trkpt lat="28.96245053327618" lon="-10.606475129528354"><ele>3.4</ele><time>2026-04-28T10:39:27Z</time></trkpt><trkpt lat="28.96240196216896" lon="-10.606396658280305"><ele>4.2</ele><time>2026-04-28T10:39:29Z</time></trkpt><trkpt lat="28.962328100597954" lon="-10.606321940180289"><ele>5.0</ele><time>2026-04-28T10:39:31Z</time></trkpt><trkpt lat="28.962270686725798" lon="-10.606288470401923"><ele>5.0</ele><time>2026-04-28T10:39:33Z</time></trkpt><trkpt lat="28.962186135043275" lon="-10.606226588271365"><ele>5.0</ele><time>2026-04-28T10:39:34Z</time></trkpt><trkpt lat="28.962079315880136" lon="-10.60617437571725"><ele>5.0</ele><time>2026-04-28T10:39:36Z</time></trkpt><trkpt lat="28.962009602033834" lon="-10.606129497328613"><ele>5.0</ele><time>2026-04-28T10:39:37Z</time></trkpt><trkpt lat="28.96192128803229" lon="-10.606094392770677"><ele>5.0</ele><time>2026-04-28T10:39:39Z</time></trkpt><trkpt lat="28.961791991170703" lon="-10.606071755817876"><ele>5.333333333333334</ele><time>2026-04-28T10:39:41Z</time></trkpt><trkpt lat="28.96172141923033" lon="-10.606050985375914"><ele>5.666666666666667</ele><time>2026-04-28T10:39:42Z</time></trkpt><trkpt lat="28.961620365399888" lon="-10.606028771203995"><ele>6.0</ele><time>2026-04-28T10:39:43Z</time></trkpt><trkpt lat="28.961523929621737" lon="-10.605981731898117"><ele>6.333333333333334</ele><time>2026-04-28T10:39:45Z</time></trkpt><trkpt lat="28.96148526504138" lon="-10.60588506177991"><ele>6.666666666666667</ele><time>2026-04-28T10:39:47Z</time></trkpt><trkpt lat="28.961433306450314" lon="-10.605838884681482"><ele>7.0</ele><time>2026-04-28T10:39:52Z</time></trkpt><trkpt lat="28.961422203364364" lon="-10.605751749366643"><ele>7.0</ele><time>2026-04-28T10:39:56Z</time></trkpt><trkpt lat="28.961502368710143" lon="-10.605715604183013"><ele>6.999999999999999</ele><time>2026-04-28T10:40:08Z</time></trkpt><trkpt lat="28.96159598652369" lon="-10.605706117804383"><ele>6.999999999999999</ele><time>2026-04-28T10:40:10Z</time></trkpt><trkpt lat="28.96170142689362" lon="-10.605674011248626"><ele>7.0</ele><time>2026-04-28T10:40:12Z</time></trkpt><trkpt lat="28.96177462572576" lon="-10.605620964687756"><ele>7.0</ele><time>2026-04-28T10:40:14Z</time></trkpt><trkpt lat="28.961800733960704" lon="-10.605535472357273"><ele>7.0</ele><time>2026-04-28T10:40:17Z</time></trkpt><trkpt lat="28.961828274237178" lon="-10.605457801280668"><ele>6.999999999999999</ele><time>2026-04-28T10:40:18Z</time></trkpt><trkpt lat="28.961899343043942" lon="-10.605364927881164"><ele>6.999999999999999</ele><time>2026-04-28T10:40:20Z</time></trkpt><trkpt lat="28.96198382254726" lon="-10.605276674010652"><ele>7.0</ele><time>2026-04-28T10:40:22Z</time></trkpt><trkpt lat="28.962078929419587" lon="-10.605205025252706"><ele>7.0</ele><time>2026-04-28T10:40:24Z</time></trkpt><trkpt lat="28.962184661775495" lon="-10.605130816954695"><ele>8.166666666666668</ele><time>2026-04-28T10:40:26Z</time></trkpt><trkpt lat="28.962240031168605" lon="-10.605092970808162"><ele>9.333333333333334</ele><time>2026-04-28T10:40:27Z</time></trkpt><trkpt lat="28.962295313474467" lon="-10.605042210384015"><ele>10.5</ele><time>2026-04-28T10:40:28Z</time></trkpt><trkpt lat="28.96234967147081" lon="-10.604984467976523"><ele>11.666666666666668</ele><time>2026-04-28T10:40:29Z</time></trkpt><trkpt lat="28.962401692276455" lon="-10.604925646835689"><ele>12.833333333333334</ele><time>2026-04-28T10:40:30Z</time></trkpt><trkpt lat="28.962446422683975" lon="-10.604860930156839"><ele>14.0</ele><time>2026-04-28T10:40:31Z</time></trkpt><trkpt lat="28.962516269693726" lon="-10.604750591696712"><ele>13.6</ele><time>2026-04-28T10:40:33Z</time></trkpt><trkpt lat="28.96255910704705" lon="-10.604627980685297"><ele>13.2</ele><time>2026-04-28T10:40:35Z</time></trkpt><trkpt lat="28.96259001470673" lon="-10.604506266229302"><ele>12.799999999999999</ele><time>2026-04-28T10:40:37Z</time></trkpt><trkpt lat="28.96261027013596" lon="-10.60439008259875"><ele>12.399999999999999</ele><time>2026-04-28T10:40:39Z</time></trkpt><trkpt lat="28.962623672468457" lon="-10.604270837849619"><ele>12.0</ele><time>2026-04-28T10:40:41Z</time></trkpt><trkpt lat="28.96265419727277" lon="-10.60418122887811"><ele>13.666666666666666</ele><time>2026-04-28T10:40:43Z</time></trkpt><trkpt lat="28.962693983942106" lon="-10.604099333180681"><ele>15.333333333333332</ele><time>2026-04-28T10:40:45Z</time></trkpt><trkpt lat="28.96275458364761" lon="-10.604019708528751"><ele>17.0</ele><time>2026-04-28T10:40:47Z</time></trkpt><trkpt lat="28.962830331450206" lon="-10.603919746442383"><ele>18.666666666666664</ele><time>2026-04-28T10:40:49Z</time></trkpt><trkpt lat="28.96286834088425" lon="-10.60385387768745"><ele>20.333333333333332</ele><time>2026-04-28T10:40:50Z</time></trkpt><trkpt lat="28.9629060456441" lon="-10.60379473965364"><ele>22.0</ele><time>2026-04-28T10:40:51Z</time></trkpt><trkpt lat="28.962945822378277" lon="-10.603732785719577"><ele>22.0</ele><time>2026-04-28T10:40:53Z</time></trkpt><trkpt lat="28.963099143496265" lon="-10.603871852550002"><ele>22.0</ele><time>2026-04-28T10:40:58Z</time></trkpt><trkpt lat="28.963058122115036" lon="-10.60395355579396"><ele>22.0</ele><time>2026-04-28T10:41:00Z</time></trkpt><trkpt lat="28.963005104096723" lon="-10.604029779861287"><ele>22.0</ele><time>2026-04-28T10:41:02Z</time></trkpt><trkpt lat="28.962939741673658" lon="-10.604099800220245"><ele>22.0</ele><time>2026-04-28T10:41:04Z</time></trkpt><trkpt lat="28.962880900026327" lon="-10.604181147079775"><ele>22.0</ele><time>2026-04-28T10:41:06Z</time></trkpt><trkpt lat="28.962827429915492" lon="-10.604243791098261"><ele>22.0</ele><time>2026-04-28T10:41:08Z</time></trkpt><trkpt lat="28.962772853946138" lon="-10.604304511567618"><ele>22.0</ele><time>2026-04-28T10:41:10Z</time></trkpt><trkpt lat="28.96276982443001" lon="-10.604397696320197"><ele>22.0</ele><time>2026-04-28T10:41:13Z</time></trkpt><trkpt lat="28.9627535475924" lon="-10.604473006089716"><ele>22.0</ele><time>2026-04-28T10:41:15Z</time></trkpt><trkpt lat="28.962712469666045" lon="-10.604534177216667"><ele>20.666666666666664</ele><time>2026-04-28T10:41:17Z</time></trkpt><trkpt lat="28.962660270749993" lon="-10.604598897711394"><ele>19.333333333333332</ele><time>2026-04-28T10:41:19Z</time></trkpt><trkpt lat="28.962612111452327" lon="-10.60465253669918"><ele>18.0</ele><time>2026-04-28T10:41:21Z</time></trkpt><trkpt lat="28.962546675389007" lon="-10.604728848674657"><ele>16.666666666666668</ele><time>2026-04-28T10:41:24Z</time></trkpt><trkpt lat="28.96249250689737" lon="-10.604790965935555"><ele>15.333333333333334</ele><time>2026-04-28T10:41:26Z</time></trkpt><trkpt lat="28.96242785759436" lon="-10.604839946914439"><ele>14.0</ele><time>2026-04-28T10:41:28Z</time></trkpt><trkpt lat="28.96236155241982" lon="-10.604917726878012"><ele>14.0</ele><time>2026-04-28T10:41:30Z</time></trkpt><trkpt lat="28.96228964173619" lon="-10.60501271053637"><ele>13.999999999999998</ele><time>2026-04-28T10:41:32Z</time></trkpt><trkpt lat="28.962214693741085" lon="-10.60510011385542"><ele>13.999999999999998</ele><time>2026-04-28T10:41:34Z</time></trkpt><trkpt lat="28.96216973003892" lon="-10.605171874112116"><ele>14.0</ele><time>2026-04-28T10:41:36Z</time></trkpt><trkpt lat="28.96213416291827" lon="-10.605258157233443"><ele>14.0</ele><time>2026-04-28T10:41:38Z</time></trkpt><trkpt lat="28.96205940373602" lon="-10.605327734214963"><ele>13.428571428571429</ele><time>2026-04-28T10:41:40Z</time></trkpt><trkpt lat="28.96201767377181" lon="-10.605381740928502"><ele>12.857142857142858</ele><time>2026-04-28T10:41:41Z</time></trkpt><trkpt lat="28.9619672180677" lon="-10.605444589920822"><ele>12.285714285714285</ele><time>2026-04-28T10:41:42Z</time></trkpt><trkpt lat="28.961917653524903" lon="-10.605499901640398"><ele>11.714285714285715</ele><time>2026-04-28T10:41:43Z</time></trkpt><trkpt lat="28.961869652049607" lon="-10.605548759499053"><ele>11.142857142857142</ele><time>2026-04-28T10:41:44Z</time></trkpt><trkpt lat="28.96181486039627" lon="-10.605604291701106"><ele>10.571428571428571</ele><time>2026-04-28T10:41:45Z</time></trkpt><trkpt lat="28.96175281454306" lon="-10.605662062461423"><ele>10.0</ele><time>2026-04-28T10:41:46Z</time></trkpt><trkpt lat="28.961686613350505" lon="-10.605716321282737"><ele>10.0</ele><time>2026-04-28T10:41:47Z</time></trkpt><trkpt lat="28.961626295271696" lon="-10.605761229292762"><ele>10.0</ele><time>2026-04-28T10:41:48Z</time></trkpt><trkpt lat="28.96153811512377" lon="-10.605801835073853"><ele>10.0</ele><time>2026-04-28T10:41:50Z</time></trkpt><trkpt lat="28.96147697291613" lon="-10.605849728058198"><ele>10.0</ele><time>2026-04-28T10:41:53Z</time></trkpt><trkpt lat="28.96140937010646" lon="-10.605829886937151"><ele>10.0</ele><time>2026-04-28T10:42:45Z</time></trkpt><trkpt lat="28.961434672064374" lon="-10.605755153697649"><ele>10.0</ele><time>2026-04-28T10:42:48Z</time></trkpt><trkpt lat="28.961539498761432" lon="-10.605724748280476"><ele>10.0</ele><time>2026-04-28T10:43:24Z</time></trkpt><trkpt lat="28.961663910977535" lon="-10.605699760992337"><ele>10.0</ele><time>2026-04-28T10:43:26Z</time></trkpt><trkpt lat="28.96176406368456" lon="-10.605664393339504"><ele>10.0</ele><time>2026-04-28T10:43:28Z</time></trkpt><trkpt lat="28.961873186685647" lon="-10.605581599801134"><ele>10.0</ele><time>2026-04-28T10:43:30Z</time></trkpt><trkpt lat="28.961926501147147" lon="-10.605532384833287"><ele>10.0</ele><time>2026-04-28T10:43:31Z</time></trkpt><trkpt lat="28.961981565502033" lon="-10.605473941779989"><ele>9.5</ele><time>2026-04-28T10:43:32Z</time></trkpt><trkpt lat="28.962034784555186" lon="-10.605406461384435"><ele>9.0</ele><time>2026-04-28T10:43:33Z</time></trkpt><trkpt lat="28.962086943655102" lon="-10.605339579580022"><ele>8.5</ele><time>2026-04-28T10:43:34Z</time></trkpt><trkpt lat="28.962132600829285" lon="-10.605280662486802"><ele>8.0</ele><time>2026-04-28T10:43:35Z</time></trkpt><trkpt lat="28.962177099915394" lon="-10.605215896272945"><ele>7.500000000000001</ele><time>2026-04-28T10:43:36Z</time></trkpt><trkpt lat="28.96223792564384" lon="-10.605124803471153"><ele>7.0</ele><time>2026-04-28T10:43:37Z</time></trkpt><trkpt lat="28.96229705549055" lon="-10.605046037609283"><ele>7.833333333333334</ele><time>2026-04-28T10:43:38Z</time></trkpt><trkpt lat="28.962346918437536" lon="-10.604980681437572"><ele>8.666666666666668</ele><time>2026-04-28T10:43:39Z</time></trkpt><trkpt lat="28.96240672937851" lon="-10.604910229424377"><ele>9.5</ele><time>2026-04-28T10:43:40Z</time></trkpt><trkpt lat="28.962465910381304" lon="-10.604847273634224"><ele>10.333333333333334</ele><time>2026-04-28T10:43:41Z</time></trkpt><trkpt lat="28.962561995447196" lon="-10.604773248871801"><ele>11.166666666666666</ele><time>2026-04-28T10:43:43Z</time></trkpt><trkpt lat="28.962605595482945" lon="-10.604711184562223"><ele>12.0</ele><time>2026-04-28T10:43:44Z</time></trkpt><trkpt lat="28.962653931399547" lon="-10.604631993197"><ele>12.0</ele><time>2026-04-28T10:43:45Z</time></trkpt><trkpt lat="28.962705958223758" lon="-10.604558106796947"><ele>12.0</ele><time>2026-04-28T10:43:46Z</time></trkpt><trkpt lat="28.962757005074458" lon="-10.604488081822142"><ele>12.0</ele><time>2026-04-28T10:43:47Z</time></trkpt><trkpt lat="28.9628009083999" lon="-10.604415712320675"><ele>12.0</ele><time>2026-04-28T10:43:48Z</time></trkpt><trkpt lat="28.96283358972641" lon="-10.604345333325172"><ele>12.0</ele><time>2026-04-28T10:43:49Z</time></trkpt><trkpt lat="28.96286159951898" lon="-10.60427990173654"><ele>12.0</ele><time>2026-04-28T10:43:50Z</time></trkpt><trkpt lat="28.962733487810976" lon="-10.604047471540804"><ele>14.0</ele><time>2026-04-28T10:43:51Z</time></trkpt><trkpt lat="28.96279189599869" lon="-10.603973777494485"><ele>16.0</ele><time>2026-04-28T10:43:52Z</time></trkpt><trkpt lat="28.962860594976497" lon="-10.603866026749754"><ele>18.0</ele><time>2026-04-28T10:43:53Z</time></trkpt><trkpt lat="28.962903509392007" lon="-10.60379871766078"><ele>20.0</ele><time>2026-04-28T10:43:54Z</time></trkpt><trkpt lat="28.96295589864162" lon="-10.603717123942861"><ele>22.0</ele><time>2026-04-28T10:43:56Z</time></trkpt><trkpt lat="28.96302321976726" lon="-10.603808597830511"><ele>22.0</ele><time>2026-04-28T10:44:02Z</time></trkpt><trkpt lat="28.96298756752291" lon="-10.60388222455943"><ele>22.0</ele><time>2026-04-28T10:44:51Z</time></trkpt><trkpt lat="28.96301336955467" lon="-10.603951531690228"><ele>22.0</ele><time>2026-04-28T10:44:53Z</time></trkpt><trkpt lat="28.96300417694955" lon="-10.604026805836503"><ele>22.0</ele><time>2026-04-28T10:44:55Z</time></trkpt><trkpt lat="28.962852576619746" lon="-10.604050308850809"><ele>22.0</ele><time>2026-04-28T10:44:57Z</time></trkpt><trkpt lat="28.962809315752846" lon="-10.604107365999226"><ele>22.0</ele><time>2026-04-28T10:44:58Z</time></trkpt><trkpt lat="28.96273901414226" lon="-10.604199659698375"><ele>22.0</ele><time>2026-04-28T10:45:00Z</time></trkpt><trkpt lat="28.962686065419234" lon="-10.60426917209039"><ele>22.0</ele><time>2026-04-28T10:45:02Z</time></trkpt><trkpt lat="28.962631535279744" lon="-10.604339452086828"><ele>22.0</ele><time>2026-04-28T10:45:04Z</time></trkpt><trkpt lat="28.962568923465945" lon="-10.604419921089756"><ele>22.0</ele><time>2026-04-28T10:45:06Z</time></trkpt><trkpt lat="28.962509089640793" lon="-10.604455175654428"><ele>22.0</ele><time>2026-04-28T10:45:08Z</time></trkpt><trkpt lat="28.962430656814053" lon="-10.604514395580072"><ele>22.0</ele><time>2026-04-28T10:45:10Z</time></trkpt><trkpt lat="28.962355990280503" lon="-10.604570771816105"><ele>20.666666666666664</ele><time>2026-04-28T10:45:12Z</time></trkpt><trkpt lat="28.962296146990298" lon="-10.60461583541037"><ele>19.333333333333332</ele><time>2026-04-28T10:45:15Z</time></trkpt><trkpt lat="28.96223502326277" lon="-10.604661623203713"><ele>18.0</ele><time>2026-04-28T10:45:16Z</time></trkpt><trkpt lat="28.962168030859925" lon="-10.604724066362733"><ele>16.666666666666668</ele><time>2026-04-28T10:45:17Z</time></trkpt><trkpt lat="28.962079242748146" lon="-10.604778174156502"><ele>15.333333333333334</ele><time>2026-04-28T10:45:19Z</time></trkpt><trkpt lat="28.96199486340095" lon="-10.6048412099949"><ele>14.0</ele><time>2026-04-28T10:45:21Z</time></trkpt><trkpt lat="28.961927837238033" lon="-10.604891281926953"><ele>14.0</ele><time>2026-04-28T10:45:22Z</time></trkpt><trkpt lat="28.961837506915167" lon="-10.60497288381979"><ele>14.0</ele><time>2026-04-28T10:45:26Z</time></trkpt><trkpt lat="28.961607418136005" lon="-10.605179056389924"><ele>14.0</ele><time>2026-04-28T10:45:27Z</time></trkpt><trkpt lat="28.961549309753856" lon="-10.605249576360418"><ele>10.5</ele><time>2026-04-28T10:45:29Z</time></trkpt><trkpt lat="28.96188472411857" lon="-10.605567406915446"><ele>7.0</ele><time>2026-04-28T10:45:30Z</time></trkpt><trkpt lat="28.961789346931837" lon="-10.605649461183143"><ele>7.000000000000001</ele><time>2026-04-28T10:45:32Z</time></trkpt><trkpt lat="28.961728104049378" lon="-10.605707893625802"><ele>7.0</ele><time>2026-04-28T10:45:33Z</time></trkpt><trkpt lat="28.961661805562724" lon="-10.605766233755487"><ele>7.0</ele><time>2026-04-28T10:45:34Z</time></trkpt><trkpt lat="28.96160880582388" lon="-10.605806340183983"><ele>7.0</ele><time>2026-04-28T10:45:35Z</time></trkpt><trkpt lat="28.96153499020166" lon="-10.605852847787572"><ele>7.000000000000001</ele><time>2026-04-28T10:45:37Z</time></trkpt><trkpt lat="28.96146831395748" lon="-10.605868862396882"><ele>7.0</ele><time>2026-04-28T10:45:39Z</time></trkpt><trkpt lat="28.96137406944145" lon="-10.605803210398948"><ele>7.75</ele><time>2026-04-28T10:45:42Z</time></trkpt><trkpt lat="28.961309362761654" lon="-10.605761030746761"><ele>8.5</ele><time>2026-04-28T10:45:43Z</time></trkpt><trkpt lat="28.96118495827238" lon="-10.605643512910897"><ele>9.25</ele><time>2026-04-28T10:45:44Z</time></trkpt><trkpt lat="28.961088396885827" lon="-10.6055527270539"><ele>10.0</ele><time>2026-04-28T10:45:45Z</time></trkpt><trkpt lat="28.960996743215123" lon="-10.605465569694887"><ele>10.0</ele><time>2026-04-28T10:45:46Z</time></trkpt><trkpt lat="28.960877082582066" lon="-10.605367187429177"><ele>10.0</ele><time>2026-04-28T10:45:47Z</time></trkpt><trkpt lat="28.96080027530053" lon="-10.605314835430098"><ele>10.0</ele><time>2026-04-28T10:45:48Z</time></trkpt><trkpt lat="28.960720986490873" lon="-10.60526919726341"><ele>10.0</ele><time>2026-04-28T10:45:49Z</time></trkpt><trkpt lat="28.960669903309785" lon="-10.605217392933136"><ele>10.0</ele><time>2026-04-28T10:45:52Z</time></trkpt><trkpt lat="28.960720428211342" lon="-10.605142606266948"><ele>10.0</ele><time>2026-04-28T10:45:55Z</time></trkpt><trkpt lat="28.9607920633877" lon="-10.605163848223112"><ele>10.0</ele><time>2026-04-28T10:45:57Z</time></trkpt><trkpt lat="28.96084396603599" lon="-10.605222993270361"><ele>10.0</ele><time>2026-04-28T10:45:58Z</time></trkpt><trkpt lat="28.960901870764854" lon="-10.6053060238784"><ele>10.0</ele><time>2026-04-28T10:46:00Z</time></trkpt><trkpt lat="28.960967142221573" lon="-10.605391350784062"><ele>10.0</ele><time>2026-04-28T10:46:02Z</time></trkpt><trkpt lat="28.961010087792637" lon="-10.605473397261624"><ele>10.0</ele><time>2026-04-28T10:46:04Z</time></trkpt><trkpt lat="28.961056706683166" lon="-10.60553247712031"><ele>10.0</ele><time>2026-04-28T10:46:05Z</time></trkpt><trkpt lat="28.96113268643225" lon="-10.605598322893773"><ele>10.0</ele><time>2026-04-28T10:46:06Z</time></trkpt><trkpt lat="28.961194431036944" lon="-10.605662026868577"><ele>10.0</ele><time>2026-04-28T10:46:07Z</time></trkpt><trkpt lat="28.96125724391918" lon="-10.605718045692342"><ele>10.0</ele><time>2026-04-28T10:46:08Z</time></trkpt><trkpt lat="28.961308466205157" lon="-10.605765138739654"><ele>10.0</ele><time>2026-04-28T10:46:09Z</time></trkpt><trkpt lat="28.96138347690639" lon="-10.6058237745948"><ele>10.0</ele><time>2026-04-28T10:46:11Z</time></trkpt><trkpt lat="28.96132186094" lon="-10.605879477288887"><ele>10.0</ele><time>2026-04-28T10:55:28Z</time></trkpt><trkpt lat="28.961376748867472" lon="-10.60592702237571"><ele>10.0</ele><time>2026-04-28T10:58:05Z</time></trkpt><trkpt lat="28.961442952078283" lon="-10.6058915968151"><ele>10.0</ele><time>2026-04-28T10:58:10Z</time></trkpt><trkpt lat="28.961429580275766" lon="-10.605815100812405"><ele>10.0</ele><time>2026-04-28T10:58:17Z</time></trkpt><trkpt lat="28.96133725962701" lon="-10.60580423494218"><ele>10.0</ele><time>2026-04-28T11:03:21.001Z</time></trkpt><trkpt lat="28.961231081483362" lon="-10.605705587591574"><ele>10.0</ele><time>2026-04-28T11:03:23.001Z</time></trkpt><trkpt lat="28.961155752157733" lon="-10.60563948893088"><ele>10.0</ele><time>2026-04-28T11:03:24.001Z</time></trkpt><trkpt lat="28.9610898794115" lon="-10.605526404277171"><ele>10.0</ele><time>2026-04-28T11:03:25.001Z</time></trkpt><trkpt lat="28.960969083121572" lon="-10.605460174394116"><ele>10.0</ele><time>2026-04-28T11:03:26.001Z</time></trkpt><trkpt lat="28.960858595117234" lon="-10.605359424743309"><ele>10.0</ele><time>2026-04-28T11:03:27.001Z</time></trkpt><trkpt lat="28.960754126141897" lon="-10.605284311305013"><ele>9.666666666666668</ele><time>2026-04-28T11:03:28.001Z</time></trkpt><trkpt lat="28.960647985795305" lon="-10.605208212947966"><ele>9.333333333333334</ele><time>2026-04-28T11:03:29.001Z</time></trkpt><trkpt lat="28.960524100087497" lon="-10.605091486035704"><ele>9.0</ele><time>2026-04-28T11:03:30.001Z</time></trkpt><trkpt lat="28.960370383633986" lon="-10.604975361366765"><ele>9.0</ele><time>2026-04-28T11:03:31.001Z</time></trkpt><trkpt lat="28.96024651806492" lon="-10.60487903034572"><ele>9.0</ele><time>2026-04-28T11:03:32.001Z</time></trkpt><trkpt lat="28.960159651845682" lon="-10.604811474022192"><ele>9.0</ele><time>2026-04-28T11:03:33.001Z</time></trkpt><trkpt lat="28.960084327303775" lon="-10.604743605290022"><ele>9.0</ele><time>2026-04-28T11:03:34.001Z</time></trkpt><trkpt lat="28.959976647879056" lon="-10.604669466586436"><ele>8.75</ele><time>2026-04-28T11:03:35.001Z</time></trkpt><trkpt lat="28.959861716568483" lon="-10.604563934945045"><ele>8.5</ele><time>2026-04-28T11:03:36.001Z</time></trkpt><trkpt lat="28.959737997797276" lon="-10.604465596052965"><ele>8.25</ele><time>2026-04-28T11:03:37.001Z</time></trkpt><trkpt lat="28.959603289677027" lon="-10.604387951818648"><ele>8.0</ele><time>2026-04-28T11:03:38.001Z</time></trkpt><trkpt lat="28.959495027827504" lon="-10.604308739648205"><ele>8.5</ele><time>2026-04-28T11:03:39.001Z</time></trkpt><trkpt lat="28.959409559354963" lon="-10.604187266878588"><ele>9.0</ele><time>2026-04-28T11:03:40.001Z</time></trkpt><trkpt lat="28.959317485472322" lon="-10.604078666003154"><ele>9.5</ele><time>2026-04-28T11:03:41.001Z</time></trkpt><trkpt lat="28.959238642776583" lon="-10.60397015388613"><ele>10.0</ele><time>2026-04-28T11:03:42.001Z</time></trkpt><trkpt lat="28.959159166558837" lon="-10.60388443089272"><ele>10.0</ele><time>2026-04-28T11:03:43.001Z</time></trkpt><trkpt lat="28.959078489308055" lon="-10.603833434612664"><ele>10.0</ele><time>2026-04-28T11:03:44.001Z</time></trkpt><trkpt lat="28.959013156799827" lon="-10.603765691784862"><ele>10.0</ele><time>2026-04-28T11:03:45.001Z</time></trkpt><trkpt lat="28.95887075417958" lon="-10.603813684048628"><ele>10.0</ele><time>2026-04-28T11:03:46.001Z</time></trkpt><trkpt lat="28.958748338601833" lon="-10.603793556349713"><ele>10.0</ele><time>2026-04-28T11:03:47.001Z</time></trkpt><trkpt lat="28.958632342294745" lon="-10.603781580027286"><ele>10.0</ele><time>2026-04-28T11:03:48.001Z</time></trkpt><trkpt lat="28.958519077465308" lon="-10.603842861344608"><ele>10.0</ele><time>2026-04-28T11:03:49.001Z</time></trkpt><trkpt lat="28.95837339064964" lon="-10.603894594976936"><ele>10.0</ele><time>2026-04-28T11:03:50.001Z</time></trkpt><trkpt lat="28.958237656957696" lon="-10.603967966006495"><ele>10.0</ele><time>2026-04-28T11:03:51.001Z</time></trkpt><trkpt lat="28.958133253909274" lon="-10.604007698080748"><ele>10.0</ele><time>2026-04-28T11:03:52.001Z</time></trkpt><trkpt lat="28.958055460990927" lon="-10.604050776938685"><ele>10.0</ele><time>2026-04-28T11:03:53.001Z</time></trkpt><trkpt lat="28.95796310628156" lon="-10.604026500982544"><ele>10.0</ele><time>2026-04-28T11:03:54.001Z</time></trkpt><trkpt lat="28.9578805392375" lon="-10.604028282188485"><ele>10.0</ele><time>2026-04-28T11:03:55.001Z</time></trkpt><trkpt lat="28.95779207521252" lon="-10.604018912161175"><ele>10.0</ele><time>2026-04-28T11:03:57.001Z</time></trkpt><trkpt lat="28.95770996569159" lon="-10.603997588033417"><ele>10.0</ele><time>2026-04-28T11:03:59.001Z</time></trkpt><trkpt lat="28.957632034058346" lon="-10.603984320686388"><ele>10.0</ele><time>2026-04-28T11:04:01.001Z</time></trkpt><trkpt lat="28.957550805560977" lon="-10.603978601298031"><ele>10.0</ele><time>2026-04-28T11:04:04.001Z</time></trkpt><trkpt lat="28.957638671921792" lon="-10.603919924059213"><ele>10.0</ele><time>2026-04-28T11:04:09.001Z</time></trkpt><trkpt lat="28.957720397732636" lon="-10.603994460593212"><ele>10.0</ele><time>2026-04-28T11:04:11.001Z</time></trkpt><trkpt lat="28.95779119639042" lon="-10.604008056648688"><ele>10.0</ele><time>2026-04-28T11:04:12.001Z</time></trkpt><trkpt lat="28.95789265999169" lon="-10.604011150087498"><ele>10.0</ele><time>2026-04-28T11:04:13.001Z</time></trkpt><trkpt lat="28.958010581983366" lon="-10.604017223456896"><ele>10.0</ele><time>2026-04-28T11:04:14.001Z</time></trkpt><trkpt lat="28.9581316299482" lon="-10.604005822175289"><ele>10.0</ele><time>2026-04-28T11:04:15.001Z</time></trkpt><trkpt lat="28.95824062837175" lon="-10.603929425103168"><ele>10.0</ele><time>2026-04-28T11:04:16.001Z</time></trkpt><trkpt lat="28.958386357920837" lon="-10.603865732510586"><ele>10.0</ele><time>2026-04-28T11:04:17.001Z</time></trkpt><trkpt lat="28.958523157323405" lon="-10.603824250873322"><ele>10.0</ele><time>2026-04-28T11:04:18.001Z</time></trkpt><trkpt lat="28.958634648242036" lon="-10.603777581477695"><ele>10.0</ele><time>2026-04-28T11:04:19.001Z</time></trkpt><trkpt lat="28.958736887425754" lon="-10.603749512207848"><ele>10.0</ele><time>2026-04-28T11:04:20.001Z</time></trkpt><trkpt lat="28.95883583845104" lon="-10.603749204152745"><ele>10.0</ele><time>2026-04-28T11:04:21.001Z</time></trkpt><trkpt lat="28.9589643920358" lon="-10.603778907005653"><ele>10.0</ele><time>2026-04-28T11:04:22.001Z</time></trkpt><trkpt lat="28.959092834575177" lon="-10.603788920474935"><ele>10.0</ele><time>2026-04-28T11:04:23.001Z</time></trkpt><trkpt lat="28.959197146240534" lon="-10.603896738302993"><ele>10.666666666666668</ele><time>2026-04-28T11:04:24.001Z</time></trkpt><trkpt lat="28.959305990487657" lon="-10.603995243541064"><ele>11.333333333333334</ele><time>2026-04-28T11:04:25.001Z</time></trkpt><trkpt lat="28.959404368881085" lon="-10.604121503466821"><ele>12.0</ele><time>2026-04-28T11:04:26.001Z</time></trkpt><trkpt lat="28.95950995738168" lon="-10.604267984492527"><ele>12.0</ele><time>2026-04-28T11:04:27.001Z</time></trkpt><trkpt lat="28.95963078145556" lon="-10.604382415334046"><ele>12.0</ele><time>2026-04-28T11:04:28.001Z</time></trkpt><trkpt lat="28.959797701571578" lon="-10.604485125824498"><ele>12.0</ele><time>2026-04-28T11:04:29.001Z</time></trkpt><trkpt lat="28.959962676050484" lon="-10.604629315187195"><ele>11.0</ele><time>2026-04-28T11:04:30.001Z</time></trkpt><trkpt lat="28.96013101785477" lon="-10.604737380035706"><ele>10.0</ele><time>2026-04-28T11:04:31.001Z</time></trkpt><trkpt lat="28.960286814210125" lon="-10.604848983400567"><ele>9.0</ele><time>2026-04-28T11:04:32.001Z</time></trkpt><trkpt lat="28.960409014432503" lon="-10.604954298613576"><ele>9.0</ele><time>2026-04-28T11:04:33.001Z</time></trkpt><trkpt lat="28.960540033347304" lon="-10.605079389809069"><ele>9.0</ele><time>2026-04-28T11:04:34.001Z</time></trkpt><trkpt lat="28.96064016271456" lon="-10.605178625082395"><ele>9.0</ele><time>2026-04-28T11:04:35.001Z</time></trkpt><trkpt lat="28.96074494175117" lon="-10.605248001622273"><ele>9.0</ele><time>2026-04-28T11:04:36.001Z</time></trkpt><trkpt lat="28.960874842847478" lon="-10.60533323104615"><ele>9.25</ele><time>2026-04-28T11:04:37.001Z</time></trkpt><trkpt lat="28.961000382068384" lon="-10.605420028158651"><ele>9.5</ele><time>2026-04-28T11:04:38.001Z</time></trkpt><trkpt lat="28.96111652361863" lon="-10.605500407134155"><ele>9.75</ele><time>2026-04-28T11:04:39.001Z</time></trkpt><trkpt lat="28.961218280012343" lon="-10.605570830396069"><ele>10.0</ele><time>2026-04-28T11:04:40.001Z</time></trkpt><trkpt lat="28.961319435307487" lon="-10.605640837629167"><ele>10.0</ele><time>2026-04-28T11:04:41.001Z</time></trkpt><trkpt lat="28.961348639071243" lon="-10.605775364267812"><ele>10.0</ele><time>2026-04-28T11:04:42.001Z</time></trkpt><trkpt lat="28.961421745429426" lon="-10.605818186551152"><ele>10.0</ele><time>2026-04-28T11:04:44.001Z</time></trkpt><trkpt lat="28.961481907174736" lon="-10.605861591546391"><ele>10.0</ele><time>2026-04-28T11:11:01Z</time></trkpt><trkpt lat="28.961502423415293" lon="-10.605956388000122"><ele>10.0</ele><time>2026-04-28T11:11:04Z</time></trkpt><trkpt lat="28.961491404779128" lon="-10.606044370764856"><ele>10.0</ele><time>2026-04-28T11:11:06Z</time></trkpt><trkpt lat="28.961497325443574" lon="-10.60614048775169"><ele>9.2</ele><time>2026-04-28T11:11:08Z</time></trkpt><trkpt lat="28.961507091546565" lon="-10.606283232622449"><ele>8.4</ele><time>2026-04-28T11:11:10Z</time></trkpt><trkpt lat="28.961516203738274" lon="-10.606374648507964"><ele>7.6</ele><time>2026-04-28T11:11:11Z</time></trkpt><trkpt lat="28.961537261485635" lon="-10.606458474117472"><ele>6.8</ele><time>2026-04-28T11:11:12Z</time></trkpt><trkpt lat="28.961549509586995" lon="-10.606548039873685"><ele>6.0</ele><time>2026-04-28T11:11:13Z</time></trkpt><trkpt lat="28.961543618085567" lon="-10.606653450721113"><ele>6.0</ele><time>2026-04-28T11:11:14Z</time></trkpt><trkpt lat="28.961525069380222" lon="-10.60678055712172"><ele>6.0</ele><time>2026-04-28T11:11:15Z</time></trkpt><trkpt lat="28.961506086743718" lon="-10.60688864327541"><ele>6.0</ele><time>2026-04-28T11:11:16Z</time></trkpt><trkpt lat="28.96149161565776" lon="-10.606992022156756"><ele>6.0</ele><time>2026-04-28T11:11:17Z</time></trkpt><trkpt lat="28.961475603240206" lon="-10.607076251904992"><ele>6.0</ele><time>2026-04-28T11:11:18Z</time></trkpt><trkpt lat="28.96144935244371" lon="-10.607203845672629"><ele>5.333333333333333</ele><time>2026-04-28T11:11:20Z</time></trkpt><trkpt lat="28.961489241936516" lon="-10.607324973041747"><ele>4.666666666666667</ele><time>2026-04-28T11:11:22Z</time></trkpt><trkpt lat="28.961524598786657" lon="-10.607388800144479"><ele>4.0</ele><time>2026-04-28T11:11:23Z</time></trkpt><trkpt lat="28.961557493544294" lon="-10.607452886024054"><ele>3.333333333333333</ele><time>2026-04-28T11:11:24Z</time></trkpt><trkpt lat="28.96159242384704" lon="-10.607537578935617"><ele>2.6666666666666665</ele><time>2026-04-28T11:11:25Z</time></trkpt><trkpt lat="28.961628372640114" lon="-10.607628820219567"><ele>2.0</ele><time>2026-04-28T11:11:26Z</time></trkpt><trkpt lat="28.96165856115471" lon="-10.6077158787457"><ele>1.9999999999999998</ele><time>2026-04-28T11:11:27Z</time></trkpt><trkpt lat="28.961690672403613" lon="-10.607805688858635"><ele>2.0</ele><time>2026-04-28T11:11:28Z</time></trkpt><trkpt lat="28.96171782912562" lon="-10.607898398810557"><ele>2.0</ele><time>2026-04-28T11:11:29Z</time></trkpt><trkpt lat="28.961742849859622" lon="-10.60798467438262"><ele>2.0</ele><time>2026-04-28T11:11:30Z</time></trkpt><trkpt lat="28.961766431915887" lon="-10.608057983609573"><ele>1.9999999999999998</ele><time>2026-04-28T11:11:31Z</time></trkpt><trkpt lat="28.961789669676925" lon="-10.608132709601353"><ele>2.0</ele><time>2026-04-28T11:11:32Z</time></trkpt><trkpt lat="28.961809147389882" lon="-10.608211675223732"><ele>1.857142857142857</ele><time>2026-04-28T11:11:33Z</time></trkpt><trkpt lat="28.96182722416666" lon="-10.608289596660361"><ele>1.714285714285714</ele><time>2026-04-28T11:11:34Z</time></trkpt><trkpt lat="28.961848724385295" lon="-10.608358225766802"><ele>1.5714285714285714</ele><time>2026-04-28T11:11:35Z</time></trkpt><trkpt lat="28.96187979694539" lon="-10.60843159797798"><ele>1.4285714285714284</ele><time>2026-04-28T11:11:36Z</time></trkpt><trkpt lat="28.961918942201926" lon="-10.608511155695819"><ele>1.2857142857142856</ele><time>2026-04-28T11:11:37Z</time></trkpt><trkpt lat="28.96196307282677" lon="-10.608583070115651"><ele>1.1428571428571428</ele><time>2026-04-28T11:11:38Z</time></trkpt><trkpt lat="28.962008558441976" lon="-10.608646427325427"><ele>1.0</ele><time>2026-04-28T11:11:39Z</time></trkpt><trkpt lat="28.962055311329276" lon="-10.608716128665202"><ele>1.0</ele><time>2026-04-28T11:11:40Z</time></trkpt><trkpt lat="28.962112600595752" lon="-10.608806242020494"><ele>1.0</ele><time>2026-04-28T11:11:41Z</time></trkpt><trkpt lat="28.962173539795735" lon="-10.608890446167557"><ele>1.0</ele><time>2026-04-28T11:11:42Z</time></trkpt><trkpt lat="28.962233841386897" lon="-10.60896839416351"><ele>1.0</ele><time>2026-04-28T11:11:43Z</time></trkpt><trkpt lat="28.962306980299815" lon="-10.609067250384674"><ele>1.0</ele><time>2026-04-28T11:11:44Z</time></trkpt><trkpt lat="28.96237979139718" lon="-10.609168108747063"><ele>0.9999999999999999</ele><time>2026-04-28T11:11:45Z</time></trkpt><trkpt lat="28.962446144856653" lon="-10.609253796806582"><ele>1.0</ele><time>2026-04-28T11:11:46Z</time></trkpt><trkpt lat="28.962498726036017" lon="-10.60931835208358"><ele>1.0</ele><time>2026-04-28T11:11:47Z</time></trkpt><trkpt lat="28.962552506850827" lon="-10.609379949403351"><ele>1.0</ele><time>2026-04-28T11:11:48Z</time></trkpt><trkpt lat="28.962617464397603" lon="-10.60942808051852"><ele>0.9999999999999999</ele><time>2026-04-28T11:11:49Z</time></trkpt><trkpt lat="28.962683420905737" lon="-10.609460212491065"><ele>1.0</ele><time>2026-04-28T11:11:50Z</time></trkpt><trkpt lat="28.962775169962587" lon="-10.609486506124629"><ele>0.8333333333333333</ele><time>2026-04-28T11:11:52Z</time></trkpt><trkpt lat="28.962841857283127" lon="-10.609483112433903"><ele>0.6666666666666666</ele><time>2026-04-28T11:11:54Z</time></trkpt><trkpt lat="28.962922239680324" lon="-10.609490012421622"><ele>0.5</ele><time>2026-04-28T11:11:55.999Z</time></trkpt><trkpt lat="28.963008968419715" lon="-10.609501423778694"><ele>0.3333333333333333</ele><time>2026-04-28T11:11:57.999Z</time></trkpt><trkpt lat="28.96311436073305" lon="-10.609516985446922"><ele>0.16666666666666666</ele><time>2026-04-28T11:11:59.999Z</time></trkpt><trkpt lat="28.963187340014276" lon="-10.609508014368824"><ele>0.0</ele><time>2026-04-28T11:12:01.999Z</time></trkpt><trkpt lat="28.96328394944553" lon="-10.60948088498591"><ele>0.0</ele><time>2026-04-28T11:12:03.999Z</time></trkpt><trkpt lat="28.963355916998164" lon="-10.609470364562902"><ele>0.0</ele><time>2026-04-28T11:12:04.999Z</time></trkpt><trkpt lat="28.963434893176778" lon="-10.609466960546015"><ele>0.0</ele><time>2026-04-28T11:12:05.999Z</time></trkpt><trkpt lat="28.963531934454092" lon="-10.60950874800246"><ele>0.0</ele><time>2026-04-28T11:12:07.999Z</time></trkpt><trkpt lat="28.963599726386718" lon="-10.609562426198003"><ele>0.0</ele><time>2026-04-28T11:12:08.999Z</time></trkpt><trkpt lat="28.963660331644462" lon="-10.609638873694783"><ele>0.0</ele><time>2026-04-28T11:12:10.999Z</time></trkpt><trkpt lat="28.963699818945397" lon="-10.609724830958765"><ele>0.3333333333333333</ele><time>2026-04-28T11:12:12.999Z</time></trkpt><trkpt lat="28.963713851406524" lon="-10.609842079323133"><ele>0.6666666666666666</ele><time>2026-04-28T11:12:14.999Z</time></trkpt><trkpt lat="28.963705577701806" lon="-10.609913858324017"><ele>1.0</ele><time>2026-04-28T11:12:15.999Z</time></trkpt><trkpt lat="28.9636937219882" lon="-10.609995890646502"><ele>1.3333333333333333</ele><time>2026-04-28T11:12:16.999Z</time></trkpt><trkpt lat="28.963678434562418" lon="-10.610079838350996"><ele>1.6666666666666665</ele><time>2026-04-28T11:12:17.999Z</time></trkpt><trkpt lat="28.963660680933646" lon="-10.610162372747176"><ele>2.0</ele><time>2026-04-28T11:12:18.999Z</time></trkpt><trkpt lat="28.963641253947443" lon="-10.6102533917555"><ele>2.1666666666666665</ele><time>2026-04-28T11:12:19.999Z</time></trkpt><trkpt lat="28.963621269212407" lon="-10.610342682139617"><ele>2.333333333333333</ele><time>2026-04-28T11:12:20.999Z</time></trkpt><trkpt lat="28.963597573027563" lon="-10.610445921488276"><ele>2.5</ele><time>2026-04-28T11:12:22Z</time></trkpt><trkpt lat="28.963576306617643" lon="-10.610544540626226"><ele>2.6666666666666665</ele><time>2026-04-28T11:12:23Z</time></trkpt><trkpt lat="28.96355667082423" lon="-10.610636351523581"><ele>2.8333333333333335</ele><time>2026-04-28T11:12:24Z</time></trkpt><trkpt lat="28.963536917951977" lon="-10.610728863921063"><ele>3.0</ele><time>2026-04-28T11:12:25Z</time></trkpt><trkpt lat="28.963522334028514" lon="-10.610826444579605"><ele>3.0</ele><time>2026-04-28T11:12:26Z</time></trkpt><trkpt lat="28.963554247703254" lon="-10.61093134641293"><ele>3.0</ele><time>2026-04-28T11:12:27Z</time></trkpt><trkpt lat="28.963552383014576" lon="-10.611041222264884"><ele>3.0</ele><time>2026-04-28T11:12:28Z</time></trkpt><trkpt lat="28.963550547885994" lon="-10.611147311712456"><ele>3.0</ele><time>2026-04-28T11:12:29Z</time></trkpt><trkpt lat="28.96354864979034" lon="-10.611257041340835"><ele>3.0</ele><time>2026-04-28T11:12:30Z</time></trkpt><trkpt lat="28.963533252172454" lon="-10.611372381672307"><ele>2.8</ele><time>2026-04-28T11:12:31Z</time></trkpt><trkpt lat="28.963538245094522" lon="-10.611492083355367"><ele>2.5999999999999996</ele><time>2026-04-28T11:12:32Z</time></trkpt><trkpt lat="28.963546250227008" lon="-10.611622623265925"><ele>2.4000000000000004</ele><time>2026-04-28T11:12:33Z</time></trkpt><trkpt lat="28.963538290545795" lon="-10.611746960316276"><ele>2.2</ele><time>2026-04-28T11:12:34Z</time></trkpt><trkpt lat="28.96353549426274" lon="-10.611875123478569"><ele>2.0</ele><time>2026-04-28T11:12:35Z</time></trkpt><trkpt lat="28.963616374473443" lon="-10.611992912775046"><ele>2.8</ele><time>2026-04-28T11:12:36Z</time></trkpt><trkpt lat="28.963635226767966" lon="-10.612095127976591"><ele>3.6</ele><time>2026-04-28T11:12:37Z</time></trkpt><trkpt lat="28.96365339034028" lon="-10.612183566671588"><ele>4.3999999999999995</ele><time>2026-04-28T11:12:38Z</time></trkpt><trkpt lat="28.96367537389645" lon="-10.612274548290422"><ele>5.2</ele><time>2026-04-28T11:12:39Z</time></trkpt><trkpt lat="28.96370345221825" lon="-10.612383072289438"><ele>6.0</ele><time>2026-04-28T11:12:40Z</time></trkpt><trkpt lat="28.96372562933544" lon="-10.61249122505335"><ele>6.0</ele><time>2026-04-28T11:12:41Z</time></trkpt><trkpt lat="28.963736642099946" lon="-10.612590376249031"><ele>6.0</ele><time>2026-04-28T11:12:42Z</time></trkpt><trkpt lat="28.96374971615045" lon="-10.612694781099526"><ele>6.0</ele><time>2026-04-28T11:12:43Z</time></trkpt><trkpt lat="28.96376417249932" lon="-10.612795271734305"><ele>6.0</ele><time>2026-04-28T11:12:44Z</time></trkpt><trkpt lat="28.963783393202245" lon="-10.61291655458419"><ele>6.0</ele><time>2026-04-28T11:12:45Z</time></trkpt><trkpt lat="28.963801767444814" lon="-10.613045824361363"><ele>6.0</ele><time>2026-04-28T11:12:46Z</time></trkpt><trkpt lat="28.963817080687004" lon="-10.61317618066678"><ele>6.0</ele><time>2026-04-28T11:12:47Z</time></trkpt><trkpt lat="28.963824267243936" lon="-10.613290568886159"><ele>6.0</ele><time>2026-04-28T11:12:48Z</time></trkpt><trkpt lat="28.963824058300514" lon="-10.61339223348237"><ele>6.0</ele><time>2026-04-28T11:12:49Z</time></trkpt><trkpt lat="28.96381577739619" lon="-10.613489560357435"><ele>6.0</ele><time>2026-04-28T11:12:50Z</time></trkpt><trkpt lat="28.9638047670016" lon="-10.61359402595168"><ele>6.0</ele><time>2026-04-28T11:12:51Z</time></trkpt><trkpt lat="28.96378451084647" lon="-10.613694589636076"><ele>6.0</ele><time>2026-04-28T11:12:52Z</time></trkpt><trkpt lat="28.963760013662707" lon="-10.613780734059516"><ele>6.0</ele><time>2026-04-28T11:12:53Z</time></trkpt><trkpt lat="28.9637261958757" lon="-10.61386786970865"><ele>6.0</ele><time>2026-04-28T11:12:54Z</time></trkpt><trkpt lat="28.963689859311494" lon="-10.613941503398019"><ele>6.0</ele><time>2026-04-28T11:12:55Z</time></trkpt><trkpt lat="28.963650171840825" lon="-10.614013606630131"><ele>6.0</ele><time>2026-04-28T11:12:56Z</time></trkpt><trkpt lat="28.963599106594046" lon="-10.614097381124536"><ele>6.0</ele><time>2026-04-28T11:12:57Z</time></trkpt><trkpt lat="28.963531504739944" lon="-10.614206851946527"><ele>6.0</ele><time>2026-04-28T11:12:58Z</time></trkpt><trkpt lat="28.963446561192168" lon="-10.614339148995342"><ele>6.0</ele><time>2026-04-28T11:12:59Z</time></trkpt><trkpt lat="28.963355509521858" lon="-10.61448396952556"><ele>6.0</ele><time>2026-04-28T11:13:00Z</time></trkpt><trkpt lat="28.963267728825777" lon="-10.614623220110472"><ele>6.0</ele><time>2026-04-28T11:13:01Z</time></trkpt><trkpt lat="28.96317540028218" lon="-10.614765483172517"><ele>6.0</ele><time>2026-04-28T11:13:02Z</time></trkpt><trkpt lat="28.963099086914802" lon="-10.61488900396525"><ele>6.0</ele><time>2026-04-28T11:13:03Z</time></trkpt><trkpt lat="28.963025616916422" lon="-10.615002681687953"><ele>6.0</ele><time>2026-04-28T11:13:04Z</time></trkpt><trkpt lat="28.962945717067576" lon="-10.615126569633146"><ele>5.0</ele><time>2026-04-28T11:13:05Z</time></trkpt><trkpt lat="28.962865733619463" lon="-10.615252883588955"><ele>4.0</ele><time>2026-04-28T11:13:06Z</time></trkpt><trkpt lat="28.962791273165863" lon="-10.615368488006418"><ele>3.0</ele><time>2026-04-28T11:13:07Z</time></trkpt><trkpt lat="28.962715170685527" lon="-10.615478924431663"><ele>2.0</ele><time>2026-04-28T11:13:08Z</time></trkpt><trkpt lat="28.962639688309274" lon="-10.615586974342557"><ele>2.0</ele><time>2026-04-28T11:13:09Z</time></trkpt><trkpt lat="28.962558229381088" lon="-10.615698551076788"><ele>2.0</ele><time>2026-04-28T11:13:10Z</time></trkpt><trkpt lat="28.962477936784484" lon="-10.615805247172625"><ele>2.0</ele><time>2026-04-28T11:13:11Z</time></trkpt><trkpt lat="28.96240111294253" lon="-10.615906976703304"><ele>2.0</ele><time>2026-04-28T11:13:12Z</time></trkpt><trkpt lat="28.962330219497712" lon="-10.616006021493147"><ele>1.0</ele><time>2026-04-28T11:13:13Z</time></trkpt><trkpt lat="28.962258947305614" lon="-10.616106939544451"><ele>0.0</ele><time>2026-04-28T11:13:14Z</time></trkpt><trkpt lat="28.96218188087969" lon="-10.616214585590614"><ele>-1.0</ele><time>2026-04-28T11:13:15Z</time></trkpt><trkpt lat="28.962105059265618" lon="-10.6163333083923"><ele>-2.0</ele><time>2026-04-28T11:13:16Z</time></trkpt><trkpt lat="28.962027842685735" lon="-10.616465821100789"><ele>-2.0</ele><time>2026-04-28T11:13:17Z</time></trkpt><trkpt lat="28.96195456179265" lon="-10.616597865983364"><ele>-2.0</ele><time>2026-04-28T11:13:18Z</time></trkpt><trkpt lat="28.96188220477363" lon="-10.616721802227078"><ele>-2.0</ele><time>2026-04-28T11:13:19Z</time></trkpt><trkpt lat="28.96180672807354" lon="-10.616851539277535"><ele>-2.0</ele><time>2026-04-28T11:13:20Z</time></trkpt><trkpt lat="28.961738491310854" lon="-10.616976376003215"><ele>2.5</ele><time>2026-04-28T11:13:21Z</time></trkpt><trkpt lat="28.961676234792222" lon="-10.617098002800262"><ele>7.0</ele><time>2026-04-28T11:13:22Z</time></trkpt><trkpt lat="28.96161254693378" lon="-10.617216817052345"><ele>11.5</ele><time>2026-04-28T11:13:23Z</time></trkpt><trkpt lat="28.96154952917393" lon="-10.617336521511564"><ele>16.0</ele><time>2026-04-28T11:13:24Z</time></trkpt><trkpt lat="28.961486080016215" lon="-10.617453125658422"><ele>16.0</ele><time>2026-04-28T11:13:25Z</time></trkpt><trkpt lat="28.961421770137367" lon="-10.617576633306953"><ele>16.0</ele><time>2026-04-28T11:13:26Z</time></trkpt><trkpt lat="28.9613490925306" lon="-10.617722273191308"><ele>16.0</ele><time>2026-04-28T11:13:27Z</time></trkpt><trkpt lat="28.961278410859272" lon="-10.617863675221312"><ele>16.0</ele><time>2026-04-28T11:13:28Z</time></trkpt><trkpt lat="28.961213650647693" lon="-10.617997814653153"><ele>14.0</ele><time>2026-04-28T11:13:29Z</time></trkpt><trkpt lat="28.961150488226846" lon="-10.618130168893925"><ele>12.0</ele><time>2026-04-28T11:13:30Z</time></trkpt><trkpt lat="28.96108672714024" lon="-10.618262338140838"><ele>10.0</ele><time>2026-04-28T11:13:31Z</time></trkpt><trkpt lat="28.96102470135152" lon="-10.61839477137967"><ele>8.0</ele><time>2026-04-28T11:13:32Z</time></trkpt><trkpt lat="28.96095343794184" lon="-10.618544214581709"><ele>4.666666666666666</ele><time>2026-04-28T11:13:33Z</time></trkpt><trkpt lat="28.960882239166484" lon="-10.618690178669022"><ele>1.3333333333333333</ele><time>2026-04-28T11:13:34Z</time></trkpt><trkpt lat="28.96072010759602" lon="-10.618776103886027"><ele>-2.0</ele><time>2026-04-28T11:13:35Z</time></trkpt><trkpt lat="28.960662452055104" lon="-10.618920335431689"><ele>-2.75</ele><time>2026-04-28T11:13:36Z</time></trkpt><trkpt lat="28.960603635012657" lon="-10.61906747259326"><ele>-3.5</ele><time>2026-04-28T11:13:37Z</time></trkpt><trkpt lat="28.96054607975284" lon="-10.61921126859252"><ele>-4.25</ele><time>2026-04-28T11:13:38Z</time></trkpt><trkpt lat="28.960488285562366" lon="-10.619335010499741"><ele>-5.0</ele><time>2026-04-28T11:13:39Z</time></trkpt><trkpt lat="28.960397364401455" lon="-10.619460410853106"><ele>-5.0</ele><time>2026-04-28T11:13:40Z</time></trkpt><trkpt lat="28.960308251526687" lon="-10.619583375998378"><ele>-5.0</ele><time>2026-04-28T11:13:41Z</time></trkpt><trkpt lat="28.960220406768624" lon="-10.619705668400927"><ele>-5.0</ele><time>2026-04-28T11:13:42Z</time></trkpt><trkpt lat="28.96012793864809" lon="-10.619834252768154"><ele>-5.0</ele><time>2026-04-28T11:13:43Z</time></trkpt><trkpt lat="28.9600256794444" lon="-10.619974400306054"><ele>-5.0</ele><time>2026-04-28T11:13:44Z</time></trkpt><trkpt lat="28.959915498262056" lon="-10.62012750644358"><ele>-5.0</ele><time>2026-04-28T11:13:45Z</time></trkpt><trkpt lat="28.95978703631096" lon="-10.620323128113004"><ele>-5.0</ele><time>2026-04-28T11:13:46Z</time></trkpt><trkpt lat="28.959680756066767" lon="-10.620531263664079"><ele>-4.0</ele><time>2026-04-28T11:13:47Z</time></trkpt><trkpt lat="28.95956386677884" lon="-10.62076194047682"><ele>-3.0</ele><time>2026-04-28T11:13:48Z</time></trkpt><trkpt lat="28.959442027387233" lon="-10.621002594684118"><ele>1.5</ele><time>2026-04-28T11:13:49Z</time></trkpt><trkpt lat="28.95931401807381" lon="-10.62125329902018"><ele>6.0</ele><time>2026-04-28T11:13:50Z</time></trkpt><trkpt lat="28.959204161344594" lon="-10.621468013658045"><ele>5.666666666666667</ele><time>2026-04-28T11:13:51Z</time></trkpt><trkpt lat="28.959108826969644" lon="-10.621655367399718"><ele>5.333333333333334</ele><time>2026-04-28T11:13:52Z</time></trkpt><trkpt lat="28.95902519503957" lon="-10.621820391252086"><ele>5.0</ele><time>2026-04-28T11:13:53Z</time></trkpt><trkpt lat="28.958949892765524" lon="-10.621968736044685"><ele>4.0</ele><time>2026-04-28T11:13:54Z</time></trkpt><trkpt lat="28.958874653175275" lon="-10.622116120653526"><ele>3.0</ele><time>2026-04-28T11:13:55Z</time></trkpt><trkpt lat="28.958806942447012" lon="-10.622249416885348"><ele>2.0</ele><time>2026-04-28T11:13:56Z</time></trkpt><trkpt lat="28.958751537136855" lon="-10.622358361135504"><ele>1.0</ele><time>2026-04-28T11:13:57Z</time></trkpt><trkpt lat="28.958708784357626" lon="-10.62244242654634"><ele>1.0</ele><time>2026-04-28T11:13:58Z</time></trkpt><trkpt lat="28.95866287347974" lon="-10.622532992151946"><ele>1.0</ele><time>2026-04-28T11:13:59Z</time></trkpt><trkpt lat="28.958594287739665" lon="-10.622663413034193"><ele>1.0</ele><time>2026-04-28T11:14:00Z</time></trkpt><trkpt lat="28.958521044662163" lon="-10.62280062084788"><ele>1.0</ele><time>2026-04-28T11:14:00.999Z</time></trkpt><trkpt lat="28.958459892835783" lon="-10.622916936892121"><ele>1.0</ele><time>2026-04-28T11:14:01.999Z</time></trkpt><trkpt lat="28.95840119818533" lon="-10.623027412282319"><ele>1.0</ele><time>2026-04-28T11:14:02.999Z</time></trkpt><trkpt lat="28.958349302040617" lon="-10.623125091491326"><ele>1.0</ele><time>2026-04-28T11:14:03.999Z</time></trkpt><trkpt lat="28.958304804826138" lon="-10.623208844395188"><ele>1.0</ele><time>2026-04-28T11:14:04.999Z</time></trkpt><trkpt lat="28.958256776633327" lon="-10.623299332273161"><ele>1.0</ele><time>2026-04-28T11:14:05.999Z</time></trkpt><trkpt lat="28.95820445936149" lon="-10.623397900457913"><ele>1.0</ele><time>2026-04-28T11:14:06.999Z</time></trkpt><trkpt lat="28.95815007528963" lon="-10.623500362586993"><ele>1.0</ele><time>2026-04-28T11:14:07.999Z</time></trkpt><trkpt lat="28.95810567891393" lon="-10.623614200735686"><ele>1.0</ele><time>2026-04-28T11:14:08.999Z</time></trkpt><trkpt lat="28.95804584075859" lon="-10.623713752374314"><ele>1.0</ele><time>2026-04-28T11:14:09.999Z</time></trkpt><trkpt lat="28.95797840267947" lon="-10.623825152848559"><ele>1.0</ele><time>2026-04-28T11:14:10.999Z</time></trkpt><trkpt lat="28.95789079139581" lon="-10.62396651834563"><ele>1.3333333333333333</ele><time>2026-04-28T11:14:11.999Z</time></trkpt><trkpt lat="28.957790529677588" lon="-10.62415189488791"><ele>1.6666666666666665</ele><time>2026-04-28T11:14:12.999Z</time></trkpt><trkpt lat="28.957678539117914" lon="-10.62434921920251"><ele>2.0</ele><time>2026-04-28T11:14:13.999Z</time></trkpt><trkpt lat="28.957558797439482" lon="-10.624576083351185"><ele>3.0</ele><time>2026-04-28T11:14:14.999Z</time></trkpt><trkpt lat="28.95744559119794" lon="-10.62478539789843"><ele>4.0</ele><time>2026-04-28T11:14:15.999Z</time></trkpt><trkpt lat="28.957332954779446" lon="-10.62499279737343"><ele>5.0</ele><time>2026-04-28T11:14:16.999Z</time></trkpt><trkpt lat="28.957199292016867" lon="-10.62518325792619"><ele>2.3333333333333335</ele><time>2026-04-28T11:14:18Z</time></trkpt><trkpt lat="28.957083644871442" lon="-10.625376930881579"><ele>-0.33333333333333326</ele><time>2026-04-28T11:14:19Z</time></trkpt><trkpt lat="28.956963138935333" lon="-10.625580316614162"><ele>-3.0</ele><time>2026-04-28T11:14:20Z</time></trkpt><trkpt lat="28.956832869744545" lon="-10.625807113285587"><ele>-3.0</ele><time>2026-04-28T11:14:21Z</time></trkpt><trkpt lat="28.956707862937936" lon="-10.626030834315289"><ele>-3.0</ele><time>2026-04-28T11:14:22Z</time></trkpt><trkpt lat="28.956600019753317" lon="-10.626224576939451"><ele>-3.0</ele><time>2026-04-28T11:14:23Z</time></trkpt><trkpt lat="28.956500959776974" lon="-10.626403587213506"><ele>1.0</ele><time>2026-04-28T11:14:24Z</time></trkpt><trkpt lat="28.95639933953305" lon="-10.626585898338758"><ele>5.0</ele><time>2026-04-28T11:14:25Z</time></trkpt><trkpt lat="28.956302995296316" lon="-10.626757179016339"><ele>9.0</ele><time>2026-04-28T11:14:26Z</time></trkpt><trkpt lat="28.956215178223257" lon="-10.626915659920423"><ele>1.666666666666667</ele><time>2026-04-28T11:14:27Z</time></trkpt><trkpt lat="28.956125962587922" lon="-10.62707551643045"><ele>-5.666666666666666</ele><time>2026-04-28T11:14:28Z</time></trkpt><trkpt lat="28.956035874339754" lon="-10.627236480280827"><ele>-13.0</ele><time>2026-04-28T11:14:29Z</time></trkpt><trkpt lat="28.95594691052067" lon="-10.62739810028379"><ele>-9.666666666666666</ele><time>2026-04-28T11:14:30Z</time></trkpt><trkpt lat="28.95586597634397" lon="-10.62754945685901"><ele>-6.333333333333333</ele><time>2026-04-28T11:14:31Z</time></trkpt><trkpt lat="28.955784709772317" lon="-10.627700963443322"><ele>-3.0</ele><time>2026-04-28T11:14:32Z</time></trkpt><trkpt lat="28.955698120700383" lon="-10.627862301318727"><ele>-3.0</ele><time>2026-04-28T11:14:33Z</time></trkpt><trkpt lat="28.95561172671405" lon="-10.62802323682978"><ele>-3.0</ele><time>2026-04-28T11:14:34Z</time></trkpt><trkpt lat="28.955526164915874" lon="-10.628182399401332"><ele>-3.0</ele><time>2026-04-28T11:14:35Z</time></trkpt><trkpt lat="28.955438770520875" lon="-10.628345356613632"><ele>-3.0</ele><time>2026-04-28T11:14:36Z</time></trkpt><trkpt lat="28.955350101151655" lon="-10.628510853274435"><ele>-3.0</ele><time>2026-04-28T11:14:37Z</time></trkpt><trkpt lat="28.9552641274557" lon="-10.628672144296688"><ele>-3.0</ele><time>2026-04-28T11:14:38Z</time></trkpt><trkpt lat="28.955173891158594" lon="-10.628839923145811"><ele>-2.3333333333333335</ele><time>2026-04-28T11:14:39Z</time></trkpt><trkpt lat="28.95508374625996" lon="-10.629006520560322"><ele>-1.6666666666666665</ele><time>2026-04-28T11:14:40Z</time></trkpt><trkpt lat="28.954990819716496" lon="-10.629180553058466"><ele>-1.0</ele><time>2026-04-28T11:14:41Z</time></trkpt><trkpt lat="28.95489611717169" lon="-10.629350887948837"><ele>2.666666666666667</ele><time>2026-04-28T11:14:42Z</time></trkpt><trkpt lat="28.954798630577955" lon="-10.629524347939254"><ele>6.333333333333334</ele><time>2026-04-28T11:14:43Z</time></trkpt><trkpt lat="28.954709808982283" lon="-10.629681744101857"><ele>10.0</ele><time>2026-04-28T11:14:44Z</time></trkpt><trkpt lat="28.954626760964423" lon="-10.629829493889483"><ele>10.0</ele><time>2026-04-28T11:14:45Z</time></trkpt><trkpt lat="28.954546492238283" lon="-10.629972845670869"><ele>10.0</ele><time>2026-04-28T11:14:46Z</time></trkpt><trkpt lat="28.954467492201218" lon="-10.630112239427088"><ele>10.0</ele><time>2026-04-28T11:14:47Z</time></trkpt><trkpt lat="28.95438683199105" lon="-10.630257794785079"><ele>10.0</ele><time>2026-04-28T11:14:48Z</time></trkpt><trkpt lat="28.954302645368724" lon="-10.630410571018572"><ele>10.0</ele><time>2026-04-28T11:14:49Z</time></trkpt><trkpt lat="28.954216586820795" lon="-10.630567286517833"><ele>10.0</ele><time>2026-04-28T11:14:50Z</time></trkpt><trkpt lat="28.95413875429332" lon="-10.630709264447384"><ele>10.0</ele><time>2026-04-28T11:14:51Z</time></trkpt><trkpt lat="28.954067428881114" lon="-10.630839174312161"><ele>10.0</ele><time>2026-04-28T11:14:52Z</time></trkpt><trkpt lat="28.95399461109514" lon="-10.630972002538833"><ele>10.0</ele><time>2026-04-28T11:14:53Z</time></trkpt><trkpt lat="28.95392241470417" lon="-10.63110217883777"><ele>10.0</ele><time>2026-04-28T11:14:54Z</time></trkpt><trkpt lat="28.95385283480889" lon="-10.631227939773671"><ele>10.0</ele><time>2026-04-28T11:14:55Z</time></trkpt><trkpt lat="28.953786400906967" lon="-10.631348701032893"><ele>10.0</ele><time>2026-04-28T11:14:56Z</time></trkpt><trkpt lat="28.953718010784574" lon="-10.631473905042336"><ele>8.666666666666668</ele><time>2026-04-28T11:14:57Z</time></trkpt><trkpt lat="28.953644260799404" lon="-10.631609275663871"><ele>7.333333333333334</ele><time>2026-04-28T11:14:58Z</time></trkpt><trkpt lat="28.95357157039575" lon="-10.631774984686993"><ele>6.0</ele><time>2026-04-28T11:14:59Z</time></trkpt><trkpt lat="28.95350901326624" lon="-10.631928012008133"><ele>5.0</ele><time>2026-04-28T11:15:00Z</time></trkpt><trkpt lat="28.953445002263788" lon="-10.632087051223987"><ele>4.0</ele><time>2026-04-28T11:15:01Z</time></trkpt><trkpt lat="28.953375536015105" lon="-10.632259745463575"><ele>3.0</ele><time>2026-04-28T11:15:02Z</time></trkpt><trkpt lat="28.95330932536769" lon="-10.632424130518348"><ele>1.3333333333333335</ele><time>2026-04-28T11:15:03Z</time></trkpt><trkpt lat="28.953260218975537" lon="-10.632587177740373"><ele>-0.33333333333333326</ele><time>2026-04-28T11:15:04Z</time></trkpt><trkpt lat="28.953176745155314" lon="-10.632739888413209"><ele>-2.0</ele><time>2026-04-28T11:15:05Z</time></trkpt><trkpt lat="28.95310388587705" lon="-10.63291025109028"><ele>-3.666666666666667</ele><time>2026-04-28T11:15:06Z</time></trkpt><trkpt lat="28.953013730664164" lon="-10.6330758544935"><ele>-5.333333333333334</ele><time>2026-04-28T11:15:07Z</time></trkpt><trkpt lat="28.9529213422177" lon="-10.63324625858028"><ele>-7.0</ele><time>2026-04-28T11:15:08Z</time></trkpt><trkpt lat="28.95282922260184" lon="-10.633416242279093"><ele>-7.0</ele><time>2026-04-28T11:15:09Z</time></trkpt><trkpt lat="28.952734984986627" lon="-10.633574645456049"><ele>-7.0</ele><time>2026-04-28T11:15:10Z</time></trkpt><trkpt lat="28.95264630779737" lon="-10.633717417573283"><ele>-7.0</ele><time>2026-04-28T11:15:11Z</time></trkpt><trkpt lat="28.95255795236638" lon="-10.633859500933314"><ele>-6.333333333333334</ele><time>2026-04-28T11:15:12Z</time></trkpt><trkpt lat="28.95246792279576" lon="-10.634004276459837"><ele>-5.666666666666667</ele><time>2026-04-28T11:15:13Z</time></trkpt><trkpt lat="28.952339838133856" lon="-10.634106591542487"><ele>-5.0</ele><time>2026-04-28T11:15:14Z</time></trkpt><trkpt lat="28.952227321288902" lon="-10.634211654245082"><ele>-5.0</ele><time>2026-04-28T11:15:15Z</time></trkpt><trkpt lat="28.952114065196557" lon="-10.634317900112434"><ele>-5.0</ele><time>2026-04-28T11:15:16Z</time></trkpt><trkpt lat="28.952003573068925" lon="-10.634421553096885"><ele>-5.0</ele><time>2026-04-28T11:15:17Z</time></trkpt><trkpt lat="28.95189404739685" lon="-10.634524187288887"><ele>-5.0</ele><time>2026-04-28T11:15:18Z</time></trkpt><trkpt lat="28.95178325443569" lon="-10.634628118407456"><ele>-5.666666666666667</ele><time>2026-04-28T11:15:19Z</time></trkpt><trkpt lat="28.951667132851824" lon="-10.634736518660954"><ele>-6.333333333333334</ele><time>2026-04-28T11:15:20Z</time></trkpt><trkpt lat="28.951497358660863" lon="-10.634945407132234"><ele>-7.0</ele><time>2026-04-28T11:15:21Z</time></trkpt><trkpt lat="28.95140842356077" lon="-10.635097617603288"><ele>-7.0</ele><time>2026-04-28T11:15:22Z</time></trkpt><trkpt lat="28.95132596458732" lon="-10.635241139417658"><ele>-7.0</ele><time>2026-04-28T11:15:23Z</time></trkpt><trkpt lat="28.951241191835432" lon="-10.635386706881615"><ele>-7.0</ele><time>2026-04-28T11:15:24Z</time></trkpt><trkpt lat="28.95116247760899" lon="-10.635517346844933"><ele>-7.0</ele><time>2026-04-28T11:15:25Z</time></trkpt><trkpt lat="28.951072614412713" lon="-10.63565896451935"><ele>-5.0</ele><time>2026-04-28T11:15:26Z</time></trkpt><trkpt lat="28.950986324932956" lon="-10.635793984275587"><ele>-3.0</ele><time>2026-04-28T11:15:27Z</time></trkpt><trkpt lat="28.950899799843945" lon="-10.635930115990435"><ele>-1.0</ele><time>2026-04-28T11:15:28Z</time></trkpt><trkpt lat="28.950796940812747" lon="-10.636090554347657"><ele>-3.5</ele><time>2026-04-28T11:15:29Z</time></trkpt><trkpt lat="28.950715331775754" lon="-10.636232763979937"><ele>-6.0</ele><time>2026-04-28T11:15:30Z</time></trkpt><trkpt lat="28.950632751272618" lon="-10.636376203298465"><ele>-8.5</ele><time>2026-04-28T11:15:31Z</time></trkpt><trkpt lat="28.950557001528352" lon="-10.636507363085018"><ele>-11.0</ele><time>2026-04-28T11:15:32Z</time></trkpt><trkpt lat="28.95048062512729" lon="-10.636639995644048"><ele>-11.0</ele><time>2026-04-28T11:15:33Z</time></trkpt><trkpt lat="28.950412558093316" lon="-10.636751888816397"><ele>-11.0</ele><time>2026-04-28T11:15:34Z</time></trkpt><trkpt lat="28.95033521190609" lon="-10.636877015797728"><ele>-11.0</ele><time>2026-04-28T11:15:35Z</time></trkpt><trkpt lat="28.95025333445733" lon="-10.637008186734182"><ele>-11.0</ele><time>2026-04-28T11:15:36Z</time></trkpt><trkpt lat="28.950170170856396" lon="-10.637141126684009"><ele>-6.666666666666666</ele><time>2026-04-28T11:15:37Z</time></trkpt><trkpt lat="28.95008807097076" lon="-10.637273678780927"><ele>-2.333333333333333</ele><time>2026-04-28T11:15:38Z</time></trkpt><trkpt lat="28.950009517340654" lon="-10.637400533614143"><ele>2.0</ele><time>2026-04-28T11:15:39Z</time></trkpt><trkpt lat="28.94989966807348" lon="-10.637607751316764"><ele>5.0</ele><time>2026-04-28T11:15:40Z</time></trkpt><trkpt lat="28.949830480830055" lon="-10.637754095323633"><ele>8.0</ele><time>2026-04-28T11:15:41Z</time></trkpt><trkpt lat="28.94975671241033" lon="-10.637912261874163"><ele>11.0</ele><time>2026-04-28T11:15:42Z</time></trkpt><trkpt lat="28.949685735740214" lon="-10.638065506955108"><ele>11.0</ele><time>2026-04-28T11:15:43Z</time></trkpt><trkpt lat="28.949629829978516" lon="-10.638167208102194"><ele>11.0</ele><time>2026-04-28T11:15:44Z</time></trkpt><trkpt lat="28.949546538755868" lon="-10.638308651448092"><ele>11.0</ele><time>2026-04-28T11:15:45Z</time></trkpt><trkpt lat="28.949469294382617" lon="-10.638440605053665"><ele>11.0</ele><time>2026-04-28T11:15:46Z</time></trkpt><trkpt lat="28.949393401175136" lon="-10.63857025049562"><ele>9.5</ele><time>2026-04-28T11:15:47Z</time></trkpt><trkpt lat="28.949316422655855" lon="-10.638701744248248"><ele>8.0</ele><time>2026-04-28T11:15:48Z</time></trkpt><trkpt lat="28.94923971460881" lon="-10.638832752032956"><ele>6.5</ele><time>2026-04-28T11:15:49Z</time></trkpt><trkpt lat="28.94916070173159" lon="-10.638968274488438"><ele>5.0</ele><time>2026-04-28T11:15:50Z</time></trkpt><trkpt lat="28.949085936041275" lon="-10.639096670267506"><ele>5.0</ele><time>2026-04-28T11:15:51Z</time></trkpt><trkpt lat="28.94898676465374" lon="-10.639295143177005"><ele>5.0</ele><time>2026-04-28T11:15:52Z</time></trkpt><trkpt lat="28.949415645915582" lon="-10.639699088328177"><ele>3.4</ele><time>2026-04-28T11:15:53Z</time></trkpt><trkpt lat="28.949349813260557" lon="-10.63981205084209"><ele>1.8</ele><time>2026-04-28T11:15:54Z</time></trkpt><trkpt lat="28.949296327339237" lon="-10.639897477623801"><ele>0.20000000000000018</ele><time>2026-04-28T11:15:55Z</time></trkpt><trkpt lat="28.94925219650035" lon="-10.639963122848497"><ele>-1.4</ele><time>2026-04-28T11:15:56Z</time></trkpt><trkpt lat="28.949212724093044" lon="-10.640019675550965"><ele>-3.0</ele><time>2026-04-28T11:15:57Z</time></trkpt><trkpt lat="28.94913618365267" lon="-10.64012548021296"><ele>-3.2857142857142856</ele><time>2026-04-28T11:15:59Z</time></trkpt><trkpt lat="28.949096143213158" lon="-10.640183434613473"><ele>-3.571428571428571</ele><time>2026-04-28T11:16:00Z</time></trkpt><trkpt lat="28.949030016952637" lon="-10.640272598472137"><ele>-3.8571428571428568</ele><time>2026-04-28T11:16:02Z</time></trkpt><trkpt lat="28.94898486797094" lon="-10.640330737997392"><ele>-4.142857142857142</ele><time>2026-04-28T11:16:38Z</time></trkpt><trkpt lat="28.948969798592994" lon="-10.640400598622714"><ele>-4.428571428571429</ele><time>2026-04-28T11:16:47Z</time></trkpt><trkpt lat="28.94892032086198" lon="-10.640455326386745"><ele>-4.714285714285714</ele><time>2026-04-28T11:19:00Z</time></trkpt><trkpt lat="28.94886572001525" lon="-10.640510520684368"><ele>-5.0</ele><time>2026-04-28T11:19:03Z</time></trkpt><trkpt lat="28.94882104384838" lon="-10.640447372339333"><ele>-5.0</ele><time>2026-04-28T11:19:08Z</time></trkpt><trkpt lat="28.948878805002522" lon="-10.640344382606585"><ele>-5.0</ele><time>2026-04-28T11:19:11Z</time></trkpt><trkpt lat="28.94892972240492" lon="-10.640260123759878"><ele>-5.0</ele><time>2026-04-28T11:19:13Z</time></trkpt><trkpt lat="28.949036659603117" lon="-10.64025050429597"><ele>-5.0</ele><time>2026-04-28T11:19:26Z</time></trkpt><trkpt lat="28.949011683076584" lon="-10.64034358141235"><ele>-5.0</ele><time>2026-04-28T11:19:30Z</time></trkpt><trkpt lat="28.948952307534025" lon="-10.64045737259584"><ele>-5.0</ele><time>2026-04-28T11:21:26.001Z</time></trkpt><trkpt lat="28.948903714854193" lon="-10.640568012322689"><ele>-5.0</ele><time>2026-04-28T11:21:28.001Z</time></trkpt><trkpt lat="28.948863914715886" lon="-10.640650134006696"><ele>-5.0</ele><time>2026-04-28T11:21:29.001Z</time></trkpt><trkpt lat="28.948818896307987" lon="-10.640740590024869"><ele>-5.0</ele><time>2026-04-28T11:21:30.001Z</time></trkpt><trkpt lat="28.9487691241283" lon="-10.640829529137887"><ele>-5.0</ele><time>2026-04-28T11:21:31.001Z</time></trkpt><trkpt lat="28.948717566708563" lon="-10.640917161355084"><ele>-5.0</ele><time>2026-04-28T11:21:32.001Z</time></trkpt><trkpt lat="28.948667562199287" lon="-10.641008895422459"><ele>-5.0</ele><time>2026-04-28T11:21:33.001Z</time></trkpt><trkpt lat="28.948610923008022" lon="-10.641106157751034"><ele>-5.0</ele><time>2026-04-28T11:21:34.001Z</time></trkpt><trkpt lat="28.948550926684284" lon="-10.641217447608087"><ele>-5.0</ele><time>2026-04-28T11:21:35.001Z</time></trkpt><trkpt lat="28.94848832238431" lon="-10.641334638029718"><ele>-5.0</ele><time>2026-04-28T11:21:36.001Z</time></trkpt><trkpt lat="28.948415420536072" lon="-10.641463849990448"><ele>-5.0</ele><time>2026-04-28T11:21:37.001Z</time></trkpt><trkpt lat="28.948337931273862" lon="-10.641600042361294"><ele>-5.0</ele><time>2026-04-28T11:21:38.001Z</time></trkpt><trkpt lat="28.948257266147806" lon="-10.641736972833446"><ele>-5.0</ele><time>2026-04-28T11:21:39.001Z</time></trkpt><trkpt lat="28.94817528444855" lon="-10.64187583110584"><ele>-5.0</ele><time>2026-04-28T11:21:40.001Z</time></trkpt><trkpt lat="28.94809127419107" lon="-10.642023751656204"><ele>-5.0</ele><time>2026-04-28T11:21:41.001Z</time></trkpt><trkpt lat="28.948001972021657" lon="-10.64218578406871"><ele>-5.0</ele><time>2026-04-28T11:21:42.001Z</time></trkpt><trkpt lat="28.9479096175628" lon="-10.642363559783075"><ele>-5.0</ele><time>2026-04-28T11:21:43.001Z</time></trkpt><trkpt lat="28.947820026365296" lon="-10.64253573675912"><ele>-3.3333333333333335</ele><time>2026-04-28T11:21:44.001Z</time></trkpt><trkpt lat="28.947729688715015" lon="-10.642710513328018"><ele>-1.6666666666666667</ele><time>2026-04-28T11:21:45.001Z</time></trkpt><trkpt lat="28.947629167217613" lon="-10.642896362172609"><ele>0.0</ele><time>2026-04-28T11:21:46.001Z</time></trkpt><trkpt lat="28.94751889992218" lon="-10.643088182067821"><ele>-2.3333333333333335</ele><time>2026-04-28T11:21:47.001Z</time></trkpt><trkpt lat="28.947408134363172" lon="-10.643288263215219"><ele>-4.666666666666667</ele><time>2026-04-28T11:21:48.001Z</time></trkpt><trkpt lat="28.94730271471543" lon="-10.643492764066872"><ele>-7.0</ele><time>2026-04-28T11:21:49.001Z</time></trkpt><trkpt lat="28.947201613712426" lon="-10.643685129293669"><ele>-7.0</ele><time>2026-04-28T11:21:50.001Z</time></trkpt><trkpt lat="28.947105095931118" lon="-10.643864917028147"><ele>-7.0</ele><time>2026-04-28T11:21:51.001Z</time></trkpt><trkpt lat="28.947012938468372" lon="-10.644036653968575"><ele>-7.0</ele><time>2026-04-28T11:21:52.001Z</time></trkpt><trkpt lat="28.946923415816205" lon="-10.644213842316626"><ele>-7.0</ele><time>2026-04-28T11:21:53.001Z</time></trkpt><trkpt lat="28.94684743040027" lon="-10.644367526437424"><ele>-7.0</ele><time>2026-04-28T11:21:54.001Z</time></trkpt><trkpt lat="28.94677586919761" lon="-10.644507986307739"><ele>-7.0</ele><time>2026-04-28T11:21:55.001Z</time></trkpt><trkpt lat="28.94670974995981" lon="-10.644636584430641"><ele>-7.0</ele><time>2026-04-28T11:21:56.001Z</time></trkpt><trkpt lat="28.946660604212962" lon="-10.644727957991917"><ele>-6.0</ele><time>2026-04-28T11:21:57.001Z</time></trkpt><trkpt lat="28.946591461286708" lon="-10.644850686032665"><ele>-5.0</ele><time>2026-04-28T11:21:59.001Z</time></trkpt><trkpt lat="28.946539751545057" lon="-10.64493753139722"><ele>-4.0</ele><time>2026-04-28T11:22:00.001Z</time></trkpt><trkpt lat="28.94647543267991" lon="-10.645046791048621"><ele>-3.0</ele><time>2026-04-28T11:22:01.001Z</time></trkpt><trkpt lat="28.94640346173768" lon="-10.645166624927153"><ele>-3.0</ele><time>2026-04-28T11:22:02.001Z</time></trkpt><trkpt lat="28.94632644686207" lon="-10.645295423123125"><ele>-3.0</ele><time>2026-04-28T11:22:03.001Z</time></trkpt><trkpt lat="28.94625213670446" lon="-10.645428561055697"><ele>-3.0</ele><time>2026-04-28T11:22:04.001Z</time></trkpt><trkpt lat="28.946176644499356" lon="-10.645568465846095"><ele>-3.0</ele><time>2026-04-28T11:22:05.001Z</time></trkpt><trkpt lat="28.94609594389269" lon="-10.645716332598756"><ele>-0.6666666666666667</ele><time>2026-04-28T11:22:06.001Z</time></trkpt><trkpt lat="28.946012707067144" lon="-10.645862583608844"><ele>1.6666666666666665</ele><time>2026-04-28T11:22:07.001Z</time></trkpt><trkpt lat="28.94592638760455" lon="-10.646010106254733"><ele>4.0</ele><time>2026-04-28T11:22:08.001Z</time></trkpt><trkpt lat="28.945835868468254" lon="-10.646160215836336"><ele>4.0</ele><time>2026-04-28T11:22:09.001Z</time></trkpt><trkpt lat="28.945748586559333" lon="-10.646305725878623"><ele>4.0</ele><time>2026-04-28T11:22:10.001Z</time></trkpt><trkpt lat="28.94566851776153" lon="-10.646450745188698"><ele>4.0</ele><time>2026-04-28T11:22:11.001Z</time></trkpt><trkpt lat="28.945593767140526" lon="-10.646593507436075"><ele>1.0</ele><time>2026-04-28T11:22:12.001Z</time></trkpt><trkpt lat="28.945520152117847" lon="-10.646734173285857"><ele>-2.0</ele><time>2026-04-28T11:22:13.001Z</time></trkpt><trkpt lat="28.945453328190467" lon="-10.646864379695225"><ele>-5.0</ele><time>2026-04-28T11:22:14.001Z</time></trkpt><trkpt lat="28.94539878005016" lon="-10.646962796256762"><ele>-8.0</ele><time>2026-04-28T11:22:15.001Z</time></trkpt><trkpt lat="28.94535362265236" lon="-10.647037442630516"><ele>-8.0</ele><time>2026-04-28T11:22:16.001Z</time></trkpt><trkpt lat="28.94529379381815" lon="-10.647146124497635"><ele>-8.0</ele><time>2026-04-28T11:22:18.001Z</time></trkpt><trkpt lat="28.94525005349849" lon="-10.647229500643009"><ele>-8.0</ele><time>2026-04-28T11:22:20.001Z</time></trkpt><trkpt lat="28.94521356775358" lon="-10.647326025220787"><ele>-8.0</ele><time>2026-04-28T11:24:38Z</time></trkpt><trkpt lat="28.945159854577955" lon="-10.647413578169715"><ele>-8.0</ele><time>2026-04-28T11:24:40Z</time></trkpt><trkpt lat="28.94512555245793" lon="-10.64748048069008"><ele>-8.0</ele><time>2026-04-28T11:24:41Z</time></trkpt><trkpt lat="28.945083662916158" lon="-10.647569209380832"><ele>-8.0</ele><time>2026-04-28T11:24:42Z</time></trkpt><trkpt lat="28.945024219887458" lon="-10.647673858129593"><ele>-8.0</ele><time>2026-04-28T11:24:43Z</time></trkpt><trkpt lat="28.944953198085116" lon="-10.647784209297203"><ele>-8.0</ele><time>2026-04-28T11:24:44Z</time></trkpt><trkpt lat="28.94487601710451" lon="-10.647911651058331"><ele>-6.0</ele><time>2026-04-28T11:24:45Z</time></trkpt><trkpt lat="28.94479525090433" lon="-10.648054194676527"><ele>-4.0</ele><time>2026-04-28T11:24:46Z</time></trkpt><trkpt lat="28.94471468188671" lon="-10.648200171314501"><ele>-2.0</ele><time>2026-04-28T11:24:47Z</time></trkpt><trkpt lat="28.94464409529912" lon="-10.648330980629263"><ele>0.0</ele><time>2026-04-28T11:24:48Z</time></trkpt><trkpt lat="28.944564598260555" lon="-10.648473130032187"><ele>-1.6666666666666667</ele><time>2026-04-28T11:24:49Z</time></trkpt><trkpt lat="28.94448547137679" lon="-10.648639168857986"><ele>-3.3333333333333335</ele><time>2026-04-28T11:24:50Z</time></trkpt><trkpt lat="28.944398246326337" lon="-10.648814524575911"><ele>-5.0</ele><time>2026-04-28T11:24:51Z</time></trkpt><trkpt lat="28.94432659886124" lon="-10.648973771435406"><ele>-5.0</ele><time>2026-04-28T11:24:52Z</time></trkpt><trkpt lat="28.944256274328033" lon="-10.64911755040811"><ele>-5.0</ele><time>2026-04-28T11:24:53Z</time></trkpt><trkpt lat="28.944185991388437" lon="-10.649251075247737"><ele>-5.0</ele><time>2026-04-28T11:24:54Z</time></trkpt><trkpt lat="28.944105623436798" lon="-10.64939876086982"><ele>-5.0</ele><time>2026-04-28T11:24:55Z</time></trkpt><trkpt lat="28.944025154988697" lon="-10.649556349765218"><ele>-5.0</ele><time>2026-04-28T11:24:56Z</time></trkpt><trkpt lat="28.943935204350435" lon="-10.649718053150947"><ele>-5.0</ele><time>2026-04-28T11:24:57Z</time></trkpt><trkpt lat="28.94383840412924" lon="-10.649886573686313"><ele>-5.0</ele><time>2026-04-28T11:24:58Z</time></trkpt><trkpt lat="28.943744560131805" lon="-10.650047311912758"><ele>-3.0</ele><time>2026-04-28T11:24:59Z</time></trkpt><trkpt lat="28.943641573899885" lon="-10.650216372483372"><ele>-1.0</ele><time>2026-04-28T11:25:00Z</time></trkpt><trkpt lat="28.943533428786722" lon="-10.650399939820549"><ele>1.0</ele><time>2026-04-28T11:25:01Z</time></trkpt><trkpt lat="28.943428032994365" lon="-10.650580152615193"><ele>1.0</ele><time>2026-04-28T11:25:02Z</time></trkpt><trkpt lat="28.943332977136958" lon="-10.650736494315852"><ele>1.0</ele><time>2026-04-28T11:25:03Z</time></trkpt><trkpt lat="28.943235734664416" lon="-10.650884812261834"><ele>1.0</ele><time>2026-04-28T11:25:04Z</time></trkpt><trkpt lat="28.94314351721977" lon="-10.65102547418713"><ele>1.0</ele><time>2026-04-28T11:25:05Z</time></trkpt><trkpt lat="28.943063206638925" lon="-10.65115411057384"><ele>1.0</ele><time>2026-04-28T11:25:06Z</time></trkpt><trkpt lat="28.942991859887247" lon="-10.651270415415766"><ele>1.0</ele><time>2026-04-28T11:25:07Z</time></trkpt><trkpt lat="28.942926828013405" lon="-10.651366937942608"><ele>1.0</ele><time>2026-04-28T11:25:08Z</time></trkpt><trkpt lat="28.94287263109149" lon="-10.651438330444725"><ele>0.6666666666666666</ele><time>2026-04-28T11:25:09Z</time></trkpt><trkpt lat="28.942826521133775" lon="-10.651500502486869"><ele>0.3333333333333333</ele><time>2026-04-28T11:25:10Z</time></trkpt><trkpt lat="28.94277902521327" lon="-10.651565997965458"><ele>0.0</ele><time>2026-04-28T11:25:11Z</time></trkpt><trkpt lat="28.942729446325796" lon="-10.651624523897093"><ele>-0.3333333333333333</ele><time>2026-04-28T11:25:12Z</time></trkpt><trkpt lat="28.94267646265303" lon="-10.651669840012197"><ele>-0.6666666666666666</ele><time>2026-04-28T11:25:13Z</time></trkpt><trkpt lat="28.94258903926269" lon="-10.651703213579816"><ele>-1.0</ele><time>2026-04-28T11:25:15Z</time></trkpt><trkpt lat="28.942511541608493" lon="-10.651672680669828"><ele>-1.0</ele><time>2026-04-28T11:25:17Z</time></trkpt><trkpt lat="28.942480942123748" lon="-10.651577361297978"><ele>-1.0</ele><time>2026-04-28T11:25:19Z</time></trkpt><trkpt lat="28.942546231090443" lon="-10.651438486038938"><ele>-1.0</ele><time>2026-04-28T11:25:21Z</time></trkpt><trkpt lat="28.942590270910028" lon="-10.651367723689203"><ele>-1.0</ele><time>2026-04-28T11:25:22Z</time></trkpt><trkpt lat="28.942638763181602" lon="-10.65129930605784"><ele>-1.0</ele><time>2026-04-28T11:25:23Z</time></trkpt><trkpt lat="28.942698682747825" lon="-10.651225717182422"><ele>-1.0</ele><time>2026-04-28T11:25:24Z</time></trkpt><trkpt lat="28.942764513389793" lon="-10.651149085113603"><ele>-1.0</ele><time>2026-04-28T11:25:25Z</time></trkpt><trkpt lat="28.942831402252523" lon="-10.6510680038811"><ele>-1.0</ele><time>2026-04-28T11:25:26Z</time></trkpt><trkpt lat="28.942897704341473" lon="-10.650991425310083"><ele>-1.0</ele><time>2026-04-28T11:25:27Z</time></trkpt><trkpt lat="28.942965301067566" lon="-10.650921937811345"><ele>-1.0</ele><time>2026-04-28T11:25:28Z</time></trkpt><trkpt lat="28.943036649812836" lon="-10.650855998890453"><ele>-0.6666666666666666</ele><time>2026-04-28T11:25:29Z</time></trkpt><trkpt lat="28.94310687354211" lon="-10.650789755598728"><ele>-0.3333333333333333</ele><time>2026-04-28T11:25:30Z</time></trkpt><trkpt lat="28.94316999176031" lon="-10.650722643869353"><ele>0.0</ele><time>2026-04-28T11:25:31Z</time></trkpt><trkpt lat="28.943226272741292" lon="-10.650657042966667"><ele>0.3333333333333333</ele><time>2026-04-28T11:25:32Z</time></trkpt><trkpt lat="28.94327616423941" lon="-10.650597461649923"><ele>0.6666666666666666</ele><time>2026-04-28T11:25:33Z</time></trkpt><trkpt lat="28.943327705804776" lon="-10.65054106475586"><ele>1.0</ele><time>2026-04-28T11:25:34.001Z</time></trkpt><trkpt lat="28.94341550671059" lon="-10.650441254347914"><ele>0.9999999999999999</ele><time>2026-04-28T11:25:36.001Z</time></trkpt><trkpt lat="28.9434854797432" lon="-10.65034114697722"><ele>1.0</ele><time>2026-04-28T11:25:38.001Z</time></trkpt><trkpt lat="28.94351304220725" lon="-10.650256635615134"><ele>1.0</ele><time>2026-04-28T11:25:40.001Z</time></trkpt><trkpt lat="28.943559984306283" lon="-10.650181917603192"><ele>1.0</ele><time>2026-04-28T11:25:43.001Z</time></trkpt><trkpt lat="28.943647267569162" lon="-10.650169404621561"><ele>0.9999999999999999</ele><time>2026-04-28T11:26:39Z</time></trkpt><trkpt lat="28.943697828996214" lon="-10.650237620084628"><ele>1.0</ele><time>2026-04-28T11:26:42Z</time></trkpt><trkpt lat="28.943654916797342" lon="-10.650291069324902"><ele>1.0</ele><time>2026-04-28T11:26:44Z</time></trkpt><trkpt lat="28.9435852913402" lon="-10.650243203578192"><ele>1.0</ele><time>2026-04-28T11:26:55Z</time></trkpt><trkpt lat="28.943516513721683" lon="-10.650290112207259"><ele>1.0</ele><time>2026-04-28T11:30:22.001Z</time></trkpt><trkpt lat="28.94348887271818" lon="-10.650401368535514"><ele>1.0</ele><time>2026-04-28T11:30:24.001Z</time></trkpt><trkpt lat="28.943446890442733" lon="-10.650536674000179"><ele>1.0</ele><time>2026-04-28T11:30:26.001Z</time></trkpt><trkpt lat="28.94341664211576" lon="-10.650607316652657"><ele>0.9999999999999999</ele><time>2026-04-28T11:30:27.001Z</time></trkpt><trkpt lat="28.943382981525193" lon="-10.650685047441286"><ele>1.0</ele><time>2026-04-28T11:30:28.001Z</time></trkpt><trkpt lat="28.94334712465089" lon="-10.650769873001558"><ele>1.0</ele><time>2026-04-28T11:30:29.001Z</time></trkpt><trkpt lat="28.94330827936364" lon="-10.650852729325667"><ele>1.0</ele><time>2026-04-28T11:30:30.001Z</time></trkpt><trkpt lat="28.943264592713373" lon="-10.650940955103335"><ele>0.9999999999999999</ele><time>2026-04-28T11:30:31.001Z</time></trkpt><trkpt lat="28.94321522025795" lon="-10.65102393595207"><ele>1.0</ele><time>2026-04-28T11:30:32.001Z</time></trkpt><trkpt lat="28.943166510275788" lon="-10.651100550889277"><ele>0.9999999999999999</ele><time>2026-04-28T11:30:33.001Z</time></trkpt><trkpt lat="28.943120888485797" lon="-10.651171259176037"><ele>1.0</ele><time>2026-04-28T11:30:34.001Z</time></trkpt><trkpt lat="28.943079707290636" lon="-10.6512449902099"><ele>1.0</ele><time>2026-04-28T11:30:35.001Z</time></trkpt><trkpt lat="28.943037677516507" lon="-10.651322008165861"><ele>1.0</ele><time>2026-04-28T11:30:36.001Z</time></trkpt><trkpt lat="28.942994572392518" lon="-10.651401972245282"><ele>0.9999999999999999</ele><time>2026-04-28T11:30:37.001Z</time></trkpt><trkpt lat="28.942955021284092" lon="-10.651484400737056"><ele>1.0</ele><time>2026-04-28T11:30:38.001Z</time></trkpt><trkpt lat="28.942914020304237" lon="-10.651563680390863"><ele>1.3333333333333333</ele><time>2026-04-28T11:30:39.001Z</time></trkpt><trkpt lat="28.94287468408748" lon="-10.651639249688701"><ele>1.6666666666666665</ele><time>2026-04-28T11:30:40.001Z</time></trkpt><trkpt lat="28.94283308160346" lon="-10.651699274032241"><ele>2.0</ele><time>2026-04-28T11:30:41.001Z</time></trkpt><trkpt lat="28.942751587027924" lon="-10.651786555458797"><ele>2.3333333333333335</ele><time>2026-04-28T11:30:43.001Z</time></trkpt><trkpt lat="28.9426706900819" lon="-10.65183007740778"><ele>2.6666666666666665</ele><time>2026-04-28T11:30:45.001Z</time></trkpt><trkpt lat="28.942647840313846" lon="-10.651911055372992"><ele>3.0</ele><time>2026-04-28T11:30:49.001Z</time></trkpt><trkpt lat="28.94263643209061" lon="-10.651990876940094"><ele>3.0</ele><time>2026-04-28T11:30:51.001Z</time></trkpt><trkpt lat="28.942604911871303" lon="-10.652063830118541"><ele>3.0</ele><time>2026-04-28T11:30:53.001Z</time></trkpt><trkpt lat="28.942534753204566" lon="-10.652081618579434"><ele>3.0</ele><time>2026-04-28T11:31:22Z</time></trkpt><trkpt lat="28.942475688577172" lon="-10.651997811519513"><ele>3.0</ele><time>2026-04-28T11:31:25Z</time></trkpt><trkpt lat="28.94251804360405" lon="-10.651917533761996"><ele>3.0</ele><time>2026-04-28T11:31:27Z</time></trkpt><trkpt lat="28.94259310798966" lon="-10.651829749005667"><ele>3.0</ele><time>2026-04-28T11:31:29Z</time></trkpt><trkpt lat="28.942657525538035" lon="-10.651764656901504"><ele>3.0</ele><time>2026-04-28T11:31:31Z</time></trkpt><trkpt lat="28.942743463021717" lon="-10.651759110731254"><ele>3.0</ele><time>2026-04-28T11:31:33Z</time></trkpt><trkpt lat="28.942763372651402" lon="-10.651842944457245"><ele>3.0</ele><time>2026-04-28T11:31:42Z</time></trkpt><trkpt lat="28.94272353006841" lon="-10.651934599595096"><ele>3.0</ele><time>2026-04-28T11:31:45.001Z</time></trkpt><trkpt lat="28.942647597756114" lon="-10.652054124235685"><ele>3.0</ele><time>2026-04-28T11:31:47.001Z</time></trkpt><trkpt lat="28.942597529485464" lon="-10.652139797878883"><ele>3.4</ele><time>2026-04-28T11:31:48.001Z</time></trkpt><trkpt lat="28.94254613533779" lon="-10.652205748007157"><ele>3.8</ele><time>2026-04-28T11:31:49.001Z</time></trkpt><trkpt lat="28.942475858882986" lon="-10.652276180978037"><ele>4.2</ele><time>2026-04-28T11:31:51.001Z</time></trkpt><trkpt lat="28.94239521607376" lon="-10.652264409942621"><ele>4.6</ele><time>2026-04-28T11:31:53.001Z</time></trkpt><trkpt lat="28.94236909502293" lon="-10.652173820627473"><ele>5.0</ele><time>2026-04-28T11:31:55.001Z</time></trkpt><trkpt lat="28.942425931892696" lon="-10.652058299407992"><ele>5.0</ele><time>2026-04-28T11:31:57.001Z</time></trkpt><trkpt lat="28.94250874595644" lon="-10.65195862959391"><ele>5.0</ele><time>2026-04-28T11:31:59.001Z</time></trkpt><trkpt lat="28.94258689492285" lon="-10.651909376104378"><ele>5.0</ele><time>2026-04-28T11:32:01.001Z</time></trkpt><trkpt lat="28.942643106338735" lon="-10.651950673838614"><ele>5.0</ele><time>2026-04-28T11:32:03.001Z</time></trkpt><trkpt lat="28.942597068355585" lon="-10.652040571893332"><ele>5.0</ele><time>2026-04-28T11:32:06.001Z</time></trkpt><trkpt lat="28.942531409103008" lon="-10.652054747429215"><ele>5.0</ele><time>2026-04-28T11:32:28.001Z</time></trkpt><trkpt lat="28.942469540560023" lon="-10.652040071566118"><ele>5.0</ele><time>2026-04-28T11:32:30.001Z</time></trkpt><trkpt lat="28.942475029755986" lon="-10.651967076165757"><ele>5.0</ele><time>2026-04-28T11:32:32.001Z</time></trkpt><trkpt lat="28.942511732541135" lon="-10.651880472417922"><ele>5.0</ele><time>2026-04-28T11:32:34.001Z</time></trkpt><trkpt lat="28.94256764336943" lon="-10.651770730080797"><ele>5.0</ele><time>2026-04-28T11:32:36.001Z</time></trkpt><trkpt lat="28.942613069810363" lon="-10.651703912915606"><ele>5.0</ele><time>2026-04-28T11:32:37.001Z</time></trkpt><trkpt lat="28.942666197792633" lon="-10.65162836418955"><ele>5.0</ele><time>2026-04-28T11:32:38.001Z</time></trkpt><trkpt lat="28.942718330863737" lon="-10.651556772871796"><ele>5.0</ele><time>2026-04-28T11:32:39.001Z</time></trkpt><trkpt lat="28.942765901085732" lon="-10.651490651388873"><ele>5.0</ele><time>2026-04-28T11:32:40.001Z</time></trkpt><trkpt lat="28.94281072203174" lon="-10.651429533146553"><ele>5.0</ele><time>2026-04-28T11:32:41.001Z</time></trkpt><trkpt lat="28.942855166148014" lon="-10.651370822437585"><ele>5.0</ele><time>2026-04-28T11:32:42.001Z</time></trkpt><trkpt lat="28.94294364905788" lon="-10.651271907640183"><ele>5.0</ele><time>2026-04-28T11:32:44.001Z</time></trkpt><trkpt lat="28.942993969400366" lon="-10.651205858826895"><ele>5.0</ele><time>2026-04-28T11:32:46.001Z</time></trkpt><trkpt lat="28.943051771348653" lon="-10.651174987983609"><ele>5.0</ele><time>2026-04-28T11:32:48.001Z</time></trkpt><trkpt lat="28.943104778655176" lon="-10.651255042818443"><ele>5.0</ele><time>2026-04-28T11:32:51.001Z</time></trkpt><trkpt lat="28.943072483902437" lon="-10.651358441024723"><ele>5.0</ele><time>2026-04-28T11:32:53.001Z</time></trkpt><trkpt lat="28.9430021748198" lon="-10.651456285079169"><ele>5.0</ele><time>2026-04-28T11:32:55.001Z</time></trkpt><trkpt lat="28.942955229187728" lon="-10.651513517716053"><ele>5.0</ele><time>2026-04-28T11:32:56.001Z</time></trkpt><trkpt lat="28.94289263910793" lon="-10.651592906395953"><ele>4.6</ele><time>2026-04-28T11:32:57.001Z</time></trkpt><trkpt lat="28.942825198068814" lon="-10.65167836652122"><ele>4.2</ele><time>2026-04-28T11:32:58.001Z</time></trkpt><trkpt lat="28.942768314991472" lon="-10.651764725991578"><ele>3.8</ele><time>2026-04-28T11:32:59Z</time></trkpt><trkpt lat="28.942726571008905" lon="-10.651853548575916"><ele>3.4</ele><time>2026-04-28T11:33:00Z</time></trkpt><trkpt lat="28.942689870323715" lon="-10.651941339814865"><ele>3.0</ele><time>2026-04-28T11:33:01Z</time></trkpt><trkpt lat="28.942643427864315" lon="-10.652031146638544"><ele>3.0</ele><time>2026-04-28T11:33:02Z</time></trkpt><trkpt lat="28.9425839532933" lon="-10.652142679054455"><ele>3.0</ele><time>2026-04-28T11:33:03Z</time></trkpt><trkpt lat="28.942516626344005" lon="-10.6522528148926"><ele>3.0</ele><time>2026-04-28T11:33:04Z</time></trkpt><trkpt lat="28.942470118945923" lon="-10.652315553221312"><ele>3.0</ele><time>2026-04-28T11:33:05Z</time></trkpt><trkpt lat="28.942392482866033" lon="-10.652351927734514"><ele>3.0</ele><time>2026-04-28T11:33:07Z</time></trkpt><trkpt lat="28.942325038441" lon="-10.652297160405348"><ele>3.0</ele><time>2026-04-28T11:33:09Z</time></trkpt><trkpt lat="28.942349242550094" lon="-10.652177243903935"><ele>3.0</ele><time>2026-04-28T11:33:11Z</time></trkpt><trkpt lat="28.942397631683342" lon="-10.65211650213318"><ele>3.0</ele><time>2026-04-28T11:33:12Z</time></trkpt><trkpt lat="28.942453894567635" lon="-10.652054663827524"><ele>3.0</ele><time>2026-04-28T11:33:13Z</time></trkpt><trkpt lat="28.94250752862376" lon="-10.651999726513004"><ele>3.0</ele><time>2026-04-28T11:33:14Z</time></trkpt><trkpt lat="28.942568467014127" lon="-10.651967948264824"><ele>3.0</ele><time>2026-04-28T11:33:16Z</time></trkpt><trkpt lat="28.942627708280273" lon="-10.651997468791798"><ele>3.0</ele><time>2026-04-28T11:35:52Z</time></trkpt><trkpt lat="28.942588244462648" lon="-10.652108707887548"><ele>3.0</ele><time>2026-04-28T11:35:55Z</time></trkpt><trkpt lat="28.9425439963075" lon="-10.65217691933685"><ele>3.0</ele><time>2026-04-28T11:35:57Z</time></trkpt><trkpt lat="28.942494383889574" lon="-10.652277645094928"><ele>3.0</ele><time>2026-04-28T11:35:59Z</time></trkpt><trkpt lat="28.942447564139183" lon="-10.652370366277749"><ele>3.0</ele><time>2026-04-28T11:36:01Z</time></trkpt><trkpt lat="28.94237567815913" lon="-10.652467923876857"><ele>3.3333333333333335</ele><time>2026-04-28T11:36:03Z</time></trkpt><trkpt lat="28.94228693861996" lon="-10.652554213789143"><ele>3.666666666666667</ele><time>2026-04-28T11:36:05Z</time></trkpt><trkpt lat="28.94224294388774" lon="-10.652607542074849"><ele>4.0</ele><time>2026-04-28T11:36:06Z</time></trkpt><trkpt lat="28.942198276650487" lon="-10.652675377145203"><ele>4.333333333333334</ele><time>2026-04-28T11:36:07Z</time></trkpt><trkpt lat="28.94214808667593" lon="-10.652748065478265"><ele>4.666666666666667</ele><time>2026-04-28T11:36:08Z</time></trkpt><trkpt lat="28.94209192277423" lon="-10.652817508252639"><ele>5.0</ele><time>2026-04-28T11:36:09Z</time></trkpt><trkpt lat="28.94203626020512" lon="-10.652891327399024"><ele>4.166666666666667</ele><time>2026-04-28T11:36:10Z</time></trkpt><trkpt lat="28.941981471338067" lon="-10.652968540094692"><ele>3.3333333333333335</ele><time>2026-04-28T11:36:11Z</time></trkpt><trkpt lat="28.941930575412364" lon="-10.65304777900281"><ele>2.5</ele><time>2026-04-28T11:36:12Z</time></trkpt><trkpt lat="28.941884526509238" lon="-10.653122557715266"><ele>1.6666666666666667</ele><time>2026-04-28T11:36:13Z</time></trkpt><trkpt lat="28.94184005053636" lon="-10.653199636258082"><ele>0.8333333333333334</ele><time>2026-04-28T11:36:14Z</time></trkpt><trkpt lat="28.941793837723807" lon="-10.653289631941375"><ele>0.0</ele><time>2026-04-28T11:36:15Z</time></trkpt><trkpt lat="28.94174585367326" lon="-10.653382838695599"><ele>-2.6</ele><time>2026-04-28T11:36:16Z</time></trkpt><trkpt lat="28.941694813146444" lon="-10.653478719126145"><ele>-5.2</ele><time>2026-04-28T11:36:17Z</time></trkpt><trkpt lat="28.941642911229778" lon="-10.653587640318868"><ele>-7.800000000000001</ele><time>2026-04-28T11:36:18Z</time></trkpt><trkpt lat="28.941593803536648" lon="-10.653698126258671"><ele>-10.4</ele><time>2026-04-28T11:36:19Z</time></trkpt><trkpt lat="28.94154424640712" lon="-10.653804498501417"><ele>-13.0</ele><time>2026-04-28T11:36:20Z</time></trkpt><trkpt lat="28.941489567809718" lon="-10.65390952762745"><ele>-13.0</ele><time>2026-04-28T11:36:21Z</time></trkpt><trkpt lat="28.94143139263072" lon="-10.654004693135274"><ele>-13.0</ele><time>2026-04-28T11:36:22Z</time></trkpt><trkpt lat="28.941375532866644" lon="-10.65408879907451"><ele>-13.0</ele><time>2026-04-28T11:36:23Z</time></trkpt><trkpt lat="28.941319416375453" lon="-10.65417316434957"><ele>-13.0</ele><time>2026-04-28T11:36:24Z</time></trkpt><trkpt lat="28.94125927877588" lon="-10.65426597961963"><ele>-13.0</ele><time>2026-04-28T11:36:25Z</time></trkpt><trkpt lat="28.941202507057916" lon="-10.654365631000402"><ele>-12.5</ele><time>2026-04-28T11:36:26Z</time></trkpt><trkpt lat="28.941142064520374" lon="-10.654474465899533"><ele>-12.0</ele><time>2026-04-28T11:36:27Z</time></trkpt><trkpt lat="28.941083019267552" lon="-10.654595059971948"><ele>-11.5</ele><time>2026-04-28T11:36:28Z</time></trkpt><trkpt lat="28.941032665132933" lon="-10.654717480926607"><ele>-11.0</ele><time>2026-04-28T11:36:29Z</time></trkpt><trkpt lat="28.94098924102178" lon="-10.654830004552792"><ele>-11.0</ele><time>2026-04-28T11:36:30Z</time></trkpt><trkpt lat="28.940940002160616" lon="-10.65493472561996"><ele>-11.0</ele><time>2026-04-28T11:36:31Z</time></trkpt><trkpt lat="28.9408875133693" lon="-10.65504373761113"><ele>-11.0</ele><time>2026-04-28T11:36:32Z</time></trkpt><trkpt lat="28.940842545367346" lon="-10.65515265353467"><ele>-11.0</ele><time>2026-04-28T11:36:33Z</time></trkpt><trkpt lat="28.94079946852553" lon="-10.655257985144434"><ele>-11.0</ele><time>2026-04-28T11:36:34Z</time></trkpt><trkpt lat="28.940754725630388" lon="-10.655374535498666"><ele>-8.8</ele><time>2026-04-28T11:36:35Z</time></trkpt><trkpt lat="28.940709190169084" lon="-10.655502144699957"><ele>-6.6000000000000005</ele><time>2026-04-28T11:36:36Z</time></trkpt><trkpt lat="28.940663866573114" lon="-10.655628257366667"><ele>-4.4</ele><time>2026-04-28T11:36:37Z</time></trkpt><trkpt lat="28.94061708644311" lon="-10.655739448825043"><ele>-2.2</ele><time>2026-04-28T11:36:38Z</time></trkpt><trkpt lat="28.94057414249791" lon="-10.655840685351738"><ele>0.0</ele><time>2026-04-28T11:36:39Z</time></trkpt><trkpt lat="28.940521363839622" lon="-10.655948008628371"><ele>0.0</ele><time>2026-04-28T11:36:40Z</time></trkpt><trkpt lat="28.94046150793441" lon="-10.656057708288259"><ele>0.0</ele><time>2026-04-28T11:36:41Z</time></trkpt><trkpt lat="28.94039496345905" lon="-10.656170787359184"><ele>0.0</ele><time>2026-04-28T11:36:42Z</time></trkpt><trkpt lat="28.94032584115509" lon="-10.656287799766812"><ele>0.0</ele><time>2026-04-28T11:36:43Z</time></trkpt><trkpt lat="28.940251086504798" lon="-10.656409892119795"><ele>0.0</ele><time>2026-04-28T11:36:44Z</time></trkpt><trkpt lat="28.940175456403573" lon="-10.6565361157393"><ele>0.0</ele><time>2026-04-28T11:36:45Z</time></trkpt><trkpt lat="28.940100426551563" lon="-10.65665844308192"><ele>0.0</ele><time>2026-04-28T11:36:46Z</time></trkpt><trkpt lat="28.940031078584592" lon="-10.656782369855852"><ele>0.0</ele><time>2026-04-28T11:36:47Z</time></trkpt><trkpt lat="28.93996212560984" lon="-10.656903961350745"><ele>-1.75</ele><time>2026-04-28T11:36:48Z</time></trkpt><trkpt lat="28.939893641451434" lon="-10.65703054695353"><ele>-3.5</ele><time>2026-04-28T11:36:49Z</time></trkpt><trkpt lat="28.939825344641097" lon="-10.65716285701637"><ele>-5.25</ele><time>2026-04-28T11:36:50Z</time></trkpt><trkpt lat="28.939760197119206" lon="-10.657298075919119"><ele>-7.0</ele><time>2026-04-28T11:36:51Z</time></trkpt><trkpt lat="28.93969575712268" lon="-10.657435882095655"><ele>-7.0</ele><time>2026-04-28T11:36:52Z</time></trkpt><trkpt lat="28.939627352568298" lon="-10.65757792650357"><ele>-7.0</ele><time>2026-04-28T11:36:53Z</time></trkpt><trkpt lat="28.93955317061545" lon="-10.657719526712134"><ele>-7.0</ele><time>2026-04-28T11:36:54.001Z</time></trkpt><trkpt lat="28.939480674230957" lon="-10.657857241335144"><ele>-7.0</ele><time>2026-04-28T11:36:55.001Z</time></trkpt><trkpt lat="28.939408092220972" lon="-10.657997552606004"><ele>-6.25</ele><time>2026-04-28T11:36:56.001Z</time></trkpt><trkpt lat="28.93933825174672" lon="-10.658139223224545"><ele>-5.5</ele><time>2026-04-28T11:36:57.001Z</time></trkpt><trkpt lat="28.939266815438693" lon="-10.65827485401526"><ele>-4.75</ele><time>2026-04-28T11:36:58.001Z</time></trkpt><trkpt lat="28.9391933853581" lon="-10.658407338442233"><ele>-4.0</ele><time>2026-04-28T11:36:59.001Z</time></trkpt><trkpt lat="28.93912269354951" lon="-10.658540751736284"><ele>-1.75</ele><time>2026-04-28T11:37:00.001Z</time></trkpt><trkpt lat="28.939056016532888" lon="-10.658670026506858"><ele>0.5</ele><time>2026-04-28T11:37:01.001Z</time></trkpt><trkpt lat="28.938993360651644" lon="-10.658799158871776"><ele>2.75</ele><time>2026-04-28T11:37:02.001Z</time></trkpt><trkpt lat="28.93893087089711" lon="-10.658933068396758"><ele>5.0</ele><time>2026-04-28T11:37:03.001Z</time></trkpt><trkpt lat="28.938866329356312" lon="-10.659067804526957"><ele>5.0</ele><time>2026-04-28T11:37:04.001Z</time></trkpt><trkpt lat="28.9387996764791" lon="-10.65919889314106"><ele>5.0</ele><time>2026-04-28T11:37:05.001Z</time></trkpt><trkpt lat="28.938735285621558" lon="-10.659329922685274"><ele>5.0</ele><time>2026-04-28T11:37:06.001Z</time></trkpt><trkpt lat="28.93867335570851" lon="-10.659458119616223"><ele>5.0</ele><time>2026-04-28T11:37:07Z</time></trkpt><trkpt lat="28.93861167790707" lon="-10.659587120630032"><ele>4.75</ele><time>2026-04-28T11:37:08Z</time></trkpt><trkpt lat="28.938548573982352" lon="-10.659715120909379"><ele>4.5</ele><time>2026-04-28T11:37:09Z</time></trkpt><trkpt lat="28.938481294170284" lon="-10.65984613499966"><ele>4.25</ele><time>2026-04-28T11:37:10Z</time></trkpt><trkpt lat="28.938411880072007" lon="-10.659973571321984"><ele>4.0</ele><time>2026-04-28T11:37:11Z</time></trkpt><trkpt lat="28.938343773526345" lon="-10.660094986227792"><ele>4.25</ele><time>2026-04-28T11:37:12Z</time></trkpt><trkpt lat="28.9382755131995" lon="-10.66021712389019"><ele>4.5</ele><time>2026-04-28T11:37:13Z</time></trkpt><trkpt lat="28.938205509580342" lon="-10.660345672933444"><ele>4.75</ele><time>2026-04-28T11:37:14Z</time></trkpt><trkpt lat="28.938130499080582" lon="-10.660477039641066"><ele>5.0</ele><time>2026-04-28T11:37:15Z</time></trkpt><trkpt lat="28.938053560060133" lon="-10.660609729537121"><ele>5.0</ele><time>2026-04-28T11:37:16Z</time></trkpt><trkpt lat="28.937976984807644" lon="-10.660736690037696"><ele>5.0</ele><time>2026-04-28T11:37:17Z</time></trkpt><trkpt lat="28.937900679792563" lon="-10.66085855345279"><ele>5.0</ele><time>2026-04-28T11:37:18Z</time></trkpt><trkpt lat="28.937822114398937" lon="-10.660983645941688"><ele>5.0</ele><time>2026-04-28T11:37:19Z</time></trkpt><trkpt lat="28.937743026167322" lon="-10.661105320020274"><ele>5.6</ele><time>2026-04-28T11:37:20Z</time></trkpt><trkpt lat="28.937673550452274" lon="-10.661212343827419"><ele>6.2</ele><time>2026-04-28T11:37:21Z</time></trkpt><trkpt lat="28.937610569370708" lon="-10.661315944567713"><ele>6.800000000000001</ele><time>2026-04-28T11:37:22Z</time></trkpt><trkpt lat="28.937552098270974" lon="-10.661417227033729"><ele>7.4</ele><time>2026-04-28T11:37:23Z</time></trkpt><trkpt lat="28.937499135826755" lon="-10.661515397330424"><ele>8.0</ele><time>2026-04-28T11:37:24Z</time></trkpt><trkpt lat="28.937444515755715" lon="-10.661612222664148"><ele>6.800000000000001</ele><time>2026-04-28T11:37:25Z</time></trkpt><trkpt lat="28.937387429040033" lon="-10.661710311022805"><ele>5.6000000000000005</ele><time>2026-04-28T11:37:26Z</time></trkpt><trkpt lat="28.9373291514715" lon="-10.661807356179748"><ele>4.4</ele><time>2026-04-28T11:37:27Z</time></trkpt><trkpt lat="28.93727327091314" lon="-10.661897260020416"><ele>3.2</ele><time>2026-04-28T11:37:28Z</time></trkpt><trkpt lat="28.937224184682137" lon="-10.661976845043913"><ele>2.0</ele><time>2026-04-28T11:37:29Z</time></trkpt><trkpt lat="28.937183486799643" lon="-10.662041466328521"><ele>0.9999999999999999</ele><time>2026-04-28T11:37:30Z</time></trkpt><trkpt lat="28.937131096201732" lon="-10.662133942214584"><ele>0.0</ele><time>2026-04-28T11:37:32Z</time></trkpt><trkpt lat="28.937159533382825" lon="-10.6622076441358"><ele>-1.0</ele><time>2026-04-28T11:39:54Z</time></trkpt><trkpt lat="28.93714597842677" lon="-10.662289739179728"><ele>-2.0</ele><time>2026-04-28T11:43:45.999Z</time></trkpt><trkpt lat="28.937092213929187" lon="-10.66235394628504"><ele>-2.9999999999999996</ele><time>2026-04-28T11:43:59Z</time></trkpt><trkpt lat="28.937018243757286" lon="-10.662378795726534"><ele>-4.0</ele><time>2026-04-28T11:44:02Z</time></trkpt><trkpt lat="28.93699234792569" lon="-10.662461183430883"><ele>-4.0</ele><time>2026-04-28T11:47:06Z</time></trkpt><trkpt lat="28.93694246698914" lon="-10.662542750487933"><ele>-4.0</ele><time>2026-04-28T11:47:08Z</time></trkpt><trkpt lat="28.93688729160422" lon="-10.662633607346919"><ele>-4.0</ele><time>2026-04-28T11:47:10Z</time></trkpt><trkpt lat="28.93683519825035" lon="-10.66275747359781"><ele>-4.0</ele><time>2026-04-28T11:47:12Z</time></trkpt><trkpt lat="28.936796203918195" lon="-10.662834122550008"><ele>-4.0</ele><time>2026-04-28T11:47:13Z</time></trkpt><trkpt lat="28.936747648247543" lon="-10.662909946855791"><ele>-7.8</ele><time>2026-04-28T11:47:14Z</time></trkpt><trkpt lat="28.936669764848336" lon="-10.663017835016667"><ele>-11.6</ele><time>2026-04-28T11:47:16Z</time></trkpt><trkpt lat="28.93658913695421" lon="-10.663140429228198"><ele>-15.399999999999999</ele><time>2026-04-28T11:47:18Z</time></trkpt><trkpt lat="28.93655025556881" lon="-10.663204306921942"><ele>-19.2</ele><time>2026-04-28T11:47:19Z</time></trkpt><trkpt lat="28.936504952810203" lon="-10.663280302774956"><ele>-23.0</ele><time>2026-04-28T11:47:20Z</time></trkpt><trkpt lat="28.936456728139497" lon="-10.663363565955887"><ele>-23.0</ele><time>2026-04-28T11:47:21Z</time></trkpt><trkpt lat="28.936408514655554" lon="-10.663448444589799"><ele>-23.0</ele><time>2026-04-28T11:47:22Z</time></trkpt><trkpt lat="28.936361882035825" lon="-10.66353148365864"><ele>-23.0</ele><time>2026-04-28T11:47:23Z</time></trkpt><trkpt lat="28.93631037879659" lon="-10.663622963936888"><ele>-23.0</ele><time>2026-04-28T11:47:24Z</time></trkpt><trkpt lat="28.936261543756082" lon="-10.663720090311438"><ele>-23.0</ele><time>2026-04-28T11:47:25Z</time></trkpt><trkpt lat="28.936209985556683" lon="-10.663829062788004"><ele>-19.2</ele><time>2026-04-28T11:47:26Z</time></trkpt><trkpt lat="28.936161684585127" lon="-10.663939140280936"><ele>-15.399999999999999</ele><time>2026-04-28T11:47:27Z</time></trkpt><trkpt lat="28.936114932387806" lon="-10.664046459885748"><ele>-11.6</ele><time>2026-04-28T11:47:28Z</time></trkpt><trkpt lat="28.936072423062566" lon="-10.664144231113164"><ele>-7.8</ele><time>2026-04-28T11:47:29Z</time></trkpt><trkpt lat="28.93602746421379" lon="-10.664235936025428"><ele>-4.0</ele><time>2026-04-28T11:47:30Z</time></trkpt><trkpt lat="28.935982250265866" lon="-10.664331170035656"><ele>-4.0</ele><time>2026-04-28T11:47:31Z</time></trkpt><trkpt lat="28.935937103681017" lon="-10.664426624063358"><ele>-4.0</ele><time>2026-04-28T11:47:32Z</time></trkpt><trkpt lat="28.935881839675353" lon="-10.664518909000579"><ele>-4.0</ele><time>2026-04-28T11:47:33.001Z</time></trkpt><trkpt lat="28.935821962428953" lon="-10.66460935505337"><ele>-4.0</ele><time>2026-04-28T11:47:34.001Z</time></trkpt><trkpt lat="28.935764225719417" lon="-10.664715341701061"><ele>-4.0</ele><time>2026-04-28T11:47:35.001Z</time></trkpt><trkpt lat="28.935702810239427" lon="-10.664826359391325"><ele>-3.25</ele><time>2026-04-28T11:47:36.001Z</time></trkpt><trkpt lat="28.935645613453204" lon="-10.664925783167833"><ele>-2.5</ele><time>2026-04-28T11:47:37Z</time></trkpt><trkpt lat="28.935573574232503" lon="-10.665058935833134"><ele>-1.75</ele><time>2026-04-28T11:47:38Z</time></trkpt><trkpt lat="28.9355006943376" lon="-10.66519144466395"><ele>-1.0</ele><time>2026-04-28T11:47:39Z</time></trkpt><trkpt lat="28.935431642170585" lon="-10.665319995288305"><ele>-1.0</ele><time>2026-04-28T11:47:40Z</time></trkpt><trkpt lat="28.935366296778234" lon="-10.665445909634668"><ele>-1.0</ele><time>2026-04-28T11:47:41Z</time></trkpt><trkpt lat="28.935292132694347" lon="-10.665576912990534"><ele>-1.0</ele><time>2026-04-28T11:47:42Z</time></trkpt><trkpt lat="28.935228634561323" lon="-10.665712735918138"><ele>-1.0</ele><time>2026-04-28T11:47:43Z</time></trkpt><trkpt lat="28.935153267882836" lon="-10.665851735273844"><ele>-1.0</ele><time>2026-04-28T11:47:44Z</time></trkpt><trkpt lat="28.935078555025356" lon="-10.666002360221585"><ele>-1.0</ele><time>2026-04-28T11:47:45Z</time></trkpt><trkpt lat="28.934999579703497" lon="-10.666137431001621"><ele>-1.0</ele><time>2026-04-28T11:47:46Z</time></trkpt><trkpt lat="28.934929851250946" lon="-10.666260977769888"><ele>-1.0</ele><time>2026-04-28T11:47:47Z</time></trkpt><trkpt lat="28.934854761927014" lon="-10.666387355580797"><ele>-1.5</ele><time>2026-04-28T11:47:48Z</time></trkpt><trkpt lat="28.934779573792063" lon="-10.666523293082312"><ele>-2.0</ele><time>2026-04-28T11:47:49Z</time></trkpt><trkpt lat="28.93469387411692" lon="-10.66665759604023"><ele>-2.5</ele><time>2026-04-28T11:47:50Z</time></trkpt><trkpt lat="28.93460492639331" lon="-10.666803075724083"><ele>-3.0</ele><time>2026-04-28T11:47:51Z</time></trkpt><trkpt lat="28.934512785271334" lon="-10.666946134341652"><ele>-3.0</ele><time>2026-04-28T11:47:52Z</time></trkpt><trkpt lat="28.934422542995705" lon="-10.667089416341936"><ele>-3.0</ele><time>2026-04-28T11:47:53Z</time></trkpt><trkpt lat="28.934330928440193" lon="-10.66724547747378"><ele>-3.0</ele><time>2026-04-28T11:47:54Z</time></trkpt><trkpt lat="28.934235861178898" lon="-10.667408192583265"><ele>-1.3333333333333335</ele><time>2026-04-28T11:47:55Z</time></trkpt><trkpt lat="28.93414538669195" lon="-10.667578692349563"><ele>0.33333333333333326</ele><time>2026-04-28T11:47:56Z</time></trkpt><trkpt lat="28.93405545935775" lon="-10.667744887290924"><ele>2.0</ele><time>2026-04-28T11:47:57Z</time></trkpt><trkpt lat="28.933964309832596" lon="-10.667923546473531"><ele>2.0</ele><time>2026-04-28T11:47:58Z</time></trkpt><trkpt lat="28.93387698696825" lon="-10.668097745336624"><ele>2.0</ele><time>2026-04-28T11:47:59Z</time></trkpt><trkpt lat="28.93380690568846" lon="-10.66828611142022"><ele>2.0</ele><time>2026-04-28T11:48:00Z</time></trkpt><trkpt lat="28.933727709948446" lon="-10.668468021848216"><ele>0.6666666666666666</ele><time>2026-04-28T11:48:01Z</time></trkpt><trkpt lat="28.933638885361187" lon="-10.668647297725123"><ele>-0.6666666666666666</ele><time>2026-04-28T11:48:02Z</time></trkpt><trkpt lat="28.933541937371054" lon="-10.66882722769937"><ele>-2.0</ele><time>2026-04-28T11:48:03Z</time></trkpt><trkpt lat="28.93344000346267" lon="-10.66900870277804"><ele>-1.3333333333333333</ele><time>2026-04-28T11:48:04Z</time></trkpt><trkpt lat="28.93334275976719" lon="-10.669185983019387"><ele>-0.6666666666666666</ele><time>2026-04-28T11:48:05Z</time></trkpt><trkpt lat="28.933243082723408" lon="-10.669363946137885"><ele>0.0</ele><time>2026-04-28T11:48:06Z</time></trkpt><trkpt lat="28.933138733201375" lon="-10.669544921881863"><ele>0.0</ele><time>2026-04-28T11:48:07Z</time></trkpt><trkpt lat="28.933035560848445" lon="-10.669730163599867"><ele>0.0</ele><time>2026-04-28T11:48:08Z</time></trkpt><trkpt lat="28.932934818845506" lon="-10.669914222525424"><ele>0.0</ele><time>2026-04-28T11:48:09Z</time></trkpt><trkpt lat="28.93284017411811" lon="-10.670095215491857"><ele>0.0</ele><time>2026-04-28T11:48:10Z</time></trkpt><trkpt lat="28.93274662563218" lon="-10.670272570185402"><ele>0.0</ele><time>2026-04-28T11:48:11Z</time></trkpt><trkpt lat="28.932658769671473" lon="-10.670446572059207"><ele>0.0</ele><time>2026-04-28T11:48:12Z</time></trkpt><trkpt lat="28.932570518679658" lon="-10.670622600203375"><ele>0.0</ele><time>2026-04-28T11:48:13Z</time></trkpt><trkpt lat="28.932477635564663" lon="-10.670799980224814"><ele>0.0</ele><time>2026-04-28T11:48:14Z</time></trkpt><trkpt lat="28.932380205283295" lon="-10.670978705331802"><ele>0.0</ele><time>2026-04-28T11:48:15Z</time></trkpt><trkpt lat="28.932283357624236" lon="-10.671154783495377"><ele>0.0</ele><time>2026-04-28T11:48:16Z</time></trkpt><trkpt lat="28.93218574186711" lon="-10.671331275072705"><ele>0.0</ele><time>2026-04-28T11:48:17Z</time></trkpt><trkpt lat="28.932087698291507" lon="-10.671508492874853"><ele>0.0</ele><time>2026-04-28T11:48:18Z</time></trkpt><trkpt lat="28.931987891715973" lon="-10.671681525967774"><ele>1.3333333333333333</ele><time>2026-04-28T11:48:19Z</time></trkpt><trkpt lat="28.931887692783988" lon="-10.671850049035656"><ele>2.6666666666666665</ele><time>2026-04-28T11:48:20Z</time></trkpt><trkpt lat="28.931783930679938" lon="-10.67202042038799"><ele>4.0</ele><time>2026-04-28T11:48:21Z</time></trkpt><trkpt lat="28.93168025535497" lon="-10.672192909899533"><ele>4.0</ele><time>2026-04-28T11:48:22Z</time></trkpt><trkpt lat="28.931580661242847" lon="-10.67236864466655"><ele>4.0</ele><time>2026-04-28T11:48:23Z</time></trkpt><trkpt lat="28.93148772486697" lon="-10.672548293977197"><ele>4.0</ele><time>2026-04-28T11:48:24Z</time></trkpt><trkpt lat="28.931392353604867" lon="-10.672728753783192"><ele>6.0</ele><time>2026-04-28T11:48:25Z</time></trkpt><trkpt lat="28.931299459203284" lon="-10.672899239689304"><ele>8.0</ele><time>2026-04-28T11:48:26Z</time></trkpt><trkpt lat="28.931209101244757" lon="-10.673062148782936"><ele>10.0</ele><time>2026-04-28T11:48:27Z</time></trkpt><trkpt lat="28.93111516294516" lon="-10.673232062728834"><ele>10.0</ele><time>2026-04-28T11:48:28Z</time></trkpt><trkpt lat="28.931018202329007" lon="-10.673405211769863"><ele>10.0</ele><time>2026-04-28T11:48:29Z</time></trkpt><trkpt lat="28.93093431367057" lon="-10.673568498140558"><ele>10.0</ele><time>2026-04-28T11:48:30Z</time></trkpt><trkpt lat="28.930842107571884" lon="-10.673753471263728"><ele>13.0</ele><time>2026-04-28T11:48:31Z</time></trkpt><trkpt lat="28.930752669405194" lon="-10.673938181803505"><ele>16.0</ele><time>2026-04-28T11:48:32Z</time></trkpt><trkpt lat="28.930659183672056" lon="-10.674129118266471"><ele>19.0</ele><time>2026-04-28T11:48:33Z</time></trkpt><trkpt lat="28.930569141078482" lon="-10.67432379760248"><ele>10.0</ele><time>2026-04-28T11:48:34Z</time></trkpt><trkpt lat="28.930475454514287" lon="-10.674514751156568"><ele>1.0</ele><time>2026-04-28T11:48:35Z</time></trkpt><trkpt lat="28.930379543330936" lon="-10.6747059709339"><ele>-8.0</ele><time>2026-04-28T11:48:36Z</time></trkpt><trkpt lat="28.93028559189495" lon="-10.674904564201931"><ele>-8.0</ele><time>2026-04-28T11:48:37Z</time></trkpt><trkpt lat="28.93019483732664" lon="-10.67509679176526"><ele>-8.0</ele><time>2026-04-28T11:48:38Z</time></trkpt><trkpt lat="28.930100789842246" lon="-10.675299174934755"><ele>-8.0</ele><time>2026-04-28T11:48:39Z</time></trkpt><trkpt lat="28.930007874725508" lon="-10.675495664813136"><ele>-8.333333333333332</ele><time>2026-04-28T11:48:40Z</time></trkpt><trkpt lat="28.929918084397634" lon="-10.675694681019653"><ele>-8.666666666666666</ele><time>2026-04-28T11:48:41Z</time></trkpt><trkpt lat="28.929829188297575" lon="-10.675896044342156"><ele>-9.0</ele><time>2026-04-28T11:48:42Z</time></trkpt><trkpt lat="28.92973678183668" lon="-10.676093829693933"><ele>-10.333333333333332</ele><time>2026-04-28T11:48:43Z</time></trkpt><trkpt lat="28.92964109184839" lon="-10.67629188793573"><ele>-11.666666666666666</ele><time>2026-04-28T11:48:44Z</time></trkpt><trkpt lat="28.929544717896842" lon="-10.676495742075197"><ele>-13.0</ele><time>2026-04-28T11:48:45Z</time></trkpt><trkpt lat="28.929449805753617" lon="-10.676696150043067"><ele>-13.0</ele><time>2026-04-28T11:48:46Z</time></trkpt><trkpt lat="28.92935863490433" lon="-10.67688554684286"><ele>-13.0</ele><time>2026-04-28T11:48:47Z</time></trkpt><trkpt lat="28.92926559055014" lon="-10.67707527367953"><ele>-13.0</ele><time>2026-04-28T11:48:48Z</time></trkpt><trkpt lat="28.929174525210133" lon="-10.677266077868019"><ele>-14.0</ele><time>2026-04-28T11:48:49Z</time></trkpt><trkpt lat="28.929085201499408" lon="-10.677454551847347"><ele>-15.0</ele><time>2026-04-28T11:48:50Z</time></trkpt><trkpt lat="28.92899551582125" lon="-10.677649597962978"><ele>-16.0</ele><time>2026-04-28T11:48:51Z</time></trkpt><trkpt lat="28.92890399406354" lon="-10.677834116949976"><ele>-16.0</ele><time>2026-04-28T11:48:52Z</time></trkpt><trkpt lat="28.928808300202608" lon="-10.678024081688394"><ele>-16.0</ele><time>2026-04-28T11:48:53Z</time></trkpt><trkpt lat="28.928706104669676" lon="-10.678214608071585"><ele>-16.0</ele><time>2026-04-28T11:48:54Z</time></trkpt><trkpt lat="28.928606056806093" lon="-10.678400058458815"><ele>-12.0</ele><time>2026-04-28T11:48:55Z</time></trkpt><trkpt lat="28.928510661727987" lon="-10.6785829385993"><ele>-8.0</ele><time>2026-04-28T11:48:56Z</time></trkpt><trkpt lat="28.928421259062848" lon="-10.678767538074169"><ele>-4.0</ele><time>2026-04-28T11:48:57Z</time></trkpt><trkpt lat="28.928334554549984" lon="-10.678945553671182"><ele>-4.0</ele><time>2026-04-28T11:48:58Z</time></trkpt><trkpt lat="28.928244996097035" lon="-10.679120623615436"><ele>-4.0</ele><time>2026-04-28T11:48:59Z</time></trkpt><trkpt lat="28.928157161074736" lon="-10.679297761155572"><ele>-4.0</ele><time>2026-04-28T11:49:00Z</time></trkpt><trkpt lat="28.928072097137377" lon="-10.679481164189705"><ele>-4.0</ele><time>2026-04-28T11:49:01Z</time></trkpt><trkpt lat="28.927984689390506" lon="-10.67966616078431"><ele>-4.0</ele><time>2026-04-28T11:49:02Z</time></trkpt><trkpt lat="28.927899487543893" lon="-10.679850766126009"><ele>-4.0</ele><time>2026-04-28T11:49:03Z</time></trkpt><trkpt lat="28.927817637333103" lon="-10.680026616867352"><ele>-2.333333333333333</ele><time>2026-04-28T11:49:04Z</time></trkpt><trkpt lat="28.927733228165327" lon="-10.680197831723733"><ele>-0.6666666666666666</ele><time>2026-04-28T11:49:05Z</time></trkpt><trkpt lat="28.927649230064645" lon="-10.680360280018716"><ele>1.0</ele><time>2026-04-28T11:49:06Z</time></trkpt><trkpt lat="28.927561854356863" lon="-10.680525403441923"><ele>1.0</ele><time>2026-04-28T11:49:07Z</time></trkpt><trkpt lat="28.927476489267647" lon="-10.680697109155206"><ele>1.0</ele><time>2026-04-28T11:49:08Z</time></trkpt><trkpt lat="28.927397240971608" lon="-10.680861088530776"><ele>1.0</ele><time>2026-04-28T11:49:09Z</time></trkpt><trkpt lat="28.927314201881735" lon="-10.681013283406454"><ele>4.0</ele><time>2026-04-28T11:49:10Z</time></trkpt><trkpt lat="28.927229514329206" lon="-10.681177036135054"><ele>7.0</ele><time>2026-04-28T11:49:11Z</time></trkpt><trkpt lat="28.927144431235117" lon="-10.68134496839853"><ele>10.0</ele><time>2026-04-28T11:49:12Z</time></trkpt><trkpt lat="28.927051452308252" lon="-10.681504795166768"><ele>10.0</ele><time>2026-04-28T11:49:13Z</time></trkpt><trkpt lat="28.926953623110936" lon="-10.68166185120665"><ele>10.0</ele><time>2026-04-28T11:49:14Z</time></trkpt><trkpt lat="28.926858433172683" lon="-10.681815754458437"><ele>10.0</ele><time>2026-04-28T11:49:15Z</time></trkpt><trkpt lat="28.92676158855462" lon="-10.681975341878164"><ele>7.0</ele><time>2026-04-28T11:49:16Z</time></trkpt><trkpt lat="28.926669572832406" lon="-10.68214039854571"><ele>4.0</ele><time>2026-04-28T11:49:17Z</time></trkpt><trkpt lat="28.926590388680516" lon="-10.682302941416852"><ele>1.0</ele><time>2026-04-28T11:49:18Z</time></trkpt><trkpt lat="28.9265132694121" lon="-10.682465265900683"><ele>1.0</ele><time>2026-04-28T11:49:19Z</time></trkpt><trkpt lat="28.926426914260187" lon="-10.68262255022491"><ele>1.0</ele><time>2026-04-28T11:49:20Z</time></trkpt><trkpt lat="28.92633688021899" lon="-10.682779629459993"><ele>1.0</ele><time>2026-04-28T11:49:21Z</time></trkpt><trkpt lat="28.926250160464978" lon="-10.68293268080283"><ele>-0.6666666666666666</ele><time>2026-04-28T11:49:22Z</time></trkpt><trkpt lat="28.926165813981804" lon="-10.683085980339627"><ele>-2.333333333333333</ele><time>2026-04-28T11:49:23Z</time></trkpt><trkpt lat="28.92608280498344" lon="-10.683242781970717"><ele>-4.0</ele><time>2026-04-28T11:49:24Z</time></trkpt><trkpt lat="28.926007684924226" lon="-10.683398845113436"><ele>-4.0</ele><time>2026-04-28T11:49:25Z</time></trkpt><trkpt lat="28.925934180677864" lon="-10.683553100617065"><ele>-4.0</ele><time>2026-04-28T11:49:26Z</time></trkpt><trkpt lat="28.925856953255774" lon="-10.683709193183502"><ele>-4.0</ele><time>2026-04-28T11:49:27Z</time></trkpt><trkpt lat="28.925777671260633" lon="-10.683864328452378"><ele>-0.33333333333333304</ele><time>2026-04-28T11:49:28Z</time></trkpt><trkpt lat="28.92569726752844" lon="-10.68401798296148"><ele>3.333333333333334</ele><time>2026-04-28T11:49:29Z</time></trkpt><trkpt lat="28.925616283925294" lon="-10.684171425368161"><ele>7.0</ele><time>2026-04-28T11:49:30Z</time></trkpt><trkpt lat="28.925535300187057" lon="-10.684325315165799"><ele>4.0</ele><time>2026-04-28T11:49:31Z</time></trkpt><trkpt lat="28.925451684772103" lon="-10.684478614651344"><ele>1.0000000000000002</ele><time>2026-04-28T11:49:32.001Z</time></trkpt><trkpt lat="28.92536838124134" lon="-10.684632239968659"><ele>-2.0</ele><time>2026-04-28T11:49:33.001Z</time></trkpt><trkpt lat="28.925284081896216" lon="-10.684785182508364"><ele>-2.0</ele><time>2026-04-28T11:49:34.001Z</time></trkpt><trkpt lat="28.925196642403854" lon="-10.684939574616454"><ele>-2.0</ele><time>2026-04-28T11:49:35.001Z</time></trkpt><trkpt lat="28.925109561124437" lon="-10.685096760895503"><ele>-2.0</ele><time>2026-04-28T11:49:36.001Z</time></trkpt><trkpt lat="28.92502261761278" lon="-10.685256104082987"><ele>-1.3333333333333333</ele><time>2026-04-28T11:49:37.001Z</time></trkpt><trkpt lat="28.924934698725288" lon="-10.685416805376832"><ele>-0.6666666666666666</ele><time>2026-04-28T11:49:38.001Z</time></trkpt><trkpt lat="28.924846304885335" lon="-10.685580379009096"><ele>0.0</ele><time>2026-04-28T11:49:39.001Z</time></trkpt><trkpt lat="28.924758284105888" lon="-10.68574641767324"><ele>0.0</ele><time>2026-04-28T11:49:40.001Z</time></trkpt><trkpt lat="28.924669338442076" lon="-10.685913237674983"><ele>0.0</ele><time>2026-04-28T11:49:41.001Z</time></trkpt><trkpt lat="28.924578127585654" lon="-10.686084631248901"><ele>0.0</ele><time>2026-04-28T11:49:42.001Z</time></trkpt><trkpt lat="28.924486885917144" lon="-10.68625837678578"><ele>0.3333333333333333</ele><time>2026-04-28T11:49:43Z</time></trkpt><trkpt lat="28.924392641558732" lon="-10.68643162646729"><ele>0.6666666666666666</ele><time>2026-04-28T11:49:44Z</time></trkpt><trkpt lat="28.924298217496556" lon="-10.686604327271407"><ele>1.0</ele><time>2026-04-28T11:49:45Z</time></trkpt><trkpt lat="28.92420113413785" lon="-10.686775209631433"><ele>3.0</ele><time>2026-04-28T11:49:46Z</time></trkpt><trkpt lat="28.924099997734007" lon="-10.68694107477006"><ele>5.0</ele><time>2026-04-28T11:49:47Z</time></trkpt><trkpt lat="28.924007977666147" lon="-10.68710996759055"><ele>7.0</ele><time>2026-04-28T11:49:48Z</time></trkpt><trkpt lat="28.92392050070789" lon="-10.687284374334673"><ele>7.0</ele><time>2026-04-28T11:49:49Z</time></trkpt><trkpt lat="28.92383275098547" lon="-10.687457524822902"><ele>7.0</ele><time>2026-04-28T11:49:50Z</time></trkpt><trkpt lat="28.923738589890924" lon="-10.6876261665868"><ele>7.0</ele><time>2026-04-28T11:49:51Z</time></trkpt><trkpt lat="28.923641723529865" lon="-10.687795853681493"><ele>6.666666666666667</ele><time>2026-04-28T11:49:52Z</time></trkpt><trkpt lat="28.923544896310684" lon="-10.687974209283675"><ele>6.333333333333334</ele><time>2026-04-28T11:49:53Z</time></trkpt><trkpt lat="28.92345878434405" lon="-10.688149211772275"><ele>6.0</ele><time>2026-04-28T11:49:54Z</time></trkpt><trkpt lat="28.923380099248327" lon="-10.688329012296263"><ele>7.0</ele><time>2026-04-28T11:49:55Z</time></trkpt><trkpt lat="28.923299919897957" lon="-10.688510679072586"><ele>8.0</ele><time>2026-04-28T11:49:56Z</time></trkpt><trkpt lat="28.923214284863707" lon="-10.688688488138961"><ele>9.0</ele><time>2026-04-28T11:49:57Z</time></trkpt><trkpt lat="28.923126746440488" lon="-10.688857509003064"><ele>3.6666666666666665</ele><time>2026-04-28T11:49:58Z</time></trkpt><trkpt lat="28.923035438548503" lon="-10.689011854871557"><ele>-1.666666666666667</ele><time>2026-04-28T11:49:59Z</time></trkpt><trkpt lat="28.922941153194568" lon="-10.689167914171918"><ele>-7.0</ele><time>2026-04-28T11:50:00Z</time></trkpt><trkpt lat="28.92285475201873" lon="-10.689335407939454"><ele>-5.333333333333334</ele><time>2026-04-28T11:50:01Z</time></trkpt><trkpt lat="28.922766008352255" lon="-10.689498881956297"><ele>-3.666666666666667</ele><time>2026-04-28T11:50:02Z</time></trkpt><trkpt lat="28.92267979703018" lon="-10.689662932250357"><ele>-2.0</ele><time>2026-04-28T11:50:03Z</time></trkpt><trkpt lat="28.922599552358488" lon="-10.689830740409308"><ele>-1.6666666666666665</ele><time>2026-04-28T11:50:04Z</time></trkpt><trkpt lat="28.922522651931626" lon="-10.690000048966171"><ele>-1.3333333333333333</ele><time>2026-04-28T11:50:05Z</time></trkpt><trkpt lat="28.922443616653275" lon="-10.690168851727622"><ele>-1.0</ele><time>2026-04-28T11:50:06Z</time></trkpt><trkpt lat="28.922361917283343" lon="-10.690336088286477"><ele>-1.0</ele><time>2026-04-28T11:50:07Z</time></trkpt><trkpt lat="28.92227812775965" lon="-10.690503269104584"><ele>-1.0</ele><time>2026-04-28T11:50:08Z</time></trkpt><trkpt lat="28.92219381076886" lon="-10.690670491174913"><ele>-1.0</ele><time>2026-04-28T11:50:09Z</time></trkpt><trkpt lat="28.922110378009" lon="-10.69083625164516"><ele>-1.0</ele><time>2026-04-28T11:50:10Z</time></trkpt><trkpt lat="28.92202593029637" lon="-10.691000340850634"><ele>-1.0</ele><time>2026-04-28T11:50:11Z</time></trkpt><trkpt lat="28.921942063524707" lon="-10.69116278805298"><ele>-1.0</ele><time>2026-04-28T11:50:12Z</time></trkpt><trkpt lat="28.921855571055662" lon="-10.691322345896854"><ele>-1.0</ele><time>2026-04-28T11:50:13Z</time></trkpt><trkpt lat="28.921769857317443" lon="-10.691483454554744"><ele>-1.0</ele><time>2026-04-28T11:50:14Z</time></trkpt><trkpt lat="28.921689287813056" lon="-10.69164287734498"><ele>-1.0</ele><time>2026-04-28T11:50:15Z</time></trkpt><trkpt lat="28.92161346459537" lon="-10.691796798236906"><ele>-2.25</ele><time>2026-04-28T11:50:16Z</time></trkpt><trkpt lat="28.921537603667446" lon="-10.691946859884155"><ele>-3.5</ele><time>2026-04-28T11:50:17Z</time></trkpt><trkpt lat="28.921458974239723" lon="-10.692086176213149"><ele>-4.75</ele><time>2026-04-28T11:50:18Z</time></trkpt><trkpt lat="28.92137410035883" lon="-10.692221551204824"><ele>-6.0</ele><time>2026-04-28T11:50:19Z</time></trkpt><trkpt lat="28.921287210018395" lon="-10.692362133042124"><ele>-6.0</ele><time>2026-04-28T11:50:20Z</time></trkpt><trkpt lat="28.921196536221753" lon="-10.692506084081055"><ele>-6.0</ele><time>2026-04-28T11:50:21Z</time></trkpt><trkpt lat="28.921093750334556" lon="-10.692648684747926"><ele>-6.0</ele><time>2026-04-28T11:50:22Z</time></trkpt><trkpt lat="28.920992368713776" lon="-10.692798988105254"><ele>-6.0</ele><time>2026-04-28T11:50:23Z</time></trkpt><trkpt lat="28.920894879989763" lon="-10.69296352305241"><ele>-6.0</ele><time>2026-04-28T11:50:24Z</time></trkpt><trkpt lat="28.920803440519542" lon="-10.69313291106291"><ele>-6.0</ele><time>2026-04-28T11:50:25Z</time></trkpt><trkpt lat="28.92071893884144" lon="-10.693304895536993"><ele>-6.0</ele><time>2026-04-28T11:50:26Z</time></trkpt><trkpt lat="28.920634897163165" lon="-10.693478446188166"><ele>-6.0</ele><time>2026-04-28T11:50:27Z</time></trkpt><trkpt lat="28.920551953601887" lon="-10.693650316679099"><ele>-6.0</ele><time>2026-04-28T11:50:28Z</time></trkpt><trkpt lat="28.920467029305804" lon="-10.693816623643785"><ele>-6.0</ele><time>2026-04-28T11:50:29Z</time></trkpt><trkpt lat="28.920380160805564" lon="-10.693977464774457"><ele>-6.0</ele><time>2026-04-28T11:50:30Z</time></trkpt><trkpt lat="28.92029220103074" lon="-10.694138769091268"><ele>-6.0</ele><time>2026-04-28T11:50:31Z</time></trkpt><trkpt lat="28.92020905814036" lon="-10.694299202058703"><ele>-9.0</ele><time>2026-04-28T11:50:32Z</time></trkpt><trkpt lat="28.920127544320415" lon="-10.69446410582148"><ele>-12.0</ele><time>2026-04-28T11:50:33Z</time></trkpt><trkpt lat="28.92004346468445" lon="-10.694631486512796"><ele>-15.0</ele><time>2026-04-28T11:50:34Z</time></trkpt><trkpt lat="28.9199594109834" lon="-10.694793317058862"><ele>-14.666666666666668</ele><time>2026-04-28T11:50:35Z</time></trkpt><trkpt lat="28.9198716893386" lon="-10.694948831724131"><ele>-14.333333333333334</ele><time>2026-04-28T11:50:36Z</time></trkpt><trkpt lat="28.91978234021897" lon="-10.695107793060734"><ele>-14.0</ele><time>2026-04-28T11:50:37Z</time></trkpt><trkpt lat="28.919699465794256" lon="-10.695266362775767"><ele>-14.0</ele><time>2026-04-28T11:50:38Z</time></trkpt><trkpt lat="28.919618003031037" lon="-10.695430551897553"><ele>-14.0</ele><time>2026-04-28T11:50:39Z</time></trkpt><trkpt lat="28.91953859118278" lon="-10.695594417904521"><ele>-14.0</ele><time>2026-04-28T11:50:40Z</time></trkpt><trkpt lat="28.919458963173806" lon="-10.69575275620119"><ele>-14.0</ele><time>2026-04-28T11:50:41Z</time></trkpt><trkpt lat="28.919379216694143" lon="-10.69591198365395"><ele>-14.0</ele><time>2026-04-28T11:50:42Z</time></trkpt><trkpt lat="28.919298920912414" lon="-10.69607401252283"><ele>-14.0</ele><time>2026-04-28T11:50:43Z</time></trkpt><trkpt lat="28.91921505150666" lon="-10.696234871132717"><ele>-9.333333333333334</ele><time>2026-04-28T11:50:44Z</time></trkpt><trkpt lat="28.91912897041457" lon="-10.696400837471314"><ele>-4.666666666666667</ele><time>2026-04-28T11:50:45Z</time></trkpt><trkpt lat="28.919042093465674" lon="-10.696565530767094"><ele>0.0</ele><time>2026-04-28T11:50:46Z</time></trkpt><trkpt lat="28.918953554549297" lon="-10.696731565269216"><ele>0.0</ele><time>2026-04-28T11:50:47Z</time></trkpt><trkpt lat="28.918864406238765" lon="-10.696899192745226"><ele>0.0</ele><time>2026-04-28T11:50:48Z</time></trkpt><trkpt lat="28.918776253969888" lon="-10.69707089174947"><ele>0.0</ele><time>2026-04-28T11:50:49Z</time></trkpt><trkpt lat="28.918687628062695" lon="-10.697242498100916"><ele>-3.6666666666666665</ele><time>2026-04-28T11:50:50Z</time></trkpt><trkpt lat="28.918594520199846" lon="-10.697417674040969"><ele>-7.333333333333333</ele><time>2026-04-28T11:50:51Z</time></trkpt><trkpt lat="28.918502102635273" lon="-10.697584679030108"><ele>-11.0</ele><time>2026-04-28T11:50:52Z</time></trkpt><trkpt lat="28.918408757118094" lon="-10.697751580336073"><ele>-1.333333333333333</ele><time>2026-04-28T11:50:53Z</time></trkpt><trkpt lat="28.91831533799682" lon="-10.697922771738403"><ele>8.333333333333334</ele><time>2026-04-28T11:50:54Z</time></trkpt><trkpt lat="28.918221431573773" lon="-10.698094429959871"><ele>18.0</ele><time>2026-04-28T11:50:55Z</time></trkpt><trkpt lat="28.918125970213982" lon="-10.698265450853588"><ele>18.0</ele><time>2026-04-28T11:50:56Z</time></trkpt><trkpt lat="28.91803023890425" lon="-10.69843622927184"><ele>18.0</ele><time>2026-04-28T11:50:57Z</time></trkpt><trkpt lat="28.917936336601628" lon="-10.698605244020161"><ele>18.0</ele><time>2026-04-28T11:50:58Z</time></trkpt><trkpt lat="28.91784692800084" lon="-10.698770470048938"><ele>15.333333333333334</ele><time>2026-04-28T11:50:59Z</time></trkpt><trkpt lat="28.91775841516891" lon="-10.698934701648643"><ele>12.666666666666668</ele><time>2026-04-28T11:51:00Z</time></trkpt><trkpt lat="28.917675418831248" lon="-10.699099502033349"><ele>10.0</ele><time>2026-04-28T11:51:01Z</time></trkpt><trkpt lat="28.917589427439186" lon="-10.699265524859213"><ele>5.333333333333334</ele><time>2026-04-28T11:51:02Z</time></trkpt><trkpt lat="28.917503824975626" lon="-10.699425648731806"><ele>0.666666666666667</ele><time>2026-04-28T11:51:03Z</time></trkpt><trkpt lat="28.917420024206226" lon="-10.699587647958067"><ele>-4.0</ele><time>2026-04-28T11:51:04Z</time></trkpt><trkpt lat="28.917339432638233" lon="-10.699759963037575"><ele>-4.0</ele><time>2026-04-28T11:51:05Z</time></trkpt><trkpt lat="28.917258527715582" lon="-10.69993137048595"><ele>-4.0</ele><time>2026-04-28T11:51:06Z</time></trkpt><trkpt lat="28.91718004496308" lon="-10.700094847952617"><ele>-4.0</ele><time>2026-04-28T11:51:07Z</time></trkpt><trkpt lat="28.917097921783707" lon="-10.700260425380382"><ele>-2.333333333333333</ele><time>2026-04-28T11:51:08Z</time></trkpt><trkpt lat="28.917019417529474" lon="-10.700428196668456"><ele>-0.6666666666666666</ele><time>2026-04-28T11:51:09Z</time></trkpt><trkpt lat="28.916940010945773" lon="-10.700597087023235"><ele>1.0</ele><time>2026-04-28T11:51:10Z</time></trkpt><trkpt lat="28.916858339114203" lon="-10.700760173155208"><ele>1.0</ele><time>2026-04-28T11:51:11Z</time></trkpt><trkpt lat="28.91677679486886" lon="-10.700927151065963"><ele>1.0</ele><time>2026-04-28T11:51:12Z</time></trkpt><trkpt lat="28.91669862890175" lon="-10.701096319773011"><ele>1.0</ele><time>2026-04-28T11:51:13Z</time></trkpt><trkpt lat="28.916619198259294" lon="-10.701266681427333"><ele>1.3333333333333333</ele><time>2026-04-28T11:51:14Z</time></trkpt><trkpt lat="28.91653951087326" lon="-10.701432590533257"><ele>1.6666666666666665</ele><time>2026-04-28T11:51:15Z</time></trkpt><trkpt lat="28.916455598989884" lon="-10.701597770305565"><ele>2.0</ele><time>2026-04-28T11:51:16Z</time></trkpt><trkpt lat="28.916374971069516" lon="-10.70176008448648"><ele>1.0</ele><time>2026-04-28T11:51:17Z</time></trkpt><trkpt lat="28.91629707948639" lon="-10.701923062713297"><ele>0.0</ele><time>2026-04-28T11:51:18Z</time></trkpt><trkpt lat="28.916211516162253" lon="-10.702086175863867"><ele>-1.0</ele><time>2026-04-28T11:51:19Z</time></trkpt><trkpt lat="28.916119049855123" lon="-10.702244512282704"><ele>-1.0</ele><time>2026-04-28T11:51:20Z</time></trkpt><trkpt lat="28.916027058661523" lon="-10.702408469527894"><ele>-1.0</ele><time>2026-04-28T11:51:21Z</time></trkpt><trkpt lat="28.91593406811213" lon="-10.702573692769702"><ele>-1.0</ele><time>2026-04-28T11:51:22Z</time></trkpt><trkpt lat="28.915835414725834" lon="-10.702740428244999"><ele>-3.6666666666666665</ele><time>2026-04-28T11:51:23Z</time></trkpt><trkpt lat="28.915739611717658" lon="-10.702908211643248"><ele>-6.333333333333333</ele><time>2026-04-28T11:51:24Z</time></trkpt><trkpt lat="28.91565006477477" lon="-10.703077084944125"><ele>-9.0</ele><time>2026-04-28T11:51:25Z</time></trkpt><trkpt lat="28.915567043166174" lon="-10.703250288201822"><ele>-9.0</ele><time>2026-04-28T11:51:26Z</time></trkpt><trkpt lat="28.915486963857507" lon="-10.703424836916376"><ele>-9.0</ele><time>2026-04-28T11:51:27Z</time></trkpt><trkpt lat="28.91540684506069" lon="-10.703597469674778"><ele>-9.0</ele><time>2026-04-28T11:51:28Z</time></trkpt><trkpt lat="28.915326179696034" lon="-10.703770541669531"><ele>-3.6666666666666665</ele><time>2026-04-28T11:51:29Z</time></trkpt><trkpt lat="28.915241072080853" lon="-10.7039453104238"><ele>1.666666666666667</ele><time>2026-04-28T11:51:30Z</time></trkpt><trkpt lat="28.915154254664483" lon="-10.704122294683547"><ele>7.0</ele><time>2026-04-28T11:51:31Z</time></trkpt><trkpt lat="28.915063465255262" lon="-10.704295349890522"><ele>5.666666666666667</ele><time>2026-04-28T11:51:32Z</time></trkpt><trkpt lat="28.91496647512593" lon="-10.704465343383962"><ele>4.333333333333334</ele><time>2026-04-28T11:51:33Z</time></trkpt><trkpt lat="28.914867892821842" lon="-10.704640019143758"><ele>3.0</ele><time>2026-04-28T11:51:34Z</time></trkpt><trkpt lat="28.914775036408525" lon="-10.704807293776616"><ele>3.0</ele><time>2026-04-28T11:51:35Z</time></trkpt><trkpt lat="28.914683224793" lon="-10.704970269745397"><ele>3.0</ele><time>2026-04-28T11:51:36Z</time></trkpt><trkpt lat="28.914590786035404" lon="-10.70513569783024"><ele>3.0</ele><time>2026-04-28T11:51:37Z</time></trkpt><trkpt lat="28.91449628315981" lon="-10.705305196198713"><ele>1.0</ele><time>2026-04-28T11:51:38Z</time></trkpt><trkpt lat="28.914407392783012" lon="-10.705472426132141"><ele>-1.0</ele><time>2026-04-28T11:51:39Z</time></trkpt><trkpt lat="28.91431929237047" lon="-10.705641625487068"><ele>-3.0</ele><time>2026-04-28T11:51:40Z</time></trkpt><trkpt lat="28.914232956638692" lon="-10.70580898628502"><ele>1.3333333333333335</ele><time>2026-04-28T11:51:41Z</time></trkpt><trkpt lat="28.91414772492184" lon="-10.705976463001843"><ele>5.666666666666667</ele><time>2026-04-28T11:51:42Z</time></trkpt><trkpt lat="28.91406463091077" lon="-10.70614267023274"><ele>10.0</ele><time>2026-04-28T11:51:43Z</time></trkpt><trkpt lat="28.913985815026763" lon="-10.706305472225834"><ele>10.333333333333334</ele><time>2026-04-28T11:51:44Z</time></trkpt><trkpt lat="28.91391231286892" lon="-10.70646975385631"><ele>10.666666666666666</ele><time>2026-04-28T11:51:45Z</time></trkpt><trkpt lat="28.913841183490003" lon="-10.706631049641391"><ele>11.0</ele><time>2026-04-28T11:51:46Z</time></trkpt><trkpt lat="28.913764223528773" lon="-10.706789660603325"><ele>8.333333333333332</ele><time>2026-04-28T11:51:47Z</time></trkpt><trkpt lat="28.913684683473246" lon="-10.706944357454057"><ele>5.666666666666666</ele><time>2026-04-28T11:51:48Z</time></trkpt><trkpt lat="28.91360130957271" lon="-10.707092796731173"><ele>3.0</ele><time>2026-04-28T11:51:49Z</time></trkpt><trkpt lat="28.913512961456767" lon="-10.707243073822013"><ele>3.0</ele><time>2026-04-28T11:51:50Z</time></trkpt><trkpt lat="28.91342415387121" lon="-10.707394243723499"><ele>3.0</ele><time>2026-04-28T11:51:51Z</time></trkpt><trkpt lat="28.913339701748743" lon="-10.707547991556043"><ele>3.0</ele><time>2026-04-28T11:51:52Z</time></trkpt><trkpt lat="28.91325621770172" lon="-10.707701840899476"><ele>-0.3333333333333335</ele><time>2026-04-28T11:51:53Z</time></trkpt><trkpt lat="28.913166956308828" lon="-10.70786016621588"><ele>-3.666666666666667</ele><time>2026-04-28T11:51:54Z</time></trkpt><trkpt lat="28.913077139434513" lon="-10.708017790552255"><ele>-7.0</ele><time>2026-04-28T11:51:55Z</time></trkpt><trkpt lat="28.912989842844066" lon="-10.70817311116855"><ele>-7.0</ele><time>2026-04-28T11:51:56Z</time></trkpt><trkpt lat="28.91290208175722" lon="-10.708329370009515"><ele>-7.0</ele><time>2026-04-28T11:51:57Z</time></trkpt><trkpt lat="28.912819042321825" lon="-10.708485903130256"><ele>-7.0</ele><time>2026-04-28T11:51:58Z</time></trkpt><trkpt lat="28.912734635513747" lon="-10.708639643346833"><ele>-3.0</ele><time>2026-04-28T11:51:59Z</time></trkpt><trkpt lat="28.912650817771677" lon="-10.708795584732055"><ele>1.0</ele><time>2026-04-28T11:52:00Z</time></trkpt><trkpt lat="28.912574782238945" lon="-10.708946209418626"><ele>5.0</ele><time>2026-04-28T11:52:01Z</time></trkpt><trkpt lat="28.912500400562145" lon="-10.709095942462085"><ele>6.5</ele><time>2026-04-28T11:52:02Z</time></trkpt><trkpt lat="28.91242537889045" lon="-10.709239267782182"><ele>8.0</ele><time>2026-04-28T11:52:03Z</time></trkpt><trkpt lat="28.912352215151873" lon="-10.709376537710702"><ele>9.5</ele><time>2026-04-28T11:52:04Z</time></trkpt><trkpt lat="28.91227701191171" lon="-10.70951416515557"><ele>11.0</ele><time>2026-04-28T11:52:05Z</time></trkpt><trkpt lat="28.912200651278447" lon="-10.709648270310856"><ele>11.0</ele><time>2026-04-28T11:52:06Z</time></trkpt><trkpt lat="28.912121688261248" lon="-10.709779967706854"><ele>11.0</ele><time>2026-04-28T11:52:07Z</time></trkpt><trkpt lat="28.912039981608007" lon="-10.709911679919342"><ele>11.0</ele><time>2026-04-28T11:52:08Z</time></trkpt><trkpt lat="28.91195328510851" lon="-10.710049855482707"><ele>11.0</ele><time>2026-04-28T11:52:09Z</time></trkpt><trkpt lat="28.911863261269797" lon="-10.710199009073863"><ele>8.666666666666666</ele><time>2026-04-28T11:52:10Z</time></trkpt><trkpt lat="28.911777634211706" lon="-10.710350993778084"><ele>6.333333333333333</ele><time>2026-04-28T11:52:11Z</time></trkpt><trkpt lat="28.911695117084594" lon="-10.710506323221411"><ele>4.0</ele><time>2026-04-28T11:52:12Z</time></trkpt><trkpt lat="28.911616868542612" lon="-10.710660962629134"><ele>3.6666666666666665</ele><time>2026-04-28T11:52:13Z</time></trkpt><trkpt lat="28.911544666585893" lon="-10.710814610523704"><ele>3.333333333333333</ele><time>2026-04-28T11:52:14Z</time></trkpt><trkpt lat="28.91147240114416" lon="-10.710971632905025"><ele>3.0</ele><time>2026-04-28T11:52:15Z</time></trkpt><trkpt lat="28.911397812245795" lon="-10.711128765511367"><ele>3.0</ele><time>2026-04-28T11:52:16Z</time></trkpt><trkpt lat="28.91132358219713" lon="-10.71129011400576"><ele>3.0</ele><time>2026-04-28T11:52:17Z</time></trkpt><trkpt lat="28.911250113885952" lon="-10.711450500504794"><ele>3.0</ele><time>2026-04-28T11:52:18Z</time></trkpt><trkpt lat="28.91117386791316" lon="-10.711611451959502"><ele>3.0</ele><time>2026-04-28T11:52:19Z</time></trkpt><trkpt lat="28.911102686876898" lon="-10.71177253747019"><ele>3.0</ele><time>2026-04-28T11:52:20Z</time></trkpt><trkpt lat="28.911032246442453" lon="-10.711939346920511"><ele>3.0</ele><time>2026-04-28T11:52:21Z</time></trkpt><trkpt lat="28.910957703426018" lon="-10.712113164005764"><ele>3.666666666666667</ele><time>2026-04-28T11:52:22Z</time></trkpt><trkpt lat="28.910888243885832" lon="-10.712279749105837"><ele>4.333333333333334</ele><time>2026-04-28T11:52:23Z</time></trkpt><trkpt lat="28.910818582839514" lon="-10.712444233275638"><ele>5.0</ele><time>2026-04-28T11:52:24Z</time></trkpt><trkpt lat="28.91074475790917" lon="-10.712613090148606"><ele>4.0</ele><time>2026-04-28T11:52:25Z</time></trkpt><trkpt lat="28.910670149793443" lon="-10.712790870989915"><ele>3.0</ele><time>2026-04-28T11:52:26Z</time></trkpt><trkpt lat="28.91059289397654" lon="-10.712967622570227"><ele>2.0</ele><time>2026-04-28T11:52:27Z</time></trkpt><trkpt lat="28.91051772130225" lon="-10.713140619293831"><ele>2.0</ele><time>2026-04-28T11:52:28Z</time></trkpt><trkpt lat="28.910448718958925" lon="-10.713318133185764"><ele>2.0</ele><time>2026-04-28T11:52:29Z</time></trkpt><trkpt lat="28.910379843578518" lon="-10.713498231281207"><ele>2.0</ele><time>2026-04-28T11:52:30Z</time></trkpt><trkpt lat="28.910299377380078" lon="-10.713676789975034"><ele>3.333333333333333</ele><time>2026-04-28T11:52:31Z</time></trkpt><trkpt lat="28.910212802147107" lon="-10.713850209182889"><ele>4.666666666666667</ele><time>2026-04-28T11:52:32Z</time></trkpt><trkpt lat="28.910126355104858" lon="-10.714019745756627"><ele>6.0</ele><time>2026-04-28T11:52:33Z</time></trkpt><trkpt lat="28.910041903408594" lon="-10.714183859804484"><ele>2.0</ele><time>2026-04-28T11:52:34Z</time></trkpt><trkpt lat="28.90995768406861" lon="-10.71434648562375"><ele>-2.0</ele><time>2026-04-28T11:52:35Z</time></trkpt><trkpt lat="28.909872722117452" lon="-10.714511742713228"><ele>-6.0</ele><time>2026-04-28T11:52:36Z</time></trkpt><trkpt lat="28.909790090820565" lon="-10.714676072166757"><ele>-6.333333333333334</ele><time>2026-04-28T11:52:37Z</time></trkpt><trkpt lat="28.909712630113027" lon="-10.714843913065321"><ele>-6.666666666666667</ele><time>2026-04-28T11:52:38Z</time></trkpt><trkpt lat="28.90963156515894" lon="-10.715018844428759"><ele>-7.0</ele><time>2026-04-28T11:52:39Z</time></trkpt><trkpt lat="28.90954340409459" lon="-10.715195509529668"><ele>-2.0000000000000004</ele><time>2026-04-28T11:52:40Z</time></trkpt><trkpt lat="28.90945126462456" lon="-10.715365171104281"><ele>2.9999999999999996</ele><time>2026-04-28T11:52:41Z</time></trkpt><trkpt lat="28.909358379930882" lon="-10.715532366803666"><ele>8.0</ele><time>2026-04-28T11:52:42Z</time></trkpt><trkpt lat="28.909268341188145" lon="-10.715701360062937"><ele>6.666666666666666</ele><time>2026-04-28T11:52:43Z</time></trkpt><trkpt lat="28.90918187336367" lon="-10.715875080416346"><ele>5.333333333333333</ele><time>2026-04-28T11:52:44Z</time></trkpt><trkpt lat="28.909100212183034" lon="-10.716050237324833"><ele>4.0</ele><time>2026-04-28T11:52:45Z</time></trkpt><trkpt lat="28.909017849633827" lon="-10.716222889531636"><ele>4.0</ele><time>2026-04-28T11:52:46Z</time></trkpt><trkpt lat="28.908933542575436" lon="-10.716394075329438"><ele>4.0</ele><time>2026-04-28T11:52:47Z</time></trkpt><trkpt lat="28.908848888203813" lon="-10.716567122128748"><ele>4.0</ele><time>2026-04-28T11:52:48Z</time></trkpt><trkpt lat="28.90876578853845" lon="-10.716738058619002"><ele>2.0</ele><time>2026-04-28T11:52:49Z</time></trkpt><trkpt lat="28.90868295414352" lon="-10.71690807689714"><ele>0.0</ele><time>2026-04-28T11:52:50Z</time></trkpt><trkpt lat="28.908599019765177" lon="-10.717074260098563"><ele>-2.0</ele><time>2026-04-28T11:52:51Z</time></trkpt><trkpt lat="28.908515184477505" lon="-10.717240727881787"><ele>-2.0</ele><time>2026-04-28T11:52:52Z</time></trkpt><trkpt lat="28.908435069522888" lon="-10.717410409953846"><ele>-2.0</ele><time>2026-04-28T11:52:53Z</time></trkpt><trkpt lat="28.908354750834768" lon="-10.71758265542942"><ele>-2.0</ele><time>2026-04-28T11:52:54Z</time></trkpt><trkpt lat="28.908268695445187" lon="-10.717752032579497"><ele>1.6666666666666667</ele><time>2026-04-28T11:52:55Z</time></trkpt><trkpt lat="28.908184611227334" lon="-10.717922091099787"><ele>5.333333333333333</ele><time>2026-04-28T11:52:56Z</time></trkpt><trkpt lat="28.90809955357776" lon="-10.718094419741286"><ele>9.0</ele><time>2026-04-28T11:52:57Z</time></trkpt><trkpt lat="28.908018918011255" lon="-10.718263086869937"><ele>9.0</ele><time>2026-04-28T11:52:58Z</time></trkpt><trkpt lat="28.907941731524424" lon="-10.718433594654796"><ele>9.0</ele><time>2026-04-28T11:52:59Z</time></trkpt><trkpt lat="28.907866323662454" lon="-10.718599863919453"><ele>9.0</ele><time>2026-04-28T11:53:00Z</time></trkpt><trkpt lat="28.907785551981476" lon="-10.718765506719066"><ele>9.333333333333334</ele><time>2026-04-28T11:53:01Z</time></trkpt><trkpt lat="28.907703325214555" lon="-10.71893313087401"><ele>9.666666666666668</ele><time>2026-04-28T11:53:02Z</time></trkpt><trkpt lat="28.90762193195286" lon="-10.71910291384946"><ele>10.0</ele><time>2026-04-28T11:53:03Z</time></trkpt><trkpt lat="28.907540256233528" lon="-10.719274330601836"><ele>8.666666666666668</ele><time>2026-04-28T11:53:04Z</time></trkpt><trkpt lat="28.907458000715422" lon="-10.71944234909606"><ele>7.333333333333334</ele><time>2026-04-28T11:53:05Z</time></trkpt><trkpt lat="28.90737640817253" lon="-10.71961342130835"><ele>6.0</ele><time>2026-04-28T11:53:06Z</time></trkpt><trkpt lat="28.90729341719869" lon="-10.719786607520623"><ele>6.0</ele><time>2026-04-28T11:53:07Z</time></trkpt><trkpt lat="28.907209396834713" lon="-10.719958134885117"><ele>6.0</ele><time>2026-04-28T11:53:08Z</time></trkpt><trkpt lat="28.90712544092711" lon="-10.720123877064212"><ele>6.0</ele><time>2026-04-28T11:53:09Z</time></trkpt><trkpt lat="28.90704459703658" lon="-10.720288001673984"><ele>3.3333333333333335</ele><time>2026-04-28T11:53:10Z</time></trkpt><trkpt lat="28.906962343239957" lon="-10.72045561723216"><ele>0.6666666666666667</ele><time>2026-04-28T11:53:11Z</time></trkpt><trkpt lat="28.906880420037478" lon="-10.720623822413948"><ele>-2.0</ele><time>2026-04-28T11:53:12Z</time></trkpt><trkpt lat="28.906799361421793" lon="-10.720796394516153"><ele>-6.666666666666666</ele><time>2026-04-28T11:53:13Z</time></trkpt><trkpt lat="28.906715827281396" lon="-10.720967253972557"><ele>-11.333333333333332</ele><time>2026-04-28T11:53:14Z</time></trkpt><trkpt lat="28.90663195271183" lon="-10.721137426798453"><ele>-16.0</ele><time>2026-04-28T11:53:15Z</time></trkpt><trkpt lat="28.906544043606456" lon="-10.721306928582669"><ele>-16.0</ele><time>2026-04-28T11:53:16Z</time></trkpt><trkpt lat="28.906457544431447" lon="-10.721474587232182"><ele>-16.0</ele><time>2026-04-28T11:53:17Z</time></trkpt><trkpt lat="28.9063754834907" lon="-10.72164527751972"><ele>-16.0</ele><time>2026-04-28T11:53:18Z</time></trkpt><trkpt lat="28.90629546250327" lon="-10.721813508971982"><ele>-14.0</ele><time>2026-04-28T11:53:19Z</time></trkpt><trkpt lat="28.906214722852173" lon="-10.721979760566624"><ele>-12.0</ele><time>2026-04-28T11:53:20Z</time></trkpt><trkpt lat="28.906133077707786" lon="-10.72215035899809"><ele>-10.0</ele><time>2026-04-28T11:53:21Z</time></trkpt><trkpt lat="28.90605239362748" lon="-10.722323637588932"><ele>-10.0</ele><time>2026-04-28T11:53:22Z</time></trkpt><trkpt lat="28.905975788540538" lon="-10.722490718035283"><ele>-10.0</ele><time>2026-04-28T11:53:23Z</time></trkpt><trkpt lat="28.905897992079858" lon="-10.72265644404382"><ele>-10.0</ele><time>2026-04-28T11:53:24Z</time></trkpt><trkpt lat="28.905817197914157" lon="-10.722820060793635"><ele>-10.0</ele><time>2026-04-28T11:53:25Z</time></trkpt><trkpt lat="28.905739079702492" lon="-10.722983706119688"><ele>-10.0</ele><time>2026-04-28T11:53:26Z</time></trkpt><trkpt lat="28.90566160407276" lon="-10.723143775544656"><ele>-10.0</ele><time>2026-04-28T11:53:27Z</time></trkpt><trkpt lat="28.905582876068998" lon="-10.723308087788732"><ele>-10.0</ele><time>2026-04-28T11:53:28Z</time></trkpt><trkpt lat="28.905507059902437" lon="-10.723472838776395"><ele>-10.0</ele><time>2026-04-28T11:53:29Z</time></trkpt><trkpt lat="28.905431974948957" lon="-10.723640255121204"><ele>-10.0</ele><time>2026-04-28T11:53:30Z</time></trkpt><trkpt lat="28.905357033094486" lon="-10.723808661996218"><ele>-10.0</ele><time>2026-04-28T11:53:31Z</time></trkpt><trkpt lat="28.90528322003438" lon="-10.723972267245985"><ele>-10.0</ele><time>2026-04-28T11:53:32Z</time></trkpt><trkpt lat="28.90520750634129" lon="-10.724134473631672"><ele>-10.0</ele><time>2026-04-28T11:53:33Z</time></trkpt><trkpt lat="28.905130824934623" lon="-10.724298576233046"><ele>-10.0</ele><time>2026-04-28T11:53:34Z</time></trkpt><trkpt lat="28.905056726168247" lon="-10.724458463634168"><ele>-10.0</ele><time>2026-04-28T11:53:35Z</time></trkpt><trkpt lat="28.90498465401643" lon="-10.724611886354893"><ele>-10.0</ele><time>2026-04-28T11:53:36Z</time></trkpt><trkpt lat="28.90490922994575" lon="-10.724762754866926"><ele>-9.666666666666668</ele><time>2026-04-28T11:53:37Z</time></trkpt><trkpt lat="28.904830925976473" lon="-10.724918744399574"><ele>-9.333333333333334</ele><time>2026-04-28T11:53:38Z</time></trkpt><trkpt lat="28.904750390540755" lon="-10.725074007264032"><ele>-9.0</ele><time>2026-04-28T11:53:39Z</time></trkpt><trkpt lat="28.904667401708995" lon="-10.725232239505186"><ele>-9.0</ele><time>2026-04-28T11:53:40Z</time></trkpt><trkpt lat="28.90458464398986" lon="-10.725391080845911"><ele>-9.0</ele><time>2026-04-28T11:53:41Z</time></trkpt><trkpt lat="28.904503537786336" lon="-10.725549847094433"><ele>-9.0</ele><time>2026-04-28T11:53:42Z</time></trkpt><trkpt lat="28.904426353952847" lon="-10.72570079951449"><ele>-9.0</ele><time>2026-04-28T11:53:43Z</time></trkpt><trkpt lat="28.904351438319956" lon="-10.72584370647801"><ele>-9.0</ele><time>2026-04-28T11:53:44Z</time></trkpt><trkpt lat="28.904278793680824" lon="-10.725985048918423"><ele>-9.0</ele><time>2026-04-28T11:53:45Z</time></trkpt><trkpt lat="28.904209535185135" lon="-10.726128439481982"><ele>-9.0</ele><time>2026-04-28T11:53:46Z</time></trkpt><trkpt lat="28.904138824751055" lon="-10.726277000812347"><ele>-9.0</ele><time>2026-04-28T11:53:47Z</time></trkpt><trkpt lat="28.904066779071695" lon="-10.726422821285658"><ele>-9.0</ele><time>2026-04-28T11:53:48.001Z</time></trkpt><trkpt lat="28.903990403533975" lon="-10.726565841047115"><ele>-9.0</ele><time>2026-04-28T11:53:49.001Z</time></trkpt><trkpt lat="28.90391281849713" lon="-10.726705142162537"><ele>-9.0</ele><time>2026-04-28T11:53:50.001Z</time></trkpt><trkpt lat="28.903836273009436" lon="-10.726845630263854"><ele>-6.666666666666667</ele><time>2026-04-28T11:53:51.001Z</time></trkpt><trkpt lat="28.903760737648145" lon="-10.726991878055987"><ele>-4.333333333333333</ele><time>2026-04-28T11:53:52.001Z</time></trkpt><trkpt lat="28.90368576489409" lon="-10.727140126082944"><ele>-2.0</ele><time>2026-04-28T11:53:53.001Z</time></trkpt><trkpt lat="28.903607706776427" lon="-10.727288411260629"><ele>-2.0</ele><time>2026-04-28T11:53:54.001Z</time></trkpt><trkpt lat="28.903527515534428" lon="-10.7274389347132"><ele>-2.0</ele><time>2026-04-28T11:53:55Z</time></trkpt><trkpt lat="28.903447070918194" lon="-10.727593227704762"><ele>-2.0</ele><time>2026-04-28T11:53:56Z</time></trkpt><trkpt lat="28.903371628921967" lon="-10.727746433455845"><ele>-1.75</ele><time>2026-04-28T11:53:57Z</time></trkpt><trkpt lat="28.90330178945655" lon="-10.727895398503893"><ele>-1.5</ele><time>2026-04-28T11:53:58Z</time></trkpt><trkpt lat="28.903234046113624" lon="-10.728040777949895"><ele>-1.25</ele><time>2026-04-28T11:53:59Z</time></trkpt><trkpt lat="28.903163709551734" lon="-10.728188347215596"><ele>-1.0</ele><time>2026-04-28T11:54:00Z</time></trkpt><trkpt lat="28.90308828584449" lon="-10.728338470582118"><ele>-1.0</ele><time>2026-04-28T11:54:01Z</time></trkpt><trkpt lat="28.903010653902243" lon="-10.728487832433064"><ele>-1.0</ele><time>2026-04-28T11:54:02Z</time></trkpt><trkpt lat="28.902933762664286" lon="-10.728640622756362"><ele>-1.0</ele><time>2026-04-28T11:54:03Z</time></trkpt><trkpt lat="28.902857056137016" lon="-10.728800291762257"><ele>-1.0</ele><time>2026-04-28T11:54:04Z</time></trkpt><trkpt lat="28.902782376562755" lon="-10.728958262835574"><ele>-1.0</ele><time>2026-04-28T11:54:05Z</time></trkpt><trkpt lat="28.902707534023" lon="-10.729119544970288"><ele>-1.0</ele><time>2026-04-28T11:54:06Z</time></trkpt><trkpt lat="28.90262914018112" lon="-10.729284159362873"><ele>-1.0</ele><time>2026-04-28T11:54:07Z</time></trkpt><trkpt lat="28.90254923721445" lon="-10.729457632192947"><ele>-1.0</ele><time>2026-04-28T11:54:08Z</time></trkpt><trkpt lat="28.902467490655805" lon="-10.729639695571475"><ele>-1.0</ele><time>2026-04-28T11:54:09Z</time></trkpt><trkpt lat="28.902388452635538" lon="-10.729808722158587"><ele>-4.0</ele><time>2026-04-28T11:54:10Z</time></trkpt><trkpt lat="28.902306782150372" lon="-10.729985227789907"><ele>-7.0</ele><time>2026-04-28T11:54:11Z</time></trkpt><trkpt lat="28.902223639584484" lon="-10.730158272134533"><ele>-10.0</ele><time>2026-04-28T11:54:12Z</time></trkpt><trkpt lat="28.90213293358287" lon="-10.730330215833131"><ele>-10.0</ele><time>2026-04-28T11:54:13Z</time></trkpt><trkpt lat="28.902038497382662" lon="-10.730500156693658"><ele>-10.0</ele><time>2026-04-28T11:54:14Z</time></trkpt><trkpt lat="28.90193805781796" lon="-10.730671124661967"><ele>-10.0</ele><time>2026-04-28T11:54:15Z</time></trkpt><trkpt lat="28.90183522327046" lon="-10.73084236096402"><ele>-6.333333333333334</ele><time>2026-04-28T11:54:16Z</time></trkpt><trkpt lat="28.901731606481693" lon="-10.73101353984776"><ele>-2.666666666666667</ele><time>2026-04-28T11:54:17Z</time></trkpt><trkpt lat="28.90162803368022" lon="-10.731182128603061"><ele>1.0</ele><time>2026-04-28T11:54:18Z</time></trkpt><trkpt lat="28.901527338943687" lon="-10.731353633085313"><ele>1.0</ele><time>2026-04-28T11:54:19Z</time></trkpt><trkpt lat="28.901428036437554" lon="-10.731523859557168"><ele>1.0</ele><time>2026-04-28T11:54:20Z</time></trkpt><trkpt lat="28.901330421384987" lon="-10.731693117099478"><ele>1.0</ele><time>2026-04-28T11:54:21Z</time></trkpt><trkpt lat="28.901237531396347" lon="-10.731862541696644"><ele>3.333333333333333</ele><time>2026-04-28T11:54:22Z</time></trkpt><trkpt lat="28.90115985472885" lon="-10.732032485370649"><ele>5.666666666666666</ele><time>2026-04-28T11:54:23Z</time></trkpt><trkpt lat="28.90107799990148" lon="-10.732197735146574"><ele>8.0</ele><time>2026-04-28T11:54:24Z</time></trkpt><trkpt lat="28.900996707390114" lon="-10.732359034523759"><ele>7.0</ele><time>2026-04-28T11:54:25Z</time></trkpt><trkpt lat="28.900914984222275" lon="-10.732518841292674"><ele>6.0</ele><time>2026-04-28T11:54:26Z</time></trkpt><trkpt lat="28.90083053683663" lon="-10.732678412218167"><ele>5.0</ele><time>2026-04-28T11:54:27Z</time></trkpt><trkpt lat="28.900746355501436" lon="-10.732835677200093"><ele>5.0</ele><time>2026-04-28T11:54:28Z</time></trkpt><trkpt lat="28.90066380180717" lon="-10.732992762572625"><ele>5.0</ele><time>2026-04-28T11:54:29Z</time></trkpt><trkpt lat="28.90058300094162" lon="-10.733158043174587"><ele>5.0</ele><time>2026-04-28T11:54:30Z</time></trkpt><trkpt lat="28.900500746868158" lon="-10.733322986585733"><ele>5.0</ele><time>2026-04-28T11:54:31Z</time></trkpt><trkpt lat="28.900423163924927" lon="-10.733480734687221"><ele>5.0</ele><time>2026-04-28T11:54:32Z</time></trkpt><trkpt lat="28.900344389138578" lon="-10.733636419537689"><ele>5.0</ele><time>2026-04-28T11:54:33Z</time></trkpt><trkpt lat="28.90026346933275" lon="-10.733785818676681"><ele>4.25</ele><time>2026-04-28T11:54:34Z</time></trkpt><trkpt lat="28.900184350133518" lon="-10.733920044287036"><ele>3.5</ele><time>2026-04-28T11:54:35Z</time></trkpt><trkpt lat="28.900106315506427" lon="-10.734050016493196"><ele>2.75</ele><time>2026-04-28T11:54:36Z</time></trkpt><trkpt lat="28.900030201040234" lon="-10.734172240498648"><ele>2.0</ele><time>2026-04-28T11:54:37Z</time></trkpt><trkpt lat="28.899964033713267" lon="-10.73429105444885"><ele>4.75</ele><time>2026-04-28T11:54:38Z</time></trkpt><trkpt lat="28.89990155231052" lon="-10.734416462361041"><ele>7.5</ele><time>2026-04-28T11:54:39Z</time></trkpt><trkpt lat="28.89983897988571" lon="-10.734546317042035"><ele>10.25</ele><time>2026-04-28T11:54:40Z</time></trkpt><trkpt lat="28.899767255075005" lon="-10.734683023335243"><ele>13.0</ele><time>2026-04-28T11:54:41Z</time></trkpt><trkpt lat="28.89969053930065" lon="-10.734827021550023"><ele>13.0</ele><time>2026-04-28T11:54:42Z</time></trkpt><trkpt lat="28.899615028388244" lon="-10.734962687302902"><ele>13.0</ele><time>2026-04-28T11:54:43Z</time></trkpt><trkpt lat="28.899546674161076" lon="-10.735079037248077"><ele>13.0</ele><time>2026-04-28T11:54:44Z</time></trkpt><trkpt lat="28.899484988254297" lon="-10.735178964869423"><ele>13.0</ele><time>2026-04-28T11:54:45Z</time></trkpt><trkpt lat="28.899424646129884" lon="-10.735277972355881"><ele>11.166666666666666</ele><time>2026-04-28T11:54:46Z</time></trkpt><trkpt lat="28.899375157909425" lon="-10.735359632584217"><ele>9.333333333333332</ele><time>2026-04-28T11:54:47Z</time></trkpt><trkpt lat="28.899327988362202" lon="-10.735437708486275"><ele>7.5</ele><time>2026-04-28T11:54:48Z</time></trkpt><trkpt lat="28.89928585647356" lon="-10.735506566821822"><ele>5.666666666666666</ele><time>2026-04-28T11:54:49Z</time></trkpt><trkpt lat="28.899248808704925" lon="-10.735573289503925"><ele>3.833333333333333</ele><time>2026-04-28T11:54:51Z</time></trkpt><trkpt lat="28.899259258699114" lon="-10.735663527977545"><ele>2.0</ele><time>2026-04-28T11:55:07Z</time></trkpt><trkpt lat="28.89924265534465" lon="-10.735741413400989"><ele>1.0</ele><time>2026-04-28T11:55:09Z</time></trkpt><trkpt lat="28.899194815815257" lon="-10.735830687312466"><ele>0.0</ele><time>2026-04-28T11:55:11Z</time></trkpt><trkpt lat="28.89913658494139" lon="-10.73594321972374"><ele>-1.0</ele><time>2026-04-28T11:55:13Z</time></trkpt><trkpt lat="28.89909622438292" lon="-10.736024583671293"><ele>-2.0</ele><time>2026-04-28T11:55:14Z</time></trkpt><trkpt lat="28.89892652650561" lon="-10.73604413169062"><ele>-2.0</ele><time>2026-04-28T11:55:15Z</time></trkpt><trkpt lat="28.898879367177376" lon="-10.736146926919973"><ele>-2.0</ele><time>2026-04-28T11:55:16Z</time></trkpt><trkpt lat="28.898835762894738" lon="-10.736242549604986"><ele>-2.0</ele><time>2026-04-28T11:55:17Z</time></trkpt><trkpt lat="28.898785942719588" lon="-10.736335161255116"><ele>-2.0</ele><time>2026-04-28T11:55:18Z</time></trkpt><trkpt lat="28.898732750612886" lon="-10.736434041052055"><ele>-2.0</ele><time>2026-04-28T11:55:19Z</time></trkpt><trkpt lat="28.898671665796524" lon="-10.736547599844261"><ele>-2.0</ele><time>2026-04-28T11:55:20Z</time></trkpt><trkpt lat="28.898605072512364" lon="-10.736671894997292"><ele>-2.0</ele><time>2026-04-28T11:55:21Z</time></trkpt><trkpt lat="28.8985363233358" lon="-10.736799890288147"><ele>-2.0</ele><time>2026-04-28T11:55:22Z</time></trkpt><trkpt lat="28.89846286202414" lon="-10.736934830668211"><ele>-2.0</ele><time>2026-04-28T11:55:23Z</time></trkpt><trkpt lat="28.898391568323042" lon="-10.737067576915395"><ele>-2.0</ele><time>2026-04-28T11:55:24Z</time></trkpt><trkpt lat="28.898340988093242" lon="-10.737161755443239"><ele>-2.0</ele><time>2026-04-28T11:55:25Z</time></trkpt><trkpt lat="28.898276492672103" lon="-10.73728220881329"><ele>-2.0</ele><time>2026-04-28T11:55:26Z</time></trkpt><trkpt lat="28.89821137286007" lon="-10.737403428304649"><ele>-2.0</ele><time>2026-04-28T11:55:27Z</time></trkpt><trkpt lat="28.89815090879975" lon="-10.737515787473479"><ele>-2.0</ele><time>2026-04-28T11:55:28Z</time></trkpt><trkpt lat="28.89808708119534" lon="-10.737634845912151"><ele>-2.0</ele><time>2026-04-28T11:55:29Z</time></trkpt><trkpt lat="28.898024222159872" lon="-10.73775230920387"><ele>-2.0</ele><time>2026-04-28T11:55:30Z</time></trkpt><trkpt lat="28.897953328518497" lon="-10.73789144646896"><ele>-2.0</ele><time>2026-04-28T11:55:31Z</time></trkpt><trkpt lat="28.897885792664468" lon="-10.738028364012242"><ele>-2.0</ele><time>2026-04-28T11:55:32Z</time></trkpt><trkpt lat="28.897817740458148" lon="-10.738166372960013"><ele>-2.0</ele><time>2026-04-28T11:55:33Z</time></trkpt><trkpt lat="28.897747325353674" lon="-10.738309177752718"><ele>-2.0</ele><time>2026-04-28T11:55:34Z</time></trkpt><trkpt lat="28.897676208843347" lon="-10.738453408059781"><ele>-2.0</ele><time>2026-04-28T11:55:35Z</time></trkpt><trkpt lat="28.89760636901329" lon="-10.738595092692606"><ele>-2.5</ele><time>2026-04-28T11:55:36Z</time></trkpt><trkpt lat="28.89753856349282" lon="-10.738732543247147"><ele>-3.0</ele><time>2026-04-28T11:55:37Z</time></trkpt><trkpt lat="28.897471550289264" lon="-10.738867407322921"><ele>-3.5</ele><time>2026-04-28T11:55:38Z</time></trkpt><trkpt lat="28.897401073762367" lon="-10.739009222597092"><ele>-4.0</ele><time>2026-04-28T11:55:39Z</time></trkpt><trkpt lat="28.89733220165882" lon="-10.739148700941843"><ele>-4.0</ele><time>2026-04-28T11:55:40Z</time></trkpt><trkpt lat="28.89726393829494" lon="-10.739287172643074"><ele>-4.0</ele><time>2026-04-28T11:55:41Z</time></trkpt><trkpt lat="28.897197073181673" lon="-10.739421422054482"><ele>-4.0</ele><time>2026-04-28T11:55:42Z</time></trkpt><trkpt lat="28.89713175077832" lon="-10.73953745326965"><ele>-4.0</ele><time>2026-04-28T11:55:43Z</time></trkpt><trkpt lat="28.897053520591637" lon="-10.739668491546608"><ele>-0.75</ele><time>2026-04-28T11:55:44.001Z</time></trkpt><trkpt lat="28.89697482253499" lon="-10.739802160517963"><ele>2.5</ele><time>2026-04-28T11:55:45.001Z</time></trkpt><trkpt lat="28.896893459916736" lon="-10.739939205979084"><ele>5.75</ele><time>2026-04-28T11:55:46.001Z</time></trkpt><trkpt lat="28.896811487711155" lon="-10.740077124370153"><ele>9.0</ele><time>2026-04-28T11:55:47.001Z</time></trkpt><trkpt lat="28.896726955728397" lon="-10.740220921366227"><ele>9.0</ele><time>2026-04-28T11:55:48.001Z</time></trkpt><trkpt lat="28.896645409843064" lon="-10.740358841653252"><ele>9.0</ele><time>2026-04-28T11:55:49.001Z</time></trkpt><trkpt lat="28.89653823758381" lon="-10.740592315358619"><ele>9.0</ele><time>2026-04-28T11:55:50.001Z</time></trkpt><trkpt lat="28.896475185756927" lon="-10.740757155480742"><ele>9.0</ele><time>2026-04-28T11:55:51.001Z</time></trkpt><trkpt lat="28.89642344558005" lon="-10.74089220175764"><ele>9.0</ele><time>2026-04-28T11:55:52.001Z</time></trkpt><trkpt lat="28.89636764512441" lon="-10.741038131593964"><ele>9.0</ele><time>2026-04-28T11:55:53.001Z</time></trkpt><trkpt lat="28.896314530269734" lon="-10.74117606449609"><ele>9.0</ele><time>2026-04-28T11:55:54.001Z</time></trkpt><trkpt lat="28.8962598550994" lon="-10.741317518568135"><ele>9.0</ele><time>2026-04-28T11:55:55.001Z</time></trkpt><trkpt lat="28.896204184274293" lon="-10.74146057219893"><ele>9.0</ele><time>2026-04-28T11:55:56.001Z</time></trkpt><trkpt lat="28.896172941524327" lon="-10.74155961904821"><ele>9.0</ele><time>2026-04-28T11:55:57.001Z</time></trkpt><trkpt lat="28.896109705654833" lon="-10.741686544324178"><ele>9.0</ele><time>2026-04-28T11:55:58.001Z</time></trkpt><trkpt lat="28.896044769338094" lon="-10.741816882448656"><ele>7.5</ele><time>2026-04-28T11:55:59.001Z</time></trkpt><trkpt lat="28.895978022066483" lon="-10.741951475472863"><ele>6.0</ele><time>2026-04-28T11:56:00.001Z</time></trkpt><trkpt lat="28.895908337209313" lon="-10.742091731943987"><ele>4.5</ele><time>2026-04-28T11:56:01Z</time></trkpt><trkpt lat="28.895835936003248" lon="-10.74223745563257"><ele>3.0</ele><time>2026-04-28T11:56:02Z</time></trkpt><trkpt lat="28.89576110707892" lon="-10.742388475411648"><ele>5.5</ele><time>2026-04-28T11:56:03Z</time></trkpt><trkpt lat="28.895687841554306" lon="-10.742535613778939"><ele>8.0</ele><time>2026-04-28T11:56:04Z</time></trkpt><trkpt lat="28.868848684042064" lon="-10.799583449415692"><ele>8.0</ele><time>2026-04-28T12:05:12.001Z</time></trkpt><trkpt lat="28.868778154804758" lon="-10.79977211064258"><ele>8.0</ele><time>2026-04-28T12:05:13.001Z</time></trkpt><trkpt lat="28.86870350740779" lon="-10.799943664479281"><ele>8.0</ele><time>2026-04-28T12:05:14.001Z</time></trkpt><trkpt lat="28.86862796743131" lon="-10.800112436888138"><ele>10.333333333333332</ele><time>2026-04-28T12:05:15.001Z</time></trkpt><trkpt lat="28.868561670412547" lon="-10.800299035991543"><ele>12.666666666666666</ele><time>2026-04-28T12:05:16.001Z</time></trkpt><trkpt lat="28.868501639484137" lon="-10.800481485124404"><ele>15.0</ele><time>2026-04-28T12:05:17.001Z</time></trkpt><trkpt lat="28.868428706374303" lon="-10.800651970384058"><ele>18.0</ele><time>2026-04-28T12:05:18.001Z</time></trkpt><trkpt lat="28.868259849145115" lon="-10.800972480356126"><ele>21.0</ele><time>2026-04-28T12:05:20.001Z</time></trkpt><trkpt lat="28.86817789802644" lon="-10.801134991603481"><ele>16.666666666666668</ele><time>2026-04-28T12:05:21.001Z</time></trkpt><trkpt lat="28.86809698440904" lon="-10.80129799116345"><ele>12.333333333333332</ele><time>2026-04-28T12:05:22.001Z</time></trkpt><trkpt lat="28.86801666848706" lon="-10.80146245723314"><ele>8.0</ele><time>2026-04-28T12:05:23.001Z</time></trkpt><trkpt lat="28.867940836159566" lon="-10.801629412634375"><ele>8.0</ele><time>2026-04-28T12:05:24.001Z</time></trkpt><trkpt lat="28.867867294377664" lon="-10.801795705825722"><ele>8.0</ele><time>2026-04-28T12:05:25.001Z</time></trkpt><trkpt lat="28.867791027731673" lon="-10.801959077700774"><ele>8.0</ele><time>2026-04-28T12:05:26.001Z</time></trkpt><trkpt lat="28.8677155690218" lon="-10.802121938986748"><ele>7.666666666666666</ele><time>2026-04-28T12:05:27.001Z</time></trkpt><trkpt lat="28.867648605269622" lon="-10.802281360741762"><ele>7.333333333333334</ele><time>2026-04-28T12:05:28.001Z</time></trkpt><trkpt lat="28.867577744625333" lon="-10.80244793374074"><ele>7.0</ele><time>2026-04-28T12:05:29.001Z</time></trkpt><trkpt lat="28.86750185809477" lon="-10.802610901620415"><ele>-1.333333333333333</ele><time>2026-04-28T12:05:30.001Z</time></trkpt><trkpt lat="28.86742142864903" lon="-10.802770952260744"><ele>-9.666666666666666</ele><time>2026-04-28T12:05:31.001Z</time></trkpt><trkpt lat="28.86733398195381" lon="-10.802933255986058"><ele>-18.0</ele><time>2026-04-28T12:05:32.001Z</time></trkpt><trkpt lat="28.867244449268398" lon="-10.803093032431404"><ele>-18.0</ele><time>2026-04-28T12:05:33.001Z</time></trkpt><trkpt lat="28.867165768943224" lon="-10.80325503415989"><ele>-18.0</ele><time>2026-04-28T12:05:34.002Z</time></trkpt><trkpt lat="28.8670929571636" lon="-10.803416287498315"><ele>-18.0</ele><time>2026-04-28T12:05:35.002Z</time></trkpt><trkpt lat="28.867019456686556" lon="-10.803576540022451"><ele>-13.666666666666666</ele><time>2026-04-28T12:05:36.002Z</time></trkpt><trkpt lat="28.86694472238927" lon="-10.803735245748989"><ele>-9.333333333333334</ele><time>2026-04-28T12:05:37.002Z</time></trkpt><trkpt lat="28.866867283321906" lon="-10.803897412485899"><ele>-5.0</ele><time>2026-04-28T12:05:38.002Z</time></trkpt><trkpt lat="28.86679154340724" lon="-10.804056671244972"><ele>0.5</ele><time>2026-04-28T12:05:39.002Z</time></trkpt><trkpt lat="28.86664851667395" lon="-10.804376749254539"><ele>6.0</ele><time>2026-04-28T12:05:41.002Z</time></trkpt><trkpt lat="28.86657775202174" lon="-10.804530294961154"><ele>6.0</ele><time>2026-04-28T12:05:42.002Z</time></trkpt><trkpt lat="28.86650463527527" lon="-10.804687878341122"><ele>6.0</ele><time>2026-04-28T12:05:43.002Z</time></trkpt><trkpt lat="28.866430745669078" lon="-10.804851304916328"><ele>6.0</ele><time>2026-04-28T12:05:44.002Z</time></trkpt><trkpt lat="28.86635791951998" lon="-10.805015156092614"><ele>2.0</ele><time>2026-04-28T12:05:45.002Z</time></trkpt><trkpt lat="28.86628160315385" lon="-10.805177536295021"><ele>-2.0</ele><time>2026-04-28T12:05:46.002Z</time></trkpt><trkpt lat="28.866205610047754" lon="-10.805336424462894"><ele>-6.0</ele><time>2026-04-28T12:05:47.002Z</time></trkpt><trkpt lat="28.866132987736957" lon="-10.80549588439472"><ele>-6.0</ele><time>2026-04-28T12:05:48.002Z</time></trkpt><trkpt lat="28.86606716298431" lon="-10.805652455775492"><ele>-6.0</ele><time>2026-04-28T12:05:49.002Z</time></trkpt><trkpt lat="28.866000487043614" lon="-10.805799566606908"><ele>-6.0</ele><time>2026-04-28T12:05:50.002Z</time></trkpt><trkpt lat="28.865927735783195" lon="-10.805940011459887"><ele>-6.0</ele><time>2026-04-28T12:05:51.002Z</time></trkpt><trkpt lat="28.865850035130887" lon="-10.806080943107897"><ele>-4.75</ele><time>2026-04-28T12:05:52.002Z</time></trkpt><trkpt lat="28.865778035929704" lon="-10.806219826606192"><ele>-3.5</ele><time>2026-04-28T12:05:53.002Z</time></trkpt><trkpt lat="28.865711945130613" lon="-10.806351349926873"><ele>-2.25</ele><time>2026-04-28T12:05:54.002Z</time></trkpt><trkpt lat="28.865650848713063" lon="-10.806485704621354"><ele>-1.0</ele><time>2026-04-28T12:05:55.002Z</time></trkpt><trkpt lat="28.865591024635695" lon="-10.806625937185895"><ele>-1.0</ele><time>2026-04-28T12:05:56.002Z</time></trkpt><trkpt lat="28.865529729442223" lon="-10.806776586885926"><ele>-1.0</ele><time>2026-04-28T12:05:57.002Z</time></trkpt><trkpt lat="28.865463422282097" lon="-10.806926969517505"><ele>-1.0</ele><time>2026-04-28T12:05:58.002Z</time></trkpt><trkpt lat="28.865386894582166" lon="-10.807074651200761"><ele>-1.0</ele><time>2026-04-28T12:05:59.002Z</time></trkpt><trkpt lat="28.86531004885413" lon="-10.807221086043244"><ele>-0.3333333333333333</ele><time>2026-04-28T12:06:00.002Z</time></trkpt><trkpt lat="28.865177253191757" lon="-10.807515969812716"><ele>0.3333333333333333</ele><time>2026-04-28T12:06:02.002Z</time></trkpt><trkpt lat="28.865108271831588" lon="-10.807658176281427"><ele>1.0</ele><time>2026-04-28T12:06:03.002Z</time></trkpt><trkpt lat="28.865034352666193" lon="-10.807800437205396"><ele>1.25</ele><time>2026-04-28T12:06:04.002Z</time></trkpt><trkpt lat="28.864959445768964" lon="-10.80794303025146"><ele>1.5</ele><time>2026-04-28T12:06:05.002Z</time></trkpt><trkpt lat="28.86488886529099" lon="-10.808091646669295"><ele>1.75</ele><time>2026-04-28T12:06:06.002Z</time></trkpt><trkpt lat="28.864820500309875" lon="-10.808237823049488"><ele>2.0</ele><time>2026-04-28T12:06:07.002Z</time></trkpt><trkpt lat="28.86475058676011" lon="-10.808380823849674"><ele>0.6666666666666666</ele><time>2026-04-28T12:06:08.002Z</time></trkpt><trkpt lat="28.864674809741807" lon="-10.808529051297915"><ele>-0.6666666666666666</ele><time>2026-04-28T12:06:09.002Z</time></trkpt><trkpt lat="28.864598801918735" lon="-10.808683970878823"><ele>-2.0</ele><time>2026-04-28T12:06:10.002Z</time></trkpt><trkpt lat="28.864522116323894" lon="-10.808840743868272"><ele>-2.0</ele><time>2026-04-28T12:06:11.002Z</time></trkpt><trkpt lat="28.864444026807572" lon="-10.80899735862371"><ele>-2.0</ele><time>2026-04-28T12:06:12.002Z</time></trkpt><trkpt lat="28.864366279731875" lon="-10.809154294664676"><ele>-2.0</ele><time>2026-04-28T12:06:13.002Z</time></trkpt><trkpt lat="28.86428933470663" lon="-10.80930976592142"><ele>0.0</ele><time>2026-04-28T12:06:14.003Z</time></trkpt><trkpt lat="28.864210304184642" lon="-10.809458091419817"><ele>2.0</ele><time>2026-04-28T12:06:15.003Z</time></trkpt><trkpt lat="28.86413481649232" lon="-10.809606928220774"><ele>4.0</ele><time>2026-04-28T12:06:16.003Z</time></trkpt><trkpt lat="28.864061698111836" lon="-10.80975763806904"><ele>4.0</ele><time>2026-04-28T12:06:17.003Z</time></trkpt><trkpt lat="28.86398927752999" lon="-10.80991062560995"><ele>4.0</ele><time>2026-04-28T12:06:18.003Z</time></trkpt><trkpt lat="28.863920059158332" lon="-10.81005966150236"><ele>4.0</ele><time>2026-04-28T12:06:19.003Z</time></trkpt><trkpt lat="28.86385633363472" lon="-10.810203459061427"><ele>4.0</ele><time>2026-04-28T12:06:20.003Z</time></trkpt><trkpt lat="28.86378594917901" lon="-10.810344577008555"><ele>3.6666666666666665</ele><time>2026-04-28T12:06:21.003Z</time></trkpt><trkpt lat="28.863644096899332" lon="-10.81062799908589"><ele>3.333333333333333</ele><time>2026-04-28T12:06:23.003Z</time></trkpt><trkpt lat="28.86357058457087" lon="-10.810759911882068"><ele>3.0</ele><time>2026-04-28T12:06:24.003Z</time></trkpt><trkpt lat="28.863492104544843" lon="-10.8109006099195"><ele>3.666666666666667</ele><time>2026-04-28T12:06:25.003Z</time></trkpt><trkpt lat="28.863418588506285" lon="-10.811052151475657"><ele>4.333333333333334</ele><time>2026-04-28T12:06:26.003Z</time></trkpt><trkpt lat="28.863347641649575" lon="-10.811203126424896"><ele>5.0</ele><time>2026-04-28T12:06:27.003Z</time></trkpt><trkpt lat="28.863275198363112" lon="-10.811350874179789"><ele>5.0</ele><time>2026-04-28T12:06:28.003Z</time></trkpt><trkpt lat="28.8631973067965" lon="-10.811498933568092"><ele>5.0</ele><time>2026-04-28T12:06:29.003Z</time></trkpt><trkpt lat="28.863116879066357" lon="-10.811649783865118"><ele>5.0</ele><time>2026-04-28T12:06:30.003Z</time></trkpt><trkpt lat="28.86303488532091" lon="-10.811807078235775"><ele>0.3333333333333335</ele><time>2026-04-28T12:06:31.002Z</time></trkpt><trkpt lat="28.86295351587874" lon="-10.811962976867802"><ele>-4.333333333333333</ele><time>2026-04-28T12:06:32.002Z</time></trkpt><trkpt lat="28.86287073150311" lon="-10.812116155624445"><ele>-9.0</ele><time>2026-04-28T12:06:33.002Z</time></trkpt><trkpt lat="28.86278787116622" lon="-10.812267523084772"><ele>-9.0</ele><time>2026-04-28T12:06:34.002Z</time></trkpt><trkpt lat="28.862702726575748" lon="-10.812421513437279"><ele>-9.0</ele><time>2026-04-28T12:06:35.002Z</time></trkpt><trkpt lat="28.86261679059886" lon="-10.812577689992649"><ele>-9.0</ele><time>2026-04-28T12:06:36.001Z</time></trkpt><trkpt lat="28.862531707986054" lon="-10.812730838354641"><ele>-3.6666666666666665</ele><time>2026-04-28T12:06:37.001Z</time></trkpt><trkpt lat="28.86244799228135" lon="-10.812883047913267"><ele>1.666666666666667</ele><time>2026-04-28T12:06:38.001Z</time></trkpt><trkpt lat="28.862366198607113" lon="-10.813033168903171"><ele>7.0</ele><time>2026-04-28T12:06:39.001Z</time></trkpt><trkpt lat="28.862286550370992" lon="-10.813180672455596"><ele>7.0</ele><time>2026-04-28T12:06:40.001Z</time></trkpt><trkpt lat="28.862216987760036" lon="-10.813332812579889"><ele>7.0</ele><time>2026-04-28T12:06:41.001Z</time></trkpt><trkpt lat="28.862151782262494" lon="-10.813488087176037"><ele>7.0</ele><time>2026-04-28T12:06:42.001Z</time></trkpt><trkpt lat="28.862015441716398" lon="-10.81379784084082"><ele>7.666666666666667</ele><time>2026-04-28T12:06:44.001Z</time></trkpt><trkpt lat="28.8619374297903" lon="-10.813955906375355"><ele>8.333333333333334</ele><time>2026-04-28T12:06:45.001Z</time></trkpt><trkpt lat="28.86185834479105" lon="-10.814107813638362"><ele>9.0</ele><time>2026-04-28T12:06:46.001Z</time></trkpt><trkpt lat="28.861784675638607" lon="-10.81424907533231"><ele>7.25</ele><time>2026-04-28T12:06:47.001Z</time></trkpt><trkpt lat="28.861711913310643" lon="-10.814393233121173"><ele>5.5</ele><time>2026-04-28T12:06:48.001Z</time></trkpt><trkpt lat="28.861641614365507" lon="-10.814538053913298"><ele>3.75</ele><time>2026-04-28T12:06:49.001Z</time></trkpt><trkpt lat="28.861568523925555" lon="-10.814677721349202"><ele>2.0</ele><time>2026-04-28T12:06:50.001Z</time></trkpt><trkpt lat="28.861499370045028" lon="-10.814820703309636"><ele>2.0</ele><time>2026-04-28T12:06:51.001Z</time></trkpt><trkpt lat="28.861431113375573" lon="-10.814967388777475"><ele>2.0</ele><time>2026-04-28T12:06:52.001Z</time></trkpt><trkpt lat="28.861359943558792" lon="-10.815112526917236"><ele>2.0</ele><time>2026-04-28T12:06:53.001Z</time></trkpt><trkpt lat="28.861294067148442" lon="-10.815244139491659"><ele>2.0</ele><time>2026-04-28T12:06:54.001Z</time></trkpt><trkpt lat="28.86123131054726" lon="-10.815379434042754"><ele>4.75</ele><time>2026-04-28T12:06:55.001Z</time></trkpt><trkpt lat="28.861177363109658" lon="-10.815520900289528"><ele>7.5</ele><time>2026-04-28T12:06:56.001Z</time></trkpt><trkpt lat="28.861123430263813" lon="-10.815655270553577"><ele>10.25</ele><time>2026-04-28T12:06:57.001Z</time></trkpt><trkpt lat="28.86106701138124" lon="-10.815781209167167"><ele>13.0</ele><time>2026-04-28T12:06:58.001Z</time></trkpt><trkpt lat="28.86100586033785" lon="-10.81591453857155"><ele>10.75</ele><time>2026-04-28T12:06:59.001Z</time></trkpt><trkpt lat="28.860951659724545" lon="-10.816050006257441"><ele>8.5</ele><time>2026-04-28T12:07:00.001Z</time></trkpt><trkpt lat="28.860901295048855" lon="-10.816193311486945"><ele>6.25</ele><time>2026-04-28T12:07:01.001Z</time></trkpt><trkpt lat="28.860850017521752" lon="-10.816335370554494"><ele>4.0</ele><time>2026-04-28T12:07:02.001Z</time></trkpt><trkpt lat="28.860796061617283" lon="-10.816482899380455"><ele>3.0</ele><time>2026-04-28T12:07:03.001Z</time></trkpt><trkpt lat="28.860677121441967" lon="-10.816794864288903"><ele>2.0</ele><time>2026-04-28T12:07:05.001Z</time></trkpt><trkpt lat="28.86061493450719" lon="-10.8169492926677"><ele>1.0</ele><time>2026-04-28T12:07:06.001Z</time></trkpt><trkpt lat="28.860553745704443" lon="-10.817104892700677"><ele>0.3333333333333333</ele><time>2026-04-28T12:07:07.001Z</time></trkpt><trkpt lat="28.860491747070107" lon="-10.817260967764565"><ele>-0.3333333333333333</ele><time>2026-04-28T12:07:08.001Z</time></trkpt><trkpt lat="28.860428073980884" lon="-10.817422581035249"><ele>-1.0</ele><time>2026-04-28T12:07:09.001Z</time></trkpt><trkpt lat="28.860363549817407" lon="-10.817583196212794"><ele>-2.0</ele><time>2026-04-28T12:07:10.001Z</time></trkpt><trkpt lat="28.860295571979904" lon="-10.817739476739344"><ele>-3.0</ele><time>2026-04-28T12:07:11.001Z</time></trkpt><trkpt lat="28.860226176802538" lon="-10.817893228452856"><ele>-4.0</ele><time>2026-04-28T12:07:12.001Z</time></trkpt><trkpt lat="28.86016237322952" lon="-10.818052365666244"><ele>-2.6666666666666665</ele><time>2026-04-28T12:07:13.001Z</time></trkpt><trkpt lat="28.860098890772083" lon="-10.818208966110534"><ele>-1.3333333333333333</ele><time>2026-04-28T12:07:14.001Z</time></trkpt><trkpt lat="28.86003285565545" lon="-10.81836392164718"><ele>0.0</ele><time>2026-04-28T12:07:15.001Z</time></trkpt><trkpt lat="28.85996143470026" lon="-10.818516540988574"><ele>0.0</ele><time>2026-04-28T12:07:16.001Z</time></trkpt><trkpt lat="28.859889020458485" lon="-10.818667553458845"><ele>0.0</ele><time>2026-04-28T12:07:17.001Z</time></trkpt><trkpt lat="28.859820849525104" lon="-10.818820819267213"><ele>0.0</ele><time>2026-04-28T12:07:18.001Z</time></trkpt><trkpt lat="28.859751307297046" lon="-10.818978608086866"><ele>0.0</ele><time>2026-04-28T12:07:19.001Z</time></trkpt><trkpt lat="28.859679206806792" lon="-10.819144445325232"><ele>0.0</ele><time>2026-04-28T12:07:20.001Z</time></trkpt><trkpt lat="28.85960352343501" lon="-10.819307519683361"><ele>0.0</ele><time>2026-04-28T12:07:21.001Z</time></trkpt><trkpt lat="28.85952201838202" lon="-10.8194703113378"><ele>-1.0</ele><time>2026-04-28T12:07:22.001Z</time></trkpt><trkpt lat="28.859437356864703" lon="-10.819634007859491"><ele>-2.0</ele><time>2026-04-28T12:07:23.001Z</time></trkpt><trkpt lat="28.85935246149344" lon="-10.81979717622847"><ele>-3.0</ele><time>2026-04-28T12:07:24.001Z</time></trkpt><trkpt lat="28.859181377859723" lon="-10.820128097322538"><ele>-1.0</ele><time>2026-04-28T12:07:26.001Z</time></trkpt><trkpt lat="28.859096808715165" lon="-10.820292356702877"><ele>1.0</ele><time>2026-04-28T12:07:27.001Z</time></trkpt><trkpt lat="28.85901615663092" lon="-10.820450616153197"><ele>3.0</ele><time>2026-04-28T12:07:28.001Z</time></trkpt><trkpt lat="28.858940163121986" lon="-10.820601824755261"><ele>3.0</ele><time>2026-04-28T12:07:29.001Z</time></trkpt><trkpt lat="28.858867232625048" lon="-10.820741492199586"><ele>3.0</ele><time>2026-04-28T12:07:30.001Z</time></trkpt><trkpt lat="28.858790665531764" lon="-10.82088646444802"><ele>3.0</ele><time>2026-04-28T12:07:31.001Z</time></trkpt><trkpt lat="28.858714116460224" lon="-10.821024900332404"><ele>3.0</ele><time>2026-04-28T12:07:32.001Z</time></trkpt><trkpt lat="28.858636853991115" lon="-10.821165557882704"><ele>4.5</ele><time>2026-04-28T12:07:33.001Z</time></trkpt><trkpt lat="28.85856194615296" lon="-10.821305673649032"><ele>6.0</ele><time>2026-04-28T12:07:34.001Z</time></trkpt><trkpt lat="28.858488829963797" lon="-10.821448710675783"><ele>7.5</ele><time>2026-04-28T12:07:35.001Z</time></trkpt><trkpt lat="28.858416657136438" lon="-10.821589438632754"><ele>9.0</ele><time>2026-04-28T12:07:36.001Z</time></trkpt><trkpt lat="28.858344635843313" lon="-10.82172981996393"><ele>9.0</ele><time>2026-04-28T12:07:37.001Z</time></trkpt><trkpt lat="28.85826707845937" lon="-10.821875974014876"><ele>9.0</ele><time>2026-04-28T12:07:38.001Z</time></trkpt><trkpt lat="28.858191927469257" lon="-10.82202286739365"><ele>9.0</ele><time>2026-04-28T12:07:39.001Z</time></trkpt><trkpt lat="28.858116882410506" lon="-10.822167973406572"><ele>9.0</ele><time>2026-04-28T12:07:40.001Z</time></trkpt><trkpt lat="28.8580429556282" lon="-10.82231190661433"><ele>6.25</ele><time>2026-04-28T12:07:41.001Z</time></trkpt><trkpt lat="28.857971078651246" lon="-10.822451878567264"><ele>3.5</ele><time>2026-04-28T12:07:42.001Z</time></trkpt><trkpt lat="28.857898435887222" lon="-10.822591441558021"><ele>0.75</ele><time>2026-04-28T12:07:43.001Z</time></trkpt><trkpt lat="28.85782890855226" lon="-10.82272250903284"><ele>-2.0</ele><time>2026-04-28T12:07:44.001Z</time></trkpt><trkpt lat="28.85776322834683" lon="-10.822853532057234"><ele>-2.0</ele><time>2026-04-28T12:07:45.002Z</time></trkpt><trkpt lat="28.85764426278011" lon="-10.82310931864194"><ele>-2.0</ele><time>2026-04-28T12:07:47.002Z</time></trkpt><trkpt lat="28.857584430644675" lon="-10.823238512822993"><ele>-2.0</ele><time>2026-04-28T12:07:48.002Z</time></trkpt><trkpt lat="28.857521271973315" lon="-10.823371992964642"><ele>-1.5</ele><time>2026-04-28T12:07:49.002Z</time></trkpt><trkpt lat="28.8574565300805" lon="-10.82350890332927"><ele>-1.0</ele><time>2026-04-28T12:07:50.002Z</time></trkpt><trkpt lat="28.8573900319822" lon="-10.82365263066353"><ele>-0.5</ele><time>2026-04-28T12:07:51.002Z</time></trkpt><trkpt lat="28.857321262737706" lon="-10.82379831003609"><ele>0.0</ele><time>2026-04-28T12:07:52.002Z</time></trkpt><trkpt lat="28.857251693543592" lon="-10.823943098807204"><ele>0.0</ele><time>2026-04-28T12:07:53.002Z</time></trkpt><trkpt lat="28.85718419925905" lon="-10.824082151389472"><ele>0.0</ele><time>2026-04-28T12:07:54.002Z</time></trkpt><trkpt lat="28.857120356545202" lon="-10.824214979992394"><ele>0.0</ele><time>2026-04-28T12:07:55.002Z</time></trkpt><trkpt lat="28.85706130175418" lon="-10.824342946234996"><ele>0.0</ele><time>2026-04-28T12:07:56.002Z</time></trkpt><trkpt lat="28.857009935036032" lon="-10.824468160709118"><ele>-1.0</ele><time>2026-04-28T12:07:57.002Z</time></trkpt><trkpt lat="28.856953640208246" lon="-10.824608142902896"><ele>-2.0</ele><time>2026-04-28T12:07:58.002Z</time></trkpt><trkpt lat="28.85689446502527" lon="-10.824748937392796"><ele>-3.0</ele><time>2026-04-28T12:07:59.002Z</time></trkpt><trkpt lat="28.85683175400265" lon="-10.824884690393484"><ele>-4.0</ele><time>2026-04-28T12:08:00.002Z</time></trkpt><trkpt lat="28.856765314005642" lon="-10.825010273651458"><ele>-3.25</ele><time>2026-04-28T12:08:01.002Z</time></trkpt><trkpt lat="28.856702319689475" lon="-10.825133154627308"><ele>-2.5</ele><time>2026-04-28T12:08:02.002Z</time></trkpt><trkpt lat="28.856637654665246" lon="-10.825241450402645"><ele>-1.75</ele><time>2026-04-28T12:08:03.002Z</time></trkpt><trkpt lat="28.856569100360407" lon="-10.8253543830927"><ele>-1.0</ele><time>2026-04-28T12:08:04.002Z</time></trkpt><trkpt lat="28.856504742312886" lon="-10.825468898601242"><ele>-1.0</ele><time>2026-04-28T12:08:05.002Z</time></trkpt><trkpt lat="28.856439660186794" lon="-10.82559403328327"><ele>-1.0</ele><time>2026-04-28T12:08:06.002Z</time></trkpt><trkpt lat="28.85630570273974" lon="-10.82585345655582"><ele>-1.0</ele><time>2026-04-28T12:08:08.002Z</time></trkpt><trkpt lat="28.85623668737641" lon="-10.825984004406047"><ele>-0.75</ele><time>2026-04-28T12:08:09.002Z</time></trkpt><trkpt lat="28.856167269248154" lon="-10.826120787633569"><ele>-0.5</ele><time>2026-04-28T12:08:10.002Z</time></trkpt><trkpt lat="28.856099514656233" lon="-10.82625792125178"><ele>-0.25</ele><time>2026-04-28T12:08:11.002Z</time></trkpt><trkpt lat="28.856033020403594" lon="-10.826392032108275"><ele>0.0</ele><time>2026-04-28T12:08:12.002Z</time></trkpt><trkpt lat="28.855965381297132" lon="-10.826524057506834"><ele>0.75</ele><time>2026-04-28T12:08:13.002Z</time></trkpt><trkpt lat="28.855893354160152" lon="-10.826662574052571"><ele>1.5</ele><time>2026-04-28T12:08:14.002Z</time></trkpt><trkpt lat="28.855829439915873" lon="-10.826794365796033"><ele>2.25</ele><time>2026-04-28T12:08:15.002Z</time></trkpt><trkpt lat="28.855776346883342" lon="-10.826926831414303"><ele>3.0</ele><time>2026-04-28T12:08:16.002Z</time></trkpt><trkpt lat="28.855716815253224" lon="-10.827061556696016"><ele>3.25</ele><time>2026-04-28T12:08:17.002Z</time></trkpt><trkpt lat="28.855657934692886" lon="-10.827202267869046"><ele>3.5</ele><time>2026-04-28T12:08:18.002Z</time></trkpt><trkpt lat="28.855596212701727" lon="-10.827340752629562"><ele>3.75</ele><time>2026-04-28T12:08:19.002Z</time></trkpt><trkpt lat="28.855531674002233" lon="-10.827482063043012"><ele>4.0</ele><time>2026-04-28T12:08:20.002Z</time></trkpt><trkpt lat="28.855465641985482" lon="-10.827619281848946"><ele>3.5</ele><time>2026-04-28T12:08:21.002Z</time></trkpt><trkpt lat="28.855398134414543" lon="-10.827756307001343"><ele>3.0</ele><time>2026-04-28T12:08:22.002Z</time></trkpt><trkpt lat="28.855329944966982" lon="-10.827893286609893"><ele>2.5</ele><time>2026-04-28T12:08:23.002Z</time></trkpt><trkpt lat="28.855262899438763" lon="-10.828035442587572"><ele>2.0</ele><time>2026-04-28T12:08:24.002Z</time></trkpt><trkpt lat="28.85519717608499" lon="-10.828187303774179"><ele>2.0</ele><time>2026-04-28T12:08:25.002Z</time></trkpt><trkpt lat="28.855133599167882" lon="-10.828342953073589"><ele>2.0</ele><time>2026-04-28T12:08:26.002Z</time></trkpt><trkpt lat="28.855071384855634" lon="-10.828499082310374"><ele>2.0</ele><time>2026-04-28T12:08:27.002Z</time></trkpt><trkpt lat="28.854942970249546" lon="-10.82879741020862"><ele>0.0</ele><time>2026-04-28T12:08:29.002Z</time></trkpt><trkpt lat="28.854872763296513" lon="-10.828946526278655"><ele>-2.0</ele><time>2026-04-28T12:08:30.002Z</time></trkpt><trkpt lat="28.854799373012607" lon="-10.829102169590367"><ele>-4.0</ele><time>2026-04-28T12:08:31.002Z</time></trkpt><trkpt lat="28.85472716594852" lon="-10.829256596447022"><ele>-5.0</ele><time>2026-04-28T12:08:32.002Z</time></trkpt><trkpt lat="28.85465485390244" lon="-10.829408943143168"><ele>-6.0</ele><time>2026-04-28T12:08:33.002Z</time></trkpt><trkpt lat="28.854581177627377" lon="-10.82955752927623"><ele>-7.0</ele><time>2026-04-28T12:08:34.002Z</time></trkpt><trkpt lat="28.85450813480508" lon="-10.829710197114395"><ele>-7.0</ele><time>2026-04-28T12:08:35.002Z</time></trkpt><trkpt lat="28.854437940215128" lon="-10.829863050517222"><ele>-7.0</ele><time>2026-04-28T12:08:36.002Z</time></trkpt><trkpt lat="28.854369865678574" lon="-10.83001448628789"><ele>-7.0</ele><time>2026-04-28T12:08:37.002Z</time></trkpt><trkpt lat="28.854304237855207" lon="-10.830164220229298"><ele>-7.0</ele><time>2026-04-28T12:08:38.002Z</time></trkpt><trkpt lat="28.854239006369518" lon="-10.83031353518473"><ele>-6.0</ele><time>2026-04-28T12:08:39.002Z</time></trkpt><trkpt lat="28.85417407848256" lon="-10.830460813991468"><ele>-5.0</ele><time>2026-04-28T12:08:40.002Z</time></trkpt><trkpt lat="28.85410624631636" lon="-10.830607149191485"><ele>-4.0</ele><time>2026-04-28T12:08:41.002Z</time></trkpt><trkpt lat="28.854032040951047" lon="-10.830755430437181"><ele>-3.0</ele><time>2026-04-28T12:08:42.002Z</time></trkpt><trkpt lat="28.853958645663994" lon="-10.830901273833241"><ele>-2.0</ele><time>2026-04-28T12:08:43.001Z</time></trkpt><trkpt lat="28.853885182175752" lon="-10.831047506693213"><ele>-1.0</ele><time>2026-04-28T12:08:44.001Z</time></trkpt><trkpt lat="28.853813417222224" lon="-10.831197223935305"><ele>0.0</ele><time>2026-04-28T12:08:45.001Z</time></trkpt><trkpt lat="28.85373964068392" lon="-10.831352280338221"><ele>0.0</ele><time>2026-04-28T12:08:46.001Z</time></trkpt><trkpt lat="28.853663704861958" lon="-10.83150704504592"><ele>0.0</ele><time>2026-04-28T12:08:47.001Z</time></trkpt><trkpt lat="28.853511503923276" lon="-10.831818117135668"><ele>0.0</ele><time>2026-04-28T12:08:49.001Z</time></trkpt><trkpt lat="28.853432457754522" lon="-10.831974367302614"><ele>0.0</ele><time>2026-04-28T12:08:50.001Z</time></trkpt><trkpt lat="28.85334593040901" lon="-10.832124722762789"><ele>0.0</ele><time>2026-04-28T12:08:51.001Z</time></trkpt><trkpt lat="28.85326040321577" lon="-10.8322733540493"><ele>0.0</ele><time>2026-04-28T12:08:52.001Z</time></trkpt><trkpt lat="28.85318060487151" lon="-10.832418469775101"><ele>0.0</ele><time>2026-04-28T12:08:53.001Z</time></trkpt><trkpt lat="28.853106285052256" lon="-10.832563954292487"><ele>0.0</ele><time>2026-04-28T12:08:54.001Z</time></trkpt><trkpt lat="28.85303337527293" lon="-10.832708722266961"><ele>0.0</ele><time>2026-04-28T12:08:55.001Z</time></trkpt><trkpt lat="28.852960019334763" lon="-10.832852708209026"><ele>0.6666666666666666</ele><time>2026-04-28T12:08:56.001Z</time></trkpt><trkpt lat="28.85287854821847" lon="-10.833005673970975"><ele>1.3333333333333333</ele><time>2026-04-28T12:08:57.001Z</time></trkpt><trkpt lat="28.85279934132688" lon="-10.833156998415735"><ele>2.0</ele><time>2026-04-28T12:08:58.001Z</time></trkpt><trkpt lat="28.852727252119617" lon="-10.833299969307571"><ele>2.0</ele><time>2026-04-28T12:08:59.001Z</time></trkpt><trkpt lat="28.85265825957049" lon="-10.833438920865303"><ele>2.0</ele><time>2026-04-28T12:09:00.001Z</time></trkpt><trkpt lat="28.85258826276202" lon="-10.833576270275284"><ele>2.0</ele><time>2026-04-28T12:09:01.001Z</time></trkpt><trkpt lat="28.852522187603952" lon="-10.833707162156175"><ele>2.0</ele><time>2026-04-28T12:09:02.001Z</time></trkpt><trkpt lat="28.85245517160481" lon="-10.833830722417572"><ele>1.25</ele><time>2026-04-28T12:09:03.001Z</time></trkpt><trkpt lat="28.852383218078256" lon="-10.83396411955459"><ele>0.5</ele><time>2026-04-28T12:09:04.001Z</time></trkpt><trkpt lat="28.85231004011459" lon="-10.834102999178214"><ele>-0.25</ele><time>2026-04-28T12:09:05.001Z</time></trkpt><trkpt lat="28.852242996430675" lon="-10.834242588931701"><ele>-1.0</ele><time>2026-04-28T12:09:06.001Z</time></trkpt><trkpt lat="28.852173595417263" lon="-10.834384501045555"><ele>-2.0</ele><time>2026-04-28T12:09:07.001Z</time></trkpt><trkpt lat="28.852099590971108" lon="-10.834527353405838"><ele>-3.0</ele><time>2026-04-28T12:09:08.001Z</time></trkpt><trkpt lat="28.851952052244982" lon="-10.834798258498145"><ele>-4.0</ele><time>2026-04-28T12:09:10.001Z</time></trkpt><trkpt lat="28.85188374168272" lon="-10.834928745907703"><ele>-4.0</ele><time>2026-04-28T12:09:11.001Z</time></trkpt><trkpt lat="28.851818870794474" lon="-10.83505972176858"><ele>-4.0</ele><time>2026-04-28T12:09:12.001Z</time></trkpt><trkpt lat="28.851754906432845" lon="-10.835189949383642"><ele>-4.0</ele><time>2026-04-28T12:09:13.001Z</time></trkpt><trkpt lat="28.851688001672322" lon="-10.83531863895646"><ele>-4.0</ele><time>2026-04-28T12:09:14.001Z</time></trkpt><trkpt lat="28.851620326290554" lon="-10.835453983955196"><ele>-2.0</ele><time>2026-04-28T12:09:15.001Z</time></trkpt><trkpt lat="28.851551633486405" lon="-10.83559415346842"><ele>0.0</ele><time>2026-04-28T12:09:16.001Z</time></trkpt><trkpt lat="28.851483423455765" lon="-10.835730757984786"><ele>2.0</ele><time>2026-04-28T12:09:17.001Z</time></trkpt><trkpt lat="28.85141672371907" lon="-10.835869379934056"><ele>4.0</ele><time>2026-04-28T12:09:18.001Z</time></trkpt><trkpt lat="28.851347202732423" lon="-10.836004519869942"><ele>6.25</ele><time>2026-04-28T12:09:19.001Z</time></trkpt><trkpt lat="28.85127555278157" lon="-10.836137153431388"><ele>8.5</ele><time>2026-04-28T12:09:20.001Z</time></trkpt><trkpt lat="28.851201600240874" lon="-10.836263920843896"><ele>10.75</ele><time>2026-04-28T12:09:21.001Z</time></trkpt><trkpt lat="28.85112338267322" lon="-10.83639450581377"><ele>13.0</ele><time>2026-04-28T12:09:22.001Z</time></trkpt><trkpt lat="28.851042688522753" lon="-10.836527497728463"><ele>13.0</ele><time>2026-04-28T12:09:23.001Z</time></trkpt><trkpt lat="28.850961290709957" lon="-10.836663692133286"><ele>13.0</ele><time>2026-04-28T12:09:24.001Z</time></trkpt><trkpt lat="28.850879765529776" lon="-10.836802881107989"><ele>13.0</ele><time>2026-04-28T12:09:25.001Z</time></trkpt><trkpt lat="28.8508005377049" lon="-10.83694518358045"><ele>13.0</ele><time>2026-04-28T12:09:26.001Z</time></trkpt><trkpt lat="28.850722744706452" lon="-10.837090964136213"><ele>8.666666666666666</ele><time>2026-04-28T12:09:27.001Z</time></trkpt><trkpt lat="28.850649181971068" lon="-10.837239538236018"><ele>4.333333333333333</ele><time>2026-04-28T12:09:28.001Z</time></trkpt><trkpt lat="28.85057755942474" lon="-10.837388509085766"><ele>0.0</ele><time>2026-04-28T12:09:29.001Z</time></trkpt><trkpt lat="28.85043788209282" lon="-10.837685242029925"><ele>-1.0</ele><time>2026-04-28T12:09:31.001Z</time></trkpt><trkpt lat="28.85036590050579" lon="-10.837836218683702"><ele>-2.0</ele><time>2026-04-28T12:09:32.001Z</time></trkpt><trkpt lat="28.85028854383715" lon="-10.83798693662367"><ele>-3.0</ele><time>2026-04-28T12:09:33.001Z</time></trkpt><trkpt lat="28.850208501307822" lon="-10.838139298024176"><ele>-3.0</ele><time>2026-04-28T12:09:34.001Z</time></trkpt><trkpt lat="28.85012801754302" lon="-10.838290769138432"><ele>-3.0</ele><time>2026-04-28T12:09:35.001Z</time></trkpt><trkpt lat="28.850047939618733" lon="-10.838440618868663"><ele>-3.0</ele><time>2026-04-28T12:09:36.001Z</time></trkpt><trkpt lat="28.84996808823171" lon="-10.838593898210629"><ele>-5.333333333333334</ele><time>2026-04-28T12:09:37.001Z</time></trkpt><trkpt lat="28.84989514329753" lon="-10.83875350200322"><ele>-7.666666666666667</ele><time>2026-04-28T12:09:38.001Z</time></trkpt><trkpt lat="28.8498280310499" lon="-10.838917392013382"><ele>-10.0</ele><time>2026-04-28T12:09:39.001Z</time></trkpt><trkpt lat="28.849760559199588" lon="-10.839078097524657"><ele>-10.0</ele><time>2026-04-28T12:09:40.001Z</time></trkpt><trkpt lat="28.849693283858226" lon="-10.839240159393123"><ele>-10.0</ele><time>2026-04-28T12:09:41.001Z</time></trkpt><trkpt lat="28.84962729814832" lon="-10.839399782919614"><ele>-10.0</ele><time>2026-04-28T12:09:42.001Z</time></trkpt><trkpt lat="28.849559379374213" lon="-10.83955606399344"><ele>-9.333333333333334</ele><time>2026-04-28T12:09:43.001Z</time></trkpt><trkpt lat="28.849486572913648" lon="-10.839714423022693"><ele>-8.666666666666666</ele><time>2026-04-28T12:09:44.001Z</time></trkpt><trkpt lat="28.849409986702263" lon="-10.839872321999676"><ele>-8.0</ele><time>2026-04-28T12:09:45.001Z</time></trkpt><trkpt lat="28.849332722224617" lon="-10.840033674197235"><ele>-7.0</ele><time>2026-04-28T12:09:46.001Z</time></trkpt><trkpt lat="28.849258038926394" lon="-10.840195008847944"><ele>-6.0</ele><time>2026-04-28T12:09:47.001Z</time></trkpt><trkpt lat="28.849186591398915" lon="-10.840356949835918"><ele>-5.0</ele><time>2026-04-28T12:09:48.001Z</time></trkpt><trkpt lat="28.849114805989924" lon="-10.84051983360261"><ele>-5.0</ele><time>2026-04-28T12:09:49.001Z</time></trkpt><trkpt lat="28.84904459898714" lon="-10.840680133257086"><ele>-5.0</ele><time>2026-04-28T12:09:50.001Z</time></trkpt><trkpt lat="28.848902693895656" lon="-10.840981905315202"><ele>-5.25</ele><time>2026-04-28T12:09:52.001Z</time></trkpt><trkpt lat="28.848830125888558" lon="-10.841126911104404"><ele>-5.5</ele><time>2026-04-28T12:09:53.001Z</time></trkpt><trkpt lat="28.84875650963654" lon="-10.841272389707582"><ele>-5.75</ele><time>2026-04-28T12:09:54.001Z</time></trkpt><trkpt lat="28.848681398002356" lon="-10.841420888951403"><ele>-6.0</ele><time>2026-04-28T12:09:55.001Z</time></trkpt><trkpt lat="28.848602307419622" lon="-10.841565836256889"><ele>-6.0</ele><time>2026-04-28T12:09:56.001Z</time></trkpt><trkpt lat="28.84852611564807" lon="-10.841710566684608"><ele>-6.0</ele><time>2026-04-28T12:09:57.001Z</time></trkpt><trkpt lat="28.848456088285655" lon="-10.841854969792267"><ele>-6.0</ele><time>2026-04-28T12:09:58.001Z</time></trkpt><trkpt lat="28.848383707854865" lon="-10.842005488399515"><ele>-6.0</ele><time>2026-04-28T12:09:59.001Z</time></trkpt><trkpt lat="28.84831108760859" lon="-10.842162723188972"><ele>-6.0</ele><time>2026-04-28T12:10:00.001Z</time></trkpt><trkpt lat="28.848240240154503" lon="-10.842317166978972"><ele>-6.0</ele><time>2026-04-28T12:10:01.001Z</time></trkpt><trkpt lat="28.848165810235283" lon="-10.842469500517318"><ele>-6.0</ele><time>2026-04-28T12:10:02.001Z</time></trkpt><trkpt lat="28.84808611158428" lon="-10.84261460466473"><ele>-5.666666666666667</ele><time>2026-04-28T12:10:03.002Z</time></trkpt><trkpt lat="28.84800148612538" lon="-10.84275852966832"><ele>-5.333333333333334</ele><time>2026-04-28T12:10:04.002Z</time></trkpt><trkpt lat="28.847912403582892" lon="-10.842905912959266"><ele>-5.0</ele><time>2026-04-28T12:10:05.002Z</time></trkpt><trkpt lat="28.847831491637095" lon="-10.8430647535223"><ele>-5.0</ele><time>2026-04-28T12:10:06.002Z</time></trkpt><trkpt lat="28.8477618836656" lon="-10.84323246470024"><ele>-5.0</ele><time>2026-04-28T12:10:07.002Z</time></trkpt><trkpt lat="28.847702185493215" lon="-10.843413877967528"><ele>-5.0</ele><time>2026-04-28T12:10:08.002Z</time></trkpt><trkpt lat="28.84765141959113" lon="-10.843604326563035"><ele>-5.333333333333334</ele><time>2026-04-28T12:10:09.002Z</time></trkpt><trkpt lat="28.847601968475686" lon="-10.843770747438937"><ele>-5.666666666666667</ele><time>2026-04-28T12:10:10.002Z</time></trkpt><trkpt lat="28.847536324038455" lon="-10.843920086832037"><ele>-6.0</ele><time>2026-04-28T12:10:11.002Z</time></trkpt><trkpt lat="28.84734257835673" lon="-10.844194803292815"><ele>-5.333333333333333</ele><time>2026-04-28T12:10:13.002Z</time></trkpt><trkpt lat="28.847216808448295" lon="-10.844349958882082"><ele>-4.666666666666666</ele><time>2026-04-28T12:10:14.002Z</time></trkpt><trkpt lat="28.84709987408614" lon="-10.844513234200818"><ele>-4.0</ele><time>2026-04-28T12:10:15.002Z</time></trkpt><trkpt lat="28.847006070214146" lon="-10.84468654662134"><ele>-4.0</ele><time>2026-04-28T12:10:16.002Z</time></trkpt><trkpt lat="28.846936282627507" lon="-10.844854398951034"><ele>-4.0</ele><time>2026-04-28T12:10:17.002Z</time></trkpt><trkpt lat="28.84687641373224" lon="-10.845017933136532"><ele>-4.0</ele><time>2026-04-28T12:10:18.002Z</time></trkpt><trkpt lat="28.84680670639017" lon="-10.845169135439098"><ele>-5.2</ele><time>2026-04-28T12:10:19.002Z</time></trkpt><trkpt lat="28.84673836414385" lon="-10.845315651471903"><ele>-6.4</ele><time>2026-04-28T12:10:20.002Z</time></trkpt><trkpt lat="28.846677510409627" lon="-10.845422549056309"><ele>-7.6</ele><time>2026-04-28T12:10:21.002Z</time></trkpt><trkpt lat="28.846624090983617" lon="-10.84550481431713"><ele>-8.8</ele><time>2026-04-28T12:10:22.002Z</time></trkpt><trkpt lat="28.846573185987857" lon="-10.845554489136276"><ele>-10.0</ele><time>2026-04-28T12:10:23.002Z</time></trkpt><trkpt lat="28.84644791702756" lon="-10.845578742521942"><ele>-10.0</ele><time>2026-04-28T12:10:25.002Z</time></trkpt><trkpt lat="28.84636507226251" lon="-10.84555713796192"><ele>-10.0</ele><time>2026-04-28T12:10:26.002Z</time></trkpt><trkpt lat="28.846290073469564" lon="-10.845513235320741"><ele>-10.0</ele><time>2026-04-28T12:10:27.002Z</time></trkpt><trkpt lat="28.846229632868788" lon="-10.845444121580924"><ele>-10.0</ele><time>2026-04-28T12:10:28.002Z</time></trkpt><trkpt lat="28.846179510625674" lon="-10.845366466634895"><ele>-10.0</ele><time>2026-04-28T12:10:29.002Z</time></trkpt><trkpt lat="28.84612753649481" lon="-10.845278152355524"><ele>-10.0</ele><time>2026-04-28T12:10:30.002Z</time></trkpt><trkpt lat="28.846065297144516" lon="-10.845173919596641"><ele>-8.333333333333334</ele><time>2026-04-28T12:10:31.002Z</time></trkpt><trkpt lat="28.84598862094104" lon="-10.845073128546161"><ele>-6.666666666666667</ele><time>2026-04-28T12:10:32.002Z</time></trkpt><trkpt lat="28.84580731756919" lon="-10.844893774893174"><ele>-5.0</ele><time>2026-04-28T12:10:34.002Z</time></trkpt><trkpt lat="28.84571234411532" lon="-10.84481965209273"><ele>-5.0</ele><time>2026-04-28T12:10:35.002Z</time></trkpt><trkpt lat="28.845634691945925" lon="-10.84476304124069"><ele>-5.0</ele><time>2026-04-28T12:10:36.002Z</time></trkpt><trkpt lat="28.845574191905776" lon="-10.84471713647685"><ele>-5.0</ele><time>2026-04-28T12:10:37.002Z</time></trkpt><trkpt lat="28.84545802786427" lon="-10.84467716147731"><ele>-5.0</ele><time>2026-04-28T12:10:39.002Z</time></trkpt><trkpt lat="28.8453263597855" lon="-10.844731127937331"><ele>-5.0</ele><time>2026-04-28T12:10:41.002Z</time></trkpt><trkpt lat="28.845248780865084" lon="-10.84480909705306"><ele>-5.0</ele><time>2026-04-28T12:10:42.002Z</time></trkpt><trkpt lat="28.845193708736645" lon="-10.844894038889539"><ele>-5.0</ele><time>2026-04-28T12:10:43.001Z</time></trkpt><trkpt lat="28.845159026486442" lon="-10.84495404529471"><ele>-5.0</ele><time>2026-04-28T12:10:44.001Z</time></trkpt><trkpt lat="28.84513605577152" lon="-10.845075431230674"><ele>-5.0</ele><time>2026-04-28T12:10:46.001Z</time></trkpt><trkpt lat="28.845172338392416" lon="-10.845146298391661"><ele>-5.0</ele><time>2026-04-28T12:10:47.001Z</time></trkpt><trkpt lat="28.84525812055646" lon="-10.845176290733928"><ele>-5.0</ele><time>2026-04-28T12:10:49.001Z</time></trkpt><trkpt lat="28.845333969628747" lon="-10.845088673469341"><ele>-5.0</ele><time>2026-04-28T12:10:51.001Z</time></trkpt><trkpt lat="28.84534586234913" lon="-10.844993042976043"><ele>-5.0</ele><time>2026-04-28T12:10:52.001Z</time></trkpt><trkpt lat="28.845318822688416" lon="-10.844869894780105"><ele>-5.0</ele><time>2026-04-28T12:10:53.001Z</time></trkpt><trkpt lat="28.845219690585278" lon="-10.84466560206616"><ele>-5.0</ele><time>2026-04-28T12:10:55.001Z</time></trkpt><trkpt lat="28.845283877384244" lon="-10.844672404483813"><ele>-5.0</ele><time>2026-04-28T12:16:27.001Z</time></trkpt><trkpt lat="28.8454013267143" lon="-10.84474435819328"><ele>-5.0</ele><time>2026-04-28T12:16:41.001Z</time></trkpt><trkpt lat="28.845339867393243" lon="-10.8447273400085"><ele>-5.0</ele><time>2026-04-28T12:17:18Z</time></trkpt></trkseg><trkseg><trkpt lat="28.845263909527862" lon="-10.844620164591607"><ele>-5.0</ele><time>2026-04-28T13:41:32Z</time></trkpt><trkpt lat="28.845188214124036" lon="-10.8445428017081"><ele>-5.0</ele><time>2026-04-28T13:41:34Z</time></trkpt><trkpt lat="28.845121893400542" lon="-10.844505755491017"><ele>-5.0</ele><time>2026-04-28T13:41:35Z</time></trkpt><trkpt lat="28.845055290258355" lon="-10.844455803772847"><ele>-5.0</ele><time>2026-04-28T13:41:36Z</time></trkpt><trkpt lat="28.84499006496148" lon="-10.84441109183894"><ele>-5.0</ele><time>2026-04-28T13:41:37Z</time></trkpt><trkpt lat="28.844920118767327" lon="-10.844370378394673"><ele>-5.0</ele><time>2026-04-28T13:41:38Z</time></trkpt><trkpt lat="28.844848223593285" lon="-10.844321999869493"><ele>-4.166666666666667</ele><time>2026-04-28T13:41:39Z</time></trkpt><trkpt lat="28.844782312192063" lon="-10.844273024071493"><ele>-3.3333333333333335</ele><time>2026-04-28T13:41:40Z</time></trkpt><trkpt lat="28.84471589247842" lon="-10.84421908436555"><ele>-2.5</ele><time>2026-04-28T13:41:41Z</time></trkpt><trkpt lat="28.844633842427193" lon="-10.844170691982656"><ele>-1.6666666666666667</ele><time>2026-04-28T13:41:42Z</time></trkpt><trkpt lat="28.844551145382503" lon="-10.844136376388002"><ele>-0.8333333333333334</ele><time>2026-04-28T13:41:43Z</time></trkpt><trkpt lat="28.844484559493214" lon="-10.8441062931917"><ele>0.0</ele><time>2026-04-28T13:41:44Z</time></trkpt><trkpt lat="28.844413352094122" lon="-10.844063461118743"><ele>0.0</ele><time>2026-04-28T13:41:45Z</time></trkpt><trkpt lat="28.844307145558" lon="-10.844013671874226"><ele>0.0</ele><time>2026-04-28T13:41:46Z</time></trkpt><trkpt lat="28.844207086707755" lon="-10.843944488492703"><ele>0.0</ele><time>2026-04-28T13:41:47Z</time></trkpt><trkpt lat="28.844083260975925" lon="-10.843854579446317"><ele>0.0</ele><time>2026-04-28T13:41:48Z</time></trkpt><trkpt lat="28.843950819932758" lon="-10.843791313115448"><ele>0.5</ele><time>2026-04-28T13:41:49Z</time></trkpt><trkpt lat="28.843809899663597" lon="-10.843737211283312"><ele>1.0</ele><time>2026-04-28T13:41:50Z</time></trkpt><trkpt lat="28.843677107580667" lon="-10.843675626309503"><ele>1.5</ele><time>2026-04-28T13:41:51Z</time></trkpt><trkpt lat="28.84358577481852" lon="-10.843616761316454"><ele>2.0</ele><time>2026-04-28T13:41:52Z</time></trkpt><trkpt lat="28.843512901861445" lon="-10.843554922574071"><ele>2.6</ele><time>2026-04-28T13:41:53Z</time></trkpt><trkpt lat="28.84344070377181" lon="-10.843489991456837"><ele>3.2</ele><time>2026-04-28T13:41:54Z</time></trkpt><trkpt lat="28.843376557491627" lon="-10.843419572068912"><ele>3.8</ele><time>2026-04-28T13:41:55Z</time></trkpt><trkpt lat="28.843313439061042" lon="-10.843332772225661"><ele>4.4</ele><time>2026-04-28T13:41:56Z</time></trkpt><trkpt lat="28.843247006744107" lon="-10.843238553948785"><ele>5.0</ele><time>2026-04-28T13:41:57Z</time></trkpt><trkpt lat="28.843182431895237" lon="-10.843140036010132"><ele>5.0</ele><time>2026-04-28T13:41:58Z</time></trkpt><trkpt lat="28.843124746616542" lon="-10.843027539652724"><ele>5.0</ele><time>2026-04-28T13:41:59Z</time></trkpt><trkpt lat="28.84307964733439" lon="-10.842923197010776"><ele>5.0</ele><time>2026-04-28T13:42:00Z</time></trkpt><trkpt lat="28.84302967078369" lon="-10.84283873271756"><ele>5.0</ele><time>2026-04-28T13:42:01Z</time></trkpt><trkpt lat="28.842976657256745" lon="-10.842760567040392"><ele>5.0</ele><time>2026-04-28T13:42:02Z</time></trkpt><trkpt lat="28.84291273286528" lon="-10.842671164357068"><ele>5.2</ele><time>2026-04-28T13:42:03Z</time></trkpt><trkpt lat="28.8428432685399" lon="-10.842582079900302"><ele>5.4</ele><time>2026-04-28T13:42:04Z</time></trkpt><trkpt lat="28.842761914021" lon="-10.842478783601422"><ele>5.6</ele><time>2026-04-28T13:42:05Z</time></trkpt><trkpt lat="28.842681045790062" lon="-10.842393323555672"><ele>5.8</ele><time>2026-04-28T13:42:06Z</time></trkpt><trkpt lat="28.842608451262056" lon="-10.842312512387522"><ele>6.0</ele><time>2026-04-28T13:42:07Z</time></trkpt><trkpt lat="28.842544266162157" lon="-10.842234552353988"><ele>6.0</ele><time>2026-04-28T13:42:08Z</time></trkpt><trkpt lat="28.842482292928196" lon="-10.842159305466218"><ele>6.0</ele><time>2026-04-28T13:42:09Z</time></trkpt><trkpt lat="28.8424133749352" lon="-10.842082739728346"><ele>6.0</ele><time>2026-04-28T13:42:10Z</time></trkpt><trkpt lat="28.842344649174766" lon="-10.842010464804433"><ele>6.0</ele><time>2026-04-28T13:42:11Z</time></trkpt><trkpt lat="28.84228108507183" lon="-10.841945647516665"><ele>6.0</ele><time>2026-04-28T13:42:12Z</time></trkpt><trkpt lat="28.84221777241901" lon="-10.841887252404021"><ele>6.0</ele><time>2026-04-28T13:42:13Z</time></trkpt><trkpt lat="28.842155376252542" lon="-10.841817907233361"><ele>6.666666666666667</ele><time>2026-04-28T13:42:14Z</time></trkpt><trkpt lat="28.842096518637472" lon="-10.841753182657389"><ele>7.333333333333334</ele><time>2026-04-28T13:42:15Z</time></trkpt><trkpt lat="28.842032428516546" lon="-10.841687981149372"><ele>8.0</ele><time>2026-04-28T13:42:16Z</time></trkpt><trkpt lat="28.841961974694836" lon="-10.841619304968859"><ele>8.666666666666668</ele><time>2026-04-28T13:42:17Z</time></trkpt><trkpt lat="28.841905726728374" lon="-10.841563523815445"><ele>9.333333333333334</ele><time>2026-04-28T13:42:18Z</time></trkpt><trkpt lat="28.84185679489085" lon="-10.84151260877754"><ele>10.0</ele><time>2026-04-28T13:42:19Z</time></trkpt><trkpt lat="28.841808825084577" lon="-10.841463496948668"><ele>9.6</ele><time>2026-04-28T13:42:20Z</time></trkpt><trkpt lat="28.841733113544027" lon="-10.841371632421765"><ele>9.2</ele><time>2026-04-28T13:42:22Z</time></trkpt><trkpt lat="28.84168073432826" lon="-10.84129407704251"><ele>8.8</ele><time>2026-04-28T13:42:24Z</time></trkpt><trkpt lat="28.84160484242091" lon="-10.841198206975246"><ele>8.4</ele><time>2026-04-28T13:42:27Z</time></trkpt><trkpt lat="28.84156799949171" lon="-10.841126853885372"><ele>8.0</ele><time>2026-04-28T13:42:28Z</time></trkpt><trkpt lat="28.8415257778463" lon="-10.841046247049968"><ele>7.6000000000000005</ele><time>2026-04-28T13:42:29Z</time></trkpt><trkpt lat="28.84146793244866" lon="-10.840961190458302"><ele>7.200000000000001</ele><time>2026-04-28T13:42:30Z</time></trkpt><trkpt lat="28.841410584858973" lon="-10.840889437322607"><ele>6.8</ele><time>2026-04-28T13:42:31Z</time></trkpt><trkpt lat="28.841351639824328" lon="-10.840809286414899"><ele>6.4</ele><time>2026-04-28T13:42:32Z</time></trkpt><trkpt lat="28.8412950256434" lon="-10.840712082212596"><ele>6.0</ele><time>2026-04-28T13:42:33Z</time></trkpt><trkpt lat="28.841245875484404" lon="-10.84059507131963"><ele>6.0</ele><time>2026-04-28T13:42:34Z</time></trkpt><trkpt lat="28.84119926079837" lon="-10.840460380266844"><ele>6.0</ele><time>2026-04-28T13:42:35Z</time></trkpt><trkpt lat="28.84115854706774" lon="-10.84031645602192"><ele>6.0</ele><time>2026-04-28T13:42:36Z</time></trkpt><trkpt lat="28.841119435179387" lon="-10.840191554324871"><ele>6.0</ele><time>2026-04-28T13:42:37Z</time></trkpt><trkpt lat="28.84108987985842" lon="-10.840094835475112"><ele>5.3999999999999995</ele><time>2026-04-28T13:42:38Z</time></trkpt><trkpt lat="28.84105887162151" lon="-10.84000435183047"><ele>4.8</ele><time>2026-04-28T13:42:39Z</time></trkpt><trkpt lat="28.84102478561075" lon="-10.839895813120485"><ele>4.199999999999999</ele><time>2026-04-28T13:42:40Z</time></trkpt><trkpt lat="28.840996241158535" lon="-10.83977475495579"><ele>3.5999999999999996</ele><time>2026-04-28T13:42:41Z</time></trkpt><trkpt lat="28.840961383824883" lon="-10.839632823862525"><ele>3.0</ele><time>2026-04-28T13:42:42Z</time></trkpt><trkpt lat="28.840927560252133" lon="-10.839483685720209"><ele>3.0</ele><time>2026-04-28T13:42:42.999Z</time></trkpt><trkpt lat="28.840895332317388" lon="-10.839345623284371"><ele>3.0</ele><time>2026-04-28T13:42:43.999Z</time></trkpt><trkpt lat="28.84086128004935" lon="-10.839204350406305"><ele>3.0</ele><time>2026-04-28T13:42:44.999Z</time></trkpt><trkpt lat="28.840825029558165" lon="-10.83905254697037"><ele>3.0</ele><time>2026-04-28T13:42:45.999Z</time></trkpt><trkpt lat="28.84079008460299" lon="-10.838902980139558"><ele>2.75</ele><time>2026-04-28T13:42:46.999Z</time></trkpt><trkpt lat="28.840754903714224" lon="-10.838766309316142"><ele>2.5</ele><time>2026-04-28T13:42:47.999Z</time></trkpt><trkpt lat="28.840720118980286" lon="-10.838628821018002"><ele>2.25</ele><time>2026-04-28T13:42:48.999Z</time></trkpt><trkpt lat="28.840693196173653" lon="-10.838503157451404"><ele>2.0</ele><time>2026-04-28T13:42:49.999Z</time></trkpt><trkpt lat="28.84067448917018" lon="-10.8383925045969"><ele>2.0</ele><time>2026-04-28T13:42:50.999Z</time></trkpt><trkpt lat="28.840664583561917" lon="-10.838294348214308"><ele>2.0</ele><time>2026-04-28T13:42:51.999Z</time></trkpt><trkpt lat="28.84065347744842" lon="-10.838195760600911"><ele>2.0</ele><time>2026-04-28T13:42:52.999Z</time></trkpt><trkpt lat="28.840641909465017" lon="-10.838087425820055"><ele>2.0</ele><time>2026-04-28T13:42:53.999Z</time></trkpt><trkpt lat="28.840631746622435" lon="-10.837971531421871"><ele>2.0</ele><time>2026-04-28T13:42:54.999Z</time></trkpt><trkpt lat="28.8406244684441" lon="-10.837863943775723"><ele>2.0</ele><time>2026-04-28T13:42:55.999Z</time></trkpt><trkpt lat="28.84061591687927" lon="-10.83775294186724"><ele>2.0</ele><time>2026-04-28T13:42:56.999Z</time></trkpt><trkpt lat="28.840600367525944" lon="-10.837655023412845"><ele>2.0</ele><time>2026-04-28T13:42:57.999Z</time></trkpt><trkpt lat="28.8405696313472" lon="-10.837561972211608"><ele>2.0</ele><time>2026-04-28T13:42:58.999Z</time></trkpt><trkpt lat="28.840535021435574" lon="-10.837442849006512"><ele>2.0</ele><time>2026-04-28T13:42:59.999Z</time></trkpt><trkpt lat="28.840512412308595" lon="-10.837314039112728"><ele>2.75</ele><time>2026-04-28T13:43:00.999Z</time></trkpt><trkpt lat="28.840497170891897" lon="-10.837171463582097"><ele>3.5</ele><time>2026-04-28T13:43:02Z</time></trkpt><trkpt lat="28.840492848944177" lon="-10.837008950757655"><ele>4.25</ele><time>2026-04-28T13:43:03Z</time></trkpt><trkpt lat="28.84049756488311" lon="-10.836821624486648"><ele>5.0</ele><time>2026-04-28T13:43:04Z</time></trkpt><trkpt lat="28.840494948361687" lon="-10.836624229009125"><ele>5.666666666666667</ele><time>2026-04-28T13:43:05Z</time></trkpt><trkpt lat="28.840489631886797" lon="-10.836410370602469"><ele>6.333333333333334</ele><time>2026-04-28T13:43:06Z</time></trkpt><trkpt lat="28.840481536272193" lon="-10.836186938538974"><ele>7.0</ele><time>2026-04-28T13:43:07Z</time></trkpt><trkpt lat="28.840470693283482" lon="-10.835964015049237"><ele>7.0</ele><time>2026-04-28T13:43:08Z</time></trkpt><trkpt lat="28.840464972823533" lon="-10.835759326342593"><ele>7.0</ele><time>2026-04-28T13:43:09Z</time></trkpt><trkpt lat="28.840461028210246" lon="-10.835554165853463"><ele>7.0</ele><time>2026-04-28T13:43:10Z</time></trkpt><trkpt lat="28.8404601899844" lon="-10.835363310323448"><ele>7.0</ele><time>2026-04-28T13:43:11Z</time></trkpt><trkpt lat="28.840459519252562" lon="-10.835179314191265"><ele>7.0</ele><time>2026-04-28T13:43:12Z</time></trkpt><trkpt lat="28.840459242131896" lon="-10.834995454348647"><ele>7.0</ele><time>2026-04-28T13:43:13Z</time></trkpt><trkpt lat="28.84045796849699" lon="-10.834817237291135"><ele>7.0</ele><time>2026-04-28T13:43:14Z</time></trkpt><trkpt lat="28.84045652169208" lon="-10.8346360182234"><ele>7.0</ele><time>2026-04-28T13:43:15Z</time></trkpt><trkpt lat="28.840461371646967" lon="-10.834458454955168"><ele>7.0</ele><time>2026-04-28T13:43:16Z</time></trkpt><trkpt lat="28.840475883716802" lon="-10.834285145834322"><ele>7.0</ele><time>2026-04-28T13:43:17Z</time></trkpt><trkpt lat="28.84050015271968" lon="-10.834117220220834"><ele>7.0</ele><time>2026-04-28T13:43:18Z</time></trkpt><trkpt lat="28.840530923734846" lon="-10.833959367796956"><ele>7.0</ele><time>2026-04-28T13:43:19Z</time></trkpt><trkpt lat="28.84056120484408" lon="-10.833802080054873"><ele>7.0</ele><time>2026-04-28T13:43:20Z</time></trkpt><trkpt lat="28.840594652076526" lon="-10.833644199299798"><ele>7.0</ele><time>2026-04-28T13:43:21Z</time></trkpt><trkpt lat="28.840637395855964" lon="-10.833498897536204"><ele>7.0</ele><time>2026-04-28T13:43:22Z</time></trkpt><trkpt lat="28.840685881784353" lon="-10.83335421786891"><ele>7.0</ele><time>2026-04-28T13:43:23Z</time></trkpt><trkpt lat="28.840727746950538" lon="-10.833203693887263"><ele>7.0</ele><time>2026-04-28T13:43:24Z</time></trkpt><trkpt lat="28.840758499041574" lon="-10.833045325674458"><ele>6.333333333333334</ele><time>2026-04-28T13:43:25Z</time></trkpt><trkpt lat="28.84077472257908" lon="-10.832882064633106"><ele>5.666666666666667</ele><time>2026-04-28T13:43:26Z</time></trkpt><trkpt lat="28.840781924918744" lon="-10.832702792256573"><ele>5.0</ele><time>2026-04-28T13:43:27Z</time></trkpt><trkpt lat="28.840795247239235" lon="-10.832528177312145"><ele>4.5</ele><time>2026-04-28T13:43:28Z</time></trkpt><trkpt lat="28.84080975877264" lon="-10.832357472569784"><ele>4.0</ele><time>2026-04-28T13:43:29Z</time></trkpt><trkpt lat="28.84082527879705" lon="-10.832199134693735"><ele>3.5</ele><time>2026-04-28T13:43:30Z</time></trkpt><trkpt lat="28.840846595376096" lon="-10.832034594026709"><ele>3.0</ele><time>2026-04-28T13:43:31Z</time></trkpt><trkpt lat="28.840868128479592" lon="-10.831867018803589"><ele>3.25</ele><time>2026-04-28T13:43:32Z</time></trkpt><trkpt lat="28.840885385585306" lon="-10.831711637497948"><ele>3.5</ele><time>2026-04-28T13:43:33Z</time></trkpt><trkpt lat="28.840898342781337" lon="-10.831564220955105"><ele>3.75</ele><time>2026-04-28T13:43:34Z</time></trkpt><trkpt lat="28.84090631217674" lon="-10.831416666178313"><ele>4.0</ele><time>2026-04-28T13:43:35Z</time></trkpt><trkpt lat="28.840920997844584" lon="-10.831273883858422"><ele>4.0</ele><time>2026-04-28T13:43:36Z</time></trkpt><trkpt lat="28.84093640948586" lon="-10.831133860695914"><ele>4.0</ele><time>2026-04-28T13:43:37Z</time></trkpt><trkpt lat="28.840948832863727" lon="-10.830990575782197"><ele>4.0</ele><time>2026-04-28T13:43:38Z</time></trkpt><trkpt lat="28.84095533540793" lon="-10.830846330285635"><ele>4.0</ele><time>2026-04-28T13:43:39Z</time></trkpt><trkpt lat="28.840954764269924" lon="-10.83069959265175"><ele>4.25</ele><time>2026-04-28T13:43:40Z</time></trkpt><trkpt lat="28.840954647604534" lon="-10.830548229032624"><ele>4.5</ele><time>2026-04-28T13:43:41Z</time></trkpt><trkpt lat="28.84095741802258" lon="-10.83039661802795"><ele>4.75</ele><time>2026-04-28T13:43:42Z</time></trkpt><trkpt lat="28.840956652946815" lon="-10.830244782442119"><ele>5.0</ele><time>2026-04-28T13:43:43Z</time></trkpt><trkpt lat="28.84095327679494" lon="-10.830092845135828"><ele>5.5</ele><time>2026-04-28T13:43:44Z</time></trkpt><trkpt lat="28.84094187016125" lon="-10.82995804637785"><ele>6.0</ele><time>2026-04-28T13:43:45Z</time></trkpt><trkpt lat="28.840929995489127" lon="-10.829827066276497"><ele>6.5</ele><time>2026-04-28T13:43:46Z</time></trkpt><trkpt lat="28.840906029729656" lon="-10.829695538744406"><ele>7.0</ele><time>2026-04-28T13:43:47Z</time></trkpt><trkpt lat="28.84087978710821" lon="-10.829576908210111"><ele>7.0</ele><time>2026-04-28T13:43:48Z</time></trkpt><trkpt lat="28.84085030567183" lon="-10.82946693761861"><ele>6.999999999999999</ele><time>2026-04-28T13:43:49Z</time></trkpt><trkpt lat="28.840820279955945" lon="-10.82935542291286"><ele>6.999999999999999</ele><time>2026-04-28T13:43:50Z</time></trkpt><trkpt lat="28.840789000274484" lon="-10.829253439843567"><ele>7.0</ele><time>2026-04-28T13:43:51Z</time></trkpt><trkpt lat="28.840755068291614" lon="-10.829172187155944"><ele>7.0</ele><time>2026-04-28T13:43:52Z</time></trkpt><trkpt lat="28.840715413198584" lon="-10.829085897419548"><ele>7.500000000000001</ele><time>2026-04-28T13:43:53Z</time></trkpt><trkpt lat="28.840664947233766" lon="-10.82900015749999"><ele>8.0</ele><time>2026-04-28T13:43:54Z</time></trkpt><trkpt lat="28.840608124307895" lon="-10.828916850580562"><ele>8.5</ele><time>2026-04-28T13:43:55Z</time></trkpt><trkpt lat="28.84055543766439" lon="-10.828834042712566"><ele>9.0</ele><time>2026-04-28T13:43:56Z</time></trkpt><trkpt lat="28.84051507058445" lon="-10.828756144689882"><ele>9.5</ele><time>2026-04-28T13:43:57Z</time></trkpt><trkpt lat="28.84047510369249" lon="-10.82868827686239"><ele>10.0</ele><time>2026-04-28T13:43:58Z</time></trkpt><trkpt lat="28.84039436159712" lon="-10.828590077930066"><ele>10.0</ele><time>2026-04-28T13:44:00Z</time></trkpt><trkpt lat="28.840317057029733" lon="-10.828530881807898"><ele>10.0</ele><time>2026-04-28T13:44:02Z</time></trkpt><trkpt lat="28.840263646799613" lon="-10.82848727652746"><ele>10.0</ele><time>2026-04-28T13:44:04Z</time></trkpt><trkpt lat="28.840187848445613" lon="-10.82844712144378"><ele>10.0</ele><time>2026-04-28T13:44:07Z</time></trkpt><trkpt lat="28.840103563720202" lon="-10.828435267459016"><ele>10.0</ele><time>2026-04-28T13:44:10Z</time></trkpt><trkpt lat="28.83998611343792" lon="-10.82841030579455"><ele>10.0</ele><time>2026-04-28T13:44:13Z</time></trkpt><trkpt lat="28.839920198138635" lon="-10.828400014886126"><ele>10.0</ele><time>2026-04-28T13:44:14Z</time></trkpt><trkpt lat="28.839847140358245" lon="-10.828400058853255"><ele>10.0</ele><time>2026-04-28T13:44:15Z</time></trkpt><trkpt lat="28.839765125415372" lon="-10.828423191257999"><ele>10.0</ele><time>2026-04-28T13:44:16Z</time></trkpt><trkpt lat="28.839676262603437" lon="-10.828463531889188"><ele>10.0</ele><time>2026-04-28T13:44:17Z</time></trkpt><trkpt lat="28.839569177875802" lon="-10.828536509250407"><ele>10.0</ele><time>2026-04-28T13:44:18Z</time></trkpt><trkpt lat="28.839465669686145" lon="-10.828606820604623"><ele>10.0</ele><time>2026-04-28T13:44:19Z</time></trkpt><trkpt lat="28.839379981934137" lon="-10.828653339425248"><ele>10.0</ele><time>2026-04-28T13:44:20Z</time></trkpt><trkpt lat="28.83930801077318" lon="-10.828691474135937"><ele>10.0</ele><time>2026-04-28T13:44:21Z</time></trkpt><trkpt lat="28.839215267409244" lon="-10.82875194940421"><ele>10.0</ele><time>2026-04-28T13:44:23Z</time></trkpt><trkpt lat="28.83914051059416" lon="-10.82879648666861"><ele>10.0</ele><time>2026-04-28T13:44:25Z</time></trkpt><trkpt lat="28.83907382712505" lon="-10.828811400997179"><ele>10.0</ele><time>2026-04-28T13:44:27Z</time></trkpt><trkpt lat="28.83900405293416" lon="-10.828809945454257"><ele>10.166666666666668</ele><time>2026-04-28T13:44:29Z</time></trkpt><trkpt lat="28.83894172361092" lon="-10.828831991282298"><ele>10.333333333333334</ele><time>2026-04-28T13:44:31Z</time></trkpt><trkpt lat="28.838936963648507" lon="-10.828907460664846"><ele>10.5</ele><time>2026-04-28T13:44:34Z</time></trkpt><trkpt lat="28.839047757108723" lon="-10.828875107699252"><ele>10.666666666666666</ele><time>2026-04-28T13:44:37Z</time></trkpt><trkpt lat="28.839083104330165" lon="-10.828797176014435"><ele>10.833333333333332</ele><time>2026-04-28T13:44:40Z</time></trkpt><trkpt lat="28.839141098068964" lon="-10.828727169729044"><ele>11.0</ele><time>2026-04-28T13:44:43Z</time></trkpt><trkpt lat="28.839216669245417" lon="-10.828741163543208"><ele>11.0</ele><time>2026-04-28T13:44:47Z</time></trkpt><trkpt lat="28.839211169538167" lon="-10.828853486593868"><ele>11.0</ele><time>2026-04-28T13:44:49.999Z</time></trkpt><trkpt lat="28.839094121738533" lon="-10.828904564418359"><ele>11.0</ele><time>2026-04-28T13:44:51.999Z</time></trkpt><trkpt lat="28.83902393194447" lon="-10.828930502517691"><ele>11.0</ele><time>2026-04-28T13:44:52.999Z</time></trkpt><trkpt lat="28.838946109189955" lon="-10.82897778281492"><ele>11.0</ele><time>2026-04-28T13:44:54Z</time></trkpt><trkpt lat="28.838860897763652" lon="-10.829035440851465"><ele>11.0</ele><time>2026-04-28T13:44:55Z</time></trkpt><trkpt lat="28.8387829789121" lon="-10.829085600694311"><ele>11.0</ele><time>2026-04-28T13:44:56Z</time></trkpt><trkpt lat="28.83871063336563" lon="-10.829133871294925"><ele>11.0</ele><time>2026-04-28T13:44:57Z</time></trkpt><trkpt lat="28.83862036946386" lon="-10.829197985578443"><ele>11.0</ele><time>2026-04-28T13:44:58Z</time></trkpt><trkpt lat="28.83852224597506" lon="-10.829275677336684"><ele>11.0</ele><time>2026-04-28T13:44:59Z</time></trkpt><trkpt lat="28.838420311801244" lon="-10.829371515605587"><ele>14.25</ele><time>2026-04-28T13:45:00Z</time></trkpt><trkpt lat="28.838319418778127" lon="-10.829476917505476"><ele>17.5</ele><time>2026-04-28T13:45:01Z</time></trkpt><trkpt lat="28.838223610961148" lon="-10.829589398086831"><ele>20.75</ele><time>2026-04-28T13:45:02Z</time></trkpt><trkpt lat="28.838143613314863" lon="-10.8297045559794"><ele>24.0</ele><time>2026-04-28T13:45:03Z</time></trkpt><trkpt lat="28.838064874962644" lon="-10.829822168002854"><ele>24.0</ele><time>2026-04-28T13:45:04Z</time></trkpt><trkpt lat="28.837994878402863" lon="-10.829925534989231"><ele>24.0</ele><time>2026-04-28T13:45:05Z</time></trkpt><trkpt lat="28.837931078698436" lon="-10.830002066472241"><ele>24.0</ele><time>2026-04-28T13:45:06Z</time></trkpt><trkpt lat="28.837848754842828" lon="-10.830081900010049"><ele>24.0</ele><time>2026-04-28T13:45:07Z</time></trkpt><trkpt lat="28.83775673244785" lon="-10.830163332114067"><ele>24.0</ele><time>2026-04-28T13:45:08Z</time></trkpt><trkpt lat="28.837660914861278" lon="-10.830244897263162"><ele>26.25</ele><time>2026-04-28T13:45:09Z</time></trkpt><trkpt lat="28.837563184890193" lon="-10.830326993287523"><ele>28.5</ele><time>2026-04-28T13:45:10Z</time></trkpt><trkpt lat="28.83745086535168" lon="-10.830396610725296"><ele>30.75</ele><time>2026-04-28T13:45:11Z</time></trkpt><trkpt lat="28.83733957958194" lon="-10.830444890819061"><ele>33.0</ele><time>2026-04-28T13:45:12Z</time></trkpt><trkpt lat="28.8372224077994" lon="-10.830491867476107"><ele>33.0</ele><time>2026-04-28T13:45:13Z</time></trkpt><trkpt lat="28.837102342841444" lon="-10.830542453332207"><ele>33.0</ele><time>2026-04-28T13:45:14Z</time></trkpt><trkpt lat="28.836997807216015" lon="-10.830580949553557"><ele>33.0</ele><time>2026-04-28T13:45:15Z</time></trkpt><trkpt lat="28.836899079459883" lon="-10.830607546625684"><ele>33.0</ele><time>2026-04-28T13:45:16Z</time></trkpt><trkpt lat="28.836796186023815" lon="-10.83061935959718"><ele>33.0</ele><time>2026-04-28T13:45:17Z</time></trkpt><trkpt lat="28.836686099111372" lon="-10.83062842930369"><ele>30.599999999999998</ele><time>2026-04-28T13:45:18Z</time></trkpt><trkpt lat="28.83657007602504" lon="-10.83062831668212"><ele>28.199999999999996</ele><time>2026-04-28T13:45:19Z</time></trkpt><trkpt lat="28.836461961602378" lon="-10.830610029667023"><ele>25.8</ele><time>2026-04-28T13:45:20Z</time></trkpt><trkpt lat="28.836364587601505" lon="-10.830580095582688"><ele>23.4</ele><time>2026-04-28T13:45:21Z</time></trkpt><trkpt lat="28.836261964697016" lon="-10.830542660573933"><ele>21.0</ele><time>2026-04-28T13:45:22Z</time></trkpt><trkpt lat="28.83615036097132" lon="-10.830495796541614"><ele>21.0</ele><time>2026-04-28T13:45:23Z</time></trkpt><trkpt lat="28.836033755359402" lon="-10.830438399903459"><ele>21.0</ele><time>2026-04-28T13:45:24Z</time></trkpt><trkpt lat="28.83590414123054" lon="-10.830353302516707"><ele>21.0</ele><time>2026-04-28T13:45:25Z</time></trkpt><trkpt lat="28.83575541327631" lon="-10.830262759049587"><ele>21.0</ele><time>2026-04-28T13:45:26Z</time></trkpt><trkpt lat="28.83562996750794" lon="-10.830190746890693"><ele>18.400000000000002</ele><time>2026-04-28T13:45:27Z</time></trkpt><trkpt lat="28.835521897743305" lon="-10.830131193350935"><ele>15.8</ele><time>2026-04-28T13:45:28Z</time></trkpt><trkpt lat="28.835424634433508" lon="-10.830070186394845"><ele>13.200000000000001</ele><time>2026-04-28T13:45:29Z</time></trkpt><trkpt lat="28.835330282059413" lon="-10.830005907203159"><ele>10.600000000000001</ele><time>2026-04-28T13:45:30Z</time></trkpt><trkpt lat="28.83524349674606" lon="-10.829936080804783"><ele>8.0</ele><time>2026-04-28T13:45:31Z</time></trkpt><trkpt lat="28.83516338383848" lon="-10.829857341363635"><ele>8.0</ele><time>2026-04-28T13:45:32Z</time></trkpt><trkpt lat="28.835085558124977" lon="-10.829775333713544"><ele>8.0</ele><time>2026-04-28T13:45:33Z</time></trkpt><trkpt lat="28.835004016232233" lon="-10.829676823565011"><ele>8.0</ele><time>2026-04-28T13:45:34Z</time></trkpt><trkpt lat="28.83490431763495" lon="-10.829559946725613"><ele>8.0</ele><time>2026-04-28T13:45:35Z</time></trkpt><trkpt lat="28.834795964114733" lon="-10.82943736034678"><ele>8.0</ele><time>2026-04-28T13:45:36Z</time></trkpt><trkpt lat="28.834686765885728" lon="-10.829328647337693"><ele>8.0</ele><time>2026-04-28T13:45:37Z</time></trkpt><trkpt lat="28.83458140591372" lon="-10.829221370619008"><ele>8.0</ele><time>2026-04-28T13:45:38Z</time></trkpt><trkpt lat="28.834486011588112" lon="-10.829113335645642"><ele>8.0</ele><time>2026-04-28T13:45:39Z</time></trkpt><trkpt lat="28.834405090077055" lon="-10.829005553830926"><ele>8.0</ele><time>2026-04-28T13:45:40Z</time></trkpt><trkpt lat="28.834335445593265" lon="-10.82888472223694"><ele>8.0</ele><time>2026-04-28T13:45:41Z</time></trkpt><trkpt lat="28.83426696818265" lon="-10.828755129746975"><ele>8.0</ele><time>2026-04-28T13:45:42Z</time></trkpt><trkpt lat="28.834200753368012" lon="-10.828622783926484"><ele>8.0</ele><time>2026-04-28T13:45:43Z</time></trkpt><trkpt lat="28.834146051077756" lon="-10.828495252185771"><ele>8.0</ele><time>2026-04-28T13:45:44Z</time></trkpt><trkpt lat="28.83409259997416" lon="-10.828360449464927"><ele>8.0</ele><time>2026-04-28T13:45:45Z</time></trkpt><trkpt lat="28.834035798953995" lon="-10.828216193178886"><ele>8.0</ele><time>2026-04-28T13:45:46Z</time></trkpt><trkpt lat="28.833976603894598" lon="-10.828063596840671"><ele>8.0</ele><time>2026-04-28T13:45:47Z</time></trkpt><trkpt lat="28.83391522462087" lon="-10.827913524472605"><ele>8.0</ele><time>2026-04-28T13:45:48Z</time></trkpt><trkpt lat="28.8338486159226" lon="-10.827760284342942"><ele>8.0</ele><time>2026-04-28T13:45:49Z</time></trkpt><trkpt lat="28.833787361720947" lon="-10.827621058439389"><ele>8.0</ele><time>2026-04-28T13:45:50Z</time></trkpt><trkpt lat="28.833727134738968" lon="-10.827488643968554"><ele>8.0</ele><time>2026-04-28T13:45:51Z</time></trkpt><trkpt lat="28.83365781956501" lon="-10.827350982650952"><ele>8.0</ele><time>2026-04-28T13:45:52Z</time></trkpt><trkpt lat="28.83355463269293" lon="-10.827191637318647"><ele>8.0</ele><time>2026-04-28T13:45:53Z</time></trkpt><trkpt lat="28.83346160224155" lon="-10.827047323706926"><ele>8.0</ele><time>2026-04-28T13:45:54Z</time></trkpt><trkpt lat="28.83339004909334" lon="-10.82692124437783"><ele>8.0</ele><time>2026-04-28T13:45:55Z</time></trkpt><trkpt lat="28.833325177569872" lon="-10.826815793578783"><ele>8.0</ele><time>2026-04-28T13:45:56Z</time></trkpt><trkpt lat="28.83326606998545" lon="-10.826730687528926"><ele>8.0</ele><time>2026-04-28T13:45:57Z</time></trkpt><trkpt lat="28.833204786662858" lon="-10.826654034401015"><ele>8.0</ele><time>2026-04-28T13:45:58Z</time></trkpt><trkpt lat="28.83313591298266" lon="-10.826574965427657"><ele>8.0</ele><time>2026-04-28T13:45:59Z</time></trkpt><trkpt lat="28.83305284598842" lon="-10.826488839240563"><ele>8.0</ele><time>2026-04-28T13:46:00Z</time></trkpt><trkpt lat="28.83294820270134" lon="-10.826397274346071"><ele>8.0</ele><time>2026-04-28T13:46:01Z</time></trkpt><trkpt lat="28.832837759915588" lon="-10.82631255610111"><ele>8.0</ele><time>2026-04-28T13:46:02Z</time></trkpt><trkpt lat="28.83272727983601" lon="-10.826236341288794"><ele>8.0</ele><time>2026-04-28T13:46:03Z</time></trkpt><trkpt lat="28.83261060351491" lon="-10.826146193417157"><ele>8.75</ele><time>2026-04-28T13:46:04Z</time></trkpt><trkpt lat="28.83249091704167" lon="-10.826057757096706"><ele>9.5</ele><time>2026-04-28T13:46:05Z</time></trkpt><trkpt lat="28.832369704047906" lon="-10.825965540324757"><ele>10.25</ele><time>2026-04-28T13:46:06Z</time></trkpt><trkpt lat="28.832252905624575" lon="-10.825867939626498"><ele>11.0</ele><time>2026-04-28T13:46:07Z</time></trkpt><trkpt lat="28.832150144545494" lon="-10.825779504737108"><ele>11.0</ele><time>2026-04-28T13:46:08Z</time></trkpt><trkpt lat="28.83205846025187" lon="-10.825704385006851"><ele>11.0</ele><time>2026-04-28T13:46:09Z</time></trkpt><trkpt lat="28.831961150237273" lon="-10.825637539142722"><ele>11.0</ele><time>2026-04-28T13:46:10Z</time></trkpt><trkpt lat="28.831853323662333" lon="-10.82557032483094"><ele>11.0</ele><time>2026-04-28T13:46:11Z</time></trkpt><trkpt lat="28.831736276855683" lon="-10.825510740479352"><ele>11.5</ele><time>2026-04-28T13:46:12Z</time></trkpt><trkpt lat="28.83160560153172" lon="-10.825457007843431"><ele>12.0</ele><time>2026-04-28T13:46:13Z</time></trkpt><trkpt lat="28.831466137860826" lon="-10.825406819302904"><ele>12.5</ele><time>2026-04-28T13:46:14Z</time></trkpt><trkpt lat="28.831319494016533" lon="-10.825357380309908"><ele>13.0</ele><time>2026-04-28T13:46:15Z</time></trkpt><trkpt lat="28.831150197234304" lon="-10.8253097788703"><ele>13.0</ele><time>2026-04-28T13:46:16Z</time></trkpt><trkpt lat="28.830985264864434" lon="-10.825258431833761"><ele>13.0</ele><time>2026-04-28T13:46:17Z</time></trkpt><trkpt lat="28.83081015882877" lon="-10.825199974767068"><ele>13.0</ele><time>2026-04-28T13:46:18Z</time></trkpt><trkpt lat="28.830648268330943" lon="-10.82514811013872"><ele>12.75</ele><time>2026-04-28T13:46:19Z</time></trkpt><trkpt lat="28.83051031245789" lon="-10.825109811606017"><ele>12.5</ele><time>2026-04-28T13:46:20Z</time></trkpt><trkpt lat="28.83038922051963" lon="-10.825082658915992"><ele>12.25</ele><time>2026-04-28T13:46:21Z</time></trkpt><trkpt lat="28.83027457549138" lon="-10.825074309864696"><ele>12.0</ele><time>2026-04-28T13:46:22Z</time></trkpt><trkpt lat="28.830163985425852" lon="-10.82506184158482"><ele>12.0</ele><time>2026-04-28T13:46:23Z</time></trkpt><trkpt lat="28.830047084536155" lon="-10.825052719781194"><ele>12.0</ele><time>2026-04-28T13:46:24Z</time></trkpt><trkpt lat="28.829912061320766" lon="-10.825056225796288"><ele>12.0</ele><time>2026-04-28T13:46:25Z</time></trkpt><trkpt lat="28.829768327193314" lon="-10.825065922338991"><ele>12.0</ele><time>2026-04-28T13:46:26Z</time></trkpt><trkpt lat="28.829615483582817" lon="-10.825072392907776"><ele>12.0</ele><time>2026-04-28T13:46:27Z</time></trkpt><trkpt lat="28.829458984625997" lon="-10.82507830930536"><ele>12.0</ele><time>2026-04-28T13:46:28Z</time></trkpt><trkpt lat="28.8292979356744" lon="-10.825104468325655"><ele>12.0</ele><time>2026-04-28T13:46:29Z</time></trkpt><trkpt lat="28.829096443201944" lon="-10.825149734604842"><ele>17.0</ele><time>2026-04-28T13:46:30Z</time></trkpt><trkpt lat="28.828853550710875" lon="-10.825198327433919"><ele>22.0</ele><time>2026-04-28T13:46:31Z</time></trkpt><trkpt lat="28.828628758197304" lon="-10.825239551830032"><ele>21.333333333333332</ele><time>2026-04-28T13:46:32Z</time></trkpt><trkpt lat="28.82844438580922" lon="-10.82527386718942"><ele>20.666666666666668</ele><time>2026-04-28T13:46:33Z</time></trkpt><trkpt lat="28.828282112529845" lon="-10.825299375836348"><ele>20.0</ele><time>2026-04-28T13:46:34Z</time></trkpt><trkpt lat="28.828132397045465" lon="-10.825319351215294"><ele>20.0</ele><time>2026-04-28T13:46:35Z</time></trkpt><trkpt lat="28.82799331740634" lon="-10.825331033758472"><ele>20.0</ele><time>2026-04-28T13:46:36Z</time></trkpt><trkpt lat="28.827865657649927" lon="-10.825341311028625"><ele>20.0</ele><time>2026-04-28T13:46:37Z</time></trkpt><trkpt lat="28.827749369481754" lon="-10.825350047860539"><ele>20.0</ele><time>2026-04-28T13:46:38Z</time></trkpt><trkpt lat="28.827643423381573" lon="-10.825352238426015"><ele>20.0</ele><time>2026-04-28T13:46:39Z</time></trkpt><trkpt lat="28.82753947497127" lon="-10.825345017720073"><ele>20.0</ele><time>2026-04-28T13:46:40Z</time></trkpt><trkpt lat="28.827436790015174" lon="-10.82533593682457"><ele>20.0</ele><time>2026-04-28T13:46:41Z</time></trkpt><trkpt lat="28.827339708098076" lon="-10.825321417849208"><ele>20.0</ele><time>2026-04-28T13:46:42Z</time></trkpt><trkpt lat="28.8272575435308" lon="-10.82530459379894"><ele>20.0</ele><time>2026-04-28T13:46:43Z</time></trkpt><trkpt lat="28.82718760637753" lon="-10.825281094782799"><ele>20.0</ele><time>2026-04-28T13:46:44.001Z</time></trkpt><trkpt lat="28.827119447399483" lon="-10.825248379200616"><ele>20.0</ele><time>2026-04-28T13:46:45.001Z</time></trkpt><trkpt lat="28.827055758178695" lon="-10.825213089716303"><ele>20.0</ele><time>2026-04-28T13:46:46.001Z</time></trkpt><trkpt lat="28.826996749213176" lon="-10.825175038719177"><ele>20.0</ele><time>2026-04-28T13:46:47.001Z</time></trkpt><trkpt lat="28.82693753519206" lon="-10.825135437154792"><ele>20.0</ele><time>2026-04-28T13:46:48.001Z</time></trkpt><trkpt lat="28.826848410682263" lon="-10.825069566397733"><ele>20.0</ele><time>2026-04-28T13:46:50.001Z</time></trkpt><trkpt lat="28.826780682289936" lon="-10.82503405696935"><ele>18.833333333333336</ele><time>2026-04-28T13:46:53.001Z</time></trkpt><trkpt lat="28.826721587675998" lon="-10.825002641466957"><ele>17.666666666666668</ele><time>2026-04-28T13:47:22Z</time></trkpt><trkpt lat="28.826662594669838" lon="-10.824957717578235"><ele>16.5</ele><time>2026-04-28T13:47:23Z</time></trkpt><trkpt lat="28.82659472441719" lon="-10.824890328125878"><ele>15.333333333333332</ele><time>2026-04-28T13:47:24Z</time></trkpt><trkpt lat="28.826524137373408" lon="-10.824823563611622"><ele>14.166666666666666</ele><time>2026-04-28T13:47:25Z</time></trkpt><trkpt lat="28.82644700214434" lon="-10.824744353460186"><ele>13.0</ele><time>2026-04-28T13:47:26Z</time></trkpt><trkpt lat="28.82636734448634" lon="-10.824657105113221"><ele>13.0</ele><time>2026-04-28T13:47:27Z</time></trkpt><trkpt lat="28.826275492126626" lon="-10.82455498435311"><ele>13.0</ele><time>2026-04-28T13:47:28Z</time></trkpt><trkpt lat="28.826188154175547" lon="-10.824453367241738"><ele>13.0</ele><time>2026-04-28T13:47:29Z</time></trkpt><trkpt lat="28.82610075435207" lon="-10.824355040738576"><ele>13.0</ele><time>2026-04-28T13:47:30Z</time></trkpt><trkpt lat="28.82600322150107" lon="-10.824237195222404"><ele>12.666666666666666</ele><time>2026-04-28T13:47:31Z</time></trkpt><trkpt lat="28.825894081245206" lon="-10.82411149615854"><ele>12.333333333333332</ele><time>2026-04-28T13:47:32Z</time></trkpt><trkpt lat="28.825751427302205" lon="-10.823961961586473"><ele>12.0</ele><time>2026-04-28T13:47:33Z</time></trkpt><trkpt lat="28.825577210653865" lon="-10.823794749040715"><ele>12.0</ele><time>2026-04-28T13:47:34Z</time></trkpt><trkpt lat="28.825421178131162" lon="-10.823655295939172"><ele>12.0</ele><time>2026-04-28T13:47:35Z</time></trkpt><trkpt lat="28.82527011865175" lon="-10.823524117303927"><ele>12.0</ele><time>2026-04-28T13:47:36Z</time></trkpt><trkpt lat="28.825137046300277" lon="-10.823413112811787"><ele>12.0</ele><time>2026-04-28T13:47:37Z</time></trkpt><trkpt lat="28.825010741429505" lon="-10.823309530343117"><ele>12.0</ele><time>2026-04-28T13:47:38Z</time></trkpt><trkpt lat="28.824879725905614" lon="-10.823195849557703"><ele>12.0</ele><time>2026-04-28T13:47:39Z</time></trkpt><trkpt lat="28.824755029704498" lon="-10.823083915401279"><ele>12.0</ele><time>2026-04-28T13:47:40Z</time></trkpt><trkpt lat="28.824622740710595" lon="-10.822954059019445"><ele>12.0</ele><time>2026-04-28T13:47:41Z</time></trkpt><trkpt lat="28.8244739960139" lon="-10.822812229289115"><ele>12.0</ele><time>2026-04-28T13:47:42Z</time></trkpt><trkpt lat="28.824323007308674" lon="-10.822668680075289"><ele>12.666666666666668</ele><time>2026-04-28T13:47:43Z</time></trkpt><trkpt lat="28.824171321825474" lon="-10.82253273049671"><ele>13.333333333333334</ele><time>2026-04-28T13:47:44Z</time></trkpt><trkpt lat="28.824026557473932" lon="-10.822409917045265"><ele>14.0</ele><time>2026-04-28T13:47:45Z</time></trkpt><trkpt lat="28.823882609832342" lon="-10.822304552200118"><ele>14.0</ele><time>2026-04-28T13:47:46Z</time></trkpt><trkpt lat="28.823745852085747" lon="-10.822212365049957"><ele>14.0</ele><time>2026-04-28T13:47:47Z</time></trkpt><trkpt lat="28.823594053611608" lon="-10.822124629807936"><ele>14.0</ele><time>2026-04-28T13:47:48Z</time></trkpt><trkpt lat="28.82344691801388" lon="-10.822042648283364"><ele>14.333333333333334</ele><time>2026-04-28T13:47:49Z</time></trkpt><trkpt lat="28.823297070800905" lon="-10.821968579797847"><ele>14.666666666666668</ele><time>2026-04-28T13:47:50Z</time></trkpt><trkpt lat="28.823140326615224" lon="-10.82190244027653"><ele>15.0</ele><time>2026-04-28T13:47:51Z</time></trkpt><trkpt lat="28.82297008910833" lon="-10.821842893646545"><ele>14.333333333333332</ele><time>2026-04-28T13:47:52Z</time></trkpt><trkpt lat="28.82276566420878" lon="-10.821787758457864"><ele>13.666666666666666</ele><time>2026-04-28T13:47:53Z</time></trkpt><trkpt lat="28.82254202739349" lon="-10.821733152693294"><ele>13.0</ele><time>2026-04-28T13:47:54Z</time></trkpt><trkpt lat="28.822335184395612" lon="-10.821674301410336"><ele>14.666666666666666</ele><time>2026-04-28T13:47:55Z</time></trkpt><trkpt lat="28.822164488812295" lon="-10.82163074317012"><ele>16.333333333333332</ele><time>2026-04-28T13:47:56Z</time></trkpt><trkpt lat="28.822009418925845" lon="-10.82158973111096"><ele>18.0</ele><time>2026-04-28T13:47:57Z</time></trkpt><trkpt lat="28.821861734817524" lon="-10.821553345482254"><ele>17.0</ele><time>2026-04-28T13:47:58Z</time></trkpt><trkpt lat="28.821706449560004" lon="-10.821514819918539"><ele>16.0</ele><time>2026-04-28T13:47:59Z</time></trkpt><trkpt lat="28.821537421821755" lon="-10.821481808418188"><ele>15.0</ele><time>2026-04-28T13:48:00Z</time></trkpt><trkpt lat="28.821373673229132" lon="-10.82145352979811"><ele>15.0</ele><time>2026-04-28T13:48:01Z</time></trkpt><trkpt lat="28.82120647187271" lon="-10.821427668298876"><ele>15.0</ele><time>2026-04-28T13:48:02.001Z</time></trkpt><trkpt lat="28.82103907453147" lon="-10.821400841331648"><ele>15.0</ele><time>2026-04-28T13:48:03.001Z</time></trkpt><trkpt lat="28.82087089737087" lon="-10.821380069850358"><ele>16.0</ele><time>2026-04-28T13:48:04.001Z</time></trkpt><trkpt lat="28.820714969296006" lon="-10.821367169164182"><ele>17.0</ele><time>2026-04-28T13:48:05.001Z</time></trkpt><trkpt lat="28.820579347445474" lon="-10.821358568832226"><ele>18.0</ele><time>2026-04-28T13:48:06.001Z</time></trkpt><trkpt lat="28.82045549646535" lon="-10.821350371599065"><ele>19.0</ele><time>2026-04-28T13:48:07.001Z</time></trkpt><trkpt lat="28.820330952930075" lon="-10.821345470073654"><ele>19.0</ele><time>2026-04-28T13:48:08.001Z</time></trkpt><trkpt lat="28.820211136113734" lon="-10.821347135256353"><ele>19.0</ele><time>2026-04-28T13:48:09.001Z</time></trkpt><trkpt lat="28.820097044464323" lon="-10.821361264420526"><ele>19.0</ele><time>2026-04-28T13:48:10.001Z</time></trkpt><trkpt lat="28.819982540145343" lon="-10.821390219357355"><ele>19.0</ele><time>2026-04-28T13:48:11.001Z</time></trkpt><trkpt lat="28.8198503352859" lon="-10.821439358281706"><ele>19.0</ele><time>2026-04-28T13:48:12.001Z</time></trkpt><trkpt lat="28.81969491133254" lon="-10.82150790056407"><ele>19.0</ele><time>2026-04-28T13:48:13.001Z</time></trkpt><trkpt lat="28.819530044543065" lon="-10.821580661806141"><ele>19.0</ele><time>2026-04-28T13:48:14.001Z</time></trkpt><trkpt lat="28.819349412324332" lon="-10.821660991867159"><ele>18.333333333333332</ele><time>2026-04-28T13:48:15.001Z</time></trkpt><trkpt lat="28.819168488131794" lon="-10.821736045008132"><ele>17.666666666666668</ele><time>2026-04-28T13:48:16.001Z</time></trkpt><trkpt lat="28.818997159447566" lon="-10.821805308701746"><ele>17.0</ele><time>2026-04-28T13:48:17.001Z</time></trkpt><trkpt lat="28.818832089790373" lon="-10.821877517898761"><ele>18.0</ele><time>2026-04-28T13:48:18.001Z</time></trkpt><trkpt lat="28.81867502828633" lon="-10.821947068725462"><ele>19.0</ele><time>2026-04-28T13:48:19.001Z</time></trkpt><trkpt lat="28.818521607031393" lon="-10.822032235729793"><ele>20.0</ele><time>2026-04-28T13:48:20.001Z</time></trkpt><trkpt lat="28.818381046563847" lon="-10.822129246957063"><ele>20.0</ele><time>2026-04-28T13:48:21.001Z</time></trkpt><trkpt lat="28.81824365620045" lon="-10.822237057069657"><ele>20.0</ele><time>2026-04-28T13:48:22.001Z</time></trkpt><trkpt lat="28.818106500839043" lon="-10.822350686379695"><ele>20.0</ele><time>2026-04-28T13:48:23.001Z</time></trkpt><trkpt lat="28.817970443970196" lon="-10.82246373282973"><ele>20.0</ele><time>2026-04-28T13:48:24.001Z</time></trkpt><trkpt lat="28.817846240496117" lon="-10.822569491822732"><ele>20.0</ele><time>2026-04-28T13:48:25.001Z</time></trkpt><trkpt lat="28.817726731962953" lon="-10.822674963383326"><ele>20.0</ele><time>2026-04-28T13:48:26.001Z</time></trkpt><trkpt lat="28.817620508123902" lon="-10.822770894819225"><ele>20.0</ele><time>2026-04-28T13:48:27.001Z</time></trkpt><trkpt lat="28.817517143957737" lon="-10.822853396640411"><ele>22.75</ele><time>2026-04-28T13:48:28.001Z</time></trkpt><trkpt lat="28.817410787007997" lon="-10.82291564231391"><ele>25.5</ele><time>2026-04-28T13:48:29.001Z</time></trkpt><trkpt lat="28.817292697671146" lon="-10.822957789907822"><ele>28.25</ele><time>2026-04-28T13:48:30.001Z</time></trkpt><trkpt lat="28.81716848453596" lon="-10.82298496339986"><ele>31.0</ele><time>2026-04-28T13:48:31.001Z</time></trkpt><trkpt lat="28.81704859346884" lon="-10.822990347760316"><ele>31.0</ele><time>2026-04-28T13:48:32.001Z</time></trkpt><trkpt lat="28.816937488735597" lon="-10.822979550577212"><ele>31.0</ele><time>2026-04-28T13:48:33.001Z</time></trkpt><trkpt lat="28.816834593337752" lon="-10.82295674523312"><ele>31.0</ele><time>2026-04-28T13:48:34.001Z</time></trkpt><trkpt lat="28.81672926941314" lon="-10.822913712304546"><ele>31.0</ele><time>2026-04-28T13:48:35.001Z</time></trkpt><trkpt lat="28.816630515931244" lon="-10.822853905174187"><ele>31.0</ele><time>2026-04-28T13:48:36.001Z</time></trkpt><trkpt lat="28.816516676182474" lon="-10.822763435370366"><ele>31.5</ele><time>2026-04-28T13:48:37.001Z</time></trkpt><trkpt lat="28.81639110433417" lon="-10.82265055639095"><ele>32.0</ele><time>2026-04-28T13:48:38.001Z</time></trkpt><trkpt lat="28.81628399847549" lon="-10.822541915753908"><ele>32.5</ele><time>2026-04-28T13:48:39.001Z</time></trkpt><trkpt lat="28.816191016480246" lon="-10.82243217075842"><ele>33.0</ele><time>2026-04-28T13:48:40.001Z</time></trkpt><trkpt lat="28.816097365649345" lon="-10.822309026907321"><ele>30.333333333333336</ele><time>2026-04-28T13:48:41.001Z</time></trkpt><trkpt lat="28.815976151546103" lon="-10.82214691452265"><ele>27.666666666666668</ele><time>2026-04-28T13:48:42.001Z</time></trkpt><trkpt lat="28.815871071153776" lon="-10.82198614173191"><ele>25.0</ele><time>2026-04-28T13:48:43.001Z</time></trkpt><trkpt lat="28.815781769647597" lon="-10.821843775325886"><ele>21.666666666666668</ele><time>2026-04-28T13:48:44.001Z</time></trkpt><trkpt lat="28.8156933912579" lon="-10.8217033584571"><ele>18.333333333333336</ele><time>2026-04-28T13:48:45.001Z</time></trkpt><trkpt lat="28.815603441003372" lon="-10.821552781813354"><ele>15.0</ele><time>2026-04-28T13:48:46.001Z</time></trkpt><trkpt lat="28.815517634103372" lon="-10.821404360310405"><ele>15.0</ele><time>2026-04-28T13:48:47.001Z</time></trkpt><trkpt lat="28.81544541183026" lon="-10.82127363683687"><ele>15.0</ele><time>2026-04-28T13:48:48.001Z</time></trkpt><trkpt lat="28.81537386632178" lon="-10.821150638351822"><ele>15.0</ele><time>2026-04-28T13:48:49.001Z</time></trkpt><trkpt lat="28.815300072155704" lon="-10.821034090146473"><ele>15.0</ele><time>2026-04-28T13:48:50.001Z</time></trkpt><trkpt lat="28.815229848278026" lon="-10.820918208430365"><ele>16.75</ele><time>2026-04-28T13:48:51.001Z</time></trkpt><trkpt lat="28.815151099754175" lon="-10.820808797052745"><ele>18.5</ele><time>2026-04-28T13:48:52.001Z</time></trkpt><trkpt lat="28.815059787829316" lon="-10.820697693983234"><ele>20.25</ele><time>2026-04-28T13:48:53.001Z</time></trkpt><trkpt lat="28.81498534763522" lon="-10.82057874088845"><ele>22.0</ele><time>2026-04-28T13:48:54.001Z</time></trkpt><trkpt lat="28.814932189328427" lon="-10.820471801002407"><ele>22.0</ele><time>2026-04-28T13:48:55.001Z</time></trkpt><trkpt lat="28.814887844925597" lon="-10.820370680869006"><ele>22.0</ele><time>2026-04-28T13:48:56.001Z</time></trkpt><trkpt lat="28.814859776061294" lon="-10.820281865674563"><ele>22.0</ele><time>2026-04-28T13:48:57.001Z</time></trkpt><trkpt lat="28.814843029311405" lon="-10.820181948208573"><ele>22.0</ele><time>2026-04-28T13:48:58.001Z</time></trkpt><trkpt lat="28.814846044502158" lon="-10.820071730322434"><ele>22.0</ele><time>2026-04-28T13:48:59.001Z</time></trkpt><trkpt lat="28.814875873597092" lon="-10.819968798688825"><ele>21.6</ele><time>2026-04-28T13:49:00.001Z</time></trkpt><trkpt lat="28.814928049110488" lon="-10.819878296779406"><ele>21.200000000000003</ele><time>2026-04-28T13:49:00.999Z</time></trkpt><trkpt lat="28.815004145142836" lon="-10.819804344963563"><ele>20.8</ele><time>2026-04-28T13:49:01.999Z</time></trkpt><trkpt lat="28.81510124202175" lon="-10.819731349863048"><ele>20.4</ele><time>2026-04-28T13:49:02.999Z</time></trkpt><trkpt lat="28.81518600370485" lon="-10.819639399578717"><ele>20.0</ele><time>2026-04-28T13:49:03.999Z</time></trkpt><trkpt lat="28.815272824839177" lon="-10.819569065262579"><ele>20.0</ele><time>2026-04-28T13:49:04.999Z</time></trkpt><trkpt lat="28.815348261242058" lon="-10.81943751172387"><ele>20.0</ele><time>2026-04-28T13:49:05.999Z</time></trkpt><trkpt lat="28.81542419935157" lon="-10.819295366545758"><ele>20.0</ele><time>2026-04-28T13:49:06.999Z</time></trkpt><trkpt lat="28.815508648134635" lon="-10.819139727519074"><ele>20.0</ele><time>2026-04-28T13:49:07.999Z</time></trkpt><trkpt lat="28.815593658786508" lon="-10.818990144629627"><ele>20.0</ele><time>2026-04-28T13:49:08.999Z</time></trkpt><trkpt lat="28.815669196631344" lon="-10.818864617045996"><ele>20.0</ele><time>2026-04-28T13:49:09.999Z</time></trkpt><trkpt lat="28.815747829570736" lon="-10.818764289754386"><ele>20.0</ele><time>2026-04-28T13:49:10.999Z</time></trkpt><trkpt lat="28.81583115121418" lon="-10.818689233296173"><ele>20.0</ele><time>2026-04-28T13:49:12Z</time></trkpt><trkpt lat="28.815920954784687" lon="-10.818617931001866"><ele>21.25</ele><time>2026-04-28T13:49:13Z</time></trkpt><trkpt lat="28.81602142095612" lon="-10.818530735783229"><ele>22.5</ele><time>2026-04-28T13:49:14Z</time></trkpt><trkpt lat="28.8161302526154" lon="-10.818452406791666"><ele>23.75</ele><time>2026-04-28T13:49:15Z</time></trkpt><trkpt lat="28.816258549542166" lon="-10.818365683872493"><ele>25.0</ele><time>2026-04-28T13:49:16Z</time></trkpt><trkpt lat="28.816387743302744" lon="-10.818273710907297"><ele>25.0</ele><time>2026-04-28T13:49:17Z</time></trkpt><trkpt lat="28.816520881329108" lon="-10.818165207802059"><ele>25.0</ele><time>2026-04-28T13:49:18Z</time></trkpt><trkpt lat="28.81664922016089" lon="-10.818066960759998"><ele>25.0</ele><time>2026-04-28T13:49:19Z</time></trkpt><trkpt lat="28.816758494330312" lon="-10.817970717230896"><ele>26.75</ele><time>2026-04-28T13:49:20Z</time></trkpt><trkpt lat="28.816856777318304" lon="-10.817863566259431"><ele>28.5</ele><time>2026-04-28T13:49:21Z</time></trkpt><trkpt lat="28.816946157178418" lon="-10.817755243977583"><ele>30.25</ele><time>2026-04-28T13:49:22Z</time></trkpt><trkpt lat="28.817048390306336" lon="-10.817608660570132"><ele>32.0</ele><time>2026-04-28T13:49:23Z</time></trkpt><trkpt lat="28.817158403140468" lon="-10.81744063837085"><ele>32.0</ele><time>2026-04-28T13:49:24Z</time></trkpt><trkpt lat="28.817247468854706" lon="-10.817295646342455"><ele>32.0</ele><time>2026-04-28T13:49:25Z</time></trkpt><trkpt lat="28.817325598663363" lon="-10.817154565569684"><ele>32.0</ele><time>2026-04-28T13:49:26Z</time></trkpt><trkpt lat="28.817390102048027" lon="-10.817005936221342"><ele>32.0</ele><time>2026-04-28T13:49:27Z</time></trkpt><trkpt lat="28.817463557457664" lon="-10.816838689530412"><ele>29.333333333333332</ele><time>2026-04-28T13:49:28Z</time></trkpt><trkpt lat="28.81755284166331" lon="-10.816653991817516"><ele>26.666666666666664</ele><time>2026-04-28T13:49:29Z</time></trkpt><trkpt lat="28.81764500047283" lon="-10.816471257659074"><ele>24.0</ele><time>2026-04-28T13:49:30Z</time></trkpt><trkpt lat="28.81773252404887" lon="-10.81627221863476"><ele>25.666666666666664</ele><time>2026-04-28T13:49:31Z</time></trkpt><trkpt lat="28.81782452708675" lon="-10.81605026697976"><ele>27.333333333333332</ele><time>2026-04-28T13:49:32Z</time></trkpt><trkpt lat="28.817898307212648" lon="-10.815874830101585"><ele>29.0</ele><time>2026-04-28T13:49:33Z</time></trkpt><trkpt lat="28.8179723793021" lon="-10.815684517620344"><ele>29.0</ele><time>2026-04-28T13:49:34Z</time></trkpt><trkpt lat="28.81805167831519" lon="-10.815477829826785"><ele>29.0</ele><time>2026-04-28T13:49:35Z</time></trkpt><trkpt lat="28.818112082951682" lon="-10.815292307897842"><ele>29.0</ele><time>2026-04-28T13:49:36Z</time></trkpt><trkpt lat="28.81816357742614" lon="-10.815122126166438"><ele>27.666666666666664</ele><time>2026-04-28T13:49:37Z</time></trkpt><trkpt lat="28.81821000941411" lon="-10.814942879128683"><ele>26.333333333333336</ele><time>2026-04-28T13:49:38Z</time></trkpt><trkpt lat="28.81825756323884" lon="-10.814759655367496"><ele>25.0</ele><time>2026-04-28T13:49:39Z</time></trkpt><trkpt lat="28.818305890004225" lon="-10.814588307751109"><ele>25.0</ele><time>2026-04-28T13:49:40Z</time></trkpt><trkpt lat="28.81835105767677" lon="-10.814436451693297"><ele>25.0</ele><time>2026-04-28T13:49:41Z</time></trkpt><trkpt lat="28.818396125150294" lon="-10.814305424083225"><ele>25.0</ele><time>2026-04-28T13:49:42Z</time></trkpt><trkpt lat="28.81843791861013" lon="-10.81418286370278"><ele>25.0</ele><time>2026-04-28T13:49:43Z</time></trkpt><trkpt lat="28.8184734639505" lon="-10.814063589470216"><ele>25.4</ele><time>2026-04-28T13:49:44Z</time></trkpt><trkpt lat="28.818505989042407" lon="-10.813949270731642"><ele>25.8</ele><time>2026-04-28T13:49:45Z</time></trkpt><trkpt lat="28.818540636521213" lon="-10.813829753063748"><ele>26.200000000000003</ele><time>2026-04-28T13:49:46Z</time></trkpt><trkpt lat="28.81857801691287" lon="-10.813709043280824"><ele>26.6</ele><time>2026-04-28T13:49:47Z</time></trkpt><trkpt lat="28.818611764851912" lon="-10.813589178373954"><ele>27.0</ele><time>2026-04-28T13:49:48Z</time></trkpt><trkpt lat="28.81864868285626" lon="-10.813468231352045"><ele>26.0</ele><time>2026-04-28T13:49:49Z</time></trkpt><trkpt lat="28.818694102245516" lon="-10.813352500602162"><ele>25.0</ele><time>2026-04-28T13:49:50Z</time></trkpt><trkpt lat="28.81874943747392" lon="-10.81323194544699"><ele>24.0</ele><time>2026-04-28T13:49:51Z</time></trkpt><trkpt lat="28.81880407727681" lon="-10.813096654692268"><ele>23.0</ele><time>2026-04-28T13:49:52Z</time></trkpt><trkpt lat="28.818853195162884" lon="-10.812953927698956"><ele>23.0</ele><time>2026-04-28T13:49:53Z</time></trkpt><trkpt lat="28.81889156767331" lon="-10.812812254471547"><ele>23.0</ele><time>2026-04-28T13:49:54Z</time></trkpt><trkpt lat="28.818928175124913" lon="-10.81266718245514"><ele>23.0</ele><time>2026-04-28T13:49:55Z</time></trkpt><trkpt lat="28.818962311995264" lon="-10.812525656933587"><ele>23.0</ele><time>2026-04-28T13:49:56Z</time></trkpt><trkpt lat="28.818985096493567" lon="-10.812382462122622"><ele>23.0</ele><time>2026-04-28T13:49:57Z</time></trkpt><trkpt lat="28.818997649095945" lon="-10.812224876028882"><ele>23.0</ele><time>2026-04-28T13:49:58Z</time></trkpt><trkpt lat="28.81900640851311" lon="-10.812071928476216"><ele>23.0</ele><time>2026-04-28T13:49:59Z</time></trkpt><trkpt lat="28.819018158719633" lon="-10.811932234096641"><ele>23.0</ele><time>2026-04-28T13:50:00Z</time></trkpt><trkpt lat="28.819027765205142" lon="-10.811789757225476"><ele>23.0</ele><time>2026-04-28T13:50:01Z</time></trkpt><trkpt lat="28.81902864579732" lon="-10.81164657711867"><ele>23.0</ele><time>2026-04-28T13:50:02Z</time></trkpt><trkpt lat="28.819018450451285" lon="-10.811505411877777"><ele>23.0</ele><time>2026-04-28T13:50:03Z</time></trkpt><trkpt lat="28.818992895759287" lon="-10.811353237774735"><ele>23.0</ele><time>2026-04-28T13:50:04Z</time></trkpt><trkpt lat="28.818958770204798" lon="-10.811198703388003"><ele>23.0</ele><time>2026-04-28T13:50:05Z</time></trkpt><trkpt lat="28.818921462201722" lon="-10.811047192798345"><ele>23.0</ele><time>2026-04-28T13:50:06Z</time></trkpt><trkpt lat="28.818865072429293" lon="-10.810874976000763"><ele>23.0</ele><time>2026-04-28T13:50:07Z</time></trkpt><trkpt lat="28.818798440831674" lon="-10.810711651935865"><ele>23.0</ele><time>2026-04-28T13:50:08Z</time></trkpt><trkpt lat="28.818740627740315" lon="-10.810589481461983"><ele>23.0</ele><time>2026-04-28T13:50:09Z</time></trkpt><trkpt lat="28.818693209911505" lon="-10.810487366507374"><ele>23.0</ele><time>2026-04-28T13:50:10Z</time></trkpt><trkpt lat="28.818647946802116" lon="-10.810394188427084"><ele>23.0</ele><time>2026-04-28T13:50:11Z</time></trkpt><trkpt lat="28.818611779128055" lon="-10.81031424522864"><ele>23.0</ele><time>2026-04-28T13:50:12Z</time></trkpt><trkpt lat="28.818569768683208" lon="-10.810213325184868"><ele>23.2</ele><time>2026-04-28T13:50:14Z</time></trkpt><trkpt lat="28.818536794409695" lon="-10.810133577708815"><ele>23.4</ele><time>2026-04-28T13:50:18Z</time></trkpt><trkpt lat="28.818504098766276" lon="-10.810069888385394"><ele>23.599999999999998</ele><time>2026-04-28T13:53:21.999Z</time></trkpt><trkpt lat="28.81846074109554" lon="-10.809995228369734"><ele>23.799999999999997</ele><time>2026-04-28T13:53:22.999Z</time></trkpt><trkpt lat="28.81840037540432" lon="-10.809884697625863"><ele>24.0</ele><time>2026-04-28T13:53:23.999Z</time></trkpt><trkpt lat="28.818327445803618" lon="-10.809767031089887"><ele>24.0</ele><time>2026-04-28T13:53:24.999Z</time></trkpt><trkpt lat="28.818268533267922" lon="-10.809658281035956"><ele>24.0</ele><time>2026-04-28T13:53:25.999Z</time></trkpt><trkpt lat="28.81821538632061" lon="-10.8095741826802"><ele>24.0</ele><time>2026-04-28T13:53:26.999Z</time></trkpt><trkpt lat="28.81817254835736" lon="-10.80949940536463"><ele>24.0</ele><time>2026-04-28T13:53:27.999Z</time></trkpt><trkpt lat="28.818119467193338" lon="-10.809394342012657"><ele>24.0</ele><time>2026-04-28T13:53:30Z</time></trkpt><trkpt lat="28.818066118878942" lon="-10.809292078192874"><ele>23.6</ele><time>2026-04-28T13:53:32Z</time></trkpt><trkpt lat="28.818017233883403" lon="-10.80917516275463"><ele>23.2</ele><time>2026-04-28T13:53:34Z</time></trkpt><trkpt lat="28.81796326770711" lon="-10.809085855362484"><ele>22.8</ele><time>2026-04-28T13:53:35Z</time></trkpt><trkpt lat="28.817916113858196" lon="-10.809018625012117"><ele>22.400000000000002</ele><time>2026-04-28T13:53:36Z</time></trkpt><trkpt lat="28.817837795510616" lon="-10.808931319730606"><ele>22.0</ele><time>2026-04-28T13:53:37Z</time></trkpt><trkpt lat="28.81777547569706" lon="-10.80886949659943"><ele>22.0</ele><time>2026-04-28T13:53:38Z</time></trkpt><trkpt lat="28.817725571080945" lon="-10.80882066623991"><ele>22.0</ele><time>2026-04-28T13:53:39Z</time></trkpt><trkpt lat="28.817622082818623" lon="-10.808731678568428"><ele>22.0</ele><time>2026-04-28T13:53:41Z</time></trkpt><trkpt lat="28.81757615014814" lon="-10.8086796461411"><ele>22.0</ele><time>2026-04-28T13:53:42Z</time></trkpt><trkpt lat="28.817507087585636" lon="-10.808587722913906"><ele>22.0</ele><time>2026-04-28T13:53:44Z</time></trkpt><trkpt lat="28.81746799535966" lon="-10.808529363874735"><ele>22.0</ele><time>2026-04-28T13:53:45Z</time></trkpt><trkpt lat="28.817425839224317" lon="-10.808473411789079"><ele>22.666666666666664</ele><time>2026-04-28T13:53:46Z</time></trkpt><trkpt lat="28.817380509543884" lon="-10.808409182797911"><ele>23.333333333333332</ele><time>2026-04-28T13:53:47Z</time></trkpt><trkpt lat="28.817328458909202" lon="-10.808339846182193"><ele>24.0</ele><time>2026-04-28T13:53:48Z</time></trkpt><trkpt lat="28.817273900361656" lon="-10.80826997669629"><ele>24.666666666666664</ele><time>2026-04-28T13:53:49Z</time></trkpt><trkpt lat="28.817228568198736" lon="-10.808207829558388"><ele>25.333333333333332</ele><time>2026-04-28T13:53:50Z</time></trkpt><trkpt lat="28.81718375523809" lon="-10.808138558393644"><ele>26.0</ele><time>2026-04-28T13:53:51Z</time></trkpt><trkpt lat="28.81714545075088" lon="-10.808068099677797"><ele>26.0</ele><time>2026-04-28T13:53:52Z</time></trkpt><trkpt lat="28.817095322558597" lon="-10.807977601789553"><ele>26.0</ele><time>2026-04-28T13:53:53Z</time></trkpt><trkpt lat="28.817052498621543" lon="-10.80789477558068"><ele>26.0</ele><time>2026-04-28T13:53:54Z</time></trkpt><trkpt lat="28.817012479308357" lon="-10.807809449994492"><ele>26.0</ele><time>2026-04-28T13:53:55Z</time></trkpt><trkpt lat="28.81695765984505" lon="-10.807700387213606"><ele>26.0</ele><time>2026-04-28T13:53:56Z</time></trkpt><trkpt lat="28.816889550815503" lon="-10.807580396413737"><ele>26.25</ele><time>2026-04-28T13:53:57Z</time></trkpt><trkpt lat="28.8168208826649" lon="-10.807471067801584"><ele>26.5</ele><time>2026-04-28T13:53:58Z</time></trkpt><trkpt lat="28.81675332700799" lon="-10.807373566314487"><ele>26.75</ele><time>2026-04-28T13:53:59Z</time></trkpt><trkpt lat="28.816678359227357" lon="-10.807266694912098"><ele>27.0</ele><time>2026-04-28T13:54:00Z</time></trkpt><trkpt lat="28.81660005668607" lon="-10.807161816868863"><ele>27.0</ele><time>2026-04-28T13:54:01Z</time></trkpt><trkpt lat="28.816522727371083" lon="-10.80704035943099"><ele>27.0</ele><time>2026-04-28T13:54:02Z</time></trkpt><trkpt lat="28.816429113486425" lon="-10.806891998472974"><ele>27.0</ele><time>2026-04-28T13:54:03Z</time></trkpt><trkpt lat="28.816319607490456" lon="-10.806715960658376"><ele>27.0</ele><time>2026-04-28T13:54:04Z</time></trkpt><trkpt lat="28.81623153621955" lon="-10.806565968422753"><ele>27.0</ele><time>2026-04-28T13:54:05Z</time></trkpt><trkpt lat="28.81616476516481" lon="-10.806431331967664"><ele>27.0</ele><time>2026-04-28T13:54:06Z</time></trkpt><trkpt lat="28.816105996847348" lon="-10.806286939383808"><ele>27.0</ele><time>2026-04-28T13:54:07Z</time></trkpt><trkpt lat="28.81605614428106" lon="-10.806150394027245"><ele>27.0</ele><time>2026-04-28T13:54:08Z</time></trkpt><trkpt lat="28.816009569317917" lon="-10.806006090724322"><ele>27.0</ele><time>2026-04-28T13:54:09Z</time></trkpt><trkpt lat="28.815969234469954" lon="-10.80586944509937"><ele>27.0</ele><time>2026-04-28T13:54:10Z</time></trkpt><trkpt lat="28.815933053832765" lon="-10.805746305488107"><ele>27.0</ele><time>2026-04-28T13:54:11Z</time></trkpt><trkpt lat="28.81589220108085" lon="-10.805620916457375"><ele>26.0</ele><time>2026-04-28T13:54:12Z</time></trkpt><trkpt lat="28.815837152491277" lon="-10.805479468585453"><ele>25.0</ele><time>2026-04-28T13:54:13Z</time></trkpt><trkpt lat="28.815775950549323" lon="-10.805333564854982"><ele>24.0</ele><time>2026-04-28T13:54:14Z</time></trkpt><trkpt lat="28.815708993473343" lon="-10.805161196923619"><ele>23.0</ele><time>2026-04-28T13:54:15Z</time></trkpt><trkpt lat="28.81563829003083" lon="-10.804973534149461"><ele>23.0</ele><time>2026-04-28T13:54:16Z</time></trkpt><trkpt lat="28.81557616857625" lon="-10.80480166574723"><ele>23.0</ele><time>2026-04-28T13:54:17Z</time></trkpt><trkpt lat="28.815521055720552" lon="-10.80465076049675"><ele>23.0</ele><time>2026-04-28T13:54:18Z</time></trkpt><trkpt lat="28.815456904952274" lon="-10.804506195401643"><ele>23.0</ele><time>2026-04-28T13:54:19Z</time></trkpt><trkpt lat="28.815379248968824" lon="-10.804337530738168"><ele>24.0</ele><time>2026-04-28T13:54:20Z</time></trkpt><trkpt lat="28.81528458636373" lon="-10.804151250983086"><ele>25.0</ele><time>2026-04-28T13:54:21Z</time></trkpt><trkpt lat="28.815189959847444" lon="-10.803987890546525"><ele>26.0</ele><time>2026-04-28T13:54:22Z</time></trkpt><trkpt lat="28.815096809286075" lon="-10.803838735915399"><ele>26.0</ele><time>2026-04-28T13:54:23Z</time></trkpt><trkpt lat="28.815007391971925" lon="-10.80367517959762"><ele>26.0</ele><time>2026-04-28T13:54:24Z</time></trkpt><trkpt lat="28.814925796876892" lon="-10.80351431364959"><ele>26.0</ele><time>2026-04-28T13:54:25Z</time></trkpt><trkpt lat="28.81484029526015" lon="-10.80334392616865"><ele>26.0</ele><time>2026-04-28T13:54:26Z</time></trkpt><trkpt lat="28.81476023571961" lon="-10.803204367483325"><ele>26.0</ele><time>2026-04-28T13:54:27Z</time></trkpt><trkpt lat="28.81467308629886" lon="-10.803083512356144"><ele>26.0</ele><time>2026-04-28T13:54:28Z</time></trkpt><trkpt lat="28.81460217322977" lon="-10.802982035029755"><ele>26.0</ele><time>2026-04-28T13:54:29Z</time></trkpt><trkpt lat="28.81454457484758" lon="-10.802892118322747"><ele>26.0</ele><time>2026-04-28T13:54:30Z</time></trkpt><trkpt lat="28.814479146831506" lon="-10.802814526352927"><ele>26.0</ele><time>2026-04-28T13:54:31Z</time></trkpt><trkpt lat="28.81439520673059" lon="-10.802752121279157"><ele>26.0</ele><time>2026-04-28T13:54:32Z</time></trkpt><trkpt lat="28.81429964077823" lon="-10.802693329114085"><ele>26.0</ele><time>2026-04-28T13:54:33Z</time></trkpt><trkpt lat="28.814217218877666" lon="-10.802645108065308"><ele>26.0</ele><time>2026-04-28T13:54:34Z</time></trkpt><trkpt lat="28.81414686187732" lon="-10.802619713081562"><ele>26.6</ele><time>2026-04-28T13:54:35Z</time></trkpt><trkpt lat="28.81406831809041" lon="-10.802607795597073"><ele>27.200000000000003</ele><time>2026-04-28T13:54:36Z</time></trkpt><trkpt lat="28.813966827281245" lon="-10.80260825892414"><ele>27.799999999999997</ele><time>2026-04-28T13:54:37Z</time></trkpt><trkpt lat="28.813870671071733" lon="-10.802614060516243"><ele>28.4</ele><time>2026-04-28T13:54:38Z</time></trkpt><trkpt lat="28.81379608898551" lon="-10.802625730291288"><ele>29.0</ele><time>2026-04-28T13:54:39Z</time></trkpt><trkpt lat="28.813681832286182" lon="-10.802651623123216"><ele>28.5</ele><time>2026-04-28T13:54:40Z</time></trkpt><trkpt lat="28.81354181255866" lon="-10.802712412292406"><ele>28.0</ele><time>2026-04-28T13:54:41Z</time></trkpt><trkpt lat="28.813392852287308" lon="-10.80278945596917"><ele>27.5</ele><time>2026-04-28T13:54:42Z</time></trkpt><trkpt lat="28.813274960443817" lon="-10.802847840382983"><ele>27.0</ele><time>2026-04-28T13:54:43.001Z</time></trkpt><trkpt lat="28.813163783908198" lon="-10.802907989483929"><ele>27.0</ele><time>2026-04-28T13:54:44.001Z</time></trkpt><trkpt lat="28.8130666935787" lon="-10.802977841160612"><ele>27.0</ele><time>2026-04-28T13:54:45.001Z</time></trkpt><trkpt lat="28.812978436351635" lon="-10.803060217023775"><ele>27.0</ele><time>2026-04-28T13:54:46.001Z</time></trkpt><trkpt lat="28.81289743341142" lon="-10.803152460957355"><ele>27.0</ele><time>2026-04-28T13:54:47.001Z</time></trkpt><trkpt lat="28.812825535493765" lon="-10.803263934573343"><ele>27.0</ele><time>2026-04-28T13:54:48.001Z</time></trkpt><trkpt lat="28.812770019921405" lon="-10.80337395671139"><ele>27.0</ele><time>2026-04-28T13:54:49.001Z</time></trkpt><trkpt lat="28.812718076971997" lon="-10.803485083338067"><ele>27.0</ele><time>2026-04-28T13:54:50.001Z</time></trkpt><trkpt lat="28.812668640389628" lon="-10.803594721558813"><ele>27.0</ele><time>2026-04-28T13:54:51.001Z</time></trkpt><trkpt lat="28.81261399076954" lon="-10.80371649608798"><ele>27.75</ele><time>2026-04-28T13:54:52.001Z</time></trkpt><trkpt lat="28.81256354821023" lon="-10.803821688049062"><ele>28.5</ele><time>2026-04-28T13:54:53.001Z</time></trkpt><trkpt lat="28.81252152627842" lon="-10.803932500160519"><ele>29.25</ele><time>2026-04-28T13:54:54.001Z</time></trkpt><trkpt lat="28.8124865377398" lon="-10.804065713359925"><ele>30.0</ele><time>2026-04-28T13:54:55.001Z</time></trkpt><trkpt lat="28.812460170013537" lon="-10.804210050986054"><ele>29.75</ele><time>2026-04-28T13:54:56.001Z</time></trkpt><trkpt lat="28.812428215293615" lon="-10.804373181796358"><ele>29.5</ele><time>2026-04-28T13:54:57.001Z</time></trkpt><trkpt lat="28.81240642321945" lon="-10.804522398911073"><ele>29.25</ele><time>2026-04-28T13:54:58.001Z</time></trkpt><trkpt lat="28.812383140559273" lon="-10.804631231329623"><ele>29.0</ele><time>2026-04-28T13:54:59.001Z</time></trkpt><trkpt lat="28.812368430193985" lon="-10.804713179590978"><ele>29.0</ele><time>2026-04-28T13:55:00.001Z</time></trkpt><trkpt lat="28.812336290797358" lon="-10.80480508233657"><ele>29.0</ele><time>2026-04-28T13:55:01.001Z</time></trkpt><trkpt lat="28.81229046785227" lon="-10.804881697634027"><ele>29.0</ele><time>2026-04-28T13:55:02.001Z</time></trkpt><trkpt lat="28.812229025150717" lon="-10.804973413666309"><ele>29.0</ele><time>2026-04-28T13:55:03.001Z</time></trkpt><trkpt lat="28.81216643404173" lon="-10.805106253143594"><ele>29.0</ele><time>2026-04-28T13:55:04.001Z</time></trkpt><trkpt lat="28.81211599969446" lon="-10.805238863472072"><ele>30.166666666666664</ele><time>2026-04-28T13:55:05.001Z</time></trkpt><trkpt lat="28.81206663378757" lon="-10.805353551863004"><ele>31.333333333333332</ele><time>2026-04-28T13:55:06.001Z</time></trkpt><trkpt lat="28.8120411971053" lon="-10.805445478162445"><ele>32.5</ele><time>2026-04-28T13:55:07.001Z</time></trkpt><trkpt lat="28.81202386316176" lon="-10.805528306847755"><ele>33.666666666666664</ele><time>2026-04-28T13:55:08.001Z</time></trkpt><trkpt lat="28.81200761479518" lon="-10.805607350324504"><ele>34.833333333333336</ele><time>2026-04-28T13:55:09.001Z</time></trkpt><trkpt lat="28.811986164271264" lon="-10.805680361035277"><ele>36.0</ele><time>2026-04-28T13:55:10.001Z</time></trkpt><trkpt lat="28.811956274068333" lon="-10.805763029898754"><ele>36.0</ele><time>2026-04-28T13:55:11.001Z</time></trkpt><trkpt lat="28.811926868072003" lon="-10.80587486493016"><ele>36.0</ele><time>2026-04-28T13:55:13.001Z</time></trkpt><trkpt lat="28.811956003695773" lon="-10.805981281116134"><ele>36.0</ele><time>2026-04-28T13:55:15.001Z</time></trkpt><trkpt lat="28.81197141880005" lon="-10.806069875807296"><ele>36.0</ele><time>2026-04-28T13:55:16.001Z</time></trkpt><trkpt lat="28.811985335073516" lon="-10.80619569330482"><ele>36.0</ele><time>2026-04-28T13:55:17.001Z</time></trkpt><trkpt lat="28.811964205265685" lon="-10.806286190261899"><ele>35.142857142857146</ele><time>2026-04-28T13:55:18.001Z</time></trkpt><trkpt lat="28.811927464604768" lon="-10.806353619111219"><ele>34.285714285714285</ele><time>2026-04-28T13:55:19Z</time></trkpt><trkpt lat="28.811874083133986" lon="-10.80639379735244"><ele>33.42857142857143</ele><time>2026-04-28T13:55:20Z</time></trkpt><trkpt lat="28.81180650060042" lon="-10.806420650699133"><ele>32.57142857142857</ele><time>2026-04-28T13:55:21Z</time></trkpt><trkpt lat="28.81172396383654" lon="-10.806433645801231"><ele>31.714285714285715</ele><time>2026-04-28T13:55:22Z</time></trkpt><trkpt lat="28.811641930511573" lon="-10.806434956988149"><ele>30.857142857142858</ele><time>2026-04-28T13:55:23Z</time></trkpt><trkpt lat="28.81157189203577" lon="-10.806421966845148"><ele>30.0</ele><time>2026-04-28T13:55:24Z</time></trkpt><trkpt lat="28.811481931664048" lon="-10.806395662401657"><ele>30.0</ele><time>2026-04-28T13:55:25Z</time></trkpt><trkpt lat="28.81138004081922" lon="-10.806379555676346"><ele>30.0</ele><time>2026-04-28T13:55:26Z</time></trkpt><trkpt lat="28.811263559339295" lon="-10.806382720114149"><ele>30.0</ele><time>2026-04-28T13:55:27Z</time></trkpt><trkpt lat="28.81111460687616" lon="-10.80641053172699"><ele>30.0</ele><time>2026-04-28T13:55:28Z</time></trkpt><trkpt lat="28.810969346126946" lon="-10.806436646889452"><ele>29.25</ele><time>2026-04-28T13:55:29Z</time></trkpt><trkpt lat="28.810846952059453" lon="-10.806457787705973"><ele>28.5</ele><time>2026-04-28T13:55:30Z</time></trkpt><trkpt lat="28.810720765671817" lon="-10.806472796737259"><ele>27.75</ele><time>2026-04-28T13:55:31Z</time></trkpt><trkpt lat="28.81059029625035" lon="-10.80648236349625"><ele>27.0</ele><time>2026-04-28T13:55:32Z</time></trkpt><trkpt lat="28.810462317455624" lon="-10.806489259230409"><ele>27.0</ele><time>2026-04-28T13:55:33Z</time></trkpt><trkpt lat="28.81034923412147" lon="-10.806490561945717"><ele>27.0</ele><time>2026-04-28T13:55:34Z</time></trkpt><trkpt lat="28.810249149336624" lon="-10.80648752475435"><ele>27.0</ele><time>2026-04-28T13:55:35Z</time></trkpt><trkpt lat="28.81013717022044" lon="-10.806497601156263"><ele>27.0</ele><time>2026-04-28T13:55:36Z</time></trkpt><trkpt lat="28.810011131934417" lon="-10.80648882500541"><ele>26.5</ele><time>2026-04-28T13:55:37Z</time></trkpt><trkpt lat="28.809885971845333" lon="-10.806464223426477"><ele>26.0</ele><time>2026-04-28T13:55:38Z</time></trkpt><trkpt lat="28.809766475037303" lon="-10.806412767940525"><ele>25.5</ele><time>2026-04-28T13:55:39Z</time></trkpt><trkpt lat="28.80961972381162" lon="-10.806337695263602"><ele>25.0</ele><time>2026-04-28T13:55:40Z</time></trkpt><trkpt lat="28.80946203476542" lon="-10.806251791734601"><ele>26.666666666666668</ele><time>2026-04-28T13:55:41Z</time></trkpt><trkpt lat="28.809307465056065" lon="-10.806166036185475"><ele>28.333333333333336</ele><time>2026-04-28T13:55:42Z</time></trkpt><trkpt lat="28.809158726033587" lon="-10.806075759712261"><ele>30.0</ele><time>2026-04-28T13:55:43Z</time></trkpt><trkpt lat="28.80902982815356" lon="-10.805993444140897"><ele>30.8</ele><time>2026-04-28T13:55:44Z</time></trkpt><trkpt lat="28.808922961581327" lon="-10.805921267078665"><ele>31.6</ele><time>2026-04-28T13:55:45Z</time></trkpt><trkpt lat="28.8088201650476" lon="-10.805848627204876"><ele>32.4</ele><time>2026-04-28T13:55:46Z</time></trkpt><trkpt lat="28.808729230530243" lon="-10.805778159348721"><ele>33.2</ele><time>2026-04-28T13:55:47Z</time></trkpt><trkpt lat="28.808661964065003" lon="-10.805717045841366"><ele>34.0</ele><time>2026-04-28T13:55:48Z</time></trkpt><trkpt lat="28.808563403108437" lon="-10.805668390289132"><ele>33.16666666666667</ele><time>2026-04-28T13:55:50Z</time></trkpt><trkpt lat="28.80845281357634" lon="-10.805703581009663"><ele>32.333333333333336</ele><time>2026-04-28T13:55:52Z</time></trkpt><trkpt lat="28.808360264022372" lon="-10.80572208622468"><ele>31.5</ele><time>2026-04-28T13:55:54Z</time></trkpt><trkpt lat="28.808291681796028" lon="-10.805712974649296"><ele>30.666666666666664</ele><time>2026-04-28T13:55:55Z</time></trkpt><trkpt lat="28.808225578835444" lon="-10.805730103917771"><ele>29.833333333333332</ele><time>2026-04-28T13:55:56Z</time></trkpt><trkpt lat="28.808138971897684" lon="-10.805749138902657"><ele>29.0</ele><time>2026-04-28T13:55:58Z</time></trkpt><trkpt lat="28.80823468628568" lon="-10.80580639399731"><ele>28.999999999999996</ele><time>2026-04-28T13:56:45.001Z</time></trkpt><trkpt lat="28.808296495960146" lon="-10.805829402464347"><ele>29.0</ele><time>2026-04-28T13:56:47.001Z</time></trkpt><trkpt lat="28.808338752941115" lon="-10.805775766884604"><ele>29.0</ele><time>2026-04-28T13:57:03.001Z</time></trkpt><trkpt lat="28.808259588948616" lon="-10.805744214423473"><ele>29.0</ele><time>2026-04-28T13:57:06.001Z</time></trkpt><trkpt lat="28.80817967554927" lon="-10.80573118023274"><ele>28.999999999999996</ele><time>2026-04-28T13:57:08.001Z</time></trkpt><trkpt lat="28.808076271204023" lon="-10.80570698513909"><ele>29.0</ele><time>2026-04-28T13:57:10.001Z</time></trkpt><trkpt lat="28.807991442410994" lon="-10.805652571553603"><ele>28.999999999999996</ele><time>2026-04-28T13:57:12.001Z</time></trkpt><trkpt lat="28.80794268591824" lon="-10.80560552731623"><ele>29.0</ele><time>2026-04-28T13:57:13.001Z</time></trkpt><trkpt lat="28.80787955061528" lon="-10.80555321192757"><ele>29.0</ele><time>2026-04-28T13:57:14.001Z</time></trkpt><trkpt lat="28.807803527781648" lon="-10.805495319167811"><ele>29.0</ele><time>2026-04-28T13:57:15.001Z</time></trkpt><trkpt lat="28.807728534458107" lon="-10.805444044037257"><ele>28.999999999999996</ele><time>2026-04-28T13:57:16.001Z</time></trkpt><trkpt lat="28.80765275754482" lon="-10.805392302818978"><ele>29.0</ele><time>2026-04-28T13:57:17.001Z</time></trkpt><trkpt lat="28.807579675266307" lon="-10.805340291749756"><ele>30.0</ele><time>2026-04-28T13:57:18.001Z</time></trkpt><trkpt lat="28.807503956847462" lon="-10.80528940912585"><ele>31.0</ele><time>2026-04-28T13:57:19.001Z</time></trkpt><trkpt lat="28.80738634905117" lon="-10.805203747308289"><ele>32.0</ele><time>2026-04-28T13:57:20.001Z</time></trkpt><trkpt lat="28.80724109326154" lon="-10.805108375978536"><ele>33.0</ele><time>2026-04-28T13:57:21.001Z</time></trkpt><trkpt lat="28.807078550319755" lon="-10.805003040899267"><ele>33.0</ele><time>2026-04-28T13:57:22.001Z</time></trkpt><trkpt lat="28.806941071177512" lon="-10.804902283578407"><ele>33.0</ele><time>2026-04-28T13:57:23.001Z</time></trkpt><trkpt lat="28.806815586849535" lon="-10.80479109954183"><ele>33.0</ele><time>2026-04-28T13:57:24.001Z</time></trkpt><trkpt lat="28.80668894085064" lon="-10.804675933515892"><ele>32.666666666666664</ele><time>2026-04-28T13:57:25Z</time></trkpt><trkpt lat="28.806552398977324" lon="-10.80454675782262"><ele>32.33333333333333</ele><time>2026-04-28T13:57:26Z</time></trkpt><trkpt lat="28.80642016900835" lon="-10.804400258393482"><ele>32.0</ele><time>2026-04-28T13:57:27Z</time></trkpt><trkpt lat="28.806284691864697" lon="-10.80424883900262"><ele>32.0</ele><time>2026-04-28T13:57:28Z</time></trkpt><trkpt lat="28.806171049180676" lon="-10.804117881028036"><ele>32.0</ele><time>2026-04-28T13:57:29Z</time></trkpt><trkpt lat="28.806076864760467" lon="-10.80400982489351"><ele>32.0</ele><time>2026-04-28T13:57:30Z</time></trkpt><trkpt lat="28.805984984281263" lon="-10.803910168322618"><ele>32.0</ele><time>2026-04-28T13:57:31Z</time></trkpt><trkpt lat="28.805879727256663" lon="-10.803798680602366"><ele>32.4</ele><time>2026-04-28T13:57:32Z</time></trkpt><trkpt lat="28.805786117665694" lon="-10.803700858512777"><ele>32.800000000000004</ele><time>2026-04-28T13:57:33Z</time></trkpt><trkpt lat="28.80571766042463" lon="-10.803627134142515"><ele>33.2</ele><time>2026-04-28T13:57:34Z</time></trkpt><trkpt lat="28.805653965264774" lon="-10.803562353795336"><ele>33.6</ele><time>2026-04-28T13:57:35Z</time></trkpt><trkpt lat="28.805608720225006" lon="-10.803472533305552"><ele>34.0</ele><time>2026-04-28T13:57:37Z</time></trkpt><trkpt lat="28.805590279346344" lon="-10.803374616684186"><ele>34.0</ele><time>2026-04-28T13:57:39Z</time></trkpt><trkpt lat="28.805542651553193" lon="-10.803318179835395"><ele>34.0</ele><time>2026-04-28T13:57:40Z</time></trkpt><trkpt lat="28.805460082527432" lon="-10.803252741931374"><ele>34.0</ele><time>2026-04-28T13:57:41Z</time></trkpt><trkpt lat="28.805367770119787" lon="-10.803180120901581"><ele>34.0</ele><time>2026-04-28T13:57:42Z</time></trkpt><trkpt lat="28.80529013220963" lon="-10.803112310178172"><ele>34.0</ele><time>2026-04-28T13:57:43Z</time></trkpt><trkpt lat="28.80523122585798" lon="-10.803037104383924"><ele>34.0</ele><time>2026-04-28T13:57:44Z</time></trkpt><trkpt lat="28.805162971227855" lon="-10.802931920281479"><ele>34.0</ele><time>2026-04-28T13:57:45Z</time></trkpt><trkpt lat="28.805090788229865" lon="-10.802817234826655"><ele>34.0</ele><time>2026-04-28T13:57:46Z</time></trkpt><trkpt lat="28.805034969876623" lon="-10.80271650592784"><ele>34.0</ele><time>2026-04-28T13:57:47Z</time></trkpt><trkpt lat="28.804992518076432" lon="-10.80260332361864"><ele>33.5</ele><time>2026-04-28T13:57:48Z</time></trkpt><trkpt lat="28.804955917491878" lon="-10.80248642109268"><ele>33.0</ele><time>2026-04-28T13:57:49Z</time></trkpt><trkpt lat="28.804924510544172" lon="-10.80234612824587"><ele>32.5</ele><time>2026-04-28T13:57:50Z</time></trkpt><trkpt lat="28.80488679358468" lon="-10.802208266479555"><ele>32.0</ele><time>2026-04-28T13:57:51Z</time></trkpt><trkpt lat="28.804854175679257" lon="-10.802088622182891"><ele>31.999999999999996</ele><time>2026-04-28T13:57:52Z</time></trkpt><trkpt lat="28.804826298116634" lon="-10.801991155617781"><ele>32.0</ele><time>2026-04-28T13:57:53Z</time></trkpt><trkpt lat="28.804803240651026" lon="-10.80192353011439"><ele>32.0</ele><time>2026-04-28T13:57:54Z</time></trkpt><trkpt lat="28.804733099799396" lon="-10.801820146324609"><ele>32.0</ele><time>2026-04-28T13:57:56Z</time></trkpt><trkpt lat="28.80470356344882" lon="-10.801752424798917"><ele>31.999999999999996</ele><time>2026-04-28T13:57:57Z</time></trkpt><trkpt lat="28.804680072361514" lon="-10.801669455998406"><ele>32.0</ele><time>2026-04-28T13:57:58Z</time></trkpt><trkpt lat="28.804656672420077" lon="-10.801574466277708"><ele>32.5</ele><time>2026-04-28T13:57:59Z</time></trkpt><trkpt lat="28.804644822377817" lon="-10.801476201831004"><ele>33.0</ele><time>2026-04-28T13:58:00Z</time></trkpt><trkpt lat="28.80463977089832" lon="-10.80138940011488"><ele>33.5</ele><time>2026-04-28T13:58:01Z</time></trkpt><trkpt lat="28.80462531024051" lon="-10.801277773484193"><ele>34.0</ele><time>2026-04-28T13:58:02Z</time></trkpt><trkpt lat="28.804609826214048" lon="-10.801166691628463"><ele>34.5</ele><time>2026-04-28T13:58:03Z</time></trkpt><trkpt lat="28.804584116879678" lon="-10.801076329419573"><ele>35.0</ele><time>2026-04-28T13:58:04Z</time></trkpt><trkpt lat="28.80453730339471" lon="-10.800971513511715"><ele>34.6</ele><time>2026-04-28T13:58:05Z</time></trkpt><trkpt lat="28.8044921766997" lon="-10.80088176635116"><ele>34.2</ele><time>2026-04-28T13:58:06Z</time></trkpt><trkpt lat="28.804453972598257" lon="-10.800796075723623"><ele>33.8</ele><time>2026-04-28T13:58:07Z</time></trkpt><trkpt lat="28.804404572050288" lon="-10.80068336831599"><ele>33.4</ele><time>2026-04-28T13:58:08Z</time></trkpt><trkpt lat="28.804329418250752" lon="-10.80052069917807"><ele>33.0</ele><time>2026-04-28T13:58:09Z</time></trkpt><trkpt lat="28.80425312912548" lon="-10.800360809532105"><ele>33.0</ele><time>2026-04-28T13:58:10Z</time></trkpt><trkpt lat="28.804194631618156" lon="-10.800241696225836"><ele>33.0</ele><time>2026-04-28T13:58:11Z</time></trkpt><trkpt lat="28.804140135621765" lon="-10.800158711542956"><ele>33.0</ele><time>2026-04-28T13:58:12Z</time></trkpt><trkpt lat="28.80408197878802" lon="-10.800080302437923"><ele>33.0</ele><time>2026-04-28T13:58:13Z</time></trkpt><trkpt lat="28.8040076572502" lon="-10.800026452185982"><ele>33.0</ele><time>2026-04-28T13:58:14Z</time></trkpt><trkpt lat="28.803911715747443" lon="-10.79999644239917"><ele>33.25</ele><time>2026-04-28T13:58:15Z</time></trkpt><trkpt lat="28.803809026428883" lon="-10.799972327568467"><ele>33.5</ele><time>2026-04-28T13:58:16Z</time></trkpt><trkpt lat="28.80369671906322" lon="-10.799968130715353"><ele>33.75</ele><time>2026-04-28T13:58:17Z</time></trkpt><trkpt lat="28.803573391395645" lon="-10.799978579194757"><ele>34.0</ele><time>2026-04-28T13:58:18Z</time></trkpt><trkpt lat="28.803444150967955" lon="-10.800000046083102"><ele>33.5</ele><time>2026-04-28T13:58:19Z</time></trkpt><trkpt lat="28.803335282972434" lon="-10.800013632313075"><ele>33.0</ele><time>2026-04-28T13:58:20Z</time></trkpt><trkpt lat="28.803232400378096" lon="-10.800018844216941"><ele>32.5</ele><time>2026-04-28T13:58:21Z</time></trkpt><trkpt lat="28.8031091620172" lon="-10.800014334934732"><ele>32.0</ele><time>2026-04-28T13:58:22Z</time></trkpt><trkpt lat="28.802991102975156" lon="-10.799990674778739"><ele>31.999999999999996</ele><time>2026-04-28T13:58:23Z</time></trkpt><trkpt lat="28.80290665619404" lon="-10.799962742914447"><ele>32.0</ele><time>2026-04-28T13:58:24Z</time></trkpt><trkpt lat="28.802823735572378" lon="-10.79993113079818"><ele>32.0</ele><time>2026-04-28T13:58:25Z</time></trkpt><trkpt lat="28.802744873264054" lon="-10.79989342791454"><ele>32.0</ele><time>2026-04-28T13:58:26Z</time></trkpt><trkpt lat="28.802685172693188" lon="-10.799862883390862"><ele>31.999999999999996</ele><time>2026-04-28T13:58:27Z</time></trkpt><trkpt lat="28.802622130216676" lon="-10.7998374024277"><ele>32.0</ele><time>2026-04-28T13:58:29Z</time></trkpt><trkpt lat="28.8025260527018" lon="-10.799812135557268"><ele>32.4</ele><time>2026-04-28T13:58:32Z</time></trkpt><trkpt lat="28.80241828267381" lon="-10.799792717476247"><ele>32.800000000000004</ele><time>2026-04-28T13:58:34Z</time></trkpt><trkpt lat="28.802344454761354" lon="-10.799822564319259"><ele>33.2</ele><time>2026-04-28T13:58:36Z</time></trkpt><trkpt lat="28.80225823582059" lon="-10.799811433923608"><ele>33.6</ele><time>2026-04-28T13:58:38.001Z</time></trkpt><trkpt lat="28.802169876844516" lon="-10.799766486917877"><ele>34.0</ele><time>2026-04-28T13:58:40.001Z</time></trkpt><trkpt lat="28.802089805065453" lon="-10.799755220328516"><ele>34.0</ele><time>2026-04-28T13:58:42.001Z</time></trkpt><trkpt lat="28.80198413542914" lon="-10.799768328366858"><ele>34.0</ele><time>2026-04-28T13:59:16.001Z</time></trkpt><trkpt lat="28.801884375037563" lon="-10.799773236385885"><ele>34.0</ele><time>2026-04-28T13:59:18.001Z</time></trkpt><trkpt lat="28.801763346288396" lon="-10.799780982565784"><ele>34.0</ele><time>2026-04-28T13:59:20.001Z</time></trkpt><trkpt lat="28.801697980001894" lon="-10.799779744990563"><ele>34.0</ele><time>2026-04-28T13:59:21.001Z</time></trkpt><trkpt lat="28.80161147992499" lon="-10.799780477143734"><ele>34.333333333333336</ele><time>2026-04-28T13:59:22.001Z</time></trkpt><trkpt lat="28.801512396461586" lon="-10.799787247872462"><ele>34.66666666666667</ele><time>2026-04-28T13:59:23.001Z</time></trkpt><trkpt lat="28.80142990684521" lon="-10.79980114906472"><ele>35.0</ele><time>2026-04-28T13:59:24.001Z</time></trkpt><trkpt lat="28.801365343701026" lon="-10.79982137923424"><ele>35.333333333333336</ele><time>2026-04-28T13:59:25.001Z</time></trkpt><trkpt lat="28.801297217830914" lon="-10.799844269231057"><ele>35.666666666666664</ele><time>2026-04-28T13:59:26.001Z</time></trkpt><trkpt lat="28.801234987879116" lon="-10.799862458656607"><ele>36.0</ele><time>2026-04-28T13:59:27.001Z</time></trkpt><trkpt lat="28.80116560244031" lon="-10.79988185271534"><ele>36.0</ele><time>2026-04-28T13:59:28.001Z</time></trkpt><trkpt lat="28.8010975972447" lon="-10.799898551308203"><ele>36.0</ele><time>2026-04-28T13:59:29.001Z</time></trkpt><trkpt lat="28.800999351194132" lon="-10.79992252968656"><ele>36.0</ele><time>2026-04-28T13:59:30.001Z</time></trkpt><trkpt lat="28.800863366388462" lon="-10.799958058628526"><ele>36.0</ele><time>2026-04-28T13:59:31.001Z</time></trkpt><trkpt lat="28.80071614551387" lon="-10.799995815322026"><ele>36.75</ele><time>2026-04-28T13:59:32.001Z</time></trkpt><trkpt lat="28.80055670365046" lon="-10.80003593493315"><ele>37.5</ele><time>2026-04-28T13:59:33.001Z</time></trkpt><trkpt lat="28.8004296563842" lon="-10.800062822254167"><ele>38.25</ele><time>2026-04-28T13:59:34.001Z</time></trkpt><trkpt lat="28.800334426385824" lon="-10.800084149541357"><ele>39.0</ele><time>2026-04-28T13:59:35.001Z</time></trkpt><trkpt lat="28.80024385182709" lon="-10.800095185325532"><ele>39.4</ele><time>2026-04-28T13:59:36.001Z</time></trkpt><trkpt lat="28.80014400754039" lon="-10.800099444933563"><ele>39.8</ele><time>2026-04-28T13:59:37.001Z</time></trkpt><trkpt lat="28.800037849633533" lon="-10.800092540174285"><ele>40.199999999999996</ele><time>2026-04-28T13:59:38.001Z</time></trkpt><trkpt lat="28.799940977126035" lon="-10.800075251965687"><ele>40.599999999999994</ele><time>2026-04-28T13:59:39.001Z</time></trkpt><trkpt lat="28.799829983967115" lon="-10.800051493799169"><ele>41.0</ele><time>2026-04-28T13:59:40.001Z</time></trkpt><trkpt lat="28.799720831527374" lon="-10.800040273945992"><ele>41.0</ele><time>2026-04-28T13:59:41.001Z</time></trkpt><trkpt lat="28.799618601550964" lon="-10.800050307870256"><ele>41.0</ele><time>2026-04-28T13:59:42.001Z</time></trkpt><trkpt lat="28.79953450934128" lon="-10.80005585104781"><ele>41.0</ele><time>2026-04-28T13:59:43.001Z</time></trkpt><trkpt lat="28.799439843066146" lon="-10.80004264057812"><ele>41.0</ele><time>2026-04-28T13:59:44.001Z</time></trkpt><trkpt lat="28.799368602262778" lon="-10.800018885536602"><ele>41.0</ele><time>2026-04-28T13:59:45.001Z</time></trkpt><trkpt lat="28.799284360115337" lon="-10.799991937993301"><ele>41.0</ele><time>2026-04-28T13:59:46.001Z</time></trkpt><trkpt lat="28.799188977787765" lon="-10.799968610326976"><ele>40.0</ele><time>2026-04-28T13:59:47.001Z</time></trkpt><trkpt lat="28.799067503556724" lon="-10.79993187970771"><ele>39.0</ele><time>2026-04-28T13:59:48.001Z</time></trkpt><trkpt lat="28.798923499809536" lon="-10.799899397548383"><ele>38.0</ele><time>2026-04-28T13:59:49.001Z</time></trkpt><trkpt lat="28.79879925638808" lon="-10.799867739290475"><ele>37.0</ele><time>2026-04-28T13:59:50.001Z</time></trkpt><trkpt lat="28.798676201597246" lon="-10.799840374209019"><ele>37.0</ele><time>2026-04-28T13:59:51.001Z</time></trkpt><trkpt lat="28.79856219756918" lon="-10.799811204690794"><ele>37.0</ele><time>2026-04-28T13:59:52.001Z</time></trkpt><trkpt lat="28.798448925254906" lon="-10.7997823053856"><ele>37.0</ele><time>2026-04-28T13:59:53.001Z</time></trkpt><trkpt lat="28.798342437982303" lon="-10.799751209048608"><ele>37.0</ele><time>2026-04-28T13:59:54.001Z</time></trkpt><trkpt lat="28.798246264225657" lon="-10.799715410029888"><ele>37.0</ele><time>2026-04-28T13:59:55.001Z</time></trkpt><trkpt lat="28.798159171726113" lon="-10.799688795230423"><ele>36.800000000000004</ele><time>2026-04-28T13:59:56.001Z</time></trkpt><trkpt lat="28.79808317029765" lon="-10.799666145970317"><ele>36.6</ele><time>2026-04-28T13:59:57.001Z</time></trkpt><trkpt lat="28.79798770483535" lon="-10.799594474839681"><ele>36.400000000000006</ele><time>2026-04-28T13:59:59.001Z</time></trkpt><trkpt lat="28.797923280376533" lon="-10.799528932970036"><ele>36.2</ele><time>2026-04-28T14:00:01.001Z</time></trkpt><trkpt lat="28.79787360023988" lon="-10.799447908615404"><ele>36.0</ele><time>2026-04-28T14:00:04.001Z</time></trkpt><trkpt lat="28.797846227278743" lon="-10.799353005708358"><ele>36.0</ele><time>2026-04-28T14:00:06.001Z</time></trkpt><trkpt lat="28.797740529749127" lon="-10.799335429919502"><ele>36.0</ele><time>2026-04-28T14:00:08.001Z</time></trkpt><trkpt lat="28.797632821332133" lon="-10.79933644183068"><ele>36.0</ele><time>2026-04-28T14:00:09.001Z</time></trkpt><trkpt lat="28.797542382154806" lon="-10.79933476673173"><ele>36.0</ele><time>2026-04-28T14:00:10.001Z</time></trkpt><trkpt lat="28.797428556818605" lon="-10.799342757325212"><ele>36.0</ele><time>2026-04-28T14:00:12.001Z</time></trkpt><trkpt lat="28.797320346528387" lon="-10.799325538038726"><ele>37.0</ele><time>2026-04-28T14:00:14.001Z</time></trkpt><trkpt lat="28.797226721914594" lon="-10.79929605179363"><ele>38.0</ele><time>2026-04-28T14:00:16.001Z</time></trkpt><trkpt lat="28.79716538217743" lon="-10.79927876473493"><ele>39.0</ele><time>2026-04-28T14:00:18.001Z</time></trkpt><trkpt lat="28.797076159788535" lon="-10.799253535401636"><ele>40.0</ele><time>2026-04-28T14:03:40.001Z</time></trkpt><trkpt lat="28.79697861494507" lon="-10.799219822258456"><ele>41.0</ele><time>2026-04-28T14:03:43.001Z</time></trkpt><trkpt lat="28.796924178043785" lon="-10.799181745257869"><ele>42.0</ele><time>2026-04-28T14:03:44.001Z</time></trkpt><trkpt lat="28.7968652131656" lon="-10.79913451967371"><ele>41.2</ele><time>2026-04-28T14:03:45.001Z</time></trkpt><trkpt lat="28.796762818381634" lon="-10.799092446755084"><ele>40.400000000000006</ele><time>2026-04-28T14:03:47.001Z</time></trkpt><trkpt lat="28.796649422300383" lon="-10.799089321192477"><ele>39.599999999999994</ele><time>2026-04-28T14:03:49.001Z</time></trkpt><trkpt lat="28.796570932537872" lon="-10.79902856100444"><ele>38.8</ele><time>2026-04-28T14:03:51.001Z</time></trkpt><trkpt lat="28.796527746630634" lon="-10.798957957113107"><ele>38.0</ele><time>2026-04-28T14:03:52.001Z</time></trkpt><trkpt lat="28.796449186091387" lon="-10.79887142802254"><ele>38.0</ele><time>2026-04-28T14:03:54.001Z</time></trkpt><trkpt lat="28.79636960489468" lon="-10.798808134817799"><ele>38.0</ele><time>2026-04-28T14:04:33.001Z</time></trkpt><trkpt lat="28.79628884255844" lon="-10.798714284095194"><ele>38.0</ele><time>2026-04-28T14:04:35.001Z</time></trkpt><trkpt lat="28.796219848500897" lon="-10.798651944059833"><ele>38.0</ele><time>2026-04-28T14:04:36.001Z</time></trkpt><trkpt lat="28.796123401032986" lon="-10.798566418607273"><ele>38.0</ele><time>2026-04-28T14:04:37.001Z</time></trkpt><trkpt lat="28.79601697433203" lon="-10.798466597198416"><ele>38.0</ele><time>2026-04-28T14:04:38.001Z</time></trkpt><trkpt lat="28.795919964408935" lon="-10.798375879723492"><ele>38.0</ele><time>2026-04-28T14:04:39.001Z</time></trkpt><trkpt lat="28.795819473156754" lon="-10.798290407277271"><ele>38.0</ele><time>2026-04-28T14:04:40.001Z</time></trkpt><trkpt lat="28.795734679728813" lon="-10.798195783323026"><ele>38.0</ele><time>2026-04-28T14:04:41.001Z</time></trkpt><trkpt lat="28.795652787557746" lon="-10.798109697736871"><ele>38.0</ele><time>2026-04-28T14:04:42.001Z</time></trkpt><trkpt lat="28.79556753162248" lon="-10.79803309910471"><ele>38.0</ele><time>2026-04-28T14:04:43.001Z</time></trkpt><trkpt lat="28.795467478647065" lon="-10.7979545298275"><ele>38.0</ele><time>2026-04-28T14:04:44.001Z</time></trkpt><trkpt lat="28.795353526350134" lon="-10.797880815181436"><ele>38.0</ele><time>2026-04-28T14:04:45.001Z</time></trkpt><trkpt lat="28.795253463510058" lon="-10.797818636650199"><ele>38.0</ele><time>2026-04-28T14:04:46.001Z</time></trkpt><trkpt lat="28.795158027850498" lon="-10.79775583523372"><ele>38.0</ele><time>2026-04-28T14:04:47.001Z</time></trkpt><trkpt lat="28.795053767046564" lon="-10.797698994127371"><ele>38.0</ele><time>2026-04-28T14:04:48.001Z</time></trkpt><trkpt lat="28.794931293896894" lon="-10.797638445986145"><ele>38.0</ele><time>2026-04-28T14:04:49.001Z</time></trkpt><trkpt lat="28.794813557187616" lon="-10.79758879578174"><ele>38.0</ele><time>2026-04-28T14:04:50.001Z</time></trkpt><trkpt lat="28.79470335120632" lon="-10.79754965894206"><ele>38.0</ele><time>2026-04-28T14:04:51.001Z</time></trkpt><trkpt lat="28.794591323794457" lon="-10.79752397106599"><ele>38.0</ele><time>2026-04-28T14:04:52.001Z</time></trkpt><trkpt lat="28.794484892527336" lon="-10.79751424335105"><ele>38.0</ele><time>2026-04-28T14:04:53.001Z</time></trkpt><trkpt lat="28.794371161035016" lon="-10.797523780923743"><ele>37.8</ele><time>2026-04-28T14:04:54.001Z</time></trkpt><trkpt lat="28.794273688869108" lon="-10.797556561095988"><ele>37.599999999999994</ele><time>2026-04-28T14:04:55.001Z</time></trkpt><trkpt lat="28.794180823616795" lon="-10.797603074034857"><ele>37.400000000000006</ele><time>2026-04-28T14:04:56.001Z</time></trkpt><trkpt lat="28.79409524919115" lon="-10.797655270635353"><ele>37.2</ele><time>2026-04-28T14:04:57.001Z</time></trkpt><trkpt lat="28.794021418259785" lon="-10.797712044426113"><ele>37.0</ele><time>2026-04-28T14:04:58.001Z</time></trkpt><trkpt lat="28.793953703076426" lon="-10.797769691347357"><ele>37.4</ele><time>2026-04-28T14:04:59.001Z</time></trkpt><trkpt lat="28.79390707580698" lon="-10.797822612228956"><ele>37.800000000000004</ele><time>2026-04-28T14:05:00.001Z</time></trkpt><trkpt lat="28.793858853118774" lon="-10.797891020437627"><ele>38.2</ele><time>2026-04-28T14:05:01.001Z</time></trkpt><trkpt lat="28.79379410980558" lon="-10.797982346787434"><ele>38.6</ele><time>2026-04-28T14:05:02.001Z</time></trkpt><trkpt lat="28.793733453110445" lon="-10.798086650901562"><ele>39.0</ele><time>2026-04-28T14:05:03.001Z</time></trkpt><trkpt lat="28.79367287032311" lon="-10.798183142755057"><ele>39.0</ele><time>2026-04-28T14:05:04.001Z</time></trkpt><trkpt lat="28.79361724230095" lon="-10.798273710857679"><ele>39.0</ele><time>2026-04-28T14:05:05.001Z</time></trkpt><trkpt lat="28.793573456805866" lon="-10.798370829668682"><ele>39.0</ele><time>2026-04-28T14:05:06.001Z</time></trkpt><trkpt lat="28.793536627978508" lon="-10.798487960470517"><ele>39.0</ele><time>2026-04-28T14:05:07.001Z</time></trkpt><trkpt lat="28.793508141606875" lon="-10.798594678025855"><ele>39.0</ele><time>2026-04-28T14:05:08.001Z</time></trkpt><trkpt lat="28.793473024848176" lon="-10.798700008312917"><ele>39.0</ele><time>2026-04-28T14:05:09.001Z</time></trkpt><trkpt lat="28.79341454843591" lon="-10.798801210138608"><ele>39.0</ele><time>2026-04-28T14:05:10.001Z</time></trkpt><trkpt lat="28.79335179204214" lon="-10.798906993243868"><ele>39.0</ele><time>2026-04-28T14:05:11.001Z</time></trkpt><trkpt lat="28.79330257506142" lon="-10.799008914745265"><ele>39.0</ele><time>2026-04-28T14:05:12.001Z</time></trkpt><trkpt lat="28.793266429397264" lon="-10.799097578887688"><ele>39.0</ele><time>2026-04-28T14:05:13.001Z</time></trkpt><trkpt lat="28.79328475228801" lon="-10.79923666598704"><ele>39.0</ele><time>2026-04-28T14:05:15.001Z</time></trkpt><trkpt lat="28.793313355683203" lon="-10.799312037168876"><ele>39.0</ele><time>2026-04-28T14:05:16.001Z</time></trkpt><trkpt lat="28.7933719172037" lon="-10.799443949875076"><ele>39.0</ele><time>2026-04-28T14:05:18.001Z</time></trkpt><trkpt lat="28.793388085681183" lon="-10.799540102147375"><ele>39.0</ele><time>2026-04-28T14:05:19.001Z</time></trkpt><trkpt lat="28.793383393536782" lon="-10.799645894535702"><ele>39.0</ele><time>2026-04-28T14:05:20.001Z</time></trkpt><trkpt lat="28.79335555767859" lon="-10.799736962227646"><ele>38.8</ele><time>2026-04-28T14:05:21.001Z</time></trkpt><trkpt lat="28.793316319906054" lon="-10.799837503566074"><ele>38.599999999999994</ele><time>2026-04-28T14:05:22.001Z</time></trkpt><trkpt lat="28.793284332661006" lon="-10.799921614616538"><ele>38.4</ele><time>2026-04-28T14:05:23.001Z</time></trkpt><trkpt lat="28.79329021750401" lon="-10.800009660857796"><ele>38.199999999999996</ele><time>2026-04-28T14:05:25.001Z</time></trkpt><trkpt lat="28.793318968316285" lon="-10.800152620656329"><ele>38.0</ele><time>2026-04-28T14:05:27.001Z</time></trkpt><trkpt lat="28.79333193835385" lon="-10.800269434081994"><ele>38.5</ele><time>2026-04-28T14:05:28.001Z</time></trkpt><trkpt lat="28.793330835569478" lon="-10.800398253348572"><ele>39.0</ele><time>2026-04-28T14:05:29.001Z</time></trkpt><trkpt lat="28.79332750446149" lon="-10.800542890186005"><ele>39.5</ele><time>2026-04-28T14:05:30.001Z</time></trkpt><trkpt lat="28.793318899139322" lon="-10.80068722837091"><ele>40.0</ele><time>2026-04-28T14:05:31.001Z</time></trkpt><trkpt lat="28.793306395276037" lon="-10.800821887913383"><ele>40.0</ele><time>2026-04-28T14:05:32.001Z</time></trkpt><trkpt lat="28.79329071136308" lon="-10.800950467269224"><ele>40.0</ele><time>2026-04-28T14:05:33.001Z</time></trkpt><trkpt lat="28.7932509655203" lon="-10.801075991756"><ele>40.0</ele><time>2026-04-28T14:05:34.001Z</time></trkpt><trkpt lat="28.793200150958835" lon="-10.801216243320301"><ele>40.0</ele><time>2026-04-28T14:05:35.001Z</time></trkpt><trkpt lat="28.79315774785986" lon="-10.801324280889322"><ele>40.2</ele><time>2026-04-28T14:05:36.001Z</time></trkpt><trkpt lat="28.793117828201737" lon="-10.801444379375193"><ele>40.4</ele><time>2026-04-28T14:05:37.001Z</time></trkpt><trkpt lat="28.793081847360227" lon="-10.801563224192314"><ele>40.599999999999994</ele><time>2026-04-28T14:05:38.001Z</time></trkpt><trkpt lat="28.79306404733526" lon="-10.801694001101232"><ele>40.8</ele><time>2026-04-28T14:05:39.001Z</time></trkpt><trkpt lat="28.793033131641184" lon="-10.801801607170264"><ele>41.0</ele><time>2026-04-28T14:05:40.001Z</time></trkpt><trkpt lat="28.792985839343494" lon="-10.801899684270815"><ele>41.599999999999994</ele><time>2026-04-28T14:05:41.001Z</time></trkpt><trkpt lat="28.792963753973204" lon="-10.801994887805886"><ele>42.2</ele><time>2026-04-28T14:05:42.001Z</time></trkpt><trkpt lat="28.792956991659164" lon="-10.802118100688778"><ele>42.8</ele><time>2026-04-28T14:05:43.001Z</time></trkpt><trkpt lat="28.79296313222667" lon="-10.8022480207214"><ele>43.400000000000006</ele><time>2026-04-28T14:05:44.001Z</time></trkpt><trkpt lat="28.79296812942435" lon="-10.802392335122844"><ele>44.0</ele><time>2026-04-28T14:05:45.001Z</time></trkpt><trkpt lat="28.792956704585652" lon="-10.802517684697003"><ele>44.0</ele><time>2026-04-28T14:05:46.001Z</time></trkpt><trkpt lat="28.792944349749018" lon="-10.802613125845394"><ele>44.0</ele><time>2026-04-28T14:05:47.001Z</time></trkpt><trkpt lat="28.792932324799505" lon="-10.802718622924704"><ele>44.0</ele><time>2026-04-28T14:05:48.001Z</time></trkpt><trkpt lat="28.79291937021829" lon="-10.80282203722771"><ele>44.0</ele><time>2026-04-28T14:05:49.001Z</time></trkpt><trkpt lat="28.792912891884633" lon="-10.8029321938481"><ele>44.0</ele><time>2026-04-28T14:05:50.001Z</time></trkpt><trkpt lat="28.792908346228522" lon="-10.803057782517094"><ele>44.6</ele><time>2026-04-28T14:05:51.001Z</time></trkpt><trkpt lat="28.792910138062755" lon="-10.803193012063184"><ele>45.2</ele><time>2026-04-28T14:05:52.001Z</time></trkpt><trkpt lat="28.792910657717158" lon="-10.803299288236788"><ele>45.800000000000004</ele><time>2026-04-28T14:05:53.001Z</time></trkpt><trkpt lat="28.792886443051625" lon="-10.80340291629555"><ele>46.400000000000006</ele><time>2026-04-28T14:05:54.001Z</time></trkpt><trkpt lat="28.792849278518396" lon="-10.803503493396493"><ele>47.0</ele><time>2026-04-28T14:05:55.001Z</time></trkpt><trkpt lat="28.792804773156035" lon="-10.803633070859274"><ele>48.5</ele><time>2026-04-28T14:05:56.001Z</time></trkpt><trkpt lat="28.792773810466223" lon="-10.80375340888568"><ele>50.0</ele><time>2026-04-28T14:05:57.001Z</time></trkpt><trkpt lat="28.792761049445144" lon="-10.803871027212352"><ele>51.5</ele><time>2026-04-28T14:05:58.001Z</time></trkpt><trkpt lat="28.792763285148578" lon="-10.804002413326705"><ele>53.0</ele><time>2026-04-28T14:05:59.001Z</time></trkpt><trkpt lat="28.792777544724235" lon="-10.8041442132146"><ele>53.0</ele><time>2026-04-28T14:06:00.001Z</time></trkpt><trkpt lat="28.792794248305544" lon="-10.804290201861308"><ele>53.0</ele><time>2026-04-28T14:06:01.001Z</time></trkpt><trkpt lat="28.792799733505642" lon="-10.804429453638301"><ele>53.0</ele><time>2026-04-28T14:06:02.001Z</time></trkpt><trkpt lat="28.79280121987986" lon="-10.804558906211007"><ele>53.0</ele><time>2026-04-28T14:06:03.001Z</time></trkpt><trkpt lat="28.792798813140614" lon="-10.804672791894289"><ele>53.16666666666667</ele><time>2026-04-28T14:06:04.001Z</time></trkpt><trkpt lat="28.79278873271091" lon="-10.80477382668187"><ele>53.333333333333336</ele><time>2026-04-28T14:06:05.001Z</time></trkpt><trkpt lat="28.79277489980897" lon="-10.804871736820159"><ele>53.5</ele><time>2026-04-28T14:06:06.001Z</time></trkpt><trkpt lat="28.79275194192881" lon="-10.80496227963462"><ele>53.66666666666667</ele><time>2026-04-28T14:06:07.001Z</time></trkpt><trkpt lat="28.792721451540054" lon="-10.80504124774625"><ele>53.833333333333336</ele><time>2026-04-28T14:06:08Z</time></trkpt><trkpt lat="28.792690861710284" lon="-10.805112135469134"><ele>54.0</ele><time>2026-04-28T14:06:09Z</time></trkpt><trkpt lat="28.79266465813161" lon="-10.805222136245803"><ele>54.0</ele><time>2026-04-28T14:06:11Z</time></trkpt><trkpt lat="28.792634359337864" lon="-10.805340396940233"><ele>54.00000000000001</ele><time>2026-04-28T14:06:13Z</time></trkpt><trkpt lat="28.79255501049373" lon="-10.805420868039514"><ele>54.00000000000001</ele><time>2026-04-28T14:06:15Z</time></trkpt><trkpt lat="28.79242985734261" lon="-10.805485154183716"><ele>54.0</ele><time>2026-04-28T14:06:17Z</time></trkpt><trkpt lat="28.79235319812771" lon="-10.805503723370924"><ele>54.0</ele><time>2026-04-28T14:06:18Z</time></trkpt><trkpt lat="28.79229323400719" lon="-10.805525974630015"><ele>54.0</ele><time>2026-04-28T14:06:19Z</time></trkpt><trkpt lat="28.792196580420185" lon="-10.805555931205165"><ele>54.0</ele><time>2026-04-28T14:06:21Z</time></trkpt><trkpt lat="28.79213054704304" lon="-10.805564275431296"><ele>54.0</ele><time>2026-04-28T14:06:23Z</time></trkpt><trkpt lat="28.792042944252454" lon="-10.805554004832764"><ele>54.0</ele><time>2026-04-28T14:06:26Z</time></trkpt><trkpt lat="28.79195522301279" lon="-10.805490362600198"><ele>54.0</ele><time>2026-04-28T14:06:28Z</time></trkpt><trkpt lat="28.79191172228145" lon="-10.805433400532129"><ele>54.0</ele><time>2026-04-28T14:06:30Z</time></trkpt><trkpt lat="28.791898042552184" lon="-10.805351948240176"><ele>52.6</ele><time>2026-04-28T14:06:33Z</time></trkpt><trkpt lat="28.791826950812" lon="-10.805244697336725"><ele>51.2</ele><time>2026-04-28T14:06:36Z</time></trkpt><trkpt lat="28.791717360813973" lon="-10.805167886616012"><ele>49.800000000000004</ele><time>2026-04-28T14:06:38Z</time></trkpt><trkpt lat="28.7916491643529" lon="-10.805142405303243"><ele>48.400000000000006</ele><time>2026-04-28T14:06:39Z</time></trkpt><trkpt lat="28.79158310840064" lon="-10.805132091772277"><ele>47.0</ele><time>2026-04-28T14:06:40Z</time></trkpt><trkpt lat="28.79151563079228" lon="-10.805124799881764"><ele>45.8</ele><time>2026-04-28T14:06:41Z</time></trkpt><trkpt lat="28.791435544056757" lon="-10.80511454898517"><ele>44.6</ele><time>2026-04-28T14:06:42Z</time></trkpt><trkpt lat="28.791357716915687" lon="-10.805091535579098"><ele>43.4</ele><time>2026-04-28T14:06:43Z</time></trkpt><trkpt lat="28.79124126749008" lon="-10.805066026032414"><ele>42.199999999999996</ele><time>2026-04-28T14:06:44Z</time></trkpt><trkpt lat="28.791152351902955" lon="-10.805042433002024"><ele>41.0</ele><time>2026-04-28T14:06:45Z</time></trkpt><trkpt lat="28.79107342267109" lon="-10.805017644636198"><ele>41.0</ele><time>2026-04-28T14:06:47Z</time></trkpt><trkpt lat="28.79098741141444" lon="-10.804950647496238"><ele>41.0</ele><time>2026-04-28T14:07:07Z</time></trkpt><trkpt lat="28.790923665132805" lon="-10.804912341637648"><ele>41.0</ele><time>2026-04-28T14:07:08Z</time></trkpt><trkpt lat="28.79085775489411" lon="-10.804857636226574"><ele>41.0</ele><time>2026-04-28T14:07:09Z</time></trkpt><trkpt lat="28.79078266401376" lon="-10.804787600608421"><ele>41.0</ele><time>2026-04-28T14:07:10Z</time></trkpt><trkpt lat="28.790707506430714" lon="-10.804729810741268"><ele>41.0</ele><time>2026-04-28T14:07:11Z</time></trkpt><trkpt lat="28.79061099263107" lon="-10.80469728176716"><ele>41.0</ele><time>2026-04-28T14:07:12Z</time></trkpt><trkpt lat="28.790518732600376" lon="-10.804689880755063"><ele>41.0</ele><time>2026-04-28T14:07:13Z</time></trkpt><trkpt lat="28.790437120876224" lon="-10.804685331602272"><ele>41.0</ele><time>2026-04-28T14:07:14Z</time></trkpt><trkpt lat="28.790358200748635" lon="-10.804667869450672"><ele>41.0</ele><time>2026-04-28T14:07:15Z</time></trkpt><trkpt lat="28.790284946654957" lon="-10.804634288717178"><ele>41.0</ele><time>2026-04-28T14:07:16Z</time></trkpt><trkpt lat="28.79020235878863" lon="-10.804562631326608"><ele>41.0</ele><time>2026-04-28T14:07:17Z</time></trkpt><trkpt lat="28.79010827792911" lon="-10.804465557247276"><ele>41.5</ele><time>2026-04-28T14:07:18Z</time></trkpt><trkpt lat="28.78999332971515" lon="-10.80435561197112"><ele>42.0</ele><time>2026-04-28T14:07:19Z</time></trkpt><trkpt lat="28.789882922904283" lon="-10.804257971217783"><ele>42.5</ele><time>2026-04-28T14:07:20Z</time></trkpt><trkpt lat="28.789780419855404" lon="-10.804169751888999"><ele>43.0</ele><time>2026-04-28T14:07:21Z</time></trkpt><trkpt lat="28.78967035207849" lon="-10.804072438707305"><ele>43.0</ele><time>2026-04-28T14:07:22Z</time></trkpt><trkpt lat="28.789562666233028" lon="-10.803973789190088"><ele>43.0</ele><time>2026-04-28T14:07:23Z</time></trkpt><trkpt lat="28.78945375943255" lon="-10.80386467360215"><ele>43.0</ele><time>2026-04-28T14:07:24Z</time></trkpt><trkpt lat="28.789359801135213" lon="-10.803759407220417"><ele>43.0</ele><time>2026-04-28T14:07:25Z</time></trkpt><trkpt lat="28.789283320987824" lon="-10.80366270649952"><ele>43.2</ele><time>2026-04-28T14:07:26Z</time></trkpt><trkpt lat="28.789219011318117" lon="-10.803562613724724"><ele>43.4</ele><time>2026-04-28T14:07:27Z</time></trkpt><trkpt lat="28.789156533413667" lon="-10.803455555474908"><ele>43.6</ele><time>2026-04-28T14:07:28Z</time></trkpt><trkpt lat="28.789102019752004" lon="-10.803339962075755"><ele>43.800000000000004</ele><time>2026-04-28T14:07:29Z</time></trkpt><trkpt lat="28.789056151298297" lon="-10.80323667993326"><ele>44.0</ele><time>2026-04-28T14:07:30Z</time></trkpt><trkpt lat="28.789013224628352" lon="-10.803131983063677"><ele>44.0</ele><time>2026-04-28T14:07:31Z</time></trkpt><trkpt lat="28.78897476479292" lon="-10.803011140871982"><ele>44.0</ele><time>2026-04-28T14:07:32Z</time></trkpt><trkpt lat="28.788950020246805" lon="-10.802915639053408"><ele>44.0</ele><time>2026-04-28T14:07:33Z</time></trkpt><trkpt lat="28.788920025822556" lon="-10.802834720980874"><ele>44.0</ele><time>2026-04-28T14:07:34Z</time></trkpt><trkpt lat="28.788886243249763" lon="-10.802711269123296"><ele>44.0</ele><time>2026-04-28T14:07:36Z</time></trkpt><trkpt lat="28.78885727253383" lon="-10.802612840927063"><ele>44.0</ele><time>2026-04-28T14:07:38Z</time></trkpt><trkpt lat="28.78879060847115" lon="-10.802489575690883"><ele>44.0</ele><time>2026-04-28T14:07:40Z</time></trkpt><trkpt lat="28.78879380645087" lon="-10.802351425576653"><ele>44.0</ele><time>2026-04-28T14:07:42Z</time></trkpt><trkpt lat="28.788846637441356" lon="-10.802270706058653"><ele>44.0</ele><time>2026-04-28T14:07:43Z</time></trkpt><trkpt lat="28.788908713934056" lon="-10.802186763400137"><ele>44.0</ele><time>2026-04-28T14:07:44Z</time></trkpt><trkpt lat="28.78897272158727" lon="-10.802110983287294"><ele>44.0</ele><time>2026-04-28T14:07:45Z</time></trkpt><trkpt lat="28.789031400043733" lon="-10.802044946943365"><ele>44.0</ele><time>2026-04-28T14:07:46Z</time></trkpt><trkpt lat="28.789096516636437" lon="-10.80199577755495"><ele>44.0</ele><time>2026-04-28T14:07:47Z</time></trkpt><trkpt lat="28.78916781183188" lon="-10.801959629918674"><ele>44.0</ele><time>2026-04-28T14:07:48Z</time></trkpt><trkpt lat="28.7892337518727" lon="-10.801908021170364"><ele>44.0</ele><time>2026-04-28T14:07:49Z</time></trkpt><trkpt lat="28.78928679904577" lon="-10.801838270605455"><ele>44.0</ele><time>2026-04-28T14:07:50Z</time></trkpt><trkpt lat="28.78935073088147" lon="-10.801755346133202"><ele>45.0</ele><time>2026-04-28T14:07:51Z</time></trkpt><trkpt lat="28.78942718025269" lon="-10.801666731405232"><ele>46.0</ele><time>2026-04-28T14:07:52Z</time></trkpt><trkpt lat="28.78951146401158" lon="-10.801577734385715"><ele>47.0</ele><time>2026-04-28T14:07:53Z</time></trkpt><trkpt lat="28.789606955502826" lon="-10.80148724892889"><ele>48.0</ele><time>2026-04-28T14:07:54Z</time></trkpt><trkpt lat="28.789715906579616" lon="-10.801392017371299"><ele>48.0</ele><time>2026-04-28T14:07:55Z</time></trkpt><trkpt lat="28.789837841964694" lon="-10.801299333227362"><ele>48.0</ele><time>2026-04-28T14:07:56Z</time></trkpt><trkpt lat="28.78997106796403" lon="-10.801199328177837"><ele>48.0</ele><time>2026-04-28T14:07:57Z</time></trkpt><trkpt lat="28.79008424632139" lon="-10.801105257476785"><ele>48.0</ele><time>2026-04-28T14:07:58Z</time></trkpt><trkpt lat="28.79017426733632" lon="-10.801025552627953"><ele>48.25</ele><time>2026-04-28T14:07:59Z</time></trkpt><trkpt lat="28.790231651619766" lon="-10.800937717658597"><ele>48.5</ele><time>2026-04-28T14:08:00Z</time></trkpt><trkpt lat="28.790271292180744" lon="-10.800829291826892"><ele>48.75</ele><time>2026-04-28T14:08:01Z</time></trkpt><trkpt lat="28.790307849616003" lon="-10.800688559279022"><ele>49.0</ele><time>2026-04-28T14:08:02Z</time></trkpt><trkpt lat="28.79032212059482" lon="-10.800545196400039"><ele>49.0</ele><time>2026-04-28T14:08:03Z</time></trkpt><trkpt lat="28.790317824060647" lon="-10.800417327579261"><ele>49.0</ele><time>2026-04-28T14:08:04Z</time></trkpt><trkpt lat="28.790288917679522" lon="-10.800295341282947"><ele>49.0</ele><time>2026-04-28T14:08:05Z</time></trkpt><trkpt lat="28.790260273843526" lon="-10.80018378668192"><ele>49.0</ele><time>2026-04-28T14:08:06Z</time></trkpt><trkpt lat="28.790239607167827" lon="-10.800095451934608"><ele>49.0</ele><time>2026-04-28T14:08:07Z</time></trkpt><trkpt lat="28.790209658907667" lon="-10.800018801566274"><ele>48.400000000000006</ele><time>2026-04-28T14:08:08Z</time></trkpt><trkpt lat="28.79017315848687" lon="-10.799940218558962"><ele>47.8</ele><time>2026-04-28T14:08:09Z</time></trkpt><trkpt lat="28.790129123765016" lon="-10.799852498983137"><ele>47.2</ele><time>2026-04-28T14:08:10Z</time></trkpt><trkpt lat="28.79009399548894" lon="-10.799755264727311"><ele>46.599999999999994</ele><time>2026-04-28T14:08:11Z</time></trkpt><trkpt lat="28.79005697685768" lon="-10.799651729737448"><ele>46.0</ele><time>2026-04-28T14:08:12Z</time></trkpt><trkpt lat="28.79000862873321" lon="-10.799560359612855"><ele>46.0</ele><time>2026-04-28T14:08:13Z</time></trkpt><trkpt lat="28.78995299452021" lon="-10.799474335100776"><ele>46.0</ele><time>2026-04-28T14:08:14Z</time></trkpt><trkpt lat="28.789906849868427" lon="-10.799392031868921"><ele>46.0</ele><time>2026-04-28T14:08:15Z</time></trkpt><trkpt lat="28.789864578543966" lon="-10.799296736556558"><ele>46.0</ele><time>2026-04-28T14:08:16Z</time></trkpt><trkpt lat="28.789829506941455" lon="-10.799189793202641"><ele>46.0</ele><time>2026-04-28T14:08:17Z</time></trkpt><trkpt lat="28.78978520581223" lon="-10.799091669867686"><ele>45.66666666666667</ele><time>2026-04-28T14:08:18Z</time></trkpt><trkpt lat="28.789721108873014" lon="-10.799046801878962"><ele>45.333333333333336</ele><time>2026-04-28T14:08:19Z</time></trkpt><trkpt lat="28.78963133926669" lon="-10.799030408265667"><ele>45.0</ele><time>2026-04-28T14:08:20Z</time></trkpt><trkpt lat="28.789531131591925" lon="-10.798997013269076"><ele>44.666666666666664</ele><time>2026-04-28T14:08:21Z</time></trkpt><trkpt lat="28.7894777578242" lon="-10.798950019779726"><ele>44.33333333333333</ele><time>2026-04-28T14:08:22Z</time></trkpt><trkpt lat="28.78941707653458" lon="-10.798867297061607"><ele>44.0</ele><time>2026-04-28T14:08:23Z</time></trkpt><trkpt lat="28.789343522928316" lon="-10.79877839712066"><ele>44.5</ele><time>2026-04-28T14:08:24Z</time></trkpt><trkpt lat="28.789278459053254" lon="-10.79871558579276"><ele>45.0</ele><time>2026-04-28T14:08:25Z</time></trkpt><trkpt lat="28.789199858423512" lon="-10.798664321278041"><ele>45.5</ele><time>2026-04-28T14:08:26Z</time></trkpt><trkpt lat="28.789133416158286" lon="-10.798640785809217"><ele>46.0</ele><time>2026-04-28T14:08:27Z</time></trkpt><trkpt lat="28.78905644585058" lon="-10.798611228115252"><ele>46.5</ele><time>2026-04-28T14:08:28Z</time></trkpt><trkpt lat="28.788982988411938" lon="-10.798611272168936"><ele>47.0</ele><time>2026-04-28T14:08:29Z</time></trkpt><trkpt lat="28.788903348906203" lon="-10.798626637279298"><ele>47.0</ele><time>2026-04-28T14:08:30Z</time></trkpt><trkpt lat="28.788818418750232" lon="-10.798664166336291"><ele>47.0</ele><time>2026-04-28T14:08:31Z</time></trkpt><trkpt lat="28.788706442824083" lon="-10.798707581820137"><ele>47.0</ele><time>2026-04-28T14:08:32Z</time></trkpt><trkpt lat="28.788587241441746" lon="-10.798726526610308"><ele>47.0</ele><time>2026-04-28T14:08:33Z</time></trkpt><trkpt lat="28.788469754492247" lon="-10.798739604598115"><ele>47.0</ele><time>2026-04-28T14:08:34Z</time></trkpt><trkpt lat="28.788381169383673" lon="-10.798758159787438"><ele>46.6</ele><time>2026-04-28T14:08:35Z</time></trkpt><trkpt lat="28.788298129275333" lon="-10.798777844078824"><ele>46.2</ele><time>2026-04-28T14:08:36Z</time></trkpt><trkpt lat="28.78821234901485" lon="-10.79880735563283"><ele>45.8</ele><time>2026-04-28T14:08:37Z</time></trkpt><trkpt lat="28.78813444330792" lon="-10.798838469926206"><ele>45.4</ele><time>2026-04-28T14:08:38Z</time></trkpt><trkpt lat="28.78806992267231" lon="-10.798868906659767"><ele>45.0</ele><time>2026-04-28T14:08:39Z</time></trkpt><trkpt lat="28.78795169174204" lon="-10.798920436479756"><ele>45.0</ele><time>2026-04-28T14:08:41Z</time></trkpt><trkpt lat="28.78788948481737" lon="-10.798941668727657"><ele>45.0</ele><time>2026-04-28T14:08:42Z</time></trkpt><trkpt lat="28.787813203392695" lon="-10.798953380948593"><ele>45.0</ele><time>2026-04-28T14:08:43Z</time></trkpt><trkpt lat="28.78772707181082" lon="-10.798961744369324"><ele>45.0</ele><time>2026-04-28T14:08:44Z</time></trkpt><trkpt lat="28.787642818250728" lon="-10.798976651349696"><ele>45.0</ele><time>2026-04-28T14:08:45Z</time></trkpt><trkpt lat="28.787557217807468" lon="-10.799005053864581"><ele>45.0</ele><time>2026-04-28T14:08:46Z</time></trkpt><trkpt lat="28.787454079295127" lon="-10.799054890742477"><ele>45.25</ele><time>2026-04-28T14:08:47Z</time></trkpt><trkpt lat="28.787345128313227" lon="-10.799112859074237"><ele>45.5</ele><time>2026-04-28T14:08:48Z</time></trkpt><trkpt lat="28.787240007795546" lon="-10.799169407346527"><ele>45.75</ele><time>2026-04-28T14:08:49Z</time></trkpt><trkpt lat="28.787137061107945" lon="-10.79922480672114"><ele>46.0</ele><time>2026-04-28T14:08:50Z</time></trkpt><trkpt lat="28.787033871787717" lon="-10.799261306728878"><ele>46.0</ele><time>2026-04-28T14:08:51Z</time></trkpt><trkpt lat="28.786931137489756" lon="-10.79930243859078"><ele>46.0</ele><time>2026-04-28T14:08:52Z</time></trkpt><trkpt lat="28.786838402323692" lon="-10.799327053365836"><ele>46.0</ele><time>2026-04-28T14:08:53Z</time></trkpt><trkpt lat="28.7867266963399" lon="-10.799338063963267"><ele>46.0</ele><time>2026-04-28T14:08:54Z</time></trkpt><trkpt lat="28.786598907988036" lon="-10.799341555869576"><ele>46.0</ele><time>2026-04-28T14:08:55Z</time></trkpt><trkpt lat="28.78647789094721" lon="-10.79932825381165"><ele>46.333333333333336</ele><time>2026-04-28T14:08:56Z</time></trkpt><trkpt lat="28.78637110795287" lon="-10.799305522140491"><ele>46.66666666666667</ele><time>2026-04-28T14:08:57Z</time></trkpt><trkpt lat="28.78628534382484" lon="-10.799287887589355"><ele>47.0</ele><time>2026-04-28T14:08:58Z</time></trkpt><trkpt lat="28.786205554861183" lon="-10.79927304042709"><ele>47.333333333333336</ele><time>2026-04-28T14:08:59Z</time></trkpt><trkpt lat="28.786119607437175" lon="-10.79924158930837"><ele>47.666666666666664</ele><time>2026-04-28T14:09:00Z</time></trkpt><trkpt lat="28.78604682998345" lon="-10.799207363405376"><ele>48.0</ele><time>2026-04-28T14:09:01Z</time></trkpt><trkpt lat="28.78597323674507" lon="-10.799169182336321"><ele>48.4</ele><time>2026-04-28T14:09:02Z</time></trkpt><trkpt lat="28.78590754607848" lon="-10.799123201388902"><ele>48.8</ele><time>2026-04-28T14:09:03Z</time></trkpt><trkpt lat="28.78584693396628" lon="-10.79907984611831"><ele>49.2</ele><time>2026-04-28T14:09:04Z</time></trkpt><trkpt lat="28.78578750070432" lon="-10.799018002991406"><ele>49.6</ele><time>2026-04-28T14:09:05Z</time></trkpt><trkpt lat="28.78571962916632" lon="-10.79891946663342"><ele>50.0</ele><time>2026-04-28T14:09:06Z</time></trkpt><trkpt lat="28.78564926688899" lon="-10.79881268533883"><ele>50.00000000000001</ele><time>2026-04-28T14:09:07Z</time></trkpt><trkpt lat="28.785585815359358" lon="-10.798740952616107"><ele>50.0</ele><time>2026-04-28T14:09:08Z</time></trkpt><trkpt lat="28.785522066721295" lon="-10.798665187553189"><ele>50.0</ele><time>2026-04-28T14:09:09Z</time></trkpt><trkpt lat="28.78546195070358" lon="-10.798601326789568"><ele>50.0</ele><time>2026-04-28T14:09:10Z</time></trkpt><trkpt lat="28.78539780163145" lon="-10.798520034656047"><ele>50.00000000000001</ele><time>2026-04-28T14:09:11Z</time></trkpt><trkpt lat="28.78534770045856" lon="-10.798440082311167"><ele>50.0</ele><time>2026-04-28T14:09:12Z</time></trkpt><trkpt lat="28.785310226083396" lon="-10.798366978307739"><ele>50.4</ele><time>2026-04-28T14:09:13Z</time></trkpt><trkpt lat="28.78523681621989" lon="-10.798259087166223"><ele>50.8</ele><time>2026-04-28T14:09:15Z</time></trkpt><trkpt lat="28.78516738132512" lon="-10.798150032874801"><ele>51.2</ele><time>2026-04-28T14:09:17Z</time></trkpt><trkpt lat="28.785123202152036" lon="-10.798026664654039"><ele>51.6</ele><time>2026-04-28T14:09:19Z</time></trkpt><trkpt lat="28.78510948963319" lon="-10.797948101448906"><ele>52.0</ele><time>2026-04-28T14:09:20Z</time></trkpt><trkpt lat="28.785101134605537" lon="-10.797862969458086"><ele>52.2</ele><time>2026-04-28T14:09:21Z</time></trkpt><trkpt lat="28.78508100908881" lon="-10.797786145020828"><ele>52.400000000000006</ele><time>2026-04-28T14:09:22Z</time></trkpt><trkpt lat="28.785032223045796" lon="-10.797677956203998"><ele>52.599999999999994</ele><time>2026-04-28T14:09:24Z</time></trkpt><trkpt lat="28.785018464110635" lon="-10.79756209572306"><ele>52.8</ele><time>2026-04-28T14:09:26Z</time></trkpt><trkpt lat="28.78501429559303" lon="-10.797476791963144"><ele>53.0</ele><time>2026-04-28T14:09:27Z</time></trkpt><trkpt lat="28.785015095785585" lon="-10.79733891870456"><ele>52.50000000000001</ele><time>2026-04-28T14:09:29Z</time></trkpt><trkpt lat="28.785021089191076" lon="-10.797214157140195"><ele>52.0</ele><time>2026-04-28T14:09:31Z</time></trkpt><trkpt lat="28.7850274154314" lon="-10.797076616318344"><ele>51.5</ele><time>2026-04-28T14:09:33Z</time></trkpt><trkpt lat="28.785049473428458" lon="-10.797007344914126"><ele>51.0</ele><time>2026-04-28T14:09:34Z</time></trkpt><trkpt lat="28.785070423955222" lon="-10.79693386696718"><ele>50.50000000000001</ele><time>2026-04-28T14:09:35Z</time></trkpt><trkpt lat="28.785086713955312" lon="-10.79686202976428"><ele>50.0</ele><time>2026-04-28T14:09:36Z</time></trkpt><trkpt lat="28.7851454907733" lon="-10.796749006465713"><ele>50.00000000000001</ele><time>2026-04-28T14:09:38Z</time></trkpt><trkpt lat="28.785187887439715" lon="-10.796602750406"><ele>50.0</ele><time>2026-04-28T14:09:40Z</time></trkpt><trkpt lat="28.785218008609387" lon="-10.796518593843528"><ele>50.0</ele><time>2026-04-28T14:09:41Z</time></trkpt><trkpt lat="28.785247135525204" lon="-10.796451928634125"><ele>50.0</ele><time>2026-04-28T14:09:42Z</time></trkpt><trkpt lat="28.785209763830558" lon="-10.79652256287952"><ele>50.00000000000001</ele><time>2026-04-28T14:15:04Z</time></trkpt><trkpt lat="28.785175101794273" lon="-10.796601128743523"><ele>50.0</ele><time>2026-04-28T14:15:10Z</time></trkpt><trkpt lat="28.785147989337997" lon="-10.796677185361863"><ele>50.00000000000001</ele><time>2026-04-28T14:15:15Z</time></trkpt><trkpt lat="28.78511699649817" lon="-10.7967464005436"><ele>50.0</ele><time>2026-04-28T14:15:20Z</time></trkpt><trkpt lat="28.785155852694075" lon="-10.796674251018535"><ele>50.0</ele><time>2026-04-28T14:16:09Z</time></trkpt><trkpt lat="28.78518741639262" lon="-10.796608715491855"><ele>50.0</ele><time>2026-04-28T14:16:22.999Z</time></trkpt><trkpt lat="28.785212749528196" lon="-10.796534298809357"><ele>50.0</ele><time>2026-04-28T14:16:29.999Z</time></trkpt><trkpt lat="28.7852385845242" lon="-10.796456979959276"><ele>50.00000000000001</ele><time>2026-04-28T14:16:36.999Z</time></trkpt><trkpt lat="28.78529185358161" lon="-10.79641731286231"><ele>50.0</ele><time>2026-04-28T14:20:41Z</time></trkpt><trkpt lat="28.78535644067834" lon="-10.796466817259173"><ele>50.00000000000001</ele><time>2026-04-28T14:24:30.001Z</time></trkpt><trkpt lat="28.78534706546135" lon="-10.796544617607687"><ele>50.0</ele><time>2026-04-28T14:24:32.001Z</time></trkpt><trkpt lat="28.78531858763697" lon="-10.796629765995368"><ele>50.0</ele><time>2026-04-28T14:24:34.001Z</time></trkpt><trkpt lat="28.78529195724568" lon="-10.796703225516184"><ele>50.0</ele><time>2026-04-28T14:24:36.001Z</time></trkpt><trkpt lat="28.78526086195705" lon="-10.796784856409642"><ele>50.0</ele><time>2026-04-28T14:24:38.001Z</time></trkpt><trkpt lat="28.785229872175222" lon="-10.796851795400375"><ele>50.00000000000001</ele><time>2026-04-28T14:24:40.001Z</time></trkpt><trkpt lat="28.785180904121138" lon="-10.796919305142463"><ele>50.0</ele><time>2026-04-28T14:24:43Z</time></trkpt><trkpt lat="28.785112345872452" lon="-10.796914733947784"><ele>50.00000000000001</ele><time>2026-04-28T14:25:07Z</time></trkpt><trkpt lat="28.785055605300464" lon="-10.79695218835849"><ele>50.0</ele><time>2026-04-28T14:25:13Z</time></trkpt><trkpt lat="28.78499739294433" lon="-10.797003219843138"><ele>50.0</ele><time>2026-04-28T14:25:19Z</time></trkpt><trkpt lat="28.78500576666892" lon="-10.797086240813172"><ele>50.0</ele><time>2026-04-28T14:25:56Z</time></trkpt><trkpt lat="28.785008475846222" lon="-10.797181668390936"><ele>50.00000000000001</ele><time>2026-04-28T14:25:58Z</time></trkpt><trkpt lat="28.7850000776101" lon="-10.797287332728283"><ele>50.0</ele><time>2026-04-28T14:26:00Z</time></trkpt><trkpt lat="28.785002391526262" lon="-10.797392907301417"><ele>50.0</ele><time>2026-04-28T14:26:02Z</time></trkpt><trkpt lat="28.78497769394199" lon="-10.797500017596118"><ele>50.0</ele><time>2026-04-28T14:26:04Z</time></trkpt><trkpt lat="28.78498935704791" lon="-10.797620406786665"><ele>50.0</ele><time>2026-04-28T14:26:06Z</time></trkpt><trkpt lat="28.785032159746198" lon="-10.797737314435553"><ele>50.0</ele><time>2026-04-28T14:26:08Z</time></trkpt><trkpt lat="28.785074032884246" lon="-10.797811650144325"><ele>50.0</ele><time>2026-04-28T14:26:11Z</time></trkpt><trkpt lat="28.785088086747628" lon="-10.797888827684977"><ele>50.50000000000001</ele><time>2026-04-28T14:28:32Z</time></trkpt><trkpt lat="28.785087813241297" lon="-10.797973213044123"><ele>51.0</ele><time>2026-04-28T14:28:36Z</time></trkpt><trkpt lat="28.78510814312531" lon="-10.798044385439566"><ele>51.5</ele><time>2026-04-28T14:28:38Z</time></trkpt><trkpt lat="28.785110191405323" lon="-10.798135071433943"><ele>52.0</ele><time>2026-04-28T14:28:41Z</time></trkpt><trkpt lat="28.78504284861457" lon="-10.798140985838035"><ele>52.50000000000001</ele><time>2026-04-28T14:28:45Z</time></trkpt><trkpt lat="28.78503824010852" lon="-10.79804599713629"><ele>53.0</ele><time>2026-04-28T14:28:47Z</time></trkpt><trkpt lat="28.785041709495008" lon="-10.79794310594115"><ele>53.0</ele><time>2026-04-28T14:28:49Z</time></trkpt><trkpt lat="28.785014322431238" lon="-10.797809856592231"><ele>53.0</ele><time>2026-04-28T14:28:51Z</time></trkpt><trkpt lat="28.785002461269833" lon="-10.797662608730546"><ele>53.0</ele><time>2026-04-28T14:28:53Z</time></trkpt><trkpt lat="28.785000504615002" lon="-10.797575771626304"><ele>53.0</ele><time>2026-04-28T14:28:54Z</time></trkpt><trkpt lat="28.785009756933093" lon="-10.797500269108342"><ele>53.0</ele><time>2026-04-28T14:28:55Z</time></trkpt><trkpt lat="28.785036671831193" lon="-10.797382926834944"><ele>52.50000000000001</ele><time>2026-04-28T14:28:57Z</time></trkpt><trkpt lat="28.785038393684758" lon="-10.797310789201061"><ele>52.0</ele><time>2026-04-28T14:28:58Z</time></trkpt><trkpt lat="28.785048866442516" lon="-10.797183822396324"><ele>51.5</ele><time>2026-04-28T14:29:00Z</time></trkpt><trkpt lat="28.78508070361687" lon="-10.797093270975203"><ele>51.0</ele><time>2026-04-28T14:29:02Z</time></trkpt><trkpt lat="28.78509848845538" lon="-10.796976282824827"><ele>50.50000000000001</ele><time>2026-04-28T14:29:04Z</time></trkpt><trkpt lat="28.785108367548677" lon="-10.796893596192142"><ele>50.0</ele><time>2026-04-28T14:29:05Z</time></trkpt><trkpt lat="28.785120358786223" lon="-10.796821962903772"><ele>50.0</ele><time>2026-04-28T14:29:06Z</time></trkpt><trkpt lat="28.78516005311964" lon="-10.796714226012485"><ele>50.0</ele><time>2026-04-28T14:29:08Z</time></trkpt><trkpt lat="28.78524130837026" lon="-10.796644176440877"><ele>50.0</ele><time>2026-04-28T14:29:10Z</time></trkpt><trkpt lat="28.785340414887678" lon="-10.796572544407354"><ele>50.0</ele><time>2026-04-28T14:29:12Z</time></trkpt><trkpt lat="28.785382254593586" lon="-10.796464133730659"><ele>50.0</ele><time>2026-04-28T14:29:14Z</time></trkpt><trkpt lat="28.78537110999465" lon="-10.796379422853226"><ele>50.66666666666667</ele><time>2026-04-28T14:29:16Z</time></trkpt><trkpt lat="28.78539444482423" lon="-10.796306851943317"><ele>51.333333333333336</ele><time>2026-04-28T14:31:38Z</time></trkpt><trkpt lat="28.785455813519494" lon="-10.796286885669184"><ele>52.0</ele><time>2026-04-28T14:31:40Z</time></trkpt><trkpt lat="28.785476343836773" lon="-10.79619295590491"><ele>52.66666666666667</ele><time>2026-04-28T14:31:43Z</time></trkpt><trkpt lat="28.78549520163336" lon="-10.796112477934322"><ele>53.333333333333336</ele><time>2026-04-28T14:31:45Z</time></trkpt><trkpt lat="28.785612973373887" lon="-10.796045291527252"><ele>54.0</ele><time>2026-04-28T14:31:47Z</time></trkpt><trkpt lat="28.78571169147512" lon="-10.79597600676087"><ele>54.0</ele><time>2026-04-28T14:31:49Z</time></trkpt><trkpt lat="28.78575317762544" lon="-10.795919130103822"><ele>54.0</ele><time>2026-04-28T14:31:50Z</time></trkpt><trkpt lat="28.785798448628324" lon="-10.795864266592345"><ele>54.0</ele><time>2026-04-28T14:31:51Z</time></trkpt><trkpt lat="28.78584223808199" lon="-10.79581131361669"><ele>54.0</ele><time>2026-04-28T14:31:52Z</time></trkpt><trkpt lat="28.785888895852185" lon="-10.79575590338592"><ele>54.0</ele><time>2026-04-28T14:31:53Z</time></trkpt><trkpt lat="28.785940735696748" lon="-10.795704507257435"><ele>54.0</ele><time>2026-04-28T14:31:54Z</time></trkpt><trkpt lat="28.785995333161907" lon="-10.795658170123684"><ele>54.0</ele><time>2026-04-28T14:31:55Z</time></trkpt><trkpt lat="28.78605414024005" lon="-10.795607049307376"><ele>54.5</ele><time>2026-04-28T14:31:56Z</time></trkpt><trkpt lat="28.786110025368007" lon="-10.795548920448894"><ele>55.0</ele><time>2026-04-28T14:31:57Z</time></trkpt><trkpt lat="28.786164948599918" lon="-10.795493295423796"><ele>55.5</ele><time>2026-04-28T14:31:58Z</time></trkpt><trkpt lat="28.78624549117896" lon="-10.795412727469946"><ele>56.0</ele><time>2026-04-28T14:32:00Z</time></trkpt><trkpt lat="28.78630171491336" lon="-10.795370148943315"><ele>56.5</ele><time>2026-04-28T14:32:02Z</time></trkpt><trkpt lat="28.786387106511622" lon="-10.795328625762403"><ele>57.0</ele><time>2026-04-28T14:32:04Z</time></trkpt><trkpt lat="28.786464365647795" lon="-10.795297066374644"><ele>57.0</ele><time>2026-04-28T14:32:06Z</time></trkpt><trkpt lat="28.786559794432126" lon="-10.795253185206292"><ele>57.0</ele><time>2026-04-28T14:32:09Z</time></trkpt><trkpt lat="28.786629076260944" lon="-10.795181073900471"><ele>57.0</ele><time>2026-04-28T14:32:11Z</time></trkpt><trkpt lat="28.786714685182016" lon="-10.795098862202918"><ele>57.0</ele><time>2026-04-28T14:32:13Z</time></trkpt><trkpt lat="28.78680158672133" lon="-10.795024339451293"><ele>57.0</ele><time>2026-04-28T14:32:15Z</time></trkpt><trkpt lat="28.78685628892437" lon="-10.794976160795978"><ele>56.8</ele><time>2026-04-28T14:32:16Z</time></trkpt><trkpt lat="28.786925664592875" lon="-10.794914070106653"><ele>56.6</ele><time>2026-04-28T14:32:17Z</time></trkpt><trkpt lat="28.786994973181" lon="-10.794853983434164"><ele>56.39999999999999</ele><time>2026-04-28T14:32:18Z</time></trkpt><trkpt lat="28.78706945138561" lon="-10.794803125947455"><ele>56.199999999999996</ele><time>2026-04-28T14:32:19Z</time></trkpt><trkpt lat="28.78716065059421" lon="-10.794743326539352"><ele>56.0</ele><time>2026-04-28T14:32:20Z</time></trkpt><trkpt lat="28.787267394177647" lon="-10.794674831521526"><ele>56.0</ele><time>2026-04-28T14:32:21Z</time></trkpt><trkpt lat="28.78737147814999" lon="-10.79460793394606"><ele>55.99999999999999</ele><time>2026-04-28T14:32:22Z</time></trkpt><trkpt lat="28.787463052177685" lon="-10.794530932111051"><ele>55.99999999999999</ele><time>2026-04-28T14:32:23Z</time></trkpt><trkpt lat="28.787520545278174" lon="-10.794459725214367"><ele>56.0</ele><time>2026-04-28T14:32:24Z</time></trkpt><trkpt lat="28.787559558943823" lon="-10.79439724159832"><ele>56.0</ele><time>2026-04-28T14:32:25Z</time></trkpt><trkpt lat="28.78761957087836" lon="-10.79427912125593"><ele>56.0</ele><time>2026-04-28T14:32:27Z</time></trkpt><trkpt lat="28.787654423901543" lon="-10.794205901032372"><ele>56.0</ele><time>2026-04-28T14:32:28Z</time></trkpt><trkpt lat="28.78768895463578" lon="-10.794130821743774"><ele>56.0</ele><time>2026-04-28T14:32:29Z</time></trkpt><trkpt lat="28.787718917423174" lon="-10.794054772247144"><ele>56.0</ele><time>2026-04-28T14:32:30Z</time></trkpt><trkpt lat="28.787743600478823" lon="-10.793979458920791"><ele>56.0</ele><time>2026-04-28T14:32:31Z</time></trkpt><trkpt lat="28.78777068044371" lon="-10.79390333341804"><ele>56.0</ele><time>2026-04-28T14:32:32Z</time></trkpt><trkpt lat="28.787802856699834" lon="-10.793829216401859"><ele>56.0</ele><time>2026-04-28T14:32:33Z</time></trkpt><trkpt lat="28.787838807636373" lon="-10.79375077583794"><ele>56.0</ele><time>2026-04-28T14:32:34Z</time></trkpt><trkpt lat="28.787873547851298" lon="-10.793666325632508"><ele>55.99999999999999</ele><time>2026-04-28T14:32:35Z</time></trkpt><trkpt lat="28.787925206766992" lon="-10.793586446321271"><ele>55.99999999999999</ele><time>2026-04-28T14:32:36Z</time></trkpt><trkpt lat="28.787990124849145" lon="-10.793507879135241"><ele>56.0</ele><time>2026-04-28T14:32:37Z</time></trkpt><trkpt lat="28.788047632918445" lon="-10.793414582839048"><ele>56.0</ele><time>2026-04-28T14:32:38Z</time></trkpt><trkpt lat="28.788085594041142" lon="-10.793320491056935"><ele>55.8</ele><time>2026-04-28T14:32:39Z</time></trkpt><trkpt lat="28.78811551234976" lon="-10.793207886227489"><ele>55.599999999999994</ele><time>2026-04-28T14:32:40Z</time></trkpt><trkpt lat="28.788133333426536" lon="-10.793080242278474"><ele>55.4</ele><time>2026-04-28T14:32:41Z</time></trkpt><trkpt lat="28.78813934159152" lon="-10.792958644017641"><ele>55.2</ele><time>2026-04-28T14:32:42Z</time></trkpt><trkpt lat="28.788129942469485" lon="-10.792824584120895"><ele>55.0</ele><time>2026-04-28T14:32:43Z</time></trkpt><trkpt lat="28.78811426091896" lon="-10.792671413727298"><ele>54.75</ele><time>2026-04-28T14:32:44Z</time></trkpt><trkpt lat="28.78810860035307" lon="-10.792530884596605"><ele>54.5</ele><time>2026-04-28T14:32:45Z</time></trkpt><trkpt lat="28.7881220086054" lon="-10.79238302461295"><ele>54.25</ele><time>2026-04-28T14:32:46Z</time></trkpt><trkpt lat="28.78814128965375" lon="-10.792217869012395"><ele>54.0</ele><time>2026-04-28T14:32:47Z</time></trkpt><trkpt lat="28.78816163357147" lon="-10.792072507892266"><ele>54.0</ele><time>2026-04-28T14:32:48Z</time></trkpt><trkpt lat="28.78818777214923" lon="-10.791926345431154"><ele>54.0</ele><time>2026-04-28T14:32:49Z</time></trkpt><trkpt lat="28.788214156054323" lon="-10.791777632402137"><ele>54.0</ele><time>2026-04-28T14:32:50Z</time></trkpt><trkpt lat="28.78822252065598" lon="-10.791651637458497"><ele>54.0</ele><time>2026-04-28T14:32:51Z</time></trkpt><trkpt lat="28.78821978104197" lon="-10.79153715115275"><ele>53.800000000000004</ele><time>2026-04-28T14:32:52Z</time></trkpt><trkpt lat="28.788204692738727" lon="-10.791429195990665"><ele>53.60000000000001</ele><time>2026-04-28T14:32:53Z</time></trkpt><trkpt lat="28.78818324495379" lon="-10.791337723912315"><ele>53.4</ele><time>2026-04-28T14:32:54Z</time></trkpt><trkpt lat="28.788128927656224" lon="-10.791246899739527"><ele>53.2</ele><time>2026-04-28T14:32:56Z</time></trkpt><trkpt lat="28.788053915242887" lon="-10.791242341236211"><ele>53.0</ele><time>2026-04-28T14:32:58Z</time></trkpt><trkpt lat="28.787952860951055" lon="-10.791239928120596"><ele>53.0</ele><time>2026-04-28T14:33:00Z</time></trkpt><trkpt lat="28.787909231520075" lon="-10.791180856887008"><ele>53.0</ele><time>2026-04-28T14:33:02Z</time></trkpt><trkpt lat="28.787890949462394" lon="-10.791024462946579"><ele>53.0</ele><time>2026-04-28T14:33:04Z</time></trkpt><trkpt lat="28.787873498410917" lon="-10.790939227083959"><ele>53.0</ele><time>2026-04-28T14:33:05Z</time></trkpt><trkpt lat="28.787840419482638" lon="-10.79080278934883"><ele>53.0</ele><time>2026-04-28T14:33:07Z</time></trkpt><trkpt lat="28.78782832298533" lon="-10.790716849229103"><ele>53.2</ele><time>2026-04-28T14:33:08Z</time></trkpt><trkpt lat="28.78781032252105" lon="-10.79064126184607"><ele>53.4</ele><time>2026-04-28T14:33:09Z</time></trkpt><trkpt lat="28.787698191076853" lon="-10.790531400580752"><ele>53.60000000000001</ele><time>2026-04-28T14:33:11Z</time></trkpt><trkpt lat="28.78760983850271" lon="-10.79045544367286"><ele>53.800000000000004</ele><time>2026-04-28T14:33:12Z</time></trkpt><trkpt lat="28.787563225954358" lon="-10.790382710490508"><ele>54.0</ele><time>2026-04-28T14:33:13Z</time></trkpt><trkpt lat="28.787514622310407" lon="-10.790292959231978"><ele>53.800000000000004</ele><time>2026-04-28T14:33:14Z</time></trkpt><trkpt lat="28.787459936310537" lon="-10.790217630133737"><ele>53.60000000000001</ele><time>2026-04-28T14:33:15Z</time></trkpt><trkpt lat="28.787397361036643" lon="-10.790137047267175"><ele>53.4</ele><time>2026-04-28T14:33:16Z</time></trkpt><trkpt lat="28.787328491377966" lon="-10.790031208140064"><ele>53.2</ele><time>2026-04-28T14:33:17Z</time></trkpt><trkpt lat="28.78728095679253" lon="-10.789929299203258"><ele>53.0</ele><time>2026-04-28T14:33:18Z</time></trkpt><trkpt lat="28.787243647539228" lon="-10.789851300031584"><ele>53.00000000000001</ele><time>2026-04-28T14:33:19Z</time></trkpt><trkpt lat="28.787201217049642" lon="-10.789793336606875"><ele>53.0</ele><time>2026-04-28T14:33:20Z</time></trkpt><trkpt lat="28.787124131778896" lon="-10.7897146772088"><ele>53.0</ele><time>2026-04-28T14:33:22Z</time></trkpt><trkpt lat="28.787056020254973" lon="-10.789650868484777"><ele>53.0</ele><time>2026-04-28T14:33:23Z</time></trkpt><trkpt lat="28.787001672549778" lon="-10.789565122886865"><ele>53.00000000000001</ele><time>2026-04-28T14:33:24Z</time></trkpt><trkpt lat="28.786962493990796" lon="-10.789465841962377"><ele>53.0</ele><time>2026-04-28T14:33:25Z</time></trkpt><trkpt lat="28.786938468138782" lon="-10.789339716522248"><ele>53.0</ele><time>2026-04-28T14:33:26Z</time></trkpt><trkpt lat="28.78693203393811" lon="-10.789219399422509"><ele>53.0</ele><time>2026-04-28T14:33:27Z</time></trkpt><trkpt lat="28.78690628012058" lon="-10.789134059831703"><ele>53.0</ele><time>2026-04-28T14:33:28Z</time></trkpt><trkpt lat="28.78686709806675" lon="-10.789053169018102"><ele>53.0</ele><time>2026-04-28T14:33:29Z</time></trkpt><trkpt lat="28.786812004267325" lon="-10.788963388721696"><ele>53.0</ele><time>2026-04-28T14:33:30Z</time></trkpt><trkpt lat="28.786745086649123" lon="-10.788871873709931"><ele>53.5</ele><time>2026-04-28T14:33:31Z</time></trkpt><trkpt lat="28.786660881383355" lon="-10.788769760362706"><ele>54.0</ele><time>2026-04-28T14:33:32Z</time></trkpt><trkpt lat="28.786573138676022" lon="-10.788648562003031"><ele>54.5</ele><time>2026-04-28T14:33:33Z</time></trkpt><trkpt lat="28.786501855336944" lon="-10.788541757641775"><ele>55.0</ele><time>2026-04-28T14:33:34Z</time></trkpt><trkpt lat="28.786443715649156" lon="-10.788458048851776"><ele>54.99999999999999</ele><time>2026-04-28T14:33:35Z</time></trkpt><trkpt lat="28.786373424272274" lon="-10.788384337158362"><ele>55.0</ele><time>2026-04-28T14:33:36Z</time></trkpt><trkpt lat="28.786303986712166" lon="-10.788313635808839"><ele>55.0</ele><time>2026-04-28T14:33:37Z</time></trkpt><trkpt lat="28.786244062700703" lon="-10.788265292081896"><ele>55.0</ele><time>2026-04-28T14:33:38Z</time></trkpt><trkpt lat="28.7861379880607" lon="-10.78822297052157"><ele>54.99999999999999</ele><time>2026-04-28T14:33:40Z</time></trkpt><trkpt lat="28.786071662479188" lon="-10.788215670341545"><ele>55.0</ele><time>2026-04-28T14:33:41Z</time></trkpt><trkpt lat="28.785999530916257" lon="-10.788198576666373"><ele>54.857142857142854</ele><time>2026-04-28T14:33:42Z</time></trkpt><trkpt lat="28.785924111762498" lon="-10.788179582711177"><ele>54.714285714285715</ele><time>2026-04-28T14:33:43Z</time></trkpt><trkpt lat="28.78585376520989" lon="-10.788174089814289"><ele>54.57142857142857</ele><time>2026-04-28T14:33:44Z</time></trkpt><trkpt lat="28.785785343387857" lon="-10.788180315883425"><ele>54.42857142857143</ele><time>2026-04-28T14:33:45Z</time></trkpt><trkpt lat="28.78571539874347" lon="-10.788167980970664"><ele>54.285714285714285</ele><time>2026-04-28T14:33:46Z</time></trkpt><trkpt lat="28.785643084434962" lon="-10.788132334096112"><ele>54.14285714285714</ele><time>2026-04-28T14:33:47Z</time></trkpt><trkpt lat="28.785583362534513" lon="-10.788090434499644"><ele>54.0</ele><time>2026-04-28T14:33:48Z</time></trkpt><trkpt lat="28.785485059031686" lon="-10.788011457083394"><ele>54.0</ele><time>2026-04-28T14:33:50Z</time></trkpt><trkpt lat="28.78540026165389" lon="-10.78797987794392"><ele>54.0</ele><time>2026-04-28T14:33:52Z</time></trkpt><trkpt lat="28.78533192256368" lon="-10.787946825281162"><ele>54.0</ele><time>2026-04-28T14:33:53Z</time></trkpt><trkpt lat="28.785242828512562" lon="-10.787906242925338"><ele>54.0</ele><time>2026-04-28T14:33:54Z</time></trkpt><trkpt lat="28.785163598121112" lon="-10.787868527204637"><ele>54.0</ele><time>2026-04-28T14:33:55Z</time></trkpt><trkpt lat="28.785075110070792" lon="-10.787833863053939"><ele>54.0</ele><time>2026-04-28T14:33:56Z</time></trkpt><trkpt lat="28.78499356781389" lon="-10.787806740372258"><ele>54.0</ele><time>2026-04-28T14:33:57Z</time></trkpt><trkpt lat="28.78491398099627" lon="-10.787778094375422"><ele>54.0</ele><time>2026-04-28T14:33:58Z</time></trkpt><trkpt lat="28.784840653757225" lon="-10.78773851973218"><ele>54.0</ele><time>2026-04-28T14:33:59Z</time></trkpt><trkpt lat="28.78478000853791" lon="-10.787703087810696"><ele>54.0</ele><time>2026-04-28T14:34:00Z</time></trkpt><trkpt lat="28.78469888526735" lon="-10.787653411460514"><ele>54.0</ele><time>2026-04-28T14:34:02Z</time></trkpt><trkpt lat="28.784615352703504" lon="-10.787599127522014"><ele>54.0</ele><time>2026-04-28T14:34:04Z</time></trkpt><trkpt lat="28.784528055411503" lon="-10.787540487921"><ele>54.400000000000006</ele><time>2026-04-28T14:34:06Z</time></trkpt><trkpt lat="28.78441048346235" lon="-10.78747564305971"><ele>54.800000000000004</ele><time>2026-04-28T14:34:08Z</time></trkpt><trkpt lat="28.784330697232846" lon="-10.787433941439065"><ele>55.199999999999996</ele><time>2026-04-28T14:34:09Z</time></trkpt><trkpt lat="28.784252951918596" lon="-10.787390827729896"><ele>55.599999999999994</ele><time>2026-04-28T14:34:10Z</time></trkpt><trkpt lat="28.784191971164375" lon="-10.787351465162224"><ele>56.0</ele><time>2026-04-28T14:34:11Z</time></trkpt><trkpt lat="28.784126746315504" lon="-10.787304142593078"><ele>56.0</ele><time>2026-04-28T14:34:12Z</time></trkpt><trkpt lat="28.784074827258564" lon="-10.78725920684277"><ele>55.99999999999999</ele><time>2026-04-28T14:34:13Z</time></trkpt><trkpt lat="28.783969938401004" lon="-10.787179437699535"><ele>55.99999999999999</ele><time>2026-04-28T14:34:15Z</time></trkpt><trkpt lat="28.78390704914359" lon="-10.787146524943829"><ele>56.0</ele><time>2026-04-28T14:34:16Z</time></trkpt><trkpt lat="28.78380141044956" lon="-10.78708864015396"><ele>56.0</ele><time>2026-04-28T14:34:18Z</time></trkpt><trkpt lat="28.783702775568447" lon="-10.787034994421836"><ele>56.0</ele><time>2026-04-28T14:34:20Z</time></trkpt><trkpt lat="28.783563789021837" lon="-10.786958872292779"><ele>55.99999999999999</ele><time>2026-04-28T14:34:22Z</time></trkpt><trkpt lat="28.783465901991914" lon="-10.786906827604673"><ele>55.99999999999999</ele><time>2026-04-28T14:34:23Z</time></trkpt><trkpt lat="28.783377483433554" lon="-10.786865204271605"><ele>56.0</ele><time>2026-04-28T14:34:24Z</time></trkpt><trkpt lat="28.783306167305785" lon="-10.78682984940446"><ele>56.0</ele><time>2026-04-28T14:34:25Z</time></trkpt><trkpt lat="28.783239353176906" lon="-10.786801519465017"><ele>56.0</ele><time>2026-04-28T14:34:26Z</time></trkpt><trkpt lat="28.78316813589076" lon="-10.786775053369055"><ele>55.99999999999999</ele><time>2026-04-28T14:34:27Z</time></trkpt><trkpt lat="28.783078842129864" lon="-10.786720637933396"><ele>55.99999999999999</ele><time>2026-04-28T14:34:28Z</time></trkpt><trkpt lat="28.78298337208278" lon="-10.786663720550482"><ele>56.0</ele><time>2026-04-28T14:34:29Z</time></trkpt><trkpt lat="28.782886743538416" lon="-10.786620540325785"><ele>56.0</ele><time>2026-04-28T14:34:30Z</time></trkpt><trkpt lat="28.78278561210078" lon="-10.786561624018443"><ele>56.0</ele><time>2026-04-28T14:34:31Z</time></trkpt><trkpt lat="28.782701179029477" lon="-10.786507064140045"><ele>55.99999999999999</ele><time>2026-04-28T14:34:32Z</time></trkpt><trkpt lat="28.782613354577542" lon="-10.786464277969195"><ele>55.99999999999999</ele><time>2026-04-28T14:34:33Z</time></trkpt><trkpt lat="28.78253354073226" lon="-10.786431419414475"><ele>56.0</ele><time>2026-04-28T14:34:34Z</time></trkpt><trkpt lat="28.782432321092294" lon="-10.786380644627009"><ele>56.0</ele><time>2026-04-28T14:34:36Z</time></trkpt><trkpt lat="28.782310954166714" lon="-10.786322356879218"><ele>56.0</ele><time>2026-04-28T14:34:38Z</time></trkpt><trkpt lat="28.782249344197435" lon="-10.786302804839291"><ele>56.0</ele><time>2026-04-28T14:34:39Z</time></trkpt><trkpt lat="28.78218551003002" lon="-10.786283489255059"><ele>56.0</ele><time>2026-04-28T14:34:40Z</time></trkpt><trkpt lat="28.782120478314162" lon="-10.78626361327944"><ele>56.0</ele><time>2026-04-28T14:34:41Z</time></trkpt><trkpt lat="28.782049858529405" lon="-10.786248039633213"><ele>56.0</ele><time>2026-04-28T14:34:42Z</time></trkpt><trkpt lat="28.781972938420925" lon="-10.786244317188467"><ele>56.0</ele><time>2026-04-28T14:34:43Z</time></trkpt><trkpt lat="28.78188533817057" lon="-10.786255632851677"><ele>56.0</ele><time>2026-04-28T14:34:44Z</time></trkpt><trkpt lat="28.78179823565689" lon="-10.786266970102298"><ele>56.0</ele><time>2026-04-28T14:34:45Z</time></trkpt><trkpt lat="28.781706236739797" lon="-10.786252231020004"><ele>56.0</ele><time>2026-04-28T14:34:46Z</time></trkpt><trkpt lat="28.781584286868586" lon="-10.786211445228775"><ele>56.0</ele><time>2026-04-28T14:34:47Z</time></trkpt><trkpt lat="28.781473343079057" lon="-10.786182219797412"><ele>56.0</ele><time>2026-04-28T14:34:48Z</time></trkpt><trkpt lat="28.781339460574216" lon="-10.786160218230199"><ele>56.00000000000001</ele><time>2026-04-28T14:34:49Z</time></trkpt><trkpt lat="28.78122480382127" lon="-10.786135168676333"><ele>56.0</ele><time>2026-04-28T14:34:50Z</time></trkpt><trkpt lat="28.781141684040456" lon="-10.786114686681454"><ele>56.0</ele><time>2026-04-28T14:34:51Z</time></trkpt><trkpt lat="28.781067887049417" lon="-10.786103408756519"><ele>56.0</ele><time>2026-04-28T14:34:52Z</time></trkpt><trkpt lat="28.781001544035746" lon="-10.786078153564585"><ele>56.00000000000001</ele><time>2026-04-28T14:34:53Z</time></trkpt><trkpt lat="28.78092596069919" lon="-10.786036598123658"><ele>56.0</ele><time>2026-04-28T14:34:54Z</time></trkpt><trkpt lat="28.78085256626396" lon="-10.786032846650853"><ele>55.75</ele><time>2026-04-28T14:34:55Z</time></trkpt><trkpt lat="28.78074928463293" lon="-10.786065367670068"><ele>55.5</ele><time>2026-04-28T14:34:56Z</time></trkpt><trkpt lat="28.780601557623996" lon="-10.786095256182106"><ele>55.25</ele><time>2026-04-28T14:34:57Z</time></trkpt><trkpt lat="28.78043734090313" lon="-10.786132117899943"><ele>55.0</ele><time>2026-04-28T14:34:58Z</time></trkpt><trkpt lat="28.780305847450062" lon="-10.786151411358576"><ele>54.75</ele><time>2026-04-28T14:34:59Z</time></trkpt><trkpt lat="28.780172023596037" lon="-10.78616692752064"><ele>54.5</ele><time>2026-04-28T14:35:00Z</time></trkpt><trkpt lat="28.780031445613602" lon="-10.78618761804779"><ele>54.25</ele><time>2026-04-28T14:35:01Z</time></trkpt><trkpt lat="28.779887718796367" lon="-10.786214446923173"><ele>54.0</ele><time>2026-04-28T14:35:02Z</time></trkpt><trkpt lat="28.779746733753054" lon="-10.786251985183185"><ele>54.0</ele><time>2026-04-28T14:35:03Z</time></trkpt><trkpt lat="28.779613673969816" lon="-10.786294156058094"><ele>54.0</ele><time>2026-04-28T14:35:04Z</time></trkpt><trkpt lat="28.779514419968464" lon="-10.786327693573867"><ele>54.0</ele><time>2026-04-28T14:35:05Z</time></trkpt><trkpt lat="28.77942463361131" lon="-10.786371892814447"><ele>54.0</ele><time>2026-04-28T14:35:06Z</time></trkpt><trkpt lat="28.779324046526117" lon="-10.786423753244183"><ele>54.75</ele><time>2026-04-28T14:35:07Z</time></trkpt><trkpt lat="28.77920541072889" lon="-10.786465628217242"><ele>55.5</ele><time>2026-04-28T14:35:08Z</time></trkpt><trkpt lat="28.779092891249867" lon="-10.786502387032877"><ele>56.25</ele><time>2026-04-28T14:35:09Z</time></trkpt><trkpt lat="28.77898094507744" lon="-10.78652773773183"><ele>57.0</ele><time>2026-04-28T14:35:10Z</time></trkpt><trkpt lat="28.778873768542777" lon="-10.78655058885807"><ele>57.0</ele><time>2026-04-28T14:35:11Z</time></trkpt><trkpt lat="28.778802030965238" lon="-10.786550646149648"><ele>56.99999999999999</ele><time>2026-04-28T14:35:12Z</time></trkpt><trkpt lat="28.778734163594187" lon="-10.78653721094353"><ele>57.0</ele><time>2026-04-28T14:35:13Z</time></trkpt><trkpt lat="28.778651484483852" lon="-10.786526394484268"><ele>57.0</ele><time>2026-04-28T14:35:14Z</time></trkpt><trkpt lat="28.77858504506204" lon="-10.786541107716188"><ele>56.99999999999999</ele><time>2026-04-28T14:35:15Z</time></trkpt><trkpt lat="28.778519916343846" lon="-10.78655487432617"><ele>57.0</ele><time>2026-04-28T14:35:16Z</time></trkpt><trkpt lat="28.778441432534347" lon="-10.786532798245744"><ele>57.0</ele><time>2026-04-28T14:35:17Z</time></trkpt><trkpt lat="28.778352710085485" lon="-10.786519066369658"><ele>57.0</ele><time>2026-04-28T14:35:18Z</time></trkpt><trkpt lat="28.778277126198244" lon="-10.786561285465652"><ele>57.0</ele><time>2026-04-28T14:35:19Z</time></trkpt><trkpt lat="28.778182851798785" lon="-10.786607335286536"><ele>57.0</ele><time>2026-04-28T14:35:20Z</time></trkpt><trkpt lat="28.778054470558065" lon="-10.786671664595897"><ele>57.0</ele><time>2026-04-28T14:35:21Z</time></trkpt><trkpt lat="28.77791396931449" lon="-10.786739171786502"><ele>57.0</ele><time>2026-04-28T14:35:22Z</time></trkpt><trkpt lat="28.777761603688813" lon="-10.786807471971336"><ele>57.0</ele><time>2026-04-28T14:35:23Z</time></trkpt><trkpt lat="28.777630981316126" lon="-10.786865522069698"><ele>57.0</ele><time>2026-04-28T14:35:24Z</time></trkpt><trkpt lat="28.77752481756236" lon="-10.78691293503185"><ele>57.0</ele><time>2026-04-28T14:35:25Z</time></trkpt><trkpt lat="28.777411513294926" lon="-10.786948777902822"><ele>58.33333333333333</ele><time>2026-04-28T14:35:26Z</time></trkpt><trkpt lat="28.77727035778486" lon="-10.786986231838084"><ele>59.666666666666664</ele><time>2026-04-28T14:35:27Z</time></trkpt><trkpt lat="28.777132937419" lon="-10.78704233664861"><ele>61.0</ele><time>2026-04-28T14:35:28Z</time></trkpt><trkpt lat="28.77697651951165" lon="-10.78713014241781"><ele>61.33333333333333</ele><time>2026-04-28T14:35:29Z</time></trkpt><trkpt lat="28.77680999365676" lon="-10.787217509645279"><ele>61.66666666666667</ele><time>2026-04-28T14:35:30Z</time></trkpt><trkpt lat="28.776625622982667" lon="-10.787286528397585"><ele>62.0</ele><time>2026-04-28T14:35:31Z</time></trkpt><trkpt lat="28.776428045006487" lon="-10.787354600000521"><ele>62.0</ele><time>2026-04-28T14:35:32Z</time></trkpt><trkpt lat="28.77625599035565" lon="-10.78741686560665"><ele>62.0</ele><time>2026-04-28T14:35:33Z</time></trkpt><trkpt lat="28.776098510128783" lon="-10.787479154093052"><ele>62.0</ele><time>2026-04-28T14:35:34Z</time></trkpt><trkpt lat="28.775961465523398" lon="-10.7875534946266"><ele>62.0</ele><time>2026-04-28T14:35:35Z</time></trkpt><trkpt lat="28.775813730568135" lon="-10.787651929340097"><ele>62.0</ele><time>2026-04-28T14:35:36Z</time></trkpt><trkpt lat="28.77567111132863" lon="-10.78775731546123"><ele>62.0</ele><time>2026-04-28T14:35:37Z</time></trkpt><trkpt lat="28.775540088061884" lon="-10.78787506968772"><ele>61.5</ele><time>2026-04-28T14:35:38Z</time></trkpt><trkpt lat="28.775436745744457" lon="-10.78798171338829"><ele>61.0</ele><time>2026-04-28T14:35:39Z</time></trkpt><trkpt lat="28.77535448371816" lon="-10.78807882531704"><ele>60.5</ele><time>2026-04-28T14:35:40Z</time></trkpt><trkpt lat="28.775298945435978" lon="-10.788171466590482"><ele>60.0</ele><time>2026-04-28T14:35:41Z</time></trkpt><trkpt lat="28.775259183922138" lon="-10.788274135928004"><ele>60.0</ele><time>2026-04-28T14:35:42Z</time></trkpt><trkpt lat="28.775215458741823" lon="-10.788404055800612"><ele>60.0</ele><time>2026-04-28T14:35:43Z</time></trkpt><trkpt lat="28.77516271542548" lon="-10.788549877989315"><ele>60.0</ele><time>2026-04-28T14:35:44Z</time></trkpt><trkpt lat="28.77511237447629" lon="-10.788714284375134"><ele>60.0</ele><time>2026-04-28T14:35:45Z</time></trkpt><trkpt lat="28.77506740593206" lon="-10.788909381868578"><ele>60.0</ele><time>2026-04-28T14:35:46Z</time></trkpt><trkpt lat="28.77503592250462" lon="-10.789095595341449"><ele>60.0</ele><time>2026-04-28T14:35:47Z</time></trkpt><trkpt lat="28.775010605035632" lon="-10.789251786534676"><ele>60.0</ele><time>2026-04-28T14:35:48Z</time></trkpt><trkpt lat="28.77499561102106" lon="-10.789386295664407"><ele>60.0</ele><time>2026-04-28T14:35:49Z</time></trkpt><trkpt lat="28.77497337231361" lon="-10.789508071162215"><ele>59.833333333333336</ele><time>2026-04-28T14:35:50Z</time></trkpt><trkpt lat="28.77495642838806" lon="-10.789608742791682"><ele>59.66666666666667</ele><time>2026-04-28T14:35:51Z</time></trkpt><trkpt lat="28.77493826334154" lon="-10.789693954769545"><ele>59.5</ele><time>2026-04-28T14:35:52Z</time></trkpt><trkpt lat="28.774916123285866" lon="-10.789775148943715"><ele>59.333333333333336</ele><time>2026-04-28T14:35:53Z</time></trkpt><trkpt lat="28.77487021803465" lon="-10.789873760785559"><ele>59.16666666666667</ele><time>2026-04-28T14:35:54Z</time></trkpt><trkpt lat="28.774817935949223" lon="-10.789944979875074"><ele>59.0</ele><time>2026-04-28T14:35:55Z</time></trkpt><trkpt lat="28.7747885354021" lon="-10.790019484648584"><ele>59.0</ele><time>2026-04-28T14:35:56Z</time></trkpt><trkpt lat="28.774759051606857" lon="-10.790133972073924"><ele>59.0</ele><time>2026-04-28T14:35:57Z</time></trkpt><trkpt lat="28.774708712729456" lon="-10.790282807790419"><ele>59.0</ele><time>2026-04-28T14:35:58Z</time></trkpt><trkpt lat="28.774634419658607" lon="-10.790428177675148"><ele>59.0</ele><time>2026-04-28T14:35:59Z</time></trkpt><trkpt lat="28.774572011143306" lon="-10.7905548582984"><ele>58.75</ele><time>2026-04-28T14:36:00Z</time></trkpt><trkpt lat="28.774536577145895" lon="-10.79065237262665"><ele>58.5</ele><time>2026-04-28T14:36:01Z</time></trkpt><trkpt lat="28.774523438885403" lon="-10.790766233772604"><ele>58.25</ele><time>2026-04-28T14:36:02Z</time></trkpt><trkpt lat="28.77452564928166" lon="-10.79090986797704"><ele>58.0</ele><time>2026-04-28T14:36:03Z</time></trkpt><trkpt lat="28.774526101741433" lon="-10.791063831782113"><ele>58.49999999999999</ele><time>2026-04-28T14:36:04Z</time></trkpt><trkpt lat="28.774533764641422" lon="-10.791191968911306"><ele>59.0</ele><time>2026-04-28T14:36:05Z</time></trkpt><trkpt lat="28.77454408277984" lon="-10.791292153087692"><ele>59.5</ele><time>2026-04-28T14:36:06Z</time></trkpt><trkpt lat="28.774564614793253" lon="-10.791369946060861"><ele>60.0</ele><time>2026-04-28T14:36:07Z</time></trkpt><trkpt lat="28.77457897899159" lon="-10.791441165735241"><ele>60.49999999999999</ele><time>2026-04-28T14:36:08Z</time></trkpt><trkpt lat="28.774602515948608" lon="-10.791512480099374"><ele>61.0</ele><time>2026-04-28T14:36:09Z</time></trkpt><trkpt lat="28.774649806220825" lon="-10.791604083973255"><ele>61.0</ele><time>2026-04-28T14:36:10Z</time></trkpt><trkpt lat="28.77471150855404" lon="-10.791701599122115"><ele>61.0</ele><time>2026-04-28T14:36:11Z</time></trkpt><trkpt lat="28.7747754780006" lon="-10.791811885143701"><ele>61.0</ele><time>2026-04-28T14:36:12Z</time></trkpt><trkpt lat="28.77481837901581" lon="-10.791932444266411"><ele>61.0</ele><time>2026-04-28T14:36:13Z</time></trkpt><trkpt lat="28.77489676089258" lon="-10.792073671865817"><ele>61.666666666666664</ele><time>2026-04-28T14:36:14Z</time></trkpt><trkpt lat="28.774976039065407" lon="-10.792208897219217"><ele>62.33333333333333</ele><time>2026-04-28T14:36:15Z</time></trkpt><trkpt lat="28.77505756960648" lon="-10.792364010676804"><ele>63.0</ele><time>2026-04-28T14:36:16Z</time></trkpt><trkpt lat="28.775136447232075" lon="-10.792535661384916"><ele>62.0</ele><time>2026-04-28T14:36:17Z</time></trkpt><trkpt lat="28.775199730010538" lon="-10.792686578991301"><ele>61.0</ele><time>2026-04-28T14:36:18Z</time></trkpt><trkpt lat="28.775260773508272" lon="-10.792816604223045"><ele>60.0</ele><time>2026-04-28T14:36:19Z</time></trkpt><trkpt lat="28.775334067155875" lon="-10.792935419366572"><ele>59.0</ele><time>2026-04-28T14:36:20Z</time></trkpt><trkpt lat="28.775416419401758" lon="-10.793081617351257"><ele>59.0</ele><time>2026-04-28T14:36:21Z</time></trkpt><trkpt lat="28.775492736504912" lon="-10.793216331098755"><ele>59.0</ele><time>2026-04-28T14:36:22Z</time></trkpt><trkpt lat="28.77556757944468" lon="-10.793351669596362"><ele>59.0</ele><time>2026-04-28T14:36:23Z</time></trkpt><trkpt lat="28.775654009471445" lon="-10.793486883734115"><ele>59.0</ele><time>2026-04-28T14:36:24Z</time></trkpt><trkpt lat="28.77572804752262" lon="-10.793607601192154"><ele>59.50000000000001</ele><time>2026-04-28T14:36:25Z</time></trkpt><trkpt lat="28.77577649296513" lon="-10.793714912366363"><ele>60.0</ele><time>2026-04-28T14:36:26Z</time></trkpt><trkpt lat="28.775813382906705" lon="-10.793803376515742"><ele>60.5</ele><time>2026-04-28T14:36:27Z</time></trkpt><trkpt lat="28.77586797486259" lon="-10.793868577491065"><ele>61.0</ele><time>2026-04-28T14:36:28Z</time></trkpt><trkpt lat="28.77593431057971" lon="-10.793939187010864"><ele>61.50000000000001</ele><time>2026-04-28T14:36:29Z</time></trkpt><trkpt lat="28.775999803157603" lon="-10.793999722024246"><ele>62.0</ele><time>2026-04-28T14:36:30Z</time></trkpt><trkpt lat="28.776077691166435" lon="-10.794061926623144"><ele>62.0</ele><time>2026-04-28T14:36:31Z</time></trkpt><trkpt lat="28.77617694077656" lon="-10.79413627685813"><ele>62.0</ele><time>2026-04-28T14:36:32Z</time></trkpt><trkpt lat="28.776278984840324" lon="-10.794213787161885"><ele>62.0</ele><time>2026-04-28T14:36:33Z</time></trkpt><trkpt lat="28.77639546068849" lon="-10.794301394776387"><ele>62.0</ele><time>2026-04-28T14:36:34Z</time></trkpt><trkpt lat="28.776490282554725" lon="-10.794380049606689"><ele>62.25</ele><time>2026-04-28T14:36:35Z</time></trkpt><trkpt lat="28.77657907180608" lon="-10.794470616055081"><ele>62.5</ele><time>2026-04-28T14:36:36Z</time></trkpt><trkpt lat="28.77665343875877" lon="-10.794567029524654"><ele>62.75</ele><time>2026-04-28T14:36:37Z</time></trkpt><trkpt lat="28.776735218412075" lon="-10.794667401953687"><ele>63.0</ele><time>2026-04-28T14:36:38Z</time></trkpt><trkpt lat="28.776826411311397" lon="-10.79479499040232"><ele>63.0</ele><time>2026-04-28T14:36:39Z</time></trkpt><trkpt lat="28.77692558686957" lon="-10.794925716000721"><ele>63.0</ele><time>2026-04-28T14:36:40Z</time></trkpt><trkpt lat="28.77703578365106" lon="-10.795064038897053"><ele>63.0</ele><time>2026-04-28T14:36:41Z</time></trkpt><trkpt lat="28.777149576674528" lon="-10.795205706157468"><ele>62.66666666666667</ele><time>2026-04-28T14:36:42Z</time></trkpt><trkpt lat="28.77726536616653" lon="-10.79534803847885"><ele>62.333333333333336</ele><time>2026-04-28T14:36:43Z</time></trkpt><trkpt lat="28.777382873504227" lon="-10.795504956461441"><ele>62.0</ele><time>2026-04-28T14:36:44Z</time></trkpt><trkpt lat="28.77750027880777" lon="-10.795672865712449"><ele>62.0</ele><time>2026-04-28T14:36:45Z</time></trkpt><trkpt lat="28.7776138737001" lon="-10.795839160303947"><ele>62.0</ele><time>2026-04-28T14:36:46Z</time></trkpt><trkpt lat="28.77772917337501" lon="-10.796021303365153"><ele>62.0</ele><time>2026-04-28T14:36:47Z</time></trkpt><trkpt lat="28.777844723232164" lon="-10.796207476916972"><ele>62.333333333333336</ele><time>2026-04-28T14:36:48Z</time></trkpt><trkpt lat="28.777952815556837" lon="-10.79638436984099"><ele>62.66666666666667</ele><time>2026-04-28T14:36:49Z</time></trkpt><trkpt lat="28.77804753120091" lon="-10.796561863594045"><ele>63.0</ele><time>2026-04-28T14:36:50Z</time></trkpt><trkpt lat="28.778135831564466" lon="-10.796741020533311"><ele>62.66666666666667</ele><time>2026-04-28T14:36:51Z</time></trkpt><trkpt lat="28.7782287925446" lon="-10.796907398682594"><ele>62.333333333333336</ele><time>2026-04-28T14:36:52Z</time></trkpt><trkpt lat="28.77831899456118" lon="-10.797048659680154"><ele>62.0</ele><time>2026-04-28T14:36:53Z</time></trkpt><trkpt lat="28.77840024442569" lon="-10.797191309973657"><ele>62.0</ele><time>2026-04-28T14:36:54Z</time></trkpt><trkpt lat="28.77846588602907" lon="-10.79732809658749"><ele>62.0</ele><time>2026-04-28T14:36:55Z</time></trkpt><trkpt lat="28.778513234049584" lon="-10.797441829372312"><ele>62.0</ele><time>2026-04-28T14:36:56Z</time></trkpt><trkpt lat="28.778551898437367" lon="-10.79754425462124"><ele>62.0</ele><time>2026-04-28T14:36:57Z</time></trkpt><trkpt lat="28.77859782753612" lon="-10.7976780698662"><ele>64.0</ele><time>2026-04-28T14:36:58Z</time></trkpt><trkpt lat="28.778644737540432" lon="-10.797827407520481"><ele>66.0</ele><time>2026-04-28T14:36:59Z</time></trkpt><trkpt lat="28.778695416331043" lon="-10.797994991117585"><ele>68.0</ele><time>2026-04-28T14:37:00Z</time></trkpt><trkpt lat="28.77875051879307" lon="-10.798182076703245"><ele>68.0</ele><time>2026-04-28T14:37:01Z</time></trkpt><trkpt lat="28.77880827482694" lon="-10.79838080660146"><ele>68.0</ele><time>2026-04-28T14:37:02Z</time></trkpt><trkpt lat="28.778849998771292" lon="-10.798539060061616"><ele>68.0</ele><time>2026-04-28T14:37:03Z</time></trkpt><trkpt lat="28.778898264085313" lon="-10.79868182139683"><ele>68.0</ele><time>2026-04-28T14:37:04Z</time></trkpt><trkpt lat="28.778945514164256" lon="-10.7988070960468"><ele>68.0</ele><time>2026-04-28T14:37:05Z</time></trkpt><trkpt lat="28.778978664563628" lon="-10.798910823471598"><ele>68.0</ele><time>2026-04-28T14:37:06Z</time></trkpt><trkpt lat="28.778997769258574" lon="-10.798994341950563"><ele>68.0</ele><time>2026-04-28T14:37:07Z</time></trkpt><trkpt lat="28.77899519333392" lon="-10.799124572892053"><ele>68.0</ele><time>2026-04-28T14:37:09Z</time></trkpt><trkpt lat="28.778963182474453" lon="-10.799187697874734"><ele>67.99999999999999</ele><time>2026-04-28T14:37:12Z</time></trkpt><trkpt lat="28.7789933236358" lon="-10.799263863808083"><ele>68.0</ele><time>2026-04-28T14:37:15Z</time></trkpt><trkpt lat="28.779060845565954" lon="-10.799300277514007"><ele>68.0</ele><time>2026-04-28T14:37:18Z</time></trkpt><trkpt lat="28.779096609741007" lon="-10.799368807461684"><ele>68.0</ele><time>2026-04-28T14:37:23Z</time></trkpt><trkpt lat="28.77915911542465" lon="-10.799393467070352"><ele>68.0</ele><time>2026-04-28T14:38:25Z</time></trkpt><trkpt lat="28.77918848249688" lon="-10.799317839207509"><ele>67.99999999999999</ele><time>2026-04-28T14:38:28Z</time></trkpt><trkpt lat="28.779130420896788" lon="-10.799279751830248"><ele>68.0</ele><time>2026-04-28T14:39:24Z</time></trkpt><trkpt lat="28.779060374374684" lon="-10.799220814771402"><ele>68.0</ele><time>2026-04-28T14:39:26Z</time></trkpt><trkpt lat="28.779003271686506" lon="-10.79917536756976"><ele>68.0</ele><time>2026-04-28T14:39:29Z</time></trkpt><trkpt lat="28.778928167984006" lon="-10.799250384194655"><ele>68.0</ele><time>2026-04-28T14:50:14Z</time></trkpt><trkpt lat="28.778882125465564" lon="-10.799313875408474"><ele>68.0</ele><time>2026-04-28T14:50:15Z</time></trkpt><trkpt lat="28.77884182979343" lon="-10.799397383938867"><ele>68.0</ele><time>2026-04-28T14:50:16Z</time></trkpt><trkpt lat="28.77879698214939" lon="-10.79949497105772"><ele>68.0</ele><time>2026-04-28T14:50:17Z</time></trkpt><trkpt lat="28.778743863848653" lon="-10.799604674462612"><ele>68.0</ele><time>2026-04-28T14:50:18Z</time></trkpt><trkpt lat="28.778695325196065" lon="-10.799728694040567"><ele>68.0</ele><time>2026-04-28T14:50:19Z</time></trkpt><trkpt lat="28.778640055841255" lon="-10.799869721232929"><ele>68.0</ele><time>2026-04-28T14:50:20Z</time></trkpt><trkpt lat="28.778597476053577" lon="-10.79999787079205"><ele>68.0</ele><time>2026-04-28T14:50:21Z</time></trkpt><trkpt lat="28.77857159377613" lon="-10.800094624755214"><ele>68.0</ele><time>2026-04-28T14:50:22Z</time></trkpt><trkpt lat="28.778548737182813" lon="-10.800198490350134"><ele>68.0</ele><time>2026-04-28T14:50:23Z</time></trkpt><trkpt lat="28.7785189827092" lon="-10.800306180206285"><ele>68.0</ele><time>2026-04-28T14:50:24Z</time></trkpt><trkpt lat="28.778482337348986" lon="-10.800408560123667"><ele>68.0</ele><time>2026-04-28T14:50:25Z</time></trkpt><trkpt lat="28.77842357092665" lon="-10.800513778948586"><ele>68.0</ele><time>2026-04-28T14:50:26Z</time></trkpt><trkpt lat="28.778349059250072" lon="-10.800615548047158"><ele>68.0</ele><time>2026-04-28T14:50:27Z</time></trkpt><trkpt lat="28.77826066624302" lon="-10.800707207098405"><ele>68.0</ele><time>2026-04-28T14:50:28Z</time></trkpt><trkpt lat="28.7781647981402" lon="-10.800787979541916"><ele>68.0</ele><time>2026-04-28T14:50:29Z</time></trkpt><trkpt lat="28.77806477849526" lon="-10.80085164987335"><ele>68.0</ele><time>2026-04-28T14:50:30Z</time></trkpt><trkpt lat="28.77796084677471" lon="-10.800928753704437"><ele>67.75</ele><time>2026-04-28T14:50:31Z</time></trkpt><trkpt lat="28.777847352194406" lon="-10.801035649404715"><ele>67.5</ele><time>2026-04-28T14:50:32Z</time></trkpt><trkpt lat="28.777747815593838" lon="-10.801153307239469"><ele>67.25</ele><time>2026-04-28T14:50:33Z</time></trkpt><trkpt lat="28.777666873414258" lon="-10.80126404338417"><ele>67.0</ele><time>2026-04-28T14:50:34Z</time></trkpt><trkpt lat="28.777594936408242" lon="-10.801364681197553"><ele>67.8</ele><time>2026-04-28T14:50:35Z</time></trkpt><trkpt lat="28.777528564837777" lon="-10.801460079393134"><ele>68.6</ele><time>2026-04-28T14:50:36Z</time></trkpt><trkpt lat="28.77747147443409" lon="-10.801543551062597"><ele>69.39999999999999</ele><time>2026-04-28T14:50:37Z</time></trkpt><trkpt lat="28.777425559789716" lon="-10.801618211552984"><ele>70.2</ele><time>2026-04-28T14:50:38Z</time></trkpt><trkpt lat="28.777386533465904" lon="-10.801683726471248"><ele>71.0</ele><time>2026-04-28T14:50:39Z</time></trkpt><trkpt lat="28.777376021603672" lon="-10.801828048425863"><ele>70.0</ele><time>2026-04-28T14:50:41Z</time></trkpt><trkpt lat="28.77740843307626" lon="-10.801926832193622"><ele>69.0</ele><time>2026-04-28T14:50:42Z</time></trkpt><trkpt lat="28.777438429516653" lon="-10.802024310485768"><ele>68.0</ele><time>2026-04-28T14:50:43Z</time></trkpt><trkpt lat="28.777462250577088" lon="-10.802115959883439"><ele>67.0</ele><time>2026-04-28T14:50:44Z</time></trkpt><trkpt lat="28.777466799270684" lon="-10.802197458352591"><ele>66.0</ele><time>2026-04-28T14:50:45Z</time></trkpt><trkpt lat="28.77745820478612" lon="-10.802274401453055"><ele>65.0</ele><time>2026-04-28T14:50:46Z</time></trkpt><trkpt lat="28.777409509431713" lon="-10.802383243824144"><ele>65.0</ele><time>2026-04-28T14:50:48Z</time></trkpt><trkpt lat="28.777357600752772" lon="-10.802429570507403"><ele>65.0</ele><time>2026-04-28T14:50:49Z</time></trkpt><trkpt lat="28.777231307717912" lon="-10.80246542219242"><ele>65.0</ele><time>2026-04-28T14:50:51Z</time></trkpt><trkpt lat="28.777139371255124" lon="-10.80248769665885"><ele>65.0</ele><time>2026-04-28T14:50:52Z</time></trkpt><trkpt lat="28.777021092620824" lon="-10.80250052213197"><ele>65.0</ele><time>2026-04-28T14:50:53Z</time></trkpt><trkpt lat="28.776896056849065" lon="-10.8025001581987"><ele>64.75</ele><time>2026-04-28T14:50:54Z</time></trkpt><trkpt lat="28.776756594141546" lon="-10.802494321623378"><ele>64.5</ele><time>2026-04-28T14:50:55Z</time></trkpt><trkpt lat="28.776628523693873" lon="-10.80247125666461"><ele>64.25</ele><time>2026-04-28T14:50:56Z</time></trkpt><trkpt lat="28.776506688272985" lon="-10.802445140099955"><ele>64.0</ele><time>2026-04-28T14:50:57Z</time></trkpt><trkpt lat="28.776371763709164" lon="-10.80241576642726"><ele>64.0</ele><time>2026-04-28T14:50:58Z</time></trkpt><trkpt lat="28.7762428893014" lon="-10.80238688694768"><ele>64.0</ele><time>2026-04-28T14:50:59Z</time></trkpt><trkpt lat="28.776126501766257" lon="-10.802359859997443"><ele>64.0</ele><time>2026-04-28T14:51:00Z</time></trkpt><trkpt lat="28.776015032383533" lon="-10.802334925052882"><ele>64.0</ele><time>2026-04-28T14:51:01Z</time></trkpt><trkpt lat="28.77592017607434" lon="-10.802316211255377"><ele>64.5</ele><time>2026-04-28T14:51:02Z</time></trkpt><trkpt lat="28.775792184329408" lon="-10.802289827334212"><ele>65.0</ele><time>2026-04-28T14:51:03Z</time></trkpt><trkpt lat="28.77566269727177" lon="-10.802254249772561"><ele>65.5</ele><time>2026-04-28T14:51:04Z</time></trkpt><trkpt lat="28.775539984088283" lon="-10.802223821829658"><ele>66.0</ele><time>2026-04-28T14:51:05Z</time></trkpt><trkpt lat="28.77541640301666" lon="-10.802204226874458"><ele>66.0</ele><time>2026-04-28T14:51:06Z</time></trkpt><trkpt lat="28.775282879226506" lon="-10.80218342072436"><ele>66.0</ele><time>2026-04-28T14:51:07Z</time></trkpt><trkpt lat="28.775150764311046" lon="-10.802151287818965"><ele>66.0</ele><time>2026-04-28T14:51:08Z</time></trkpt><trkpt lat="28.77502116068175" lon="-10.802118901352584"><ele>66.0</ele><time>2026-04-28T14:51:09Z</time></trkpt><trkpt lat="28.774888064931865" lon="-10.8020904863617"><ele>66.25</ele><time>2026-04-28T14:51:10Z</time></trkpt><trkpt lat="28.774753061884436" lon="-10.802057407601003"><ele>66.5</ele><time>2026-04-28T14:51:11Z</time></trkpt><trkpt lat="28.774616979474327" lon="-10.802025794296235"><ele>66.75</ele><time>2026-04-28T14:51:12Z</time></trkpt><trkpt lat="28.774495508586256" lon="-10.801997157097874"><ele>67.0</ele><time>2026-04-28T14:51:13Z</time></trkpt><trkpt lat="28.77437153278108" lon="-10.80197136647646"><ele>67.25</ele><time>2026-04-28T14:51:14Z</time></trkpt><trkpt lat="28.774244289562485" lon="-10.801943451022646"><ele>67.5</ele><time>2026-04-28T14:51:15Z</time></trkpt><trkpt lat="28.7741282197405" lon="-10.801912594946277"><ele>67.75</ele><time>2026-04-28T14:51:16Z</time></trkpt><trkpt lat="28.774018410747946" lon="-10.801873756442449"><ele>68.0</ele><time>2026-04-28T14:51:17Z</time></trkpt><trkpt lat="28.773905639007417" lon="-10.801821061804663"><ele>68.0</ele><time>2026-04-28T14:51:18Z</time></trkpt><trkpt lat="28.773787219295464" lon="-10.801746516558952"><ele>68.0</ele><time>2026-04-28T14:51:19Z</time></trkpt><trkpt lat="28.773664151149095" lon="-10.801666172803108"><ele>68.0</ele><time>2026-04-28T14:51:20Z</time></trkpt><trkpt lat="28.77353785865238" lon="-10.801591341210923"><ele>68.0</ele><time>2026-04-28T14:51:21Z</time></trkpt><trkpt lat="28.77340647049076" lon="-10.801521668033786"><ele>68.33333333333334</ele><time>2026-04-28T14:51:22Z</time></trkpt><trkpt lat="28.773266998677858" lon="-10.801453010863959"><ele>68.66666666666667</ele><time>2026-04-28T14:51:23Z</time></trkpt><trkpt lat="28.77312808217367" lon="-10.801380194410667"><ele>69.0</ele><time>2026-04-28T14:51:24Z</time></trkpt><trkpt lat="28.772989318139185" lon="-10.801304089927536"><ele>69.0</ele><time>2026-04-28T14:51:25Z</time></trkpt><trkpt lat="28.77284896958548" lon="-10.801222340777242"><ele>69.0</ele><time>2026-04-28T14:51:26Z</time></trkpt><trkpt lat="28.772711393134202" lon="-10.80114142174069"><ele>69.0</ele><time>2026-04-28T14:51:27Z</time></trkpt><trkpt lat="28.77257372616913" lon="-10.801050434683031"><ele>68.33333333333333</ele><time>2026-04-28T14:51:28Z</time></trkpt><trkpt lat="28.77243458654935" lon="-10.800961037879903"><ele>67.66666666666666</ele><time>2026-04-28T14:51:29Z</time></trkpt><trkpt lat="28.7722936336953" lon="-10.800872115432808"><ele>67.0</ele><time>2026-04-28T14:51:30Z</time></trkpt><trkpt lat="28.772162574300996" lon="-10.800785681667966"><ele>67.0</ele><time>2026-04-28T14:51:31Z</time></trkpt><trkpt lat="28.77203425075061" lon="-10.800687475898958"><ele>67.0</ele><time>2026-04-28T14:51:32Z</time></trkpt><trkpt lat="28.77190443485274" lon="-10.800583054797773"><ele>67.0</ele><time>2026-04-28T14:51:33Z</time></trkpt><trkpt lat="28.77176707367636" lon="-10.800469387289555"><ele>66.66666666666666</ele><time>2026-04-28T14:51:34Z</time></trkpt><trkpt lat="28.771633065198692" lon="-10.800356826991445"><ele>66.33333333333333</ele><time>2026-04-28T14:51:35Z</time></trkpt><trkpt lat="28.77149022127129" lon="-10.800237958562255"><ele>66.0</ele><time>2026-04-28T14:51:36Z</time></trkpt><trkpt lat="28.771353142528174" lon="-10.800121103882201"><ele>66.33333333333333</ele><time>2026-04-28T14:51:37Z</time></trkpt><trkpt lat="28.771215288640942" lon="-10.80000354298247"><ele>66.66666666666666</ele><time>2026-04-28T14:51:38Z</time></trkpt><trkpt lat="28.771084570179664" lon="-10.7998918198295"><ele>67.0</ele><time>2026-04-28T14:51:39Z</time></trkpt><trkpt lat="28.77096825916667" lon="-10.799789754370774"><ele>67.0</ele><time>2026-04-28T14:51:40Z</time></trkpt><trkpt lat="28.77086050500192" lon="-10.79968942153807"><ele>67.0</ele><time>2026-04-28T14:51:41Z</time></trkpt><trkpt lat="28.77074374313709" lon="-10.799579467373205"><ele>67.0</ele><time>2026-04-28T14:51:42Z</time></trkpt><trkpt lat="28.770616164504315" lon="-10.799464555133797"><ele>67.0</ele><time>2026-04-28T14:51:43Z</time></trkpt><trkpt lat="28.770486415555744" lon="-10.799334263596462"><ele>67.0</ele><time>2026-04-28T14:51:44Z</time></trkpt><trkpt lat="28.770361473820934" lon="-10.79920530031557"><ele>67.0</ele><time>2026-04-28T14:51:45Z</time></trkpt><trkpt lat="28.77024594175857" lon="-10.799079071868345"><ele>67.75</ele><time>2026-04-28T14:51:46Z</time></trkpt><trkpt lat="28.77013704216481" lon="-10.798960867767198"><ele>68.5</ele><time>2026-04-28T14:51:47Z</time></trkpt><trkpt lat="28.770027537618034" lon="-10.798839807770436"><ele>69.25</ele><time>2026-04-28T14:51:48Z</time></trkpt><trkpt lat="28.769923668741672" lon="-10.798730394068775"><ele>70.0</ele><time>2026-04-28T14:51:49Z</time></trkpt><trkpt lat="28.76981342052115" lon="-10.798623365971562"><ele>70.0</ele><time>2026-04-28T14:51:50Z</time></trkpt><trkpt lat="28.769704009403736" lon="-10.798511907058892"><ele>70.0</ele><time>2026-04-28T14:51:51Z</time></trkpt><trkpt lat="28.7696098841241" lon="-10.798405385982695"><ele>70.0</ele><time>2026-04-28T14:51:52Z</time></trkpt><trkpt lat="28.76952963125481" lon="-10.798304141425008"><ele>70.0</ele><time>2026-04-28T14:51:53Z</time></trkpt><trkpt lat="28.7694726816296" lon="-10.798219671835241"><ele>70.0</ele><time>2026-04-28T14:51:54Z</time></trkpt><trkpt lat="28.76943062680939" lon="-10.798142907414563"><ele>70.0</ele><time>2026-04-28T14:51:55Z</time></trkpt><trkpt lat="28.76940067361784" lon="-10.798059506963801"><ele>70.0</ele><time>2026-04-28T14:51:56Z</time></trkpt><trkpt lat="28.76938439137639" lon="-10.797979130625393"><ele>70.0</ele><time>2026-04-28T14:51:57Z</time></trkpt><trkpt lat="28.769384881952234" lon="-10.797906214925328"><ele>70.0</ele><time>2026-04-28T14:51:58Z</time></trkpt><trkpt lat="28.769376969406977" lon="-10.797754771841026"><ele>70.0</ele><time>2026-04-28T14:52:00Z</time></trkpt><trkpt lat="28.769358019646653" lon="-10.797660199631224"><ele>70.16666666666666</ele><time>2026-04-28T14:52:01Z</time></trkpt><trkpt lat="28.769341785736632" lon="-10.797568284006886"><ele>70.33333333333333</ele><time>2026-04-28T14:52:02Z</time></trkpt><trkpt lat="28.76930795509585" lon="-10.797474082683236"><ele>70.5</ele><time>2026-04-28T14:52:03Z</time></trkpt><trkpt lat="28.769258387002314" lon="-10.797392053028801"><ele>70.66666666666667</ele><time>2026-04-28T14:52:04Z</time></trkpt><trkpt lat="28.769212613513325" lon="-10.797342270789171"><ele>70.83333333333334</ele><time>2026-04-28T14:52:05Z</time></trkpt><trkpt lat="28.76916634360603" lon="-10.79728326245717"><ele>71.0</ele><time>2026-04-28T14:52:06Z</time></trkpt><trkpt lat="28.769119096668277" lon="-10.797219924485038"><ele>71.0</ele><time>2026-04-28T14:52:07Z</time></trkpt><trkpt lat="28.769079277687805" lon="-10.797160005955757"><ele>71.0</ele><time>2026-04-28T14:52:08Z</time></trkpt><trkpt lat="28.769037492119725" lon="-10.797098230866194"><ele>71.0</ele><time>2026-04-28T14:52:09Z</time></trkpt><trkpt lat="28.768991835110484" lon="-10.797043457657436"><ele>71.0</ele><time>2026-04-28T14:52:10Z</time></trkpt><trkpt lat="28.76894071676839" lon="-10.79698538363855"><ele>71.0</ele><time>2026-04-28T14:52:11Z</time></trkpt><trkpt lat="28.76889319679872" lon="-10.796926748510547"><ele>71.0</ele><time>2026-04-28T14:52:12Z</time></trkpt><trkpt lat="28.768826240047485" lon="-10.796807679516501"><ele>71.42857142857143</ele><time>2026-04-28T14:52:14Z</time></trkpt><trkpt lat="28.768794231809135" lon="-10.796742869652137"><ele>71.85714285714285</ele><time>2026-04-28T14:52:15Z</time></trkpt><trkpt lat="28.768749934862964" lon="-10.79666293067818"><ele>72.28571428571428</ele><time>2026-04-28T14:52:17Z</time></trkpt><trkpt lat="28.768704410030328" lon="-10.79661278124802"><ele>72.71428571428571</ele><time>2026-04-28T14:52:20Z</time></trkpt><trkpt lat="28.7686756729901" lon="-10.796525719080554"><ele>73.14285714285714</ele><time>2026-04-28T14:52:35Z</time></trkpt><trkpt lat="28.768708535329402" lon="-10.796463015528449"><ele>73.57142857142857</ele><time>2026-04-28T14:52:37Z</time></trkpt><trkpt lat="28.768779348643466" lon="-10.796444989227044"><ele>74.0</ele><time>2026-04-28T14:52:39Z</time></trkpt><trkpt lat="28.768823299951165" lon="-10.796529565709774"><ele>74.0</ele><time>2026-04-28T14:52:42Z</time></trkpt><trkpt lat="28.768802465307225" lon="-10.7966356821069"><ele>74.0</ele><time>2026-04-28T14:52:45Z</time></trkpt><trkpt lat="28.768807910144353" lon="-10.79674399289093"><ele>74.0</ele><time>2026-04-28T14:52:47Z</time></trkpt><trkpt lat="28.768849359315038" lon="-10.79686271529214"><ele>74.0</ele><time>2026-04-28T14:52:49Z</time></trkpt><trkpt lat="28.768900566419692" lon="-10.796935248697688"><ele>74.0</ele><time>2026-04-28T14:52:50Z</time></trkpt><trkpt lat="28.76895770166729" lon="-10.797017386624386"><ele>73.5</ele><time>2026-04-28T14:52:51Z</time></trkpt><trkpt lat="28.769013506170882" lon="-10.797094012274588"><ele>73.0</ele><time>2026-04-28T14:52:52Z</time></trkpt><trkpt lat="28.769071256034508" lon="-10.797168036161082"><ele>72.5</ele><time>2026-04-28T14:52:53Z</time></trkpt><trkpt lat="28.769122935600418" lon="-10.797232830660564"><ele>72.0</ele><time>2026-04-28T14:52:54Z</time></trkpt><trkpt lat="28.769172166058052" lon="-10.797295908056421"><ele>71.5</ele><time>2026-04-28T14:52:55Z</time></trkpt><trkpt lat="28.76924624778706" lon="-10.797387934622746"><ele>71.0</ele><time>2026-04-28T14:52:57Z</time></trkpt><trkpt lat="28.76931413944688" lon="-10.797503209710747"><ele>71.0</ele><time>2026-04-28T14:52:59Z</time></trkpt><trkpt lat="28.76932544313879" lon="-10.797599171641007"><ele>71.0</ele><time>2026-04-28T14:53:02Z</time></trkpt><trkpt lat="28.76928167494768" lon="-10.79768228481039"><ele>71.0</ele><time>2026-04-28T14:53:04Z</time></trkpt><trkpt lat="28.76922428045487" lon="-10.79774981027469"><ele>71.0</ele><time>2026-04-28T14:53:06Z</time></trkpt><trkpt lat="28.769148839009542" lon="-10.797780128470452"><ele>71.0</ele><time>2026-04-28T14:53:08Z</time></trkpt><trkpt lat="28.769062053793775" lon="-10.797771902411412"><ele>71.0</ele><time>2026-04-28T14:53:10Z</time></trkpt><trkpt lat="28.76895922169431" lon="-10.797675056618052"><ele>71.0</ele><time>2026-04-28T14:53:12Z</time></trkpt><trkpt lat="28.76890111275907" lon="-10.797562501148072"><ele>71.0</ele><time>2026-04-28T14:53:14Z</time></trkpt><trkpt lat="28.768875057281374" lon="-10.79749309730629"><ele>71.0</ele><time>2026-04-28T14:53:15Z</time></trkpt><trkpt lat="28.768822040423505" lon="-10.797360821194397"><ele>71.0</ele><time>2026-04-28T14:53:17Z</time></trkpt><trkpt lat="28.768786619166704" lon="-10.797298647559144"><ele>71.0</ele><time>2026-04-28T14:53:18Z</time></trkpt><trkpt lat="28.768745789125436" lon="-10.797235031687848"><ele>71.0</ele><time>2026-04-28T14:53:19Z</time></trkpt><trkpt lat="28.768697772602085" lon="-10.797170850614867"><ele>71.0</ele><time>2026-04-28T14:53:20Z</time></trkpt><trkpt lat="28.768605178226334" lon="-10.797077647885994"><ele>71.0</ele><time>2026-04-28T14:53:22Z</time></trkpt><trkpt lat="28.768548413188714" lon="-10.797045725727237"><ele>71.0</ele><time>2026-04-28T14:53:23Z</time></trkpt><trkpt lat="28.76843353228228" lon="-10.797045385860688"><ele>71.0</ele><time>2026-04-28T14:53:25Z</time></trkpt><trkpt lat="28.768364308373883" lon="-10.797090656486251"><ele>71.0</ele><time>2026-04-28T14:53:26Z</time></trkpt><trkpt lat="28.768297408454764" lon="-10.797149167962907"><ele>71.0</ele><time>2026-04-28T14:53:27Z</time></trkpt><trkpt lat="28.768225953186676" lon="-10.797190508323515"><ele>71.0</ele><time>2026-04-28T14:53:28Z</time></trkpt><trkpt lat="28.768163120428827" lon="-10.797215272801223"><ele>71.0</ele><time>2026-04-28T14:53:29Z</time></trkpt><trkpt lat="28.76811050161578" lon="-10.797258589158366"><ele>71.0</ele><time>2026-04-28T14:53:30Z</time></trkpt><trkpt lat="28.76806393888572" lon="-10.797322092745071"><ele>71.0</ele><time>2026-04-28T14:53:31Z</time></trkpt><trkpt lat="28.7680146446215" lon="-10.797414536031482"><ele>71.0</ele><time>2026-04-28T14:53:32Z</time></trkpt><trkpt lat="28.767975783165994" lon="-10.797508280806868"><ele>71.0</ele><time>2026-04-28T14:53:33Z</time></trkpt><trkpt lat="28.767928963184218" lon="-10.797631546558772"><ele>71.0</ele><time>2026-04-28T14:53:34Z</time></trkpt><trkpt lat="28.7678707063326" lon="-10.797762282629916"><ele>71.0</ele><time>2026-04-28T14:53:35Z</time></trkpt><trkpt lat="28.767802719196574" lon="-10.797894761683764"><ele>71.0</ele><time>2026-04-28T14:53:36Z</time></trkpt><trkpt lat="28.767725833593687" lon="-10.798010977153695"><ele>71.8</ele><time>2026-04-28T14:53:37Z</time></trkpt><trkpt lat="28.76764217886325" lon="-10.798105080723836"><ele>72.6</ele><time>2026-04-28T14:53:38Z</time></trkpt><trkpt lat="28.767565171851654" lon="-10.798176412398329"><ele>73.4</ele><time>2026-04-28T14:53:39Z</time></trkpt><trkpt lat="28.767488866090268" lon="-10.798251810849907"><ele>74.2</ele><time>2026-04-28T14:53:40Z</time></trkpt><trkpt lat="28.76739074610719" lon="-10.798331450856882"><ele>75.0</ele><time>2026-04-28T14:53:41Z</time></trkpt><trkpt lat="28.767280010098286" lon="-10.798392159141132"><ele>75.0</ele><time>2026-04-28T14:53:42Z</time></trkpt><trkpt lat="28.767190272450094" lon="-10.798439479569577"><ele>75.0</ele><time>2026-04-28T14:53:43Z</time></trkpt><trkpt lat="28.76712950107561" lon="-10.798498864265921"><ele>75.0</ele><time>2026-04-28T14:53:44Z</time></trkpt><trkpt lat="28.767107665658642" lon="-10.798578362003314"><ele>75.0</ele><time>2026-04-28T14:53:45Z</time></trkpt><trkpt lat="28.76709782043181" lon="-10.798661042863687"><ele>75.0</ele><time>2026-04-28T14:53:46Z</time></trkpt><trkpt lat="28.767088460249955" lon="-10.798732073871355"><ele>75.0</ele><time>2026-04-28T14:53:47Z</time></trkpt><trkpt lat="28.7671129154385" lon="-10.798822421638352"><ele>75.16666666666667</ele><time>2026-04-28T14:53:49Z</time></trkpt><trkpt lat="28.76720758568659" lon="-10.79892634330326"><ele>75.33333333333333</ele><time>2026-04-28T14:53:51Z</time></trkpt><trkpt lat="28.767277472500844" lon="-10.79897140876615"><ele>75.5</ele><time>2026-04-28T14:53:52Z</time></trkpt><trkpt lat="28.76735257614379" lon="-10.799014376832993"><ele>75.66666666666666</ele><time>2026-04-28T14:53:53Z</time></trkpt><trkpt lat="28.76740699731038" lon="-10.799054197713547"><ele>75.83333333333333</ele><time>2026-04-28T14:53:54Z</time></trkpt><trkpt lat="28.767458822200705" lon="-10.799114477684293"><ele>76.0</ele><time>2026-04-28T14:53:55Z</time></trkpt><trkpt lat="28.767500430530788" lon="-10.799184322600519"><ele>76.0</ele><time>2026-04-28T14:53:56Z</time></trkpt><trkpt lat="28.767553637451055" lon="-10.79928029279767"><ele>76.0</ele><time>2026-04-28T14:53:57Z</time></trkpt><trkpt lat="28.767598777749527" lon="-10.79937068576116"><ele>76.0</ele><time>2026-04-28T14:53:58Z</time></trkpt><trkpt lat="28.767646771085804" lon="-10.799451341776079"><ele>76.0</ele><time>2026-04-28T14:53:59Z</time></trkpt><trkpt lat="28.767681076919285" lon="-10.79952673425293"><ele>76.0</ele><time>2026-04-28T14:54:00Z</time></trkpt><trkpt lat="28.767714945323412" lon="-10.799602721557568"><ele>76.0</ele><time>2026-04-28T14:54:01Z</time></trkpt><trkpt lat="28.76775716298481" lon="-10.799666769140584"><ele>76.33333333333333</ele><time>2026-04-28T14:54:02Z</time></trkpt><trkpt lat="28.767803083747268" lon="-10.79971616097045"><ele>76.66666666666666</ele><time>2026-04-28T14:54:03Z</time></trkpt><trkpt lat="28.767870220899532" lon="-10.799750106864318"><ele>77.0</ele><time>2026-04-28T14:54:04Z</time></trkpt><trkpt lat="28.76796059224672" lon="-10.799774148755862"><ele>77.33333333333333</ele><time>2026-04-28T14:54:05Z</time></trkpt><trkpt lat="28.768044621005508" lon="-10.7997953157933"><ele>77.66666666666667</ele><time>2026-04-28T14:54:06Z</time></trkpt><trkpt lat="28.768120787578493" lon="-10.79983499003136"><ele>78.0</ele><time>2026-04-28T14:54:07Z</time></trkpt><trkpt lat="28.768202979704935" lon="-10.799948307617035"><ele>78.0</ele><time>2026-04-28T14:54:09Z</time></trkpt><trkpt lat="28.768234302501785" lon="-10.800024220323223"><ele>78.0</ele><time>2026-04-28T14:54:10Z</time></trkpt><trkpt lat="28.768252753132703" lon="-10.800144420581615"><ele>78.0</ele><time>2026-04-28T14:54:12Z</time></trkpt><trkpt lat="28.768257427041267" lon="-10.800235006853148"><ele>78.0</ele><time>2026-04-28T14:54:14Z</time></trkpt><trkpt lat="28.768212279877236" lon="-10.800380429509136"><ele>78.0</ele><time>2026-04-28T14:54:16Z</time></trkpt><trkpt lat="28.768162688129163" lon="-10.800468325180146"><ele>78.6</ele><time>2026-04-28T14:54:17Z</time></trkpt><trkpt lat="28.76809851422051" lon="-10.800563871158445"><ele>79.19999999999999</ele><time>2026-04-28T14:54:18Z</time></trkpt><trkpt lat="28.76802784598538" lon="-10.800660391309325"><ele>79.8</ele><time>2026-04-28T14:54:19Z</time></trkpt><trkpt lat="28.767982081074663" lon="-10.800755606090403"><ele>80.39999999999999</ele><time>2026-04-28T14:54:20Z</time></trkpt><trkpt lat="28.767929096599318" lon="-10.800868469058528"><ele>81.0</ele><time>2026-04-28T14:54:21Z</time></trkpt><trkpt lat="28.76787427855752" lon="-10.800980984320171"><ele>82.0</ele><time>2026-04-28T14:54:22Z</time></trkpt><trkpt lat="28.76782263951147" lon="-10.801057235216529"><ele>83.0</ele><time>2026-04-28T14:54:23Z</time></trkpt><trkpt lat="28.767749934588267" lon="-10.80114534724244"><ele>84.0</ele><time>2026-04-28T14:54:24Z</time></trkpt><trkpt lat="28.767671993265836" lon="-10.80122780516862"><ele>85.0</ele><time>2026-04-28T14:54:25Z</time></trkpt><trkpt lat="28.767602096069304" lon="-10.801279194718797"><ele>86.0</ele><time>2026-04-28T14:54:26Z</time></trkpt><trkpt lat="28.767514870282408" lon="-10.801345367353335"><ele>86.8</ele><time>2026-04-28T14:54:27Z</time></trkpt><trkpt lat="28.767411543024696" lon="-10.80140902238389"><ele>87.6</ele><time>2026-04-28T14:54:28Z</time></trkpt><trkpt lat="28.76730124166432" lon="-10.801470206913965"><ele>88.4</ele><time>2026-04-28T14:54:29Z</time></trkpt><trkpt lat="28.767216469300926" lon="-10.801524446432326"><ele>89.2</ele><time>2026-04-28T14:54:30Z</time></trkpt><trkpt lat="28.767144976378244" lon="-10.801602380343084"><ele>90.0</ele><time>2026-04-28T14:54:31Z</time></trkpt><trkpt lat="28.76708570560693" lon="-10.801701141306095"><ele>90.0</ele><time>2026-04-28T14:54:32Z</time></trkpt><trkpt lat="28.767055633338465" lon="-10.801812218435602"><ele>90.0</ele><time>2026-04-28T14:54:33Z</time></trkpt><trkpt lat="28.767034871617195" lon="-10.801945861581705"><ele>90.0</ele><time>2026-04-28T14:54:34Z</time></trkpt><trkpt lat="28.7670205898499" lon="-10.802108227316277"><ele>90.0</ele><time>2026-04-28T14:54:35Z</time></trkpt><trkpt lat="28.76698746425997" lon="-10.802259350354616"><ele>91.0</ele><time>2026-04-28T14:54:36Z</time></trkpt><trkpt lat="28.76694788990172" lon="-10.802423905853894"><ele>92.0</ele><time>2026-04-28T14:54:37Z</time></trkpt><trkpt lat="28.766915518082612" lon="-10.802592396414424"><ele>93.0</ele><time>2026-04-28T14:54:38Z</time></trkpt><trkpt lat="28.766904218675457" lon="-10.802731318527902"><ele>94.0</ele><time>2026-04-28T14:54:39Z</time></trkpt><trkpt lat="28.766919213731224" lon="-10.802850571655656"><ele>95.6</ele><time>2026-04-28T14:54:40Z</time></trkpt><trkpt lat="28.76692921283315" lon="-10.802960492832103"><ele>97.2</ele><time>2026-04-28T14:54:41Z</time></trkpt><trkpt lat="28.76695260825148" lon="-10.803078496267437"><ele>98.8</ele><time>2026-04-28T14:54:42Z</time></trkpt><trkpt lat="28.76697985980299" lon="-10.803209359948308"><ele>100.39999999999999</ele><time>2026-04-28T14:54:43Z</time></trkpt><trkpt lat="28.767005053345873" lon="-10.803319636379644"><ele>102.0</ele><time>2026-04-28T14:54:44Z</time></trkpt><trkpt lat="28.7670282079055" lon="-10.803438159143422"><ele>102.19999999999999</ele><time>2026-04-28T14:54:45Z</time></trkpt><trkpt lat="28.767039347440072" lon="-10.803545669041101"><ele>102.4</ele><time>2026-04-28T14:54:46Z</time></trkpt><trkpt lat="28.767050757564213" lon="-10.803638476606798"><ele>102.6</ele><time>2026-04-28T14:54:47Z</time></trkpt><trkpt lat="28.767030445383774" lon="-10.803750385980267"><ele>102.80000000000001</ele><time>2026-04-28T14:54:49Z</time></trkpt><trkpt lat="28.76695862337742" lon="-10.803864307531503"><ele>103.0</ele><time>2026-04-28T14:54:51Z</time></trkpt><trkpt lat="28.76688002948541" lon="-10.803933960805113"><ele>105.00000000000001</ele><time>2026-04-28T14:54:53Z</time></trkpt><trkpt lat="28.766794840438088" lon="-10.803959290826295"><ele>107.0</ele><time>2026-04-28T14:54:55Z</time></trkpt><trkpt lat="28.766715842424517" lon="-10.804013490559369"><ele>109.0</ele><time>2026-04-28T14:54:57Z</time></trkpt><trkpt lat="28.766718315984555" lon="-10.804113567520316"><ele>111.0</ele><time>2026-04-28T14:54:59Z</time></trkpt><trkpt lat="28.766755985432862" lon="-10.80417548896481"><ele>113.00000000000001</ele><time>2026-04-28T14:55:00Z</time></trkpt><trkpt lat="28.76678276704515" lon="-10.804244073669803"><ele>115.0</ele><time>2026-04-28T14:55:01Z</time></trkpt><trkpt lat="28.766772805924592" lon="-10.804318856020387"><ele>115.4</ele><time>2026-04-28T14:55:02Z</time></trkpt><trkpt lat="28.766744559173997" lon="-10.804389303810161"><ele>115.8</ele><time>2026-04-28T14:55:03Z</time></trkpt><trkpt lat="28.766707707072285" lon="-10.80447261541457"><ele>116.19999999999999</ele><time>2026-04-28T14:55:04Z</time></trkpt><trkpt lat="28.766655360684865" lon="-10.804554062301573"><ele>116.6</ele><time>2026-04-28T14:55:05Z</time></trkpt><trkpt lat="28.76659120770819" lon="-10.804664323827904"><ele>117.0</ele><time>2026-04-28T14:55:06Z</time></trkpt><trkpt lat="28.76652030413094" lon="-10.804763374894401"><ele>117.0</ele><time>2026-04-28T14:55:07Z</time></trkpt><trkpt lat="28.766473510479717" lon="-10.804849862912182"><ele>117.0</ele><time>2026-04-28T14:55:08Z</time></trkpt><trkpt lat="28.766435963970693" lon="-10.804973652890903"><ele>117.0</ele><time>2026-04-28T14:55:10Z</time></trkpt><trkpt lat="28.766459872604532" lon="-10.805071504084701"><ele>117.0</ele><time>2026-04-28T14:55:11Z</time></trkpt><trkpt lat="28.76646405316185" lon="-10.805159676885937"><ele>117.0</ele><time>2026-04-28T14:55:12Z</time></trkpt><trkpt lat="28.766445025236926" lon="-10.80523859122124"><ele>117.0</ele><time>2026-04-28T14:55:13Z</time></trkpt><trkpt lat="28.766428673998686" lon="-10.80532518163967"><ele>118.0</ele><time>2026-04-28T14:55:14Z</time></trkpt><trkpt lat="28.76639807514354" lon="-10.805397098021016"><ele>118.99999999999999</ele><time>2026-04-28T14:55:15Z</time></trkpt><trkpt lat="28.766349722647018" lon="-10.805482553159699"><ele>119.99999999999999</ele><time>2026-04-28T14:55:16Z</time></trkpt><trkpt lat="28.76627724866933" lon="-10.805575876007682"><ele>121.0</ele><time>2026-04-28T14:55:17Z</time></trkpt><trkpt lat="28.766188080278837" lon="-10.805695157622758"><ele>122.0</ele><time>2026-04-28T14:55:18Z</time></trkpt><trkpt lat="28.766125940200418" lon="-10.805776618665163"><ele>122.0</ele><time>2026-04-28T14:55:19Z</time></trkpt><trkpt lat="28.766088933003687" lon="-10.805864902299628"><ele>121.99999999999999</ele><time>2026-04-28T14:55:20Z</time></trkpt><trkpt lat="28.766059399051027" lon="-10.805976031712152"><ele>121.99999999999999</ele><time>2026-04-28T14:55:21Z</time></trkpt><trkpt lat="28.766024769557063" lon="-10.806095743893708"><ele>122.0</ele><time>2026-04-28T14:55:22Z</time></trkpt><trkpt lat="28.76597838569395" lon="-10.806233933212251"><ele>122.0</ele><time>2026-04-28T14:55:23Z</time></trkpt><trkpt lat="28.76592402839836" lon="-10.80634304236102"><ele>122.49999999999999</ele><time>2026-04-28T14:55:24Z</time></trkpt><trkpt lat="28.76587146052619" lon="-10.806445665284745"><ele>123.0</ele><time>2026-04-28T14:55:25Z</time></trkpt><trkpt lat="28.765826659226686" lon="-10.806535711389795"><ele>123.5</ele><time>2026-04-28T14:55:26Z</time></trkpt><trkpt lat="28.76579244711036" lon="-10.806602031238585"><ele>124.0</ele><time>2026-04-28T14:55:27Z</time></trkpt><trkpt lat="28.765734855477284" lon="-10.806676492383811"><ele>124.49999999999999</ele><time>2026-04-28T14:55:29Z</time></trkpt><trkpt lat="28.765697447810332" lon="-10.806738380464699"><ele>125.0</ele><time>2026-04-28T14:55:31Z</time></trkpt><trkpt lat="28.765653103449168" lon="-10.80680407467123"><ele>124.8</ele><time>2026-04-28T14:56:43Z</time></trkpt><trkpt lat="28.76556389280314" lon="-10.80692513868891"><ele>124.6</ele><time>2026-04-28T14:56:45Z</time></trkpt><trkpt lat="28.765504313776336" lon="-10.807004313501336"><ele>124.4</ele><time>2026-04-28T14:56:46Z</time></trkpt><trkpt lat="28.765449838451392" lon="-10.807086730948075"><ele>124.2</ele><time>2026-04-28T14:56:47Z</time></trkpt><trkpt lat="28.765389695977294" lon="-10.80719744523954"><ele>124.0</ele><time>2026-04-28T14:56:48Z</time></trkpt><trkpt lat="28.76533042885745" lon="-10.807308857051138"><ele>124.0</ele><time>2026-04-28T14:56:49Z</time></trkpt><trkpt lat="28.765274605430573" lon="-10.807405107301104"><ele>124.0</ele><time>2026-04-28T14:56:50Z</time></trkpt><trkpt lat="28.76521398431678" lon="-10.807487525218978"><ele>124.0</ele><time>2026-04-28T14:56:51Z</time></trkpt><trkpt lat="28.76515345086361" lon="-10.8075702929084"><ele>124.0</ele><time>2026-04-28T14:56:52Z</time></trkpt><trkpt lat="28.765083755271235" lon="-10.807664320743443"><ele>124.0</ele><time>2026-04-28T14:56:53Z</time></trkpt><trkpt lat="28.765022835430226" lon="-10.807760553749237"><ele>124.0</ele><time>2026-04-28T14:56:54Z</time></trkpt><trkpt lat="28.76495775144851" lon="-10.807871196466538"><ele>124.0</ele><time>2026-04-28T14:56:55Z</time></trkpt><trkpt lat="28.764880624486835" lon="-10.80799900966814"><ele>124.0</ele><time>2026-04-28T14:56:56Z</time></trkpt><trkpt lat="28.76478964681196" lon="-10.808150561264664"><ele>124.0</ele><time>2026-04-28T14:56:57Z</time></trkpt><trkpt lat="28.76469362944483" lon="-10.80830400308988"><ele>124.0</ele><time>2026-04-28T14:56:58Z</time></trkpt><trkpt lat="28.764585708213353" lon="-10.808461222885981"><ele>124.0</ele><time>2026-04-28T14:56:59Z</time></trkpt><trkpt lat="28.7644915167961" lon="-10.80860591435837"><ele>124.0</ele><time>2026-04-28T14:57:00Z</time></trkpt><trkpt lat="28.76441044709919" lon="-10.808719329255904"><ele>123.25</ele><time>2026-04-28T14:57:01Z</time></trkpt><trkpt lat="28.764318929850603" lon="-10.808823223697429"><ele>122.5</ele><time>2026-04-28T14:57:02Z</time></trkpt><trkpt lat="28.7642125468576" lon="-10.808934768703761"><ele>121.75</ele><time>2026-04-28T14:57:03Z</time></trkpt><trkpt lat="28.764115606372194" lon="-10.809042352209772"><ele>121.0</ele><time>2026-04-28T14:57:04Z</time></trkpt><trkpt lat="28.76402975903667" lon="-10.809139485003042"><ele>121.0</ele><time>2026-04-28T14:57:05Z</time></trkpt><trkpt lat="28.76394121085463" lon="-10.809229160971679"><ele>121.0</ele><time>2026-04-28T14:57:06Z</time></trkpt><trkpt lat="28.763838573123508" lon="-10.809308592146857"><ele>121.0</ele><time>2026-04-28T14:57:07Z</time></trkpt><trkpt lat="28.7637206875088" lon="-10.809374232059486"><ele>121.0</ele><time>2026-04-28T14:57:08Z</time></trkpt><trkpt lat="28.763599897358446" lon="-10.809438926493918"><ele>121.0</ele><time>2026-04-28T14:57:09Z</time></trkpt><trkpt lat="28.76346330039729" lon="-10.809502371642209"><ele>121.0</ele><time>2026-04-28T14:57:10Z</time></trkpt><trkpt lat="28.763269604996122" lon="-10.809547048189021"><ele>121.0</ele><time>2026-04-28T14:57:11Z</time></trkpt><trkpt lat="28.76306970084545" lon="-10.809609612762998"><ele>121.0</ele><time>2026-04-28T14:57:12Z</time></trkpt><trkpt lat="28.76284663234183" lon="-10.80968309706801"><ele>121.0</ele><time>2026-04-28T14:57:13Z</time></trkpt><trkpt lat="28.762602677665768" lon="-10.80975199528051"><ele>122.0</ele><time>2026-04-28T14:57:14Z</time></trkpt><trkpt lat="28.762355711481778" lon="-10.809814813462769"><ele>123.0</ele><time>2026-04-28T14:57:15Z</time></trkpt><trkpt lat="28.762151063919923" lon="-10.809859966412086"><ele>123.0</ele><time>2026-04-28T14:57:16Z</time></trkpt><trkpt lat="28.761994014930455" lon="-10.809899514954482"><ele>123.0</ele><time>2026-04-28T14:57:17Z</time></trkpt><trkpt lat="28.761859833457518" lon="-10.809932976873936"><ele>123.0</ele><time>2026-04-28T14:57:18Z</time></trkpt><trkpt lat="28.761742711273204" lon="-10.809965614748714"><ele>123.0</ele><time>2026-04-28T14:57:19Z</time></trkpt><trkpt lat="28.761627909043398" lon="-10.809997600548972"><ele>122.75</ele><time>2026-04-28T14:57:20Z</time></trkpt><trkpt lat="28.761505594243832" lon="-10.81002407872017"><ele>122.5</ele><time>2026-04-28T14:57:21Z</time></trkpt><trkpt lat="28.761388613090975" lon="-10.81004370076061"><ele>122.25</ele><time>2026-04-28T14:57:22Z</time></trkpt><trkpt lat="28.76127260304527" lon="-10.810058793824902"><ele>122.0</ele><time>2026-04-28T14:57:23Z</time></trkpt><trkpt lat="28.76113875507652" lon="-10.81007400187995"><ele>122.0</ele><time>2026-04-28T14:57:24Z</time></trkpt><trkpt lat="28.76099105715374" lon="-10.810085303569258"><ele>122.0</ele><time>2026-04-28T14:57:25Z</time></trkpt><trkpt lat="28.760866712912165" lon="-10.810099006614049"><ele>122.0</ele><time>2026-04-28T14:57:26Z</time></trkpt><trkpt lat="28.76073952932928" lon="-10.810112334148167"><ele>122.0</ele><time>2026-04-28T14:57:27Z</time></trkpt><trkpt lat="28.76060780293809" lon="-10.81012530547626"><ele>122.0</ele><time>2026-04-28T14:57:28Z</time></trkpt><trkpt lat="28.7604665519625" lon="-10.810139804136927"><ele>122.0</ele><time>2026-04-28T14:57:29Z</time></trkpt><trkpt lat="28.76033262548113" lon="-10.810151911822928"><ele>122.0</ele><time>2026-04-28T14:57:30Z</time></trkpt><trkpt lat="28.760215534733163" lon="-10.810152507997941"><ele>122.0</ele><time>2026-04-28T14:57:31Z</time></trkpt><trkpt lat="28.760090517617545" lon="-10.810143356139013"><ele>122.0</ele><time>2026-04-28T14:57:32Z</time></trkpt><trkpt lat="28.759954757221898" lon="-10.810141958998985"><ele>122.0</ele><time>2026-04-28T14:57:33Z</time></trkpt><trkpt lat="28.759827893126904" lon="-10.810144340378319"><ele>122.0</ele><time>2026-04-28T14:57:34Z</time></trkpt><trkpt lat="28.759697097916828" lon="-10.810149014876885"><ele>122.0</ele><time>2026-04-28T14:57:35Z</time></trkpt><trkpt lat="28.7595578601175" lon="-10.810146606437625"><ele>122.0</ele><time>2026-04-28T14:57:36Z</time></trkpt><trkpt lat="28.759409924331912" lon="-10.810143928401834"><ele>122.0</ele><time>2026-04-28T14:57:37Z</time></trkpt><trkpt lat="28.759269664410215" lon="-10.810141154557659"><ele>122.0</ele><time>2026-04-28T14:57:38Z</time></trkpt><trkpt lat="28.75913983018029" lon="-10.810143332383175"><ele>122.0</ele><time>2026-04-28T14:57:39Z</time></trkpt><trkpt lat="28.759003799227997" lon="-10.810145472019883"><ele>123.0</ele><time>2026-04-28T14:57:40Z</time></trkpt><trkpt lat="28.758867959697138" lon="-10.810145174771966"><ele>124.0</ele><time>2026-04-28T14:57:41Z</time></trkpt><trkpt lat="28.758729106621416" lon="-10.81015029562424"><ele>125.0</ele><time>2026-04-28T14:57:42Z</time></trkpt><trkpt lat="28.758587885158732" lon="-10.810162905195378"><ele>126.0</ele><time>2026-04-28T14:57:43Z</time></trkpt><trkpt lat="28.758446663450417" lon="-10.810177012398649"><ele>126.75</ele><time>2026-04-28T14:57:44Z</time></trkpt><trkpt lat="28.758304667192917" lon="-10.810187553971538"><ele>127.5</ele><time>2026-04-28T14:57:45Z</time></trkpt><trkpt lat="28.758176194963987" lon="-10.810196622508803"><ele>128.25</ele><time>2026-04-28T14:57:46Z</time></trkpt><trkpt lat="28.758045228113865" lon="-10.810202031732493"><ele>129.0</ele><time>2026-04-28T14:57:47Z</time></trkpt><trkpt lat="28.757897392310497" lon="-10.810199863234741"><ele>129.0</ele><time>2026-04-28T14:57:48Z</time></trkpt><trkpt lat="28.75774285591255" lon="-10.810192230754915"><ele>129.0</ele><time>2026-04-28T14:57:49Z</time></trkpt><trkpt lat="28.757593390871047" lon="-10.810192856683665"><ele>129.0</ele><time>2026-04-28T14:57:50Z</time></trkpt><trkpt lat="28.757444557273033" lon="-10.810198665659566"><ele>129.0</ele><time>2026-04-28T14:57:51Z</time></trkpt><trkpt lat="28.757289988756405" lon="-10.810192884951599"><ele>129.0</ele><time>2026-04-28T14:57:52Z</time></trkpt><trkpt lat="28.7571430416672" lon="-10.810177819832182"><ele>129.0</ele><time>2026-04-28T14:57:53Z</time></trkpt><trkpt lat="28.75700419840923" lon="-10.810158229560164"><ele>129.0</ele><time>2026-04-28T14:57:54Z</time></trkpt><trkpt lat="28.756861405371495" lon="-10.81013315470518"><ele>129.5</ele><time>2026-04-28T14:57:55Z</time></trkpt><trkpt lat="28.756717476150193" lon="-10.810100116349517"><ele>130.0</ele><time>2026-04-28T14:57:56Z</time></trkpt><trkpt lat="28.756585587242803" lon="-10.810055882430323"><ele>130.5</ele><time>2026-04-28T14:57:57Z</time></trkpt><trkpt lat="28.756451882617796" lon="-10.809994979390105"><ele>131.0</ele><time>2026-04-28T14:57:58Z</time></trkpt><trkpt lat="28.75632328961216" lon="-10.809921185616362"><ele>131.0</ele><time>2026-04-28T14:57:59Z</time></trkpt><trkpt lat="28.75619284489101" lon="-10.809843312511815"><ele>131.0</ele><time>2026-04-28T14:58:00Z</time></trkpt><trkpt lat="28.756054748200427" lon="-10.809761855075507"><ele>131.0</ele><time>2026-04-28T14:58:01Z</time></trkpt><trkpt lat="28.7559159109977" lon="-10.809675748649743"><ele>132.0</ele><time>2026-04-28T14:58:02Z</time></trkpt><trkpt lat="28.755783438716296" lon="-10.809601177531027"><ele>133.0</ele><time>2026-04-28T14:58:03Z</time></trkpt><trkpt lat="28.755640039850363" lon="-10.809540122742048"><ele>134.0</ele><time>2026-04-28T14:58:04Z</time></trkpt><trkpt lat="28.755489943594053" lon="-10.809487829700174"><ele>134.0</ele><time>2026-04-28T14:58:05Z</time></trkpt><trkpt lat="28.755341013754002" lon="-10.80944284082493"><ele>134.0</ele><time>2026-04-28T14:58:06Z</time></trkpt><trkpt lat="28.75520689100873" lon="-10.809400146393543"><ele>134.0</ele><time>2026-04-28T14:58:07Z</time></trkpt><trkpt lat="28.755088724933433" lon="-10.80934941061455"><ele>134.0</ele><time>2026-04-28T14:58:08Z</time></trkpt><trkpt lat="28.75499144973209" lon="-10.80927839612591"><ele>135.25</ele><time>2026-04-28T14:58:09Z</time></trkpt><trkpt lat="28.75488219740821" lon="-10.809178450410426"><ele>136.5</ele><time>2026-04-28T14:58:10Z</time></trkpt><trkpt lat="28.754758091104154" lon="-10.809079090295299"><ele>137.75</ele><time>2026-04-28T14:58:11Z</time></trkpt><trkpt lat="28.754634767580463" lon="-10.808990992320972"><ele>139.0</ele><time>2026-04-28T14:58:12Z</time></trkpt><trkpt lat="28.754511298445923" lon="-10.80891264041403"><ele>139.0</ele><time>2026-04-28T14:58:13Z</time></trkpt><trkpt lat="28.754380914543674" lon="-10.808836448474453"><ele>139.0</ele><time>2026-04-28T14:58:14Z</time></trkpt><trkpt lat="28.754242916902953" lon="-10.80875989476453"><ele>139.0</ele><time>2026-04-28T14:58:15Z</time></trkpt><trkpt lat="28.754086813080185" lon="-10.80866807730178"><ele>138.0</ele><time>2026-04-28T14:58:16Z</time></trkpt><trkpt lat="28.753922534989055" lon="-10.808555112643628"><ele>137.0</ele><time>2026-04-28T14:58:17Z</time></trkpt><trkpt lat="28.753774560581267" lon="-10.808449597837567"><ele>136.0</ele><time>2026-04-28T14:58:18Z</time></trkpt><trkpt lat="28.753622909131145" lon="-10.808350401949545"><ele>135.66666666666669</ele><time>2026-04-28T14:58:19Z</time></trkpt><trkpt lat="28.75347654890158" lon="-10.80825660560198"><ele>135.33333333333334</ele><time>2026-04-28T14:58:20Z</time></trkpt><trkpt lat="28.753312653803615" lon="-10.808154790794488"><ele>135.0</ele><time>2026-04-28T14:58:21Z</time></trkpt><trkpt lat="28.753152562216997" lon="-10.80806006641532"><ele>135.0</ele><time>2026-04-28T14:58:22Z</time></trkpt><trkpt lat="28.75299084314813" lon="-10.807971539073176"><ele>135.0</ele><time>2026-04-28T14:58:23Z</time></trkpt><trkpt lat="28.752832967307885" lon="-10.807892601705085"><ele>135.0</ele><time>2026-04-28T14:58:24Z</time></trkpt><trkpt lat="28.752668689269527" lon="-10.807812855973408"><ele>135.33333333333334</ele><time>2026-04-28T14:58:25Z</time></trkpt><trkpt lat="28.75250375934604" lon="-10.807737521974742"><ele>135.66666666666669</ele><time>2026-04-28T14:58:26Z</time></trkpt><trkpt lat="28.752340524556292" lon="-10.807670241617659"><ele>136.0</ele><time>2026-04-28T14:58:27Z</time></trkpt><trkpt lat="28.752184902146475" lon="-10.807609180101405"><ele>136.0</ele><time>2026-04-28T14:58:28Z</time></trkpt><trkpt lat="28.752045570304183" lon="-10.807551878459893"><ele>136.0</ele><time>2026-04-28T14:58:29Z</time></trkpt><trkpt lat="28.75190270005106" lon="-10.807481011239028"><ele>136.0</ele><time>2026-04-28T14:58:30Z</time></trkpt><trkpt lat="28.75174527194256" lon="-10.807369648395888"><ele>137.66666666666669</ele><time>2026-04-28T14:58:31Z</time></trkpt><trkpt lat="28.751587309533353" lon="-10.80727509833935"><ele>139.33333333333334</ele><time>2026-04-28T14:58:32Z</time></trkpt><trkpt lat="28.751406990796106" lon="-10.807193229458976"><ele>141.0</ele><time>2026-04-28T14:58:33Z</time></trkpt><trkpt lat="28.751256966785267" lon="-10.80710121127992"><ele>141.0</ele><time>2026-04-28T14:58:34Z</time></trkpt><trkpt lat="28.751114201263796" lon="-10.806971124108944"><ele>141.0</ele><time>2026-04-28T14:58:35Z</time></trkpt><trkpt lat="28.75096116664811" lon="-10.806830585191324"><ele>141.0</ele><time>2026-04-28T14:58:36Z</time></trkpt><trkpt lat="28.750827962324113" lon="-10.806747895303742"><ele>140.5</ele><time>2026-04-28T14:58:37Z</time></trkpt><trkpt lat="28.750703135682155" lon="-10.806690501870037"><ele>140.0</ele><time>2026-04-28T14:58:38Z</time></trkpt><trkpt lat="28.750569163778444" lon="-10.806624559061497"><ele>139.5</ele><time>2026-04-28T14:58:39Z</time></trkpt><trkpt lat="28.750440729381616" lon="-10.806537260196311"><ele>139.0</ele><time>2026-04-28T14:58:40Z</time></trkpt><trkpt lat="28.750315037519353" lon="-10.80644253569324"><ele>140.33333333333334</ele><time>2026-04-28T14:58:41Z</time></trkpt><trkpt lat="28.750200775518554" lon="-10.806346745308495"><ele>141.66666666666666</ele><time>2026-04-28T14:58:42Z</time></trkpt><trkpt lat="28.750085492053252" lon="-10.806240448013313"><ele>143.0</ele><time>2026-04-28T14:58:43Z</time></trkpt><trkpt lat="28.749953862295477" lon="-10.80613746532369"><ele>143.0</ele><time>2026-04-28T14:58:44Z</time></trkpt><trkpt lat="28.749827686254207" lon="-10.806041077275989"><ele>143.0</ele><time>2026-04-28T14:58:45Z</time></trkpt><trkpt lat="28.749726816880088" lon="-10.80594197184843"><ele>143.0</ele><time>2026-04-28T14:58:46Z</time></trkpt><trkpt lat="28.749645587966384" lon="-10.805843658481345"><ele>143.0</ele><time>2026-04-28T14:58:47Z</time></trkpt><trkpt lat="28.74954744578007" lon="-10.805732430648371"><ele>143.25</ele><time>2026-04-28T14:58:48Z</time></trkpt><trkpt lat="28.74944393061481" lon="-10.80562523552751"><ele>143.5</ele><time>2026-04-28T14:58:49Z</time></trkpt><trkpt lat="28.74934273091752" lon="-10.805527155602094"><ele>143.75</ele><time>2026-04-28T14:58:50Z</time></trkpt><trkpt lat="28.74924557536583" lon="-10.805441170638108"><ele>144.0</ele><time>2026-04-28T14:58:51Z</time></trkpt><trkpt lat="28.74915625720719" lon="-10.805368094240299"><ele>144.0</ele><time>2026-04-28T14:58:52Z</time></trkpt><trkpt lat="28.749060676048643" lon="-10.805313156629934"><ele>144.0</ele><time>2026-04-28T14:58:53Z</time></trkpt><trkpt lat="28.748959796737115" lon="-10.805275877149105"><ele>144.0</ele><time>2026-04-28T14:58:54Z</time></trkpt><trkpt lat="28.74886512841589" lon="-10.805239017822837"><ele>144.0</ele><time>2026-04-28T14:58:55Z</time></trkpt><trkpt lat="28.748782352313984" lon="-10.80519146709767"><ele>144.0</ele><time>2026-04-28T14:58:56Z</time></trkpt><trkpt lat="28.748690047425832" lon="-10.805125540309426"><ele>144.0</ele><time>2026-04-28T14:58:57Z</time></trkpt><trkpt lat="28.748571406195072" lon="-10.805058548428187"><ele>144.0</ele><time>2026-04-28T14:58:58Z</time></trkpt><trkpt lat="28.74844358541678" lon="-10.804991868897721"><ele>144.0</ele><time>2026-04-28T14:58:59Z</time></trkpt><trkpt lat="28.748329078044012" lon="-10.804907905061157"><ele>144.0</ele><time>2026-04-28T14:59:00Z</time></trkpt><trkpt lat="28.74822273553751" lon="-10.804808891638338"><ele>144.0</ele><time>2026-04-28T14:59:01Z</time></trkpt><trkpt lat="28.74813067116128" lon="-10.804717116120273"><ele>144.0</ele><time>2026-04-28T14:59:02Z</time></trkpt><trkpt lat="28.748058066985337" lon="-10.804638957832033"><ele>144.0</ele><time>2026-04-28T14:59:03Z</time></trkpt><trkpt lat="28.74798763895024" lon="-10.804582869595828"><ele>144.0</ele><time>2026-04-28T14:59:04Z</time></trkpt><trkpt lat="28.747899393149382" lon="-10.804546011607608"><ele>144.0</ele><time>2026-04-28T14:59:05Z</time></trkpt><trkpt lat="28.74777544699742" lon="-10.80451257308974"><ele>144.33333333333334</ele><time>2026-04-28T14:59:06Z</time></trkpt><trkpt lat="28.747610880576463" lon="-10.804465398485442"><ele>144.66666666666669</ele><time>2026-04-28T14:59:07Z</time></trkpt><trkpt lat="28.74744797635537" lon="-10.804422351047268"><ele>145.0</ele><time>2026-04-28T14:59:08Z</time></trkpt><trkpt lat="28.747321363970734" lon="-10.804395437677588"><ele>145.0</ele><time>2026-04-28T14:59:09Z</time></trkpt><trkpt lat="28.74720171945001" lon="-10.804382287067037"><ele>145.0</ele><time>2026-04-28T14:59:10Z</time></trkpt><trkpt lat="28.747086407266526" lon="-10.804367958847278"><ele>145.0</ele><time>2026-04-28T14:59:11Z</time></trkpt><trkpt lat="28.74697611614946" lon="-10.804346299036627"><ele>145.0</ele><time>2026-04-28T14:59:12Z</time></trkpt><trkpt lat="28.746864956547206" lon="-10.804306192499784"><ele>145.0</ele><time>2026-04-28T14:59:13Z</time></trkpt><trkpt lat="28.746757495081287" lon="-10.804246358226967"><ele>145.0</ele><time>2026-04-28T14:59:14Z</time></trkpt><trkpt lat="28.74664566303215" lon="-10.8041717201795"><ele>145.0</ele><time>2026-04-28T14:59:15Z</time></trkpt><trkpt lat="28.746544556732335" lon="-10.804095428787493"><ele>145.0</ele><time>2026-04-28T14:59:16Z</time></trkpt><trkpt lat="28.746446782432614" lon="-10.804013064436672"><ele>145.0</ele><time>2026-04-28T14:59:17Z</time></trkpt><trkpt lat="28.746347486469244" lon="-10.803933315325395"><ele>145.0</ele><time>2026-04-28T14:59:18Z</time></trkpt><trkpt lat="28.74624891406457" lon="-10.803848740496452"><ele>145.0</ele><time>2026-04-28T14:59:19Z</time></trkpt><trkpt lat="28.74614572055248" lon="-10.803755369186854"><ele>145.0</ele><time>2026-04-28T14:59:20Z</time></trkpt><trkpt lat="28.746035976621396" lon="-10.803665112063001"><ele>144.0</ele><time>2026-04-28T14:59:21Z</time></trkpt><trkpt lat="28.745921559768817" lon="-10.803573736665477"><ele>143.0</ele><time>2026-04-28T14:59:22Z</time></trkpt><trkpt lat="28.74580846993303" lon="-10.803480079114998"><ele>142.0</ele><time>2026-04-28T14:59:23Z</time></trkpt><trkpt lat="28.745689486340495" lon="-10.803390853679163"><ele>141.0</ele><time>2026-04-28T14:59:24Z</time></trkpt><trkpt lat="28.745562467151025" lon="-10.803308536223538"><ele>141.0</ele><time>2026-04-28T14:59:25Z</time></trkpt><trkpt lat="28.745433323943065" lon="-10.803232264728"><ele>141.0</ele><time>2026-04-28T14:59:26Z</time></trkpt><trkpt lat="28.745314217021505" lon="-10.803172809857422"><ele>141.0</ele><time>2026-04-28T14:59:27Z</time></trkpt><trkpt lat="28.745211711554322" lon="-10.80313161331463"><ele>141.0</ele><time>2026-04-28T14:59:28Z</time></trkpt><trkpt lat="28.74512352445955" lon="-10.803111749939413"><ele>140.83333333333334</ele><time>2026-04-28T14:59:29Z</time></trkpt><trkpt lat="28.745011274794923" lon="-10.803113744936438"><ele>140.66666666666666</ele><time>2026-04-28T14:59:31Z</time></trkpt><trkpt lat="28.74494046316997" lon="-10.803140540298095"><ele>140.5</ele><time>2026-04-28T14:59:33Z</time></trkpt><trkpt lat="28.744877818466044" lon="-10.803230195936024"><ele>140.33333333333331</ele><time>2026-04-28T14:59:44Z</time></trkpt><trkpt lat="28.74483014153478" lon="-10.80328954493147"><ele>140.16666666666666</ele><time>2026-04-28T14:59:46Z</time></trkpt><trkpt lat="28.744791990468645" lon="-10.803348464608293"><ele>140.0</ele><time>2026-04-28T14:59:48Z</time></trkpt><trkpt lat="28.744749477519314" lon="-10.803412691155932"><ele>140.0</ele><time>2026-04-28T14:59:50Z</time></trkpt><trkpt lat="28.74469172435254" lon="-10.803467677933572"><ele>140.0</ele><time>2026-04-28T14:59:52Z</time></trkpt><trkpt lat="28.744601267268887" lon="-10.803551441172294"><ele>140.0</ele><time>2026-04-28T14:59:54Z</time></trkpt><trkpt lat="28.74451731312438" lon="-10.803628957134693"><ele>140.0</ele><time>2026-04-28T14:59:56Z</time></trkpt><trkpt lat="28.744457196067025" lon="-10.803677275029132"><ele>140.0</ele><time>2026-04-28T14:59:58Z</time></trkpt><trkpt lat="28.744395123544358" lon="-10.803713400450048"><ele>140.0</ele><time>2026-04-28T15:00:00Z</time></trkpt><trkpt lat="28.744316878406686" lon="-10.803691186485347"><ele>139.0</ele><time>2026-04-28T15:00:03Z</time></trkpt><trkpt lat="28.74424999632418" lon="-10.803637797596048"><ele>138.0</ele><time>2026-04-28T15:00:55Z</time></trkpt><trkpt lat="28.744196980238474" lon="-10.803596301935977"><ele>137.0</ele><time>2026-04-28T15:00:56Z</time></trkpt><trkpt lat="28.744122417764363" lon="-10.803539701383585"><ele>136.0</ele><time>2026-04-28T15:00:57Z</time></trkpt><trkpt lat="28.744018759030535" lon="-10.803465176855049"><ele>135.0</ele><time>2026-04-28T15:00:58Z</time></trkpt><trkpt lat="28.743927664928467" lon="-10.803409312779115"><ele>135.0</ele><time>2026-04-28T15:00:59Z</time></trkpt><trkpt lat="28.743859988843525" lon="-10.803368517425493"><ele>135.0</ele><time>2026-04-28T15:01:00Z</time></trkpt><trkpt lat="28.74374993289869" lon="-10.803247365236828"><ele>135.0</ele><time>2026-04-28T15:01:02Z</time></trkpt><trkpt lat="28.74368928725674" lon="-10.803142124585527"><ele>135.0</ele><time>2026-04-28T15:01:03Z</time></trkpt><trkpt lat="28.743600027565453" lon="-10.803049023634621"><ele>132.5</ele><time>2026-04-28T15:01:04Z</time></trkpt><trkpt lat="28.74347230508989" lon="-10.802960426151488"><ele>130.0</ele><time>2026-04-28T15:01:05Z</time></trkpt><trkpt lat="28.743354950436974" lon="-10.802883604327693"><ele>127.5</ele><time>2026-04-28T15:01:06Z</time></trkpt><trkpt lat="28.743255102227888" lon="-10.802793830683898"><ele>125.0</ele><time>2026-04-28T15:01:07Z</time></trkpt><trkpt lat="28.743165918211297" lon="-10.802700315932071"><ele>126.0</ele><time>2026-04-28T15:01:08Z</time></trkpt><trkpt lat="28.743077462300693" lon="-10.80259427924412"><ele>127.0</ele><time>2026-04-28T15:01:09Z</time></trkpt><trkpt lat="28.74298977062555" lon="-10.80246809639218"><ele>128.0</ele><time>2026-04-28T15:01:10Z</time></trkpt><trkpt lat="28.742906407041378" lon="-10.802336030270144"><ele>129.0</ele><time>2026-04-28T15:01:11Z</time></trkpt><trkpt lat="28.742832001250747" lon="-10.802215914623924"><ele>129.0</ele><time>2026-04-28T15:01:12Z</time></trkpt><trkpt lat="28.74276937806709" lon="-10.802099443894074"><ele>129.0</ele><time>2026-04-28T15:01:13Z</time></trkpt><trkpt lat="28.742714010951666" lon="-10.80198515370831"><ele>129.0</ele><time>2026-04-28T15:01:14Z</time></trkpt><trkpt lat="28.74265521547224" lon="-10.801864434249888"><ele>129.0</ele><time>2026-04-28T15:01:15Z</time></trkpt><trkpt lat="28.742590232528247" lon="-10.801758769550174"><ele>127.0</ele><time>2026-04-28T15:01:16Z</time></trkpt><trkpt lat="28.74251768421973" lon="-10.80165727368493"><ele>125.0</ele><time>2026-04-28T15:01:17Z</time></trkpt><trkpt lat="28.742452612123486" lon="-10.801562025690693"><ele>123.0</ele><time>2026-04-28T15:01:18Z</time></trkpt><trkpt lat="28.7424045868901" lon="-10.80146658294346"><ele>121.0</ele><time>2026-04-28T15:01:19Z</time></trkpt><trkpt lat="28.742358951485876" lon="-10.801361604547063"><ele>119.0</ele><time>2026-04-28T15:01:20Z</time></trkpt><trkpt lat="28.74229359759762" lon="-10.801269162942937"><ele>119.0</ele><time>2026-04-28T15:01:21Z</time></trkpt><trkpt lat="28.742219949995015" lon="-10.801190247752192"><ele>119.0</ele><time>2026-04-28T15:01:22Z</time></trkpt><trkpt lat="28.742164599644987" lon="-10.801111424559911"><ele>119.0</ele><time>2026-04-28T15:01:23Z</time></trkpt><trkpt lat="28.742114648300934" lon="-10.801014210905972"><ele>119.0</ele><time>2026-04-28T15:01:24Z</time></trkpt><trkpt lat="28.742062105635423" lon="-10.800916038524376"><ele>119.0</ele><time>2026-04-28T15:01:25Z</time></trkpt><trkpt lat="28.74198268921618" lon="-10.800812129410271"><ele>118.5</ele><time>2026-04-28T15:01:26Z</time></trkpt><trkpt lat="28.741893285896744" lon="-10.80070126022004"><ele>118.0</ele><time>2026-04-28T15:01:27Z</time></trkpt><trkpt lat="28.741806075714862" lon="-10.800588296704575"><ele>117.5</ele><time>2026-04-28T15:01:28Z</time></trkpt><trkpt lat="28.741718214534906" lon="-10.800487780217605"><ele>117.0</ele><time>2026-04-28T15:01:29Z</time></trkpt><trkpt lat="28.741634899674054" lon="-10.800405048184015"><ele>117.0</ele><time>2026-04-28T15:01:30Z</time></trkpt><trkpt lat="28.741561057525747" lon="-10.800330975635921"><ele>116.99999999999999</ele><time>2026-04-28T15:01:31Z</time></trkpt><trkpt lat="28.741477990343782" lon="-10.80025758549931"><ele>116.99999999999999</ele><time>2026-04-28T15:01:32Z</time></trkpt><trkpt lat="28.741390220813305" lon="-10.800200067840263"><ele>117.0</ele><time>2026-04-28T15:01:33Z</time></trkpt><trkpt lat="28.741301622209804" lon="-10.800159948853318"><ele>117.0</ele><time>2026-04-28T15:01:34Z</time></trkpt><trkpt lat="28.74120956602603" lon="-10.800124506504199"><ele>116.8</ele><time>2026-04-28T15:01:35Z</time></trkpt><trkpt lat="28.741143975529443" lon="-10.800084703218484"><ele>116.6</ele><time>2026-04-28T15:01:36Z</time></trkpt><trkpt lat="28.741083960129092" lon="-10.799953011803902"><ele>116.39999999999999</ele><time>2026-04-28T15:01:38Z</time></trkpt><trkpt lat="28.741044217927293" lon="-10.79984441450009"><ele>116.19999999999999</ele><time>2026-04-28T15:01:39Z</time></trkpt><trkpt lat="28.740995326380478" lon="-10.79973178310867"><ele>116.0</ele><time>2026-04-28T15:01:40Z</time></trkpt><trkpt lat="28.74096323432422" lon="-10.799663579545305"><ele>116.0</ele><time>2026-04-28T15:01:41Z</time></trkpt><trkpt lat="28.740865939269415" lon="-10.799631355385044"><ele>116.0</ele><time>2026-04-28T15:01:43Z</time></trkpt><trkpt lat="28.74072636812787" lon="-10.79963291732659"><ele>116.0</ele><time>2026-04-28T15:01:45Z</time></trkpt><trkpt lat="28.740610336724632" lon="-10.799590720262614"><ele>116.0</ele><time>2026-04-28T15:01:47Z</time></trkpt><trkpt lat="28.7405405202306" lon="-10.799532684305154"><ele>116.0</ele><time>2026-04-28T15:01:48Z</time></trkpt><trkpt lat="28.74045947917887" lon="-10.799456034154488"><ele>115.99999999999999</ele><time>2026-04-28T15:01:49Z</time></trkpt><trkpt lat="28.74038478144148" lon="-10.799384139761894"><ele>116.0</ele><time>2026-04-28T15:01:50Z</time></trkpt><trkpt lat="28.74031802984746" lon="-10.799320859930193"><ele>116.0</ele><time>2026-04-28T15:01:51Z</time></trkpt><trkpt lat="28.74025319739602" lon="-10.799268934390994"><ele>116.0</ele><time>2026-04-28T15:01:52Z</time></trkpt><trkpt lat="28.740191557481687" lon="-10.799218075663116"><ele>115.99999999999999</ele><time>2026-04-28T15:01:53Z</time></trkpt><trkpt lat="28.740127024709714" lon="-10.799174625563746"><ele>116.0</ele><time>2026-04-28T15:01:54Z</time></trkpt><trkpt lat="28.740058644901836" lon="-10.799117247348525"><ele>117.33333333333333</ele><time>2026-04-28T15:01:55Z</time></trkpt><trkpt lat="28.739989587777185" lon="-10.799063363783857"><ele>118.66666666666666</ele><time>2026-04-28T15:01:56Z</time></trkpt><trkpt lat="28.73993206365445" lon="-10.79901887276793"><ele>120.0</ele><time>2026-04-28T15:01:57Z</time></trkpt><trkpt lat="28.739857812603617" lon="-10.798950466826955"><ele>121.33333333333334</ele><time>2026-04-28T15:01:58Z</time></trkpt><trkpt lat="28.739798888018893" lon="-10.798904582791238"><ele>122.66666666666667</ele><time>2026-04-28T15:01:59Z</time></trkpt><trkpt lat="28.739720701458193" lon="-10.798848034197968"><ele>124.0</ele><time>2026-04-28T15:02:00Z</time></trkpt><trkpt lat="28.739642032827113" lon="-10.798792577529435"><ele>124.0</ele><time>2026-04-28T15:02:01Z</time></trkpt><trkpt lat="28.73954111167487" lon="-10.798721308628108"><ele>124.0</ele><time>2026-04-28T15:02:02Z</time></trkpt><trkpt lat="28.73946100308753" lon="-10.7986712495397"><ele>124.0</ele><time>2026-04-28T15:02:03Z</time></trkpt><trkpt lat="28.73936030244784" lon="-10.798586153602962"><ele>124.0</ele><time>2026-04-28T15:02:05Z</time></trkpt><trkpt lat="28.739297364940896" lon="-10.798521974839362"><ele>124.0</ele><time>2026-04-28T15:02:06Z</time></trkpt><trkpt lat="28.73922617801165" lon="-10.798463200596013"><ele>124.80000000000001</ele><time>2026-04-28T15:02:07Z</time></trkpt><trkpt lat="28.739159648461428" lon="-10.798424796953073"><ele>125.60000000000001</ele><time>2026-04-28T15:02:08Z</time></trkpt><trkpt lat="28.739060247697317" lon="-10.798370420859511"><ele>126.4</ele><time>2026-04-28T15:02:09Z</time></trkpt><trkpt lat="28.738956371948014" lon="-10.798321413860892"><ele>127.2</ele><time>2026-04-28T15:02:10Z</time></trkpt><trkpt lat="28.73885424752398" lon="-10.798269683900205"><ele>128.0</ele><time>2026-04-28T15:02:11Z</time></trkpt><trkpt lat="28.738749389183507" lon="-10.798212187398274"><ele>128.0</ele><time>2026-04-28T15:02:12Z</time></trkpt><trkpt lat="28.738648227588964" lon="-10.79816375323622"><ele>128.0</ele><time>2026-04-28T15:02:13Z</time></trkpt><trkpt lat="28.73855021885614" lon="-10.798127611226677"><ele>128.0</ele><time>2026-04-28T15:02:14Z</time></trkpt><trkpt lat="28.738463065385222" lon="-10.798116757475492"><ele>128.0</ele><time>2026-04-28T15:02:15Z</time></trkpt><trkpt lat="28.738356618284833" lon="-10.798104335130024"><ele>128.0</ele><time>2026-04-28T15:02:16Z</time></trkpt><trkpt lat="28.73826943583838" lon="-10.79808570459414"><ele>128.4</ele><time>2026-04-28T15:02:17Z</time></trkpt><trkpt lat="28.738177157491844" lon="-10.798042739606815"><ele>128.8</ele><time>2026-04-28T15:02:18Z</time></trkpt><trkpt lat="28.7380761882953" lon="-10.797979176075318"><ele>129.2</ele><time>2026-04-28T15:02:19Z</time></trkpt><trkpt lat="28.737971762026326" lon="-10.797927124622042"><ele>129.6</ele><time>2026-04-28T15:02:20Z</time></trkpt><trkpt lat="28.737869991278068" lon="-10.797885587618847"><ele>130.0</ele><time>2026-04-28T15:02:21Z</time></trkpt><trkpt lat="28.73775008989464" lon="-10.797845536051511"><ele>129.66666666666669</ele><time>2026-04-28T15:02:22Z</time></trkpt><trkpt lat="28.73760917720447" lon="-10.797811948092868"><ele>129.33333333333334</ele><time>2026-04-28T15:02:23Z</time></trkpt><trkpt lat="28.7374495808778" lon="-10.797770545679827"><ele>129.0</ele><time>2026-04-28T15:02:24Z</time></trkpt><trkpt lat="28.7372912594403" lon="-10.797739016806126"><ele>129.0</ele><time>2026-04-28T15:02:25Z</time></trkpt><trkpt lat="28.737143717482223" lon="-10.797714951013058"><ele>129.0</ele><time>2026-04-28T15:02:26Z</time></trkpt><trkpt lat="28.737018999930417" lon="-10.79769222264359"><ele>129.0</ele><time>2026-04-28T15:02:27Z</time></trkpt><trkpt lat="28.736916326952695" lon="-10.797663741274802"><ele>129.0</ele><time>2026-04-28T15:02:28Z</time></trkpt><trkpt lat="28.736833224837884" lon="-10.797635746668568"><ele>128.6</ele><time>2026-04-28T15:02:29Z</time></trkpt><trkpt lat="28.736753932556212" lon="-10.797606257026331"><ele>128.2</ele><time>2026-04-28T15:02:30Z</time></trkpt><trkpt lat="28.73665064155722" lon="-10.797555503618037"><ele>127.79999999999998</ele><time>2026-04-28T15:02:31Z</time></trkpt><trkpt lat="28.736555620621047" lon="-10.797494649803829"><ele>127.39999999999999</ele><time>2026-04-28T15:02:32Z</time></trkpt><trkpt lat="28.73645665794918" lon="-10.797428933488039"><ele>127.0</ele><time>2026-04-28T15:02:33Z</time></trkpt><trkpt lat="28.736357826143216" lon="-10.797370384391604"><ele>127.0</ele><time>2026-04-28T15:02:34Z</time></trkpt><trkpt lat="28.736245540122827" lon="-10.797311480096207"><ele>127.0</ele><time>2026-04-28T15:02:35Z</time></trkpt><trkpt lat="28.736129377709716" lon="-10.797250647139014"><ele>127.0</ele><time>2026-04-28T15:02:36Z</time></trkpt><trkpt lat="28.736010342464823" lon="-10.797200038829297"><ele>127.0</ele><time>2026-04-28T15:02:37Z</time></trkpt><trkpt lat="28.7358920132463" lon="-10.797171204949207"><ele>128.0</ele><time>2026-04-28T15:02:38Z</time></trkpt><trkpt lat="28.735762392413317" lon="-10.797138403063842"><ele>129.0</ele><time>2026-04-28T15:02:39Z</time></trkpt><trkpt lat="28.73563178501498" lon="-10.797088239016913"><ele>130.0</ele><time>2026-04-28T15:02:40Z</time></trkpt><trkpt lat="28.735504502228846" lon="-10.797029222189416"><ele>131.0</ele><time>2026-04-28T15:02:41Z</time></trkpt><trkpt lat="28.735379943342842" lon="-10.796957417050743"><ele>131.0</ele><time>2026-04-28T15:02:42Z</time></trkpt><trkpt lat="28.735253085445432" lon="-10.796880628437561"><ele>131.0</ele><time>2026-04-28T15:02:43Z</time></trkpt><trkpt lat="28.735122845836667" lon="-10.796813728201595"><ele>131.0</ele><time>2026-04-28T15:02:44Z</time></trkpt><trkpt lat="28.73498193984459" lon="-10.796758632905306"><ele>131.0</ele><time>2026-04-28T15:02:45Z</time></trkpt><trkpt lat="28.734846938574787" lon="-10.796701274050553"><ele>130.66666666666666</ele><time>2026-04-28T15:02:46Z</time></trkpt><trkpt lat="28.73470262064611" lon="-10.796633295202218"><ele>130.33333333333334</ele><time>2026-04-28T15:02:47Z</time></trkpt><trkpt lat="28.734565916309265" lon="-10.796552520299407"><ele>130.0</ele><time>2026-04-28T15:02:48Z</time></trkpt><trkpt lat="28.734427507866453" lon="-10.796466162291914"><ele>130.25</ele><time>2026-04-28T15:02:49Z</time></trkpt><trkpt lat="28.734297040996594" lon="-10.796390936174491"><ele>130.5</ele><time>2026-04-28T15:02:50Z</time></trkpt><trkpt lat="28.734171398412872" lon="-10.796338062048362"><ele>130.75</ele><time>2026-04-28T15:02:51Z</time></trkpt><trkpt lat="28.734041722831353" lon="-10.796279677911489"><ele>131.0</ele><time>2026-04-28T15:02:52Z</time></trkpt><trkpt lat="28.73391838940577" lon="-10.796218054932751"><ele>131.0</ele><time>2026-04-28T15:02:53Z</time></trkpt><trkpt lat="28.733803686852603" lon="-10.796136826753534"><ele>131.0</ele><time>2026-04-28T15:02:54Z</time></trkpt><trkpt lat="28.733702451961186" lon="-10.796047708682817"><ele>131.0</ele><time>2026-04-28T15:02:55Z</time></trkpt><trkpt lat="28.733607052275826" lon="-10.795956512514703"><ele>131.0</ele><time>2026-04-28T15:02:56Z</time></trkpt><trkpt lat="28.733512815945517" lon="-10.79586943449162"><ele>130.6</ele><time>2026-04-28T15:02:57Z</time></trkpt><trkpt lat="28.733427211047857" lon="-10.795791616192316"><ele>130.2</ele><time>2026-04-28T15:02:58Z</time></trkpt><trkpt lat="28.733338882890166" lon="-10.795714377845588"><ele>129.8</ele><time>2026-04-28T15:02:59Z</time></trkpt><trkpt lat="28.733252530459783" lon="-10.795630188074508"><ele>129.4</ele><time>2026-04-28T15:03:00Z</time></trkpt><trkpt lat="28.733174774390253" lon="-10.7955443435855"><ele>129.0</ele><time>2026-04-28T15:03:01Z</time></trkpt><trkpt lat="28.733098611171346" lon="-10.795462327624525"><ele>129.0</ele><time>2026-04-28T15:03:02Z</time></trkpt><trkpt lat="28.733033853483583" lon="-10.795385212968238"><ele>129.0</ele><time>2026-04-28T15:03:03Z</time></trkpt><trkpt lat="28.732954551544765" lon="-10.795298951659197"><ele>129.0</ele><time>2026-04-28T15:03:04Z</time></trkpt><trkpt lat="28.73286134214561" lon="-10.79522504213031"><ele>129.0</ele><time>2026-04-28T15:03:05Z</time></trkpt><trkpt lat="28.73278484534165" lon="-10.795139722238432"><ele>129.0</ele><time>2026-04-28T15:03:06Z</time></trkpt><trkpt lat="28.732705240906938" lon="-10.795052192939885"><ele>128.8</ele><time>2026-04-28T15:03:07Z</time></trkpt><trkpt lat="28.732631180830715" lon="-10.794970794857642"><ele>128.60000000000002</ele><time>2026-04-28T15:03:08Z</time></trkpt><trkpt lat="28.732553209647286" lon="-10.794885098028518"><ele>128.4</ele><time>2026-04-28T15:03:09Z</time></trkpt><trkpt lat="28.732465673656087" lon="-10.79478888872609"><ele>128.20000000000002</ele><time>2026-04-28T15:03:10Z</time></trkpt><trkpt lat="28.73238389016461" lon="-10.794698958084373"><ele>128.0</ele><time>2026-04-28T15:03:11Z</time></trkpt><trkpt lat="28.73228839461437" lon="-10.79459204496226"><ele>128.0</ele><time>2026-04-28T15:03:12Z</time></trkpt><trkpt lat="28.732249484884168" lon="-10.794506417145374"><ele>128.0</ele><time>2026-04-28T15:03:13Z</time></trkpt><trkpt lat="28.732189272699603" lon="-10.794373909399084"><ele>128.0</ele><time>2026-04-28T15:03:15Z</time></trkpt><trkpt lat="28.732164024256114" lon="-10.794279331565555"><ele>128.0</ele><time>2026-04-28T15:03:16Z</time></trkpt><trkpt lat="28.7321003582347" lon="-10.794178319414737"><ele>128.0</ele><time>2026-04-28T15:03:17Z</time></trkpt><trkpt lat="28.73204914731931" lon="-10.794045213964713"><ele>128.0</ele><time>2026-04-28T15:03:18Z</time></trkpt><trkpt lat="28.731988971527173" lon="-10.793903211431763"><ele>128.0</ele><time>2026-04-28T15:03:19Z</time></trkpt><trkpt lat="28.7319202155892" lon="-10.793781027140726"><ele>128.0</ele><time>2026-04-28T15:03:20Z</time></trkpt><trkpt lat="28.731861206560797" lon="-10.793651380542382"><ele>128.0</ele><time>2026-04-28T15:03:21Z</time></trkpt><trkpt lat="28.731804928609428" lon="-10.793527243385975"><ele>127.0</ele><time>2026-04-28T15:03:22Z</time></trkpt><trkpt lat="28.731754657069896" lon="-10.793415815515813"><ele>126.00000000000001</ele><time>2026-04-28T15:03:23Z</time></trkpt><trkpt lat="28.731708073411703" lon="-10.793313469714624"><ele>125.00000000000001</ele><time>2026-04-28T15:03:24Z</time></trkpt><trkpt lat="28.731655618925604" lon="-10.793198332189013"><ele>124.0</ele><time>2026-04-28T15:03:25Z</time></trkpt><trkpt lat="28.731599606656538" lon="-10.793075385206098"><ele>123.0</ele><time>2026-04-28T15:03:26Z</time></trkpt><trkpt lat="28.73154256880451" lon="-10.79295018705257"><ele>123.0</ele><time>2026-04-28T15:03:27Z</time></trkpt><trkpt lat="28.731487834833086" lon="-10.792830045967248"><ele>123.0</ele><time>2026-04-28T15:03:28Z</time></trkpt><trkpt lat="28.731429744951345" lon="-10.792688434776453"><ele>123.0</ele><time>2026-04-28T15:03:29Z</time></trkpt><trkpt lat="28.73138408914354" lon="-10.792556230658723"><ele>123.0</ele><time>2026-04-28T15:03:30Z</time></trkpt><trkpt lat="28.731336494968197" lon="-10.792418413791633"><ele>122.75</ele><time>2026-04-28T15:03:31Z</time></trkpt><trkpt lat="28.73128846485238" lon="-10.792278660794949"><ele>122.5</ele><time>2026-04-28T15:03:32Z</time></trkpt><trkpt lat="28.731242400945543" lon="-10.792144424193282"><ele>122.25</ele><time>2026-04-28T15:03:33Z</time></trkpt><trkpt lat="28.731198415689004" lon="-10.792016245205529"><ele>122.0</ele><time>2026-04-28T15:03:34Z</time></trkpt><trkpt lat="28.73115347729576" lon="-10.791885288400643"><ele>121.5</ele><time>2026-04-28T15:03:35Z</time></trkpt><trkpt lat="28.73110943883695" lon="-10.791756954332376"><ele>121.0</ele><time>2026-04-28T15:03:36Z</time></trkpt><trkpt lat="28.73105795977034" lon="-10.791607554066443"><ele>120.5</ele><time>2026-04-28T15:03:37Z</time></trkpt><trkpt lat="28.731017469603213" lon="-10.79143915831549"><ele>120.0</ele><time>2026-04-28T15:03:38Z</time></trkpt><trkpt lat="28.730958475809114" lon="-10.791279336285886"><ele>119.66666666666666</ele><time>2026-04-28T15:03:39Z</time></trkpt><trkpt lat="28.730900450132584" lon="-10.791114162826162"><ele>119.33333333333333</ele><time>2026-04-28T15:03:40Z</time></trkpt><trkpt lat="28.730839325963185" lon="-10.790953453784827"><ele>119.0</ele><time>2026-04-28T15:03:41Z</time></trkpt><trkpt lat="28.730773131087595" lon="-10.790800057048619"><ele>118.75</ele><time>2026-04-28T15:03:42Z</time></trkpt><trkpt lat="28.730713769332365" lon="-10.790641523496237"><ele>118.5</ele><time>2026-04-28T15:03:43Z</time></trkpt><trkpt lat="28.73067128149466" lon="-10.790499393083506"><ele>118.25</ele><time>2026-04-28T15:03:44Z</time></trkpt><trkpt lat="28.730644964645684" lon="-10.790373462812468"><ele>118.0</ele><time>2026-04-28T15:03:45Z</time></trkpt><trkpt lat="28.730610326451306" lon="-10.790257598800604"><ele>118.0</ele><time>2026-04-28T15:03:46Z</time></trkpt><trkpt lat="28.73057445692473" lon="-10.790149078078393"><ele>118.00000000000001</ele><time>2026-04-28T15:03:47Z</time></trkpt><trkpt lat="28.73051725478204" lon="-10.790034875133454"><ele>118.00000000000001</ele><time>2026-04-28T15:03:48Z</time></trkpt><trkpt lat="28.730479387933944" lon="-10.789925082641648"><ele>118.0</ele><time>2026-04-28T15:03:49Z</time></trkpt><trkpt lat="28.730446637915836" lon="-10.789830316038689"><ele>118.0</ele><time>2026-04-28T15:03:50Z</time></trkpt><trkpt lat="28.73037115221446" lon="-10.789751698007636"><ele>118.0</ele><time>2026-04-28T15:03:51Z</time></trkpt><trkpt lat="28.730271489037584" lon="-10.789625959198725"><ele>118.0</ele><time>2026-04-28T15:03:52Z</time></trkpt><trkpt lat="28.730185866425078" lon="-10.789518691254903"><ele>118.0</ele><time>2026-04-28T15:03:53Z</time></trkpt><trkpt lat="28.73010518584871" lon="-10.789417039473951"><ele>118.0</ele><time>2026-04-28T15:03:54Z</time></trkpt><trkpt lat="28.729971119982597" lon="-10.789363935841765"><ele>118.0</ele><time>2026-04-28T15:03:55Z</time></trkpt><trkpt lat="28.729838141346242" lon="-10.78919188580514"><ele>118.0</ele><time>2026-04-28T15:03:56Z</time></trkpt><trkpt lat="28.729780768682236" lon="-10.789067390058605"><ele>118.0</ele><time>2026-04-28T15:03:57Z</time></trkpt><trkpt lat="28.72973436715264" lon="-10.788966699662764"><ele>118.0</ele><time>2026-04-28T15:03:58Z</time></trkpt><trkpt lat="28.72977244747826" lon="-10.788779913719022"><ele>118.0</ele><time>2026-04-28T15:03:59Z</time></trkpt><trkpt lat="28.729764265102453" lon="-10.788663836595447"><ele>118.00000000000001</ele><time>2026-04-28T15:04:00Z</time></trkpt><trkpt lat="28.72975689771386" lon="-10.78854913982252"><ele>118.00000000000001</ele><time>2026-04-28T15:04:01Z</time></trkpt><trkpt lat="28.729748755577983" lon="-10.788432739401852"><ele>118.0</ele><time>2026-04-28T15:04:02Z</time></trkpt><trkpt lat="28.729740355585918" lon="-10.788282404891037"><ele>118.0</ele><time>2026-04-28T15:04:03Z</time></trkpt><trkpt lat="28.729736082587046" lon="-10.788121979681046"><ele>117.33333333333334</ele><time>2026-04-28T15:04:04Z</time></trkpt><trkpt lat="28.729731354813772" lon="-10.787933885414905"><ele>116.66666666666666</ele><time>2026-04-28T15:04:05Z</time></trkpt><trkpt lat="28.72972684653932" lon="-10.787752454812564"><ele>116.0</ele><time>2026-04-28T15:04:06Z</time></trkpt><trkpt lat="28.729721588586678" lon="-10.78755550021164"><ele>114.66666666666666</ele><time>2026-04-28T15:04:07Z</time></trkpt><trkpt lat="28.729729192829687" lon="-10.787366146174401"><ele>113.33333333333334</ele><time>2026-04-28T15:04:08Z</time></trkpt><trkpt lat="28.72968087372821" lon="-10.787205450594588"><ele>112.0</ele><time>2026-04-28T15:04:09Z</time></trkpt><trkpt lat="28.729627716320117" lon="-10.787049224595018"><ele>112.0</ele><time>2026-04-28T15:04:10Z</time></trkpt><trkpt lat="28.72958050749063" lon="-10.78690985789182"><ele>112.0</ele><time>2026-04-28T15:04:11Z</time></trkpt><trkpt lat="28.729535917640128" lon="-10.7867781391615"><ele>112.0</ele><time>2026-04-28T15:04:12Z</time></trkpt><trkpt lat="28.729490896443448" lon="-10.786645146190947"><ele>112.0</ele><time>2026-04-28T15:04:13Z</time></trkpt><trkpt lat="28.729442907053947" lon="-10.786504931713608"><ele>111.8</ele><time>2026-04-28T15:04:14Z</time></trkpt><trkpt lat="28.72944002885086" lon="-10.786334911291037"><ele>111.6</ele><time>2026-04-28T15:04:15Z</time></trkpt><trkpt lat="28.72943038541217" lon="-10.786210940672897"><ele>111.39999999999999</ele><time>2026-04-28T15:04:16Z</time></trkpt><trkpt lat="28.72942182869156" lon="-10.786100940155219"><ele>111.19999999999999</ele><time>2026-04-28T15:04:17Z</time></trkpt><trkpt lat="28.729411345879228" lon="-10.786000423625378"><ele>111.0</ele><time>2026-04-28T15:04:18Z</time></trkpt><trkpt lat="28.72941414381332" lon="-10.785912154694316"><ele>111.0</ele><time>2026-04-28T15:04:19Z</time></trkpt><trkpt lat="28.72939711419781" lon="-10.78578115279877"><ele>111.0</ele><time>2026-04-28T15:04:21Z</time></trkpt><trkpt lat="28.729388491299332" lon="-10.785668189505001"><ele>111.0</ele><time>2026-04-28T15:04:23Z</time></trkpt><trkpt lat="28.72937977485954" lon="-10.785554511077454"><ele>111.0</ele><time>2026-04-28T15:04:25Z</time></trkpt><trkpt lat="28.729342678010862" lon="-10.785420847983064"><ele>111.0</ele><time>2026-04-28T15:04:28Z</time></trkpt><trkpt lat="28.729296552625406" lon="-10.785303777129387"><ele>111.6</ele><time>2026-04-28T15:04:30Z</time></trkpt><trkpt lat="28.729267887066523" lon="-10.785184080789918"><ele>112.19999999999999</ele><time>2026-04-28T15:04:32Z</time></trkpt><trkpt lat="28.729247858805344" lon="-10.78507920627296"><ele>112.80000000000001</ele><time>2026-04-28T15:04:34Z</time></trkpt><trkpt lat="28.729215819148454" lon="-10.784963764695345"><ele>113.4</ele><time>2026-04-28T15:04:36Z</time></trkpt><trkpt lat="28.729192711558948" lon="-10.78488050608992"><ele>114.0</ele><time>2026-04-28T15:04:39Z</time></trkpt><trkpt lat="28.72910109771857" lon="-10.784902529580226"><ele>112.83333333333333</ele><time>2026-04-28T15:06:06Z</time></trkpt><trkpt lat="28.728992632333803" lon="-10.78486365844234"><ele>111.66666666666666</ele><time>2026-04-28T15:06:10Z</time></trkpt><trkpt lat="28.728918804695724" lon="-10.784876040848902"><ele>110.5</ele><time>2026-04-28T15:06:11Z</time></trkpt><trkpt lat="28.728829475490578" lon="-10.784894411179735"><ele>109.33333333333333</ele><time>2026-04-28T15:06:12Z</time></trkpt><trkpt lat="28.728757510890706" lon="-10.78490477453455"><ele>108.16666666666666</ele><time>2026-04-28T15:06:13Z</time></trkpt><trkpt lat="28.728685564661497" lon="-10.784916164917052"><ele>107.0</ele><time>2026-04-28T15:06:14Z</time></trkpt><trkpt lat="28.7285820692879" lon="-10.784937257723824"><ele>107.75</ele><time>2026-04-28T15:06:15Z</time></trkpt><trkpt lat="28.728479075554162" lon="-10.78494989643121"><ele>108.5</ele><time>2026-04-28T15:06:16Z</time></trkpt><trkpt lat="28.72835357960688" lon="-10.784966345437017"><ele>109.25</ele><time>2026-04-28T15:06:17Z</time></trkpt><trkpt lat="28.728216395210833" lon="-10.784978535011001"><ele>110.0</ele><time>2026-04-28T15:06:18Z</time></trkpt><trkpt lat="28.728080168145116" lon="-10.78498597161843"><ele>110.0</ele><time>2026-04-28T15:06:19Z</time></trkpt><trkpt lat="28.727960171728625" lon="-10.784980751500491"><ele>110.0</ele><time>2026-04-28T15:06:20Z</time></trkpt><trkpt lat="28.72785600298959" lon="-10.784967731293587"><ele>110.0</ele><time>2026-04-28T15:06:21Z</time></trkpt><trkpt lat="28.727762572090086" lon="-10.78495772622174"><ele>110.0</ele><time>2026-04-28T15:06:22Z</time></trkpt><trkpt lat="28.727664398515387" lon="-10.784931397313994"><ele>110.0</ele><time>2026-04-28T15:06:23Z</time></trkpt><trkpt lat="28.72756567562021" lon="-10.784884166300987"><ele>110.0</ele><time>2026-04-28T15:06:24Z</time></trkpt><trkpt lat="28.727464955104278" lon="-10.784816293548749"><ele>110.0</ele><time>2026-04-28T15:06:25Z</time></trkpt><trkpt lat="28.72736584346267" lon="-10.78473826508416"><ele>110.0</ele><time>2026-04-28T15:06:26Z</time></trkpt><trkpt lat="28.72721572824632" lon="-10.784664129653267"><ele>110.0</ele><time>2026-04-28T15:06:27Z</time></trkpt><trkpt lat="28.727089975011047" lon="-10.784590099366872"><ele>110.0</ele><time>2026-04-28T15:06:28Z</time></trkpt><trkpt lat="28.726969481474345" lon="-10.784518632594773"><ele>110.0</ele><time>2026-04-28T15:06:29Z</time></trkpt><trkpt lat="28.72684628895597" lon="-10.784445564987175"><ele>110.0</ele><time>2026-04-28T15:06:30Z</time></trkpt><trkpt lat="28.72672779547497" lon="-10.784375284420562"><ele>110.0</ele><time>2026-04-28T15:06:31Z</time></trkpt><trkpt lat="28.72662970093173" lon="-10.784317102839653"><ele>109.83333333333333</ele><time>2026-04-28T15:06:32Z</time></trkpt><trkpt lat="28.726559382717436" lon="-10.784262257528432"><ele>109.66666666666666</ele><time>2026-04-28T15:06:33Z</time></trkpt><trkpt lat="28.726473168455744" lon="-10.784226198431783"><ele>109.5</ele><time>2026-04-28T15:06:34Z</time></trkpt><trkpt lat="28.726402336239236" lon="-10.784191194715083"><ele>109.33333333333334</ele><time>2026-04-28T15:06:35Z</time></trkpt><trkpt lat="28.72635083508684" lon="-10.784142341611593"><ele>109.16666666666667</ele><time>2026-04-28T15:06:36Z</time></trkpt><trkpt lat="28.726274760199182" lon="-10.78408198142014"><ele>109.0</ele><time>2026-04-28T15:06:37Z</time></trkpt><trkpt lat="28.726233506724654" lon="-10.783973056670778"><ele>109.0</ele><time>2026-04-28T15:06:38Z</time></trkpt><trkpt lat="28.726199116535952" lon="-10.783800457579913"><ele>109.0</ele><time>2026-04-28T15:06:39Z</time></trkpt><trkpt lat="28.726194241277867" lon="-10.783634232064985"><ele>109.0</ele><time>2026-04-28T15:06:40Z</time></trkpt><trkpt lat="28.726191087811326" lon="-10.783526713029671"><ele>109.0</ele><time>2026-04-28T15:06:41Z</time></trkpt><trkpt lat="28.726188671142665" lon="-10.783444316729513"><ele>109.5</ele><time>2026-04-28T15:06:42Z</time></trkpt><trkpt lat="28.726271981413294" lon="-10.783362162621954"><ele>110.0</ele><time>2026-04-28T15:06:42.999Z</time></trkpt><trkpt lat="28.726303394743915" lon="-10.783277489907569"><ele>110.5</ele><time>2026-04-28T15:06:43.999Z</time></trkpt><trkpt lat="28.726411090423337" lon="-10.783203934530592"><ele>111.0</ele><time>2026-04-28T15:06:44.999Z</time></trkpt><trkpt lat="28.72653806422253" lon="-10.783116468505193"><ele>111.0</ele><time>2026-04-28T15:06:45.999Z</time></trkpt><trkpt lat="28.72667486005642" lon="-10.783022235919882"><ele>111.0</ele><time>2026-04-28T15:06:46.999Z</time></trkpt><trkpt lat="28.72681232348299" lon="-10.782927543382051"><ele>111.0</ele><time>2026-04-28T15:06:47.999Z</time></trkpt><trkpt lat="28.726931769382563" lon="-10.782844774955889"><ele>110.25</ele><time>2026-04-28T15:06:48.999Z</time></trkpt><trkpt lat="28.72703829782215" lon="-10.782770790697693"><ele>109.5</ele><time>2026-04-28T15:06:49.999Z</time></trkpt><trkpt lat="28.727136111086857" lon="-10.782702985993957"><ele>108.75</ele><time>2026-04-28T15:06:50.999Z</time></trkpt><trkpt lat="28.72725088924842" lon="-10.782623421449573"><ele>108.0</ele><time>2026-04-28T15:06:51.999Z</time></trkpt><trkpt lat="28.727306835235964" lon="-10.782520348712016"><ele>108.0</ele><time>2026-04-28T15:06:52.999Z</time></trkpt><trkpt lat="28.72737986278505" lon="-10.782402503816463"><ele>108.00000000000001</ele><time>2026-04-28T15:06:53.999Z</time></trkpt><trkpt lat="28.727443878574885" lon="-10.782299151739803"><ele>108.00000000000001</ele><time>2026-04-28T15:06:54.999Z</time></trkpt><trkpt lat="28.72749736029129" lon="-10.782212818229524"><ele>108.0</ele><time>2026-04-28T15:06:56Z</time></trkpt><trkpt lat="28.727547911248756" lon="-10.782131222558636"><ele>108.0</ele><time>2026-04-28T15:06:57Z</time></trkpt><trkpt lat="28.727599419210595" lon="-10.782048082112857"><ele>108.0</ele><time>2026-04-28T15:06:58Z</time></trkpt><trkpt lat="28.727651690734845" lon="-10.781963709340813"><ele>108.00000000000001</ele><time>2026-04-28T15:06:59Z</time></trkpt><trkpt lat="28.72770334589434" lon="-10.78188033135406"><ele>108.00000000000001</ele><time>2026-04-28T15:07:00Z</time></trkpt><trkpt lat="28.727757689488037" lon="-10.781820323058815"><ele>108.0</ele><time>2026-04-28T15:07:01Z</time></trkpt><trkpt lat="28.72779454986753" lon="-10.781665961499224"><ele>108.0</ele><time>2026-04-28T15:07:02Z</time></trkpt><trkpt lat="28.727827386774113" lon="-10.78152844840953"><ele>107.0</ele><time>2026-04-28T15:07:03Z</time></trkpt><trkpt lat="28.727860630295595" lon="-10.781389232577093"><ele>106.0</ele><time>2026-04-28T15:07:04Z</time></trkpt><trkpt lat="28.727893769806528" lon="-10.781249339807074"><ele>105.0</ele><time>2026-04-28T15:07:05Z</time></trkpt><trkpt lat="28.72792757013156" lon="-10.781106525525376"><ele>104.0</ele><time>2026-04-28T15:07:06Z</time></trkpt><trkpt lat="28.72795971035918" lon="-10.780970725498769"><ele>104.0</ele><time>2026-04-28T15:07:07Z</time></trkpt><trkpt lat="28.727989737910264" lon="-10.780845979972968"><ele>104.0</ele><time>2026-04-28T15:07:08Z</time></trkpt><trkpt lat="28.727997752678117" lon="-10.78075684458081"><ele>104.0</ele><time>2026-04-28T15:07:09Z</time></trkpt><trkpt lat="28.72799967459491" lon="-10.780645535942769"><ele>104.0</ele><time>2026-04-28T15:07:10Z</time></trkpt><trkpt lat="28.727988948290832" lon="-10.780506778765071"><ele>104.0</ele><time>2026-04-28T15:07:11Z</time></trkpt><trkpt lat="28.72795750398531" lon="-10.780408181852948"><ele>104.0</ele><time>2026-04-28T15:07:12Z</time></trkpt><trkpt lat="28.727919600478" lon="-10.780281253321855"><ele>104.0</ele><time>2026-04-28T15:07:13Z</time></trkpt><trkpt lat="28.727882355254977" lon="-10.780156529221575"><ele>104.0</ele><time>2026-04-28T15:07:14Z</time></trkpt><trkpt lat="28.72784506589384" lon="-10.780031657278197"><ele>104.0</ele><time>2026-04-28T15:07:15Z</time></trkpt><trkpt lat="28.72780776208184" lon="-10.779906777457871"><ele>103.80000000000001</ele><time>2026-04-28T15:07:16Z</time></trkpt><trkpt lat="28.727771875698206" lon="-10.779786647634939"><ele>103.60000000000001</ele><time>2026-04-28T15:07:17Z</time></trkpt><trkpt lat="28.72773830952773" lon="-10.779674284726344"><ele>103.4</ele><time>2026-04-28T15:07:18Z</time></trkpt><trkpt lat="28.727692559091086" lon="-10.779602724987893"><ele>103.2</ele><time>2026-04-28T15:07:19Z</time></trkpt><trkpt lat="28.727640512739544" lon="-10.779531751809431"><ele>103.0</ele><time>2026-04-28T15:07:20Z</time></trkpt><trkpt lat="28.72758219490054" lon="-10.779452226453275"><ele>102.80000000000001</ele><time>2026-04-28T15:07:21Z</time></trkpt><trkpt lat="28.72751998197097" lon="-10.779367389452908"><ele>102.6</ele><time>2026-04-28T15:07:22Z</time></trkpt><trkpt lat="28.727455330790484" lon="-10.779279227616613"><ele>102.4</ele><time>2026-04-28T15:07:23Z</time></trkpt><trkpt lat="28.727379884792636" lon="-10.779195154273056"><ele>102.19999999999999</ele><time>2026-04-28T15:07:24Z</time></trkpt><trkpt lat="28.72733160993599" lon="-10.779104275459737"><ele>102.0</ele><time>2026-04-28T15:07:25Z</time></trkpt><trkpt lat="28.72725414810792" lon="-10.779004883995484"><ele>102.0</ele><time>2026-04-28T15:07:26Z</time></trkpt><trkpt lat="28.72717344953543" lon="-10.778894885973724"><ele>102.0</ele><time>2026-04-28T15:07:27Z</time></trkpt><trkpt lat="28.727077467642587" lon="-10.778763588400277"><ele>102.0</ele><time>2026-04-28T15:07:28Z</time></trkpt><trkpt lat="28.72697683576894" lon="-10.778626346246021"><ele>102.0</ele><time>2026-04-28T15:07:29Z</time></trkpt><trkpt lat="28.72688509690253" lon="-10.778480627314087"><ele>101.5</ele><time>2026-04-28T15:07:30Z</time></trkpt><trkpt lat="28.72678443370223" lon="-10.778364251754292"><ele>101.0</ele><time>2026-04-28T15:07:31Z</time></trkpt><trkpt lat="28.726701012410697" lon="-10.778250613303843"><ele>100.5</ele><time>2026-04-28T15:07:32Z</time></trkpt><trkpt lat="28.726607815666817" lon="-10.778123658616297"><ele>100.0</ele><time>2026-04-28T15:07:33Z</time></trkpt><trkpt lat="28.726493054716506" lon="-10.7779673286507"><ele>100.0</ele><time>2026-04-28T15:07:34Z</time></trkpt><trkpt lat="28.72634769597322" lon="-10.777811034088495"><ele>100.0</ele><time>2026-04-28T15:07:35Z</time></trkpt><trkpt lat="28.72621347877109" lon="-10.777677395792198"><ele>100.0</ele><time>2026-04-28T15:07:36Z</time></trkpt><trkpt lat="28.726094641950613" lon="-10.777559263512186"><ele>100.0</ele><time>2026-04-28T15:07:37Z</time></trkpt><trkpt lat="28.725958851430732" lon="-10.777424661356363"><ele>100.0</ele><time>2026-04-28T15:07:38Z</time></trkpt><trkpt lat="28.72580791140049" lon="-10.777275042345986"><ele>100.0</ele><time>2026-04-28T15:07:39Z</time></trkpt><trkpt lat="28.725666087462137" lon="-10.77713445938673"><ele>100.0</ele><time>2026-04-28T15:07:40Z</time></trkpt><trkpt lat="28.725520931550385" lon="-10.776990573789464"><ele>100.0</ele><time>2026-04-28T15:07:41Z</time></trkpt><trkpt lat="28.725388312378886" lon="-10.776858670186938"><ele>100.0</ele><time>2026-04-28T15:07:42Z</time></trkpt><trkpt lat="28.72524760436927" lon="-10.776718724210362"><ele>98.66666666666667</ele><time>2026-04-28T15:07:43Z</time></trkpt><trkpt lat="28.725123272700003" lon="-10.776595183842712"><ele>97.33333333333334</ele><time>2026-04-28T15:07:44Z</time></trkpt><trkpt lat="28.725019354449017" lon="-10.776470198456082"><ele>96.0</ele><time>2026-04-28T15:07:45Z</time></trkpt><trkpt lat="28.724930746493644" lon="-10.776349324437437"><ele>96.0</ele><time>2026-04-28T15:07:46Z</time></trkpt><trkpt lat="28.72482121664411" lon="-10.776199310744337"><ele>96.0</ele><time>2026-04-28T15:07:47Z</time></trkpt><trkpt lat="28.72469247413559" lon="-10.776022522954824"><ele>96.0</ele><time>2026-04-28T15:07:48Z</time></trkpt><trkpt lat="28.724557177088666" lon="-10.775837463373652"><ele>96.33333333333334</ele><time>2026-04-28T15:07:49Z</time></trkpt><trkpt lat="28.724422443908043" lon="-10.77565635115665"><ele>96.66666666666667</ele><time>2026-04-28T15:07:50Z</time></trkpt><trkpt lat="28.72430070456092" lon="-10.775496605664028"><ele>97.0</ele><time>2026-04-28T15:07:51Z</time></trkpt><trkpt lat="28.724202589576986" lon="-10.775340471508862"><ele>98.0</ele><time>2026-04-28T15:07:52Z</time></trkpt><trkpt lat="28.724076976213954" lon="-10.775204384377089"><ele>99.0</ele><time>2026-04-28T15:07:53Z</time></trkpt><trkpt lat="28.723971812644123" lon="-10.775067025842462"><ele>100.0</ele><time>2026-04-28T15:07:54Z</time></trkpt><trkpt lat="28.72386736420315" lon="-10.77493001093187"><ele>100.0</ele><time>2026-04-28T15:07:55Z</time></trkpt><trkpt lat="28.72377764540046" lon="-10.774796152392062"><ele>100.0</ele><time>2026-04-28T15:07:56Z</time></trkpt><trkpt lat="28.723685860351114" lon="-10.77465921105272"><ele>100.0</ele><time>2026-04-28T15:07:57Z</time></trkpt><trkpt lat="28.723602598086686" lon="-10.774535613557195"><ele>100.0</ele><time>2026-04-28T15:07:58Z</time></trkpt><trkpt lat="28.72352847845336" lon="-10.774425614426189"><ele>99.8</ele><time>2026-04-28T15:07:59Z</time></trkpt><trkpt lat="28.723466988465987" lon="-10.774314986350658"><ele>99.6</ele><time>2026-04-28T15:08:00Z</time></trkpt><trkpt lat="28.723405763831007" lon="-10.774216259221324"><ele>99.4</ele><time>2026-04-28T15:08:01Z</time></trkpt><trkpt lat="28.7233381789968" lon="-10.774142692323418"><ele>99.2</ele><time>2026-04-28T15:08:02Z</time></trkpt><trkpt lat="28.72328118884385" lon="-10.774048599291024"><ele>99.0</ele><time>2026-04-28T15:08:03Z</time></trkpt><trkpt lat="28.723244575071273" lon="-10.773943955516678"><ele>99.0</ele><time>2026-04-28T15:08:04Z</time></trkpt><trkpt lat="28.72324792277208" lon="-10.773815470436045"><ele>99.0</ele><time>2026-04-28T15:08:05Z</time></trkpt><trkpt lat="28.72325090390806" lon="-10.773735483762106"><ele>99.0</ele><time>2026-04-28T15:08:06Z</time></trkpt><trkpt lat="28.7232741521434" lon="-10.773627998173277"><ele>99.0</ele><time>2026-04-28T15:08:08Z</time></trkpt><trkpt lat="28.723269628951396" lon="-10.773523154102687"><ele>99.0</ele><time>2026-04-28T15:08:31Z</time></trkpt><trkpt lat="28.723278368916418" lon="-10.773421485123565"><ele>98.75</ele><time>2026-04-28T15:08:32Z</time></trkpt><trkpt lat="28.723289129117397" lon="-10.773296315422161"><ele>98.5</ele><time>2026-04-28T15:08:33Z</time></trkpt><trkpt lat="28.723303312095847" lon="-10.773142277735294"><ele>98.25</ele><time>2026-04-28T15:08:34Z</time></trkpt><trkpt lat="28.723323647636068" lon="-10.773002108163945"><ele>98.0</ele><time>2026-04-28T15:08:35Z</time></trkpt><trkpt lat="28.72333129542733" lon="-10.772893024092735"><ele>98.0</ele><time>2026-04-28T15:08:36Z</time></trkpt><trkpt lat="28.723368648179463" lon="-10.772778709640532"><ele>98.0</ele><time>2026-04-28T15:08:37Z</time></trkpt><trkpt lat="28.72335235940609" lon="-10.772699002861497"><ele>98.0</ele><time>2026-04-28T15:08:38Z</time></trkpt><trkpt lat="28.723323872677444" lon="-10.77256463527156"><ele>98.0</ele><time>2026-04-28T15:08:40Z</time></trkpt><trkpt lat="28.723306919186314" lon="-10.772476647993143"><ele>98.0</ele><time>2026-04-28T15:08:41Z</time></trkpt><trkpt lat="28.72328774595351" lon="-10.772387284584708"><ele>98.0</ele><time>2026-04-28T15:08:42Z</time></trkpt><trkpt lat="28.72326193765241" lon="-10.772260076996886"><ele>98.0</ele><time>2026-04-28T15:08:44Z</time></trkpt><trkpt lat="28.723242825089493" lon="-10.772165872279379"><ele>98.0</ele><time>2026-04-28T15:08:45Z</time></trkpt><trkpt lat="28.72322778331902" lon="-10.772092201868185"><ele>98.0</ele><time>2026-04-28T15:08:46Z</time></trkpt><trkpt lat="28.72320641883686" lon="-10.771988017898549"><ele>98.0</ele><time>2026-04-28T15:08:47Z</time></trkpt><trkpt lat="28.7231755350481" lon="-10.771837413379686"><ele>98.0</ele><time>2026-04-28T15:08:48Z</time></trkpt><trkpt lat="28.723146633458896" lon="-10.77169647480994"><ele>98.0</ele><time>2026-04-28T15:08:49Z</time></trkpt><trkpt lat="28.723118056520992" lon="-10.771557119460029"><ele>98.0</ele><time>2026-04-28T15:08:50Z</time></trkpt><trkpt lat="28.72309962965452" lon="-10.77140961843646"><ele>98.0</ele><time>2026-04-28T15:08:51Z</time></trkpt><trkpt lat="28.72304737700219" lon="-10.771239785964228"><ele>98.0</ele><time>2026-04-28T15:08:52Z</time></trkpt><trkpt lat="28.72301099806186" lon="-10.77103197099183"><ele>98.0</ele><time>2026-04-28T15:08:53Z</time></trkpt><trkpt lat="28.72292316824062" lon="-10.770823902548534"><ele>98.0</ele><time>2026-04-28T15:08:54Z</time></trkpt><trkpt lat="28.72284031821462" lon="-10.770681182508975"><ele>98.0</ele><time>2026-04-28T15:08:55Z</time></trkpt><trkpt lat="28.722777365863667" lon="-10.770531139793974"><ele>98.0</ele><time>2026-04-28T15:08:56Z</time></trkpt><trkpt lat="28.72269881823857" lon="-10.77037197353595"><ele>98.0</ele><time>2026-04-28T15:08:57Z</time></trkpt><trkpt lat="28.722605167281092" lon="-10.77020484354158"><ele>99.33333333333333</ele><time>2026-04-28T15:08:58Z</time></trkpt><trkpt lat="28.72250511704364" lon="-10.770045916235983"><ele>100.66666666666666</ele><time>2026-04-28T15:08:59Z</time></trkpt><trkpt lat="28.72242075843752" lon="-10.769861915795017"><ele>102.0</ele><time>2026-04-28T15:09:00Z</time></trkpt><trkpt lat="28.722325942695157" lon="-10.769681451247465"><ele>102.0</ele><time>2026-04-28T15:09:01Z</time></trkpt><trkpt lat="28.722222106909722" lon="-10.769516715466677"><ele>102.0</ele><time>2026-04-28T15:09:02Z</time></trkpt><trkpt lat="28.722142618722085" lon="-10.76933374643203"><ele>102.0</ele><time>2026-04-28T15:09:03Z</time></trkpt><trkpt lat="28.72206175530798" lon="-10.769145629548776"><ele>102.0</ele><time>2026-04-28T15:09:04Z</time></trkpt><trkpt lat="28.721956614485237" lon="-10.768965438241795"><ele>102.0</ele><time>2026-04-28T15:09:05Z</time></trkpt><trkpt lat="28.721874004771013" lon="-10.7687901137659"><ele>102.0</ele><time>2026-04-28T15:09:06Z</time></trkpt><trkpt lat="28.721789813865644" lon="-10.768610873120265"><ele>102.33333333333334</ele><time>2026-04-28T15:09:07Z</time></trkpt><trkpt lat="28.721711326089714" lon="-10.768443212576829"><ele>102.66666666666667</ele><time>2026-04-28T15:09:08Z</time></trkpt><trkpt lat="28.721636643529948" lon="-10.7682852671152"><ele>103.0</ele><time>2026-04-28T15:09:09Z</time></trkpt><trkpt lat="28.72155683915051" lon="-10.768115221240553"><ele>103.0</ele><time>2026-04-28T15:09:10Z</time></trkpt><trkpt lat="28.72147876381011" lon="-10.767948178513464"><ele>103.0</ele><time>2026-04-28T15:09:11Z</time></trkpt><trkpt lat="28.72140980266925" lon="-10.767796136645154"><ele>103.0</ele><time>2026-04-28T15:09:12Z</time></trkpt><trkpt lat="28.721338132751885" lon="-10.767665610475783"><ele>103.0</ele><time>2026-04-28T15:09:13Z</time></trkpt><trkpt lat="28.72127959906145" lon="-10.767522615073833"><ele>103.0</ele><time>2026-04-28T15:09:14Z</time></trkpt><trkpt lat="28.721210845665276" lon="-10.767376121347835"><ele>103.0</ele><time>2026-04-28T15:09:15Z</time></trkpt><trkpt lat="28.72113761251958" lon="-10.76722008266419"><ele>103.0</ele><time>2026-04-28T15:09:16Z</time></trkpt><trkpt lat="28.721071749623707" lon="-10.767083168675615"><ele>102.75</ele><time>2026-04-28T15:09:17Z</time></trkpt><trkpt lat="28.721003402610194" lon="-10.7669508729834"><ele>102.5</ele><time>2026-04-28T15:09:18Z</time></trkpt><trkpt lat="28.720926755900567" lon="-10.766815187152915"><ele>102.25</ele><time>2026-04-28T15:09:19Z</time></trkpt><trkpt lat="28.720848292169432" lon="-10.766669285661704"><ele>102.0</ele><time>2026-04-28T15:09:20Z</time></trkpt><trkpt lat="28.720762794146545" lon="-10.76651195147892"><ele>102.0</ele><time>2026-04-28T15:09:21Z</time></trkpt><trkpt lat="28.720671103607177" lon="-10.766341136715607"><ele>102.0</ele><time>2026-04-28T15:09:22Z</time></trkpt><trkpt lat="28.720592269792817" lon="-10.766162090496158"><ele>102.0</ele><time>2026-04-28T15:09:23Z</time></trkpt><trkpt lat="28.720490101454466" lon="-10.76601465836124"><ele>102.33333333333334</ele><time>2026-04-28T15:09:24Z</time></trkpt><trkpt lat="28.720401808084365" lon="-10.765862425547816"><ele>102.66666666666667</ele><time>2026-04-28T15:09:25Z</time></trkpt><trkpt lat="28.720314413216105" lon="-10.765711745465635"><ele>103.0</ele><time>2026-04-28T15:09:26Z</time></trkpt><trkpt lat="28.720231342305166" lon="-10.765568040605828"><ele>103.33333333333334</ele><time>2026-04-28T15:09:27Z</time></trkpt><trkpt lat="28.720148505250616" lon="-10.765425065504319"><ele>103.66666666666666</ele><time>2026-04-28T15:09:28Z</time></trkpt><trkpt lat="28.72006331720629" lon="-10.765278242681367"><ele>104.0</ele><time>2026-04-28T15:09:29Z</time></trkpt><trkpt lat="28.719974680001375" lon="-10.765126145519977"><ele>104.0</ele><time>2026-04-28T15:09:30Z</time></trkpt><trkpt lat="28.719901638950205" lon="-10.765000810768582"><ele>104.0</ele><time>2026-04-28T15:09:31Z</time></trkpt><trkpt lat="28.719832388241795" lon="-10.764881979770763"><ele>104.0</ele><time>2026-04-28T15:09:32Z</time></trkpt><trkpt lat="28.719758476107547" lon="-10.764788638571186"><ele>104.0</ele><time>2026-04-28T15:09:33Z</time></trkpt><trkpt lat="28.71970976149472" lon="-10.764670767402144"><ele>104.0</ele><time>2026-04-28T15:09:34Z</time></trkpt><trkpt lat="28.719652071859755" lon="-10.764571893390869"><ele>104.0</ele><time>2026-04-28T15:09:35Z</time></trkpt><trkpt lat="28.7195986937435" lon="-10.764480409491087"><ele>104.0</ele><time>2026-04-28T15:09:36Z</time></trkpt><trkpt lat="28.71955216844998" lon="-10.764400670174066"><ele>104.0</ele><time>2026-04-28T15:09:37Z</time></trkpt><trkpt lat="28.71949984650603" lon="-10.764310993654183"><ele>104.0</ele><time>2026-04-28T15:09:38Z</time></trkpt><trkpt lat="28.719383910053363" lon="-10.764219342056524"><ele>102.66666666666666</ele><time>2026-04-28T15:09:39Z</time></trkpt><trkpt lat="28.719297306553386" lon="-10.764077125769504"><ele>101.33333333333334</ele><time>2026-04-28T15:09:40Z</time></trkpt><trkpt lat="28.719209426800024" lon="-10.763909070201532"><ele>100.0</ele><time>2026-04-28T15:09:41Z</time></trkpt><trkpt lat="28.71911911940416" lon="-10.763708783873698"><ele>98.0</ele><time>2026-04-28T15:09:42Z</time></trkpt><trkpt lat="28.718994655585234" lon="-10.763490999533847"><ele>96.0</ele><time>2026-04-28T15:09:43Z</time></trkpt><trkpt lat="28.718895311950174" lon="-10.763236831502715"><ele>96.0</ele><time>2026-04-28T15:09:44Z</time></trkpt><trkpt lat="28.71878368545516" lon="-10.762946124266879"><ele>96.0</ele><time>2026-04-28T15:09:45Z</time></trkpt><trkpt lat="28.718661893420354" lon="-10.762631855447388"><ele>102.5</ele><time>2026-04-28T15:09:46Z</time></trkpt><trkpt lat="28.718535958166242" lon="-10.762303636482033"><ele>109.0</ele><time>2026-04-28T15:09:47Z</time></trkpt><trkpt lat="28.718424526296733" lon="-10.76200441122819"><ele>107.5</ele><time>2026-04-28T15:09:48Z</time></trkpt><trkpt lat="28.71834156161848" lon="-10.761738048994435"><ele>106.0</ele><time>2026-04-28T15:09:49Z</time></trkpt><trkpt lat="28.71826354015499" lon="-10.761494238572034"><ele>106.0</ele><time>2026-04-28T15:09:50Z</time></trkpt><trkpt lat="28.71818067470097" lon="-10.76125426013179"><ele>106.0</ele><time>2026-04-28T15:09:51Z</time></trkpt><trkpt lat="28.718099784643698" lon="-10.761026523804562"><ele>106.0</ele><time>2026-04-28T15:09:52Z</time></trkpt><trkpt lat="28.718028231629674" lon="-10.76080481884697"><ele>105.66666666666667</ele><time>2026-04-28T15:09:53Z</time></trkpt><trkpt lat="28.717955894100633" lon="-10.760580533886342"><ele>105.33333333333334</ele><time>2026-04-28T15:09:54Z</time></trkpt><trkpt lat="28.717882456862558" lon="-10.760352839179186"><ele>105.0</ele><time>2026-04-28T15:09:55Z</time></trkpt><trkpt lat="28.717810264152202" lon="-10.760115778425433"><ele>105.0</ele><time>2026-04-28T15:09:56Z</time></trkpt><trkpt lat="28.717742937615327" lon="-10.759873263812096"><ele>105.0</ele><time>2026-04-28T15:09:57Z</time></trkpt><trkpt lat="28.717674712956203" lon="-10.759616958963822"><ele>107.0</ele><time>2026-04-28T15:09:58Z</time></trkpt><trkpt lat="28.717615841754842" lon="-10.7593592471673"><ele>109.0</ele><time>2026-04-28T15:09:59Z</time></trkpt><trkpt lat="28.717556174732064" lon="-10.75909999931042"><ele>109.0</ele><time>2026-04-28T15:10:00Z</time></trkpt><trkpt lat="28.717497112215636" lon="-10.758843377929109"><ele>109.0</ele><time>2026-04-28T15:10:01Z</time></trkpt><trkpt lat="28.71744141694333" lon="-10.758598248880729"><ele>110.0</ele><time>2026-04-28T15:10:02Z</time></trkpt><trkpt lat="28.717390772795824" lon="-10.758373014254683"><ele>111.0</ele><time>2026-04-28T15:10:03Z</time></trkpt><trkpt lat="28.717342562733684" lon="-10.758159012958291"><ele>112.0</ele><time>2026-04-28T15:10:04Z</time></trkpt><trkpt lat="28.71729617135734" lon="-10.757953637154321"><ele>112.0</ele><time>2026-04-28T15:10:05Z</time></trkpt><trkpt lat="28.71724952330625" lon="-10.757747833123636"><ele>112.0</ele><time>2026-04-28T15:10:06Z</time></trkpt><trkpt lat="28.71720095660349" lon="-10.75753356423581"><ele>112.0</ele><time>2026-04-28T15:10:07Z</time></trkpt><trkpt lat="28.717151483310992" lon="-10.757315941903997"><ele>112.0</ele><time>2026-04-28T15:10:08Z</time></trkpt><trkpt lat="28.717101314414855" lon="-10.757097769546794"><ele>112.0</ele><time>2026-04-28T15:10:09Z</time></trkpt><trkpt lat="28.71704898318733" lon="-10.756875285949361"><ele>112.0</ele><time>2026-04-28T15:10:10Z</time></trkpt><trkpt lat="28.716993841530513" lon="-10.756643215843935"><ele>112.0</ele><time>2026-04-28T15:10:11Z</time></trkpt><trkpt lat="28.716937812408712" lon="-10.756405590506324"><ele>112.0</ele><time>2026-04-28T15:10:12Z</time></trkpt><trkpt lat="28.716883802591916" lon="-10.756161341385205"><ele>112.0</ele><time>2026-04-28T15:10:13Z</time></trkpt><trkpt lat="28.71683166855909" lon="-10.755923664740484"><ele>113.0</ele><time>2026-04-28T15:10:14Z</time></trkpt><trkpt lat="28.716781367166888" lon="-10.75569437045404"><ele>114.0</ele><time>2026-04-28T15:10:15Z</time></trkpt><trkpt lat="28.716731317926726" lon="-10.75546622814987"><ele>115.0</ele><time>2026-04-28T15:10:16Z</time></trkpt><trkpt lat="28.716685233903046" lon="-10.755256161829472"><ele>112.66666666666667</ele><time>2026-04-28T15:10:17Z</time></trkpt><trkpt lat="28.716638487044715" lon="-10.755043074089048"><ele>110.33333333333334</ele><time>2026-04-28T15:10:18Z</time></trkpt><trkpt lat="28.716592970899782" lon="-10.754829913909203"><ele>108.0</ele><time>2026-04-28T15:10:19Z</time></trkpt><trkpt lat="28.716547011330547" lon="-10.754611401351964"><ele>108.0</ele><time>2026-04-28T15:10:20Z</time></trkpt><trkpt lat="28.71647905688909" lon="-10.754392859816098"><ele>108.0</ele><time>2026-04-28T15:10:21Z</time></trkpt><trkpt lat="28.71641682050437" lon="-10.754186485710823"><ele>108.0</ele><time>2026-04-28T15:10:22Z</time></trkpt><trkpt lat="28.71634972804582" lon="-10.753982158423328"><ele>108.66666666666666</ele><time>2026-04-28T15:10:23Z</time></trkpt><trkpt lat="28.716282798809267" lon="-10.753778150343928"><ele>109.33333333333333</ele><time>2026-04-28T15:10:24Z</time></trkpt><trkpt lat="28.716219916967653" lon="-10.753574193432819"><ele>110.0</ele><time>2026-04-28T15:10:25Z</time></trkpt><trkpt lat="28.71615682746239" lon="-10.753372694163177"><ele>110.0</ele><time>2026-04-28T15:10:26Z</time></trkpt><trkpt lat="28.716087861740107" lon="-10.753177144914142"><ele>110.0</ele><time>2026-04-28T15:10:27Z</time></trkpt><trkpt lat="28.716021943767025" lon="-10.752978666559937"><ele>110.0</ele><time>2026-04-28T15:10:28Z</time></trkpt><trkpt lat="28.71595176983012" lon="-10.752763806581553"><ele>111.33333333333333</ele><time>2026-04-28T15:10:29Z</time></trkpt><trkpt lat="28.71587451271416" lon="-10.752536559311597"><ele>112.66666666666666</ele><time>2026-04-28T15:10:30Z</time></trkpt><trkpt lat="28.715794069195802" lon="-10.752310719182889"><ele>114.0</ele><time>2026-04-28T15:10:31Z</time></trkpt><trkpt lat="28.71570569248416" lon="-10.752099057386658"><ele>114.0</ele><time>2026-04-28T15:10:32Z</time></trkpt><trkpt lat="28.715608251849176" lon="-10.7518926885482"><ele>114.0</ele><time>2026-04-28T15:10:33Z</time></trkpt><trkpt lat="28.715492956921935" lon="-10.751703123937396"><ele>114.0</ele><time>2026-04-28T15:10:34Z</time></trkpt><trkpt lat="28.715360678119332" lon="-10.751527384216883"><ele>113.66666666666666</ele><time>2026-04-28T15:10:35Z</time></trkpt><trkpt lat="28.71521769087815" lon="-10.751368696870692"><ele>113.33333333333333</ele><time>2026-04-28T15:10:36Z</time></trkpt><trkpt lat="28.71507864406274" lon="-10.751204391468924"><ele>113.0</ele><time>2026-04-28T15:10:37Z</time></trkpt><trkpt lat="28.71494150426291" lon="-10.751033748290324"><ele>113.0</ele><time>2026-04-28T15:10:38Z</time></trkpt><trkpt lat="28.71481288139641" lon="-10.750854077245656"><ele>113.0</ele><time>2026-04-28T15:10:39Z</time></trkpt><trkpt lat="28.71469267945123" lon="-10.750690197438612"><ele>113.0</ele><time>2026-04-28T15:10:40Z</time></trkpt><trkpt lat="28.714581586920897" lon="-10.750537070358627"><ele>113.0</ele><time>2026-04-28T15:10:41Z</time></trkpt><trkpt lat="28.71447109046767" lon="-10.750373178073014"><ele>113.0</ele><time>2026-04-28T15:10:42Z</time></trkpt><trkpt lat="28.714363645576892" lon="-10.750195550073887"><ele>113.0</ele><time>2026-04-28T15:10:43Z</time></trkpt><trkpt lat="28.71426616938107" lon="-10.750010079076915"><ele>114.0</ele><time>2026-04-28T15:10:44Z</time></trkpt><trkpt lat="28.71418208565228" lon="-10.749816507454966"><ele>115.0</ele><time>2026-04-28T15:10:45Z</time></trkpt><trkpt lat="28.714105319316246" lon="-10.749621940100948"><ele>116.0</ele><time>2026-04-28T15:10:46Z</time></trkpt><trkpt lat="28.714028915329365" lon="-10.749439931926666"><ele>115.0</ele><time>2026-04-28T15:10:47Z</time></trkpt><trkpt lat="28.713949499785308" lon="-10.749250314060326"><ele>114.0</ele><time>2026-04-28T15:10:48Z</time></trkpt><trkpt lat="28.71386817996229" lon="-10.749059620326863"><ele>113.0</ele><time>2026-04-28T15:10:49Z</time></trkpt><trkpt lat="28.71378413222475" lon="-10.748871459783919"><ele>113.0</ele><time>2026-04-28T15:10:50Z</time></trkpt><trkpt lat="28.713698483520194" lon="-10.748681042225108"><ele>113.0</ele><time>2026-04-28T15:10:51Z</time></trkpt><trkpt lat="28.7136154777237" lon="-10.748482351341826"><ele>113.0</ele><time>2026-04-28T15:10:52Z</time></trkpt><trkpt lat="28.713523379226302" lon="-10.748267747497877"><ele>115.66666666666666</ele><time>2026-04-28T15:10:53Z</time></trkpt><trkpt lat="28.713426748949598" lon="-10.748044781214034"><ele>118.33333333333334</ele><time>2026-04-28T15:10:54Z</time></trkpt><trkpt lat="28.71332867374646" lon="-10.747814436819993"><ele>121.0</ele><time>2026-04-28T15:10:55Z</time></trkpt><trkpt lat="28.713225326807578" lon="-10.747573618856322"><ele>121.0</ele><time>2026-04-28T15:10:56Z</time></trkpt><trkpt lat="28.713115968102255" lon="-10.74732195790035"><ele>121.0</ele><time>2026-04-28T15:10:57Z</time></trkpt><trkpt lat="28.713004645553728" lon="-10.747072046684718"><ele>120.5</ele><time>2026-04-28T15:10:58Z</time></trkpt><trkpt lat="28.712896068867725" lon="-10.746820348087338"><ele>120.0</ele><time>2026-04-28T15:10:59Z</time></trkpt><trkpt lat="28.712780666986664" lon="-10.746561320050535"><ele>120.0</ele><time>2026-04-28T15:11:00Z</time></trkpt><trkpt lat="28.712669103768416" lon="-10.746302427932418"><ele>120.0</ele><time>2026-04-28T15:11:01Z</time></trkpt><trkpt lat="28.712551159832177" lon="-10.746033959323034"><ele>120.0</ele><time>2026-04-28T15:11:02Z</time></trkpt><trkpt lat="28.71243632195347" lon="-10.745765780211633"><ele>120.0</ele><time>2026-04-28T15:11:03Z</time></trkpt><trkpt lat="28.71232140224887" lon="-10.745504858581628"><ele>120.0</ele><time>2026-04-28T15:11:04Z</time></trkpt><trkpt lat="28.712199403849436" lon="-10.745243565761038"><ele>120.0</ele><time>2026-04-28T15:11:05Z</time></trkpt><trkpt lat="28.712077406549597" lon="-10.744993320282584"><ele>117.5</ele><time>2026-04-28T15:11:06Z</time></trkpt><trkpt lat="28.711950634069794" lon="-10.744750881513172"><ele>115.0</ele><time>2026-04-28T15:11:07Z</time></trkpt><trkpt lat="28.71181848683017" lon="-10.7445108379902"><ele>117.5</ele><time>2026-04-28T15:11:08Z</time></trkpt><trkpt lat="28.71168094574952" lon="-10.744275435905266"><ele>120.0</ele><time>2026-04-28T15:11:09Z</time></trkpt><trkpt lat="28.711538714256346" lon="-10.744041230766795"><ele>120.0</ele><time>2026-04-28T15:11:10Z</time></trkpt><trkpt lat="28.711408642485075" lon="-10.743805745770253"><ele>120.0</ele><time>2026-04-28T15:11:11Z</time></trkpt><trkpt lat="28.711277202220753" lon="-10.743575693473689"><ele>118.5</ele><time>2026-04-28T15:11:12Z</time></trkpt><trkpt lat="28.71113932229677" lon="-10.743344768096305"><ele>117.0</ele><time>2026-04-28T15:11:13Z</time></trkpt><trkpt lat="28.71100579628917" lon="-10.743116914495497"><ele>119.33333333333334</ele><time>2026-04-28T15:11:14Z</time></trkpt><trkpt lat="28.71087799530503" lon="-10.742905425303064"><ele>121.66666666666667</ele><time>2026-04-28T15:11:15Z</time></trkpt><trkpt lat="28.71075646449119" lon="-10.742714042682303"><ele>124.0</ele><time>2026-04-28T15:11:16Z</time></trkpt><trkpt lat="28.71063287963599" lon="-10.742554660490791"><ele>124.33333333333334</ele><time>2026-04-28T15:11:17Z</time></trkpt><trkpt lat="28.71050145091567" lon="-10.742424697993398"><ele>124.66666666666666</ele><time>2026-04-28T15:11:18Z</time></trkpt><trkpt lat="28.710359070675338" lon="-10.74232405847333"><ele>125.0</ele><time>2026-04-28T15:11:19Z</time></trkpt><trkpt lat="28.71020118706401" lon="-10.742242668143595"><ele>127.0</ele><time>2026-04-28T15:11:20Z</time></trkpt><trkpt lat="28.710004382238715" lon="-10.742162634096115"><ele>129.0</ele><time>2026-04-28T15:11:21Z</time></trkpt><trkpt lat="28.709765786933705" lon="-10.742077041116062"><ele>129.0</ele><time>2026-04-28T15:11:22Z</time></trkpt><trkpt lat="28.70952729528341" lon="-10.741988008740195"><ele>129.0</ele><time>2026-04-28T15:11:23Z</time></trkpt><trkpt lat="28.709288130988313" lon="-10.74188155895806"><ele>128.0</ele><time>2026-04-28T15:11:24Z</time></trkpt><trkpt lat="28.70906270732145" lon="-10.741785163518555"><ele>127.0</ele><time>2026-04-28T15:11:25Z</time></trkpt><trkpt lat="28.708854313920735" lon="-10.741702520505564"><ele>127.0</ele><time>2026-04-28T15:11:26Z</time></trkpt><trkpt lat="28.70864983802825" lon="-10.741632306417678"><ele>127.0</ele><time>2026-04-28T15:11:27Z</time></trkpt><trkpt lat="28.70845151654834" lon="-10.741566596655074"><ele>127.0</ele><time>2026-04-28T15:11:28Z</time></trkpt><trkpt lat="28.708244934759854" lon="-10.741513589837247"><ele>127.66666666666667</ele><time>2026-04-28T15:11:29Z</time></trkpt><trkpt lat="28.708033196761978" lon="-10.741481481467476"><ele>128.33333333333334</ele><time>2026-04-28T15:11:30Z</time></trkpt><trkpt lat="28.707825906093817" lon="-10.741453594090974"><ele>129.0</ele><time>2026-04-28T15:11:31Z</time></trkpt><trkpt lat="28.707594327215197" lon="-10.741422219438883"><ele>129.33333333333334</ele><time>2026-04-28T15:11:32Z</time></trkpt><trkpt lat="28.707377760320725" lon="-10.741386525824694"><ele>129.66666666666669</ele><time>2026-04-28T15:11:33Z</time></trkpt><trkpt lat="28.70715934147154" lon="-10.741345019905967"><ele>130.0</ele><time>2026-04-28T15:11:34Z</time></trkpt><trkpt lat="28.70693878797122" lon="-10.74130668086712"><ele>129.66666666666669</ele><time>2026-04-28T15:11:35Z</time></trkpt><trkpt lat="28.706717135372745" lon="-10.741269951128688"><ele>129.33333333333334</ele><time>2026-04-28T15:11:36Z</time></trkpt><trkpt lat="28.706495642055664" lon="-10.741237601127072"><ele>129.0</ele><time>2026-04-28T15:11:37Z</time></trkpt><trkpt lat="28.70627841711418" lon="-10.741203284664525"><ele>129.0</ele><time>2026-04-28T15:11:38Z</time></trkpt><trkpt lat="28.70607012412188" lon="-10.741166605701642"><ele>129.0</ele><time>2026-04-28T15:11:39Z</time></trkpt><trkpt lat="28.70585959405524" lon="-10.741127733301672"><ele>129.0</ele><time>2026-04-28T15:11:40Z</time></trkpt><trkpt lat="28.705650144062883" lon="-10.741090663031388"><ele>129.0</ele><time>2026-04-28T15:11:41Z</time></trkpt><trkpt lat="28.705441444153504" lon="-10.741055166094759"><ele>129.0</ele><time>2026-04-28T15:11:42Z</time></trkpt><trkpt lat="28.705237381985263" lon="-10.741020476180278"><ele>129.0</ele><time>2026-04-28T15:11:43Z</time></trkpt><trkpt lat="28.705043562581945" lon="-10.740987439009459"><ele>128.33333333333334</ele><time>2026-04-28T15:11:44Z</time></trkpt><trkpt lat="28.70485163999197" lon="-10.740953748574743"><ele>127.66666666666667</ele><time>2026-04-28T15:11:45Z</time></trkpt><trkpt lat="28.704657152523954" lon="-10.740919677299601"><ele>127.0</ele><time>2026-04-28T15:11:46Z</time></trkpt><trkpt lat="28.704453970088583" lon="-10.740892028836523"><ele>128.33333333333334</ele><time>2026-04-28T15:11:47Z</time></trkpt><trkpt lat="28.704257467127483" lon="-10.74085912732818"><ele>129.66666666666666</ele><time>2026-04-28T15:11:48Z</time></trkpt><trkpt lat="28.704051778625125" lon="-10.740822379423216"><ele>131.0</ele><time>2026-04-28T15:11:49Z</time></trkpt><trkpt lat="28.703844287911803" lon="-10.740782098367845"><ele>131.0</ele><time>2026-04-28T15:11:50Z</time></trkpt><trkpt lat="28.703636026893964" lon="-10.740739166407351"><ele>131.0</ele><time>2026-04-28T15:11:51Z</time></trkpt><trkpt lat="28.703438366751303" lon="-10.74070493682916"><ele>131.0</ele><time>2026-04-28T15:11:52Z</time></trkpt><trkpt lat="28.703238604432862" lon="-10.740664726811099"><ele>131.0</ele><time>2026-04-28T15:11:53Z</time></trkpt><trkpt lat="28.703057699728085" lon="-10.740631771288083"><ele>131.0</ele><time>2026-04-28T15:11:54Z</time></trkpt><trkpt lat="28.702880348225737" lon="-10.740610113676384"><ele>131.0</ele><time>2026-04-28T15:11:55Z</time></trkpt><trkpt lat="28.702711078610314" lon="-10.740577997362681"><ele>132.0</ele><time>2026-04-28T15:11:56Z</time></trkpt><trkpt lat="28.70255182728992" lon="-10.740555276748998"><ele>133.0</ele><time>2026-04-28T15:11:57Z</time></trkpt><trkpt lat="28.70238138648721" lon="-10.74052825985917"><ele>134.0</ele><time>2026-04-28T15:11:58Z</time></trkpt><trkpt lat="28.702215512233142" lon="-10.740501482602259"><ele>134.0</ele><time>2026-04-28T15:11:59Z</time></trkpt><trkpt lat="28.702052858855236" lon="-10.740478839526704"><ele>134.0</ele><time>2026-04-28T15:12:00Z</time></trkpt><trkpt lat="28.701890585461445" lon="-10.74044445067548"><ele>134.0</ele><time>2026-04-28T15:12:01Z</time></trkpt><trkpt lat="28.701726524389272" lon="-10.740414272344072"><ele>134.33333333333331</ele><time>2026-04-28T15:12:02Z</time></trkpt><trkpt lat="28.70156252391434" lon="-10.740390455767184"><ele>134.66666666666666</ele><time>2026-04-28T15:12:03Z</time></trkpt><trkpt lat="28.70139423266166" lon="-10.740360741462514"><ele>135.0</ele><time>2026-04-28T15:12:04Z</time></trkpt><trkpt lat="28.70122890070955" lon="-10.740333867173728"><ele>136.0</ele><time>2026-04-28T15:12:05Z</time></trkpt><trkpt lat="28.701062245427778" lon="-10.740298936017675"><ele>137.0</ele><time>2026-04-28T15:12:06Z</time></trkpt><trkpt lat="28.700905179068798" lon="-10.740261822068414"><ele>138.0</ele><time>2026-04-28T15:12:07Z</time></trkpt><trkpt lat="28.700734349536805" lon="-10.740216684300682"><ele>135.0</ele><time>2026-04-28T15:12:08Z</time></trkpt><trkpt lat="28.70056758222501" lon="-10.740174974425836"><ele>132.0</ele><time>2026-04-28T15:12:09Z</time></trkpt><trkpt lat="28.700405987550475" lon="-10.740133312588295"><ele>129.0</ele><time>2026-04-28T15:12:10Z</time></trkpt><trkpt lat="28.70024480628512" lon="-10.740089460366423"><ele>129.0</ele><time>2026-04-28T15:12:11Z</time></trkpt><trkpt lat="28.70008618161057" lon="-10.740046051755424"><ele>129.0</ele><time>2026-04-28T15:12:12Z</time></trkpt><trkpt lat="28.699917993560536" lon="-10.740002974329022"><ele>129.0</ele><time>2026-04-28T15:12:13Z</time></trkpt><trkpt lat="28.699753995247242" lon="-10.739971628582682"><ele>129.0</ele><time>2026-04-28T15:12:14Z</time></trkpt><trkpt lat="28.699576310169636" lon="-10.739930633587448"><ele>129.0</ele><time>2026-04-28T15:12:15Z</time></trkpt><trkpt lat="28.699402411573864" lon="-10.739894092882746"><ele>129.0</ele><time>2026-04-28T15:12:16Z</time></trkpt><trkpt lat="28.699210271368504" lon="-10.739856554421996"><ele>132.33333333333334</ele><time>2026-04-28T15:12:17Z</time></trkpt><trkpt lat="28.699017184671632" lon="-10.739824056305487"><ele>135.66666666666669</ele><time>2026-04-28T15:12:18Z</time></trkpt><trkpt lat="28.698822015182543" lon="-10.739776242935633"><ele>139.0</ele><time>2026-04-28T15:12:19Z</time></trkpt><trkpt lat="28.698625502863358" lon="-10.739724347447984"><ele>138.0</ele><time>2026-04-28T15:12:20Z</time></trkpt><trkpt lat="28.69842513897822" lon="-10.739675929791877"><ele>137.0</ele><time>2026-04-28T15:12:21Z</time></trkpt><trkpt lat="28.698222528427443" lon="-10.739630313353238"><ele>136.0</ele><time>2026-04-28T15:12:22Z</time></trkpt><trkpt lat="28.698023992650942" lon="-10.739580761922737"><ele>136.0</ele><time>2026-04-28T15:12:23Z</time></trkpt><trkpt lat="28.69782599883887" lon="-10.739528773354868"><ele>136.0</ele><time>2026-04-28T15:12:24Z</time></trkpt><trkpt lat="28.697623779352064" lon="-10.73947664441354"><ele>136.0</ele><time>2026-04-28T15:12:25Z</time></trkpt><trkpt lat="28.697427017633522" lon="-10.739436098106369"><ele>136.0</ele><time>2026-04-28T15:12:26Z</time></trkpt><trkpt lat="28.697232168534647" lon="-10.739385927967954"><ele>136.0</ele><time>2026-04-28T15:12:27Z</time></trkpt><trkpt lat="28.697038957275705" lon="-10.739338365919501"><ele>136.0</ele><time>2026-04-28T15:12:28Z</time></trkpt><trkpt lat="28.696845558494253" lon="-10.739297053763702"><ele>136.0</ele><time>2026-04-28T15:12:29Z</time></trkpt><trkpt lat="28.696656052391837" lon="-10.739246123994786"><ele>136.0</ele><time>2026-04-28T15:12:30Z</time></trkpt><trkpt lat="28.69647101343683" lon="-10.739193880693453"><ele>136.0</ele><time>2026-04-28T15:12:31Z</time></trkpt><trkpt lat="28.696278408931555" lon="-10.739148673130252"><ele>137.0</ele><time>2026-04-28T15:12:32Z</time></trkpt><trkpt lat="28.696080918422116" lon="-10.739103278612452"><ele>138.0</ele><time>2026-04-28T15:12:33Z</time></trkpt><trkpt lat="28.69588362554088" lon="-10.739052366867455"><ele>139.0</ele><time>2026-04-28T15:12:34Z</time></trkpt><trkpt lat="28.69568845255907" lon="-10.73899774175275"><ele>139.0</ele><time>2026-04-28T15:12:35Z</time></trkpt><trkpt lat="28.695489551396573" lon="-10.73895314674858"><ele>139.0</ele><time>2026-04-28T15:12:36Z</time></trkpt><trkpt lat="28.69528266236287" lon="-10.738908183583812"><ele>139.0</ele><time>2026-04-28T15:12:37Z</time></trkpt><trkpt lat="28.695080988096663" lon="-10.738868684685363"><ele>140.0</ele><time>2026-04-28T15:12:38Z</time></trkpt><trkpt lat="28.694878693084675" lon="-10.738827627096617"><ele>141.0</ele><time>2026-04-28T15:12:39Z</time></trkpt><trkpt lat="28.694685302059273" lon="-10.738779970179865"><ele>142.0</ele><time>2026-04-28T15:12:40Z</time></trkpt><trkpt lat="28.694494638403032" lon="-10.738730836860434"><ele>139.66666666666669</ele><time>2026-04-28T15:12:41Z</time></trkpt><trkpt lat="28.694322243066946" lon="-10.738678463897829"><ele>137.33333333333334</ele><time>2026-04-28T15:12:42Z</time></trkpt><trkpt lat="28.694171538462463" lon="-10.738616526931201"><ele>135.0</ele><time>2026-04-28T15:12:43Z</time></trkpt><trkpt lat="28.69403571881066" lon="-10.738537334503716"><ele>134.66666666666666</ele><time>2026-04-28T15:12:44Z</time></trkpt><trkpt lat="28.69390377435354" lon="-10.738430259225455"><ele>134.33333333333331</ele><time>2026-04-28T15:12:45Z</time></trkpt><trkpt lat="28.69379366052338" lon="-10.738303721741632"><ele>134.0</ele><time>2026-04-28T15:12:46Z</time></trkpt><trkpt lat="28.693667758635705" lon="-10.738136880961804"><ele>135.0</ele><time>2026-04-28T15:12:47Z</time></trkpt><trkpt lat="28.693539288271523" lon="-10.737947276679728"><ele>136.0</ele><time>2026-04-28T15:12:48Z</time></trkpt><trkpt lat="28.693386620631248" lon="-10.737719887291615"><ele>134.5</ele><time>2026-04-28T15:12:49Z</time></trkpt><trkpt lat="28.69324782515719" lon="-10.737504810193004"><ele>133.0</ele><time>2026-04-28T15:12:50Z</time></trkpt><trkpt lat="28.693108164646905" lon="-10.73729657240196"><ele>133.0</ele><time>2026-04-28T15:12:51Z</time></trkpt><trkpt lat="28.69297492680106" lon="-10.737114875276575"><ele>133.0</ele><time>2026-04-28T15:12:52Z</time></trkpt><trkpt lat="28.692838847778482" lon="-10.736924326143502"><ele>133.0</ele><time>2026-04-28T15:12:53Z</time></trkpt><trkpt lat="28.69270390616554" lon="-10.736733947733443"><ele>133.0</ele><time>2026-04-28T15:12:54Z</time></trkpt><trkpt lat="28.69258033566071" lon="-10.736546684431458"><ele>133.0</ele><time>2026-04-28T15:12:55Z</time></trkpt><trkpt lat="28.69246134820981" lon="-10.73637352402869"><ele>133.0</ele><time>2026-04-28T15:12:56Z</time></trkpt><trkpt lat="28.69233710709555" lon="-10.736195797176075"><ele>134.33333333333334</ele><time>2026-04-28T15:12:57Z</time></trkpt><trkpt lat="28.69221456796331" lon="-10.736014791067069"><ele>135.66666666666666</ele><time>2026-04-28T15:12:58Z</time></trkpt><trkpt lat="28.692093892468442" lon="-10.735840023521092"><ele>137.0</ele><time>2026-04-28T15:12:59Z</time></trkpt><trkpt lat="28.691977447871857" lon="-10.73567029958673"><ele>137.66666666666666</ele><time>2026-04-28T15:13:00Z</time></trkpt><trkpt lat="28.69185969890885" lon="-10.735499972736669"><ele>138.33333333333334</ele><time>2026-04-28T15:13:01Z</time></trkpt><trkpt lat="28.69174370533471" lon="-10.735339413386415"><ele>139.0</ele><time>2026-04-28T15:13:02Z</time></trkpt><trkpt lat="28.691630897149807" lon="-10.735180429266657"><ele>137.33333333333334</ele><time>2026-04-28T15:13:03Z</time></trkpt><trkpt lat="28.69152789447898" lon="-10.73503040174228"><ele>135.66666666666666</ele><time>2026-04-28T15:13:04Z</time></trkpt><trkpt lat="28.69141926829769" lon="-10.734879194781456"><ele>134.0</ele><time>2026-04-28T15:13:05Z</time></trkpt><trkpt lat="28.691302930136484" lon="-10.734725279613356"><ele>134.0</ele><time>2026-04-28T15:13:06Z</time></trkpt><trkpt lat="28.69119242462419" lon="-10.734579310554198"><ele>134.0</ele><time>2026-04-28T15:13:07Z</time></trkpt><trkpt lat="28.69108584123723" lon="-10.734444979530497"><ele>134.0</ele><time>2026-04-28T15:13:08Z</time></trkpt><trkpt lat="28.690995418121037" lon="-10.734332406014552"><ele>133.8</ele><time>2026-04-28T15:13:09Z</time></trkpt><trkpt lat="28.690909326968633" lon="-10.734234615129838"><ele>133.60000000000002</ele><time>2026-04-28T15:13:10Z</time></trkpt><trkpt lat="28.690826272742473" lon="-10.734151021234117"><ele>133.4</ele><time>2026-04-28T15:13:11Z</time></trkpt><trkpt lat="28.690744240932233" lon="-10.73407419387767"><ele>133.20000000000002</ele><time>2026-04-28T15:13:12Z</time></trkpt><trkpt lat="28.6906685624186" lon="-10.734004383086122"><ele>133.0</ele><time>2026-04-28T15:13:13Z</time></trkpt><trkpt lat="28.690583625981137" lon="-10.733920971707802"><ele>133.0</ele><time>2026-04-28T15:13:14Z</time></trkpt><trkpt lat="28.690492551723107" lon="-10.733812977573466"><ele>133.0</ele><time>2026-04-28T15:13:15Z</time></trkpt><trkpt lat="28.690408662464865" lon="-10.733678092906313"><ele>133.0</ele><time>2026-04-28T15:13:16Z</time></trkpt><trkpt lat="28.690318435000965" lon="-10.733512111170807"><ele>133.0</ele><time>2026-04-28T15:13:17Z</time></trkpt><trkpt lat="28.69022405286661" lon="-10.733340801234757"><ele>133.66666666666669</ele><time>2026-04-28T15:13:18Z</time></trkpt><trkpt lat="28.690129155159624" lon="-10.73317250552234"><ele>134.33333333333334</ele><time>2026-04-28T15:13:19Z</time></trkpt><trkpt lat="28.69003056471351" lon="-10.73300413730764"><ele>135.0</ele><time>2026-04-28T15:13:20Z</time></trkpt><trkpt lat="28.68993109249132" lon="-10.732833579724195"><ele>134.66666666666666</ele><time>2026-04-28T15:13:21Z</time></trkpt><trkpt lat="28.68982560840193" lon="-10.732659987178293"><ele>134.33333333333331</ele><time>2026-04-28T15:13:22Z</time></trkpt><trkpt lat="28.689722511886128" lon="-10.732488186246892"><ele>134.0</ele><time>2026-04-28T15:13:23Z</time></trkpt><trkpt lat="28.689622003966956" lon="-10.732314342336812"><ele>134.0</ele><time>2026-04-28T15:13:24Z</time></trkpt><trkpt lat="28.689529684032713" lon="-10.7321438469602"><ele>134.0</ele><time>2026-04-28T15:13:25Z</time></trkpt><trkpt lat="28.689432802164042" lon="-10.731970637791566"><ele>134.0</ele><time>2026-04-28T15:13:26Z</time></trkpt><trkpt lat="28.689332303664223" lon="-10.73179846736201"><ele>133.66666666666666</ele><time>2026-04-28T15:13:27Z</time></trkpt><trkpt lat="28.689225686268244" lon="-10.731619011154276"><ele>133.33333333333334</ele><time>2026-04-28T15:13:28Z</time></trkpt><trkpt lat="28.689120810561253" lon="-10.73143650528076"><ele>133.0</ele><time>2026-04-28T15:13:29Z</time></trkpt><trkpt lat="28.68901311038045" lon="-10.731246563560976"><ele>132.0</ele><time>2026-04-28T15:13:30Z</time></trkpt><trkpt lat="28.688911513149037" lon="-10.731055441903466"><ele>131.0</ele><time>2026-04-28T15:13:31Z</time></trkpt><trkpt lat="28.688805502868586" lon="-10.730862396955953"><ele>130.0</ele><time>2026-04-28T15:13:32Z</time></trkpt><trkpt lat="28.68869567926748" lon="-10.730669953348041"><ele>130.33333333333334</ele><time>2026-04-28T15:13:33Z</time></trkpt><trkpt lat="28.688592475104937" lon="-10.730480443754244"><ele>130.66666666666666</ele><time>2026-04-28T15:13:34Z</time></trkpt><trkpt lat="28.688492064974287" lon="-10.730290027171307"><ele>131.0</ele><time>2026-04-28T15:13:35Z</time></trkpt><trkpt lat="28.688389719808466" lon="-10.730103752519142"><ele>132.0</ele><time>2026-04-28T15:13:36Z</time></trkpt><trkpt lat="28.688288418045587" lon="-10.729913718437983"><ele>133.0</ele><time>2026-04-28T15:13:37Z</time></trkpt><trkpt lat="28.68818833999839" lon="-10.729717634265905"><ele>134.0</ele><time>2026-04-28T15:13:38Z</time></trkpt><trkpt lat="28.688088958660508" lon="-10.729522826351605"><ele>135.33333333333331</ele><time>2026-04-28T15:13:39Z</time></trkpt><trkpt lat="28.687992108595648" lon="-10.729325378394808"><ele>136.66666666666666</ele><time>2026-04-28T15:13:40Z</time></trkpt><trkpt lat="28.68790474706076" lon="-10.729130526902134"><ele>138.0</ele><time>2026-04-28T15:13:41Z</time></trkpt><trkpt lat="28.68783875581237" lon="-10.728942104681789"><ele>138.0</ele><time>2026-04-28T15:13:42Z</time></trkpt><trkpt lat="28.687794784269382" lon="-10.728749978059897"><ele>138.0</ele><time>2026-04-28T15:13:43Z</time></trkpt><trkpt lat="28.68776184003891" lon="-10.728551476369732"><ele>138.0</ele><time>2026-04-28T15:13:44Z</time></trkpt><trkpt lat="28.68771999659289" lon="-10.728355472934695"><ele>138.0</ele><time>2026-04-28T15:13:45Z</time></trkpt><trkpt lat="28.687648438686143" lon="-10.728162225579187"><ele>138.0</ele><time>2026-04-28T15:13:46Z</time></trkpt><trkpt lat="28.687557193954415" lon="-10.727976755007818"><ele>138.0</ele><time>2026-04-28T15:13:47Z</time></trkpt><trkpt lat="28.687462758035647" lon="-10.727798612814668"><ele>139.0</ele><time>2026-04-28T15:13:48Z</time></trkpt><trkpt lat="28.687379497171612" lon="-10.72762532711807"><ele>140.0</ele><time>2026-04-28T15:13:49Z</time></trkpt><trkpt lat="28.68730470933684" lon="-10.72746301982634"><ele>141.0</ele><time>2026-04-28T15:13:50Z</time></trkpt><trkpt lat="28.68723406805974" lon="-10.727306019659615"><ele>141.0</ele><time>2026-04-28T15:13:51Z</time></trkpt><trkpt lat="28.687166455453777" lon="-10.72716291168462"><ele>141.0</ele><time>2026-04-28T15:13:52Z</time></trkpt><trkpt lat="28.687105557603957" lon="-10.727029852928865"><ele>141.0</ele><time>2026-04-28T15:13:53Z</time></trkpt><trkpt lat="28.68704441855956" lon="-10.726894372045516"><ele>141.0</ele><time>2026-04-28T15:13:54Z</time></trkpt><trkpt lat="28.686976724038182" lon="-10.726750846530937"><ele>142.0</ele><time>2026-04-28T15:13:55Z</time></trkpt><trkpt lat="28.686910340142166" lon="-10.72660135295997"><ele>143.0</ele><time>2026-04-28T15:13:56Z</time></trkpt><trkpt lat="28.68684350342768" lon="-10.726445195136089"><ele>144.0</ele><time>2026-04-28T15:13:57Z</time></trkpt><trkpt lat="28.686773730848397" lon="-10.726278227443872"><ele>144.0</ele><time>2026-04-28T15:13:58Z</time></trkpt><trkpt lat="28.686705809035196" lon="-10.726107403637736"><ele>144.0</ele><time>2026-04-28T15:13:59Z</time></trkpt><trkpt lat="28.686633654195745" lon="-10.725941590117191"><ele>144.0</ele><time>2026-04-28T15:14:00Z</time></trkpt><trkpt lat="28.686560712123814" lon="-10.725775440618456"><ele>142.33333333333334</ele><time>2026-04-28T15:14:01Z</time></trkpt><trkpt lat="28.68648659464565" lon="-10.725607650018137"><ele>140.66666666666669</ele><time>2026-04-28T15:14:02Z</time></trkpt><trkpt lat="28.686418574242683" lon="-10.72543720941167"><ele>139.0</ele><time>2026-04-28T15:14:03Z</time></trkpt><trkpt lat="28.686353593002718" lon="-10.725267319220725"><ele>138.33333333333334</ele><time>2026-04-28T15:14:04Z</time></trkpt><trkpt lat="28.686284306369178" lon="-10.72509710273099"><ele>137.66666666666666</ele><time>2026-04-28T15:14:05Z</time></trkpt><trkpt lat="28.686211135968733" lon="-10.72492878457567"><ele>137.0</ele><time>2026-04-28T15:14:06Z</time></trkpt><trkpt lat="28.686136775689004" lon="-10.724757165203595"><ele>139.0</ele><time>2026-04-28T15:14:07Z</time></trkpt><trkpt lat="28.68605519983412" lon="-10.724577518378396"><ele>141.0</ele><time>2026-04-28T15:14:08Z</time></trkpt><trkpt lat="28.685969300321712" lon="-10.724397264137492"><ele>143.0</ele><time>2026-04-28T15:14:09Z</time></trkpt><trkpt lat="28.685891074524495" lon="-10.724240658535011"><ele>143.0</ele><time>2026-04-28T15:14:10Z</time></trkpt><trkpt lat="28.685807046287625" lon="-10.724082313615888"><ele>143.0</ele><time>2026-04-28T15:14:11Z</time></trkpt><trkpt lat="28.685711130713898" lon="-10.723918260198857"><ele>143.0</ele><time>2026-04-28T15:14:12Z</time></trkpt><trkpt lat="28.685601745881776" lon="-10.723767029440179"><ele>143.0</ele><time>2026-04-28T15:14:13Z</time></trkpt><trkpt lat="28.68547571175918" lon="-10.723629645458738"><ele>143.0</ele><time>2026-04-28T15:14:14Z</time></trkpt><trkpt lat="28.685333324718854" lon="-10.723507032965742"><ele>143.0</ele><time>2026-04-28T15:14:15Z</time></trkpt><trkpt lat="28.68517524127006" lon="-10.723386841821371"><ele>142.66666666666666</ele><time>2026-04-28T15:14:16Z</time></trkpt><trkpt lat="28.685028263285915" lon="-10.723282886812969"><ele>142.33333333333334</ele><time>2026-04-28T15:14:17Z</time></trkpt><trkpt lat="28.68489020671958" lon="-10.723185482967699"><ele>142.0</ele><time>2026-04-28T15:14:18Z</time></trkpt><trkpt lat="28.68475092150205" lon="-10.723089016848869"><ele>142.0</ele><time>2026-04-28T15:14:19Z</time></trkpt><trkpt lat="28.684611002571177" lon="-10.72298792639835"><ele>142.0</ele><time>2026-04-28T15:14:20Z</time></trkpt><trkpt lat="28.684471176578732" lon="-10.722880692417597"><ele>142.0</ele><time>2026-04-28T15:14:21Z</time></trkpt><trkpt lat="28.68433362551494" lon="-10.722766447628066"><ele>143.0</ele><time>2026-04-28T15:14:22Z</time></trkpt><trkpt lat="28.68420938306482" lon="-10.722640416248362"><ele>144.0</ele><time>2026-04-28T15:14:23Z</time></trkpt><trkpt lat="28.684089908289316" lon="-10.722502924295975"><ele>145.0</ele><time>2026-04-28T15:14:24Z</time></trkpt><trkpt lat="28.683974339184246" lon="-10.722362935759586"><ele>145.0</ele><time>2026-04-28T15:14:25Z</time></trkpt><trkpt lat="28.68386114559647" lon="-10.722220509187734"><ele>145.0</ele><time>2026-04-28T15:14:26Z</time></trkpt><trkpt lat="28.68375319005949" lon="-10.722070827824297"><ele>145.0</ele><time>2026-04-28T15:14:27Z</time></trkpt><trkpt lat="28.6836462008404" lon="-10.721915664466508"><ele>146.33333333333334</ele><time>2026-04-28T15:14:28Z</time></trkpt><trkpt lat="28.683531923731003" lon="-10.721755864441485"><ele>147.66666666666666</ele><time>2026-04-28T15:14:29Z</time></trkpt><trkpt lat="28.683410130142594" lon="-10.721585164792693"><ele>149.0</ele><time>2026-04-28T15:14:30Z</time></trkpt><trkpt lat="28.683290142630216" lon="-10.72141048781259"><ele>149.0</ele><time>2026-04-28T15:14:31Z</time></trkpt><trkpt lat="28.683169257692143" lon="-10.721238279418655"><ele>149.0</ele><time>2026-04-28T15:14:32Z</time></trkpt><trkpt lat="28.68305136277717" lon="-10.721072932993863"><ele>149.0</ele><time>2026-04-28T15:14:33Z</time></trkpt><trkpt lat="28.682930773361495" lon="-10.72090938858723"><ele>148.66666666666666</ele><time>2026-04-28T15:14:34Z</time></trkpt><trkpt lat="28.682815085754278" lon="-10.720742072417357"><ele>148.33333333333334</ele><time>2026-04-28T15:14:35Z</time></trkpt><trkpt lat="28.682705728174586" lon="-10.720568326833831"><ele>148.0</ele><time>2026-04-28T15:14:36Z</time></trkpt><trkpt lat="28.6826056925941" lon="-10.720393028053806"><ele>147.33333333333334</ele><time>2026-04-28T15:14:37Z</time></trkpt><trkpt lat="28.682508594328876" lon="-10.720214032790354"><ele>146.66666666666666</ele><time>2026-04-28T15:14:38Z</time></trkpt><trkpt lat="28.68241437591542" lon="-10.720037462109415"><ele>146.0</ele><time>2026-04-28T15:14:39Z</time></trkpt><trkpt lat="28.682318447544816" lon="-10.719860161563153"><ele>146.0</ele><time>2026-04-28T15:14:40Z</time></trkpt><trkpt lat="28.682217900383343" lon="-10.71968172491054"><ele>146.0</ele><time>2026-04-28T15:14:41Z</time></trkpt><trkpt lat="28.682117231706975" lon="-10.719505009553087"><ele>146.0</ele><time>2026-04-28T15:14:42Z</time></trkpt><trkpt lat="28.682015433361002" lon="-10.71932859699552"><ele>146.0</ele><time>2026-04-28T15:14:43Z</time></trkpt><trkpt lat="28.681913298549716" lon="-10.719152427816732"><ele>146.0</ele><time>2026-04-28T15:14:44Z</time></trkpt><trkpt lat="28.681808724884444" lon="-10.718979642349383"><ele>146.0</ele><time>2026-04-28T15:14:45Z</time></trkpt><trkpt lat="28.681705054558787" lon="-10.718808697646228"><ele>146.0</ele><time>2026-04-28T15:14:46Z</time></trkpt><trkpt lat="28.681606109684143" lon="-10.7186360542677"><ele>146.0</ele><time>2026-04-28T15:14:47Z</time></trkpt><trkpt lat="28.681501541572413" lon="-10.718468110817309"><ele>146.0</ele><time>2026-04-28T15:14:48Z</time></trkpt><trkpt lat="28.68139349308211" lon="-10.718301608053366"><ele>145.33333333333331</ele><time>2026-04-28T15:14:49Z</time></trkpt><trkpt lat="28.68128888422866" lon="-10.7181324308881"><ele>144.66666666666666</ele><time>2026-04-28T15:14:50Z</time></trkpt><trkpt lat="28.68119208577785" lon="-10.717961965041882"><ele>144.0</ele><time>2026-04-28T15:14:51Z</time></trkpt><trkpt lat="28.68108922816215" lon="-10.717779143485657"><ele>144.33333333333334</ele><time>2026-04-28T15:14:52Z</time></trkpt><trkpt lat="28.680989683249514" lon="-10.717599919672981"><ele>144.66666666666669</ele><time>2026-04-28T15:14:53Z</time></trkpt><trkpt lat="28.680885619558673" lon="-10.717413056257099"><ele>145.0</ele><time>2026-04-28T15:14:54Z</time></trkpt><trkpt lat="28.680781937351544" lon="-10.717223515940034"><ele>145.0</ele><time>2026-04-28T15:14:55Z</time></trkpt><trkpt lat="28.680678106658558" lon="-10.717028272371213"><ele>145.0</ele><time>2026-04-28T15:14:56Z</time></trkpt><trkpt lat="28.680572299780778" lon="-10.716833023965147"><ele>145.0</ele><time>2026-04-28T15:14:57Z</time></trkpt><trkpt lat="28.680462922369944" lon="-10.71663673390915"><ele>145.33333333333334</ele><time>2026-04-28T15:14:58Z</time></trkpt><trkpt lat="28.680351093786744" lon="-10.71644315265813"><ele>145.66666666666666</ele><time>2026-04-28T15:14:59Z</time></trkpt><trkpt lat="28.680238730236923" lon="-10.716243153998466"><ele>146.0</ele><time>2026-04-28T15:15:00Z</time></trkpt><trkpt lat="28.68013199355755" lon="-10.716047041408117"><ele>146.0</ele><time>2026-04-28T15:15:01Z</time></trkpt><trkpt lat="28.680028746878676" lon="-10.715853400129777"><ele>146.0</ele><time>2026-04-28T15:15:02Z</time></trkpt><trkpt lat="28.679926728260863" lon="-10.715666045471268"><ele>146.0</ele><time>2026-04-28T15:15:03Z</time></trkpt><trkpt lat="28.679821411754986" lon="-10.71548158697391"><ele>146.0</ele><time>2026-04-28T15:15:04Z</time></trkpt><trkpt lat="28.67971449176465" lon="-10.715293310691107"><ele>146.0</ele><time>2026-04-28T15:15:05Z</time></trkpt><trkpt lat="28.679609020184714" lon="-10.715104049073403"><ele>146.0</ele><time>2026-04-28T15:15:06Z</time></trkpt><trkpt lat="28.679498948635498" lon="-10.714907554331674"><ele>145.66666666666666</ele><time>2026-04-28T15:15:07Z</time></trkpt><trkpt lat="28.679391535722136" lon="-10.714714413187389"><ele>145.33333333333334</ele><time>2026-04-28T15:15:08Z</time></trkpt><trkpt lat="28.679281156725946" lon="-10.714520073267542"><ele>145.0</ele><time>2026-04-28T15:15:09Z</time></trkpt><trkpt lat="28.67917208197806" lon="-10.714330741759769"><ele>144.66666666666669</ele><time>2026-04-28T15:15:10Z</time></trkpt><trkpt lat="28.679069146919826" lon="-10.714153680181518"><ele>144.33333333333334</ele><time>2026-04-28T15:15:11Z</time></trkpt><trkpt lat="28.678973454388643" lon="-10.7139897405666"><ele>144.0</ele><time>2026-04-28T15:15:12Z</time></trkpt><trkpt lat="28.67888523341775" lon="-10.713832453722988"><ele>144.0</ele><time>2026-04-28T15:15:13Z</time></trkpt><trkpt lat="28.678796874854434" lon="-10.713676250775965"><ele>144.0</ele><time>2026-04-28T15:15:14Z</time></trkpt><trkpt lat="28.67870206896022" lon="-10.713514091537112"><ele>144.0</ele><time>2026-04-28T15:15:15Z</time></trkpt><trkpt lat="28.67860175141771" lon="-10.713343190023961"><ele>145.66666666666666</ele><time>2026-04-28T15:15:16Z</time></trkpt><trkpt lat="28.67849727565031" lon="-10.713162702040714"><ele>147.33333333333331</ele><time>2026-04-28T15:15:17Z</time></trkpt><trkpt lat="28.678385408869296" lon="-10.712973396887161"><ele>149.0</ele><time>2026-04-28T15:15:18Z</time></trkpt><trkpt lat="28.67826953104068" lon="-10.712779356588548"><ele>147.66666666666666</ele><time>2026-04-28T15:15:19Z</time></trkpt><trkpt lat="28.678152237234883" lon="-10.712578506295577"><ele>146.33333333333334</ele><time>2026-04-28T15:15:20Z</time></trkpt><trkpt lat="28.67803156182962" lon="-10.712370407746873"><ele>145.0</ele><time>2026-04-28T15:15:21Z</time></trkpt><trkpt lat="28.677908946499645" lon="-10.712163187517932"><ele>145.0</ele><time>2026-04-28T15:15:22Z</time></trkpt><trkpt lat="28.677786080852744" lon="-10.71196016049464"><ele>145.0</ele><time>2026-04-28T15:15:23Z</time></trkpt><trkpt lat="28.677666163281252" lon="-10.711760200197137"><ele>145.0</ele><time>2026-04-28T15:15:24Z</time></trkpt><trkpt lat="28.677545262709266" lon="-10.71155776248598"><ele>146.33333333333334</ele><time>2026-04-28T15:15:25Z</time></trkpt><trkpt lat="28.67742572546714" lon="-10.711352818513515"><ele>147.66666666666666</ele><time>2026-04-28T15:15:26Z</time></trkpt><trkpt lat="28.67730390799744" lon="-10.711149023890044"><ele>149.0</ele><time>2026-04-28T15:15:27Z</time></trkpt><trkpt lat="28.677177773692076" lon="-10.71094373324238"><ele>149.0</ele><time>2026-04-28T15:15:28Z</time></trkpt><trkpt lat="28.677053374347416" lon="-10.710733546524267"><ele>149.0</ele><time>2026-04-28T15:15:29Z</time></trkpt><trkpt lat="28.676931396860915" lon="-10.71052270090774"><ele>149.0</ele><time>2026-04-28T15:15:30Z</time></trkpt><trkpt lat="28.676811212818404" lon="-10.710311727890035"><ele>150.0</ele><time>2026-04-28T15:15:31Z</time></trkpt><trkpt lat="28.676693222618866" lon="-10.71010245239125"><ele>151.0</ele><time>2026-04-28T15:15:32Z</time></trkpt><trkpt lat="28.67656959533373" lon="-10.709895749209544"><ele>152.0</ele><time>2026-04-28T15:15:33Z</time></trkpt><trkpt lat="28.67644314187886" lon="-10.709690254996227"><ele>152.0</ele><time>2026-04-28T15:15:34Z</time></trkpt><trkpt lat="28.67632484180572" lon="-10.70949423336579"><ele>152.0</ele><time>2026-04-28T15:15:35Z</time></trkpt><trkpt lat="28.67621333805702" lon="-10.70931350714314"><ele>152.0</ele><time>2026-04-28T15:15:36Z</time></trkpt><trkpt lat="28.676103590214172" lon="-10.709142142687272"><ele>151.66666666666666</ele><time>2026-04-28T15:15:37Z</time></trkpt><trkpt lat="28.67597829933037" lon="-10.708967346064002"><ele>151.33333333333334</ele><time>2026-04-28T15:15:38Z</time></trkpt><trkpt lat="28.675844096978732" lon="-10.708807341707352"><ele>151.0</ele><time>2026-04-28T15:15:39Z</time></trkpt><trkpt lat="28.675702400682805" lon="-10.708667238343853"><ele>151.33333333333334</ele><time>2026-04-28T15:15:40Z</time></trkpt><trkpt lat="28.67555706514562" lon="-10.708554744833412"><ele>151.66666666666666</ele><time>2026-04-28T15:15:41Z</time></trkpt><trkpt lat="28.67539604183216" lon="-10.708486974149084"><ele>152.0</ele><time>2026-04-28T15:15:42Z</time></trkpt><trkpt lat="28.675255455069784" lon="-10.70839673794129"><ele>152.0</ele><time>2026-04-28T15:15:43Z</time></trkpt><trkpt lat="28.675111906270708" lon="-10.708305270248026"><ele>152.0</ele><time>2026-04-28T15:15:44Z</time></trkpt><trkpt lat="28.674964815620474" lon="-10.708211635890642"><ele>152.0</ele><time>2026-04-28T15:15:45Z</time></trkpt><trkpt lat="28.674827362833295" lon="-10.708124136860443"><ele>152.0</ele><time>2026-04-28T15:15:46Z</time></trkpt><trkpt lat="28.674698482445837" lon="-10.7080420947655"><ele>152.0</ele><time>2026-04-28T15:15:47Z</time></trkpt><trkpt lat="28.67457146736675" lon="-10.707961349211097"><ele>152.0</ele><time>2026-04-28T15:15:48Z</time></trkpt><trkpt lat="28.67444924023954" lon="-10.707867390988328"><ele>152.0</ele><time>2026-04-28T15:15:49Z</time></trkpt><trkpt lat="28.674326259757393" lon="-10.707796718796565"><ele>152.5</ele><time>2026-04-28T15:15:50Z</time></trkpt><trkpt lat="28.674195415244217" lon="-10.707762214527497"><ele>153.0</ele><time>2026-04-28T15:15:51Z</time></trkpt><trkpt lat="28.674064861133132" lon="-10.707707096493783"><ele>153.5</ele><time>2026-04-28T15:15:52Z</time></trkpt><trkpt lat="28.67392350796862" lon="-10.707647685941593"><ele>154.0</ele><time>2026-04-28T15:15:53Z</time></trkpt><trkpt lat="28.67377493562988" lon="-10.707585347878592"><ele>154.0</ele><time>2026-04-28T15:15:54Z</time></trkpt><trkpt lat="28.6736374069976" lon="-10.707527643572066"><ele>154.0</ele><time>2026-04-28T15:15:55Z</time></trkpt><trkpt lat="28.673498590286545" lon="-10.70746939881729"><ele>154.0</ele><time>2026-04-28T15:15:56Z</time></trkpt><trkpt lat="28.673364511482685" lon="-10.707411788956383"><ele>154.0</ele><time>2026-04-28T15:15:57Z</time></trkpt><trkpt lat="28.673250546072396" lon="-10.707364267015159"><ele>154.5</ele><time>2026-04-28T15:15:58Z</time></trkpt><trkpt lat="28.673158190842763" lon="-10.707327008248884"><ele>155.0</ele><time>2026-04-28T15:15:59Z</time></trkpt><trkpt lat="28.67307881976449" lon="-10.707295328636"><ele>155.5</ele><time>2026-04-28T15:16:00Z</time></trkpt><trkpt lat="28.673013595589566" lon="-10.707269295530699"><ele>156.0</ele><time>2026-04-28T15:16:01Z</time></trkpt><trkpt lat="28.67295393024537" lon="-10.707245481113"><ele>156.5</ele><time>2026-04-28T15:16:03Z</time></trkpt><trkpt lat="28.67288199376406" lon="-10.70719062589408"><ele>157.0</ele><time>2026-04-28T15:16:36Z</time></trkpt><trkpt lat="28.672670951420194" lon="-10.707060965041482"><ele>157.0</ele><time>2026-04-28T15:16:38Z</time></trkpt><trkpt lat="28.67259263685088" lon="-10.706981993840575"><ele>157.0</ele><time>2026-04-28T15:16:39Z</time></trkpt><trkpt lat="28.672493181770506" lon="-10.706881704841898"><ele>157.0</ele><time>2026-04-28T15:16:40Z</time></trkpt><trkpt lat="28.67239497854387" lon="-10.706782678261947"><ele>157.0</ele><time>2026-04-28T15:16:41Z</time></trkpt><trkpt lat="28.672293556976108" lon="-10.706661634856935"><ele>155.25</ele><time>2026-04-28T15:16:42Z</time></trkpt><trkpt lat="28.672222872649062" lon="-10.706574018925913"><ele>153.5</ele><time>2026-04-28T15:16:43Z</time></trkpt><trkpt lat="28.672143833990514" lon="-10.70647604751701"><ele>151.75</ele><time>2026-04-28T15:16:44Z</time></trkpt><trkpt lat="28.672051217072042" lon="-10.706361245341885"><ele>150.0</ele><time>2026-04-28T15:16:45Z</time></trkpt><trkpt lat="28.671954889219823" lon="-10.706241694449417"><ele>150.25</ele><time>2026-04-28T15:16:46Z</time></trkpt><trkpt lat="28.671861025341634" lon="-10.706124877347342"><ele>150.5</ele><time>2026-04-28T15:16:47Z</time></trkpt><trkpt lat="28.67176433310158" lon="-10.706004540300258"><ele>150.75</ele><time>2026-04-28T15:16:48Z</time></trkpt><trkpt lat="28.671677085162546" lon="-10.705895957005271"><ele>151.0</ele><time>2026-04-28T15:16:49Z</time></trkpt><trkpt lat="28.671588772558227" lon="-10.705786048709957"><ele>151.0</ele><time>2026-04-28T15:16:50Z</time></trkpt><trkpt lat="28.67150552354425" lon="-10.705682442262658"><ele>151.0</ele><time>2026-04-28T15:16:51Z</time></trkpt><trkpt lat="28.67142384427532" lon="-10.705580789377127"><ele>151.0</ele><time>2026-04-28T15:16:52Z</time></trkpt><trkpt lat="28.67134585438055" lon="-10.705483430877734"><ele>151.0</ele><time>2026-04-28T15:16:53Z</time></trkpt><trkpt lat="28.671240810561077" lon="-10.70535279708249"><ele>151.5</ele><time>2026-04-28T15:16:54Z</time></trkpt><trkpt lat="28.671154102180488" lon="-10.705221037898154"><ele>152.0</ele><time>2026-04-28T15:16:55Z</time></trkpt><trkpt lat="28.67106822450149" lon="-10.705090541041747"><ele>152.5</ele><time>2026-04-28T15:16:56Z</time></trkpt><trkpt lat="28.670987597325652" lon="-10.704968022514318"><ele>153.0</ele><time>2026-04-28T15:16:57Z</time></trkpt><trkpt lat="28.670916093675313" lon="-10.704859367805375"><ele>153.20000000000002</ele><time>2026-04-28T15:16:58Z</time></trkpt><trkpt lat="28.670854180607694" lon="-10.704765286692325"><ele>153.4</ele><time>2026-04-28T15:16:59Z</time></trkpt><trkpt lat="28.670794397315642" lon="-10.70467444202828"><ele>153.60000000000002</ele><time>2026-04-28T15:17:00Z</time></trkpt><trkpt lat="28.670744916678483" lon="-10.70459950671835"><ele>153.8</ele><time>2026-04-28T15:17:01Z</time></trkpt><trkpt lat="28.67069440108948" lon="-10.70452312794011"><ele>154.0</ele><time>2026-04-28T15:17:02Z</time></trkpt><trkpt lat="28.670610293751228" lon="-10.70443426610497"><ele>153.2</ele><time>2026-04-28T15:17:04Z</time></trkpt><trkpt lat="28.670521320324717" lon="-10.704329437562711"><ele>152.4</ele><time>2026-04-28T15:17:06Z</time></trkpt><trkpt lat="28.67043739894338" lon="-10.704230550357419"><ele>151.6</ele><time>2026-04-28T15:17:08Z</time></trkpt><trkpt lat="28.670388189708103" lon="-10.704172514734752"><ele>150.8</ele><time>2026-04-28T15:17:09Z</time></trkpt><trkpt lat="28.670328036902973" lon="-10.704101572427831"><ele>150.0</ele><time>2026-04-28T15:17:10Z</time></trkpt><trkpt lat="28.67027343717343" lon="-10.704037188249467"><ele>149.6</ele><time>2026-04-28T15:17:11Z</time></trkpt><trkpt lat="28.670217581380808" lon="-10.703971490017004"><ele>149.2</ele><time>2026-04-28T15:17:12Z</time></trkpt><trkpt lat="28.67014714118675" lon="-10.703888637271694"><ele>148.8</ele><time>2026-04-28T15:17:13Z</time></trkpt><trkpt lat="28.67007863336019" lon="-10.703808057529537"><ele>148.4</ele><time>2026-04-28T15:17:14Z</time></trkpt><trkpt lat="28.669999810310635" lon="-10.703715344856112"><ele>148.0</ele><time>2026-04-28T15:17:15Z</time></trkpt><trkpt lat="28.669909739433663" lon="-10.703609402309777"><ele>148.5</ele><time>2026-04-28T15:17:16Z</time></trkpt><trkpt lat="28.669807404882583" lon="-10.703487379692088"><ele>149.0</ele><time>2026-04-28T15:17:17Z</time></trkpt><trkpt lat="28.66970014165179" lon="-10.70336258205863"><ele>149.5</ele><time>2026-04-28T15:17:18Z</time></trkpt><trkpt lat="28.669575163184156" lon="-10.703277282109687"><ele>150.0</ele><time>2026-04-28T15:17:19Z</time></trkpt><trkpt lat="28.669420105296407" lon="-10.703171674018398"><ele>150.66666666666666</ele><time>2026-04-28T15:17:20Z</time></trkpt><trkpt lat="28.669265788875755" lon="-10.703066570951485"><ele>151.33333333333331</ele><time>2026-04-28T15:17:21Z</time></trkpt><trkpt lat="28.66909665642239" lon="-10.70295178237538"><ele>152.0</ele><time>2026-04-28T15:17:22Z</time></trkpt><trkpt lat="28.668933931547386" lon="-10.702841580454626"><ele>151.33333333333331</ele><time>2026-04-28T15:17:23Z</time></trkpt><trkpt lat="28.66879237907151" lon="-10.70274417099464"><ele>150.66666666666666</ele><time>2026-04-28T15:17:24Z</time></trkpt><trkpt lat="28.668659711071218" lon="-10.702654406110197"><ele>150.0</ele><time>2026-04-28T15:17:25Z</time></trkpt><trkpt lat="28.668537930304602" lon="-10.702571611657417"><ele>150.0</ele><time>2026-04-28T15:17:26Z</time></trkpt><trkpt lat="28.66840930259398" lon="-10.70248387358803"><ele>150.0</ele><time>2026-04-28T15:17:27Z</time></trkpt><trkpt lat="28.668261842426023" lon="-10.702383621401616"><ele>150.0</ele><time>2026-04-28T15:17:28Z</time></trkpt><trkpt lat="28.66811909939132" lon="-10.702287045555348"><ele>150.0</ele><time>2026-04-28T15:17:29Z</time></trkpt><trkpt lat="28.667977204165936" lon="-10.702191148717155"><ele>150.0</ele><time>2026-04-28T15:17:30Z</time></trkpt><trkpt lat="28.6678408651291" lon="-10.702074749418799"><ele>150.0</ele><time>2026-04-28T15:17:31Z</time></trkpt><trkpt lat="28.667711317725427" lon="-10.701968428650718"><ele>150.5</ele><time>2026-04-28T15:17:32Z</time></trkpt><trkpt lat="28.66759685060988" lon="-10.701874484409505"><ele>151.0</ele><time>2026-04-28T15:17:33Z</time></trkpt><trkpt lat="28.66748415355359" lon="-10.70178199286757"><ele>151.5</ele><time>2026-04-28T15:17:34Z</time></trkpt><trkpt lat="28.66736982385834" lon="-10.701688161440526"><ele>152.0</ele><time>2026-04-28T15:17:35Z</time></trkpt><trkpt lat="28.66725403722269" lon="-10.701586563238063"><ele>152.0</ele><time>2026-04-28T15:17:36Z</time></trkpt><trkpt lat="28.667128302520407" lon="-10.70149078593086"><ele>152.0</ele><time>2026-04-28T15:17:37Z</time></trkpt><trkpt lat="28.666980234365138" lon="-10.701503231534671"><ele>152.0</ele><time>2026-04-28T15:17:38Z</time></trkpt><trkpt lat="28.66684906165557" lon="-10.701464107451553"><ele>152.0</ele><time>2026-04-28T15:17:39Z</time></trkpt><trkpt lat="28.666734037172894" lon="-10.70142917381021"><ele>152.79999999999998</ele><time>2026-04-28T15:17:40Z</time></trkpt><trkpt lat="28.66663054322645" lon="-10.701397742051993"><ele>153.6</ele><time>2026-04-28T15:17:41Z</time></trkpt><trkpt lat="28.666529032338616" lon="-10.701367193083085"><ele>154.39999999999998</ele><time>2026-04-28T15:17:42Z</time></trkpt><trkpt lat="28.66641300111112" lon="-10.701332409641862"><ele>155.2</ele><time>2026-04-28T15:17:43Z</time></trkpt><trkpt lat="28.666303198185513" lon="-10.701307558003267"><ele>156.0</ele><time>2026-04-28T15:17:44Z</time></trkpt><trkpt lat="28.66616879086991" lon="-10.701264913074521"><ele>156.33333333333334</ele><time>2026-04-28T15:17:45Z</time></trkpt><trkpt lat="28.666040583721884" lon="-10.70121826203709"><ele>156.66666666666669</ele><time>2026-04-28T15:17:46Z</time></trkpt><trkpt lat="28.665927306435613" lon="-10.701171402835184"><ele>157.0</ele><time>2026-04-28T15:17:47Z</time></trkpt><trkpt lat="28.665942563158644" lon="-10.700490918155396"><ele>157.0</ele><time>2026-04-28T15:17:48Z</time></trkpt><trkpt lat="28.665849192310084" lon="-10.700382727174494"><ele>157.0</ele><time>2026-04-28T15:17:49Z</time></trkpt><trkpt lat="28.66576110474529" lon="-10.700270895885323"><ele>157.0</ele><time>2026-04-28T15:17:50Z</time></trkpt><trkpt lat="28.665666440927627" lon="-10.70018214354545"><ele>157.0</ele><time>2026-04-28T15:17:51Z</time></trkpt><trkpt lat="28.66556194502264" lon="-10.700112666798544"><ele>157.0</ele><time>2026-04-28T15:17:52Z</time></trkpt><trkpt lat="28.665448556924908" lon="-10.700053309268274"><ele>157.0</ele><time>2026-04-28T15:17:53Z</time></trkpt><trkpt lat="28.665325495786274" lon="-10.700015208122213"><ele>157.0</ele><time>2026-04-28T15:17:54Z</time></trkpt><trkpt lat="28.665169544641657" lon="-10.699986005272144"><ele>157.0</ele><time>2026-04-28T15:17:55Z</time></trkpt><trkpt lat="28.665003341928326" lon="-10.69994711009331"><ele>157.25</ele><time>2026-04-28T15:17:56Z</time></trkpt><trkpt lat="28.66485227575917" lon="-10.699909386191091"><ele>157.5</ele><time>2026-04-28T15:17:57Z</time></trkpt><trkpt lat="28.66471148063521" lon="-10.699870433593226"><ele>157.75</ele><time>2026-04-28T15:17:58Z</time></trkpt><trkpt lat="28.66459306368376" lon="-10.699809365603198"><ele>158.0</ele><time>2026-04-28T15:17:59Z</time></trkpt><trkpt lat="28.664470580252935" lon="-10.699747793344615"><ele>158.0</ele><time>2026-04-28T15:18:00Z</time></trkpt><trkpt lat="28.664339049357284" lon="-10.699719079602268"><ele>158.0</ele><time>2026-04-28T15:18:01Z</time></trkpt><trkpt lat="28.66422729666486" lon="-10.699693186381232"><ele>158.0</ele><time>2026-04-28T15:18:02Z</time></trkpt><trkpt lat="28.66414943553447" lon="-10.699648694022112"><ele>158.0</ele><time>2026-04-28T15:18:03Z</time></trkpt><trkpt lat="28.664093699350484" lon="-10.699574768457808"><ele>158.0</ele><time>2026-04-28T15:18:04Z</time></trkpt><trkpt lat="28.66403301338733" lon="-10.699465283362546"><ele>157.0</ele><time>2026-04-28T15:18:05Z</time></trkpt><trkpt lat="28.66395429114598" lon="-10.699323312232266"><ele>156.0</ele><time>2026-04-28T15:18:06Z</time></trkpt><trkpt lat="28.66388702410083" lon="-10.6992136127712"><ele>155.0</ele><time>2026-04-28T15:18:07Z</time></trkpt><trkpt lat="28.663836626444787" lon="-10.699120118619337"><ele>154.0</ele><time>2026-04-28T15:18:08Z</time></trkpt><trkpt lat="28.663814725399924" lon="-10.69901302019857"><ele>154.0</ele><time>2026-04-28T15:18:09Z</time></trkpt><trkpt lat="28.663806826980963" lon="-10.698890750375954"><ele>154.0</ele><time>2026-04-28T15:18:10Z</time></trkpt><trkpt lat="28.663792238204824" lon="-10.69880617375429"><ele>154.0</ele><time>2026-04-28T15:18:11Z</time></trkpt><trkpt lat="28.663676280459637" lon="-10.69869977722091"><ele>154.0</ele><time>2026-04-28T15:18:13Z</time></trkpt><trkpt lat="28.663578398842912" lon="-10.698592903319039"><ele>156.66666666666669</ele><time>2026-04-28T15:18:14Z</time></trkpt><trkpt lat="28.663444717788337" lon="-10.698503391750068"><ele>159.33333333333334</ele><time>2026-04-28T15:18:15Z</time></trkpt><trkpt lat="28.663302158940276" lon="-10.698407691922023"><ele>162.0</ele><time>2026-04-28T15:18:16Z</time></trkpt><trkpt lat="28.663177386886503" lon="-10.698331879403163"><ele>162.0</ele><time>2026-04-28T15:18:17Z</time></trkpt><trkpt lat="28.66305741379902" lon="-10.698254791486296"><ele>162.0</ele><time>2026-04-28T15:18:18Z</time></trkpt><trkpt lat="28.662934924772472" lon="-10.698180756108343"><ele>162.0</ele><time>2026-04-28T15:18:19Z</time></trkpt><trkpt lat="28.662801474558275" lon="-10.69809841748394"><ele>162.0</ele><time>2026-04-28T15:18:20Z</time></trkpt><trkpt lat="28.66266858054725" lon="-10.698091277577923"><ele>162.33333333333334</ele><time>2026-04-28T15:18:21Z</time></trkpt><trkpt lat="28.662527365791448" lon="-10.698041576283877"><ele>162.66666666666669</ele><time>2026-04-28T15:18:22Z</time></trkpt><trkpt lat="28.662399392572055" lon="-10.697996535632248"><ele>163.0</ele><time>2026-04-28T15:18:23Z</time></trkpt><trkpt lat="28.66221384187576" lon="-10.697923403257828"><ele>163.0</ele><time>2026-04-28T15:18:24Z</time></trkpt><trkpt lat="28.662079240105573" lon="-10.697845803982073"><ele>163.0</ele><time>2026-04-28T15:18:25Z</time></trkpt><trkpt lat="28.661959031320862" lon="-10.697776502438899"><ele>163.0</ele><time>2026-04-28T15:18:26Z</time></trkpt><trkpt lat="28.66178826841881" lon="-10.69767020634885"><ele>162.75</ele><time>2026-04-28T15:18:27Z</time></trkpt><trkpt lat="28.661650258498213" lon="-10.697575568038207"><ele>162.5</ele><time>2026-04-28T15:18:28Z</time></trkpt><trkpt lat="28.66153369226368" lon="-10.69749573824093"><ele>162.25</ele><time>2026-04-28T15:18:29Z</time></trkpt><trkpt lat="28.661413903157758" lon="-10.69741036066628"><ele>162.0</ele><time>2026-04-28T15:18:30Z</time></trkpt><trkpt lat="28.66160701304764" lon="-10.696820341851845"><ele>162.6</ele><time>2026-04-28T15:18:31Z</time></trkpt><trkpt lat="28.661439814018394" lon="-10.696852641272372"><ele>163.2</ele><time>2026-04-28T15:18:32Z</time></trkpt><trkpt lat="28.661376747347568" lon="-10.696784659097121"><ele>163.8</ele><time>2026-04-28T15:18:33Z</time></trkpt><trkpt lat="28.66134333270616" lon="-10.696718185660187"><ele>164.4</ele><time>2026-04-28T15:18:34Z</time></trkpt><trkpt lat="28.661236226888615" lon="-10.696680026033686"><ele>165.0</ele><time>2026-04-28T15:18:36Z</time></trkpt><trkpt lat="28.661167484499106" lon="-10.696674449909798"><ele>165.0</ele><time>2026-04-28T15:18:39Z</time></trkpt><trkpt lat="28.66109053951676" lon="-10.69667726179585"><ele>165.0</ele><time>2026-04-28T15:18:52Z</time></trkpt><trkpt lat="28.66105257625053" lon="-10.69660944649975"><ele>165.0</ele><time>2026-04-28T15:18:54Z</time></trkpt><trkpt lat="28.6610791643489" lon="-10.696475835838735"><ele>165.0</ele><time>2026-04-28T15:18:56Z</time></trkpt><trkpt lat="28.661102012925404" lon="-10.696399320002094"><ele>165.0</ele><time>2026-04-28T15:18:57Z</time></trkpt><trkpt lat="28.661123062390313" lon="-10.696323473990944"><ele>165.0</ele><time>2026-04-28T15:18:58Z</time></trkpt><trkpt lat="28.661147632209353" lon="-10.6962420851075"><ele>165.00000000000003</ele><time>2026-04-28T15:18:59Z</time></trkpt><trkpt lat="28.661176917132757" lon="-10.69616856293677"><ele>165.0</ele><time>2026-04-28T15:19:00Z</time></trkpt><trkpt lat="28.661209877734503" lon="-10.696095178835032"><ele>165.0</ele><time>2026-04-28T15:19:01Z</time></trkpt><trkpt lat="28.66123853468917" lon="-10.696021171721785"><ele>165.0</ele><time>2026-04-28T15:19:02Z</time></trkpt><trkpt lat="28.661266026206" lon="-10.695945140841301"><ele>165.0</ele><time>2026-04-28T15:19:03Z</time></trkpt><trkpt lat="28.661294704406192" lon="-10.695864312142525"><ele>165.00000000000003</ele><time>2026-04-28T15:19:04Z</time></trkpt><trkpt lat="28.66132403179432" lon="-10.695782851122948"><ele>165.0</ele><time>2026-04-28T15:19:05Z</time></trkpt><trkpt lat="28.661351929443217" lon="-10.695710349262995"><ele>165.0</ele><time>2026-04-28T15:19:06Z</time></trkpt><trkpt lat="28.66140166586753" lon="-10.695575194863443"><ele>165.0</ele><time>2026-04-28T15:19:08Z</time></trkpt><trkpt lat="28.661448571012333" lon="-10.69543522748019"><ele>165.0</ele><time>2026-04-28T15:19:10Z</time></trkpt><trkpt lat="28.661473679350312" lon="-10.69536057896977"><ele>165.0</ele><time>2026-04-28T15:19:11Z</time></trkpt><trkpt lat="28.661505294088375" lon="-10.695280793071488"><ele>165.0</ele><time>2026-04-28T15:19:12Z</time></trkpt><trkpt lat="28.661540513662477" lon="-10.69519253609395"><ele>165.4</ele><time>2026-04-28T15:19:13Z</time></trkpt><trkpt lat="28.661576722061554" lon="-10.695100561421272"><ele>165.8</ele><time>2026-04-28T15:19:14Z</time></trkpt><trkpt lat="28.661613905369084" lon="-10.694999835977072"><ele>166.2</ele><time>2026-04-28T15:19:15Z</time></trkpt><trkpt lat="28.661652033127314" lon="-10.694892602852192"><ele>166.6</ele><time>2026-04-28T15:19:16Z</time></trkpt><trkpt lat="28.66169391051616" lon="-10.694776998353996"><ele>167.0</ele><time>2026-04-28T15:19:17Z</time></trkpt><trkpt lat="28.661738205246735" lon="-10.694653969812881"><ele>167.0</ele><time>2026-04-28T15:19:18Z</time></trkpt><trkpt lat="28.66178346658067" lon="-10.694520075816115"><ele>167.0</ele><time>2026-04-28T15:19:19Z</time></trkpt><trkpt lat="28.661827899410174" lon="-10.694377868300752"><ele>167.0</ele><time>2026-04-28T15:19:20Z</time></trkpt><trkpt lat="28.66186856841858" lon="-10.69423586560918"><ele>167.0</ele><time>2026-04-28T15:19:21Z</time></trkpt><trkpt lat="28.661906673516768" lon="-10.694092942176143"><ele>166.75</ele><time>2026-04-28T15:19:22Z</time></trkpt><trkpt lat="28.66194123548255" lon="-10.69395402693833"><ele>166.5</ele><time>2026-04-28T15:19:23Z</time></trkpt><trkpt lat="28.66197541027477" lon="-10.693814507634587"><ele>166.25</ele><time>2026-04-28T15:19:24Z</time></trkpt><trkpt lat="28.66200632337206" lon="-10.693675199355233"><ele>166.0</ele><time>2026-04-28T15:19:25Z</time></trkpt><trkpt lat="28.662035579024703" lon="-10.693536722830617"><ele>166.0</ele><time>2026-04-28T15:19:26Z</time></trkpt><trkpt lat="28.66206125990335" lon="-10.693395504877634"><ele>166.0</ele><time>2026-04-28T15:19:27Z</time></trkpt><trkpt lat="28.662087543135666" lon="-10.693246910411858"><ele>166.0</ele><time>2026-04-28T15:19:28Z</time></trkpt><trkpt lat="28.662111807137865" lon="-10.693092735200711"><ele>166.0</ele><time>2026-04-28T15:19:29Z</time></trkpt><trkpt lat="28.66213699988578" lon="-10.692932339314293"><ele>166.0</ele><time>2026-04-28T15:19:30Z</time></trkpt><trkpt lat="28.662158468168357" lon="-10.692767519527374"><ele>166.0</ele><time>2026-04-28T15:19:31Z</time></trkpt><trkpt lat="28.662181293006338" lon="-10.69259402700339"><ele>166.0</ele><time>2026-04-28T15:19:32Z</time></trkpt><trkpt lat="28.662201958806605" lon="-10.692420258086756"><ele>166.0</ele><time>2026-04-28T15:19:33Z</time></trkpt><trkpt lat="28.66222211921918" lon="-10.692241009178447"><ele>166.0</ele><time>2026-04-28T15:19:34Z</time></trkpt><trkpt lat="28.66224368942944" lon="-10.692063261312768"><ele>166.0</ele><time>2026-04-28T15:19:35Z</time></trkpt><trkpt lat="28.662265047263613" lon="-10.691891640827324"><ele>165.33333333333334</ele><time>2026-04-28T15:19:36Z</time></trkpt><trkpt lat="28.662284741388184" lon="-10.691720033717065"><ele>164.66666666666666</ele><time>2026-04-28T15:19:37Z</time></trkpt><trkpt lat="28.662302770022514" lon="-10.691545446012626"><ele>164.0</ele><time>2026-04-28T15:19:38Z</time></trkpt><trkpt lat="28.66232412387784" lon="-10.691364715005651"><ele>164.0</ele><time>2026-04-28T15:19:39Z</time></trkpt><trkpt lat="28.662345029433165" lon="-10.691182314295732"><ele>164.0</ele><time>2026-04-28T15:19:40Z</time></trkpt><trkpt lat="28.662365885616193" lon="-10.690995645709933"><ele>164.0</ele><time>2026-04-28T15:19:41Z</time></trkpt><trkpt lat="28.66238777434507" lon="-10.69080626290413"><ele>166.0</ele><time>2026-04-28T15:19:42Z</time></trkpt><trkpt lat="28.66240951170337" lon="-10.690615017692224"><ele>168.0</ele><time>2026-04-28T15:19:43Z</time></trkpt><trkpt lat="28.662433170028205" lon="-10.690421594168946"><ele>170.0</ele><time>2026-04-28T15:19:44Z</time></trkpt><trkpt lat="28.66245580297812" lon="-10.690226845220462"><ele>170.66666666666666</ele><time>2026-04-28T15:19:45Z</time></trkpt><trkpt lat="28.66247946798893" lon="-10.69003329704686"><ele>171.33333333333334</ele><time>2026-04-28T15:19:46Z</time></trkpt><trkpt lat="28.66250247457387" lon="-10.689842207675555"><ele>172.0</ele><time>2026-04-28T15:19:47Z</time></trkpt><trkpt lat="28.662526058609682" lon="-10.689650502411535"><ele>172.0</ele><time>2026-04-28T15:19:48Z</time></trkpt><trkpt lat="28.66254943259204" lon="-10.68946057559101"><ele>172.0</ele><time>2026-04-28T15:19:49Z</time></trkpt><trkpt lat="28.662571637910283" lon="-10.689271332016496"><ele>172.0</ele><time>2026-04-28T15:19:50Z</time></trkpt><trkpt lat="28.662594494807454" lon="-10.689081960426332"><ele>171.66666666666669</ele><time>2026-04-28T15:19:51Z</time></trkpt><trkpt lat="28.662616492688002" lon="-10.68889231790459"><ele>171.33333333333334</ele><time>2026-04-28T15:19:52Z</time></trkpt><trkpt lat="28.662637664845715" lon="-10.688704978221976"><ele>171.0</ele><time>2026-04-28T15:19:53Z</time></trkpt><trkpt lat="28.662657461782867" lon="-10.688532143782487"><ele>171.4</ele><time>2026-04-28T15:19:54Z</time></trkpt><trkpt lat="28.66267488457039" lon="-10.688383103963707"><ele>171.8</ele><time>2026-04-28T15:19:55Z</time></trkpt><trkpt lat="28.662689943883016" lon="-10.688253763896451"><ele>172.20000000000002</ele><time>2026-04-28T15:19:56Z</time></trkpt><trkpt lat="28.662700351873774" lon="-10.688139159768209"><ele>172.60000000000002</ele><time>2026-04-28T15:19:57Z</time></trkpt><trkpt lat="28.662706358915678" lon="-10.688039262401004"><ele>173.0</ele><time>2026-04-28T15:19:58Z</time></trkpt><trkpt lat="28.66271163010674" lon="-10.687958299310688"><ele>173.0</ele><time>2026-04-28T15:19:59Z</time></trkpt><trkpt lat="28.662719298338203" lon="-10.687883536122806"><ele>173.0</ele><time>2026-04-28T15:20:00Z</time></trkpt><trkpt lat="28.662734660626207" lon="-10.687763672865945"><ele>173.0</ele><time>2026-04-28T15:20:02Z</time></trkpt><trkpt lat="28.662741653087615" lon="-10.687689853251229"><ele>173.0</ele><time>2026-04-28T15:20:04Z</time></trkpt><trkpt lat="28.662764050230855" lon="-10.68760904587295"><ele>173.0</ele><time>2026-04-28T15:21:57Z</time></trkpt><trkpt lat="28.66277583319533" lon="-10.687531253792175"><ele>173.0</ele><time>2026-04-28T15:21:59Z</time></trkpt><trkpt lat="28.662918285501686" lon="-10.687622102190542"><ele>172.8</ele><time>2026-04-28T15:22:03Z</time></trkpt><trkpt lat="28.662919447698116" lon="-10.687708162456817"><ele>172.60000000000002</ele><time>2026-04-28T15:22:04Z</time></trkpt><trkpt lat="28.662911330228507" lon="-10.687808082367404"><ele>172.39999999999998</ele><time>2026-04-28T15:22:05Z</time></trkpt><trkpt lat="28.662893284638322" lon="-10.687941446497614"><ele>172.2</ele><time>2026-04-28T15:22:06Z</time></trkpt><trkpt lat="28.66287087639462" lon="-10.688095173803683"><ele>172.0</ele><time>2026-04-28T15:22:07Z</time></trkpt><trkpt lat="28.662800429704557" lon="-10.688270987509402"><ele>172.33333333333334</ele><time>2026-04-28T15:22:08Z</time></trkpt><trkpt lat="28.662777457320754" lon="-10.688470142894886"><ele>172.66666666666666</ele><time>2026-04-28T15:22:09Z</time></trkpt><trkpt lat="28.66275351765482" lon="-10.68867768430278"><ele>173.0</ele><time>2026-04-28T15:22:10Z</time></trkpt><trkpt lat="28.662727063689832" lon="-10.688906222713333"><ele>172.66666666666666</ele><time>2026-04-28T15:22:11Z</time></trkpt><trkpt lat="28.662698897922848" lon="-10.689148026005585"><ele>172.33333333333334</ele><time>2026-04-28T15:22:12Z</time></trkpt><trkpt lat="28.662670229299454" lon="-10.689394481802866"><ele>172.0</ele><time>2026-04-28T15:22:13Z</time></trkpt><trkpt lat="28.662640277651" lon="-10.6896519987017"><ele>172.0</ele><time>2026-04-28T15:22:14Z</time></trkpt><trkpt lat="28.66260926900955" lon="-10.689917900626252"><ele>172.0</ele><time>2026-04-28T15:22:15Z</time></trkpt><trkpt lat="28.662579004407416" lon="-10.690177698030855"><ele>171.0</ele><time>2026-04-28T15:22:16Z</time></trkpt><trkpt lat="28.66254805307772" lon="-10.690447048550707"><ele>170.0</ele><time>2026-04-28T15:22:17Z</time></trkpt><trkpt lat="28.66251627641831" lon="-10.690721902082482"><ele>170.0</ele><time>2026-04-28T15:22:18Z</time></trkpt><trkpt lat="28.662484084164607" lon="-10.690997535181058"><ele>170.0</ele><time>2026-04-28T15:22:19Z</time></trkpt><trkpt lat="28.662452035355994" lon="-10.691275020911947"><ele>167.0</ele><time>2026-04-28T15:22:20Z</time></trkpt><trkpt lat="28.662419806850835" lon="-10.691551928227303"><ele>164.0</ele><time>2026-04-28T15:22:21Z</time></trkpt><trkpt lat="28.662388833806837" lon="-10.691818297644646"><ele>165.0</ele><time>2026-04-28T15:22:22Z</time></trkpt><trkpt lat="28.66235748171106" lon="-10.692087659270003"><ele>166.0</ele><time>2026-04-28T15:22:23Z</time></trkpt><trkpt lat="28.6623264611608" lon="-10.692358901718096"><ele>166.0</ele><time>2026-04-28T15:22:24Z</time></trkpt><trkpt lat="28.66229218558433" lon="-10.692628576368929"><ele>166.0</ele><time>2026-04-28T15:22:25Z</time></trkpt><trkpt lat="28.662255498212485" lon="-10.692901333947681"><ele>166.0</ele><time>2026-04-28T15:22:26Z</time></trkpt><trkpt lat="28.662213028980457" lon="-10.693168253202142"><ele>166.0</ele><time>2026-04-28T15:22:27Z</time></trkpt><trkpt lat="28.662170339340392" lon="-10.693439355087554"><ele>165.5</ele><time>2026-04-28T15:22:28Z</time></trkpt><trkpt lat="28.66212226490495" lon="-10.693706846388174"><ele>165.0</ele><time>2026-04-28T15:22:29Z</time></trkpt><trkpt lat="28.66205910687039" lon="-10.693971959408746"><ele>165.0</ele><time>2026-04-28T15:22:30Z</time></trkpt><trkpt lat="28.661983656220524" lon="-10.694235752266577"><ele>165.0</ele><time>2026-04-28T15:22:31Z</time></trkpt><trkpt lat="28.66190363155804" lon="-10.694499617227809"><ele>166.0</ele><time>2026-04-28T15:22:32Z</time></trkpt><trkpt lat="28.661820750892964" lon="-10.694763903010076"><ele>167.0</ele><time>2026-04-28T15:22:33Z</time></trkpt><trkpt lat="28.661733202015427" lon="-10.695026048150249"><ele>166.0</ele><time>2026-04-28T15:22:34Z</time></trkpt><trkpt lat="28.661637078052046" lon="-10.695285857012522"><ele>165.0</ele><time>2026-04-28T15:22:35Z</time></trkpt><trkpt lat="28.661537526904883" lon="-10.695544739606879"><ele>165.0</ele><time>2026-04-28T15:22:36Z</time></trkpt><trkpt lat="28.661439343942384" lon="-10.695802241802554"><ele>165.0</ele><time>2026-04-28T15:22:37Z</time></trkpt><trkpt lat="28.661341668271582" lon="-10.696059613118111"><ele>165.0</ele><time>2026-04-28T15:22:38Z</time></trkpt><trkpt lat="28.661244346583715" lon="-10.69631624325767"><ele>165.0</ele><time>2026-04-28T15:22:39Z</time></trkpt><trkpt lat="28.661148145457556" lon="-10.696569918385958"><ele>165.5</ele><time>2026-04-28T15:22:40Z</time></trkpt><trkpt lat="28.6610520658027" lon="-10.696826858094218"><ele>166.0</ele><time>2026-04-28T15:22:41Z</time></trkpt><trkpt lat="28.660957778771564" lon="-10.697081560727037"><ele>165.0</ele><time>2026-04-28T15:22:42Z</time></trkpt><trkpt lat="28.660863050115434" lon="-10.697335481271924"><ele>164.0</ele><time>2026-04-28T15:22:43Z</time></trkpt><trkpt lat="28.660768809632927" lon="-10.69758788678976"><ele>164.0</ele><time>2026-04-28T15:22:44Z</time></trkpt><trkpt lat="28.660673060057377" lon="-10.697841308155322"><ele>164.0</ele><time>2026-04-28T15:22:45Z</time></trkpt><trkpt lat="28.660579740977674" lon="-10.69809101968505"><ele>164.0</ele><time>2026-04-28T15:22:46Z</time></trkpt><trkpt lat="28.66048668341618" lon="-10.698340735273424"><ele>164.0</ele><time>2026-04-28T15:22:47Z</time></trkpt><trkpt lat="28.66039371402254" lon="-10.698590214333397"><ele>164.0</ele><time>2026-04-28T15:22:48Z</time></trkpt><trkpt lat="28.660300499197145" lon="-10.698839876485865"><ele>164.0</ele><time>2026-04-28T15:22:49Z</time></trkpt><trkpt lat="28.660207294943632" lon="-10.699088838036339"><ele>164.0</ele><time>2026-04-28T15:22:50Z</time></trkpt><trkpt lat="28.660114568147247" lon="-10.699336524243426"><ele>164.0</ele><time>2026-04-28T15:22:51Z</time></trkpt><trkpt lat="28.660022012196684" lon="-10.699583754079303"><ele>164.5</ele><time>2026-04-28T15:22:52Z</time></trkpt><trkpt lat="28.65992858324495" lon="-10.699833315801719"><ele>165.0</ele><time>2026-04-28T15:22:53Z</time></trkpt><trkpt lat="28.659834698300358" lon="-10.70008439457838"><ele>163.5</ele><time>2026-04-28T15:22:54Z</time></trkpt><trkpt lat="28.659739598289672" lon="-10.700338777221344"><ele>162.0</ele><time>2026-04-28T15:22:55Z</time></trkpt><trkpt lat="28.65964335303511" lon="-10.70059622326473"><ele>162.0</ele><time>2026-04-28T15:22:56Z</time></trkpt><trkpt lat="28.659547734702347" lon="-10.700853855106052"><ele>162.0</ele><time>2026-04-28T15:22:57Z</time></trkpt><trkpt lat="28.659451751141866" lon="-10.701110536979366"><ele>161.0</ele><time>2026-04-28T15:22:58Z</time></trkpt><trkpt lat="28.659355450776978" lon="-10.70136769883961"><ele>160.0</ele><time>2026-04-28T15:22:59Z</time></trkpt><trkpt lat="28.659259263989217" lon="-10.701626140138977"><ele>160.0</ele><time>2026-04-28T15:23:00Z</time></trkpt><trkpt lat="28.65916188836166" lon="-10.701885761698842"><ele>160.0</ele><time>2026-04-28T15:23:01Z</time></trkpt><trkpt lat="28.65906384894832" lon="-10.702147894208334"><ele>159.0</ele><time>2026-04-28T15:23:02Z</time></trkpt><trkpt lat="28.658965322293817" lon="-10.702411936176171"><ele>158.0</ele><time>2026-04-28T15:23:03Z</time></trkpt><trkpt lat="28.65886762779042" lon="-10.702673511037046"><ele>159.0</ele><time>2026-04-28T15:23:04Z</time></trkpt><trkpt lat="28.658768242759685" lon="-10.702939153613631"><ele>160.0</ele><time>2026-04-28T15:23:05Z</time></trkpt><trkpt lat="28.6586694912356" lon="-10.703202814031016"><ele>160.0</ele><time>2026-04-28T15:23:06Z</time></trkpt><trkpt lat="28.658570818166577" lon="-10.703466265151986"><ele>160.0</ele><time>2026-04-28T15:23:07Z</time></trkpt><trkpt lat="28.65847389191507" lon="-10.70372567022463"><ele>158.5</ele><time>2026-04-28T15:23:08Z</time></trkpt><trkpt lat="28.65837601042903" lon="-10.703988018980853"><ele>157.0</ele><time>2026-04-28T15:23:09Z</time></trkpt><trkpt lat="28.658277444851997" lon="-10.704252171491428"><ele>157.5</ele><time>2026-04-28T15:23:10Z</time></trkpt><trkpt lat="28.65818026004384" lon="-10.704512497391631"><ele>158.0</ele><time>2026-04-28T15:23:11Z</time></trkpt><trkpt lat="28.65808581931508" lon="-10.704770888934737"><ele>158.0</ele><time>2026-04-28T15:23:12Z</time></trkpt><trkpt lat="28.65799303781387" lon="-10.705027382944387"><ele>158.0</ele><time>2026-04-28T15:23:13Z</time></trkpt><trkpt lat="28.657900958660523" lon="-10.705281935389054"><ele>158.0</ele><time>2026-04-28T15:23:14Z</time></trkpt><trkpt lat="28.65781687970879" lon="-10.705533856673835"><ele>158.0</ele><time>2026-04-28T15:23:15Z</time></trkpt><trkpt lat="28.657727386569466" lon="-10.705782118447125"><ele>158.5</ele><time>2026-04-28T15:23:16Z</time></trkpt><trkpt lat="28.65763379061808" lon="-10.706028625079014"><ele>159.0</ele><time>2026-04-28T15:23:17Z</time></trkpt><trkpt lat="28.657541833245755" lon="-10.706273217157237"><ele>159.0</ele><time>2026-04-28T15:23:18Z</time></trkpt><trkpt lat="28.657449856978044" lon="-10.706518768486461"><ele>159.0</ele><time>2026-04-28T15:23:19Z</time></trkpt><trkpt lat="28.65735747532742" lon="-10.7067654021427"><ele>159.5</ele><time>2026-04-28T15:23:20Z</time></trkpt><trkpt lat="28.657264152447432" lon="-10.707015748183377"><ele>160.0</ele><time>2026-04-28T15:23:21Z</time></trkpt><trkpt lat="28.65717074276323" lon="-10.70726632161174"><ele>160.0</ele><time>2026-04-28T15:23:22Z</time></trkpt><trkpt lat="28.657076054840392" lon="-10.707520325585149"><ele>160.0</ele><time>2026-04-28T15:23:23Z</time></trkpt><trkpt lat="28.6569784701291" lon="-10.707778622313787"><ele>162.5</ele><time>2026-04-28T15:23:24Z</time></trkpt><trkpt lat="28.656880962169993" lon="-10.708036775490816"><ele>165.0</ele><time>2026-04-28T15:23:25Z</time></trkpt><trkpt lat="28.6567834359236" lon="-10.708302173380538"><ele>165.0</ele><time>2026-04-28T15:23:26Z</time></trkpt><trkpt lat="28.656684023291955" lon="-10.708562010316792"><ele>165.0</ele><time>2026-04-28T15:23:27Z</time></trkpt><trkpt lat="28.656581410056926" lon="-10.708826131990426"><ele>163.5</ele><time>2026-04-28T15:23:28Z</time></trkpt><trkpt lat="28.65648112247216" lon="-10.70908895867725"><ele>162.0</ele><time>2026-04-28T15:23:29Z</time></trkpt><trkpt lat="28.656382744146956" lon="-10.709346782600251"><ele>161.5</ele><time>2026-04-28T15:23:30Z</time></trkpt><trkpt lat="28.656286090083345" lon="-10.709599750338393"><ele>161.0</ele><time>2026-04-28T15:23:31Z</time></trkpt><trkpt lat="28.656191027008028" lon="-10.709848530074924"><ele>161.0</ele><time>2026-04-28T15:23:32Z</time></trkpt><trkpt lat="28.656096627937735" lon="-10.710095571956936"><ele>161.0</ele><time>2026-04-28T15:23:33Z</time></trkpt><trkpt lat="28.65600254733253" lon="-10.710341780274963"><ele>161.0</ele><time>2026-04-28T15:23:34Z</time></trkpt><trkpt lat="28.65590683991667" lon="-10.710581762302898"><ele>161.0</ele><time>2026-04-28T15:23:35Z</time></trkpt><trkpt lat="28.655807209846973" lon="-10.710823790867996"><ele>161.0</ele><time>2026-04-28T15:23:36Z</time></trkpt><trkpt lat="28.655698782912218" lon="-10.711073693089665"><ele>161.0</ele><time>2026-04-28T15:23:37Z</time></trkpt><trkpt lat="28.655585220808256" lon="-10.711320913267402"><ele>160.0</ele><time>2026-04-28T15:23:38Z</time></trkpt><trkpt lat="28.655465893000404" lon="-10.711570801679889"><ele>159.0</ele><time>2026-04-28T15:23:39Z</time></trkpt><trkpt lat="28.65534117654556" lon="-10.711821879476835"><ele>160.5</ele><time>2026-04-28T15:23:40Z</time></trkpt><trkpt lat="28.655214919968707" lon="-10.712076053996674"><ele>162.0</ele><time>2026-04-28T15:23:41Z</time></trkpt><trkpt lat="28.655090576923605" lon="-10.7123303143903"><ele>162.0</ele><time>2026-04-28T15:23:42Z</time></trkpt><trkpt lat="28.654985368233085" lon="-10.712596796968816"><ele>162.0</ele><time>2026-04-28T15:23:43Z</time></trkpt><trkpt lat="28.65485105183999" lon="-10.712844113098853"><ele>162.5</ele><time>2026-04-28T15:23:44Z</time></trkpt><trkpt lat="28.65472005556253" lon="-10.713088185710564"><ele>163.0</ele><time>2026-04-28T15:23:45Z</time></trkpt><trkpt lat="28.654590665607532" lon="-10.713329838929683"><ele>163.0</ele><time>2026-04-28T15:23:46Z</time></trkpt><trkpt lat="28.654462144110354" lon="-10.713571381845329"><ele>163.0</ele><time>2026-04-28T15:23:47Z</time></trkpt><trkpt lat="28.654336821066927" lon="-10.713809587452642"><ele>163.5</ele><time>2026-04-28T15:23:48Z</time></trkpt><trkpt lat="28.65420769763139" lon="-10.714045481619705"><ele>164.0</ele><time>2026-04-28T15:23:49Z</time></trkpt><trkpt lat="28.654081108301032" lon="-10.714276359224876"><ele>164.5</ele><time>2026-04-28T15:23:50Z</time></trkpt><trkpt lat="28.653958318644687" lon="-10.714501567641042"><ele>165.0</ele><time>2026-04-28T15:23:51Z</time></trkpt><trkpt lat="28.653836915376697" lon="-10.714722443966194"><ele>165.0</ele><time>2026-04-28T15:23:52Z</time></trkpt><trkpt lat="28.65371568044278" lon="-10.71494531361584"><ele>165.0</ele><time>2026-04-28T15:23:53Z</time></trkpt><trkpt lat="28.653593511584823" lon="-10.715168517686832"><ele>165.5</ele><time>2026-04-28T15:23:54Z</time></trkpt><trkpt lat="28.653473772841238" lon="-10.715388801719708"><ele>166.0</ele><time>2026-04-28T15:23:55Z</time></trkpt><trkpt lat="28.653351637519528" lon="-10.715618001170947"><ele>166.0</ele><time>2026-04-28T15:23:56Z</time></trkpt><trkpt lat="28.653225729699727" lon="-10.715852810693633"><ele>166.0</ele><time>2026-04-28T15:23:57Z</time></trkpt><trkpt lat="28.653097756660205" lon="-10.716090117874083"><ele>166.5</ele><time>2026-04-28T15:23:58Z</time></trkpt><trkpt lat="28.65296907934105" lon="-10.716328118592546"><ele>167.0</ele><time>2026-04-28T15:23:59Z</time></trkpt><trkpt lat="28.652841713243618" lon="-10.716559996820745"><ele>168.0</ele><time>2026-04-28T15:24:00Z</time></trkpt><trkpt lat="28.65271918242548" lon="-10.71678179196808"><ele>169.0</ele><time>2026-04-28T15:24:01Z</time></trkpt><trkpt lat="28.652602711195513" lon="-10.717000174626016"><ele>169.0</ele><time>2026-04-28T15:24:02Z</time></trkpt><trkpt lat="28.652485201031446" lon="-10.717213696281103"><ele>169.0</ele><time>2026-04-28T15:24:03Z</time></trkpt><trkpt lat="28.652372358759617" lon="-10.717422130491839"><ele>169.0</ele><time>2026-04-28T15:24:04Z</time></trkpt><trkpt lat="28.652265850518237" lon="-10.717624748610934"><ele>169.66666666666669</ele><time>2026-04-28T15:24:05Z</time></trkpt><trkpt lat="28.65215412997722" lon="-10.717834272068547"><ele>170.33333333333334</ele><time>2026-04-28T15:24:06Z</time></trkpt><trkpt lat="28.652041172148262" lon="-10.71804286580515"><ele>171.0</ele><time>2026-04-28T15:24:07Z</time></trkpt><trkpt lat="28.65192543450014" lon="-10.718254666022814"><ele>171.33333333333334</ele><time>2026-04-28T15:24:08Z</time></trkpt><trkpt lat="28.6518080757378" lon="-10.718467986862356"><ele>171.66666666666669</ele><time>2026-04-28T15:24:09Z</time></trkpt><trkpt lat="28.651689765828806" lon="-10.71868908723645"><ele>172.0</ele><time>2026-04-28T15:24:10Z</time></trkpt><trkpt lat="28.651562867989657" lon="-10.718921147065359"><ele>175.5</ele><time>2026-04-28T15:24:11Z</time></trkpt><trkpt lat="28.651434860223617" lon="-10.719154719209795"><ele>179.0</ele><time>2026-04-28T15:24:12Z</time></trkpt><trkpt lat="28.651306937290837" lon="-10.719387553477034"><ele>176.5</ele><time>2026-04-28T15:24:13Z</time></trkpt><trkpt lat="28.65118072615608" lon="-10.719622989989738"><ele>174.0</ele><time>2026-04-28T15:24:14Z</time></trkpt><trkpt lat="28.651052731350017" lon="-10.719859919757237"><ele>174.0</ele><time>2026-04-28T15:24:15Z</time></trkpt><trkpt lat="28.65092154727015" lon="-10.720097368025826"><ele>174.0</ele><time>2026-04-28T15:24:16Z</time></trkpt><trkpt lat="28.65079197075622" lon="-10.72033155508063"><ele>176.0</ele><time>2026-04-28T15:24:17Z</time></trkpt><trkpt lat="28.650659818138326" lon="-10.720569988966979"><ele>178.0</ele><time>2026-04-28T15:24:18Z</time></trkpt><trkpt lat="28.650523547554776" lon="-10.720812498768222"><ele>178.0</ele><time>2026-04-28T15:24:19Z</time></trkpt><trkpt lat="28.65038378401484" lon="-10.72106116730211"><ele>178.0</ele><time>2026-04-28T15:24:20Z</time></trkpt><trkpt lat="28.65024462596797" lon="-10.721308626472853"><ele>176.0</ele><time>2026-04-28T15:24:21Z</time></trkpt><trkpt lat="28.650108384557743" lon="-10.721553827912329"><ele>174.0</ele><time>2026-04-28T15:24:22Z</time></trkpt><trkpt lat="28.649976037659254" lon="-10.721796508631268"><ele>176.0</ele><time>2026-04-28T15:24:23Z</time></trkpt><trkpt lat="28.64984557942587" lon="-10.722037832695607"><ele>178.0</ele><time>2026-04-28T15:24:24Z</time></trkpt><trkpt lat="28.649713968920818" lon="-10.722280069449853"><ele>178.0</ele><time>2026-04-28T15:24:25Z</time></trkpt><trkpt lat="28.649583994074884" lon="-10.722519709395323"><ele>178.0</ele><time>2026-04-28T15:24:26Z</time></trkpt><trkpt lat="28.649452305116924" lon="-10.722762272629422"><ele>177.5</ele><time>2026-04-28T15:24:27Z</time></trkpt><trkpt lat="28.64932062866113" lon="-10.723005747168152"><ele>177.0</ele><time>2026-04-28T15:24:28Z</time></trkpt><trkpt lat="28.64919089544611" lon="-10.723247487761496"><ele>177.0</ele><time>2026-04-28T15:24:29Z</time></trkpt><trkpt lat="28.649059843273292" lon="-10.723488341323716"><ele>177.0</ele><time>2026-04-28T15:24:30Z</time></trkpt><trkpt lat="28.648925555178558" lon="-10.723729897518828"><ele>179.5</ele><time>2026-04-28T15:24:31Z</time></trkpt><trkpt lat="28.648793090512005" lon="-10.72396936742494"><ele>182.0</ele><time>2026-04-28T15:24:32Z</time></trkpt><trkpt lat="28.648669597931764" lon="-10.724202960314493"><ele>179.0</ele><time>2026-04-28T15:24:33Z</time></trkpt><trkpt lat="28.648553750018117" lon="-10.724438397668987"><ele>176.0</ele><time>2026-04-28T15:24:34Z</time></trkpt><trkpt lat="28.64843928240185" lon="-10.724680836654207"><ele>176.0</ele><time>2026-04-28T15:24:35Z</time></trkpt><trkpt lat="28.648318812781774" lon="-10.724921875501169"><ele>176.0</ele><time>2026-04-28T15:24:36Z</time></trkpt><trkpt lat="28.648199582400295" lon="-10.725153504866197"><ele>178.5</ele><time>2026-04-28T15:24:37Z</time></trkpt><trkpt lat="28.64807861162431" lon="-10.725373458213129"><ele>181.0</ele><time>2026-04-28T15:24:38Z</time></trkpt><trkpt lat="28.647956944120008" lon="-10.725587080391875"><ele>181.0</ele><time>2026-04-28T15:24:39Z</time></trkpt><trkpt lat="28.64784219372942" lon="-10.725792965697138"><ele>181.0</ele><time>2026-04-28T15:24:40Z</time></trkpt><trkpt lat="28.647728422820588" lon="-10.725999557916039"><ele>181.0</ele><time>2026-04-28T15:24:41Z</time></trkpt><trkpt lat="28.64761693170713" lon="-10.726206933485265"><ele>181.66666666666669</ele><time>2026-04-28T15:24:42Z</time></trkpt><trkpt lat="28.6475074901839" lon="-10.726413015865607"><ele>182.33333333333334</ele><time>2026-04-28T15:24:43Z</time></trkpt><trkpt lat="28.647403247101547" lon="-10.726613677542039"><ele>183.0</ele><time>2026-04-28T15:24:44Z</time></trkpt><trkpt lat="28.64729759449024" lon="-10.726809695528196"><ele>182.33333333333334</ele><time>2026-04-28T15:24:45Z</time></trkpt><trkpt lat="28.64719312333442" lon="-10.727003407787956"><ele>181.66666666666669</ele><time>2026-04-28T15:24:46Z</time></trkpt><trkpt lat="28.647084861824975" lon="-10.7272003848272"><ele>181.0</ele><time>2026-04-28T15:24:47Z</time></trkpt><trkpt lat="28.646979327639322" lon="-10.727391173446078"><ele>181.0</ele><time>2026-04-28T15:24:48Z</time></trkpt><trkpt lat="28.64687112854019" lon="-10.72757943395871"><ele>181.0</ele><time>2026-04-28T15:24:49Z</time></trkpt><trkpt lat="28.646766824986567" lon="-10.727763425314397"><ele>181.0</ele><time>2026-04-28T15:24:50Z</time></trkpt><trkpt lat="28.64666520812534" lon="-10.727945118302099"><ele>181.0</ele><time>2026-04-28T15:24:51Z</time></trkpt><trkpt lat="28.646571057166593" lon="-10.728120647125595"><ele>181.0</ele><time>2026-04-28T15:24:52Z</time></trkpt><trkpt lat="28.64644234959845" lon="-10.728256807928211"><ele>181.0</ele><time>2026-04-28T15:24:53Z</time></trkpt><trkpt lat="28.64635506927065" lon="-10.728418292439278"><ele>182.66666666666669</ele><time>2026-04-28T15:24:54Z</time></trkpt><trkpt lat="28.6462619216507" lon="-10.728590632513939"><ele>184.33333333333334</ele><time>2026-04-28T15:24:55Z</time></trkpt><trkpt lat="28.646170450848413" lon="-10.728760710685766"><ele>186.0</ele><time>2026-04-28T15:24:56Z</time></trkpt><trkpt lat="28.646080907425603" lon="-10.728926304709121"><ele>186.33333333333334</ele><time>2026-04-28T15:24:57Z</time></trkpt><trkpt lat="28.64598703155341" lon="-10.72910030512445"><ele>186.66666666666669</ele><time>2026-04-28T15:24:58Z</time></trkpt><trkpt lat="28.645890126338372" lon="-10.72927977578106"><ele>187.0</ele><time>2026-04-28T15:24:59Z</time></trkpt><trkpt lat="28.64579724626312" lon="-10.729451222159256"><ele>187.0</ele><time>2026-04-28T15:25:00Z</time></trkpt><trkpt lat="28.64569971720828" lon="-10.729631249949707"><ele>187.0</ele><time>2026-04-28T15:25:01Z</time></trkpt><trkpt lat="28.64559998572686" lon="-10.729815343329227"><ele>187.0</ele><time>2026-04-28T15:25:02Z</time></trkpt><trkpt lat="28.645499476303332" lon="-10.730000872598485"><ele>187.0</ele><time>2026-04-28T15:25:03Z</time></trkpt><trkpt lat="28.64539974151337" lon="-10.730185328543007"><ele>187.0</ele><time>2026-04-28T15:25:04Z</time></trkpt><trkpt lat="28.64529861142341" lon="-10.730372499927125"><ele>187.0</ele><time>2026-04-28T15:25:05Z</time></trkpt><trkpt lat="28.64519725472986" lon="-10.730560472352181"><ele>187.0</ele><time>2026-04-28T15:25:06Z</time></trkpt><trkpt lat="28.645095042666956" lon="-10.730750547824625"><ele>187.0</ele><time>2026-04-28T15:25:07Z</time></trkpt><trkpt lat="28.644991880113853" lon="-10.730941460429738"><ele>187.0</ele><time>2026-04-28T15:25:08Z</time></trkpt><trkpt lat="28.64488643854464" lon="-10.731136729028258"><ele>187.0</ele><time>2026-04-28T15:25:09Z</time></trkpt><trkpt lat="28.644779425459717" lon="-10.731334886809663"><ele>187.0</ele><time>2026-04-28T15:25:10Z</time></trkpt><trkpt lat="28.644670275103696" lon="-10.731537002225771"><ele>187.0</ele><time>2026-04-28T15:25:11Z</time></trkpt><trkpt lat="28.644559682354828" lon="-10.731741012553405"><ele>187.33333333333334</ele><time>2026-04-28T15:25:12Z</time></trkpt><trkpt lat="28.64444702601891" lon="-10.731946918887168"><ele>187.66666666666666</ele><time>2026-04-28T15:25:13Z</time></trkpt><trkpt lat="28.644327796026705" lon="-10.732154434879181"><ele>188.0</ele><time>2026-04-28T15:25:14Z</time></trkpt><trkpt lat="28.64421074362209" lon="-10.732366326818203"><ele>188.0</ele><time>2026-04-28T15:25:15Z</time></trkpt><trkpt lat="28.644098344537294" lon="-10.732585796956602"><ele>188.0</ele><time>2026-04-28T15:25:16Z</time></trkpt><trkpt lat="28.643988908053366" lon="-10.732808348071558"><ele>188.0</ele><time>2026-04-28T15:25:17Z</time></trkpt><trkpt lat="28.643879240024887" lon="-10.733030223064755"><ele>191.0</ele><time>2026-04-28T15:25:18Z</time></trkpt><trkpt lat="28.643767547503646" lon="-10.733250941131152"><ele>194.0</ele><time>2026-04-28T15:25:19Z</time></trkpt><trkpt lat="28.643665065341494" lon="-10.733476404073736"><ele>197.0</ele><time>2026-04-28T15:25:20Z</time></trkpt><trkpt lat="28.64354801722785" lon="-10.733694663292763"><ele>197.0</ele><time>2026-04-28T15:25:21Z</time></trkpt><trkpt lat="28.64341828317337" lon="-10.733900798379857"><ele>197.0</ele><time>2026-04-28T15:25:22Z</time></trkpt><trkpt lat="28.643289789711485" lon="-10.734109199417672"><ele>197.0</ele><time>2026-04-28T15:25:23Z</time></trkpt><trkpt lat="28.64316221878773" lon="-10.734319527022405"><ele>194.66666666666669</ele><time>2026-04-28T15:25:24Z</time></trkpt><trkpt lat="28.64303565937757" lon="-10.734532428300879"><ele>192.33333333333334</ele><time>2026-04-28T15:25:25Z</time></trkpt><trkpt lat="28.642917524779822" lon="-10.734747515464795"><ele>190.0</ele><time>2026-04-28T15:25:26Z</time></trkpt><trkpt lat="28.642801379594896" lon="-10.734963020737807"><ele>191.66666666666669</ele><time>2026-04-28T15:25:27Z</time></trkpt><trkpt lat="28.64268518505332" lon="-10.735177575699106"><ele>193.33333333333334</ele><time>2026-04-28T15:25:28Z</time></trkpt><trkpt lat="28.64256994183322" lon="-10.735390373913859"><ele>195.0</ele><time>2026-04-28T15:25:29Z</time></trkpt><trkpt lat="28.64245625028297" lon="-10.735600958600907"><ele>195.0</ele><time>2026-04-28T15:25:30Z</time></trkpt><trkpt lat="28.642346152829038" lon="-10.73580550768693"><ele>195.0</ele><time>2026-04-28T15:25:31Z</time></trkpt><trkpt lat="28.642236833024484" lon="-10.736008161278392"><ele>195.0</ele><time>2026-04-28T15:25:32Z</time></trkpt><trkpt lat="28.64212870068048" lon="-10.736209221051093"><ele>195.0</ele><time>2026-04-28T15:25:33Z</time></trkpt><trkpt lat="28.642021212559793" lon="-10.736409105313193"><ele>195.0</ele><time>2026-04-28T15:25:34Z</time></trkpt><trkpt lat="28.641913858851453" lon="-10.736608653868835"><ele>195.0</ele><time>2026-04-28T15:25:35Z</time></trkpt><trkpt lat="28.64180547726819" lon="-10.73680998888101"><ele>196.66666666666669</ele><time>2026-04-28T15:25:36Z</time></trkpt><trkpt lat="28.641695996508048" lon="-10.737012859701553"><ele>198.33333333333334</ele><time>2026-04-28T15:25:37Z</time></trkpt><trkpt lat="28.641586756586072" lon="-10.737215284234205"><ele>200.0</ele><time>2026-04-28T15:25:38Z</time></trkpt><trkpt lat="28.641477417305357" lon="-10.73741815233145"><ele>200.0</ele><time>2026-04-28T15:25:39Z</time></trkpt><trkpt lat="28.641367011361613" lon="-10.73762343559426"><ele>200.0</ele><time>2026-04-28T15:25:40Z</time></trkpt><trkpt lat="28.641256790583267" lon="-10.737828331001104"><ele>200.0</ele><time>2026-04-28T15:25:41Z</time></trkpt><trkpt lat="28.641145669456805" lon="-10.738034635333804"><ele>200.0</ele><time>2026-04-28T15:25:42Z</time></trkpt><trkpt lat="28.641033931452554" lon="-10.738240981116324"><ele>200.0</ele><time>2026-04-28T15:25:43Z</time></trkpt><trkpt lat="28.640922060711546" lon="-10.738450435954936"><ele>200.0</ele><time>2026-04-28T15:25:44Z</time></trkpt><trkpt lat="28.64080929980064" lon="-10.738658399771822"><ele>200.0</ele><time>2026-04-28T15:25:45Z</time></trkpt><trkpt lat="28.640697075983002" lon="-10.73886686818124"><ele>200.0</ele><time>2026-04-28T15:25:46Z</time></trkpt><trkpt lat="28.64058447506816" lon="-10.739076037132408"><ele>200.0</ele><time>2026-04-28T15:25:47Z</time></trkpt><trkpt lat="28.640473839967104" lon="-10.739281142616802"><ele>199.33333333333334</ele><time>2026-04-28T15:25:48Z</time></trkpt><trkpt lat="28.64036504948821" lon="-10.739483568278361"><ele>198.66666666666669</ele><time>2026-04-28T15:25:49Z</time></trkpt><trkpt lat="28.640256543114138" lon="-10.739684373148041"><ele>198.0</ele><time>2026-04-28T15:25:50Z</time></trkpt><trkpt lat="28.640148287114226" lon="-10.739886603083848"><ele>199.66666666666669</ele><time>2026-04-28T15:25:51Z</time></trkpt><trkpt lat="28.640039657890554" lon="-10.740088146887908"><ele>201.33333333333334</ele><time>2026-04-28T15:25:52Z</time></trkpt><trkpt lat="28.63993208651083" lon="-10.740286884857348"><ele>203.0</ele><time>2026-04-28T15:25:53Z</time></trkpt><trkpt lat="28.639825756670056" lon="-10.740485130003888"><ele>202.66666666666669</ele><time>2026-04-28T15:25:54Z</time></trkpt><trkpt lat="28.639719275549382" lon="-10.74068266466233"><ele>202.33333333333331</ele><time>2026-04-28T15:25:55Z</time></trkpt><trkpt lat="28.639611835242462" lon="-10.740880623821566"><ele>202.0</ele><time>2026-04-28T15:25:56Z</time></trkpt><trkpt lat="28.639503943350203" lon="-10.741080641549352"><ele>202.66666666666666</ele><time>2026-04-28T15:25:57Z</time></trkpt><trkpt lat="28.639395295569475" lon="-10.741278904101394"><ele>203.33333333333331</ele><time>2026-04-28T15:25:58Z</time></trkpt><trkpt lat="28.639281776113016" lon="-10.741477691842086"><ele>204.0</ele><time>2026-04-28T15:25:59Z</time></trkpt><trkpt lat="28.63916635055538" lon="-10.741676736538"><ele>204.0</ele><time>2026-04-28T15:26:00Z</time></trkpt><trkpt lat="28.6390462909157" lon="-10.741875366578057"><ele>204.0</ele><time>2026-04-28T15:26:01Z</time></trkpt><trkpt lat="28.638917633835554" lon="-10.74206633200611"><ele>204.0</ele><time>2026-04-28T15:26:02Z</time></trkpt><trkpt lat="28.638781724095217" lon="-10.74226300118146"><ele>203.66666666666669</ele><time>2026-04-28T15:26:03Z</time></trkpt><trkpt lat="28.638636035976685" lon="-10.742447471441626"><ele>203.33333333333334</ele><time>2026-04-28T15:26:04Z</time></trkpt><trkpt lat="28.63848217224667" lon="-10.742632384594826"><ele>203.0</ele><time>2026-04-28T15:26:05Z</time></trkpt><trkpt lat="28.638327339435854" lon="-10.742822768588168"><ele>203.0</ele><time>2026-04-28T15:26:06Z</time></trkpt><trkpt lat="28.638173325596753" lon="-10.743017420594539"><ele>203.0</ele><time>2026-04-28T15:26:07Z</time></trkpt><trkpt lat="28.63801799286585" lon="-10.743216754562857"><ele>203.0</ele><time>2026-04-28T15:26:08Z</time></trkpt><trkpt lat="28.637860595872848" lon="-10.743419649171836"><ele>203.0</ele><time>2026-04-28T15:26:09Z</time></trkpt><trkpt lat="28.63770295013646" lon="-10.743629349980878"><ele>205.0</ele><time>2026-04-28T15:26:10Z</time></trkpt><trkpt lat="28.637550768838675" lon="-10.743845727068528"><ele>207.0</ele><time>2026-04-28T15:26:11Z</time></trkpt><trkpt lat="28.63739299113432" lon="-10.744070061230627"><ele>207.0</ele><time>2026-04-28T15:26:12Z</time></trkpt><trkpt lat="28.637242016232314" lon="-10.744308706702428"><ele>207.0</ele><time>2026-04-28T15:26:13Z</time></trkpt><trkpt lat="28.637098958561158" lon="-10.74455365795835"><ele>207.5</ele><time>2026-04-28T15:26:14Z</time></trkpt><trkpt lat="28.63696935889549" lon="-10.744800480068987"><ele>208.0</ele><time>2026-04-28T15:26:15Z</time></trkpt><trkpt lat="28.636841694785172" lon="-10.74504716313582"><ele>207.5</ele><time>2026-04-28T15:26:16Z</time></trkpt><trkpt lat="28.636716051984237" lon="-10.745294342138791"><ele>207.0</ele><time>2026-04-28T15:26:17Z</time></trkpt><trkpt lat="28.636629636458157" lon="-10.745564256746329"><ele>207.0</ele><time>2026-04-28T15:26:18Z</time></trkpt><trkpt lat="28.636516358909553" lon="-10.745815303417189"><ele>207.0</ele><time>2026-04-28T15:26:19Z</time></trkpt><trkpt lat="28.636409322641477" lon="-10.7460687824021"><ele>210.0</ele><time>2026-04-28T15:26:20Z</time></trkpt><trkpt lat="28.63630278848947" lon="-10.74631952536666"><ele>213.0</ele><time>2026-04-28T15:26:21Z</time></trkpt><trkpt lat="28.636195371432365" lon="-10.746569387923078"><ele>214.0</ele><time>2026-04-28T15:26:22Z</time></trkpt><trkpt lat="28.636089828847208" lon="-10.746809672222088"><ele>215.0</ele><time>2026-04-28T15:26:23Z</time></trkpt><trkpt lat="28.635985957281427" lon="-10.747042984857142"><ele>214.66666666666669</ele><time>2026-04-28T15:26:24Z</time></trkpt><trkpt lat="28.63588545777297" lon="-10.74727131746439"><ele>214.33333333333331</ele><time>2026-04-28T15:26:25Z</time></trkpt><trkpt lat="28.63578750716867" lon="-10.747496376146712"><ele>214.0</ele><time>2026-04-28T15:26:26Z</time></trkpt><trkpt lat="28.635692153532503" lon="-10.747716663304908"><ele>214.0</ele><time>2026-04-28T15:26:27Z</time></trkpt><trkpt lat="28.635593893267274" lon="-10.747938059373098"><ele>214.0</ele><time>2026-04-28T15:26:28Z</time></trkpt><trkpt lat="28.635497838113736" lon="-10.748156556249793"><ele>214.0</ele><time>2026-04-28T15:26:29Z</time></trkpt><trkpt lat="28.635400808996277" lon="-10.748376171946168"><ele>214.66666666666666</ele><time>2026-04-28T15:26:30Z</time></trkpt><trkpt lat="28.635304151079687" lon="-10.748594614329365"><ele>215.33333333333331</ele><time>2026-04-28T15:26:31Z</time></trkpt><trkpt lat="28.635208510514275" lon="-10.748810863549679"><ele>216.0</ele><time>2026-04-28T15:26:32Z</time></trkpt><trkpt lat="28.63511453837126" lon="-10.749031160317731"><ele>216.33333333333331</ele><time>2026-04-28T15:26:33Z</time></trkpt><trkpt lat="28.63502086011755" lon="-10.749251138151505"><ele>216.66666666666666</ele><time>2026-04-28T15:26:34Z</time></trkpt><trkpt lat="28.6349272885166" lon="-10.749468317620178"><ele>217.0</ele><time>2026-04-28T15:26:35Z</time></trkpt><trkpt lat="28.634826869352924" lon="-10.749682348199881"><ele>217.0</ele><time>2026-04-28T15:26:36Z</time></trkpt><trkpt lat="28.63471978544273" lon="-10.749895765029976"><ele>217.0</ele><time>2026-04-28T15:26:37Z</time></trkpt><trkpt lat="28.63460639816624" lon="-10.750105951919066"><ele>217.0</ele><time>2026-04-28T15:26:38Z</time></trkpt><trkpt lat="28.634491490430737" lon="-10.750313234233227"><ele>218.0</ele><time>2026-04-28T15:26:39Z</time></trkpt><trkpt lat="28.634370163957456" lon="-10.750520966273392"><ele>219.0</ele><time>2026-04-28T15:26:40Z</time></trkpt><trkpt lat="28.634243215801337" lon="-10.75072447674768"><ele>220.0</ele><time>2026-04-28T15:26:41Z</time></trkpt><trkpt lat="28.634109348502463" lon="-10.750924874270313"><ele>219.33333333333331</ele><time>2026-04-28T15:26:42Z</time></trkpt><trkpt lat="28.63397178294038" lon="-10.75112653519332"><ele>218.66666666666669</ele><time>2026-04-28T15:26:43Z</time></trkpt><trkpt lat="28.633830817427647" lon="-10.751326308347576"><ele>218.0</ele><time>2026-04-28T15:26:44Z</time></trkpt><trkpt lat="28.633682703638797" lon="-10.751523496215755"><ele>220.0</ele><time>2026-04-28T15:26:45Z</time></trkpt><trkpt lat="28.633528489065462" lon="-10.751714721511538"><ele>222.0</ele><time>2026-04-28T15:26:46Z</time></trkpt><trkpt lat="28.63337079245758" lon="-10.751903831105544"><ele>222.0</ele><time>2026-04-28T15:26:47Z</time></trkpt><trkpt lat="28.633222207781948" lon="-10.752089860839416"><ele>222.0</ele><time>2026-04-28T15:26:48Z</time></trkpt><trkpt lat="28.633072121193536" lon="-10.752277648911614"><ele>222.0</ele><time>2026-04-28T15:26:49Z</time></trkpt><trkpt lat="28.63292632809671" lon="-10.75246238419471"><ele>222.66666666666669</ele><time>2026-04-28T15:26:50Z</time></trkpt><trkpt lat="28.63278106399502" lon="-10.752647333113567"><ele>223.33333333333334</ele><time>2026-04-28T15:26:51Z</time></trkpt><trkpt lat="28.632636029244697" lon="-10.752828075406013"><ele>224.0</ele><time>2026-04-28T15:26:52Z</time></trkpt><trkpt lat="28.632488422334866" lon="-10.753009018283098"><ele>224.0</ele><time>2026-04-28T15:26:53Z</time></trkpt><trkpt lat="28.632337259913903" lon="-10.753193273633945"><ele>224.0</ele><time>2026-04-28T15:26:54Z</time></trkpt><trkpt lat="28.63219034790317" lon="-10.753375685723217"><ele>224.0</ele><time>2026-04-28T15:26:55Z</time></trkpt><trkpt lat="28.632042928441336" lon="-10.753561765849733"><ele>227.0</ele><time>2026-04-28T15:26:56Z</time></trkpt><trkpt lat="28.631901271346525" lon="-10.753750042510987"><ele>230.0</ele><time>2026-04-28T15:26:57Z</time></trkpt><trkpt lat="28.63176643721995" lon="-10.753948460597025"><ele>233.0</ele><time>2026-04-28T15:26:58Z</time></trkpt><trkpt lat="28.631640481946523" lon="-10.754153713834624"><ele>233.0</ele><time>2026-04-28T15:26:59Z</time></trkpt><trkpt lat="28.63152101031051" lon="-10.754367910084367"><ele>233.0</ele><time>2026-04-28T15:27:00Z</time></trkpt><trkpt lat="28.631407442514018" lon="-10.754586711439934"><ele>233.0</ele><time>2026-04-28T15:27:01Z</time></trkpt><trkpt lat="28.631302391362755" lon="-10.754810334204661"><ele>233.0</ele><time>2026-04-28T15:27:02Z</time></trkpt><trkpt lat="28.631205820329107" lon="-10.755045125888913"><ele>233.0</ele><time>2026-04-28T15:27:03Z</time></trkpt><trkpt lat="28.631114266349314" lon="-10.755283457146504"><ele>233.0</ele><time>2026-04-28T15:27:04Z</time></trkpt><trkpt lat="28.631030725930458" lon="-10.755523510985986"><ele>233.0</ele><time>2026-04-28T15:27:05Z</time></trkpt><trkpt lat="28.630956044609725" lon="-10.755768379478496"><ele>233.0</ele><time>2026-04-28T15:27:06Z</time></trkpt><trkpt lat="28.630893305492773" lon="-10.756019930785044"><ele>233.0</ele><time>2026-04-28T15:27:07Z</time></trkpt><trkpt lat="28.63083943222922" lon="-10.756269627179538"><ele>233.0</ele><time>2026-04-28T15:27:08Z</time></trkpt><trkpt lat="28.630787045356534" lon="-10.756518941878666"><ele>233.0</ele><time>2026-04-28T15:27:09Z</time></trkpt><trkpt lat="28.63073472951837" lon="-10.756767954196846"><ele>233.66666666666669</ele><time>2026-04-28T15:27:10Z</time></trkpt><trkpt lat="28.630680482865092" lon="-10.757015112838983"><ele>234.33333333333331</ele><time>2026-04-28T15:27:11Z</time></trkpt><trkpt lat="28.630626144218574" lon="-10.757264120312797"><ele>235.0</ele><time>2026-04-28T15:27:12Z</time></trkpt><trkpt lat="28.630569816826632" lon="-10.757509766340656"><ele>235.66666666666666</ele><time>2026-04-28T15:27:13Z</time></trkpt><trkpt lat="28.630516444997802" lon="-10.75775821959134"><ele>236.33333333333331</ele><time>2026-04-28T15:27:14Z</time></trkpt><trkpt lat="28.63046332712624" lon="-10.758006452938455"><ele>237.0</ele><time>2026-04-28T15:27:15Z</time></trkpt><trkpt lat="28.63040841409958" lon="-10.758254386392531"><ele>237.0</ele><time>2026-04-28T15:27:16Z</time></trkpt><trkpt lat="28.630352856264107" lon="-10.758503807584491"><ele>237.0</ele><time>2026-04-28T15:27:17Z</time></trkpt><trkpt lat="28.63029747619928" lon="-10.758753816225227"><ele>239.33333333333331</ele><time>2026-04-28T15:27:18Z</time></trkpt><trkpt lat="28.630244181857666" lon="-10.759000009708616"><ele>241.66666666666666</ele><time>2026-04-28T15:27:19Z</time></trkpt><trkpt lat="28.6301904202951" lon="-10.75925040400532"><ele>244.0</ele><time>2026-04-28T15:27:20Z</time></trkpt><trkpt lat="28.630134568600468" lon="-10.759500556442797"><ele>244.0</ele><time>2026-04-28T15:27:21Z</time></trkpt><trkpt lat="28.630078998892742" lon="-10.75975315576699"><ele>244.0</ele><time>2026-04-28T15:27:22Z</time></trkpt><trkpt lat="28.630026008451146" lon="-10.760004289893711"><ele>243.0</ele><time>2026-04-28T15:27:23Z</time></trkpt><trkpt lat="28.629916207099814" lon="-10.760241369324381"><ele>242.0</ele><time>2026-04-28T15:27:24Z</time></trkpt><trkpt lat="28.629859706774386" lon="-10.760494446314135"><ele>242.0</ele><time>2026-04-28T15:27:25Z</time></trkpt><trkpt lat="28.62980325844075" lon="-10.760748771590853"><ele>242.0</ele><time>2026-04-28T15:27:26Z</time></trkpt><trkpt lat="28.629745694494233" lon="-10.761003395215461"><ele>240.5</ele><time>2026-04-28T15:27:27Z</time></trkpt><trkpt lat="28.62968794506755" lon="-10.761261862807933"><ele>239.0</ele><time>2026-04-28T15:27:28Z</time></trkpt><trkpt lat="28.629629630270916" lon="-10.761518194275865"><ele>239.0</ele><time>2026-04-28T15:27:29Z</time></trkpt><trkpt lat="28.629570568725516" lon="-10.761775260172"><ele>239.0</ele><time>2026-04-28T15:27:30Z</time></trkpt><trkpt lat="28.629502396862268" lon="-10.762029955224335"><ele>243.5</ele><time>2026-04-28T15:27:31Z</time></trkpt><trkpt lat="28.629431025773396" lon="-10.7622844576511"><ele>248.0</ele><time>2026-04-28T15:27:32Z</time></trkpt><trkpt lat="28.62935564476597" lon="-10.762539197998093"><ele>247.0</ele><time>2026-04-28T15:27:33Z</time></trkpt><trkpt lat="28.62927180070285" lon="-10.76278785708863"><ele>246.0</ele><time>2026-04-28T15:27:34Z</time></trkpt><trkpt lat="28.629182057762627" lon="-10.763039464003052"><ele>246.0</ele><time>2026-04-28T15:27:35Z</time></trkpt><trkpt lat="28.62908351733221" lon="-10.76328311478615"><ele>246.0</ele><time>2026-04-28T15:27:36Z</time></trkpt><trkpt lat="28.628976124972006" lon="-10.763526555192504"><ele>246.0</ele><time>2026-04-28T15:27:37Z</time></trkpt><trkpt lat="28.6288682470489" lon="-10.76377064520947"><ele>246.0</ele><time>2026-04-28T15:27:38Z</time></trkpt><trkpt lat="28.628755467859765" lon="-10.76400931339019"><ele>249.0</ele><time>2026-04-28T15:27:39Z</time></trkpt><trkpt lat="28.628640933250214" lon="-10.764244081909355"><ele>252.0</ele><time>2026-04-28T15:27:40Z</time></trkpt><trkpt lat="28.62852195565567" lon="-10.764477962547614"><ele>252.5</ele><time>2026-04-28T15:27:41Z</time></trkpt><trkpt lat="28.628402701057603" lon="-10.764705413446636"><ele>253.0</ele><time>2026-04-28T15:27:42Z</time></trkpt><trkpt lat="28.628275746596213" lon="-10.764925942547544"><ele>253.0</ele><time>2026-04-28T15:27:43Z</time></trkpt><trkpt lat="28.62814623422712" lon="-10.765143009295132"><ele>253.0</ele><time>2026-04-28T15:27:44Z</time></trkpt><trkpt lat="28.62801456299619" lon="-10.765353512756962"><ele>253.0</ele><time>2026-04-28T15:27:45Z</time></trkpt><trkpt lat="28.627877587247117" lon="-10.765557133156918"><ele>253.0</ele><time>2026-04-28T15:27:46Z</time></trkpt><trkpt lat="28.62774034116807" lon="-10.765763782829147"><ele>255.0</ele><time>2026-04-28T15:27:47Z</time></trkpt><trkpt lat="28.62760509514053" lon="-10.765967538450429"><ele>257.0</ele><time>2026-04-28T15:27:48Z</time></trkpt><trkpt lat="28.627472452237377" lon="-10.766167372324022"><ele>259.0</ele><time>2026-04-28T15:27:49Z</time></trkpt><trkpt lat="28.627345154121304" lon="-10.766358634446712"><ele>259.3333333333333</ele><time>2026-04-28T15:27:50Z</time></trkpt><trkpt lat="28.627219087388333" lon="-10.766548768867786"><ele>259.6666666666667</ele><time>2026-04-28T15:27:51Z</time></trkpt><trkpt lat="28.62709631765641" lon="-10.766733603452879"><ele>260.0</ele><time>2026-04-28T15:27:52Z</time></trkpt><trkpt lat="28.6269772919433" lon="-10.766913763966139"><ele>263.6666666666667</ele><time>2026-04-28T15:27:53Z</time></trkpt><trkpt lat="28.626857739977478" lon="-10.767094190468272"><ele>267.3333333333333</ele><time>2026-04-28T15:27:54Z</time></trkpt><trkpt lat="28.62673923359329" lon="-10.767272983822117"><ele>271.0</ele><time>2026-04-28T15:27:55Z</time></trkpt><trkpt lat="28.626614301653284" lon="-10.767461471577345"><ele>271.0</ele><time>2026-04-28T15:27:56Z</time></trkpt><trkpt lat="28.626488135519594" lon="-10.767651821361483"><ele>271.0</ele><time>2026-04-28T15:27:57Z</time></trkpt><trkpt lat="28.626361635012834" lon="-10.76784279430941"><ele>271.0</ele><time>2026-04-28T15:27:58Z</time></trkpt><trkpt lat="28.62623438600482" lon="-10.768034899233884"><ele>272.0</ele><time>2026-04-28T15:27:59Z</time></trkpt><trkpt lat="28.626103846980982" lon="-10.768231629867714"><ele>273.0</ele><time>2026-04-28T15:28:00Z</time></trkpt><trkpt lat="28.625971726602785" lon="-10.76843054841965"><ele>274.0</ele><time>2026-04-28T15:28:01Z</time></trkpt><trkpt lat="28.625835012262726" lon="-10.76863653143228"><ele>274.0</ele><time>2026-04-28T15:28:02Z</time></trkpt><trkpt lat="28.62569700809032" lon="-10.768845351994841"><ele>274.0</ele><time>2026-04-28T15:28:03Z</time></trkpt><trkpt lat="28.625560597340986" lon="-10.769053783273026"><ele>274.0</ele><time>2026-04-28T15:28:04Z</time></trkpt><trkpt lat="28.62542505360554" lon="-10.769264834129876"><ele>274.0</ele><time>2026-04-28T15:28:05Z</time></trkpt><trkpt lat="28.625288523147557" lon="-10.76947678429288"><ele>279.5</ele><time>2026-04-28T15:28:06Z</time></trkpt><trkpt lat="28.62515030214381" lon="-10.769690113136303"><ele>285.0</ele><time>2026-04-28T15:28:07Z</time></trkpt><trkpt lat="28.625011464687734" lon="-10.769905163589067"><ele>285.0</ele><time>2026-04-28T15:28:08Z</time></trkpt><trkpt lat="28.624874844645838" lon="-10.770118294109583"><ele>285.0</ele><time>2026-04-28T15:28:09Z</time></trkpt><trkpt lat="28.624737579736223" lon="-10.770329579061801"><ele>290.0</ele><time>2026-04-28T15:28:10Z</time></trkpt><trkpt lat="28.624601055867924" lon="-10.770541965201275"><ele>295.0</ele><time>2026-04-28T15:28:11Z</time></trkpt><trkpt lat="28.62446743803303" lon="-10.770757591756535"><ele>299.0</ele><time>2026-04-28T15:28:12Z</time></trkpt><trkpt lat="28.624335126920766" lon="-10.770971149189709"><ele>303.0</ele><time>2026-04-28T15:28:13Z</time></trkpt><trkpt lat="28.624201785033083" lon="-10.771179615865348"><ele>304.3333333333333</ele><time>2026-04-28T15:28:14Z</time></trkpt><trkpt lat="28.624069450813252" lon="-10.771382556300406"><ele>305.66666666666663</ele><time>2026-04-28T15:28:15Z</time></trkpt><trkpt lat="28.623940474154523" lon="-10.771582612473027"><ele>307.0</ele><time>2026-04-28T15:28:16Z</time></trkpt><trkpt lat="28.6238199598888" lon="-10.771796888040322"><ele>305.0</ele><time>2026-04-28T15:28:17Z</time></trkpt><trkpt lat="28.623684018455897" lon="-10.77200003304102"><ele>303.0</ele><time>2026-04-28T15:28:18Z</time></trkpt><trkpt lat="28.623547002049477" lon="-10.772203618996988"><ele>301.0</ele><time>2026-04-28T15:28:19Z</time></trkpt><trkpt lat="28.62341463550284" lon="-10.772407618659283"><ele>306.0</ele><time>2026-04-28T15:28:20Z</time></trkpt><trkpt lat="28.62328284134328" lon="-10.772613951533218"><ele>311.0</ele><time>2026-04-28T15:28:21Z</time></trkpt><trkpt lat="28.62315861726212" lon="-10.772822960886609"><ele>316.0</ele><time>2026-04-28T15:28:22Z</time></trkpt><trkpt lat="28.623042580158852" lon="-10.773030245741257"><ele>316.0</ele><time>2026-04-28T15:28:23Z</time></trkpt><trkpt lat="28.622938415793943" lon="-10.773245698735346"><ele>316.0</ele><time>2026-04-28T15:28:24Z</time></trkpt><trkpt lat="28.62284601613584" lon="-10.773467465832377"><ele>316.0</ele><time>2026-04-28T15:28:25Z</time></trkpt><trkpt lat="28.62275803368095" lon="-10.773695661404211"><ele>318.66666666666663</ele><time>2026-04-28T15:28:26Z</time></trkpt><trkpt lat="28.622678149095428" lon="-10.773928830865847"><ele>321.3333333333333</ele><time>2026-04-28T15:28:27Z</time></trkpt><trkpt lat="28.622609579407676" lon="-10.774165937436235"><ele>324.0</ele><time>2026-04-28T15:28:28Z</time></trkpt><trkpt lat="28.622549448834523" lon="-10.774406703882482"><ele>324.0</ele><time>2026-04-28T15:28:29Z</time></trkpt><trkpt lat="28.62249703776988" lon="-10.77465341668445"><ele>324.0</ele><time>2026-04-28T15:28:30Z</time></trkpt><trkpt lat="28.62243788832602" lon="-10.774899973153822"><ele>324.0</ele><time>2026-04-28T15:28:31Z</time></trkpt><trkpt lat="28.62240538018884" lon="-10.77514435195339"><ele>325.3333333333333</ele><time>2026-04-28T15:28:32Z</time></trkpt><trkpt lat="28.622384649573327" lon="-10.775372304763845"><ele>326.66666666666663</ele><time>2026-04-28T15:28:33Z</time></trkpt><trkpt lat="28.622369947474645" lon="-10.775582622904082"><ele>328.0</ele><time>2026-04-28T15:28:34Z</time></trkpt><trkpt lat="28.622356057386433" lon="-10.775785519348439"><ele>328.0</ele><time>2026-04-28T15:28:35Z</time></trkpt><trkpt lat="28.62233939766688" lon="-10.775992678203918"><ele>328.0</ele><time>2026-04-28T15:28:36Z</time></trkpt><trkpt lat="28.622321964450613" lon="-10.776211584415384"><ele>328.0</ele><time>2026-04-28T15:28:37Z</time></trkpt><trkpt lat="28.622304720102154" lon="-10.77644291891519"><ele>329.3333333333333</ele><time>2026-04-28T15:28:38Z</time></trkpt><trkpt lat="28.622287194363093" lon="-10.77668193985339"><ele>330.6666666666667</ele><time>2026-04-28T15:28:39Z</time></trkpt><trkpt lat="28.622269242649185" lon="-10.7769252907206"><ele>332.0</ele><time>2026-04-28T15:28:40Z</time></trkpt><trkpt lat="28.622250899522324" lon="-10.777172882736936"><ele>332.33333333333337</ele><time>2026-04-28T15:28:41Z</time></trkpt><trkpt lat="28.622232439487544" lon="-10.777422035843623"><ele>332.6666666666667</ele><time>2026-04-28T15:28:42Z</time></trkpt><trkpt lat="28.622214112866956" lon="-10.777669388147531"><ele>333.0</ele><time>2026-04-28T15:28:43Z</time></trkpt><trkpt lat="28.62219603873135" lon="-10.777913332499994"><ele>333.6666666666667</ele><time>2026-04-28T15:28:44Z</time></trkpt><trkpt lat="28.622177660843207" lon="-10.778161376609566"><ele>334.33333333333337</ele><time>2026-04-28T15:28:45Z</time></trkpt><trkpt lat="28.6221714352269" lon="-10.778408817085557"><ele>335.0</ele><time>2026-04-28T15:28:46Z</time></trkpt><trkpt lat="28.622152593670435" lon="-10.778652980347564"><ele>333.33333333333337</ele><time>2026-04-28T15:28:47Z</time></trkpt><trkpt lat="28.622134894638986" lon="-10.77888809913865"><ele>331.6666666666667</ele><time>2026-04-28T15:28:48Z</time></trkpt><trkpt lat="28.622118873904615" lon="-10.77912380592677"><ele>330.0</ele><time>2026-04-28T15:28:49Z</time></trkpt><trkpt lat="28.622105319805737" lon="-10.779354666219715"><ele>327.6666666666667</ele><time>2026-04-28T15:28:50Z</time></trkpt><trkpt lat="28.622089374049477" lon="-10.77957850668875"><ele>325.33333333333337</ele><time>2026-04-28T15:28:51Z</time></trkpt><trkpt lat="28.622072251693737" lon="-10.779804602730508"><ele>323.0</ele><time>2026-04-28T15:28:52Z</time></trkpt><trkpt lat="28.62205457563942" lon="-10.780033138551627"><ele>324.6666666666667</ele><time>2026-04-28T15:28:53Z</time></trkpt><trkpt lat="28.622034408979708" lon="-10.780264949169899"><ele>326.3333333333333</ele><time>2026-04-28T15:28:54Z</time></trkpt><trkpt lat="28.62201822406302" lon="-10.780499013271784"><ele>328.0</ele><time>2026-04-28T15:28:55Z</time></trkpt><trkpt lat="28.62200965828314" lon="-10.78072919231768"><ele>328.0</ele><time>2026-04-28T15:28:56Z</time></trkpt><trkpt lat="28.62201043029855" lon="-10.780966182907408"><ele>328.0</ele><time>2026-04-28T15:28:57Z</time></trkpt><trkpt lat="28.62201884068193" lon="-10.781209466137343"><ele>328.0</ele><time>2026-04-28T15:28:58Z</time></trkpt><trkpt lat="28.622035018760577" lon="-10.781456736692196"><ele>330.66666666666663</ele><time>2026-04-28T15:28:59Z</time></trkpt><trkpt lat="28.622062772592727" lon="-10.781705425551577"><ele>333.3333333333333</ele><time>2026-04-28T15:29:00Z</time></trkpt><trkpt lat="28.62209856063616" lon="-10.781954105490504"><ele>336.0</ele><time>2026-04-28T15:29:01Z</time></trkpt><trkpt lat="28.62214485786576" lon="-10.782203128591668"><ele>337.5</ele><time>2026-04-28T15:29:02Z</time></trkpt><trkpt lat="28.62220285005267" lon="-10.782453417318374"><ele>339.0</ele><time>2026-04-28T15:29:03Z</time></trkpt><trkpt lat="28.622269534894027" lon="-10.782701693726068"><ele>335.0</ele><time>2026-04-28T15:29:04Z</time></trkpt><trkpt lat="28.62234692704629" lon="-10.782953423855911"><ele>331.0</ele><time>2026-04-28T15:29:05Z</time></trkpt><trkpt lat="28.622436892130427" lon="-10.78320109157375"><ele>331.0</ele><time>2026-04-28T15:29:06Z</time></trkpt><trkpt lat="28.62253807455272" lon="-10.783442947819557"><ele>331.0</ele><time>2026-04-28T15:29:07Z</time></trkpt><trkpt lat="28.622647841881363" lon="-10.783676604743505"><ele>327.3333333333333</ele><time>2026-04-28T15:29:08Z</time></trkpt><trkpt lat="28.62276596253518" lon="-10.783900934724837"><ele>323.6666666666667</ele><time>2026-04-28T15:29:09Z</time></trkpt><trkpt lat="28.622886104496835" lon="-10.784106032902015"><ele>320.0</ele><time>2026-04-28T15:29:10Z</time></trkpt><trkpt lat="28.623007701607044" lon="-10.784294790896327"><ele>312.6666666666667</ele><time>2026-04-28T15:29:11Z</time></trkpt><trkpt lat="28.62312855262878" lon="-10.784471886501482"><ele>305.3333333333333</ele><time>2026-04-28T15:29:12Z</time></trkpt><trkpt lat="28.623247500761906" lon="-10.784638747019288"><ele>298.0</ele><time>2026-04-28T15:29:13Z</time></trkpt><trkpt lat="28.62336932947476" lon="-10.784798706468171"><ele>298.0</ele><time>2026-04-28T15:29:14Z</time></trkpt><trkpt lat="28.623493304652353" lon="-10.784962420239049"><ele>298.0</ele><time>2026-04-28T15:29:15Z</time></trkpt><trkpt lat="28.623620782793093" lon="-10.78513044524168"><ele>298.0</ele><time>2026-04-28T15:29:16Z</time></trkpt><trkpt lat="28.623752347425892" lon="-10.785303972283735"><ele>299.0</ele><time>2026-04-28T15:29:17Z</time></trkpt><trkpt lat="28.62388856105675" lon="-10.785487344251779"><ele>300.0</ele><time>2026-04-28T15:29:18Z</time></trkpt><trkpt lat="28.624023287227082" lon="-10.785678695668988"><ele>301.0</ele><time>2026-04-28T15:29:19Z</time></trkpt><trkpt lat="28.624154535769797" lon="-10.785877682612508"><ele>299.0</ele><time>2026-04-28T15:29:20Z</time></trkpt><trkpt lat="28.62428356560559" lon="-10.78608469530419"><ele>297.0</ele><time>2026-04-28T15:29:21Z</time></trkpt><trkpt lat="28.62440619294427" lon="-10.786300560140592"><ele>295.0</ele><time>2026-04-28T15:29:22Z</time></trkpt><trkpt lat="28.624515689460793" lon="-10.786520802533019"><ele>295.0</ele><time>2026-04-28T15:29:23Z</time></trkpt><trkpt lat="28.624619430169865" lon="-10.786744715010654"><ele>295.0</ele><time>2026-04-28T15:29:24Z</time></trkpt><trkpt lat="28.624714565372926" lon="-10.786970254702881"><ele>295.0</ele><time>2026-04-28T15:29:25Z</time></trkpt><trkpt lat="28.624803196472005" lon="-10.787198161437763"><ele>290.66666666666663</ele><time>2026-04-28T15:29:26Z</time></trkpt><trkpt lat="28.624883890101863" lon="-10.787429334882376"><ele>286.3333333333333</ele><time>2026-04-28T15:29:27Z</time></trkpt><trkpt lat="28.62495670434727" lon="-10.787667267324485"><ele>282.0</ele><time>2026-04-28T15:29:28Z</time></trkpt><trkpt lat="28.6250203404778" lon="-10.78791046093915"><ele>277.5</ele><time>2026-04-28T15:29:29Z</time></trkpt><trkpt lat="28.62507496901869" lon="-10.788157767035463"><ele>273.0</ele><time>2026-04-28T15:29:30Z</time></trkpt><trkpt lat="28.625120224295333" lon="-10.788410999772646"><ele>270.0</ele><time>2026-04-28T15:29:31Z</time></trkpt><trkpt lat="28.625160747902374" lon="-10.788665948198545"><ele>267.0</ele><time>2026-04-28T15:29:32Z</time></trkpt><trkpt lat="28.625197036541596" lon="-10.788923958603693"><ele>267.0</ele><time>2026-04-28T15:29:33Z</time></trkpt><trkpt lat="28.625229362797278" lon="-10.78918356958471"><ele>267.0</ele><time>2026-04-28T15:29:34Z</time></trkpt><trkpt lat="28.62525925525007" lon="-10.789441259945104"><ele>268.0</ele><time>2026-04-28T15:29:35Z</time></trkpt><trkpt lat="28.6252898155119" lon="-10.789699835828563"><ele>269.0</ele><time>2026-04-28T15:29:36Z</time></trkpt><trkpt lat="28.625323571884767" lon="-10.789959553116303"><ele>267.0</ele><time>2026-04-28T15:29:37Z</time></trkpt><trkpt lat="28.62535682416371" lon="-10.790222112614325"><ele>265.0</ele><time>2026-04-28T15:29:38Z</time></trkpt><trkpt lat="28.625388926241154" lon="-10.79048804887653"><ele>265.0</ele><time>2026-04-28T15:29:39Z</time></trkpt><trkpt lat="28.62542364785623" lon="-10.790754047680135"><ele>265.0</ele><time>2026-04-28T15:29:40Z</time></trkpt><trkpt lat="28.625469340220494" lon="-10.791019284272553"><ele>263.0</ele><time>2026-04-28T15:29:41Z</time></trkpt><trkpt lat="28.625526296225978" lon="-10.7912825669642"><ele>261.0</ele><time>2026-04-28T15:29:42Z</time></trkpt><trkpt lat="28.62558863469361" lon="-10.791550357368203"><ele>261.0</ele><time>2026-04-28T15:29:43Z</time></trkpt><trkpt lat="28.62565504971792" lon="-10.791817658447819"><ele>261.0</ele><time>2026-04-28T15:29:44Z</time></trkpt><trkpt lat="28.625721750175273" lon="-10.792084391878587"><ele>261.5</ele><time>2026-04-28T15:29:45Z</time></trkpt><trkpt lat="28.62579606033006" lon="-10.792354074698771"><ele>262.0</ele><time>2026-04-28T15:29:46Z</time></trkpt><trkpt lat="28.62587276043571" lon="-10.792625876684133"><ele>265.0</ele><time>2026-04-28T15:29:47Z</time></trkpt><trkpt lat="28.625949908420825" lon="-10.792899359487157"><ele>268.0</ele><time>2026-04-28T15:29:48Z</time></trkpt><trkpt lat="28.626023085592863" lon="-10.793172418792718"><ele>268.0</ele><time>2026-04-28T15:29:49Z</time></trkpt><trkpt lat="28.62609303257846" lon="-10.793445433216135"><ele>268.0</ele><time>2026-04-28T15:29:50Z</time></trkpt><trkpt lat="28.6261647512126" lon="-10.793711727326366"><ele>268.0</ele><time>2026-04-28T15:29:51Z</time></trkpt><trkpt lat="28.626246516239227" lon="-10.793974223536035"><ele>268.0</ele><time>2026-04-28T15:29:52Z</time></trkpt><trkpt lat="28.626323248852707" lon="-10.794234060535358"><ele>267.0</ele><time>2026-04-28T15:29:53Z</time></trkpt><trkpt lat="28.626373383102006" lon="-10.794501191781592"><ele>266.0</ele><time>2026-04-28T15:29:54Z</time></trkpt><trkpt lat="28.626444994182403" lon="-10.794757312872035"><ele>266.0</ele><time>2026-04-28T15:29:55Z</time></trkpt><trkpt lat="28.6265167696159" lon="-10.795013334407704"><ele>266.0</ele><time>2026-04-28T15:29:56Z</time></trkpt><trkpt lat="28.6265895384095" lon="-10.795271038382012"><ele>267.5</ele><time>2026-04-28T15:29:57Z</time></trkpt><trkpt lat="28.626662042719474" lon="-10.795531130995986"><ele>269.0</ele><time>2026-04-28T15:29:58Z</time></trkpt><trkpt lat="28.62673444837885" lon="-10.795791116088724"><ele>271.5</ele><time>2026-04-28T15:29:59Z</time></trkpt><trkpt lat="28.626804929622228" lon="-10.796044313951656"><ele>274.0</ele><time>2026-04-28T15:30:00Z</time></trkpt><trkpt lat="28.626873769447755" lon="-10.796291071240047"><ele>274.0</ele><time>2026-04-28T15:30:01Z</time></trkpt><trkpt lat="28.626942547567616" lon="-10.796535720163208"><ele>274.0</ele><time>2026-04-28T15:30:02Z</time></trkpt><trkpt lat="28.627011534224927" lon="-10.796780996017228"><ele>268.0</ele><time>2026-04-28T15:30:03Z</time></trkpt><trkpt lat="28.627080145486573" lon="-10.797025905451529"><ele>262.0</ele><time>2026-04-28T15:30:04Z</time></trkpt><trkpt lat="28.62714905254679" lon="-10.797272130200394"><ele>262.0</ele><time>2026-04-28T15:30:05Z</time></trkpt><trkpt lat="28.627217924133998" lon="-10.797518419868986"><ele>262.0</ele><time>2026-04-28T15:30:06Z</time></trkpt><trkpt lat="28.627286948642567" lon="-10.797765053749517"><ele>264.5</ele><time>2026-04-28T15:30:07Z</time></trkpt><trkpt lat="28.62735544050885" lon="-10.798010777729083"><ele>267.0</ele><time>2026-04-28T15:30:08Z</time></trkpt><trkpt lat="28.62742383702695" lon="-10.798254918962229"><ele>265.5</ele><time>2026-04-28T15:30:09Z</time></trkpt><trkpt lat="28.627492939768977" lon="-10.798501581049312"><ele>264.0</ele><time>2026-04-28T15:30:10Z</time></trkpt><trkpt lat="28.627562206005642" lon="-10.798748826222104"><ele>264.0</ele><time>2026-04-28T15:30:11Z</time></trkpt><trkpt lat="28.627631829067756" lon="-10.798997345523782"><ele>264.0</ele><time>2026-04-28T15:30:12Z</time></trkpt><trkpt lat="28.627701620366487" lon="-10.799248706811671"><ele>264.5</ele><time>2026-04-28T15:30:13Z</time></trkpt><trkpt lat="28.627771770895713" lon="-10.799500198907326"><ele>265.0</ele><time>2026-04-28T15:30:14Z</time></trkpt><trkpt lat="28.62784237863114" lon="-10.799752313342966"><ele>262.5</ele><time>2026-04-28T15:30:15Z</time></trkpt><trkpt lat="28.627912655995654" lon="-10.800004013285363"><ele>260.0</ele><time>2026-04-28T15:30:16Z</time></trkpt><trkpt lat="28.627976405162897" lon="-10.800256319396357"><ele>260.0</ele><time>2026-04-28T15:30:17Z</time></trkpt><trkpt lat="28.628036456085773" lon="-10.800513307982571"><ele>260.0</ele><time>2026-04-28T15:30:18Z</time></trkpt><trkpt lat="28.628090762700417" lon="-10.800773633124765"><ele>260.5</ele><time>2026-04-28T15:30:19Z</time></trkpt><trkpt lat="28.62813755610206" lon="-10.801036233998795"><ele>261.0</ele><time>2026-04-28T15:30:20Z</time></trkpt><trkpt lat="28.628181456865203" lon="-10.801302166810714"><ele>261.0</ele><time>2026-04-28T15:30:21Z</time></trkpt><trkpt lat="28.62821975382646" lon="-10.801571105496427"><ele>261.0</ele><time>2026-04-28T15:30:22Z</time></trkpt><trkpt lat="28.628249411492178" lon="-10.801844654798767"><ele>259.5</ele><time>2026-04-28T15:30:23Z</time></trkpt><trkpt lat="28.62827414585496" lon="-10.802118755181496"><ele>258.0</ele><time>2026-04-28T15:30:24Z</time></trkpt><trkpt lat="28.628293824153754" lon="-10.802394285589383"><ele>256.5</ele><time>2026-04-28T15:30:25Z</time></trkpt><trkpt lat="28.628307269884953" lon="-10.802674763129508"><ele>255.0</ele><time>2026-04-28T15:30:26Z</time></trkpt><trkpt lat="28.62831280988707" lon="-10.802954318229625"><ele>255.0</ele><time>2026-04-28T15:30:27Z</time></trkpt><trkpt lat="28.62831293448179" lon="-10.803234766036367"><ele>255.0</ele><time>2026-04-28T15:30:28Z</time></trkpt><trkpt lat="28.628307028081846" lon="-10.803519047011202"><ele>254.0</ele><time>2026-04-28T15:30:29Z</time></trkpt><trkpt lat="28.628298885151587" lon="-10.803803200692238"><ele>253.0</ele><time>2026-04-28T15:30:30Z</time></trkpt><trkpt lat="28.628285302463176" lon="-10.804087370512406"><ele>251.5</ele><time>2026-04-28T15:30:31Z</time></trkpt><trkpt lat="28.6282647674758" lon="-10.804374524361755"><ele>250.0</ele><time>2026-04-28T15:30:32Z</time></trkpt><trkpt lat="28.628243953325747" lon="-10.804664625416894"><ele>250.0</ele><time>2026-04-28T15:30:33Z</time></trkpt><trkpt lat="28.628223296470217" lon="-10.804952447236992"><ele>250.0</ele><time>2026-04-28T15:30:34Z</time></trkpt><trkpt lat="28.628202007981606" lon="-10.805242346447583"><ele>249.5</ele><time>2026-04-28T15:30:35Z</time></trkpt><trkpt lat="28.628181159579743" lon="-10.805530744807566"><ele>249.0</ele><time>2026-04-28T15:30:36Z</time></trkpt><trkpt lat="28.628160094789557" lon="-10.805818697561051"><ele>248.5</ele><time>2026-04-28T15:30:37Z</time></trkpt><trkpt lat="28.62813929285843" lon="-10.80610305718778"><ele>248.0</ele><time>2026-04-28T15:30:38Z</time></trkpt><trkpt lat="28.628118806379433" lon="-10.806383104473674"><ele>248.0</ele><time>2026-04-28T15:30:39Z</time></trkpt><trkpt lat="28.628098742892497" lon="-10.806658674020811"><ele>248.0</ele><time>2026-04-28T15:30:40Z</time></trkpt><trkpt lat="28.628079239950743" lon="-10.806930019287238"><ele>244.0</ele><time>2026-04-28T15:30:41Z</time></trkpt><trkpt lat="28.628060037510284" lon="-10.807197183656987"><ele>240.0</ele><time>2026-04-28T15:30:42Z</time></trkpt><trkpt lat="28.62804136083953" lon="-10.807461379596328"><ele>241.0</ele><time>2026-04-28T15:30:43Z</time></trkpt><trkpt lat="28.62802243207138" lon="-10.807723806822555"><ele>242.0</ele><time>2026-04-28T15:30:44Z</time></trkpt><trkpt lat="28.628003384849873" lon="-10.80798577702712"><ele>242.0</ele><time>2026-04-28T15:30:45Z</time></trkpt><trkpt lat="28.627984459142084" lon="-10.808244569028755"><ele>242.0</ele><time>2026-04-28T15:30:46Z</time></trkpt><trkpt lat="28.627965402583143" lon="-10.808502345543022"><ele>241.5</ele><time>2026-04-28T15:30:47Z</time></trkpt><trkpt lat="28.627946591721148" lon="-10.808759985670521"><ele>241.0</ele><time>2026-04-28T15:30:48Z</time></trkpt><trkpt lat="28.62792791608454" lon="-10.809016076726015"><ele>241.0</ele><time>2026-04-28T15:30:49Z</time></trkpt><trkpt lat="28.62790959153274" lon="-10.809271704340944"><ele>241.0</ele><time>2026-04-28T15:30:50Z</time></trkpt><trkpt lat="28.627890939530115" lon="-10.80952826493571"><ele>241.5</ele><time>2026-04-28T15:30:51Z</time></trkpt><trkpt lat="28.627872415967378" lon="-10.809782879641057"><ele>242.0</ele><time>2026-04-28T15:30:52Z</time></trkpt><trkpt lat="28.62785363450612" lon="-10.810041038730704"><ele>239.0</ele><time>2026-04-28T15:30:53Z</time></trkpt><trkpt lat="28.62783484756891" lon="-10.810299273393507"><ele>236.0</ele><time>2026-04-28T15:30:54Z</time></trkpt><trkpt lat="28.62781597228417" lon="-10.810563252662757"><ele>234.5</ele><time>2026-04-28T15:30:55Z</time></trkpt><trkpt lat="28.627796999279685" lon="-10.81082938070058"><ele>233.0</ele><time>2026-04-28T15:30:56Z</time></trkpt><trkpt lat="28.627777842169497" lon="-10.811098091133951"><ele>232.0</ele><time>2026-04-28T15:30:57Z</time></trkpt><trkpt lat="28.627760654932906" lon="-10.811366452183254"><ele>231.0</ele><time>2026-04-28T15:30:58Z</time></trkpt><trkpt lat="28.627779461375212" lon="-10.8116393654955"><ele>230.0</ele><time>2026-04-28T15:30:59Z</time></trkpt><trkpt lat="28.62776054547973" lon="-10.811908444110761"><ele>229.0</ele><time>2026-04-28T15:31:00Z</time></trkpt><trkpt lat="28.627743314258257" lon="-10.812180601879113"><ele>229.0</ele><time>2026-04-28T15:31:01Z</time></trkpt><trkpt lat="28.627723105390395" lon="-10.812453035005772"><ele>229.0</ele><time>2026-04-28T15:31:02Z</time></trkpt><trkpt lat="28.6277037051972" lon="-10.812728273818609"><ele>231.0</ele><time>2026-04-28T15:31:03Z</time></trkpt><trkpt lat="28.627684565575226" lon="-10.81300032350366"><ele>233.0</ele><time>2026-04-28T15:31:04Z</time></trkpt><trkpt lat="28.62766872040967" lon="-10.813274421415983"><ele>233.5</ele><time>2026-04-28T15:31:05Z</time></trkpt><trkpt lat="28.627648983265892" lon="-10.813546078828658"><ele>234.0</ele><time>2026-04-28T15:31:06Z</time></trkpt><trkpt lat="28.62762718208974" lon="-10.813817646445544"><ele>234.0</ele><time>2026-04-28T15:31:07Z</time></trkpt><trkpt lat="28.62760604398462" lon="-10.814085536256783"><ele>234.0</ele><time>2026-04-28T15:31:08Z</time></trkpt><trkpt lat="28.627587541362587" lon="-10.814351711399258"><ele>235.0</ele><time>2026-04-28T15:31:09Z</time></trkpt><trkpt lat="28.627568910504127" lon="-10.81461620497791"><ele>236.0</ele><time>2026-04-28T15:31:10Z</time></trkpt><trkpt lat="28.62754991035934" lon="-10.814880872532035"><ele>236.0</ele><time>2026-04-28T15:31:11Z</time></trkpt><trkpt lat="28.627530386698094" lon="-10.815143430961895"><ele>236.0</ele><time>2026-04-28T15:31:12Z</time></trkpt><trkpt lat="28.62750921251868" lon="-10.81540481488125"><ele>236.5</ele><time>2026-04-28T15:31:13Z</time></trkpt><trkpt lat="28.62748957186211" lon="-10.815666171351802"><ele>237.0</ele><time>2026-04-28T15:31:14Z</time></trkpt><trkpt lat="28.627471650950874" lon="-10.815927845397011"><ele>237.0</ele><time>2026-04-28T15:31:15Z</time></trkpt><trkpt lat="28.62745070973444" lon="-10.816186777080702"><ele>237.0</ele><time>2026-04-28T15:31:16Z</time></trkpt><trkpt lat="28.627430803265757" lon="-10.816447549987135"><ele>237.0</ele><time>2026-04-28T15:31:17Z</time></trkpt><trkpt lat="28.627413449229994" lon="-10.816708910061578"><ele>237.0</ele><time>2026-04-28T15:31:18Z</time></trkpt><trkpt lat="28.627395744705353" lon="-10.816970557289235"><ele>235.0</ele><time>2026-04-28T15:31:19Z</time></trkpt><trkpt lat="28.627374758439633" lon="-10.817234642980322"><ele>233.0</ele><time>2026-04-28T15:31:20Z</time></trkpt><trkpt lat="28.627350064900735" lon="-10.81749869221511"><ele>233.5</ele><time>2026-04-28T15:31:21Z</time></trkpt><trkpt lat="28.627330638244622" lon="-10.817764171719917"><ele>234.0</ele><time>2026-04-28T15:31:22Z</time></trkpt><trkpt lat="28.627316394478065" lon="-10.818034169154473"><ele>234.0</ele><time>2026-04-28T15:31:23Z</time></trkpt><trkpt lat="28.627299851524466" lon="-10.81830433157709"><ele>234.0</ele><time>2026-04-28T15:31:24Z</time></trkpt><trkpt lat="28.627278596538847" lon="-10.818576900449065"><ele>232.5</ele><time>2026-04-28T15:31:25Z</time></trkpt><trkpt lat="28.627256788418563" lon="-10.81884927972215"><ele>231.0</ele><time>2026-04-28T15:31:26Z</time></trkpt><trkpt lat="28.627236462867202" lon="-10.819121904920443"><ele>230.0</ele><time>2026-04-28T15:31:27Z</time></trkpt><trkpt lat="28.627217975929057" lon="-10.819394458021131"><ele>229.0</ele><time>2026-04-28T15:31:28Z</time></trkpt><trkpt lat="28.627195475405255" lon="-10.819666910649593"><ele>229.0</ele><time>2026-04-28T15:31:29Z</time></trkpt><trkpt lat="28.627171735806535" lon="-10.819937327364599"><ele>229.0</ele><time>2026-04-28T15:31:30Z</time></trkpt><trkpt lat="28.627152852703205" lon="-10.820206099906244"><ele>228.5</ele><time>2026-04-28T15:31:31Z</time></trkpt><trkpt lat="28.627132796352644" lon="-10.82047646385383"><ele>228.0</ele><time>2026-04-28T15:31:32Z</time></trkpt><trkpt lat="28.627112528864973" lon="-10.820748685891688"><ele>225.5</ele><time>2026-04-28T15:31:33Z</time></trkpt><trkpt lat="28.627094837309038" lon="-10.821017608126956"><ele>223.0</ele><time>2026-04-28T15:31:34Z</time></trkpt><trkpt lat="28.627076999292655" lon="-10.821288086841209"><ele>223.0</ele><time>2026-04-28T15:31:35Z</time></trkpt><trkpt lat="28.627057593136335" lon="-10.821558616907037"><ele>223.0</ele><time>2026-04-28T15:31:36Z</time></trkpt><trkpt lat="28.627037363643268" lon="-10.82182995345307"><ele>224.5</ele><time>2026-04-28T15:31:37Z</time></trkpt><trkpt lat="28.627018735432515" lon="-10.822097622079479"><ele>226.0</ele><time>2026-04-28T15:31:38Z</time></trkpt><trkpt lat="28.62699769087353" lon="-10.82236809828936"><ele>227.0</ele><time>2026-04-28T15:31:39Z</time></trkpt><trkpt lat="28.626972561158357" lon="-10.822638277261852"><ele>228.0</ele><time>2026-04-28T15:31:40Z</time></trkpt><trkpt lat="28.626941741615948" lon="-10.822908849571194"><ele>228.0</ele><time>2026-04-28T15:31:41Z</time></trkpt><trkpt lat="28.626902724139867" lon="-10.823178519255624"><ele>228.0</ele><time>2026-04-28T15:31:42Z</time></trkpt><trkpt lat="28.626853543351046" lon="-10.823448726451677"><ele>226.5</ele><time>2026-04-28T15:31:43Z</time></trkpt><trkpt lat="28.62679273281569" lon="-10.823719975287068"><ele>225.0</ele><time>2026-04-28T15:31:44Z</time></trkpt><trkpt lat="28.626722744305912" lon="-10.823985662065201"><ele>225.0</ele><time>2026-04-28T15:31:45Z</time></trkpt><trkpt lat="28.626638877607977" lon="-10.824248531739023"><ele>225.0</ele><time>2026-04-28T15:31:46Z</time></trkpt><trkpt lat="28.626544378749536" lon="-10.824511676940414"><ele>222.0</ele><time>2026-04-28T15:31:47Z</time></trkpt><trkpt lat="28.626439140106744" lon="-10.82477215872306"><ele>219.0</ele><time>2026-04-28T15:31:48Z</time></trkpt><trkpt lat="28.62632158855174" lon="-10.825032316087283"><ele>219.0</ele><time>2026-04-28T15:31:49Z</time></trkpt><trkpt lat="28.62619213632589" lon="-10.825285324176939"><ele>219.0</ele><time>2026-04-28T15:31:50Z</time></trkpt><trkpt lat="28.62604916132381" lon="-10.825535786115665"><ele>219.0</ele><time>2026-04-28T15:31:51Z</time></trkpt><trkpt lat="28.62589540574128" lon="-10.825778929915076"><ele>219.0</ele><time>2026-04-28T15:31:52Z</time></trkpt><trkpt lat="28.625730424328573" lon="-10.826018480113117"><ele>216.0</ele><time>2026-04-28T15:31:53Z</time></trkpt><trkpt lat="28.625555301851513" lon="-10.826249959117778"><ele>213.0</ele><time>2026-04-28T15:31:54Z</time></trkpt><trkpt lat="28.625369377861766" lon="-10.826474891077204"><ele>212.5</ele><time>2026-04-28T15:31:55Z</time></trkpt><trkpt lat="28.62517015297106" lon="-10.826693474135814"><ele>212.0</ele><time>2026-04-28T15:31:56Z</time></trkpt><trkpt lat="28.62496518621396" lon="-10.826906332719958"><ele>211.0</ele><time>2026-04-28T15:31:57Z</time></trkpt><trkpt lat="28.624757499596647" lon="-10.827116484685096"><ele>210.0</ele><time>2026-04-28T15:31:58Z</time></trkpt><trkpt lat="28.62454952811335" lon="-10.827326972609601"><ele>210.5</ele><time>2026-04-28T15:31:59Z</time></trkpt><trkpt lat="28.62433989231101" lon="-10.82753552966006"><ele>211.0</ele><time>2026-04-28T15:32:00Z</time></trkpt><trkpt lat="28.624131121125572" lon="-10.827747953274935"><ele>208.0</ele><time>2026-04-28T15:32:01Z</time></trkpt><trkpt lat="28.623923745035007" lon="-10.827963358051965"><ele>205.0</ele><time>2026-04-28T15:32:02Z</time></trkpt><trkpt lat="28.623716508287018" lon="-10.828176688428414"><ele>205.0</ele><time>2026-04-28T15:32:03Z</time></trkpt><trkpt lat="28.62350752019949" lon="-10.828391851553697"><ele>205.0</ele><time>2026-04-28T15:32:04Z</time></trkpt><trkpt lat="28.62329968117895" lon="-10.828606899698297"><ele>203.5</ele><time>2026-04-28T15:32:05Z</time></trkpt><trkpt lat="28.62307057615823" lon="-10.828796062790785"><ele>202.0</ele><time>2026-04-28T15:32:06Z</time></trkpt><trkpt lat="28.62285930327379" lon="-10.82901100921456"><ele>202.0</ele><time>2026-04-28T15:32:07Z</time></trkpt><trkpt lat="28.622648693580572" lon="-10.829225280868329"><ele>202.0</ele><time>2026-04-28T15:32:08Z</time></trkpt><trkpt lat="28.62243674435054" lon="-10.829440917804371"><ele>200.0</ele><time>2026-04-28T15:32:09Z</time></trkpt><trkpt lat="28.622226688820938" lon="-10.829654507789641"><ele>198.0</ele><time>2026-04-28T15:32:10Z</time></trkpt><trkpt lat="28.622043509898067" lon="-10.829903151865985"><ele>198.5</ele><time>2026-04-28T15:32:11Z</time></trkpt><trkpt lat="28.62183290152127" lon="-10.830117719670174"><ele>199.0</ele><time>2026-04-28T15:32:12Z</time></trkpt><trkpt lat="28.62162045381451" lon="-10.830327514165036"><ele>197.5</ele><time>2026-04-28T15:32:13Z</time></trkpt><trkpt lat="28.621414893364143" lon="-10.830541359462861"><ele>196.0</ele><time>2026-04-28T15:32:14Z</time></trkpt><trkpt lat="28.621177013507804" lon="-10.83072112299407"><ele>197.0</ele><time>2026-04-28T15:32:15Z</time></trkpt><trkpt lat="28.62096669318861" lon="-10.83092936910117"><ele>198.0</ele><time>2026-04-28T15:32:16Z</time></trkpt><trkpt lat="28.620755367165042" lon="-10.831138447283108"><ele>198.0</ele><time>2026-04-28T15:32:17Z</time></trkpt><trkpt lat="28.620544829318597" lon="-10.831346695898041"><ele>198.0</ele><time>2026-04-28T15:32:18Z</time></trkpt><trkpt lat="28.620336152711612" lon="-10.831552655881234"><ele>197.5</ele><time>2026-04-28T15:32:19Z</time></trkpt><trkpt lat="28.620132498025217" lon="-10.831760178180938"><ele>197.0</ele><time>2026-04-28T15:32:20Z</time></trkpt><trkpt lat="28.619931997047438" lon="-10.831968394370202"><ele>196.0</ele><time>2026-04-28T15:32:21Z</time></trkpt><trkpt lat="28.619733478578322" lon="-10.832177253216118"><ele>195.0</ele><time>2026-04-28T15:32:22Z</time></trkpt><trkpt lat="28.619537078824187" lon="-10.83238649033461"><ele>197.0</ele><time>2026-04-28T15:32:23Z</time></trkpt><trkpt lat="28.619342539535285" lon="-10.832593112655434"><ele>199.0</ele><time>2026-04-28T15:32:24Z</time></trkpt><trkpt lat="28.61914596251333" lon="-10.832797415744947"><ele>199.0</ele><time>2026-04-28T15:32:25Z</time></trkpt><trkpt lat="28.618946682460862" lon="-10.833001043832157"><ele>199.0</ele><time>2026-04-28T15:32:26Z</time></trkpt><trkpt lat="28.618749344288428" lon="-10.833202623252953"><ele>198.5</ele><time>2026-04-28T15:32:27Z</time></trkpt><trkpt lat="28.618552117433897" lon="-10.833404962852542"><ele>198.0</ele><time>2026-04-28T15:32:28Z</time></trkpt><trkpt lat="28.618355480471614" lon="-10.833606742412055"><ele>198.0</ele><time>2026-04-28T15:32:29Z</time></trkpt><trkpt lat="28.6181585548549" lon="-10.833807761147092"><ele>198.0</ele><time>2026-04-28T15:32:30Z</time></trkpt><trkpt lat="28.61796322118215" lon="-10.834008132339102"><ele>198.5</ele><time>2026-04-28T15:32:31Z</time></trkpt><trkpt lat="28.617767024295723" lon="-10.834209025495989"><ele>199.0</ele><time>2026-04-28T15:32:32Z</time></trkpt><trkpt lat="28.617570655822142" lon="-10.834410043121132"><ele>199.0</ele><time>2026-04-28T15:32:33Z</time></trkpt><trkpt lat="28.617375773397306" lon="-10.834609539455812"><ele>199.0</ele><time>2026-04-28T15:32:34Z</time></trkpt><trkpt lat="28.617180791532533" lon="-10.8348103496401"><ele>199.0</ele><time>2026-04-28T15:32:35Z</time></trkpt><trkpt lat="28.6169862292879" lon="-10.83500930046812"><ele>199.0</ele><time>2026-04-28T15:32:36Z</time></trkpt><trkpt lat="28.616793146828396" lon="-10.835207275592879"><ele>199.5</ele><time>2026-04-28T15:32:37Z</time></trkpt><trkpt lat="28.616599791923285" lon="-10.835405623947516"><ele>200.0</ele><time>2026-04-28T15:32:38Z</time></trkpt><trkpt lat="28.616406166232064" lon="-10.835603168465791"><ele>200.0</ele><time>2026-04-28T15:32:39Z</time></trkpt><trkpt lat="28.616216848741004" lon="-10.83579728003075"><ele>200.0</ele><time>2026-04-28T15:32:40Z</time></trkpt><trkpt lat="28.616026786017265" lon="-10.835992155568992"><ele>199.5</ele><time>2026-04-28T15:32:41Z</time></trkpt><trkpt lat="28.615837360916426" lon="-10.836186377238361"><ele>199.0</ele><time>2026-04-28T15:32:42Z</time></trkpt><trkpt lat="28.61564856298207" lon="-10.836379237834336"><ele>199.0</ele><time>2026-04-28T15:32:43Z</time></trkpt><trkpt lat="28.61545970937932" lon="-10.836573111683364"><ele>199.0</ele><time>2026-04-28T15:32:44Z</time></trkpt><trkpt lat="28.615271999209515" lon="-10.836765811888952"><ele>201.0</ele><time>2026-04-28T15:32:45Z</time></trkpt><trkpt lat="28.61508488333546" lon="-10.836957831506213"><ele>203.0</ele><time>2026-04-28T15:32:46Z</time></trkpt><trkpt lat="28.614895608830906" lon="-10.83715139875439"><ele>203.0</ele><time>2026-04-28T15:32:47Z</time></trkpt><trkpt lat="28.61470891859748" lon="-10.837342631693458"><ele>203.0</ele><time>2026-04-28T15:32:48Z</time></trkpt><trkpt lat="28.614521129733966" lon="-10.837535092065945"><ele>203.5</ele><time>2026-04-28T15:32:49Z</time></trkpt><trkpt lat="28.61433585088974" lon="-10.837724503746367"><ele>204.0</ele><time>2026-04-28T15:32:50Z</time></trkpt><trkpt lat="28.61415148158784" lon="-10.837913413343612"><ele>204.0</ele><time>2026-04-28T15:32:51Z</time></trkpt><trkpt lat="28.613968941884547" lon="-10.838100446329102"><ele>204.0</ele><time>2026-04-28T15:32:52Z</time></trkpt><trkpt lat="28.613785873307894" lon="-10.838288023129879"><ele>205.0</ele><time>2026-04-28T15:32:53Z</time></trkpt><trkpt lat="28.6136053467232" lon="-10.838472968182586"><ele>206.0</ele><time>2026-04-28T15:32:54Z</time></trkpt><trkpt lat="28.61342392371297" lon="-10.838658526708748"><ele>206.0</ele><time>2026-04-28T15:32:55Z</time></trkpt><trkpt lat="28.613245277806296" lon="-10.838841243706334"><ele>206.0</ele><time>2026-04-28T15:32:56Z</time></trkpt><trkpt lat="28.61306839935755" lon="-10.839022152972738"><ele>206.0</ele><time>2026-04-28T15:32:57Z</time></trkpt><trkpt lat="28.612892227602728" lon="-10.839204969322196"><ele>206.0</ele><time>2026-04-28T15:32:58Z</time></trkpt><trkpt lat="28.612737519744854" lon="-10.83941384229608"><ele>206.5</ele><time>2026-04-28T15:32:59Z</time></trkpt><trkpt lat="28.61256052984442" lon="-10.83959453205739"><ele>207.0</ele><time>2026-04-28T15:33:00Z</time></trkpt><trkpt lat="28.6123841710968" lon="-10.839775862219978"><ele>207.0</ele><time>2026-04-28T15:33:01Z</time></trkpt><trkpt lat="28.612208570974758" lon="-10.839955287874485"><ele>207.0</ele><time>2026-04-28T15:33:02Z</time></trkpt><trkpt lat="28.61203288636767" lon="-10.840134819299568"><ele>205.5</ele><time>2026-04-28T15:33:03Z</time></trkpt><trkpt lat="28.61186042961352" lon="-10.840313287582141"><ele>204.0</ele><time>2026-04-28T15:33:04Z</time></trkpt><trkpt lat="28.611686521834354" lon="-10.840489934320896"><ele>204.0</ele><time>2026-04-28T15:33:05Z</time></trkpt><trkpt lat="28.611509883406395" lon="-10.840665843045368"><ele>204.0</ele><time>2026-04-28T15:33:06Z</time></trkpt><trkpt lat="28.611333992395302" lon="-10.840841558506954"><ele>206.0</ele><time>2026-04-28T15:33:07Z</time></trkpt><trkpt lat="28.611161605427718" lon="-10.841020219456334"><ele>208.0</ele><time>2026-04-28T15:33:08Z</time></trkpt><trkpt lat="28.610989783948245" lon="-10.84119791388553"><ele>208.0</ele><time>2026-04-28T15:33:09Z</time></trkpt><trkpt lat="28.61081949401434" lon="-10.84137413451799"><ele>208.0</ele><time>2026-04-28T15:33:10Z</time></trkpt><trkpt lat="28.610648307631948" lon="-10.841549596796224"><ele>208.0</ele><time>2026-04-28T15:33:11Z</time></trkpt><trkpt lat="28.610476195608417" lon="-10.841723810800023"><ele>208.0</ele><time>2026-04-28T15:33:12Z</time></trkpt><trkpt lat="28.61030597356511" lon="-10.841897482044958"><ele>207.0</ele><time>2026-04-28T15:33:13Z</time></trkpt><trkpt lat="28.610135496471" lon="-10.842070884508695"><ele>206.0</ele><time>2026-04-28T15:33:14Z</time></trkpt><trkpt lat="28.609967773619076" lon="-10.84224324446467"><ele>206.0</ele><time>2026-04-28T15:33:15Z</time></trkpt><trkpt lat="28.609799883502355" lon="-10.84241749935886"><ele>206.0</ele><time>2026-04-28T15:33:16Z</time></trkpt><trkpt lat="28.609635289168345" lon="-10.842593653087533"><ele>207.5</ele><time>2026-04-28T15:33:17Z</time></trkpt><trkpt lat="28.609468921896948" lon="-10.84276994767768"><ele>209.0</ele><time>2026-04-28T15:33:18Z</time></trkpt><trkpt lat="28.609298994097852" lon="-10.842947226889224"><ele>209.0</ele><time>2026-04-28T15:33:19Z</time></trkpt><trkpt lat="28.6091267535291" lon="-10.843122543557756"><ele>209.0</ele><time>2026-04-28T15:33:20Z</time></trkpt><trkpt lat="28.608951010314577" lon="-10.843303177908217"><ele>209.5</ele><time>2026-04-28T15:33:21Z</time></trkpt><trkpt lat="28.608771268917" lon="-10.843487026713246"><ele>210.0</ele><time>2026-04-28T15:33:22Z</time></trkpt><trkpt lat="28.608589756579967" lon="-10.84367475801103"><ele>210.0</ele><time>2026-04-28T15:33:23Z</time></trkpt><trkpt lat="28.60840822522763" lon="-10.84386111831536"><ele>210.0</ele><time>2026-04-28T15:33:24Z</time></trkpt><trkpt lat="28.60822474366989" lon="-10.844046625992222"><ele>210.0</ele><time>2026-04-28T15:33:25Z</time></trkpt><trkpt lat="28.608039219919064" lon="-10.844234234610845"><ele>210.0</ele><time>2026-04-28T15:33:26Z</time></trkpt><trkpt lat="28.607854161752247" lon="-10.844423303676036"><ele>210.0</ele><time>2026-04-28T15:33:27Z</time></trkpt><trkpt lat="28.60766764163158" lon="-10.844613906476225"><ele>210.0</ele><time>2026-04-28T15:33:28Z</time></trkpt><trkpt lat="28.6074803670277" lon="-10.844802329814701"><ele>210.0</ele><time>2026-04-28T15:33:29Z</time></trkpt><trkpt lat="28.607290684390406" lon="-10.844993003603147"><ele>210.0</ele><time>2026-04-28T15:33:30Z</time></trkpt><trkpt lat="28.607102261455456" lon="-10.845181946852025"><ele>209.5</ele><time>2026-04-28T15:33:31Z</time></trkpt><trkpt lat="28.606914139016386" lon="-10.845375668988963"><ele>209.0</ele><time>2026-04-28T15:33:32Z</time></trkpt><trkpt lat="28.606724744602186" lon="-10.84556758364785"><ele>209.0</ele><time>2026-04-28T15:33:33Z</time></trkpt><trkpt lat="28.60653314724901" lon="-10.845760641784164"><ele>209.0</ele><time>2026-04-28T15:33:34Z</time></trkpt><trkpt lat="28.60634222645067" lon="-10.845957242959312"><ele>207.5</ele><time>2026-04-28T15:33:35Z</time></trkpt><trkpt lat="28.606147088274977" lon="-10.84615436092916"><ele>206.0</ele><time>2026-04-28T15:33:36Z</time></trkpt><trkpt lat="28.60595213438916" lon="-10.846353625484634"><ele>206.0</ele><time>2026-04-28T15:33:37Z</time></trkpt><trkpt lat="28.605754527309276" lon="-10.846555293408851"><ele>206.0</ele><time>2026-04-28T15:33:38Z</time></trkpt><trkpt lat="28.605558327713865" lon="-10.846758148427362"><ele>205.0</ele><time>2026-04-28T15:33:39Z</time></trkpt><trkpt lat="28.605357970705107" lon="-10.84696331374579"><ele>204.0</ele><time>2026-04-28T15:33:40Z</time></trkpt><trkpt lat="28.605156614060025" lon="-10.847166634043932"><ele>203.0</ele><time>2026-04-28T15:33:41Z</time></trkpt><trkpt lat="28.604953765057182" lon="-10.847370253688526"><ele>202.0</ele><time>2026-04-28T15:33:42Z</time></trkpt><trkpt lat="28.604751413040006" lon="-10.84757757769822"><ele>201.5</ele><time>2026-04-28T15:33:43Z</time></trkpt><trkpt lat="28.604550079881708" lon="-10.847783804751328"><ele>201.0</ele><time>2026-04-28T15:33:44Z</time></trkpt><trkpt lat="28.604349300997942" lon="-10.847991878890856"><ele>200.0</ele><time>2026-04-28T15:33:45Z</time></trkpt><trkpt lat="28.604145008953846" lon="-10.848197057141313"><ele>199.0</ele><time>2026-04-28T15:33:46Z</time></trkpt><trkpt lat="28.60394459162674" lon="-10.848402261043121"><ele>198.5</ele><time>2026-04-28T15:33:47Z</time></trkpt><trkpt lat="28.603744891400417" lon="-10.848610051967421"><ele>198.0</ele><time>2026-04-28T15:33:48Z</time></trkpt><trkpt lat="28.603543610753825" lon="-10.84881537982053"><ele>195.0</ele><time>2026-04-28T15:33:49Z</time></trkpt><trkpt lat="28.60334316577479" lon="-10.849020696548248"><ele>192.0</ele><time>2026-04-28T15:33:50Z</time></trkpt><trkpt lat="28.603143791702966" lon="-10.849224852905959"><ele>191.5</ele><time>2026-04-28T15:33:51Z</time></trkpt><trkpt lat="28.602942490279652" lon="-10.849428895877002"><ele>191.0</ele><time>2026-04-28T15:33:52Z</time></trkpt><trkpt lat="28.602742508627845" lon="-10.849633964973455"><ele>191.0</ele><time>2026-04-28T15:33:53Z</time></trkpt><trkpt lat="28.602544469488812" lon="-10.849837438521758"><ele>191.0</ele><time>2026-04-28T15:33:54Z</time></trkpt><trkpt lat="28.602344425655" lon="-10.85004206640332"><ele>190.0</ele><time>2026-04-28T15:33:55Z</time></trkpt><trkpt lat="28.6021474492819" lon="-10.850245178147993"><ele>189.0</ele><time>2026-04-28T15:33:56Z</time></trkpt><trkpt lat="28.601949608199806" lon="-10.850449898614452"><ele>189.0</ele><time>2026-04-28T15:33:57Z</time></trkpt><trkpt lat="28.601753929741736" lon="-10.850650393888248"><ele>189.0</ele><time>2026-04-28T15:33:58Z</time></trkpt><trkpt lat="28.60155585156091" lon="-10.85085185091605"><ele>188.0</ele><time>2026-04-28T15:33:59Z</time></trkpt><trkpt lat="28.601356698012882" lon="-10.851054200384658"><ele>187.0</ele><time>2026-04-28T15:34:00Z</time></trkpt><trkpt lat="28.601161793430755" lon="-10.85125609046315"><ele>185.5</ele><time>2026-04-28T15:34:01Z</time></trkpt><trkpt lat="28.600967634109228" lon="-10.851456189475101"><ele>184.0</ele><time>2026-04-28T15:34:02Z</time></trkpt><trkpt lat="28.600775349779152" lon="-10.851653119117254"><ele>186.5</ele><time>2026-04-28T15:34:03Z</time></trkpt><trkpt lat="28.60058252139508" lon="-10.851845720407697"><ele>189.0</ele><time>2026-04-28T15:34:04Z</time></trkpt><trkpt lat="28.60039150539861" lon="-10.852037036712012"><ele>189.5</ele><time>2026-04-28T15:34:05Z</time></trkpt><trkpt lat="28.600205724524262" lon="-10.852227717209432"><ele>190.0</ele><time>2026-04-28T15:34:06Z</time></trkpt><trkpt lat="28.600020148438922" lon="-10.852418530074832"><ele>190.0</ele><time>2026-04-28T15:34:07Z</time></trkpt><trkpt lat="28.599837342036963" lon="-10.852604316610563"><ele>190.0</ele><time>2026-04-28T15:34:08Z</time></trkpt><trkpt lat="28.599656252541333" lon="-10.852791881847816"><ele>185.5</ele><time>2026-04-28T15:34:09Z</time></trkpt><trkpt lat="28.599477494367875" lon="-10.852976877292422"><ele>181.0</ele><time>2026-04-28T15:34:10Z</time></trkpt><trkpt lat="28.599298753370842" lon="-10.853161260233723"><ele>181.0</ele><time>2026-04-28T15:34:11Z</time></trkpt><trkpt lat="28.59910983438071" lon="-10.85332869432325"><ele>181.0</ele><time>2026-04-28T15:34:12Z</time></trkpt><trkpt lat="28.598931990665918" lon="-10.85350902239902"><ele>181.0</ele><time>2026-04-28T15:34:13Z</time></trkpt><trkpt lat="28.59875559418031" lon="-10.853688322759236"><ele>181.0</ele><time>2026-04-28T15:34:14Z</time></trkpt><trkpt lat="28.59857894978705" lon="-10.853867747099894"><ele>181.0</ele><time>2026-04-28T15:34:15Z</time></trkpt><trkpt lat="28.598403617025113" lon="-10.854046407407532"><ele>181.0</ele><time>2026-04-28T15:34:16Z</time></trkpt><trkpt lat="28.59822972866806" lon="-10.854224674428204"><ele>181.5</ele><time>2026-04-28T15:34:17Z</time></trkpt><trkpt lat="28.59806639851715" lon="-10.854416704753058"><ele>182.0</ele><time>2026-04-28T15:34:18Z</time></trkpt><trkpt lat="28.59789389029417" lon="-10.854592420595665"><ele>180.5</ele><time>2026-04-28T15:34:19Z</time></trkpt><trkpt lat="28.597719154892626" lon="-10.85476983487161"><ele>179.0</ele><time>2026-04-28T15:34:20Z</time></trkpt><trkpt lat="28.597547002954258" lon="-10.854947940543084"><ele>178.5</ele><time>2026-04-28T15:34:21Z</time></trkpt><trkpt lat="28.597376530633394" lon="-10.85512641654026"><ele>178.0</ele><time>2026-04-28T15:34:22Z</time></trkpt><trkpt lat="28.597209577392228" lon="-10.855306089268769"><ele>178.0</ele><time>2026-04-28T15:34:23Z</time></trkpt><trkpt lat="28.597046749894734" lon="-10.855491537239327"><ele>178.0</ele><time>2026-04-28T15:34:24Z</time></trkpt><trkpt lat="28.59689233353" lon="-10.855681395468128"><ele>178.0</ele><time>2026-04-28T15:34:25Z</time></trkpt><trkpt lat="28.596748323981057" lon="-10.855878332815873"><ele>178.0</ele><time>2026-04-28T15:34:26Z</time></trkpt><trkpt lat="28.596612219273442" lon="-10.856084667274816"><ele>178.0</ele><time>2026-04-28T15:34:27Z</time></trkpt><trkpt lat="28.59648678069712" lon="-10.856295923725048"><ele>178.0</ele><time>2026-04-28T15:34:28Z</time></trkpt><trkpt lat="28.596369696716017" lon="-10.85651233569346"><ele>178.0</ele><time>2026-04-28T15:34:29Z</time></trkpt><trkpt lat="28.596262389715864" lon="-10.856734871922626"><ele>179.0</ele><time>2026-04-28T15:34:30Z</time></trkpt><trkpt lat="28.59616510361873" lon="-10.856960883797468"><ele>180.0</ele><time>2026-04-28T15:34:31Z</time></trkpt><trkpt lat="28.596077647014397" lon="-10.85718832036758"><ele>181.0</ele><time>2026-04-28T15:34:32Z</time></trkpt><trkpt lat="28.595999269739846" lon="-10.857423408995212"><ele>181.0</ele><time>2026-04-28T15:34:33Z</time></trkpt><trkpt lat="28.595931122639403" lon="-10.857666603745146"><ele>181.0</ele><time>2026-04-28T15:34:34Z</time></trkpt><trkpt lat="28.595872366755533" lon="-10.85791486882013"><ele>181.0</ele><time>2026-04-28T15:34:35Z</time></trkpt><trkpt lat="28.59580493328629" lon="-10.85816302055038"><ele>181.0</ele><time>2026-04-28T15:34:36Z</time></trkpt><trkpt lat="28.595759086104756" lon="-10.858413780800664"><ele>181.0</ele><time>2026-04-28T15:34:37Z</time></trkpt><trkpt lat="28.595723971925565" lon="-10.858671008025366"><ele>181.0</ele><time>2026-04-28T15:34:38Z</time></trkpt><trkpt lat="28.595706432185466" lon="-10.858931004160619"><ele>181.0</ele><time>2026-04-28T15:34:39Z</time></trkpt><trkpt lat="28.595700899730133" lon="-10.859187206970871"><ele>181.0</ele><time>2026-04-28T15:34:40Z</time></trkpt><trkpt lat="28.595697177399828" lon="-10.859441117320944"><ele>181.0</ele><time>2026-04-28T15:34:41Z</time></trkpt><trkpt lat="28.595701958646984" lon="-10.859693633805591"><ele>180.66666666666669</ele><time>2026-04-28T15:34:42Z</time></trkpt><trkpt lat="28.595714108761165" lon="-10.85994703271411"><ele>180.33333333333334</ele><time>2026-04-28T15:34:43Z</time></trkpt><trkpt lat="28.59573454660478" lon="-10.860195895854403"><ele>180.0</ele><time>2026-04-28T15:34:44Z</time></trkpt><trkpt lat="28.595752361151465" lon="-10.860444889223848"><ele>180.0</ele><time>2026-04-28T15:34:45Z</time></trkpt><trkpt lat="28.595781740819742" lon="-10.860691535001132"><ele>180.0</ele><time>2026-04-28T15:34:46Z</time></trkpt><trkpt lat="28.595781799630927" lon="-10.860941137128217"><ele>180.0</ele><time>2026-04-28T15:34:47Z</time></trkpt><trkpt lat="28.595750562256963" lon="-10.861186356523524"><ele>182.66666666666666</ele><time>2026-04-28T15:34:48Z</time></trkpt><trkpt lat="28.595726616841006" lon="-10.86143268643217"><ele>185.33333333333331</ele><time>2026-04-28T15:34:49Z</time></trkpt><trkpt lat="28.595691156271965" lon="-10.861672585823518"><ele>188.0</ele><time>2026-04-28T15:34:50Z</time></trkpt><trkpt lat="28.595645668842828" lon="-10.861909200504305"><ele>189.0</ele><time>2026-04-28T15:34:51Z</time></trkpt><trkpt lat="28.595591706610016" lon="-10.862139392635855"><ele>190.0</ele><time>2026-04-28T15:34:52Z</time></trkpt><trkpt lat="28.595524531658597" lon="-10.862363400505721"><ele>191.0</ele><time>2026-04-28T15:34:53Z</time></trkpt><trkpt lat="28.595447095532116" lon="-10.862582759829355"><ele>192.66666666666666</ele><time>2026-04-28T15:34:54Z</time></trkpt><trkpt lat="28.595356960724054" lon="-10.862795320372399"><ele>194.33333333333331</ele><time>2026-04-28T15:34:55Z</time></trkpt><trkpt lat="28.595273965912476" lon="-10.863008823788011"><ele>196.0</ele><time>2026-04-28T15:34:56Z</time></trkpt><trkpt lat="28.595162409457583" lon="-10.863207137163432"><ele>196.0</ele><time>2026-04-28T15:34:57Z</time></trkpt><trkpt lat="28.595046932847374" lon="-10.86339731598333"><ele>196.0</ele><time>2026-04-28T15:34:58Z</time></trkpt><trkpt lat="28.59492136855417" lon="-10.86357959349547"><ele>196.0</ele><time>2026-04-28T15:34:59Z</time></trkpt><trkpt lat="28.594787891399154" lon="-10.863755845777382"><ele>197.66666666666666</ele><time>2026-04-28T15:35:00Z</time></trkpt><trkpt lat="28.59464508795565" lon="-10.863923013964817"><ele>199.33333333333331</ele><time>2026-04-28T15:35:01Z</time></trkpt><trkpt lat="28.594491554317887" lon="-10.86407863819196"><ele>201.0</ele><time>2026-04-28T15:35:02Z</time></trkpt><trkpt lat="28.594328594917172" lon="-10.86422419080266"><ele>204.66666666666669</ele><time>2026-04-28T15:35:03Z</time></trkpt><trkpt lat="28.594159738279064" lon="-10.864362147167778"><ele>208.33333333333334</ele><time>2026-04-28T15:35:04Z</time></trkpt><trkpt lat="28.59398244904304" lon="-10.864495777509031"><ele>212.0</ele><time>2026-04-28T15:35:05Z</time></trkpt><trkpt lat="28.59379521259169" lon="-10.864624764680386"><ele>211.33333333333334</ele><time>2026-04-28T15:35:06Z</time></trkpt><trkpt lat="28.59360421694135" lon="-10.864750344287014"><ele>210.66666666666669</ele><time>2026-04-28T15:35:07Z</time></trkpt><trkpt lat="28.593409021440092" lon="-10.864877050890518"><ele>210.0</ele><time>2026-04-28T15:35:08Z</time></trkpt><trkpt lat="28.593210091794706" lon="-10.865004300160493"><ele>215.0</ele><time>2026-04-28T15:35:09Z</time></trkpt><trkpt lat="28.593006239730464" lon="-10.865132511044271"><ele>220.0</ele><time>2026-04-28T15:35:10Z</time></trkpt><trkpt lat="28.592796774078806" lon="-10.865261451320473"><ele>220.5</ele><time>2026-04-28T15:35:11Z</time></trkpt><trkpt lat="28.592585454812014" lon="-10.865390657498084"><ele>221.0</ele><time>2026-04-28T15:35:12Z</time></trkpt><trkpt lat="28.592371056673063" lon="-10.865521720686514"><ele>221.0</ele><time>2026-04-28T15:35:13Z</time></trkpt><trkpt lat="28.592153472548322" lon="-10.865652903462669"><ele>221.0</ele><time>2026-04-28T15:35:14Z</time></trkpt><trkpt lat="28.591936989105676" lon="-10.865784381610762"><ele>223.0</ele><time>2026-04-28T15:35:15Z</time></trkpt><trkpt lat="28.591719719854723" lon="-10.865919298581934"><ele>225.0</ele><time>2026-04-28T15:35:16Z</time></trkpt><trkpt lat="28.59150231543543" lon="-10.866057277852386"><ele>226.5</ele><time>2026-04-28T15:35:17Z</time></trkpt><trkpt lat="28.591286467264553" lon="-10.86619779691606"><ele>228.0</ele><time>2026-04-28T15:35:18Z</time></trkpt><trkpt lat="28.59108204718212" lon="-10.866340173243604"><ele>228.33333333333331</ele><time>2026-04-28T15:35:19Z</time></trkpt><trkpt lat="28.59089186392216" lon="-10.866485094355038"><ele>228.66666666666666</ele><time>2026-04-28T15:35:20Z</time></trkpt><trkpt lat="28.590717549534652" lon="-10.866632299393503"><ele>229.0</ele><time>2026-04-28T15:35:21Z</time></trkpt><trkpt lat="28.590550315672854" lon="-10.866788777272241"><ele>228.0</ele><time>2026-04-28T15:35:22Z</time></trkpt><trkpt lat="28.590388446404432" lon="-10.866956096572201"><ele>227.0</ele><time>2026-04-28T15:35:23Z</time></trkpt><trkpt lat="28.590232954840296" lon="-10.867131515070826"><ele>226.0</ele><time>2026-04-28T15:35:24Z</time></trkpt><trkpt lat="28.590078685888226" lon="-10.867321406010339"><ele>226.0</ele><time>2026-04-28T15:35:25Z</time></trkpt><trkpt lat="28.589926751578872" lon="-10.867526882362059"><ele>226.0</ele><time>2026-04-28T15:35:26Z</time></trkpt><trkpt lat="28.58978318609434" lon="-10.867746278573879"><ele>223.5</ele><time>2026-04-28T15:35:27Z</time></trkpt><trkpt lat="28.58964621824789" lon="-10.867981890695667"><ele>221.0</ele><time>2026-04-28T15:35:28Z</time></trkpt><trkpt lat="28.58952114244086" lon="-10.868225980302274"><ele>221.0</ele><time>2026-04-28T15:35:29Z</time></trkpt><trkpt lat="28.589410700535375" lon="-10.86847734742333"><ele>221.0</ele><time>2026-04-28T15:35:30Z</time></trkpt><trkpt lat="28.589312379704815" lon="-10.868734931307653"><ele>221.0</ele><time>2026-04-28T15:35:31Z</time></trkpt><trkpt lat="28.589225382768984" lon="-10.868998128689132"><ele>221.0</ele><time>2026-04-28T15:35:32Z</time></trkpt><trkpt lat="28.58914931801921" lon="-10.869268965827187"><ele>220.5</ele><time>2026-04-28T15:35:33Z</time></trkpt><trkpt lat="28.589083798794082" lon="-10.869543253209086"><ele>220.0</ele><time>2026-04-28T15:35:34Z</time></trkpt><trkpt lat="28.58902242131118" lon="-10.86982276782732"><ele>220.0</ele><time>2026-04-28T15:35:35Z</time></trkpt><trkpt lat="28.5889605749163" lon="-10.870106368861567"><ele>220.0</ele><time>2026-04-28T15:35:36Z</time></trkpt><trkpt lat="28.588895133624813" lon="-10.87039174619057"><ele>219.5</ele><time>2026-04-28T15:35:37Z</time></trkpt><trkpt lat="28.588825213871736" lon="-10.870673463270053"><ele>219.0</ele><time>2026-04-28T15:35:38Z</time></trkpt><trkpt lat="28.588754678645895" lon="-10.870950595558842"><ele>219.0</ele><time>2026-04-28T15:35:39Z</time></trkpt><trkpt lat="28.58868120272089" lon="-10.87122350083109"><ele>219.0</ele><time>2026-04-28T15:35:40Z</time></trkpt><trkpt lat="28.58859628316534" lon="-10.871490848143724"><ele>218.0</ele><time>2026-04-28T15:35:41Z</time></trkpt><trkpt lat="28.588495855481543" lon="-10.871752631916653"><ele>217.0</ele><time>2026-04-28T15:35:42Z</time></trkpt><trkpt lat="28.58837985530017" lon="-10.87200271178871"><ele>217.0</ele><time>2026-04-28T15:35:43Z</time></trkpt><trkpt lat="28.588248081211816" lon="-10.872241972415262"><ele>217.0</ele><time>2026-04-28T15:35:44Z</time></trkpt><trkpt lat="28.588102756978635" lon="-10.872469114747632"><ele>215.5</ele><time>2026-04-28T15:35:45Z</time></trkpt><trkpt lat="28.58794574127632" lon="-10.872683551248302"><ele>214.0</ele><time>2026-04-28T15:35:46Z</time></trkpt><trkpt lat="28.587783590043014" lon="-10.872880523639086"><ele>214.0</ele><time>2026-04-28T15:35:47Z</time></trkpt><trkpt lat="28.587616358240417" lon="-10.87306224651225"><ele>214.0</ele><time>2026-04-28T15:35:48Z</time></trkpt><trkpt lat="28.587443501640074" lon="-10.873229212081164"><ele>214.0</ele><time>2026-04-28T15:35:49Z</time></trkpt><trkpt lat="28.587259430198582" lon="-10.873382074592548"><ele>214.0</ele><time>2026-04-28T15:35:50Z</time></trkpt><trkpt lat="28.5870650556017" lon="-10.87352772763579"><ele>212.0</ele><time>2026-04-28T15:35:51Z</time></trkpt><trkpt lat="28.586864047145507" lon="-10.8736672793794"><ele>210.0</ele><time>2026-04-28T15:35:52Z</time></trkpt><trkpt lat="28.586660068110707" lon="-10.87380880961689"><ele>210.0</ele><time>2026-04-28T15:35:53Z</time></trkpt><trkpt lat="28.586453965637826" lon="-10.873951509712679"><ele>210.0</ele><time>2026-04-28T15:35:54Z</time></trkpt><trkpt lat="28.586242878659395" lon="-10.874094720323413"><ele>209.0</ele><time>2026-04-28T15:35:55Z</time></trkpt><trkpt lat="28.586027813065705" lon="-10.87424459823926"><ele>208.0</ele><time>2026-04-28T15:35:56Z</time></trkpt><trkpt lat="28.585809640670558" lon="-10.87440049458483"><ele>203.0</ele><time>2026-04-28T15:35:57Z</time></trkpt><trkpt lat="28.58558474418483" lon="-10.874555289044945"><ele>198.0</ele><time>2026-04-28T15:35:58Z</time></trkpt><trkpt lat="28.585348684962767" lon="-10.874716571841748"><ele>200.5</ele><time>2026-04-28T15:35:59Z</time></trkpt><trkpt lat="28.58511118527846" lon="-10.874883957778541"><ele>203.0</ele><time>2026-04-28T15:36:00Z</time></trkpt><trkpt lat="28.58487303753926" lon="-10.875051906788055"><ele>202.5</ele><time>2026-04-28T15:36:01Z</time></trkpt><trkpt lat="28.584633878393642" lon="-10.875223659360506"><ele>202.0</ele><time>2026-04-28T15:36:02Z</time></trkpt><trkpt lat="28.58439399968615" lon="-10.875395195315011"><ele>202.0</ele><time>2026-04-28T15:36:03Z</time></trkpt><trkpt lat="28.584154637342586" lon="-10.875566726297988"><ele>202.0</ele><time>2026-04-28T15:36:04Z</time></trkpt><trkpt lat="28.583915581036713" lon="-10.875739661230204"><ele>201.5</ele><time>2026-04-28T15:36:05Z</time></trkpt><trkpt lat="28.583678991700758" lon="-10.875916173368664"><ele>201.0</ele><time>2026-04-28T15:36:06Z</time></trkpt><trkpt lat="28.583450206571005" lon="-10.876100853124166"><ele>201.0</ele><time>2026-04-28T15:36:07Z</time></trkpt><trkpt lat="28.58323221976098" lon="-10.876295300501043"><ele>201.0</ele><time>2026-04-28T15:36:08Z</time></trkpt><trkpt lat="28.58302166165001" lon="-10.876500692734147"><ele>201.0</ele><time>2026-04-28T15:36:09Z</time></trkpt><trkpt lat="28.58281881157808" lon="-10.876712849355108"><ele>201.0</ele><time>2026-04-28T15:36:10Z</time></trkpt><trkpt lat="28.58262274861259" lon="-10.876930587367113"><ele>201.0</ele><time>2026-04-28T15:36:11Z</time></trkpt><trkpt lat="28.582427078970273" lon="-10.877143131281798"><ele>201.0</ele><time>2026-04-28T15:36:12Z</time></trkpt><trkpt lat="28.58223285779246" lon="-10.877349869806062"><ele>201.0</ele><time>2026-04-28T15:36:13Z</time></trkpt><trkpt lat="28.582038739716516" lon="-10.877553518852395"><ele>201.0</ele><time>2026-04-28T15:36:14Z</time></trkpt><trkpt lat="28.58184624953" lon="-10.877753914479754"><ele>201.5</ele><time>2026-04-28T15:36:15Z</time></trkpt><trkpt lat="28.581658402898974" lon="-10.877951084702765"><ele>202.0</ele><time>2026-04-28T15:36:16Z</time></trkpt><trkpt lat="28.581472975013753" lon="-10.878145676900077"><ele>202.0</ele><time>2026-04-28T15:36:17Z</time></trkpt><trkpt lat="28.581287594837296" lon="-10.878339340517158"><ele>202.0</ele><time>2026-04-28T15:36:18Z</time></trkpt><trkpt lat="28.581103922159247" lon="-10.878529799732652"><ele>205.0</ele><time>2026-04-28T15:36:19Z</time></trkpt><trkpt lat="28.58092045467359" lon="-10.878719482315628"><ele>208.0</ele><time>2026-04-28T15:36:20Z</time></trkpt><trkpt lat="28.58073881200184" lon="-10.878909901574772"><ele>208.0</ele><time>2026-04-28T15:36:21Z</time></trkpt><trkpt lat="28.580560428589628" lon="-10.879097698087863"><ele>208.0</ele><time>2026-04-28T15:36:22Z</time></trkpt><trkpt lat="28.58036964714864" lon="-10.879264431437447"><ele>208.5</ele><time>2026-04-28T15:36:23Z</time></trkpt><trkpt lat="28.580192538974813" lon="-10.879443099026343"><ele>209.0</ele><time>2026-04-28T15:36:24Z</time></trkpt><trkpt lat="28.580022498487345" lon="-10.879628471619224"><ele>209.0</ele><time>2026-04-28T15:36:25Z</time></trkpt><trkpt lat="28.579829666750108" lon="-10.879794791093836"><ele>209.0</ele><time>2026-04-28T15:36:26Z</time></trkpt><trkpt lat="28.57962639065194" lon="-10.879956116332583"><ele>207.0</ele><time>2026-04-28T15:36:27Z</time></trkpt><trkpt lat="28.579412581107125" lon="-10.880110985381839"><ele>205.0</ele><time>2026-04-28T15:36:28Z</time></trkpt><trkpt lat="28.57919412873039" lon="-10.880250674586883"><ele>205.0</ele><time>2026-04-28T15:36:29Z</time></trkpt><trkpt lat="28.578972558903377" lon="-10.880379407508205"><ele>205.0</ele><time>2026-04-28T15:36:30Z</time></trkpt><trkpt lat="28.578750232576926" lon="-10.880500157800457"><ele>205.0</ele><time>2026-04-28T15:36:31Z</time></trkpt><trkpt lat="28.57852491586058" lon="-10.88061646106751"><ele>205.0</ele><time>2026-04-28T15:36:32Z</time></trkpt><trkpt lat="28.578293496625903" lon="-10.880732919724906"><ele>205.0</ele><time>2026-04-28T15:36:33Z</time></trkpt><trkpt lat="28.578063220904113" lon="-10.880857670534445"><ele>205.0</ele><time>2026-04-28T15:36:34Z</time></trkpt><trkpt lat="28.577839907988807" lon="-10.880990408245344"><ele>202.5</ele><time>2026-04-28T15:36:35Z</time></trkpt><trkpt lat="28.57762521922624" lon="-10.881133157898935"><ele>200.0</ele><time>2026-04-28T15:36:36Z</time></trkpt><trkpt lat="28.57742319577351" lon="-10.881287882035036"><ele>200.0</ele><time>2026-04-28T15:36:37Z</time></trkpt><trkpt lat="28.577232920310028" lon="-10.881456110578494"><ele>200.0</ele><time>2026-04-28T15:36:38Z</time></trkpt><trkpt lat="28.577057415162127" lon="-10.881641626273527"><ele>205.0</ele><time>2026-04-28T15:36:39Z</time></trkpt><trkpt lat="28.57689571276669" lon="-10.881835030170958"><ele>210.0</ele><time>2026-04-28T15:36:40Z</time></trkpt><trkpt lat="28.5767487079713" lon="-10.882036653961325"><ele>210.0</ele><time>2026-04-28T15:36:41Z</time></trkpt><trkpt lat="28.576616248693487" lon="-10.882237883541702"><ele>210.0</ele><time>2026-04-28T15:36:42Z</time></trkpt><trkpt lat="28.57649395309803" lon="-10.882437945037864"><ele>210.0</ele><time>2026-04-28T15:36:43Z</time></trkpt><trkpt lat="28.57635733805258" lon="-10.882626215266715"><ele>210.0</ele><time>2026-04-28T15:36:44Z</time></trkpt><trkpt lat="28.57623956308456" lon="-10.882827091968442"><ele>210.0</ele><time>2026-04-28T15:36:45Z</time></trkpt><trkpt lat="28.57611900951599" lon="-10.883030386277829"><ele>210.0</ele><time>2026-04-28T15:36:46Z</time></trkpt><trkpt lat="28.575998619041368" lon="-10.883234734454737"><ele>210.0</ele><time>2026-04-28T15:36:47Z</time></trkpt><trkpt lat="28.575875170235797" lon="-10.883441637031261"><ele>210.0</ele><time>2026-04-28T15:36:48Z</time></trkpt><trkpt lat="28.57574610926944" lon="-10.883656420328897"><ele>210.0</ele><time>2026-04-28T15:36:49Z</time></trkpt><trkpt lat="28.575617133617033" lon="-10.883874771840318"><ele>210.0</ele><time>2026-04-28T15:36:50Z</time></trkpt><trkpt lat="28.575490133291574" lon="-10.88409321692032"><ele>210.0</ele><time>2026-04-28T15:36:51Z</time></trkpt><trkpt lat="28.57537300699445" lon="-10.884317099925221"><ele>208.0</ele><time>2026-04-28T15:36:52Z</time></trkpt><trkpt lat="28.575229658798225" lon="-10.884523629129708"><ele>206.0</ele><time>2026-04-28T15:36:53Z</time></trkpt><trkpt lat="28.575065599687477" lon="-10.884714807121457"><ele>206.0</ele><time>2026-04-28T15:36:54Z</time></trkpt><trkpt lat="28.574903249390918" lon="-10.884912327149449"><ele>206.0</ele><time>2026-04-28T15:36:55Z</time></trkpt><trkpt lat="28.574743033797976" lon="-10.885116280711888"><ele>204.0</ele><time>2026-04-28T15:36:56Z</time></trkpt><trkpt lat="28.57456412088519" lon="-10.885297402925667"><ele>202.0</ele><time>2026-04-28T15:36:57Z</time></trkpt><trkpt lat="28.57436313553194" lon="-10.885452228078663"><ele>202.0</ele><time>2026-04-28T15:36:58Z</time></trkpt><trkpt lat="28.57417552463082" lon="-10.885629510209036"><ele>202.0</ele><time>2026-04-28T15:36:59Z</time></trkpt><trkpt lat="28.57396775698818" lon="-10.885781262638968"><ele>202.0</ele><time>2026-04-28T15:37:00Z</time></trkpt><trkpt lat="28.57375529191611" lon="-10.885925002826168"><ele>202.0</ele><time>2026-04-28T15:37:01Z</time></trkpt><trkpt lat="28.573532707668623" lon="-10.886059472971755"><ele>201.5</ele><time>2026-04-28T15:37:02Z</time></trkpt><trkpt lat="28.573294150416604" lon="-10.886183385483463"><ele>201.0</ele><time>2026-04-28T15:37:03Z</time></trkpt><trkpt lat="28.573045921023315" lon="-10.886296504937006"><ele>200.0</ele><time>2026-04-28T15:37:04Z</time></trkpt><trkpt lat="28.572808605331332" lon="-10.88639358687594"><ele>199.0</ele><time>2026-04-28T15:37:05Z</time></trkpt><trkpt lat="28.572579850351957" lon="-10.886478252916502"><ele>199.0</ele><time>2026-04-28T15:37:06Z</time></trkpt><trkpt lat="28.572347615161593" lon="-10.88656090150111"><ele>199.0</ele><time>2026-04-28T15:37:07Z</time></trkpt><trkpt lat="28.572104515888768" lon="-10.886646232812755"><ele>197.5</ele><time>2026-04-28T15:37:08Z</time></trkpt><trkpt lat="28.571859641895035" lon="-10.88673568265462"><ele>196.0</ele><time>2026-04-28T15:37:09Z</time></trkpt><trkpt lat="28.571615116238434" lon="-10.88682933964126"><ele>196.0</ele><time>2026-04-28T15:37:10Z</time></trkpt><trkpt lat="28.571369858003834" lon="-10.886925228257034"><ele>196.0</ele><time>2026-04-28T15:37:11Z</time></trkpt><trkpt lat="28.571126206122077" lon="-10.88701809422267"><ele>193.0</ele><time>2026-04-28T15:37:12Z</time></trkpt><trkpt lat="28.570883460141555" lon="-10.88710595452825"><ele>190.0</ele><time>2026-04-28T15:37:13Z</time></trkpt><trkpt lat="28.5706420024159" lon="-10.887191101331378"><ele>190.0</ele><time>2026-04-28T15:37:14Z</time></trkpt><trkpt lat="28.570399561404667" lon="-10.887280390134478"><ele>190.0</ele><time>2026-04-28T15:37:15Z</time></trkpt><trkpt lat="28.570157610801093" lon="-10.887377471545088"><ele>186.5</ele><time>2026-04-28T15:37:16Z</time></trkpt><trkpt lat="28.569922775369882" lon="-10.88748417950312"><ele>183.0</ele><time>2026-04-28T15:37:17Z</time></trkpt><trkpt lat="28.56969026087177" lon="-10.887601574024128"><ele>180.0</ele><time>2026-04-28T15:37:18Z</time></trkpt><trkpt lat="28.56947270650641" lon="-10.887732341232152"><ele>177.0</ele><time>2026-04-28T15:37:19Z</time></trkpt><trkpt lat="28.56926321527958" lon="-10.887876101183846"><ele>177.0</ele><time>2026-04-28T15:37:20Z</time></trkpt><trkpt lat="28.56906223822558" lon="-10.888029581876888"><ele>177.0</ele><time>2026-04-28T15:37:21Z</time></trkpt><trkpt lat="28.568876179321137" lon="-10.888187812997929"><ele>177.0</ele><time>2026-04-28T15:37:22Z</time></trkpt><trkpt lat="28.56869814863826" lon="-10.888357499140502"><ele>177.0</ele><time>2026-04-28T15:37:23Z</time></trkpt><trkpt lat="28.568528762168288" lon="-10.888536430488612"><ele>181.5</ele><time>2026-04-28T15:37:24Z</time></trkpt><trkpt lat="28.568362449373442" lon="-10.888727363954674"><ele>186.0</ele><time>2026-04-28T15:37:25Z</time></trkpt><trkpt lat="28.568203450489882" lon="-10.888930835965882"><ele>186.0</ele><time>2026-04-28T15:37:26Z</time></trkpt><trkpt lat="28.568036744106145" lon="-10.889133917954897"><ele>186.0</ele><time>2026-04-28T15:37:27Z</time></trkpt><trkpt lat="28.567893782810348" lon="-10.889363619360667"><ele>190.0</ele><time>2026-04-28T15:37:28Z</time></trkpt><trkpt lat="28.56775646258732" lon="-10.889598726226144"><ele>194.0</ele><time>2026-04-28T15:37:29Z</time></trkpt><trkpt lat="28.567626053969054" lon="-10.88985092192507"><ele>190.0</ele><time>2026-04-28T15:37:30Z</time></trkpt><trkpt lat="28.567504446486243" lon="-10.890114905286854"><ele>186.0</ele><time>2026-04-28T15:37:31Z</time></trkpt><trkpt lat="28.567389044828566" lon="-10.89039466979183"><ele>186.0</ele><time>2026-04-28T15:37:32Z</time></trkpt><trkpt lat="28.5672881057223" lon="-10.890672455052028"><ele>186.0</ele><time>2026-04-28T15:37:33Z</time></trkpt><trkpt lat="28.567187094447448" lon="-10.890937761359831"><ele>185.5</ele><time>2026-04-28T15:37:34Z</time></trkpt><trkpt lat="28.567086810993036" lon="-10.891199168164873"><ele>185.0</ele><time>2026-04-28T15:37:35Z</time></trkpt><trkpt lat="28.566989279293043" lon="-10.891453402022131"><ele>185.0</ele><time>2026-04-28T15:37:36Z</time></trkpt><trkpt lat="28.566894059270638" lon="-10.891702287858552"><ele>185.0</ele><time>2026-04-28T15:37:37Z</time></trkpt><trkpt lat="28.56680275118183" lon="-10.891943007834241"><ele>183.0</ele><time>2026-04-28T15:37:38Z</time></trkpt><trkpt lat="28.566715549941996" lon="-10.89217275666989"><ele>181.0</ele><time>2026-04-28T15:37:39Z</time></trkpt><trkpt lat="28.566631463248534" lon="-10.892389469803819"><ele>179.0</ele><time>2026-04-28T15:37:40Z</time></trkpt><trkpt lat="28.566547468368537" lon="-10.892602547692702"><ele>179.0</ele><time>2026-04-28T15:37:41Z</time></trkpt><trkpt lat="28.566461695496685" lon="-10.892820135416649"><ele>179.0</ele><time>2026-04-28T15:37:42Z</time></trkpt><trkpt lat="28.56637276132988" lon="-10.893045554264233"><ele>179.0</ele><time>2026-04-28T15:37:43Z</time></trkpt><trkpt lat="28.566280789554355" lon="-10.893279095707806"><ele>179.0</ele><time>2026-04-28T15:37:44Z</time></trkpt><trkpt lat="28.5661825573521" lon="-10.893520308210148"><ele>179.0</ele><time>2026-04-28T15:37:45Z</time></trkpt><trkpt lat="28.56607660470225" lon="-10.893769106855588"><ele>179.0</ele><time>2026-04-28T15:37:46Z</time></trkpt><trkpt lat="28.565969845232377" lon="-10.894017138019697"><ele>179.0</ele><time>2026-04-28T15:37:47Z</time></trkpt><trkpt lat="28.56586266869332" lon="-10.894268920227937"><ele>176.5</ele><time>2026-04-28T15:37:48Z</time></trkpt><trkpt lat="28.565754378829325" lon="-10.894522493138693"><ele>174.0</ele><time>2026-04-28T15:37:49Z</time></trkpt><trkpt lat="28.56564480565682" lon="-10.894780126940077"><ele>174.0</ele><time>2026-04-28T15:37:50Z</time></trkpt><trkpt lat="28.565531359667244" lon="-10.895042315421875"><ele>174.0</ele><time>2026-04-28T15:37:51Z</time></trkpt><trkpt lat="28.565416933884332" lon="-10.895302860486265"><ele>172.0</ele><time>2026-04-28T15:37:52Z</time></trkpt><trkpt lat="28.56530068438571" lon="-10.895567558138866"><ele>170.0</ele><time>2026-04-28T15:37:53Z</time></trkpt><trkpt lat="28.56518369973889" lon="-10.895833929040355"><ele>166.5</ele><time>2026-04-28T15:37:54Z</time></trkpt><trkpt lat="28.56506679645958" lon="-10.896100114450785"><ele>163.0</ele><time>2026-04-28T15:37:55Z</time></trkpt><trkpt lat="28.564951317266466" lon="-10.896366014602412"><ele>163.0</ele><time>2026-04-28T15:37:56Z</time></trkpt><trkpt lat="28.564844304327085" lon="-10.896641142806597"><ele>163.0</ele><time>2026-04-28T15:37:57Z</time></trkpt><trkpt lat="28.564718893166106" lon="-10.896898920849033"><ele>159.5</ele><time>2026-04-28T15:37:58Z</time></trkpt><trkpt lat="28.56459826427667" lon="-10.897145859007336"><ele>156.0</ele><time>2026-04-28T15:37:59Z</time></trkpt><trkpt lat="28.564483771571144" lon="-10.897382854318561"><ele>153.5</ele><time>2026-04-28T15:38:00Z</time></trkpt><trkpt lat="28.56437461746053" lon="-10.897610678613628"><ele>151.0</ele><time>2026-04-28T15:38:01Z</time></trkpt><trkpt lat="28.564272017194444" lon="-10.897839341114732"><ele>151.0</ele><time>2026-04-28T15:38:02Z</time></trkpt><trkpt lat="28.564179260760564" lon="-10.898061778240212"><ele>151.0</ele><time>2026-04-28T15:38:03Z</time></trkpt><trkpt lat="28.56409222812242" lon="-10.898285540994182"><ele>151.0</ele><time>2026-04-28T15:38:04Z</time></trkpt><trkpt lat="28.564011038834668" lon="-10.898516789952094"><ele>148.0</ele><time>2026-04-28T15:38:05Z</time></trkpt><trkpt lat="28.563938007747197" lon="-10.898760735100023"><ele>145.0</ele><time>2026-04-28T15:38:06Z</time></trkpt><trkpt lat="28.563871624724765" lon="-10.899012631269475"><ele>141.5</ele><time>2026-04-28T15:38:07Z</time></trkpt><trkpt lat="28.56381339989669" lon="-10.899272440252279"><ele>138.0</ele><time>2026-04-28T15:38:08Z</time></trkpt><trkpt lat="28.563765684844867" lon="-10.899537351948025"><ele>138.0</ele><time>2026-04-28T15:38:09Z</time></trkpt><trkpt lat="28.563729259437867" lon="-10.899806099369282"><ele>138.0</ele><time>2026-04-28T15:38:10Z</time></trkpt><trkpt lat="28.563698157101896" lon="-10.900074187199769"><ele>135.0</ele><time>2026-04-28T15:38:11Z</time></trkpt><trkpt lat="28.563675801938242" lon="-10.900337906442765"><ele>132.0</ele><time>2026-04-28T15:38:12Z</time></trkpt><trkpt lat="28.563664107846968" lon="-10.900605575430971"><ele>132.0</ele><time>2026-04-28T15:38:13Z</time></trkpt><trkpt lat="28.563660333010727" lon="-10.900879436408877"><ele>132.0</ele><time>2026-04-28T15:38:14Z</time></trkpt><trkpt lat="28.563660708033886" lon="-10.901145516501316"><ele>130.5</ele><time>2026-04-28T15:38:15Z</time></trkpt><trkpt lat="28.56366492744668" lon="-10.901404680679274"><ele>129.0</ele><time>2026-04-28T15:38:16Z</time></trkpt><trkpt lat="28.56366903708785" lon="-10.901678666774925"><ele>126.5</ele><time>2026-04-28T15:38:17Z</time></trkpt><trkpt lat="28.56366740304797" lon="-10.90196088205465"><ele>124.0</ele><time>2026-04-28T15:38:18Z</time></trkpt><trkpt lat="28.563661838367498" lon="-10.902229060324759"><ele>124.0</ele><time>2026-04-28T15:38:19Z</time></trkpt><trkpt lat="28.563647345722117" lon="-10.902492204860744"><ele>124.0</ele><time>2026-04-28T15:38:20Z</time></trkpt><trkpt lat="28.563624712732217" lon="-10.902762389599228"><ele>122.0</ele><time>2026-04-28T15:38:21Z</time></trkpt><trkpt lat="28.563590972310454" lon="-10.903038553755804"><ele>120.0</ele><time>2026-04-28T15:38:22Z</time></trkpt><trkpt lat="28.56354352822024" lon="-10.903317858350583"><ele>116.5</ele><time>2026-04-28T15:38:23Z</time></trkpt><trkpt lat="28.56348460160133" lon="-10.903597702955386"><ele>113.0</ele><time>2026-04-28T15:38:24Z</time></trkpt><trkpt lat="28.563422584721643" lon="-10.903880926400719"><ele>113.0</ele><time>2026-04-28T15:38:25Z</time></trkpt><trkpt lat="28.56334574650698" lon="-10.904162729924444"><ele>113.0</ele><time>2026-04-28T15:38:26Z</time></trkpt><trkpt lat="28.563254321961445" lon="-10.904441216081326"><ele>108.0</ele><time>2026-04-28T15:38:27Z</time></trkpt><trkpt lat="28.563156539705183" lon="-10.904716961137524"><ele>103.0</ele><time>2026-04-28T15:38:28Z</time></trkpt><trkpt lat="28.563056172746077" lon="-10.904990425134208"><ele>99.5</ele><time>2026-04-28T15:38:29Z</time></trkpt><trkpt lat="28.562950615713735" lon="-10.905262792041778"><ele>96.0</ele><time>2026-04-28T15:38:30Z</time></trkpt><trkpt lat="28.562845260851468" lon="-10.905539530492824"><ele>94.0</ele><time>2026-04-28T15:38:31Z</time></trkpt><trkpt lat="28.56274171973816" lon="-10.9058148386575"><ele>92.0</ele><time>2026-04-28T15:38:32Z</time></trkpt><trkpt lat="28.562641088870713" lon="-10.906095298044917"><ele>90.0</ele><time>2026-04-28T15:38:33Z</time></trkpt><trkpt lat="28.562538810152486" lon="-10.906376403199573"><ele>88.0</ele><time>2026-04-28T15:38:34Z</time></trkpt><trkpt lat="28.562437326768602" lon="-10.90665008818651"><ele>85.5</ele><time>2026-04-28T15:38:35Z</time></trkpt><trkpt lat="28.562343329463687" lon="-10.906911770278226"><ele>83.0</ele><time>2026-04-28T15:38:36Z</time></trkpt><trkpt lat="28.56225566173753" lon="-10.907159659527817"><ele>83.0</ele><time>2026-04-28T15:38:37Z</time></trkpt><trkpt lat="28.562168783933526" lon="-10.907401315747205"><ele>83.0</ele><time>2026-04-28T15:38:38Z</time></trkpt><trkpt lat="28.562082503866463" lon="-10.907632123334478"><ele>82.33333333333334</ele><time>2026-04-28T15:38:39Z</time></trkpt><trkpt lat="28.561999459998567" lon="-10.90785439175242"><ele>81.66666666666667</ele><time>2026-04-28T15:38:40Z</time></trkpt><trkpt lat="28.561921563635092" lon="-10.908070989893734"><ele>81.0</ele><time>2026-04-28T15:38:41Z</time></trkpt><trkpt lat="28.561841773410148" lon="-10.908280784019409"><ele>80.0</ele><time>2026-04-28T15:38:42Z</time></trkpt><trkpt lat="28.561760508331034" lon="-10.908505988230733"><ele>79.0</ele><time>2026-04-28T15:38:43Z</time></trkpt><trkpt lat="28.56167987810945" lon="-10.908744091178773"><ele>78.0</ele><time>2026-04-28T15:38:44Z</time></trkpt><trkpt lat="28.561601920460912" lon="-10.909001578012308"><ele>74.5</ele><time>2026-04-28T15:38:45Z</time></trkpt><trkpt lat="28.561534343857943" lon="-10.909270231837157"><ele>71.0</ele><time>2026-04-28T15:38:46Z</time></trkpt><trkpt lat="28.561483228495348" lon="-10.909546900166976"><ele>71.0</ele><time>2026-04-28T15:38:47Z</time></trkpt><trkpt lat="28.56144753892156" lon="-10.909824799416889"><ele>71.0</ele><time>2026-04-28T15:38:48Z</time></trkpt><trkpt lat="28.561426811815828" lon="-10.910099385898318"><ele>72.0</ele><time>2026-04-28T15:38:49Z</time></trkpt><trkpt lat="28.561419380578915" lon="-10.910372158158514"><ele>73.0</ele><time>2026-04-28T15:38:50Z</time></trkpt><trkpt lat="28.56142553222206" lon="-10.910643081650063"><ele>74.0</ele><time>2026-04-28T15:38:51Z</time></trkpt><trkpt lat="28.561444883443347" lon="-10.910911282337883"><ele>75.0</ele><time>2026-04-28T15:38:52Z</time></trkpt><trkpt lat="28.5614760110527" lon="-10.91116974950852"><ele>75.0</ele><time>2026-04-28T15:38:53Z</time></trkpt><trkpt lat="28.561520303814635" lon="-10.911424318979655"><ele>75.0</ele><time>2026-04-28T15:38:54Z</time></trkpt><trkpt lat="28.561573109674253" lon="-10.911674929095684"><ele>75.33333333333333</ele><time>2026-04-28T15:38:55Z</time></trkpt><trkpt lat="28.561627829700807" lon="-10.911922991558686"><ele>75.66666666666666</ele><time>2026-04-28T15:38:56Z</time></trkpt><trkpt lat="28.561678927106872" lon="-10.912169898711086"><ele>76.0</ele><time>2026-04-28T15:38:57Z</time></trkpt><trkpt lat="28.56172945754338" lon="-10.91241184780464"><ele>76.0</ele><time>2026-04-28T15:38:58Z</time></trkpt><trkpt lat="28.56177820477588" lon="-10.912657168052032"><ele>76.0</ele><time>2026-04-28T15:38:59Z</time></trkpt><trkpt lat="28.56181966357427" lon="-10.91290034880782"><ele>76.0</ele><time>2026-04-28T15:39:00Z</time></trkpt><trkpt lat="28.56185411153241" lon="-10.913139863388112"><ele>76.0</ele><time>2026-04-28T15:39:01Z</time></trkpt><trkpt lat="28.561881106304124" lon="-10.913381519081753"><ele>76.0</ele><time>2026-04-28T15:39:02Z</time></trkpt><trkpt lat="28.56189372034682" lon="-10.913626148910343"><ele>76.0</ele><time>2026-04-28T15:39:03Z</time></trkpt><trkpt lat="28.56189447351254" lon="-10.913876077730963"><ele>75.5</ele><time>2026-04-28T15:39:04Z</time></trkpt><trkpt lat="28.561864344059167" lon="-10.91413052358472"><ele>75.0</ele><time>2026-04-28T15:39:05Z</time></trkpt><trkpt lat="28.561833783566335" lon="-10.914387584616398"><ele>74.0</ele><time>2026-04-28T15:39:06Z</time></trkpt><trkpt lat="28.561784805003626" lon="-10.914640944559174"><ele>73.0</ele><time>2026-04-28T15:39:07Z</time></trkpt><trkpt lat="28.561719665445146" lon="-10.914890420873155"><ele>71.5</ele><time>2026-04-28T15:39:08Z</time></trkpt><trkpt lat="28.561637655940036" lon="-10.915135130742339"><ele>70.0</ele><time>2026-04-28T15:39:09Z</time></trkpt><trkpt lat="28.56154652354962" lon="-10.915374658579314"><ele>70.0</ele><time>2026-04-28T15:39:10Z</time></trkpt><trkpt lat="28.561431383626363" lon="-10.915607586665713"><ele>70.0</ele><time>2026-04-28T15:39:11Z</time></trkpt><trkpt lat="28.56130475122519" lon="-10.915836976558369"><ele>67.5</ele><time>2026-04-28T15:39:12Z</time></trkpt><trkpt lat="28.561167101496572" lon="-10.916053230484481"><ele>65.0</ele><time>2026-04-28T15:39:13Z</time></trkpt><trkpt lat="28.561009702946535" lon="-10.916256653669471"><ele>65.0</ele><time>2026-04-28T15:39:14Z</time></trkpt><trkpt lat="28.560837622453548" lon="-10.916446300745173"><ele>65.0</ele><time>2026-04-28T15:39:15Z</time></trkpt><trkpt lat="28.560656192004107" lon="-10.916624070786037"><ele>64.5</ele><time>2026-04-28T15:39:16Z</time></trkpt><trkpt lat="28.56045978475688" lon="-10.916790385292696"><ele>64.0</ele><time>2026-04-28T15:39:17Z</time></trkpt><trkpt lat="28.56026334623275" lon="-10.916960149166211"><ele>64.0</ele><time>2026-04-28T15:39:18Z</time></trkpt><trkpt lat="28.56005533345608" lon="-10.917107906771085"><ele>64.0</ele><time>2026-04-28T15:39:19Z</time></trkpt><trkpt lat="28.559843465069143" lon="-10.917261469155413"><ele>64.0</ele><time>2026-04-28T15:39:20Z</time></trkpt><trkpt lat="28.559633452462137" lon="-10.917417643025038"><ele>64.0</ele><time>2026-04-28T15:39:21Z</time></trkpt><trkpt lat="28.559422770746764" lon="-10.917576367238436"><ele>63.0</ele><time>2026-04-28T15:39:22Z</time></trkpt><trkpt lat="28.55921107301711" lon="-10.917733239473417"><ele>62.0</ele><time>2026-04-28T15:39:23Z</time></trkpt><trkpt lat="28.55899879800151" lon="-10.917891345084973"><ele>62.0</ele><time>2026-04-28T15:39:24Z</time></trkpt><trkpt lat="28.55878847532877" lon="-10.918050000221891"><ele>62.0</ele><time>2026-04-28T15:39:25Z</time></trkpt><trkpt lat="28.558575366259248" lon="-10.918207044488968"><ele>60.5</ele><time>2026-04-28T15:39:26Z</time></trkpt><trkpt lat="28.558368656640535" lon="-10.918354453048607"><ele>59.0</ele><time>2026-04-28T15:39:27Z</time></trkpt><trkpt lat="28.558169295907625" lon="-10.91849583639888"><ele>59.0</ele><time>2026-04-28T15:39:28Z</time></trkpt><trkpt lat="28.55796875642534" lon="-10.91864184645605"><ele>59.0</ele><time>2026-04-28T15:39:29Z</time></trkpt><trkpt lat="28.557765750089434" lon="-10.918790930198595"><ele>58.5</ele><time>2026-04-28T15:39:30Z</time></trkpt><trkpt lat="28.55755916977953" lon="-10.918939489123613"><ele>58.0</ele><time>2026-04-28T15:39:31Z</time></trkpt><trkpt lat="28.557354853614257" lon="-10.919088515203217"><ele>57.5</ele><time>2026-04-28T15:39:32Z</time></trkpt><trkpt lat="28.55714836261998" lon="-10.9192370643171"><ele>57.0</ele><time>2026-04-28T15:39:33Z</time></trkpt><trkpt lat="28.55694023640455" lon="-10.919388101368146"><ele>55.5</ele><time>2026-04-28T15:39:34Z</time></trkpt><trkpt lat="28.5567316441786" lon="-10.919542984660977"><ele>54.0</ele><time>2026-04-28T15:39:35Z</time></trkpt><trkpt lat="28.55652325505521" lon="-10.919699479300007"><ele>54.0</ele><time>2026-04-28T15:39:36Z</time></trkpt><trkpt lat="28.556312167475728" lon="-10.919862481108957"><ele>54.0</ele><time>2026-04-28T15:39:37Z</time></trkpt><trkpt lat="28.55610943521302" lon="-10.920033691415975"><ele>53.5</ele><time>2026-04-28T15:39:38Z</time></trkpt><trkpt lat="28.555916130909555" lon="-10.920216327709086"><ele>53.0</ele><time>2026-04-28T15:39:39Z</time></trkpt><trkpt lat="28.555731124837664" lon="-10.920411442077267"><ele>53.0</ele><time>2026-04-28T15:39:40Z</time></trkpt><trkpt lat="28.555561530402244" lon="-10.92061683649534"><ele>53.0</ele><time>2026-04-28T15:39:41Z</time></trkpt><trkpt lat="28.555403456205887" lon="-10.920834841758326"><ele>52.0</ele><time>2026-04-28T15:39:42Z</time></trkpt><trkpt lat="28.555258935773786" lon="-10.921063123574669"><ele>51.0</ele><time>2026-04-28T15:39:43Z</time></trkpt><trkpt lat="28.555123164420326" lon="-10.921294950908129"><ele>51.0</ele><time>2026-04-28T15:39:44Z</time></trkpt><trkpt lat="28.554997450319316" lon="-10.92153021910236"><ele>51.0</ele><time>2026-04-28T15:39:45Z</time></trkpt><trkpt lat="28.55488108707116" lon="-10.921766071813828"><ele>50.5</ele><time>2026-04-28T15:39:46Z</time></trkpt><trkpt lat="28.554751749102252" lon="-10.921994415002834"><ele>50.0</ele><time>2026-04-28T15:39:47Z</time></trkpt><trkpt lat="28.55465408252186" lon="-10.922241884715957"><ele>49.5</ele><time>2026-04-28T15:39:48Z</time></trkpt><trkpt lat="28.55452434706112" lon="-10.9224735394594"><ele>49.0</ele><time>2026-04-28T15:39:49Z</time></trkpt><trkpt lat="28.554409578730418" lon="-10.922714050321707"><ele>48.5</ele><time>2026-04-28T15:39:50Z</time></trkpt><trkpt lat="28.554308635707685" lon="-10.922964280765909"><ele>48.0</ele><time>2026-04-28T15:39:51Z</time></trkpt><trkpt lat="28.554194240005643" lon="-10.923205908269995"><ele>46.5</ele><time>2026-04-28T15:39:52Z</time></trkpt><trkpt lat="28.554079871373446" lon="-10.923446135530083"><ele>45.0</ele><time>2026-04-28T15:39:53Z</time></trkpt><trkpt lat="28.55396570973345" lon="-10.923685298224754"><ele>45.0</ele><time>2026-04-28T15:39:54Z</time></trkpt><trkpt lat="28.55385310536907" lon="-10.923922694224165"><ele>45.0</ele><time>2026-04-28T15:39:55Z</time></trkpt><trkpt lat="28.553740042983293" lon="-10.924157356491172"><ele>45.5</ele><time>2026-04-28T15:39:56Z</time></trkpt><trkpt lat="28.553626949009004" lon="-10.92439140397313"><ele>46.0</ele><time>2026-04-28T15:39:57Z</time></trkpt><trkpt lat="28.55351495437543" lon="-10.924622237225682"><ele>46.0</ele><time>2026-04-28T15:39:58Z</time></trkpt><trkpt lat="28.55338674515443" lon="-10.924846817966055"><ele>46.0</ele><time>2026-04-28T15:39:59Z</time></trkpt><trkpt lat="28.553273796931894" lon="-10.925076227826608"><ele>45.5</ele><time>2026-04-28T15:40:00Z</time></trkpt><trkpt lat="28.55315839752935" lon="-10.925307917721536"><ele>45.0</ele><time>2026-04-28T15:40:01Z</time></trkpt><trkpt lat="28.55304950705594" lon="-10.925548039491986"><ele>45.0</ele><time>2026-04-28T15:40:02Z</time></trkpt><trkpt lat="28.55294022551123" lon="-10.92578589149718"><ele>45.0</ele><time>2026-04-28T15:40:03Z</time></trkpt><trkpt lat="28.552851936924565" lon="-10.926030601235157"><ele>44.5</ele><time>2026-04-28T15:40:04Z</time></trkpt><trkpt lat="28.552758315689218" lon="-10.926269154385139"><ele>44.0</ele><time>2026-04-28T15:40:05Z</time></trkpt><trkpt lat="28.55267593342176" lon="-10.926515555750164"><ele>42.5</ele><time>2026-04-28T15:40:06Z</time></trkpt><trkpt lat="28.552601148453373" lon="-10.926767728625846"><ele>41.0</ele><time>2026-04-28T15:40:07Z</time></trkpt><trkpt lat="28.55253183175118" lon="-10.927019021048995"><ele>41.0</ele><time>2026-04-28T15:40:08Z</time></trkpt><trkpt lat="28.552466252366994" lon="-10.927270374489217"><ele>41.0</ele><time>2026-04-28T15:40:09Z</time></trkpt><trkpt lat="28.552399257718974" lon="-10.92752060199063"><ele>39.5</ele><time>2026-04-28T15:40:10Z</time></trkpt><trkpt lat="28.552328084210117" lon="-10.927772436781074"><ele>38.0</ele><time>2026-04-28T15:40:11Z</time></trkpt><trkpt lat="28.55224024926743" lon="-10.928012231783182"><ele>38.0</ele><time>2026-04-28T15:40:12Z</time></trkpt><trkpt lat="28.552164870407456" lon="-10.928257167937126"><ele>38.0</ele><time>2026-04-28T15:40:13Z</time></trkpt><trkpt lat="28.55208328681732" lon="-10.928494580140065"><ele>39.0</ele><time>2026-04-28T15:40:14Z</time></trkpt><trkpt lat="28.55198756781296" lon="-10.92872008193988"><ele>40.0</ele><time>2026-04-28T15:40:15Z</time></trkpt><trkpt lat="28.551876372402702" lon="-10.92894267362936"><ele>41.0</ele><time>2026-04-28T15:40:16Z</time></trkpt><trkpt lat="28.551754576240363" lon="-10.929164680600858"><ele>39.5</ele><time>2026-04-28T15:40:17Z</time></trkpt><trkpt lat="28.55161153520355" lon="-10.92937852315406"><ele>38.0</ele><time>2026-04-28T15:40:18Z</time></trkpt><trkpt lat="28.551461435426937" lon="-10.929598712793315"><ele>38.0</ele><time>2026-04-28T15:40:19Z</time></trkpt><trkpt lat="28.55129201538264" lon="-10.92980005590434"><ele>38.0</ele><time>2026-04-28T15:40:20Z</time></trkpt><trkpt lat="28.551123877540075" lon="-10.930009519873627"><ele>35.5</ele><time>2026-04-28T15:40:21Z</time></trkpt><trkpt lat="28.550928537600456" lon="-10.930190827842083"><ele>33.0</ele><time>2026-04-28T15:40:22Z</time></trkpt><trkpt lat="28.550717071549073" lon="-10.930355583510538"><ele>33.0</ele><time>2026-04-28T15:40:23Z</time></trkpt><trkpt lat="28.55049537733347" lon="-10.930501541717422"><ele>33.0</ele><time>2026-04-28T15:40:24Z</time></trkpt><trkpt lat="28.550263614371925" lon="-10.93063505146829"><ele>30.5</ele><time>2026-04-28T15:40:25Z</time></trkpt><trkpt lat="28.55002304053384" lon="-10.930757910153652"><ele>28.0</ele><time>2026-04-28T15:40:26Z</time></trkpt><trkpt lat="28.549776829183116" lon="-10.930870722382819"><ele>29.5</ele><time>2026-04-28T15:40:27Z</time></trkpt><trkpt lat="28.549525951171926" lon="-10.930978698194396"><ele>31.0</ele><time>2026-04-28T15:40:28Z</time></trkpt><trkpt lat="28.549271642332826" lon="-10.931087403914622"><ele>31.0</ele><time>2026-04-28T15:40:29Z</time></trkpt><trkpt lat="28.549014807720837" lon="-10.931197631235785"><ele>31.0</ele><time>2026-04-28T15:40:30Z</time></trkpt><trkpt lat="28.548758949426578" lon="-10.931311919287918"><ele>30.5</ele><time>2026-04-28T15:40:31Z</time></trkpt><trkpt lat="28.548501884530992" lon="-10.931428050601331"><ele>30.0</ele><time>2026-04-28T15:40:32Z</time></trkpt><trkpt lat="28.5482427117331" lon="-10.931545729784094"><ele>30.0</ele><time>2026-04-28T15:40:33Z</time></trkpt><trkpt lat="28.54798380761699" lon="-10.931661446491441"><ele>30.0</ele><time>2026-04-28T15:40:34Z</time></trkpt><trkpt lat="28.547721810574462" lon="-10.931776638620992"><ele>29.5</ele><time>2026-04-28T15:40:35Z</time></trkpt><trkpt lat="28.547458809376035" lon="-10.931891447425045"><ele>29.0</ele><time>2026-04-28T15:40:36Z</time></trkpt><trkpt lat="28.54719502031306" lon="-10.932006199686919"><ele>32.0</ele><time>2026-04-28T15:40:37Z</time></trkpt><trkpt lat="28.5469300886046" lon="-10.932122517571447"><ele>35.0</ele><time>2026-04-28T15:40:38Z</time></trkpt><trkpt lat="28.54666623443098" lon="-10.932237580077341"><ele>35.0</ele><time>2026-04-28T15:40:39Z</time></trkpt><trkpt lat="28.546407289388807" lon="-10.932350169883511"><ele>35.0</ele><time>2026-04-28T15:40:40Z</time></trkpt><trkpt lat="28.546156496394893" lon="-10.93245781518636"><ele>34.5</ele><time>2026-04-28T15:40:41Z</time></trkpt><trkpt lat="28.545908981784997" lon="-10.932564716930337"><ele>34.0</ele><time>2026-04-28T15:40:42Z</time></trkpt><trkpt lat="28.54565987291765" lon="-10.93267300111362"><ele>34.0</ele><time>2026-04-28T15:40:43Z</time></trkpt><trkpt lat="28.545409350354387" lon="-10.93278430302728"><ele>34.0</ele><time>2026-04-28T15:40:44Z</time></trkpt><trkpt lat="28.54515688784789" lon="-10.932895852118854"><ele>33.0</ele><time>2026-04-28T15:40:45Z</time></trkpt><trkpt lat="28.544903915016985" lon="-10.93300952679028"><ele>32.0</ele><time>2026-04-28T15:40:46Z</time></trkpt><trkpt lat="28.544645441555335" lon="-10.933125098696845"><ele>33.0</ele><time>2026-04-28T15:40:47Z</time></trkpt><trkpt lat="28.544391564139108" lon="-10.93324068067561"><ele>34.0</ele><time>2026-04-28T15:40:48Z</time></trkpt><trkpt lat="28.544141313731586" lon="-10.933363339779216"><ele>33.5</ele><time>2026-04-28T15:40:49Z</time></trkpt><trkpt lat="28.543896720630315" lon="-10.933498121520902"><ele>33.0</ele><time>2026-04-28T15:40:50Z</time></trkpt><trkpt lat="28.543656953990038" lon="-10.933648130475039"><ele>35.5</ele><time>2026-04-28T15:40:51Z</time></trkpt><trkpt lat="28.54342108146531" lon="-10.933819418317473"><ele>38.0</ele><time>2026-04-28T15:40:52Z</time></trkpt><trkpt lat="28.54318923166595" lon="-10.93400932592959"><ele>38.0</ele><time>2026-04-28T15:40:53Z</time></trkpt><trkpt lat="28.542965642293908" lon="-10.93420297908446"><ele>38.0</ele><time>2026-04-28T15:40:54Z</time></trkpt><trkpt lat="28.54275070254001" lon="-10.934389835211977"><ele>36.5</ele><time>2026-04-28T15:40:55Z</time></trkpt><trkpt lat="28.54254302215462" lon="-10.934570264710747"><ele>35.0</ele><time>2026-04-28T15:40:56Z</time></trkpt><trkpt lat="28.54233497439768" lon="-10.934748077117208"><ele>35.0</ele><time>2026-04-28T15:40:57Z</time></trkpt><trkpt lat="28.54213055732349" lon="-10.934919758324964"><ele>35.0</ele><time>2026-04-28T15:40:58Z</time></trkpt><trkpt lat="28.541923309729277" lon="-10.935089161739416"><ele>31.5</ele><time>2026-04-28T15:40:59Z</time></trkpt><trkpt lat="28.541718214439147" lon="-10.935256596397501"><ele>28.0</ele><time>2026-04-28T15:41:00Z</time></trkpt><trkpt lat="28.541514614822706" lon="-10.935425260310279"><ele>28.0</ele><time>2026-04-28T15:41:01Z</time></trkpt><trkpt lat="28.541312804380066" lon="-10.935598351187313"><ele>28.0</ele><time>2026-04-28T15:41:02Z</time></trkpt><trkpt lat="28.54110708916104" lon="-10.93577288564996"><ele>27.0</ele><time>2026-04-28T15:41:03Z</time></trkpt><trkpt lat="28.540899778676856" lon="-10.935948149466768"><ele>26.0</ele><time>2026-04-28T15:41:04Z</time></trkpt><trkpt lat="28.540687902411374" lon="-10.936124096943688"><ele>26.0</ele><time>2026-04-28T15:41:05Z</time></trkpt><trkpt lat="28.540480131789117" lon="-10.936294170808749"><ele>26.0</ele><time>2026-04-28T15:41:06Z</time></trkpt><trkpt lat="28.540272755671268" lon="-10.936465098566774"><ele>24.5</ele><time>2026-04-28T15:41:07Z</time></trkpt><trkpt lat="28.54006723028241" lon="-10.936641875498085"><ele>23.0</ele><time>2026-04-28T15:41:08Z</time></trkpt><trkpt lat="28.539859999926463" lon="-10.936819621655001"><ele>22.0</ele><time>2026-04-28T15:41:09Z</time></trkpt><trkpt lat="28.53965058492061" lon="-10.936995921007142"><ele>21.0</ele><time>2026-04-28T15:41:10Z</time></trkpt><trkpt lat="28.53943635027154" lon="-10.93716615361249"><ele>20.5</ele><time>2026-04-28T15:41:11Z</time></trkpt><trkpt lat="28.5392203500825" lon="-10.937326022080548"><ele>20.0</ele><time>2026-04-28T15:41:12Z</time></trkpt><trkpt lat="28.5389951655071" lon="-10.937470901253356"><ele>21.0</ele><time>2026-04-28T15:41:13Z</time></trkpt><trkpt lat="28.538762713207344" lon="-10.937600520304278"><ele>22.0</ele><time>2026-04-28T15:41:14Z</time></trkpt><trkpt lat="28.53852028486504" lon="-10.937718663537408"><ele>22.5</ele><time>2026-04-28T15:41:15Z</time></trkpt><trkpt lat="28.538269408794203" lon="-10.937825180117695"><ele>23.0</ele><time>2026-04-28T15:41:16Z</time></trkpt><trkpt lat="28.538011534738605" lon="-10.937922085633918"><ele>24.5</ele><time>2026-04-28T15:41:17Z</time></trkpt><trkpt lat="28.537747628671674" lon="-10.938008572969178"><ele>26.0</ele><time>2026-04-28T15:41:18Z</time></trkpt><trkpt lat="28.53748298139133" lon="-10.938089127859854"><ele>26.0</ele><time>2026-04-28T15:41:19Z</time></trkpt><trkpt lat="28.537220566260668" lon="-10.93816964796578"><ele>26.0</ele><time>2026-04-28T15:41:20Z</time></trkpt><trkpt lat="28.536960312555806" lon="-10.938252343868673"><ele>27.5</ele><time>2026-04-28T15:41:21Z</time></trkpt><trkpt lat="28.53670299719831" lon="-10.93833671970858"><ele>29.0</ele><time>2026-04-28T15:41:22Z</time></trkpt><trkpt lat="28.536451077595064" lon="-10.93841908851335"><ele>30.0</ele><time>2026-04-28T15:41:23Z</time></trkpt><trkpt lat="28.536200696069688" lon="-10.938504394870026"><ele>31.0</ele><time>2026-04-28T15:41:24Z</time></trkpt><trkpt lat="28.53595409156036" lon="-10.938601167057215"><ele>31.0</ele><time>2026-04-28T15:41:25Z</time></trkpt><trkpt lat="28.535711428229195" lon="-10.938713966790164"><ele>31.0</ele><time>2026-04-28T15:41:26Z</time></trkpt><trkpt lat="28.53546943117996" lon="-10.938850711866147"><ele>32.0</ele><time>2026-04-28T15:41:27Z</time></trkpt><trkpt lat="28.535242587223095" lon="-10.939009870291079"><ele>33.0</ele><time>2026-04-28T15:41:28Z</time></trkpt><trkpt lat="28.535038593129514" lon="-10.939186321121438"><ele>33.5</ele><time>2026-04-28T15:41:29Z</time></trkpt><trkpt lat="28.534847359626575" lon="-10.939378557659078"><ele>34.0</ele><time>2026-04-28T15:41:30Z</time></trkpt><trkpt lat="28.534670240400807" lon="-10.939580922889876"><ele>37.0</ele><time>2026-04-28T15:41:31Z</time></trkpt><trkpt lat="28.53450738659726" lon="-10.939791193890322"><ele>40.0</ele><time>2026-04-28T15:41:32Z</time></trkpt><trkpt lat="28.534355387989308" lon="-10.94001430254597"><ele>40.5</ele><time>2026-04-28T15:41:33Z</time></trkpt><trkpt lat="28.534217619718024" lon="-10.940253882807704"><ele>41.0</ele><time>2026-04-28T15:41:34Z</time></trkpt><trkpt lat="28.534082188747067" lon="-10.940502991290662"><ele>41.0</ele><time>2026-04-28T15:41:35Z</time></trkpt><trkpt lat="28.533948695404924" lon="-10.94075704695143"><ele>41.0</ele><time>2026-04-28T15:41:36Z</time></trkpt><trkpt lat="28.533816157973302" lon="-10.94100874078947"><ele>34.0</ele><time>2026-04-28T15:41:37Z</time></trkpt><trkpt lat="28.533681494786833" lon="-10.941257788132525"><ele>27.0</ele><time>2026-04-28T15:41:38Z</time></trkpt><trkpt lat="28.533545067310264" lon="-10.941503309735415"><ele>25.5</ele><time>2026-04-28T15:41:39Z</time></trkpt><trkpt lat="28.533408468632913" lon="-10.941748402441132"><ele>24.0</ele><time>2026-04-28T15:41:40Z</time></trkpt><trkpt lat="28.533266493028606" lon="-10.941987745762278"><ele>24.0</ele><time>2026-04-28T15:41:41Z</time></trkpt><trkpt lat="28.533116777376136" lon="-10.942214906135368"><ele>24.0</ele><time>2026-04-28T15:41:42Z</time></trkpt><trkpt lat="28.532957334077338" lon="-10.94243618327878"><ele>19.5</ele><time>2026-04-28T15:41:43Z</time></trkpt><trkpt lat="28.532789242932903" lon="-10.942653073159425"><ele>15.0</ele><time>2026-04-28T15:41:44Z</time></trkpt><trkpt lat="28.532608086996166" lon="-10.94286038928848"><ele>15.0</ele><time>2026-04-28T15:41:45Z</time></trkpt><trkpt lat="28.532417453400114" lon="-10.943051257918913"><ele>15.0</ele><time>2026-04-28T15:41:46Z</time></trkpt><trkpt lat="28.53222030254092" lon="-10.943234004709007"><ele>15.5</ele><time>2026-04-28T15:41:47Z</time></trkpt><trkpt lat="28.532019885103516" lon="-10.943416339004859"><ele>16.0</ele><time>2026-04-28T15:41:48Z</time></trkpt><trkpt lat="28.531819158300948" lon="-10.94360041969972"><ele>16.0</ele><time>2026-04-28T15:41:49Z</time></trkpt><trkpt lat="28.53162482966238" lon="-10.943780885474455"><ele>16.0</ele><time>2026-04-28T15:41:50Z</time></trkpt><trkpt lat="28.53143822980362" lon="-10.943959325258124"><ele>16.0</ele><time>2026-04-28T15:41:51Z</time></trkpt><trkpt lat="28.531256103165163" lon="-10.94413406559805"><ele>16.0</ele><time>2026-04-28T15:41:52Z</time></trkpt><trkpt lat="28.531085682806797" lon="-10.944294841445208"><ele>15.666666666666666</ele><time>2026-04-28T15:41:53Z</time></trkpt><trkpt lat="28.53091203748066" lon="-10.944459232981307"><ele>15.333333333333332</ele><time>2026-04-28T15:41:54Z</time></trkpt><trkpt lat="28.53073939012897" lon="-10.944620015827311"><ele>15.0</ele><time>2026-04-28T15:41:55Z</time></trkpt><trkpt lat="28.5305599658047" lon="-10.944785970176644"><ele>15.5</ele><time>2026-04-28T15:41:56Z</time></trkpt><trkpt lat="28.530375882857143" lon="-10.944958471597802"><ele>16.0</ele><time>2026-04-28T15:41:57Z</time></trkpt><trkpt lat="28.53018928752463" lon="-10.945139790904404"><ele>16.0</ele><time>2026-04-28T15:41:58Z</time></trkpt><trkpt lat="28.5299904041929" lon="-10.945299404010122"><ele>16.0</ele><time>2026-04-28T15:41:59Z</time></trkpt><trkpt lat="28.529802022491516" lon="-10.945473567646971"><ele>16.0</ele><time>2026-04-28T15:42:00Z</time></trkpt><trkpt lat="28.529615609038267" lon="-10.945645804375296"><ele>16.0</ele><time>2026-04-28T15:42:01Z</time></trkpt><trkpt lat="28.529433928595484" lon="-10.945812943989536"><ele>13.5</ele><time>2026-04-28T15:42:02Z</time></trkpt><trkpt lat="28.529251790896325" lon="-10.945982509130788"><ele>11.0</ele><time>2026-04-28T15:42:03Z</time></trkpt><trkpt lat="28.52906263582024" lon="-10.946158647317143"><ele>11.0</ele><time>2026-04-28T15:42:04Z</time></trkpt><trkpt lat="28.528874079586732" lon="-10.946334227831139"><ele>11.0</ele><time>2026-04-28T15:42:05Z</time></trkpt><trkpt lat="28.52868883269566" lon="-10.94650672699394"><ele>11.0</ele><time>2026-04-28T15:42:06Z</time></trkpt><trkpt lat="28.528508422274168" lon="-10.946674720036583"><ele>11.0</ele><time>2026-04-28T15:42:07Z</time></trkpt><trkpt lat="28.528334459652626" lon="-10.94683671124827"><ele>11.0</ele><time>2026-04-28T15:42:08Z</time></trkpt><trkpt lat="28.528159214404326" lon="-10.946999896810027"><ele>11.0</ele><time>2026-04-28T15:42:09Z</time></trkpt><trkpt lat="28.527986783490068" lon="-10.947160470022643"><ele>11.0</ele><time>2026-04-28T15:42:10Z</time></trkpt><trkpt lat="28.527819888108738" lon="-10.947315891120782"><ele>12.666666666666666</ele><time>2026-04-28T15:42:11Z</time></trkpt><trkpt lat="28.527652656463957" lon="-10.947472915884735"><ele>14.333333333333332</ele><time>2026-04-28T15:42:12Z</time></trkpt><trkpt lat="28.52749942759955" lon="-10.947647628865033"><ele>16.0</ele><time>2026-04-28T15:42:13Z</time></trkpt><trkpt lat="28.527331636128462" lon="-10.947802270397325"><ele>17.333333333333332</ele><time>2026-04-28T15:42:14Z</time></trkpt><trkpt lat="28.527171032970884" lon="-10.947955092141283"><ele>18.666666666666668</ele><time>2026-04-28T15:42:15Z</time></trkpt><trkpt lat="28.52700327972312" lon="-10.948125096283682"><ele>20.0</ele><time>2026-04-28T15:42:16Z</time></trkpt><trkpt lat="28.526834142544917" lon="-10.9482934865443"><ele>27.0</ele><time>2026-04-28T15:42:17Z</time></trkpt><trkpt lat="28.526681653091714" lon="-10.948479928244865"><ele>34.0</ele><time>2026-04-28T15:42:18Z</time></trkpt><trkpt lat="28.526539846078848" lon="-10.94868098200735"><ele>34.0</ele><time>2026-04-28T15:42:19Z</time></trkpt><trkpt lat="28.526406921086984" lon="-10.948899661727319"><ele>34.0</ele><time>2026-04-28T15:42:20Z</time></trkpt><trkpt lat="28.52628998010317" lon="-10.949126235605169"><ele>31.5</ele><time>2026-04-28T15:42:21Z</time></trkpt><trkpt lat="28.526180544844884" lon="-10.949369374056433"><ele>29.0</ele><time>2026-04-28T15:42:22Z</time></trkpt><trkpt lat="28.52608402331431" lon="-10.949630683396775"><ele>29.0</ele><time>2026-04-28T15:42:23Z</time></trkpt><trkpt lat="28.52599966017717" lon="-10.949897476070499"><ele>29.0</ele><time>2026-04-28T15:42:24Z</time></trkpt><trkpt lat="28.52591897615531" lon="-10.950163723271263"><ele>35.0</ele><time>2026-04-28T15:42:25Z</time></trkpt><trkpt lat="28.5258400791775" lon="-10.950427031315556"><ele>41.0</ele><time>2026-04-28T15:42:26Z</time></trkpt><trkpt lat="28.525760393312353" lon="-10.950690422015619"><ele>45.0</ele><time>2026-04-28T15:42:27Z</time></trkpt><trkpt lat="28.525681690511988" lon="-10.950951727517799"><ele>49.0</ele><time>2026-04-28T15:42:28Z</time></trkpt><trkpt lat="28.52560391817203" lon="-10.951208613741839"><ele>49.0</ele><time>2026-04-28T15:42:29Z</time></trkpt><trkpt lat="28.525527495217997" lon="-10.95146382538948"><ele>49.0</ele><time>2026-04-28T15:42:30Z</time></trkpt><trkpt lat="28.52544997449872" lon="-10.951714548247185"><ele>51.5</ele><time>2026-04-28T15:42:31Z</time></trkpt><trkpt lat="28.525362567431824" lon="-10.951962484097574"><ele>54.0</ele><time>2026-04-28T15:42:32Z</time></trkpt><trkpt lat="28.525271378510162" lon="-10.952201342121095"><ele>54.0</ele><time>2026-04-28T15:42:33Z</time></trkpt><trkpt lat="28.525170623352665" lon="-10.952430373584928"><ele>54.0</ele><time>2026-04-28T15:42:34Z</time></trkpt><trkpt lat="28.525057596298193" lon="-10.952653192268391"><ele>54.5</ele><time>2026-04-28T15:42:35Z</time></trkpt><trkpt lat="28.524934978867226" lon="-10.95287153401503"><ele>55.0</ele><time>2026-04-28T15:42:36Z</time></trkpt><trkpt lat="28.52480280824918" lon="-10.953083629812594"><ele>55.0</ele><time>2026-04-28T15:42:37Z</time></trkpt><trkpt lat="28.52466228587541" lon="-10.95328926415807"><ele>55.0</ele><time>2026-04-28T15:42:38Z</time></trkpt><trkpt lat="28.52451279620046" lon="-10.953482344122724"><ele>55.666666666666664</ele><time>2026-04-28T15:42:39Z</time></trkpt><trkpt lat="28.52436547064702" lon="-10.953674560557168"><ele>56.33333333333333</ele><time>2026-04-28T15:42:40Z</time></trkpt><trkpt lat="28.52420021607617" lon="-10.953848984574824"><ele>57.0</ele><time>2026-04-28T15:42:41Z</time></trkpt><trkpt lat="28.524029024492744" lon="-10.954013239120703"><ele>57.0</ele><time>2026-04-28T15:42:42Z</time></trkpt><trkpt lat="28.52384716857207" lon="-10.954170759360062"><ele>57.0</ele><time>2026-04-28T15:42:43Z</time></trkpt><trkpt lat="28.523659770954897" lon="-10.954316025990197"><ele>56.33333333333333</ele><time>2026-04-28T15:42:44Z</time></trkpt><trkpt lat="28.523469787365343" lon="-10.954451398792319"><ele>55.666666666666664</ele><time>2026-04-28T15:42:45Z</time></trkpt><trkpt lat="28.523277006516402" lon="-10.95457606990603"><ele>55.0</ele><time>2026-04-28T15:42:46Z</time></trkpt><trkpt lat="28.523089642096757" lon="-10.954682852325181"><ele>55.0</ele><time>2026-04-28T15:42:47Z</time></trkpt><trkpt lat="28.52291262896736" lon="-10.954771142618124"><ele>55.0</ele><time>2026-04-28T15:42:48Z</time></trkpt><trkpt lat="28.522743884097533" lon="-10.954846378642097"><ele>55.0</ele><time>2026-04-28T15:42:49Z</time></trkpt><trkpt lat="28.522591425525015" lon="-10.954903246567966"><ele>55.0</ele><time>2026-04-28T15:42:50Z</time></trkpt><trkpt lat="28.52244953776344" lon="-10.954954200501472"><ele>55.0</ele><time>2026-04-28T15:42:51Z</time></trkpt><trkpt lat="28.52232246436977" lon="-10.954995271046204"><ele>55.0</ele><time>2026-04-28T15:42:52Z</time></trkpt><trkpt lat="28.52220482567068" lon="-10.955028465000545"><ele>55.0</ele><time>2026-04-28T15:42:53Z</time></trkpt><trkpt lat="28.522091675165473" lon="-10.955059499128303"><ele>55.0</ele><time>2026-04-28T15:42:54Z</time></trkpt><trkpt lat="28.521959178602398" lon="-10.95510384321734"><ele>55.0</ele><time>2026-04-28T15:42:55Z</time></trkpt><trkpt lat="28.521824052532978" lon="-10.95515171192569"><ele>55.0</ele><time>2026-04-28T15:42:56Z</time></trkpt><trkpt lat="28.521676486368854" lon="-10.95520480630397"><ele>55.0</ele><time>2026-04-28T15:42:57Z</time></trkpt><trkpt lat="28.521508860485845" lon="-10.95526006302419"><ele>55.0</ele><time>2026-04-28T15:42:58Z</time></trkpt><trkpt lat="28.521331442381076" lon="-10.955316003523414"><ele>55.0</ele><time>2026-04-28T15:42:59Z</time></trkpt><trkpt lat="28.5211527785468" lon="-10.955370538171728"><ele>55.0</ele><time>2026-04-28T15:43:00Z</time></trkpt><trkpt lat="28.52097767530375" lon="-10.955429899581706"><ele>55.666666666666664</ele><time>2026-04-28T15:43:01Z</time></trkpt><trkpt lat="28.520804374991783" lon="-10.955487673885791"><ele>56.33333333333333</ele><time>2026-04-28T15:43:02Z</time></trkpt><trkpt lat="28.520634844544293" lon="-10.955544527117105"><ele>57.0</ele><time>2026-04-28T15:43:03Z</time></trkpt><trkpt lat="28.520470043107306" lon="-10.955599145845023"><ele>58.0</ele><time>2026-04-28T15:43:04Z</time></trkpt><trkpt lat="28.52031495842433" lon="-10.95564645295488"><ele>59.0</ele><time>2026-04-28T15:43:05Z</time></trkpt><trkpt lat="28.52015496016929" lon="-10.955693615024789"><ele>60.0</ele><time>2026-04-28T15:43:06Z</time></trkpt><trkpt lat="28.519981999469614" lon="-10.955747729583164"><ele>60.0</ele><time>2026-04-28T15:43:07Z</time></trkpt><trkpt lat="28.519812909395412" lon="-10.955804766771077"><ele>60.0</ele><time>2026-04-28T15:43:08Z</time></trkpt><trkpt lat="28.519639739731808" lon="-10.9558629331382"><ele>60.0</ele><time>2026-04-28T15:43:09Z</time></trkpt><trkpt lat="28.519460477214153" lon="-10.95592170808088"><ele>58.66666666666667</ele><time>2026-04-28T15:43:10Z</time></trkpt><trkpt lat="28.519282580257634" lon="-10.955978520947136"><ele>57.333333333333336</ele><time>2026-04-28T15:43:11Z</time></trkpt><trkpt lat="28.519099398294497" lon="-10.956036629777852"><ele>56.0</ele><time>2026-04-28T15:43:12Z</time></trkpt><trkpt lat="28.518911557411418" lon="-10.956095636952462"><ele>56.0</ele><time>2026-04-28T15:43:13Z</time></trkpt><trkpt lat="28.51873195575104" lon="-10.95615288763147"><ele>56.0</ele><time>2026-04-28T15:43:14Z</time></trkpt><trkpt lat="28.518547623305622" lon="-10.95621325536384"><ele>56.0</ele><time>2026-04-28T15:43:15Z</time></trkpt><trkpt lat="28.518363365847534" lon="-10.956271667586677"><ele>56.0</ele><time>2026-04-28T15:43:16Z</time></trkpt><trkpt lat="28.518177531228684" lon="-10.956328775368808"><ele>56.0</ele><time>2026-04-28T15:43:17Z</time></trkpt><trkpt lat="28.517986529273312" lon="-10.956388401106281"><ele>56.0</ele><time>2026-04-28T15:43:18Z</time></trkpt><trkpt lat="28.51779049801893" lon="-10.95644878788048"><ele>56.66666666666667</ele><time>2026-04-28T15:43:19Z</time></trkpt><trkpt lat="28.51759000283943" lon="-10.956511445789799"><ele>57.33333333333333</ele><time>2026-04-28T15:43:20Z</time></trkpt><trkpt lat="28.517382079662656" lon="-10.956576186495498"><ele>58.0</ele><time>2026-04-28T15:43:21Z</time></trkpt><trkpt lat="28.517169256186914" lon="-10.956643650550523"><ele>55.0</ele><time>2026-04-28T15:43:22Z</time></trkpt><trkpt lat="28.516961013936104" lon="-10.956710684260829"><ele>52.0</ele><time>2026-04-28T15:43:23Z</time></trkpt><trkpt lat="28.516744590017066" lon="-10.956782195189739"><ele>49.0</ele><time>2026-04-28T15:43:24Z</time></trkpt><trkpt lat="28.5165155471098" lon="-10.956856199999695"><ele>49.0</ele><time>2026-04-28T15:43:25Z</time></trkpt><trkpt lat="28.516282731647937" lon="-10.956931663397013"><ele>49.0</ele><time>2026-04-28T15:43:26Z</time></trkpt><trkpt lat="28.516046858550055" lon="-10.957004600868633"><ele>50.0</ele><time>2026-04-28T15:43:27Z</time></trkpt><trkpt lat="28.515808870868096" lon="-10.957077581400714"><ele>51.0</ele><time>2026-04-28T15:43:28Z</time></trkpt><trkpt lat="28.515571700417595" lon="-10.957152020966287"><ele>51.0</ele><time>2026-04-28T15:43:29Z</time></trkpt><trkpt lat="28.515331779909506" lon="-10.957226985549656"><ele>51.0</ele><time>2026-04-28T15:43:30Z</time></trkpt><trkpt lat="28.51509326192841" lon="-10.957302150044917"><ele>51.0</ele><time>2026-04-28T15:43:31Z</time></trkpt><trkpt lat="28.514860721783652" lon="-10.957375957168928"><ele>51.0</ele><time>2026-04-28T15:43:32Z</time></trkpt><trkpt lat="28.514631498138463" lon="-10.957448972187775"><ele>50.5</ele><time>2026-04-28T15:43:33Z</time></trkpt><trkpt lat="28.514405685942087" lon="-10.957522295002772"><ele>50.0</ele><time>2026-04-28T15:43:34Z</time></trkpt><trkpt lat="28.51418304063135" lon="-10.95759058659102"><ele>48.0</ele><time>2026-04-28T15:43:35Z</time></trkpt><trkpt lat="28.513964553123365" lon="-10.957659884049143"><ele>46.0</ele><time>2026-04-28T15:43:36Z</time></trkpt><trkpt lat="28.513743787010945" lon="-10.957733160030587"><ele>44.5</ele><time>2026-04-28T15:43:37Z</time></trkpt><trkpt lat="28.51352160187429" lon="-10.95780779831285"><ele>43.0</ele><time>2026-04-28T15:43:38Z</time></trkpt><trkpt lat="28.513296303908184" lon="-10.957882035864042"><ele>43.0</ele><time>2026-04-28T15:43:39Z</time></trkpt><trkpt lat="28.513067184136332" lon="-10.957954029389162"><ele>43.0</ele><time>2026-04-28T15:43:40Z</time></trkpt><trkpt lat="28.512834589205024" lon="-10.958024734257371"><ele>41.5</ele><time>2026-04-28T15:43:41Z</time></trkpt><trkpt lat="28.5126031556843" lon="-10.958097464751074"><ele>40.0</ele><time>2026-04-28T15:43:42Z</time></trkpt><trkpt lat="28.512378121298138" lon="-10.958170657777302"><ele>40.0</ele><time>2026-04-28T15:43:43Z</time></trkpt><trkpt lat="28.512153241438426" lon="-10.95824363500193"><ele>40.0</ele><time>2026-04-28T15:43:44Z</time></trkpt><trkpt lat="28.511926763535172" lon="-10.95831391559742"><ele>41.0</ele><time>2026-04-28T15:43:45Z</time></trkpt><trkpt lat="28.511699441458855" lon="-10.958384685335627"><ele>42.0</ele><time>2026-04-28T15:43:46Z</time></trkpt><trkpt lat="28.51147560157311" lon="-10.958455257481587"><ele>42.0</ele><time>2026-04-28T15:43:47Z</time></trkpt><trkpt lat="28.511259750829524" lon="-10.95852291923542"><ele>42.0</ele><time>2026-04-28T15:43:48Z</time></trkpt><trkpt lat="28.511046381182815" lon="-10.95858935633598"><ele>42.0</ele><time>2026-04-28T15:43:49Z</time></trkpt><trkpt lat="28.510834164306317" lon="-10.958656919153718"><ele>41.666666666666664</ele><time>2026-04-28T15:43:50Z</time></trkpt><trkpt lat="28.510620872464745" lon="-10.95872819756652"><ele>41.33333333333333</ele><time>2026-04-28T15:43:51Z</time></trkpt><trkpt lat="28.510407232623766" lon="-10.958799015878222"><ele>41.0</ele><time>2026-04-28T15:43:52Z</time></trkpt><trkpt lat="28.51018831763476" lon="-10.958870051728836"><ele>41.666666666666664</ele><time>2026-04-28T15:43:53Z</time></trkpt><trkpt lat="28.50997303335872" lon="-10.958937956917028"><ele>42.333333333333336</ele><time>2026-04-28T15:43:54Z</time></trkpt><trkpt lat="28.509755080602083" lon="-10.959005796752184"><ele>43.0</ele><time>2026-04-28T15:43:55Z</time></trkpt><trkpt lat="28.509536859995933" lon="-10.959073668944415"><ele>43.66666666666667</ele><time>2026-04-28T15:43:56Z</time></trkpt><trkpt lat="28.50932489758375" lon="-10.959141069596365"><ele>44.333333333333336</ele><time>2026-04-28T15:43:57Z</time></trkpt><trkpt lat="28.509110796272704" lon="-10.959211932945076"><ele>45.0</ele><time>2026-04-28T15:43:58Z</time></trkpt><trkpt lat="28.50889315112822" lon="-10.95928258615149"><ele>45.0</ele><time>2026-04-28T15:43:59Z</time></trkpt><trkpt lat="28.50867562595801" lon="-10.959349711439703"><ele>45.0</ele><time>2026-04-28T15:44:00Z</time></trkpt><trkpt lat="28.50845866913221" lon="-10.959416887304512"><ele>45.0</ele><time>2026-04-28T15:44:01Z</time></trkpt><trkpt lat="28.508237158509075" lon="-10.959485394044007"><ele>45.0</ele><time>2026-04-28T15:44:02Z</time></trkpt><trkpt lat="28.50801578156934" lon="-10.95955331104302"><ele>45.0</ele><time>2026-04-28T15:44:03Z</time></trkpt><trkpt lat="28.507790102621122" lon="-10.95962159141765"><ele>45.0</ele><time>2026-04-28T15:44:04Z</time></trkpt><trkpt lat="28.50756471894063" lon="-10.959691111625848"><ele>45.0</ele><time>2026-04-28T15:44:05Z</time></trkpt><trkpt lat="28.507339069744564" lon="-10.959765760735168"><ele>45.0</ele><time>2026-04-28T15:44:06Z</time></trkpt><trkpt lat="28.50711277595163" lon="-10.959845800724057"><ele>47.0</ele><time>2026-04-28T15:44:07Z</time></trkpt><trkpt lat="28.5068858790008" lon="-10.959935345275728"><ele>49.0</ele><time>2026-04-28T15:44:08Z</time></trkpt><trkpt lat="28.506668459974858" lon="-10.960032243637043"><ele>48.0</ele><time>2026-04-28T15:44:09Z</time></trkpt><trkpt lat="28.506452880834676" lon="-10.960143459909585"><ele>47.0</ele><time>2026-04-28T15:44:10Z</time></trkpt><trkpt lat="28.506242416766604" lon="-10.960270658644847"><ele>46.0</ele><time>2026-04-28T15:44:11Z</time></trkpt><trkpt lat="28.506023993097465" lon="-10.960402836228724"><ele>45.0</ele><time>2026-04-28T15:44:12Z</time></trkpt><trkpt lat="28.505811225521278" lon="-10.960563341147973"><ele>45.0</ele><time>2026-04-28T15:44:13Z</time></trkpt><trkpt lat="28.505605077571225" lon="-10.960740973465256"><ele>45.0</ele><time>2026-04-28T15:44:14Z</time></trkpt><trkpt lat="28.505407112569372" lon="-10.960936536033874"><ele>43.5</ele><time>2026-04-28T15:44:15Z</time></trkpt><trkpt lat="28.5052151330304" lon="-10.961147429035005"><ele>42.0</ele><time>2026-04-28T15:44:16Z</time></trkpt><trkpt lat="28.5050366922842" lon="-10.961365479210556"><ele>42.0</ele><time>2026-04-28T15:44:17Z</time></trkpt><trkpt lat="28.504868692005058" lon="-10.961598966385885"><ele>42.0</ele><time>2026-04-28T15:44:18Z</time></trkpt><trkpt lat="28.504713597177524" lon="-10.961839629475902"><ele>41.5</ele><time>2026-04-28T15:44:19Z</time></trkpt><trkpt lat="28.50456900984468" lon="-10.962091459925457"><ele>41.0</ele><time>2026-04-28T15:44:20Z</time></trkpt><trkpt lat="28.50443310246451" lon="-10.962346288825252"><ele>41.0</ele><time>2026-04-28T15:44:21Z</time></trkpt><trkpt lat="28.504300085887316" lon="-10.962594977228601"><ele>41.0</ele><time>2026-04-28T15:44:22Z</time></trkpt><trkpt lat="28.504166923277175" lon="-10.962843938633123"><ele>41.0</ele><time>2026-04-28T15:44:23Z</time></trkpt><trkpt lat="28.504033777841503" lon="-10.963092080594537"><ele>41.0</ele><time>2026-04-28T15:44:24Z</time></trkpt><trkpt lat="28.503900824443498" lon="-10.963341848321074"><ele>40.0</ele><time>2026-04-28T15:44:25Z</time></trkpt><trkpt lat="28.503767211037204" lon="-10.963590377926165"><ele>39.0</ele><time>2026-04-28T15:44:26Z</time></trkpt><trkpt lat="28.503636590455223" lon="-10.963834937537802"><ele>37.5</ele><time>2026-04-28T15:44:27Z</time></trkpt><trkpt lat="28.50350605129306" lon="-10.964079745322502"><ele>36.0</ele><time>2026-04-28T15:44:28Z</time></trkpt><trkpt lat="28.503375572140598" lon="-10.964323086802295"><ele>35.5</ele><time>2026-04-28T15:44:29Z</time></trkpt><trkpt lat="28.503248270139338" lon="-10.964561920069197"><ele>35.0</ele><time>2026-04-28T15:44:30Z</time></trkpt><trkpt lat="28.50312004271711" lon="-10.964801659150131"><ele>34.5</ele><time>2026-04-28T15:44:31Z</time></trkpt><trkpt lat="28.50299381335562" lon="-10.965037325512492"><ele>34.0</ele><time>2026-04-28T15:44:32Z</time></trkpt><trkpt lat="28.502868755173562" lon="-10.965270994318471"><ele>33.0</ele><time>2026-04-28T15:44:33Z</time></trkpt><trkpt lat="28.502743713305566" lon="-10.965504878694443"><ele>32.0</ele><time>2026-04-28T15:44:34Z</time></trkpt><trkpt lat="28.502618666184013" lon="-10.965738773089209"><ele>32.0</ele><time>2026-04-28T15:44:35Z</time></trkpt><trkpt lat="28.502495787728304" lon="-10.965968383858243"><ele>32.0</ele><time>2026-04-28T15:44:36Z</time></trkpt><trkpt lat="28.50237103559167" lon="-10.96620119808361"><ele>32.0</ele><time>2026-04-28T15:44:37Z</time></trkpt><trkpt lat="28.502248247745836" lon="-10.966430700637785"><ele>32.0</ele><time>2026-04-28T15:44:38Z</time></trkpt><trkpt lat="28.502123602105623" lon="-10.966663085682018"><ele>32.5</ele><time>2026-04-28T15:44:39Z</time></trkpt><trkpt lat="28.501996806647053" lon="-10.966900544720135"><ele>33.0</ele><time>2026-04-28T15:44:40Z</time></trkpt><trkpt lat="28.501870738382074" lon="-10.96713713148614"><ele>33.0</ele><time>2026-04-28T15:44:41Z</time></trkpt><trkpt lat="28.501745618417434" lon="-10.967371621878703"><ele>33.0</ele><time>2026-04-28T15:44:42Z</time></trkpt><trkpt lat="28.50161912320628" lon="-10.96760779291447"><ele>31.0</ele><time>2026-04-28T15:44:43Z</time></trkpt><trkpt lat="28.50149335786968" lon="-10.967842601277376"><ele>29.0</ele><time>2026-04-28T15:44:44Z</time></trkpt><trkpt lat="28.501366485968223" lon="-10.968080264561447"><ele>29.0</ele><time>2026-04-28T15:44:45Z</time></trkpt><trkpt lat="28.50123988876193" lon="-10.968315788975614"><ele>29.0</ele><time>2026-04-28T15:44:46Z</time></trkpt><trkpt lat="28.501112913605738" lon="-10.968554941508128"><ele>29.5</ele><time>2026-04-28T15:44:47Z</time></trkpt><trkpt lat="28.50098622773997" lon="-10.968791102559495"><ele>30.0</ele><time>2026-04-28T15:44:48Z</time></trkpt><trkpt lat="28.50085908047261" lon="-10.969028910831662"><ele>31.5</ele><time>2026-04-28T15:44:49Z</time></trkpt><trkpt lat="28.500732279492063" lon="-10.969266217159023"><ele>33.0</ele><time>2026-04-28T15:44:50Z</time></trkpt><trkpt lat="28.500604052553488" lon="-10.969505589967408"><ele>33.0</ele><time>2026-04-28T15:44:51Z</time></trkpt><trkpt lat="28.500475870984907" lon="-10.96974943243929"><ele>33.0</ele><time>2026-04-28T15:44:52Z</time></trkpt><trkpt lat="28.500359839446734" lon="-10.969997115325976"><ele>31.5</ele><time>2026-04-28T15:44:53Z</time></trkpt><trkpt lat="28.500253267396012" lon="-10.970251532225284"><ele>30.0</ele><time>2026-04-28T15:44:54Z</time></trkpt><trkpt lat="28.500124467573354" lon="-10.970491317874762"><ele>30.0</ele><time>2026-04-28T15:44:55Z</time></trkpt><trkpt lat="28.49999837427518" lon="-10.970732088311017"><ele>30.0</ele><time>2026-04-28T15:44:56Z</time></trkpt><trkpt lat="28.499869646147747" lon="-10.970973084532492"><ele>30.0</ele><time>2026-04-28T15:44:57Z</time></trkpt><trkpt lat="28.499741140383094" lon="-10.971210266591372"><ele>30.0</ele><time>2026-04-28T15:44:58Z</time></trkpt><trkpt lat="28.49961248126603" lon="-10.971451766896388"><ele>30.5</ele><time>2026-04-28T15:44:59Z</time></trkpt><trkpt lat="28.499485451603775" lon="-10.971693242627747"><ele>31.0</ele><time>2026-04-28T15:45:00Z</time></trkpt><trkpt lat="28.499356352504222" lon="-10.971939095419428"><ele>31.0</ele><time>2026-04-28T15:45:01Z</time></trkpt><trkpt lat="28.499224521697116" lon="-10.97218793657585"><ele>31.0</ele><time>2026-04-28T15:45:02Z</time></trkpt><trkpt lat="28.499089757538147" lon="-10.972437368195507"><ele>31.5</ele><time>2026-04-28T15:45:03Z</time></trkpt><trkpt lat="28.498951182584346" lon="-10.97269104535384"><ele>32.0</ele><time>2026-04-28T15:45:04Z</time></trkpt><trkpt lat="28.498814167583223" lon="-10.972946056760284"><ele>32.0</ele><time>2026-04-28T15:45:05Z</time></trkpt><trkpt lat="28.498678919897895" lon="-10.973199421445305"><ele>32.0</ele><time>2026-04-28T15:45:06Z</time></trkpt><trkpt lat="28.498541161421976" lon="-10.973453552489028"><ele>30.0</ele><time>2026-04-28T15:45:07Z</time></trkpt><trkpt lat="28.498406748528335" lon="-10.97370610407975"><ele>28.0</ele><time>2026-04-28T15:45:08Z</time></trkpt><trkpt lat="28.49827379798365" lon="-10.973953292836532"><ele>29.0</ele><time>2026-04-28T15:45:09Z</time></trkpt><trkpt lat="28.498141604974577" lon="-10.97419784647379"><ele>30.0</ele><time>2026-04-28T15:45:10Z</time></trkpt><trkpt lat="28.498010467888353" lon="-10.974443477121486"><ele>31.0</ele><time>2026-04-28T15:45:11Z</time></trkpt><trkpt lat="28.497882766065647" lon="-10.974687902307974"><ele>32.0</ele><time>2026-04-28T15:45:12Z</time></trkpt><trkpt lat="28.497752658191303" lon="-10.974930247579758"><ele>30.5</ele><time>2026-04-28T15:45:13Z</time></trkpt><trkpt lat="28.497624871160212" lon="-10.975171955373014"><ele>29.0</ele><time>2026-04-28T15:45:14Z</time></trkpt><trkpt lat="28.497498210440597" lon="-10.975412023107236"><ele>29.0</ele><time>2026-04-28T15:45:15Z</time></trkpt><trkpt lat="28.49736740821624" lon="-10.975652692311547"><ele>29.0</ele><time>2026-04-28T15:45:16Z</time></trkpt><trkpt lat="28.49723323376324" lon="-10.975884495001967"><ele>29.0</ele><time>2026-04-28T15:45:17Z</time></trkpt><trkpt lat="28.49709240101668" lon="-10.97611516862391"><ele>29.0</ele><time>2026-04-28T15:45:18Z</time></trkpt><trkpt lat="28.496946299876154" lon="-10.976341175862396"><ele>30.0</ele><time>2026-04-28T15:45:19Z</time></trkpt><trkpt lat="28.496793469274017" lon="-10.97656472624669"><ele>31.0</ele><time>2026-04-28T15:45:20Z</time></trkpt><trkpt lat="28.496636315943412" lon="-10.976786402531545"><ele>31.0</ele><time>2026-04-28T15:45:21Z</time></trkpt><trkpt lat="28.496475806954674" lon="-10.977003925527551"><ele>31.0</ele><time>2026-04-28T15:45:22Z</time></trkpt><trkpt lat="28.49630741006653" lon="-10.977215643790396"><ele>31.5</ele><time>2026-04-28T15:45:23Z</time></trkpt><trkpt lat="28.4961333159583" lon="-10.977421951234698"><ele>32.0</ele><time>2026-04-28T15:45:24Z</time></trkpt><trkpt lat="28.495955196652933" lon="-10.977624659422741"><ele>32.0</ele><time>2026-04-28T15:45:25Z</time></trkpt><trkpt lat="28.495776745850215" lon="-10.977822576517871"><ele>32.0</ele><time>2026-04-28T15:45:26Z</time></trkpt><trkpt lat="28.495592871567272" lon="-10.978019032802603"><ele>32.5</ele><time>2026-04-28T15:45:27Z</time></trkpt><trkpt lat="28.495407032440635" lon="-10.978215799916441"><ele>33.0</ele><time>2026-04-28T15:45:28Z</time></trkpt><trkpt lat="28.49521816765908" lon="-10.978410829822543"><ele>33.0</ele><time>2026-04-28T15:45:29Z</time></trkpt><trkpt lat="28.49503045758327" lon="-10.978606078238533"><ele>33.0</ele><time>2026-04-28T15:45:30Z</time></trkpt><trkpt lat="28.494842445234102" lon="-10.97880350238932"><ele>33.0</ele><time>2026-04-28T15:45:31Z</time></trkpt><trkpt lat="28.494653314217356" lon="-10.97900249844057"><ele>33.0</ele><time>2026-04-28T15:45:32Z</time></trkpt><trkpt lat="28.4944650420566" lon="-10.979199512612146"><ele>33.0</ele><time>2026-04-28T15:45:33Z</time></trkpt><trkpt lat="28.49427893001699" lon="-10.979395232243949"><ele>33.0</ele><time>2026-04-28T15:45:34Z</time></trkpt><trkpt lat="28.49408851610463" lon="-10.979592873863345"><ele>33.0</ele><time>2026-04-28T15:45:35Z</time></trkpt><trkpt lat="28.493902869460307" lon="-10.97978656939363"><ele>33.0</ele><time>2026-04-28T15:45:36Z</time></trkpt><trkpt lat="28.493713684814715" lon="-10.979984348611403"><ele>31.5</ele><time>2026-04-28T15:45:37Z</time></trkpt><trkpt lat="28.49352617448353" lon="-10.980179120090925"><ele>30.0</ele><time>2026-04-28T15:45:38Z</time></trkpt><trkpt lat="28.49334048897812" lon="-10.980372909193122"><ele>30.0</ele><time>2026-04-28T15:45:39Z</time></trkpt><trkpt lat="28.493150963202073" lon="-10.980568939152413"><ele>30.0</ele><time>2026-04-28T15:45:40Z</time></trkpt><trkpt lat="28.4929620861708" lon="-10.980761119606967"><ele>30.5</ele><time>2026-04-28T15:45:41Z</time></trkpt><trkpt lat="28.49277644775809" lon="-10.980956948958841"><ele>31.0</ele><time>2026-04-28T15:45:42Z</time></trkpt><trkpt lat="28.49258865565093" lon="-10.9811559324453"><ele>31.0</ele><time>2026-04-28T15:45:43Z</time></trkpt><trkpt lat="28.492401243029413" lon="-10.981357162549049"><ele>31.0</ele><time>2026-04-28T15:45:44Z</time></trkpt><trkpt lat="28.492214424667218" lon="-10.981558532829563"><ele>29.5</ele><time>2026-04-28T15:45:45Z</time></trkpt><trkpt lat="28.4920322078747" lon="-10.981760028300396"><ele>28.0</ele><time>2026-04-28T15:45:46Z</time></trkpt><trkpt lat="28.491853986563786" lon="-10.981970348954334"><ele>28.0</ele><time>2026-04-28T15:45:47Z</time></trkpt><trkpt lat="28.49169063409424" lon="-10.982188135438424"><ele>28.0</ele><time>2026-04-28T15:45:48Z</time></trkpt><trkpt lat="28.491538094821333" lon="-10.982421894891896"><ele>27.5</ele><time>2026-04-28T15:45:49Z</time></trkpt><trkpt lat="28.491397688355807" lon="-10.982667386328357"><ele>27.0</ele><time>2026-04-28T15:45:50Z</time></trkpt><trkpt lat="28.491273116615456" lon="-10.982914073523155"><ele>27.0</ele><time>2026-04-28T15:45:51Z</time></trkpt><trkpt lat="28.491159530067343" lon="-10.983166934185153"><ele>27.0</ele><time>2026-04-28T15:45:52Z</time></trkpt><trkpt lat="28.491057877967233" lon="-10.983427280934759"><ele>26.0</ele><time>2026-04-28T15:45:53Z</time></trkpt><trkpt lat="28.490969462005143" lon="-10.98369449835845"><ele>25.0</ele><time>2026-04-28T15:45:54Z</time></trkpt><trkpt lat="28.49089742690527" lon="-10.983964676347036"><ele>26.5</ele><time>2026-04-28T15:45:55Z</time></trkpt><trkpt lat="28.490838298192497" lon="-10.984239366518295"><ele>28.0</ele><time>2026-04-28T15:45:56Z</time></trkpt><trkpt lat="28.49079530785121" lon="-10.98451782382412"><ele>28.0</ele><time>2026-04-28T15:45:57Z</time></trkpt><trkpt lat="28.4907657983322" lon="-10.984797210308534"><ele>28.0</ele><time>2026-04-28T15:45:58Z</time></trkpt><trkpt lat="28.490745700772397" lon="-10.985077334344927"><ele>28.5</ele><time>2026-04-28T15:45:59Z</time></trkpt><trkpt lat="28.49073009168883" lon="-10.985355187273882"><ele>29.0</ele><time>2026-04-28T15:46:00Z</time></trkpt><trkpt lat="28.490716924507" lon="-10.985630527136749"><ele>30.0</ele><time>2026-04-28T15:46:01Z</time></trkpt><trkpt lat="28.490704671144993" lon="-10.985900493400049"><ele>31.0</ele><time>2026-04-28T15:46:02Z</time></trkpt><trkpt lat="28.490691261102366" lon="-10.986165993765677"><ele>31.0</ele><time>2026-04-28T15:46:03Z</time></trkpt><trkpt lat="28.490676371288735" lon="-10.986430657889777"><ele>31.0</ele><time>2026-04-28T15:46:04Z</time></trkpt><trkpt lat="28.490661128124138" lon="-10.986694434608623"><ele>30.0</ele><time>2026-04-28T15:46:05Z</time></trkpt><trkpt lat="28.49064521807422" lon="-10.986959196730545"><ele>29.0</ele><time>2026-04-28T15:46:06Z</time></trkpt><trkpt lat="28.49062771474546" lon="-10.98722616467301"><ele>29.0</ele><time>2026-04-28T15:46:07Z</time></trkpt><trkpt lat="28.490610706870807" lon="-10.98749156975122"><ele>29.0</ele><time>2026-04-28T15:46:08Z</time></trkpt><trkpt lat="28.49059398394413" lon="-10.987755433190769"><ele>28.0</ele><time>2026-04-28T15:46:09Z</time></trkpt><trkpt lat="28.49057766177491" lon="-10.98802221453501"><ele>27.0</ele><time>2026-04-28T15:46:10Z</time></trkpt><trkpt lat="28.490561874141587" lon="-10.988287020336772"><ele>29.0</ele><time>2026-04-28T15:46:11Z</time></trkpt><trkpt lat="28.490544453986814" lon="-10.988555575925842"><ele>31.0</ele><time>2026-04-28T15:46:12Z</time></trkpt><trkpt lat="28.49052606809155" lon="-10.98882074265634"><ele>31.0</ele><time>2026-04-28T15:46:13Z</time></trkpt><trkpt lat="28.49050851257276" lon="-10.9890902015746"><ele>31.0</ele><time>2026-04-28T15:46:14Z</time></trkpt><trkpt lat="28.490492337992208" lon="-10.989360780749083"><ele>31.5</ele><time>2026-04-28T15:46:15Z</time></trkpt><trkpt lat="28.490476830494124" lon="-10.989630362225693"><ele>32.0</ele><time>2026-04-28T15:46:16Z</time></trkpt><trkpt lat="28.49046138046547" lon="-10.989904259064925"><ele>31.0</ele><time>2026-04-28T15:46:17Z</time></trkpt><trkpt lat="28.4904459676319" lon="-10.990172995784956"><ele>30.0</ele><time>2026-04-28T15:46:18Z</time></trkpt><trkpt lat="28.490429049796028" lon="-10.990446910236177"><ele>30.0</ele><time>2026-04-28T15:46:19Z</time></trkpt><trkpt lat="28.49041234946548" lon="-10.99071985634765"><ele>30.0</ele><time>2026-04-28T15:46:20Z</time></trkpt><trkpt lat="28.49039654894586" lon="-10.990994194976686"><ele>30.0</ele><time>2026-04-28T15:46:21Z</time></trkpt><trkpt lat="28.49037986645518" lon="-10.991269189182875"><ele>30.0</ele><time>2026-04-28T15:46:22Z</time></trkpt><trkpt lat="28.490362692883167" lon="-10.991546217151411"><ele>30.0</ele><time>2026-04-28T15:46:23Z</time></trkpt><trkpt lat="28.49034389523174" lon="-10.991822531044773"><ele>30.0</ele><time>2026-04-28T15:46:24Z</time></trkpt><trkpt lat="28.490327009930645" lon="-10.992100223180818"><ele>30.0</ele><time>2026-04-28T15:46:25Z</time></trkpt><trkpt lat="28.490311745749167" lon="-10.99237664419701"><ele>30.0</ele><time>2026-04-28T15:46:26Z</time></trkpt><trkpt lat="28.49029584245898" lon="-10.992655290076248"><ele>31.0</ele><time>2026-04-28T15:46:27Z</time></trkpt><trkpt lat="28.490279269350204" lon="-10.992932935562889"><ele>32.0</ele><time>2026-04-28T15:46:28Z</time></trkpt><trkpt lat="28.490261917249313" lon="-10.993207943624576"><ele>31.5</ele><time>2026-04-28T15:46:29Z</time></trkpt><trkpt lat="28.49024393092148" lon="-10.993481723888197"><ele>31.0</ele><time>2026-04-28T15:46:30Z</time></trkpt><trkpt lat="28.49022695730986" lon="-10.993755892890928"><ele>31.0</ele><time>2026-04-28T15:46:31Z</time></trkpt><trkpt lat="28.49021010878677" lon="-10.994033746359362"><ele>31.0</ele><time>2026-04-28T15:46:32Z</time></trkpt><trkpt lat="28.490193819442954" lon="-10.994314915136245"><ele>32.0</ele><time>2026-04-28T15:46:33Z</time></trkpt><trkpt lat="28.490178279979386" lon="-10.994593293777557"><ele>33.0</ele><time>2026-04-28T15:46:34Z</time></trkpt><trkpt lat="28.49016138495056" lon="-10.994871857391923"><ele>34.0</ele><time>2026-04-28T15:46:35Z</time></trkpt><trkpt lat="28.49014503302717" lon="-10.995144820937913"><ele>35.0</ele><time>2026-04-28T15:46:36Z</time></trkpt><trkpt lat="28.490125734878188" lon="-10.995418252480597"><ele>35.0</ele><time>2026-04-28T15:46:37Z</time></trkpt><trkpt lat="28.490108378748015" lon="-10.995687695145769"><ele>35.0</ele><time>2026-04-28T15:46:38Z</time></trkpt><trkpt lat="28.49009281510748" lon="-10.995954520503851"><ele>34.0</ele><time>2026-04-28T15:46:39Z</time></trkpt><trkpt lat="28.490080070631052" lon="-10.996216112513348"><ele>33.0</ele><time>2026-04-28T15:46:40Z</time></trkpt><trkpt lat="28.490067476886907" lon="-10.996480094354721"><ele>33.5</ele><time>2026-04-28T15:46:41Z</time></trkpt><trkpt lat="28.490054090380383" lon="-10.996741214124786"><ele>34.0</ele><time>2026-04-28T15:46:42Z</time></trkpt><trkpt lat="28.490037908009718" lon="-10.997002972114146"><ele>34.0</ele><time>2026-04-28T15:46:43Z</time></trkpt><trkpt lat="28.490019335554354" lon="-10.997260008840597"><ele>34.0</ele><time>2026-04-28T15:46:44Z</time></trkpt><trkpt lat="28.48999936206535" lon="-10.997517540279883"><ele>36.0</ele><time>2026-04-28T15:46:45Z</time></trkpt><trkpt lat="28.48998143754284" lon="-10.997773854274795"><ele>38.0</ele><time>2026-04-28T15:46:46Z</time></trkpt><trkpt lat="28.48996704872493" lon="-10.998030374524909"><ele>38.0</ele><time>2026-04-28T15:46:47Z</time></trkpt><trkpt lat="28.489952939841274" lon="-10.998288653092017"><ele>38.0</ele><time>2026-04-28T15:46:48Z</time></trkpt><trkpt lat="28.48993725413838" lon="-10.998547218854474"><ele>36.0</ele><time>2026-04-28T15:46:49Z</time></trkpt><trkpt lat="28.48990163765915" lon="-10.998805920097864"><ele>34.0</ele><time>2026-04-28T15:46:50Z</time></trkpt><trkpt lat="28.48987946408169" lon="-10.99906723254586"><ele>34.5</ele><time>2026-04-28T15:46:51Z</time></trkpt><trkpt lat="28.489858254725405" lon="-10.999328442495072"><ele>35.0</ele><time>2026-04-28T15:46:52Z</time></trkpt><trkpt lat="28.48983621864903" lon="-10.999592164851238"><ele>35.0</ele><time>2026-04-28T15:46:53Z</time></trkpt><trkpt lat="28.489816284257977" lon="-10.999858683794498"><ele>35.0</ele><time>2026-04-28T15:46:54Z</time></trkpt><trkpt lat="28.48980130259137" lon="-11.00012612518243"><ele>35.0</ele><time>2026-04-28T15:46:55Z</time></trkpt><trkpt lat="28.489785968055553" lon="-11.000393699819952"><ele>35.0</ele><time>2026-04-28T15:46:56Z</time></trkpt><trkpt lat="28.489772230753285" lon="-11.000655986851225"><ele>37.5</ele><time>2026-04-28T15:46:57Z</time></trkpt><trkpt lat="28.489757787305564" lon="-11.000919535516987"><ele>40.0</ele><time>2026-04-28T15:46:58Z</time></trkpt><trkpt lat="28.48974416290791" lon="-11.001168617037944"><ele>40.0</ele><time>2026-04-28T15:46:59Z</time></trkpt><trkpt lat="28.489730615319" lon="-11.001415339476154"><ele>40.0</ele><time>2026-04-28T15:47:00Z</time></trkpt><trkpt lat="28.489716997853616" lon="-11.001659090961784"><ele>40.0</ele><time>2026-04-28T15:47:01Z</time></trkpt><trkpt lat="28.48970390552249" lon="-11.001900469299084"><ele>40.0</ele><time>2026-04-28T15:47:02Z</time></trkpt><trkpt lat="28.489690166777592" lon="-11.002143244401262"><ele>40.0</ele><time>2026-04-28T15:47:03Z</time></trkpt><trkpt lat="28.48967717635177" lon="-11.00238599341775"><ele>40.0</ele><time>2026-04-28T15:47:04Z</time></trkpt><trkpt lat="28.489662589237714" lon="-11.002630142845488"><ele>40.66666666666667</ele><time>2026-04-28T15:47:05Z</time></trkpt><trkpt lat="28.489644324131167" lon="-11.00287848533208"><ele>41.333333333333336</ele><time>2026-04-28T15:47:06Z</time></trkpt><trkpt lat="28.489625706593653" lon="-11.003128585164449"><ele>42.0</ele><time>2026-04-28T15:47:07Z</time></trkpt><trkpt lat="28.48960645969338" lon="-11.003384728375154"><ele>41.333333333333336</ele><time>2026-04-28T15:47:08Z</time></trkpt><trkpt lat="28.489587445349827" lon="-11.003637776646112"><ele>40.66666666666667</ele><time>2026-04-28T15:47:09Z</time></trkpt><trkpt lat="28.489568464629276" lon="-11.003891720546319"><ele>40.0</ele><time>2026-04-28T15:47:10Z</time></trkpt><trkpt lat="28.489549282698995" lon="-11.004148185211188"><ele>41.5</ele><time>2026-04-28T15:47:11Z</time></trkpt><trkpt lat="28.489530359792536" lon="-11.004401829474423"><ele>43.0</ele><time>2026-04-28T15:47:12Z</time></trkpt><trkpt lat="28.489510965851537" lon="-11.004658670021817"><ele>43.0</ele><time>2026-04-28T15:47:13Z</time></trkpt><trkpt lat="28.489492009969197" lon="-11.004916064082767"><ele>43.0</ele><time>2026-04-28T15:47:14Z</time></trkpt><trkpt lat="28.489473667767893" lon="-11.005162073834931"><ele>43.0</ele><time>2026-04-28T15:47:15Z</time></trkpt><trkpt lat="28.489456360695847" lon="-11.005394200215122"><ele>44.0</ele><time>2026-04-28T15:47:16Z</time></trkpt><trkpt lat="28.489436976558633" lon="-11.005615545102314"><ele>45.0</ele><time>2026-04-28T15:47:17Z</time></trkpt><trkpt lat="28.489406652990972" lon="-11.005842204219109"><ele>46.0</ele><time>2026-04-28T15:47:18Z</time></trkpt><trkpt lat="28.489367156051816" lon="-11.006070512551851"><ele>46.333333333333336</ele><time>2026-04-28T15:47:19Z</time></trkpt><trkpt lat="28.489319876333816" lon="-11.006299275924178"><ele>46.666666666666664</ele><time>2026-04-28T15:47:20Z</time></trkpt><trkpt lat="28.489259053049675" lon="-11.006534603450708"><ele>47.0</ele><time>2026-04-28T15:47:21Z</time></trkpt><trkpt lat="28.489186685085134" lon="-11.006769407244201"><ele>45.5</ele><time>2026-04-28T15:47:22Z</time></trkpt><trkpt lat="28.489108091246127" lon="-11.00700640553228"><ele>44.0</ele><time>2026-04-28T15:47:23Z</time></trkpt><trkpt lat="28.489021135604922" lon="-11.007244939637136"><ele>44.0</ele><time>2026-04-28T15:47:24Z</time></trkpt><trkpt lat="28.488913041960362" lon="-11.007479660141035"><ele>44.0</ele><time>2026-04-28T15:47:25Z</time></trkpt><trkpt lat="28.48879007672075" lon="-11.007711037375877"><ele>44.5</ele><time>2026-04-28T15:47:26Z</time></trkpt><trkpt lat="28.488671200697844" lon="-11.007957515123179"><ele>45.0</ele><time>2026-04-28T15:47:27Z</time></trkpt><trkpt lat="28.488494000737404" lon="-11.008170482075522"><ele>45.5</ele><time>2026-04-28T15:47:28Z</time></trkpt><trkpt lat="28.4883240567864" lon="-11.008396952599409"><ele>46.0</ele><time>2026-04-28T15:47:29Z</time></trkpt><trkpt lat="28.48815074279632" lon="-11.008630600830733"><ele>46.0</ele><time>2026-04-28T15:47:30Z</time></trkpt><trkpt lat="28.48795173055847" lon="-11.008836838235885"><ele>46.0</ele><time>2026-04-28T15:47:31Z</time></trkpt><trkpt lat="28.48774339951745" lon="-11.009033836666404"><ele>44.5</ele><time>2026-04-28T15:47:32Z</time></trkpt><trkpt lat="28.487522933564513" lon="-11.009217816434074"><ele>43.0</ele><time>2026-04-28T15:47:33Z</time></trkpt><trkpt lat="28.48729389320722" lon="-11.009388269716245"><ele>44.0</ele><time>2026-04-28T15:47:34Z</time></trkpt><trkpt lat="28.48705524221338" lon="-11.009550348083105"><ele>45.0</ele><time>2026-04-28T15:47:35Z</time></trkpt><trkpt lat="28.48681399820432" lon="-11.009706857580216"><ele>45.0</ele><time>2026-04-28T15:47:36Z</time></trkpt><trkpt lat="28.4865711059707" lon="-11.00985924648566"><ele>45.0</ele><time>2026-04-28T15:47:37Z</time></trkpt><trkpt lat="28.486328298238867" lon="-11.01000931724812"><ele>45.0</ele><time>2026-04-28T15:47:38Z</time></trkpt><trkpt lat="28.486089431664443" lon="-11.010159868196146"><ele>45.0</ele><time>2026-04-28T15:47:39Z</time></trkpt><trkpt lat="28.48586002493707" lon="-11.010312343532105"><ele>45.0</ele><time>2026-04-28T15:47:40Z</time></trkpt><trkpt lat="28.48563093352341" lon="-11.010465643667953"><ele>45.0</ele><time>2026-04-28T15:47:41Z</time></trkpt><trkpt lat="28.48540307724887" lon="-11.010615109932509"><ele>44.5</ele><time>2026-04-28T15:47:42Z</time></trkpt><trkpt lat="28.485173185783704" lon="-11.010764659114479"><ele>44.0</ele><time>2026-04-28T15:47:43Z</time></trkpt><trkpt lat="28.48494869644857" lon="-11.010911311609277"><ele>44.0</ele><time>2026-04-28T15:47:44Z</time></trkpt><trkpt lat="28.484723061046548" lon="-11.01105635796076"><ele>44.0</ele><time>2026-04-28T15:47:45Z</time></trkpt><trkpt lat="28.484499309734467" lon="-11.011198935692125"><ele>46.0</ele><time>2026-04-28T15:47:46Z</time></trkpt><trkpt lat="28.48427683376962" lon="-11.01134198421562"><ele>48.0</ele><time>2026-04-28T15:47:47Z</time></trkpt><trkpt lat="28.484055935063594" lon="-11.011486462257524"><ele>48.0</ele><time>2026-04-28T15:47:48Z</time></trkpt><trkpt lat="28.48383767417105" lon="-11.011628831811436"><ele>48.0</ele><time>2026-04-28T15:47:49Z</time></trkpt><trkpt lat="28.48361869828609" lon="-11.011770288244717"><ele>48.5</ele><time>2026-04-28T15:47:50Z</time></trkpt><trkpt lat="28.483398644008044" lon="-11.011909523982071"><ele>49.0</ele><time>2026-04-28T15:47:51Z</time></trkpt><trkpt lat="28.483178059469438" lon="-11.012052292393088"><ele>49.0</ele><time>2026-04-28T15:47:52Z</time></trkpt><trkpt lat="28.48295569752672" lon="-11.012196349221743"><ele>49.0</ele><time>2026-04-28T15:47:53Z</time></trkpt><trkpt lat="28.48273895892778" lon="-11.01233883609074"><ele>49.0</ele><time>2026-04-28T15:47:54Z</time></trkpt><trkpt lat="28.48252364083406" lon="-11.01247712176491"><ele>49.0</ele><time>2026-04-28T15:47:55Z</time></trkpt><trkpt lat="28.482308461462583" lon="-11.012619068104476"><ele>50.5</ele><time>2026-04-28T15:47:56Z</time></trkpt><trkpt lat="28.482097102810208" lon="-11.012763488768616"><ele>52.0</ele><time>2026-04-28T15:47:57Z</time></trkpt><trkpt lat="28.481881695744054" lon="-11.012908626251178"><ele>52.0</ele><time>2026-04-28T15:47:58Z</time></trkpt><trkpt lat="28.481660089217463" lon="-11.013058410005177"><ele>52.0</ele><time>2026-04-28T15:47:59Z</time></trkpt><trkpt lat="28.481439250755244" lon="-11.013201034551692"><ele>53.5</ele><time>2026-04-28T15:48:00Z</time></trkpt><trkpt lat="28.481221997275313" lon="-11.013337929278983"><ele>55.0</ele><time>2026-04-28T15:48:01Z</time></trkpt><trkpt lat="28.481012583548885" lon="-11.013475837264242"><ele>55.0</ele><time>2026-04-28T15:48:02Z</time></trkpt><trkpt lat="28.48080712261576" lon="-11.01361155530723"><ele>55.0</ele><time>2026-04-28T15:48:03Z</time></trkpt><trkpt lat="28.480602706510037" lon="-11.013746167090524"><ele>55.0</ele><time>2026-04-28T15:48:04Z</time></trkpt><trkpt lat="28.480389442581732" lon="-11.013884203836502"><ele>55.0</ele><time>2026-04-28T15:48:05Z</time></trkpt><trkpt lat="28.480175340728437" lon="-11.014023192637337"><ele>55.0</ele><time>2026-04-28T15:48:06Z</time></trkpt><trkpt lat="28.479966930265018" lon="-11.014159731673443"><ele>55.0</ele><time>2026-04-28T15:48:07Z</time></trkpt><trkpt lat="28.479769124480093" lon="-11.014289196749791"><ele>54.0</ele><time>2026-04-28T15:48:08Z</time></trkpt><trkpt lat="28.47956965812736" lon="-11.014416109173215"><ele>53.0</ele><time>2026-04-28T15:48:09Z</time></trkpt><trkpt lat="28.479360890209094" lon="-11.0145495970571"><ele>53.0</ele><time>2026-04-28T15:48:10Z</time></trkpt><trkpt lat="28.479143147015552" lon="-11.014689726585729"><ele>53.0</ele><time>2026-04-28T15:48:11Z</time></trkpt><trkpt lat="28.478915972903224" lon="-11.014838900810132"><ele>52.5</ele><time>2026-04-28T15:48:12Z</time></trkpt><trkpt lat="28.478689195684826" lon="-11.014985575107195"><ele>52.0</ele><time>2026-04-28T15:48:13Z</time></trkpt><trkpt lat="28.478462922128873" lon="-11.015131956437788"><ele>53.0</ele><time>2026-04-28T15:48:14Z</time></trkpt><trkpt lat="28.47825213063695" lon="-11.01526724484349"><ele>54.0</ele><time>2026-04-28T15:48:15Z</time></trkpt><trkpt lat="28.47805149302393" lon="-11.015399252928903"><ele>55.5</ele><time>2026-04-28T15:48:16Z</time></trkpt><trkpt lat="28.477844210355386" lon="-11.015533749763005"><ele>57.0</ele><time>2026-04-28T15:48:17Z</time></trkpt><trkpt lat="28.477635391769326" lon="-11.015668775121068"><ele>57.0</ele><time>2026-04-28T15:48:18Z</time></trkpt><trkpt lat="28.477420167905258" lon="-11.015805069853815"><ele>57.0</ele><time>2026-04-28T15:48:19Z</time></trkpt><trkpt lat="28.477207281697865" lon="-11.015940682470852"><ele>55.0</ele><time>2026-04-28T15:48:20Z</time></trkpt><trkpt lat="28.476991461414464" lon="-11.016078749150926"><ele>53.0</ele><time>2026-04-28T15:48:21Z</time></trkpt><trkpt lat="28.47677270458276" lon="-11.01621870203658"><ele>53.0</ele><time>2026-04-28T15:48:22Z</time></trkpt><trkpt lat="28.476552205717685" lon="-11.016361366055332"><ele>53.0</ele><time>2026-04-28T15:48:23Z</time></trkpt><trkpt lat="28.47633245798796" lon="-11.016504971999906"><ele>53.5</ele><time>2026-04-28T15:48:24Z</time></trkpt><trkpt lat="28.476115992458773" lon="-11.01664383552339"><ele>54.0</ele><time>2026-04-28T15:48:25Z</time></trkpt><trkpt lat="28.47590011750982" lon="-11.0167796061648"><ele>55.5</ele><time>2026-04-28T15:48:26Z</time></trkpt><trkpt lat="28.475684724275606" lon="-11.01691431708162"><ele>57.0</ele><time>2026-04-28T15:48:27Z</time></trkpt><trkpt lat="28.475472018815875" lon="-11.017051098432614"><ele>57.0</ele><time>2026-04-28T15:48:28Z</time></trkpt><trkpt lat="28.47526153291613" lon="-11.01718871208623"><ele>57.0</ele><time>2026-04-28T15:48:29Z</time></trkpt><trkpt lat="28.475054444088396" lon="-11.017325666532596"><ele>57.0</ele><time>2026-04-28T15:48:30Z</time></trkpt><trkpt lat="28.474858227440695" lon="-11.017456139902867"><ele>57.0</ele><time>2026-04-28T15:48:31Z</time></trkpt><trkpt lat="28.474663215886135" lon="-11.01758319792677"><ele>59.0</ele><time>2026-04-28T15:48:32Z</time></trkpt><trkpt lat="28.47446648416842" lon="-11.017709297634994"><ele>61.0</ele><time>2026-04-28T15:48:33Z</time></trkpt><trkpt lat="28.47426760202184" lon="-11.017838924787103"><ele>61.0</ele><time>2026-04-28T15:48:34Z</time></trkpt><trkpt lat="28.474065600713722" lon="-11.01796947666986"><ele>61.0</ele><time>2026-04-28T15:48:35Z</time></trkpt><trkpt lat="28.47386059278611" lon="-11.018103505055539"><ele>60.5</ele><time>2026-04-28T15:48:36Z</time></trkpt><trkpt lat="28.47365407426809" lon="-11.01823979987473"><ele>60.0</ele><time>2026-04-28T15:48:37Z</time></trkpt><trkpt lat="28.47344685767547" lon="-11.018377494215688"><ele>61.0</ele><time>2026-04-28T15:48:38Z</time></trkpt><trkpt lat="28.473236865817473" lon="-11.018512542907475"><ele>62.0</ele><time>2026-04-28T15:48:39Z</time></trkpt><trkpt lat="28.473027546318253" lon="-11.018644632515203"><ele>62.5</ele><time>2026-04-28T15:48:40Z</time></trkpt><trkpt lat="28.4728152854572" lon="-11.018779737455263"><ele>63.0</ele><time>2026-04-28T15:48:41Z</time></trkpt><trkpt lat="28.472602177958684" lon="-11.018917365195234"><ele>63.0</ele><time>2026-04-28T15:48:42Z</time></trkpt><trkpt lat="28.472388922259142" lon="-11.019054537423377"><ele>63.0</ele><time>2026-04-28T15:48:43Z</time></trkpt><trkpt lat="28.472173522731268" lon="-11.019192341112987"><ele>64.0</ele><time>2026-04-28T15:48:44Z</time></trkpt><trkpt lat="28.471957372944143" lon="-11.019332632123993"><ele>65.0</ele><time>2026-04-28T15:48:45Z</time></trkpt><trkpt lat="28.47174046467513" lon="-11.01947441568437"><ele>65.0</ele><time>2026-04-28T15:48:46Z</time></trkpt><trkpt lat="28.471524353652224" lon="-11.019618107727506"><ele>65.0</ele><time>2026-04-28T15:48:47Z</time></trkpt><trkpt lat="28.471307811238738" lon="-11.019762436351167"><ele>65.5</ele><time>2026-04-28T15:48:48Z</time></trkpt><trkpt lat="28.4710885548711" lon="-11.019903643189542"><ele>66.0</ele><time>2026-04-28T15:48:49Z</time></trkpt><trkpt lat="28.47086445794469" lon="-11.020046887080767"><ele>66.0</ele><time>2026-04-28T15:48:50Z</time></trkpt><trkpt lat="28.470637887914574" lon="-11.020190342234768"><ele>66.0</ele><time>2026-04-28T15:48:51Z</time></trkpt><trkpt lat="28.470410981463115" lon="-11.020334102558618"><ele>67.0</ele><time>2026-04-28T15:48:52Z</time></trkpt><trkpt lat="28.470180452709222" lon="-11.020479522885966"><ele>68.0</ele><time>2026-04-28T15:48:53Z</time></trkpt><trkpt lat="28.469947700714396" lon="-11.020633052195942"><ele>68.0</ele><time>2026-04-28T15:48:54Z</time></trkpt><trkpt lat="28.46971812651359" lon="-11.020785573246803"><ele>68.0</ele><time>2026-04-28T15:48:55Z</time></trkpt><trkpt lat="28.469488443692867" lon="-11.020934136127591"><ele>70.5</ele><time>2026-04-28T15:48:56Z</time></trkpt><trkpt lat="28.469255218144184" lon="-11.02107298267045"><ele>73.0</ele><time>2026-04-28T15:48:57Z</time></trkpt><trkpt lat="28.46901661218422" lon="-11.021203992792888"><ele>73.0</ele><time>2026-04-28T15:48:58Z</time></trkpt><trkpt lat="28.46877842895827" lon="-11.021332928410636"><ele>73.0</ele><time>2026-04-28T15:48:59Z</time></trkpt><trkpt lat="28.468543569614763" lon="-11.021461601964793"><ele>72.0</ele><time>2026-04-28T15:49:00Z</time></trkpt><trkpt lat="28.468315288455045" lon="-11.021587906034577"><ele>71.0</ele><time>2026-04-28T15:49:01Z</time></trkpt><trkpt lat="28.468087797007662" lon="-11.021716648263174"><ele>71.5</ele><time>2026-04-28T15:49:02Z</time></trkpt><trkpt lat="28.467866118574495" lon="-11.021843879412877"><ele>72.0</ele><time>2026-04-28T15:49:03Z</time></trkpt><trkpt lat="28.467651369341617" lon="-11.021969386696867"><ele>72.0</ele><time>2026-04-28T15:49:04Z</time></trkpt><trkpt lat="28.46743809306747" lon="-11.02209248888708"><ele>72.0</ele><time>2026-04-28T15:49:05Z</time></trkpt><trkpt lat="28.467226335814853" lon="-11.022212236747572"><ele>71.0</ele><time>2026-04-28T15:49:06Z</time></trkpt><trkpt lat="28.467015695915634" lon="-11.022326138836695"><ele>70.0</ele><time>2026-04-28T15:49:07Z</time></trkpt><trkpt lat="28.46680742122927" lon="-11.022440991358886"><ele>72.0</ele><time>2026-04-28T15:49:08Z</time></trkpt><trkpt lat="28.46659798567598" lon="-11.022558535582105"><ele>74.0</ele><time>2026-04-28T15:49:09Z</time></trkpt><trkpt lat="28.46639116797486" lon="-11.02267876575558"><ele>74.0</ele><time>2026-04-28T15:49:10Z</time></trkpt><trkpt lat="28.46618472796172" lon="-11.022797558741386"><ele>74.0</ele><time>2026-04-28T15:49:11Z</time></trkpt><trkpt lat="28.465973603431703" lon="-11.022913183457554"><ele>74.0</ele><time>2026-04-28T15:49:12Z</time></trkpt><trkpt lat="28.465760169111984" lon="-11.023027612587928"><ele>74.0</ele><time>2026-04-28T15:49:13Z</time></trkpt><trkpt lat="28.46554485719126" lon="-11.023146810018876"><ele>74.0</ele><time>2026-04-28T15:49:14Z</time></trkpt><trkpt lat="28.46532827077667" lon="-11.023268684465757"><ele>74.0</ele><time>2026-04-28T15:49:15Z</time></trkpt><trkpt lat="28.465109097723637" lon="-11.023392787418006"><ele>74.5</ele><time>2026-04-28T15:49:16Z</time></trkpt><trkpt lat="28.464890724480135" lon="-11.023518753550219"><ele>75.0</ele><time>2026-04-28T15:49:17Z</time></trkpt><trkpt lat="28.46467488964555" lon="-11.023649555401038"><ele>74.0</ele><time>2026-04-28T15:49:18Z</time></trkpt><trkpt lat="28.46446388814378" lon="-11.023787948515494"><ele>73.0</ele><time>2026-04-28T15:49:19Z</time></trkpt><trkpt lat="28.46425759773241" lon="-11.02393745399785"><ele>73.0</ele><time>2026-04-28T15:49:20Z</time></trkpt><trkpt lat="28.46405684703338" lon="-11.024096454887507"><ele>73.0</ele><time>2026-04-28T15:49:21Z</time></trkpt><trkpt lat="28.463857992296422" lon="-11.024262052670686"><ele>75.5</ele><time>2026-04-28T15:49:22Z</time></trkpt><trkpt lat="28.46366809225905" lon="-11.02443426897038"><ele>78.0</ele><time>2026-04-28T15:49:23Z</time></trkpt><trkpt lat="28.46348535077876" lon="-11.024612309300725"><ele>78.0</ele><time>2026-04-28T15:49:24Z</time></trkpt><trkpt lat="28.463311099668907" lon="-11.024793206824716"><ele>78.0</ele><time>2026-04-28T15:49:25Z</time></trkpt><trkpt lat="28.463139076610265" lon="-11.024970171254212"><ele>77.66666666666667</ele><time>2026-04-28T15:49:26Z</time></trkpt><trkpt lat="28.46295800584516" lon="-11.025123596453035"><ele>77.33333333333334</ele><time>2026-04-28T15:49:27Z</time></trkpt><trkpt lat="28.462790758037794" lon="-11.025287927542452"><ele>77.0</ele><time>2026-04-28T15:49:28Z</time></trkpt><trkpt lat="28.462622474542854" lon="-11.025453267369311"><ele>77.0</ele><time>2026-04-28T15:49:29Z</time></trkpt><trkpt lat="28.462455139664666" lon="-11.02561772743589"><ele>77.0</ele><time>2026-04-28T15:49:30Z</time></trkpt><trkpt lat="28.46228850368509" lon="-11.025781589133102"><ele>77.0</ele><time>2026-04-28T15:49:31Z</time></trkpt><trkpt lat="28.46212412073236" lon="-11.025945365709669"><ele>77.0</ele><time>2026-04-28T15:49:32Z</time></trkpt><trkpt lat="28.461961790964278" lon="-11.026107096846223"><ele>77.0</ele><time>2026-04-28T15:49:33Z</time></trkpt><trkpt lat="28.461801396038652" lon="-11.026267008482002"><ele>77.0</ele><time>2026-04-28T15:49:34Z</time></trkpt><trkpt lat="28.46164006044944" lon="-11.026421802715308"><ele>77.0</ele><time>2026-04-28T15:49:35Z</time></trkpt><trkpt lat="28.461476576096594" lon="-11.026577852053586"><ele>77.0</ele><time>2026-04-28T15:49:36Z</time></trkpt><trkpt lat="28.461312221318238" lon="-11.026735143880346"><ele>77.0</ele><time>2026-04-28T15:49:37Z</time></trkpt><trkpt lat="28.46115352192128" lon="-11.026904690047568"><ele>79.0</ele><time>2026-04-28T15:49:38Z</time></trkpt><trkpt lat="28.460996614450274" lon="-11.02708356062231"><ele>81.0</ele><time>2026-04-28T15:49:39Z</time></trkpt><trkpt lat="28.460845009492875" lon="-11.027272861515096"><ele>83.0</ele><time>2026-04-28T15:49:40Z</time></trkpt><trkpt lat="28.46069192903139" lon="-11.027470460909628"><ele>83.5</ele><time>2026-04-28T15:49:41Z</time></trkpt><trkpt lat="28.46053990592291" lon="-11.027672277729236"><ele>84.0</ele><time>2026-04-28T15:49:42Z</time></trkpt><trkpt lat="28.460386591928298" lon="-11.027875957342763"><ele>83.0</ele><time>2026-04-28T15:49:43Z</time></trkpt><trkpt lat="28.460234802364972" lon="-11.028077681796667"><ele>82.0</ele><time>2026-04-28T15:49:44Z</time></trkpt><trkpt lat="28.46008277125986" lon="-11.028273253380322"><ele>80.5</ele><time>2026-04-28T15:49:45Z</time></trkpt><trkpt lat="28.459925880810122" lon="-11.028470239029682"><ele>79.0</ele><time>2026-04-28T15:49:46Z</time></trkpt><trkpt lat="28.459770114063783" lon="-11.028666963543058"><ele>79.0</ele><time>2026-04-28T15:49:47Z</time></trkpt><trkpt lat="28.45961505242736" lon="-11.028863115227631"><ele>79.0</ele><time>2026-04-28T15:49:48Z</time></trkpt><trkpt lat="28.459461525573655" lon="-11.029056852404006"><ele>79.0</ele><time>2026-04-28T15:49:49Z</time></trkpt><trkpt lat="28.459307774921292" lon="-11.029250647244952"><ele>79.0</ele><time>2026-04-28T15:49:50Z</time></trkpt><trkpt lat="28.459155366936496" lon="-11.029442913665326"><ele>79.0</ele><time>2026-04-28T15:49:51Z</time></trkpt><trkpt lat="28.459005586655856" lon="-11.029635188434355"><ele>79.0</ele><time>2026-04-28T15:49:52Z</time></trkpt><trkpt lat="28.458854042017823" lon="-11.029829731560332"><ele>78.0</ele><time>2026-04-28T15:49:53Z</time></trkpt><trkpt lat="28.458704935002388" lon="-11.030021120968781"><ele>77.0</ele><time>2026-04-28T15:49:54Z</time></trkpt><trkpt lat="28.458557007252356" lon="-11.030213754346283"><ele>77.0</ele><time>2026-04-28T15:49:55Z</time></trkpt><trkpt lat="28.458432060716202" lon="-11.030429695517066"><ele>77.0</ele><time>2026-04-28T15:49:56Z</time></trkpt><trkpt lat="28.45828414435043" lon="-11.03062277068786"><ele>77.33333333333334</ele><time>2026-04-28T15:49:57Z</time></trkpt><trkpt lat="28.45813572328382" lon="-11.03081424726588"><ele>77.66666666666667</ele><time>2026-04-28T15:49:58Z</time></trkpt><trkpt lat="28.457985031123663" lon="-11.03100096933807"><ele>78.0</ele><time>2026-04-28T15:49:59Z</time></trkpt><trkpt lat="28.457832700814443" lon="-11.031194860913166"><ele>78.0</ele><time>2026-04-28T15:50:00Z</time></trkpt><trkpt lat="28.45768129885616" lon="-11.031386100068055"><ele>78.0</ele><time>2026-04-28T15:50:01Z</time></trkpt><trkpt lat="28.457538924730812" lon="-11.031571455088335"><ele>78.0</ele><time>2026-04-28T15:50:02Z</time></trkpt><trkpt lat="28.457403699112625" lon="-11.031751232539781"><ele>79.0</ele><time>2026-04-28T15:50:03Z</time></trkpt><trkpt lat="28.45727037778524" lon="-11.03193364002777"><ele>80.0</ele><time>2026-04-28T15:50:04Z</time></trkpt><trkpt lat="28.457138642260368" lon="-11.032120734258873"><ele>81.0</ele><time>2026-04-28T15:50:05Z</time></trkpt><trkpt lat="28.45701021496796" lon="-11.032317734678937"><ele>79.66666666666667</ele><time>2026-04-28T15:50:06Z</time></trkpt><trkpt lat="28.45688778142524" lon="-11.032524493564217"><ele>78.33333333333334</ele><time>2026-04-28T15:50:07Z</time></trkpt><trkpt lat="28.45677444991846" lon="-11.03274141592429"><ele>77.0</ele><time>2026-04-28T15:50:08Z</time></trkpt><trkpt lat="28.456673067718572" lon="-11.032968743436015"><ele>77.0</ele><time>2026-04-28T15:50:09Z</time></trkpt><trkpt lat="28.456581392559293" lon="-11.033203229453099"><ele>77.0</ele><time>2026-04-28T15:50:10Z</time></trkpt><trkpt lat="28.45649805432548" lon="-11.033442464146201"><ele>77.0</ele><time>2026-04-28T15:50:11Z</time></trkpt><trkpt lat="28.456421550684407" lon="-11.03367977037137"><ele>77.0</ele><time>2026-04-28T15:50:12Z</time></trkpt><trkpt lat="28.456358832286064" lon="-11.03392019344211"><ele>77.0</ele><time>2026-04-28T15:50:13Z</time></trkpt><trkpt lat="28.456301870770282" lon="-11.034162247055736"><ele>74.33333333333334</ele><time>2026-04-28T15:50:14Z</time></trkpt><trkpt lat="28.456243879305454" lon="-11.034400742272577"><ele>71.66666666666667</ele><time>2026-04-28T15:50:15Z</time></trkpt><trkpt lat="28.45618426841869" lon="-11.03463147864983"><ele>69.0</ele><time>2026-04-28T15:50:16Z</time></trkpt><trkpt lat="28.4561278500915" lon="-11.034852761171683"><ele>67.66666666666667</ele><time>2026-04-28T15:50:17Z</time></trkpt><trkpt lat="28.456073909818436" lon="-11.035065571377164"><ele>66.33333333333334</ele><time>2026-04-28T15:50:18Z</time></trkpt><trkpt lat="28.45601815549785" lon="-11.035273765121584"><ele>65.0</ele><time>2026-04-28T15:50:19Z</time></trkpt><trkpt lat="28.45595794877612" lon="-11.035490656852236"><ele>65.0</ele><time>2026-04-28T15:50:20Z</time></trkpt><trkpt lat="28.455894073844572" lon="-11.03570973477098"><ele>65.0</ele><time>2026-04-28T15:50:21Z</time></trkpt><trkpt lat="28.455832233543106" lon="-11.03593215091205"><ele>65.0</ele><time>2026-04-28T15:50:22Z</time></trkpt><trkpt lat="28.45577358139872" lon="-11.036156539116192"><ele>65.0</ele><time>2026-04-28T15:50:23Z</time></trkpt><trkpt lat="28.455713752103037" lon="-11.036385985161791"><ele>65.0</ele><time>2026-04-28T15:50:24Z</time></trkpt><trkpt lat="28.45565167272626" lon="-11.036617102387183"><ele>65.0</ele><time>2026-04-28T15:50:25Z</time></trkpt><trkpt lat="28.45559215792836" lon="-11.036852303264489"><ele>64.0</ele><time>2026-04-28T15:50:26Z</time></trkpt><trkpt lat="28.455530276312402" lon="-11.037088634498708"><ele>63.0</ele><time>2026-04-28T15:50:27Z</time></trkpt><trkpt lat="28.455464563995754" lon="-11.037322660000962"><ele>62.0</ele><time>2026-04-28T15:50:28Z</time></trkpt><trkpt lat="28.455392731808" lon="-11.037558385511652"><ele>59.66666666666667</ele><time>2026-04-28T15:50:29Z</time></trkpt><trkpt lat="28.455312342661408" lon="-11.037793912954704"><ele>57.33333333333333</ele><time>2026-04-28T15:50:30Z</time></trkpt><trkpt lat="28.455225304687563" lon="-11.038026567931643"><ele>55.0</ele><time>2026-04-28T15:50:31Z</time></trkpt><trkpt lat="28.45512850948377" lon="-11.038250872046332"><ele>55.666666666666664</ele><time>2026-04-28T15:50:32Z</time></trkpt><trkpt lat="28.45501682007119" lon="-11.038469064825687"><ele>56.33333333333333</ele><time>2026-04-28T15:50:33Z</time></trkpt><trkpt lat="28.454892932265754" lon="-11.038684059032736"><ele>57.0</ele><time>2026-04-28T15:50:34Z</time></trkpt><trkpt lat="28.454757841921868" lon="-11.038892041209543"><ele>58.0</ele><time>2026-04-28T15:50:35Z</time></trkpt><trkpt lat="28.454614779172502" lon="-11.039095535774493"><ele>59.0</ele><time>2026-04-28T15:50:36Z</time></trkpt><trkpt lat="28.45446186015559" lon="-11.039294193969102"><ele>60.0</ele><time>2026-04-28T15:50:37Z</time></trkpt><trkpt lat="28.45429960606375" lon="-11.03948759494354"><ele>61.0</ele><time>2026-04-28T15:50:38Z</time></trkpt><trkpt lat="28.454129226052753" lon="-11.03967001941903"><ele>61.0</ele><time>2026-04-28T15:50:39Z</time></trkpt><trkpt lat="28.453950548499357" lon="-11.03984670575039"><ele>61.0</ele><time>2026-04-28T15:50:40Z</time></trkpt><trkpt lat="28.453756672414173" lon="-11.040015227594099"><ele>63.5</ele><time>2026-04-28T15:50:41Z</time></trkpt><trkpt lat="28.453552736040844" lon="-11.040176520987847"><ele>66.0</ele><time>2026-04-28T15:50:42Z</time></trkpt><trkpt lat="28.453338667699484" lon="-11.040330320182859"><ele>66.0</ele><time>2026-04-28T15:50:43Z</time></trkpt><trkpt lat="28.453126055009836" lon="-11.040485096813224"><ele>66.0</ele><time>2026-04-28T15:50:44Z</time></trkpt><trkpt lat="28.452908844466346" lon="-11.040640335708993"><ele>66.5</ele><time>2026-04-28T15:50:45Z</time></trkpt><trkpt lat="28.452691721447113" lon="-11.040796161051087"><ele>67.0</ele><time>2026-04-28T15:50:46Z</time></trkpt><trkpt lat="28.452470687559472" lon="-11.040952210602187"><ele>67.5</ele><time>2026-04-28T15:50:47Z</time></trkpt><trkpt lat="28.452246577208694" lon="-11.041109181424732"><ele>68.0</ele><time>2026-04-28T15:50:48Z</time></trkpt><trkpt lat="28.45202127469761" lon="-11.04126386529138"><ele>68.0</ele><time>2026-04-28T15:50:49Z</time></trkpt><trkpt lat="28.45179157144647" lon="-11.04141824679822"><ele>68.0</ele><time>2026-04-28T15:50:50Z</time></trkpt><trkpt lat="28.451563252234678" lon="-11.041572776043962"><ele>70.0</ele><time>2026-04-28T15:50:51Z</time></trkpt><trkpt lat="28.45133872720151" lon="-11.04173026962422"><ele>72.0</ele><time>2026-04-28T15:50:52Z</time></trkpt><trkpt lat="28.451116586934795" lon="-11.041888225618667"><ele>72.5</ele><time>2026-04-28T15:50:53Z</time></trkpt><trkpt lat="28.45090018190825" lon="-11.0420447967844"><ele>73.0</ele><time>2026-04-28T15:50:54Z</time></trkpt><trkpt lat="28.450683161797297" lon="-11.042202359578132"><ele>73.0</ele><time>2026-04-28T15:50:55Z</time></trkpt><trkpt lat="28.450465302333896" lon="-11.04235834567263"><ele>73.0</ele><time>2026-04-28T15:50:56Z</time></trkpt><trkpt lat="28.45024690482573" lon="-11.042510478402003"><ele>74.5</ele><time>2026-04-28T15:50:57Z</time></trkpt><trkpt lat="28.450028661910824" lon="-11.042662179561894"><ele>76.0</ele><time>2026-04-28T15:50:58Z</time></trkpt><trkpt lat="28.4498131655506" lon="-11.04281310418786"><ele>75.5</ele><time>2026-04-28T15:50:59Z</time></trkpt><trkpt lat="28.449593818433325" lon="-11.042969193201898"><ele>75.0</ele><time>2026-04-28T15:51:00Z</time></trkpt><trkpt lat="28.449378992324217" lon="-11.043124480975445"><ele>75.0</ele><time>2026-04-28T15:51:01Z</time></trkpt><trkpt lat="28.449165270452276" lon="-11.043277683258937"><ele>75.0</ele><time>2026-04-28T15:51:02Z</time></trkpt><trkpt lat="28.448944963598503" lon="-11.043406957252943"><ele>75.5</ele><time>2026-04-28T15:51:03Z</time></trkpt><trkpt lat="28.448751409873953" lon="-11.04355884394577"><ele>76.0</ele><time>2026-04-28T15:51:04Z</time></trkpt><trkpt lat="28.448557992715777" lon="-11.043688326516103"><ele>76.0</ele><time>2026-04-28T15:51:05Z</time></trkpt><trkpt lat="28.44835983595955" lon="-11.043820053576697"><ele>76.0</ele><time>2026-04-28T15:51:06Z</time></trkpt><trkpt lat="28.448153214342646" lon="-11.043956421262465"><ele>76.5</ele><time>2026-04-28T15:51:07Z</time></trkpt><trkpt lat="28.447941420939504" lon="-11.044090171078444"><ele>77.0</ele><time>2026-04-28T15:51:08Z</time></trkpt><trkpt lat="28.44772759538527" lon="-11.044218928366137"><ele>77.0</ele><time>2026-04-28T15:51:09Z</time></trkpt><trkpt lat="28.447512902154603" lon="-11.044345927775407"><ele>77.0</ele><time>2026-04-28T15:51:10Z</time></trkpt><trkpt lat="28.44730311198991" lon="-11.04447432129951"><ele>77.0</ele><time>2026-04-28T15:51:11Z</time></trkpt><trkpt lat="28.447095290563443" lon="-11.044607949387547"><ele>77.0</ele><time>2026-04-28T15:51:12Z</time></trkpt><trkpt lat="28.4468887849404" lon="-11.044742158250711"><ele>77.0</ele><time>2026-04-28T15:51:13Z</time></trkpt><trkpt lat="28.446679649217497" lon="-11.044875290520908"><ele>77.0</ele><time>2026-04-28T15:51:14Z</time></trkpt><trkpt lat="28.44647373007758" lon="-11.045004055644776"><ele>77.5</ele><time>2026-04-28T15:51:15Z</time></trkpt><trkpt lat="28.44625989055376" lon="-11.045115733777696"><ele>78.0</ele><time>2026-04-28T15:51:16Z</time></trkpt><trkpt lat="28.446051424012598" lon="-11.045245633854831"><ele>78.0</ele><time>2026-04-28T15:51:17Z</time></trkpt><trkpt lat="28.4458434114552" lon="-11.04537525099639"><ele>78.0</ele><time>2026-04-28T15:51:18Z</time></trkpt><trkpt lat="28.445630791414352" lon="-11.045508184245307"><ele>78.0</ele><time>2026-04-28T15:51:19Z</time></trkpt><trkpt lat="28.445417060534083" lon="-11.045661234279688"><ele>78.0</ele><time>2026-04-28T15:51:20Z</time></trkpt><trkpt lat="28.445192436669064" lon="-11.045797744785068"><ele>77.5</ele><time>2026-04-28T15:51:21Z</time></trkpt><trkpt lat="28.444959548444817" lon="-11.045939222211604"><ele>77.0</ele><time>2026-04-28T15:51:22Z</time></trkpt><trkpt lat="28.444712895935485" lon="-11.046089051315624"><ele>77.0</ele><time>2026-04-28T15:51:23Z</time></trkpt><trkpt lat="28.444467990685375" lon="-11.0462418659845"><ele>77.0</ele><time>2026-04-28T15:51:24Z</time></trkpt><trkpt lat="28.444231548477394" lon="-11.046391128420924"><ele>77.0</ele><time>2026-04-28T15:51:25Z</time></trkpt><trkpt lat="28.443996126371353" lon="-11.046539566780037"><ele>77.0</ele><time>2026-04-28T15:51:26Z</time></trkpt><trkpt lat="28.443763984937636" lon="-11.046684852755554"><ele>77.5</ele><time>2026-04-28T15:51:27Z</time></trkpt><trkpt lat="28.443533775764866" lon="-11.046830320881522"><ele>78.0</ele><time>2026-04-28T15:51:28Z</time></trkpt><trkpt lat="28.443303043539085" lon="-11.046974542232707"><ele>78.0</ele><time>2026-04-28T15:51:29Z</time></trkpt><trkpt lat="28.443073051026058" lon="-11.047118433277953"><ele>78.0</ele><time>2026-04-28T15:51:30Z</time></trkpt><trkpt lat="28.442852145892513" lon="-11.047266986848438"><ele>79.0</ele><time>2026-04-28T15:51:31Z</time></trkpt><trkpt lat="28.442644441612728" lon="-11.04743216788753"><ele>80.0</ele><time>2026-04-28T15:51:32Z</time></trkpt><trkpt lat="28.442450943760562" lon="-11.047614385480383"><ele>80.0</ele><time>2026-04-28T15:51:33Z</time></trkpt><trkpt lat="28.442254266512098" lon="-11.047783383670755"><ele>80.0</ele><time>2026-04-28T15:51:34Z</time></trkpt><trkpt lat="28.442067062414235" lon="-11.047973209768875"><ele>80.5</ele><time>2026-04-28T15:51:35Z</time></trkpt><trkpt lat="28.441903441494386" lon="-11.048185945894863"><ele>81.0</ele><time>2026-04-28T15:51:36Z</time></trkpt><trkpt lat="28.44173985186681" lon="-11.048404411357343"><ele>81.5</ele><time>2026-04-28T15:51:37Z</time></trkpt><trkpt lat="28.441583317307146" lon="-11.04863723641632"><ele>82.0</ele><time>2026-04-28T15:51:38Z</time></trkpt><trkpt lat="28.44144814165006" lon="-11.04889022421658"><ele>81.0</ele><time>2026-04-28T15:51:39Z</time></trkpt><trkpt lat="28.441319989442416" lon="-11.049149914696011"><ele>80.0</ele><time>2026-04-28T15:51:40Z</time></trkpt><trkpt lat="28.441206833194016" lon="-11.049418980072447"><ele>78.5</ele><time>2026-04-28T15:51:41Z</time></trkpt><trkpt lat="28.441104671287494" lon="-11.049693034819345"><ele>77.0</ele><time>2026-04-28T15:51:42Z</time></trkpt><trkpt lat="28.44101361414415" lon="-11.049957513998164"><ele>77.0</ele><time>2026-04-28T15:51:43Z</time></trkpt><trkpt lat="28.440923520451598" lon="-11.050220038311855"><ele>77.0</ele><time>2026-04-28T15:51:44Z</time></trkpt><trkpt lat="28.440833766635638" lon="-11.050480614218282"><ele>77.0</ele><time>2026-04-28T15:51:45Z</time></trkpt><trkpt lat="28.44074589242692" lon="-11.050735110064087"><ele>77.0</ele><time>2026-04-28T15:51:46Z</time></trkpt><trkpt lat="28.44065932850807" lon="-11.050980623230044"><ele>74.5</ele><time>2026-04-28T15:51:47Z</time></trkpt><trkpt lat="28.44057513433214" lon="-11.051221776051237"><ele>72.0</ele><time>2026-04-28T15:51:48Z</time></trkpt><trkpt lat="28.440490526654855" lon="-11.051464808405816"><ele>69.0</ele><time>2026-04-28T15:51:49Z</time></trkpt><trkpt lat="28.440405524785472" lon="-11.051710032175794"><ele>66.0</ele><time>2026-04-28T15:51:50Z</time></trkpt><trkpt lat="28.440321546083396" lon="-11.051951934978305"><ele>66.0</ele><time>2026-04-28T15:51:51Z</time></trkpt><trkpt lat="28.440236612551715" lon="-11.052197849254753"><ele>66.0</ele><time>2026-04-28T15:51:52Z</time></trkpt><trkpt lat="28.44014884334691" lon="-11.052440635792314"><ele>65.5</ele><time>2026-04-28T15:51:53Z</time></trkpt><trkpt lat="28.440060645168597" lon="-11.052682924288437"><ele>65.0</ele><time>2026-04-28T15:51:54Z</time></trkpt><trkpt lat="28.43997578380229" lon="-11.052926938124632"><ele>65.0</ele><time>2026-04-28T15:51:55Z</time></trkpt><trkpt lat="28.43988911071378" lon="-11.05317680011435"><ele>65.0</ele><time>2026-04-28T15:51:56Z</time></trkpt><trkpt lat="28.439863754172798" lon="-11.053454692903133"><ele>63.5</ele><time>2026-04-28T15:51:57Z</time></trkpt><trkpt lat="28.439774792720403" lon="-11.053702822546326"><ele>62.0</ele><time>2026-04-28T15:51:58Z</time></trkpt><trkpt lat="28.43968766768424" lon="-11.053951771805572"><ele>60.0</ele><time>2026-04-28T15:51:59Z</time></trkpt><trkpt lat="28.43960405347017" lon="-11.054200464170421"><ele>58.0</ele><time>2026-04-28T15:52:00Z</time></trkpt><trkpt lat="28.43952047756066" lon="-11.054452695121576"><ele>58.0</ele><time>2026-04-28T15:52:01Z</time></trkpt><trkpt lat="28.439437167636928" lon="-11.054700995302401"><ele>58.0</ele><time>2026-04-28T15:52:02Z</time></trkpt><trkpt lat="28.439358125767367" lon="-11.054936196419943"><ele>57.33333333333333</ele><time>2026-04-28T15:52:03Z</time></trkpt><trkpt lat="28.43928277071071" lon="-11.055152563533039"><ele>56.66666666666667</ele><time>2026-04-28T15:52:04Z</time></trkpt><trkpt lat="28.4392077489911" lon="-11.055357395842902"><ele>56.0</ele><time>2026-04-28T15:52:05Z</time></trkpt><trkpt lat="28.439139821202893" lon="-11.055548440720083"><ele>56.0</ele><time>2026-04-28T15:52:06Z</time></trkpt><trkpt lat="28.43907618068966" lon="-11.055734457839934"><ele>56.0</ele><time>2026-04-28T15:52:07Z</time></trkpt><trkpt lat="28.439015343644517" lon="-11.055907581991157"><ele>56.0</ele><time>2026-04-28T15:52:08Z</time></trkpt><trkpt lat="28.438953606544125" lon="-11.056087896857308"><ele>56.0</ele><time>2026-04-28T15:52:09Z</time></trkpt><trkpt lat="28.438892837036608" lon="-11.056284416971133"><ele>56.0</ele><time>2026-04-28T15:52:10Z</time></trkpt><trkpt lat="28.43882755842214" lon="-11.056499763567214"><ele>56.0</ele><time>2026-04-28T15:52:11Z</time></trkpt><trkpt lat="28.43874937680973" lon="-11.056730185037562"><ele>57.5</ele><time>2026-04-28T15:52:12Z</time></trkpt><trkpt lat="28.438663210486585" lon="-11.05697333956975"><ele>59.0</ele><time>2026-04-28T15:52:13Z</time></trkpt><trkpt lat="28.438578997324722" lon="-11.05721157967216"><ele>58.0</ele><time>2026-04-28T15:52:14Z</time></trkpt><trkpt lat="28.43849293618562" lon="-11.057454395869826"><ele>57.0</ele><time>2026-04-28T15:52:15Z</time></trkpt><trkpt lat="28.43840812430068" lon="-11.057699027599202"><ele>57.0</ele><time>2026-04-28T15:52:16Z</time></trkpt><trkpt lat="28.438324934411263" lon="-11.057942432774786"><ele>57.0</ele><time>2026-04-28T15:52:17Z</time></trkpt><trkpt lat="28.438241408414335" lon="-11.058185369755872"><ele>57.5</ele><time>2026-04-28T15:52:18Z</time></trkpt><trkpt lat="28.43815759875373" lon="-11.058430426967444"><ele>58.0</ele><time>2026-04-28T15:52:19Z</time></trkpt><trkpt lat="28.438074554361815" lon="-11.058676174147351"><ele>58.0</ele><time>2026-04-28T15:52:20Z</time></trkpt><trkpt lat="28.437990222560675" lon="-11.058921594438997"><ele>58.0</ele><time>2026-04-28T15:52:21Z</time></trkpt><trkpt lat="28.437905899375817" lon="-11.059167998385975"><ele>58.5</ele><time>2026-04-28T15:52:22Z</time></trkpt><trkpt lat="28.43782167712791" lon="-11.059416175545705"><ele>59.0</ele><time>2026-04-28T15:52:23Z</time></trkpt><trkpt lat="28.437737138893354" lon="-11.059666427792417"><ele>59.0</ele><time>2026-04-28T15:52:24Z</time></trkpt><trkpt lat="28.437650336893952" lon="-11.059917674145098"><ele>59.0</ele><time>2026-04-28T15:52:25Z</time></trkpt><trkpt lat="28.437561080319757" lon="-11.060172842029605"><ele>58.0</ele><time>2026-04-28T15:52:26Z</time></trkpt><trkpt lat="28.437472958244726" lon="-11.060434370046426"><ele>57.0</ele><time>2026-04-28T15:52:27Z</time></trkpt><trkpt lat="28.437387066498562" lon="-11.060697934947083"><ele>58.0</ele><time>2026-04-28T15:52:28Z</time></trkpt><trkpt lat="28.437301514172496" lon="-11.060966713379202"><ele>59.0</ele><time>2026-04-28T15:52:29Z</time></trkpt><trkpt lat="28.437224532681952" lon="-11.061241191281528"><ele>59.0</ele><time>2026-04-28T15:52:30Z</time></trkpt><trkpt lat="28.437151507757136" lon="-11.061518414054744"><ele>59.0</ele><time>2026-04-28T15:52:31Z</time></trkpt><trkpt lat="28.437083892018986" lon="-11.061794225234832"><ele>58.5</ele><time>2026-04-28T15:52:32Z</time></trkpt><trkpt lat="28.437021981865563" lon="-11.062073789001893"><ele>58.0</ele><time>2026-04-28T15:52:33Z</time></trkpt><trkpt lat="28.436969126044282" lon="-11.062353060936815"><ele>56.0</ele><time>2026-04-28T15:52:34Z</time></trkpt><trkpt lat="28.4369205222839" lon="-11.062629342385003"><ele>54.0</ele><time>2026-04-28T15:52:35Z</time></trkpt><trkpt lat="28.43687225649077" lon="-11.062894517507237"><ele>54.0</ele><time>2026-04-28T15:52:36Z</time></trkpt><trkpt lat="28.436825940279462" lon="-11.063141077167003"><ele>54.0</ele><time>2026-04-28T15:52:37Z</time></trkpt><trkpt lat="28.43678001011661" lon="-11.06338942494742"><ele>54.0</ele><time>2026-04-28T15:52:38Z</time></trkpt><trkpt lat="28.43673494940937" lon="-11.063633844891822"><ele>54.33333333333333</ele><time>2026-04-28T15:52:39Z</time></trkpt><trkpt lat="28.436692103143116" lon="-11.063872720496441"><ele>54.666666666666664</ele><time>2026-04-28T15:52:40Z</time></trkpt><trkpt lat="28.436651705814274" lon="-11.06410265516673"><ele>55.0</ele><time>2026-04-28T15:52:41Z</time></trkpt><trkpt lat="28.43661045482073" lon="-11.064326876787664"><ele>55.0</ele><time>2026-04-28T15:52:42Z</time></trkpt><trkpt lat="28.436570489068647" lon="-11.064540478590159"><ele>55.0</ele><time>2026-04-28T15:52:43Z</time></trkpt><trkpt lat="28.43653035490536" lon="-11.064752607685183"><ele>55.0</ele><time>2026-04-28T15:52:44Z</time></trkpt><trkpt lat="28.436490611039552" lon="-11.0649620683446"><ele>54.0</ele><time>2026-04-28T15:52:45Z</time></trkpt><trkpt lat="28.436448654940712" lon="-11.065170049569039"><ele>53.0</ele><time>2026-04-28T15:52:46Z</time></trkpt><trkpt lat="28.4364016076365" lon="-11.065384528548604"><ele>52.0</ele><time>2026-04-28T15:52:47Z</time></trkpt><trkpt lat="28.436355329838374" lon="-11.065603598886952"><ele>51.666666666666664</ele><time>2026-04-28T15:52:48Z</time></trkpt><trkpt lat="28.436307172801936" lon="-11.06582905444532"><ele>51.33333333333333</ele><time>2026-04-28T15:52:49Z</time></trkpt><trkpt lat="28.436259314126673" lon="-11.066059849973714"><ele>51.0</ele><time>2026-04-28T15:52:50Z</time></trkpt><trkpt lat="28.436212216696244" lon="-11.066290499378516"><ele>51.0</ele><time>2026-04-28T15:52:51Z</time></trkpt><trkpt lat="28.436168495614094" lon="-11.066518794635606"><ele>51.0</ele><time>2026-04-28T15:52:52Z</time></trkpt><trkpt lat="28.43612690507242" lon="-11.06674896876794"><ele>51.0</ele><time>2026-04-28T15:52:53Z</time></trkpt><trkpt lat="28.43608303161189" lon="-11.066981712274089"><ele>51.0</ele><time>2026-04-28T15:52:54Z</time></trkpt><trkpt lat="28.43603705311418" lon="-11.067206387745735"><ele>51.0</ele><time>2026-04-28T15:52:55Z</time></trkpt><trkpt lat="28.435999378998723" lon="-11.067411481268389"><ele>51.0</ele><time>2026-04-28T15:52:56Z</time></trkpt><trkpt lat="28.435965007811042" lon="-11.06758807627616"><ele>51.0</ele><time>2026-04-28T15:52:57Z</time></trkpt><trkpt lat="28.43593448795897" lon="-11.067749279310068"><ele>51.0</ele><time>2026-04-28T15:52:58Z</time></trkpt><trkpt lat="28.435906867521652" lon="-11.06790067045659"><ele>51.0</ele><time>2026-04-28T15:52:59Z</time></trkpt><trkpt lat="28.435883814096055" lon="-11.068045423600973"><ele>51.0</ele><time>2026-04-28T15:53:00Z</time></trkpt><trkpt lat="28.435862986880416" lon="-11.068198845708803"><ele>50.25</ele><time>2026-04-28T15:53:01Z</time></trkpt><trkpt lat="28.435841964621513" lon="-11.068357846167412"><ele>49.5</ele><time>2026-04-28T15:53:02Z</time></trkpt><trkpt lat="28.43582027706366" lon="-11.068522485358995"><ele>48.75</ele><time>2026-04-28T15:53:03Z</time></trkpt><trkpt lat="28.435799699811867" lon="-11.06869421880852"><ele>48.0</ele><time>2026-04-28T15:53:04Z</time></trkpt><trkpt lat="28.435779678055706" lon="-11.068851927003594"><ele>48.0</ele><time>2026-04-28T15:53:05Z</time></trkpt><trkpt lat="28.43575826784073" lon="-11.069002700906278"><ele>48.0</ele><time>2026-04-28T15:53:06Z</time></trkpt><trkpt lat="28.435736733949856" lon="-11.069139336179484"><ele>48.0</ele><time>2026-04-28T15:53:07Z</time></trkpt><trkpt lat="28.435718343902327" lon="-11.069267845998708"><ele>48.0</ele><time>2026-04-28T15:53:08Z</time></trkpt><trkpt lat="28.435700491938885" lon="-11.069389716229864"><ele>47.833333333333336</ele><time>2026-04-28T15:53:09Z</time></trkpt><trkpt lat="28.435683612007224" lon="-11.069496582155054"><ele>47.666666666666664</ele><time>2026-04-28T15:53:10Z</time></trkpt><trkpt lat="28.435669976551207" lon="-11.06959654200218"><ele>47.5</ele><time>2026-04-28T15:53:11Z</time></trkpt><trkpt lat="28.435665174067324" lon="-11.069685709062735"><ele>47.33333333333333</ele><time>2026-04-28T15:53:12Z</time></trkpt><trkpt lat="28.43566991262649" lon="-11.069764766665632"><ele>47.166666666666664</ele><time>2026-04-28T15:53:13Z</time></trkpt><trkpt lat="28.435658005150792" lon="-11.06984289769251"><ele>47.0</ele><time>2026-04-28T15:53:14Z</time></trkpt><trkpt lat="28.435688711335448" lon="-11.069920755926054"><ele>47.0</ele><time>2026-04-28T15:53:15Z</time></trkpt><trkpt lat="28.435686928273512" lon="-11.070000099530946"><ele>47.0</ele><time>2026-04-28T15:53:16Z</time></trkpt><trkpt lat="28.4356627741944" lon="-11.070091553068757"><ele>47.0</ele><time>2026-04-28T15:53:17Z</time></trkpt><trkpt lat="28.435612458769494" lon="-11.070189157844823"><ele>47.0</ele><time>2026-04-28T15:53:18Z</time></trkpt><trkpt lat="28.43550771245716" lon="-11.07028516544284"><ele>47.0</ele><time>2026-04-28T15:53:19Z</time></trkpt><trkpt lat="28.4354548566284" lon="-11.070428866266882"><ele>47.0</ele><time>2026-04-28T15:53:20Z</time></trkpt><trkpt lat="28.435406712809925" lon="-11.070570154313826"><ele>47.0</ele><time>2026-04-28T15:53:21Z</time></trkpt><trkpt lat="28.435422945714684" lon="-11.070763290962427"><ele>47.0</ele><time>2026-04-28T15:53:22Z</time></trkpt><trkpt lat="28.435389721302712" lon="-11.070938313140909"><ele>47.33333333333333</ele><time>2026-04-28T15:53:23Z</time></trkpt><trkpt lat="28.4353568188198" lon="-11.071111639477698"><ele>47.666666666666664</ele><time>2026-04-28T15:53:24Z</time></trkpt><trkpt lat="28.43532543004394" lon="-11.071278280735772"><ele>48.0</ele><time>2026-04-28T15:53:25Z</time></trkpt><trkpt lat="28.43529269436817" lon="-11.0714523605737"><ele>48.33333333333333</ele><time>2026-04-28T15:53:26Z</time></trkpt><trkpt lat="28.43525966475156" lon="-11.071628003485875"><ele>48.666666666666664</ele><time>2026-04-28T15:53:27Z</time></trkpt><trkpt lat="28.43522662386618" lon="-11.07180370632015"><ele>49.0</ele><time>2026-04-28T15:53:28Z</time></trkpt><trkpt lat="28.435193654914613" lon="-11.071979026612997"><ele>49.0</ele><time>2026-04-28T15:53:29Z</time></trkpt><trkpt lat="28.435178165449518" lon="-11.072150468017764"><ele>49.0</ele><time>2026-04-28T15:53:30Z</time></trkpt><trkpt lat="28.435145532823768" lon="-11.072317793832232"><ele>49.0</ele><time>2026-04-28T15:53:31Z</time></trkpt><trkpt lat="28.435113791295777" lon="-11.07248183294369"><ele>49.0</ele><time>2026-04-28T15:53:32Z</time></trkpt><trkpt lat="28.43508327726202" lon="-11.072646677419202"><ele>49.0</ele><time>2026-04-28T15:53:33Z</time></trkpt><trkpt lat="28.435052497782248" lon="-11.072813030006122"><ele>49.0</ele><time>2026-04-28T15:53:34Z</time></trkpt><trkpt lat="28.435024487085506" lon="-11.072965428464272"><ele>49.0</ele><time>2026-04-28T15:53:35Z</time></trkpt><trkpt lat="28.434997795851924" lon="-11.073105712189493"><ele>49.0</ele><time>2026-04-28T15:53:36Z</time></trkpt><trkpt lat="28.43497223927708" lon="-11.073239904281497"><ele>49.0</ele><time>2026-04-28T15:53:37Z</time></trkpt><trkpt lat="28.434943078375895" lon="-11.073381758304276"><ele>49.0</ele><time>2026-04-28T15:53:38Z</time></trkpt><trkpt lat="28.434913262469347" lon="-11.073525834724453"><ele>49.0</ele><time>2026-04-28T15:53:39Z</time></trkpt><trkpt lat="28.434879290615374" lon="-11.073664667289405"><ele>48.25</ele><time>2026-04-28T15:53:40Z</time></trkpt><trkpt lat="28.434845012623363" lon="-11.073808515678296"><ele>47.5</ele><time>2026-04-28T15:53:41Z</time></trkpt><trkpt lat="28.434815641152547" lon="-11.073955521953472"><ele>46.75</ele><time>2026-04-28T15:53:42Z</time></trkpt><trkpt lat="28.434791117061756" lon="-11.074087447027516"><ele>46.0</ele><time>2026-04-28T15:53:43Z</time></trkpt><trkpt lat="28.434768664626997" lon="-11.074215579362779"><ele>45.599999999999994</ele><time>2026-04-28T15:53:44Z</time></trkpt><trkpt lat="28.434746776884598" lon="-11.074343491412547"><ele>45.2</ele><time>2026-04-28T15:53:45Z</time></trkpt><trkpt lat="28.434726474809224" lon="-11.074457057792324"><ele>44.8</ele><time>2026-04-28T15:53:46Z</time></trkpt><trkpt lat="28.434708516603465" lon="-11.074569897399567"><ele>44.400000000000006</ele><time>2026-04-28T15:53:47Z</time></trkpt><trkpt lat="28.434694683181412" lon="-11.074685445824773"><ele>44.0</ele><time>2026-04-28T15:53:48Z</time></trkpt><trkpt lat="28.434680583699265" lon="-11.0748159444716"><ele>44.0</ele><time>2026-04-28T15:53:49Z</time></trkpt><trkpt lat="28.434657059041225" lon="-11.074968294804142"><ele>44.0</ele><time>2026-04-28T15:53:50Z</time></trkpt><trkpt lat="28.434624037866936" lon="-11.075132195307622"><ele>44.0</ele><time>2026-04-28T15:53:51Z</time></trkpt><trkpt lat="28.434556553622286" lon="-11.075288842139557"><ele>44.0</ele><time>2026-04-28T15:53:52Z</time></trkpt><trkpt lat="28.434529960564998" lon="-11.07543800569218"><ele>44.0</ele><time>2026-04-28T15:53:53Z</time></trkpt><trkpt lat="28.434535122498726" lon="-11.075603218374393"><ele>44.0</ele><time>2026-04-28T15:53:54Z</time></trkpt><trkpt lat="28.434504067427017" lon="-11.075774506460673"><ele>44.0</ele><time>2026-04-28T15:53:55Z</time></trkpt><trkpt lat="28.434470648875642" lon="-11.075945412479184"><ele>43.666666666666664</ele><time>2026-04-28T15:53:56Z</time></trkpt><trkpt lat="28.43444029804443" lon="-11.076114960249202"><ele>43.333333333333336</ele><time>2026-04-28T15:53:57Z</time></trkpt><trkpt lat="28.43441119600195" lon="-11.076286839883696"><ele>43.0</ele><time>2026-04-28T15:53:58Z</time></trkpt><trkpt lat="28.43437983508668" lon="-11.0764601651397"><ele>43.333333333333336</ele><time>2026-04-28T15:53:59Z</time></trkpt><trkpt lat="28.434300581502836" lon="-11.076623850881521"><ele>43.666666666666664</ele><time>2026-04-28T15:54:00Z</time></trkpt><trkpt lat="28.434305561059553" lon="-11.076811837275713"><ele>44.0</ele><time>2026-04-28T15:54:01Z</time></trkpt><trkpt lat="28.43427089857921" lon="-11.076986956524841"><ele>44.0</ele><time>2026-04-28T15:54:02Z</time></trkpt><trkpt lat="28.434240254768625" lon="-11.077145874246014"><ele>44.0</ele><time>2026-04-28T15:54:03Z</time></trkpt><trkpt lat="28.43421222309084" lon="-11.077295002470319"><ele>44.0</ele><time>2026-04-28T15:54:04Z</time></trkpt><trkpt lat="28.434181530920945" lon="-11.077449251410792"><ele>44.0</ele><time>2026-04-28T15:54:05Z</time></trkpt><trkpt lat="28.434153521281885" lon="-11.07761383109453"><ele>44.0</ele><time>2026-04-28T15:54:06Z</time></trkpt><trkpt lat="28.434124367744104" lon="-11.077782206911754"><ele>44.0</ele><time>2026-04-28T15:54:07Z</time></trkpt><trkpt lat="28.434095118757156" lon="-11.077941329108512"><ele>44.0</ele><time>2026-04-28T15:54:08Z</time></trkpt><trkpt lat="28.434064311516504" lon="-11.078091048273494"><ele>44.0</ele><time>2026-04-28T15:54:09Z</time></trkpt><trkpt lat="28.434035481969513" lon="-11.078227243067733"><ele>43.5</ele><time>2026-04-28T15:54:10Z</time></trkpt><trkpt lat="28.434011456042594" lon="-11.078351464988197"><ele>43.0</ele><time>2026-04-28T15:54:11Z</time></trkpt><trkpt lat="28.433985117467923" lon="-11.078482528907141"><ele>42.5</ele><time>2026-04-28T15:54:12Z</time></trkpt><trkpt lat="28.43395892049075" lon="-11.07861643921939"><ele>42.0</ele><time>2026-04-28T15:54:13Z</time></trkpt><trkpt lat="28.433931157939874" lon="-11.078744568431285"><ele>42.0</ele><time>2026-04-28T15:54:14Z</time></trkpt><trkpt lat="28.43390326897403" lon="-11.078881409867659"><ele>42.0</ele><time>2026-04-28T15:54:15Z</time></trkpt><trkpt lat="28.43387315574249" lon="-11.079028564600597"><ele>42.0</ele><time>2026-04-28T15:54:16Z</time></trkpt><trkpt lat="28.433841505182734" lon="-11.079179741374343"><ele>42.0</ele><time>2026-04-28T15:54:17Z</time></trkpt><trkpt lat="28.433788281936618" lon="-11.079314128865484"><ele>42.400000000000006</ele><time>2026-04-28T15:54:18Z</time></trkpt><trkpt lat="28.433790208301343" lon="-11.079446705935643"><ele>42.800000000000004</ele><time>2026-04-28T15:54:19Z</time></trkpt><trkpt lat="28.4337755009515" lon="-11.079564640206817"><ele>43.2</ele><time>2026-04-28T15:54:20Z</time></trkpt><trkpt lat="28.43376204731792" lon="-11.079674623481989"><ele>43.6</ele><time>2026-04-28T15:54:21Z</time></trkpt><trkpt lat="28.433746062751265" lon="-11.07978080442859"><ele>44.0</ele><time>2026-04-28T15:54:22Z</time></trkpt><trkpt lat="28.433693470708405" lon="-11.079875218902119"><ele>43.2</ele><time>2026-04-28T15:54:23Z</time></trkpt><trkpt lat="28.433677375159448" lon="-11.079985710388797"><ele>42.400000000000006</ele><time>2026-04-28T15:54:24Z</time></trkpt><trkpt lat="28.43366124831403" lon="-11.080101609396065"><ele>41.6</ele><time>2026-04-28T15:54:25Z</time></trkpt><trkpt lat="28.43364732796431" lon="-11.080206382951864"><ele>40.8</ele><time>2026-04-28T15:54:26Z</time></trkpt><trkpt lat="28.433635594984224" lon="-11.080305687780927"><ele>40.0</ele><time>2026-04-28T15:54:27Z</time></trkpt><trkpt lat="28.43362758427813" lon="-11.080407754783401"><ele>40.0</ele><time>2026-04-28T15:54:28Z</time></trkpt><trkpt lat="28.433618590613914" lon="-11.080522345898718"><ele>40.0</ele><time>2026-04-28T15:54:29Z</time></trkpt><trkpt lat="28.433608849175876" lon="-11.080646464613206"><ele>40.0</ele><time>2026-04-28T15:54:30Z</time></trkpt><trkpt lat="28.43360185967684" lon="-11.08077886026553"><ele>40.0</ele><time>2026-04-28T15:54:31Z</time></trkpt><trkpt lat="28.433593587032185" lon="-11.080919145085483"><ele>39.5</ele><time>2026-04-28T15:54:32Z</time></trkpt><trkpt lat="28.433585236237516" lon="-11.081073467411763"><ele>39.0</ele><time>2026-04-28T15:54:33Z</time></trkpt><trkpt lat="28.433606019705284" lon="-11.081231743722789"><ele>38.5</ele><time>2026-04-28T15:54:34Z</time></trkpt><trkpt lat="28.433603164732112" lon="-11.081393894825434"><ele>38.0</ele><time>2026-04-28T15:54:35Z</time></trkpt><trkpt lat="28.433604540223065" lon="-11.081552760065973"><ele>39.0</ele><time>2026-04-28T15:54:36Z</time></trkpt><trkpt lat="28.433607223577535" lon="-11.081712089989056"><ele>40.0</ele><time>2026-04-28T15:54:37Z</time></trkpt><trkpt lat="28.433616235855727" lon="-11.081873228916988"><ele>41.0</ele><time>2026-04-28T15:54:38Z</time></trkpt><trkpt lat="28.433630694407192" lon="-11.082033702405319"><ele>42.0</ele><time>2026-04-28T15:54:39Z</time></trkpt><trkpt lat="28.433652902663408" lon="-11.082188318439162"><ele>42.0</ele><time>2026-04-28T15:54:40Z</time></trkpt><trkpt lat="28.433680755340095" lon="-11.082340421380316"><ele>42.0</ele><time>2026-04-28T15:54:41Z</time></trkpt><trkpt lat="28.433711127131325" lon="-11.08247678496663"><ele>42.0</ele><time>2026-04-28T15:54:42Z</time></trkpt><trkpt lat="28.433742801930116" lon="-11.082603779992617"><ele>42.0</ele><time>2026-04-28T15:54:43Z</time></trkpt><trkpt lat="28.433771620408393" lon="-11.082719388333974"><ele>41.8</ele><time>2026-04-28T15:54:44Z</time></trkpt><trkpt lat="28.433745406057774" lon="-11.082846035913441"><ele>41.6</ele><time>2026-04-28T15:54:45Z</time></trkpt><trkpt lat="28.433821299031965" lon="-11.082943921252598"><ele>41.4</ele><time>2026-04-28T15:54:46Z</time></trkpt><trkpt lat="28.433843128204146" lon="-11.08305287763909"><ele>41.199999999999996</ele><time>2026-04-28T15:54:47Z</time></trkpt><trkpt lat="28.433865872790502" lon="-11.083150654887444"><ele>41.0</ele><time>2026-04-28T15:54:48Z</time></trkpt><trkpt lat="28.43389278355136" lon="-11.083235925912836"><ele>40.666666666666664</ele><time>2026-04-28T15:54:49Z</time></trkpt><trkpt lat="28.433928554774248" lon="-11.083313392213402"><ele>40.33333333333333</ele><time>2026-04-28T15:54:50Z</time></trkpt><trkpt lat="28.433967038594645" lon="-11.083403378214397"><ele>40.0</ele><time>2026-04-28T15:54:51Z</time></trkpt><trkpt lat="28.433982587903042" lon="-11.083489876398655"><ele>39.666666666666664</ele><time>2026-04-28T15:54:52Z</time></trkpt><trkpt lat="28.43399153413141" lon="-11.083576082936377"><ele>39.333333333333336</ele><time>2026-04-28T15:54:53Z</time></trkpt><trkpt lat="28.43399061629034" lon="-11.083656517928151"><ele>39.0</ele><time>2026-04-28T15:54:54Z</time></trkpt><trkpt lat="28.433987339081625" lon="-11.083730475051132"><ele>39.0</ele><time>2026-04-28T15:54:55Z</time></trkpt><trkpt lat="28.43398974769872" lon="-11.083839790301624"><ele>39.0</ele><time>2026-04-28T15:54:57Z</time></trkpt><trkpt lat="28.43394910333195" lon="-11.083934750162866"><ele>39.0</ele><time>2026-04-28T15:54:59Z</time></trkpt><trkpt lat="28.433916089701558" lon="-11.08401271501691"><ele>39.0</ele><time>2026-04-28T15:55:01Z</time></trkpt><trkpt lat="28.43380123384364" lon="-11.084108615863213"><ele>39.0</ele><time>2026-04-28T15:55:04Z</time></trkpt><trkpt lat="28.433743675372096" lon="-11.084150740200876"><ele>39.0</ele><time>2026-04-28T15:55:06Z</time></trkpt><trkpt lat="28.43377456495638" lon="-11.084250567671148"><ele>39.0</ele><time>2026-04-28T16:04:07Z</time></trkpt><trkpt lat="28.433721602804823" lon="-11.084290586154824"><ele>39.0</ele><time>2026-04-28T16:04:26Z</time></trkpt><trkpt lat="28.433790648281278" lon="-11.084328586811631"><ele>39.0</ele><time>2026-04-28T16:06:38Z</time></trkpt><trkpt lat="28.433722628508125" lon="-11.084373680378693"><ele>39.0</ele><time>2026-04-28T16:14:08Z</time></trkpt><trkpt lat="28.43367516102458" lon="-11.084308374228701"><ele>39.0</ele><time>2026-04-28T16:14:18Z</time></trkpt><trkpt lat="28.433765980525333" lon="-11.084208912746892"><ele>39.0</ele><time>2026-04-28T16:14:22Z</time></trkpt><trkpt lat="28.433749528619806" lon="-11.08412655850493"><ele>39.0</ele><time>2026-04-28T16:14:28Z</time></trkpt><trkpt lat="28.433758510707364" lon="-11.08405077601483"><ele>39.0</ele><time>2026-04-28T16:15:12Z</time></trkpt><trkpt lat="28.43356575933448" lon="-11.084025261254617"><ele>39.0</ele><time>2026-04-28T16:15:17Z</time></trkpt><trkpt lat="28.433759474398034" lon="-11.08403359023221"><ele>39.0</ele><time>2026-04-28T16:15:21Z</time></trkpt><trkpt lat="28.43376157414782" lon="-11.084105450765412"><ele>39.0</ele><time>2026-04-28T16:15:22Z</time></trkpt><trkpt lat="28.433617357922127" lon="-11.084194071929236"><ele>39.0</ele><time>2026-04-28T16:15:31Z</time></trkpt><trkpt lat="28.433539853169943" lon="-11.08422495944931"><ele>39.0</ele><time>2026-04-28T16:15:36Z</time></trkpt><trkpt lat="28.433460040223896" lon="-11.084027196189663"><ele>39.166666666666664</ele><time>2026-04-28T16:15:49Z</time></trkpt><trkpt lat="28.43351849357454" lon="-11.083997078250238"><ele>39.333333333333336</ele><time>2026-04-28T16:15:59Z</time></trkpt><trkpt lat="28.433609692997607" lon="-11.083988871402282"><ele>39.5</ele><time>2026-04-28T16:23:36Z</time></trkpt><trkpt lat="28.43354727393174" lon="-11.08400595511132"><ele>39.66666666666667</ele><time>2026-04-28T16:24:32Z</time></trkpt><trkpt lat="28.43363276968268" lon="-11.083927964530595"><ele>39.833333333333336</ele><time>2026-04-28T16:44:29.001Z</time></trkpt><trkpt lat="28.433702928759228" lon="-11.083952934649602"><ele>40.0</ele><time>2026-04-28T16:44:31.001Z</time></trkpt><trkpt lat="28.43373952983156" lon="-11.084016268017292"><ele>39.833333333333336</ele><time>2026-04-28T16:44:33.001Z</time></trkpt><trkpt lat="28.433807996341464" lon="-11.084034174445133"><ele>39.66666666666667</ele><time>2026-04-28T16:44:41.001Z</time></trkpt><trkpt lat="28.43388433677478" lon="-11.084053670395141"><ele>39.5</ele><time>2026-04-28T16:44:43.001Z</time></trkpt><trkpt lat="28.43393643124997" lon="-11.084107676349111"><ele>39.333333333333336</ele><time>2026-04-28T16:44:45.001Z</time></trkpt><trkpt lat="28.43400977669731" lon="-11.084219595433217"><ele>39.166666666666664</ele><time>2026-04-28T16:44:47.001Z</time></trkpt><trkpt lat="28.434047263916202" lon="-11.084305607438038"><ele>39.0</ele><time>2026-04-28T16:44:48.001Z</time></trkpt><trkpt lat="28.434074960691806" lon="-11.084395381332552"><ele>38.666666666666664</ele><time>2026-04-28T16:44:49.001Z</time></trkpt><trkpt lat="28.43409884710467" lon="-11.084488416170625"><ele>38.333333333333336</ele><time>2026-04-28T16:44:50.001Z</time></trkpt><trkpt lat="28.434117382886466" lon="-11.084576043459665"><ele>38.0</ele><time>2026-04-28T16:44:51.001Z</time></trkpt><trkpt lat="28.43413699345625" lon="-11.08465887165411"><ele>37.66666666666667</ele><time>2026-04-28T16:44:52.001Z</time></trkpt><trkpt lat="28.434155882083775" lon="-11.084740937786394"><ele>37.333333333333336</ele><time>2026-04-28T16:44:53.001Z</time></trkpt><trkpt lat="28.434174112753592" lon="-11.084817956585448"><ele>37.0</ele><time>2026-04-28T16:44:54.001Z</time></trkpt><trkpt lat="28.434191577467384" lon="-11.084896858185742"><ele>37.0</ele><time>2026-04-28T16:44:55.001Z</time></trkpt><trkpt lat="28.434210426158376" lon="-11.084984938385192"><ele>37.0</ele><time>2026-04-28T16:44:56.001Z</time></trkpt><trkpt lat="28.43422961415844" lon="-11.085065891280397"><ele>37.0</ele><time>2026-04-28T16:44:57.001Z</time></trkpt><trkpt lat="28.43424472190184" lon="-11.085152017683255"><ele>37.0</ele><time>2026-04-28T16:44:58.001Z</time></trkpt><trkpt lat="28.43426187454137" lon="-11.085235246406405"><ele>37.0</ele><time>2026-04-28T16:44:59.001Z</time></trkpt><trkpt lat="28.434278163894742" lon="-11.085307449381814"><ele>37.0</ele><time>2026-04-28T16:45:00.001Z</time></trkpt><trkpt lat="28.434294832045524" lon="-11.08538019133275"><ele>37.0</ele><time>2026-04-28T16:45:01.001Z</time></trkpt><trkpt lat="28.434315479496505" lon="-11.085463157753697"><ele>37.0</ele><time>2026-04-28T16:45:02.001Z</time></trkpt><trkpt lat="28.434342133077138" lon="-11.085561041445404"><ele>37.0</ele><time>2026-04-28T16:45:03.001Z</time></trkpt><trkpt lat="28.434371545373455" lon="-11.085667996241073"><ele>37.0</ele><time>2026-04-28T16:45:04.001Z</time></trkpt><trkpt lat="28.434398076850822" lon="-11.085777756322456"><ele>37.0</ele><time>2026-04-28T16:45:05.001Z</time></trkpt><trkpt lat="28.43442361090052" lon="-11.085884613656011"><ele>37.0</ele><time>2026-04-28T16:45:06.001Z</time></trkpt><trkpt lat="28.434452777443074" lon="-11.085999895505045"><ele>37.8</ele><time>2026-04-28T16:45:07.001Z</time></trkpt><trkpt lat="28.434481842396192" lon="-11.086114871403028"><ele>38.6</ele><time>2026-04-28T16:45:08.001Z</time></trkpt><trkpt lat="28.434510015037986" lon="-11.086229711167906"><ele>39.4</ele><time>2026-04-28T16:45:09.001Z</time></trkpt><trkpt lat="28.43453776736365" lon="-11.08634716602668"><ele>40.199999999999996</ele><time>2026-04-28T16:45:10.001Z</time></trkpt><trkpt lat="28.434566953636597" lon="-11.086464428515509"><ele>41.0</ele><time>2026-04-28T16:45:11.001Z</time></trkpt><trkpt lat="28.434592160108338" lon="-11.086580279013733"><ele>40.4</ele><time>2026-04-28T16:45:12.001Z</time></trkpt><trkpt lat="28.434617642141838" lon="-11.086695138558444"><ele>39.8</ele><time>2026-04-28T16:45:13.001Z</time></trkpt><trkpt lat="28.434645102589478" lon="-11.086819090334467"><ele>39.199999999999996</ele><time>2026-04-28T16:45:14.001Z</time></trkpt><trkpt lat="28.434672428717903" lon="-11.0869462204209"><ele>38.599999999999994</ele><time>2026-04-28T16:45:15.001Z</time></trkpt><trkpt lat="28.434698445994506" lon="-11.08707420514244"><ele>38.0</ele><time>2026-04-28T16:45:16.001Z</time></trkpt><trkpt lat="28.434727410452968" lon="-11.087209459532643"><ele>38.0</ele><time>2026-04-28T16:45:17.001Z</time></trkpt><trkpt lat="28.434755990159722" lon="-11.087338186198304"><ele>38.0</ele><time>2026-04-28T16:45:18.001Z</time></trkpt><trkpt lat="28.434786547356484" lon="-11.087472613442687"><ele>38.0</ele><time>2026-04-28T16:45:19.001Z</time></trkpt><trkpt lat="28.43481643412749" lon="-11.087601958933995"><ele>38.0</ele><time>2026-04-28T16:45:20.001Z</time></trkpt><trkpt lat="28.4348413017287" lon="-11.087711999457273"><ele>38.199999999999996</ele><time>2026-04-28T16:45:21.001Z</time></trkpt><trkpt lat="28.434865961867597" lon="-11.087831731675596"><ele>38.4</ele><time>2026-04-28T16:45:22.001Z</time></trkpt><trkpt lat="28.434893587294596" lon="-11.087950731505753"><ele>38.599999999999994</ele><time>2026-04-28T16:45:23.001Z</time></trkpt><trkpt lat="28.434921246654387" lon="-11.088063448368436"><ele>38.8</ele><time>2026-04-28T16:45:24.001Z</time></trkpt><trkpt lat="28.43494664277476" lon="-11.088171016613824"><ele>39.0</ele><time>2026-04-28T16:45:25.001Z</time></trkpt><trkpt lat="28.434970637842213" lon="-11.08827604642843"><ele>39.0</ele><time>2026-04-28T16:45:26.001Z</time></trkpt><trkpt lat="28.43499154461606" lon="-11.088365938310686"><ele>39.0</ele><time>2026-04-28T16:45:27.001Z</time></trkpt><trkpt lat="28.435010373390167" lon="-11.088459451223237"><ele>39.0</ele><time>2026-04-28T16:45:28.001Z</time></trkpt><trkpt lat="28.435033790839903" lon="-11.08857152253992"><ele>39.0</ele><time>2026-04-28T16:45:29.001Z</time></trkpt><trkpt lat="28.43506040880157" lon="-11.088684571669086"><ele>39.0</ele><time>2026-04-28T16:45:30.001Z</time></trkpt><trkpt lat="28.435082652503276" lon="-11.088794851467425"><ele>39.0</ele><time>2026-04-28T16:45:31.001Z</time></trkpt><trkpt lat="28.435101137231964" lon="-11.088895005232843"><ele>39.0</ele><time>2026-04-28T16:45:32.001Z</time></trkpt><trkpt lat="28.435120858922215" lon="-11.08900723039865"><ele>39.0</ele><time>2026-04-28T16:45:33.001Z</time></trkpt><trkpt lat="28.435144712061305" lon="-11.089119094008154"><ele>39.0</ele><time>2026-04-28T16:45:34.001Z</time></trkpt><trkpt lat="28.43516711938038" lon="-11.089215475502693"><ele>39.0</ele><time>2026-04-28T16:45:35.001Z</time></trkpt><trkpt lat="28.43518414128649" lon="-11.089300738992211"><ele>38.8</ele><time>2026-04-28T16:45:36.001Z</time></trkpt><trkpt lat="28.43520102435941" lon="-11.089377788576034"><ele>38.599999999999994</ele><time>2026-04-28T16:45:37.001Z</time></trkpt><trkpt lat="28.43521728486477" lon="-11.089448989375903"><ele>38.4</ele><time>2026-04-28T16:45:38.001Z</time></trkpt><trkpt lat="28.435243059953837" lon="-11.089572375968995"><ele>38.199999999999996</ele><time>2026-04-28T16:45:40.001Z</time></trkpt><trkpt lat="28.43527151837199" lon="-11.089672661685865"><ele>38.0</ele><time>2026-04-28T16:45:42.001Z</time></trkpt><trkpt lat="28.43530502087016" lon="-11.089800912488924"><ele>38.0</ele><time>2026-04-28T16:45:44.001Z</time></trkpt><trkpt lat="28.435317232242326" lon="-11.089875194995873"><ele>38.0</ele><time>2026-04-28T16:45:45.001Z</time></trkpt><trkpt lat="28.43533263759357" lon="-11.089965374796758"><ele>38.0</ele><time>2026-04-28T16:45:46.001Z</time></trkpt><trkpt lat="28.43535340792446" lon="-11.090060373293449"><ele>38.0</ele><time>2026-04-28T16:45:47.001Z</time></trkpt><trkpt lat="28.435379852611447" lon="-11.090168662337076"><ele>38.0</ele><time>2026-04-28T16:45:48.001Z</time></trkpt><trkpt lat="28.43540452569334" lon="-11.090278534709514"><ele>38.0</ele><time>2026-04-28T16:45:49.001Z</time></trkpt><trkpt lat="28.43542676662955" lon="-11.090384842934423"><ele>38.33333333333333</ele><time>2026-04-28T16:45:50.001Z</time></trkpt><trkpt lat="28.435449451050616" lon="-11.090476133891"><ele>38.666666666666664</ele><time>2026-04-28T16:45:51.001Z</time></trkpt><trkpt lat="28.435468099084314" lon="-11.090555396043618"><ele>39.0</ele><time>2026-04-28T16:45:52.001Z</time></trkpt><trkpt lat="28.43548764482239" lon="-11.090636855879225"><ele>39.333333333333336</ele><time>2026-04-28T16:45:53.001Z</time></trkpt><trkpt lat="28.43550753753633" lon="-11.090729229230869"><ele>39.66666666666667</ele><time>2026-04-28T16:45:54.001Z</time></trkpt><trkpt lat="28.435531881874144" lon="-11.0908270353588"><ele>40.0</ele><time>2026-04-28T16:45:55.001Z</time></trkpt><trkpt lat="28.435554370935378" lon="-11.09092672262432"><ele>40.0</ele><time>2026-04-28T16:45:56.001Z</time></trkpt><trkpt lat="28.435579578075565" lon="-11.091036592121739"><ele>40.0</ele><time>2026-04-28T16:45:57.001Z</time></trkpt><trkpt lat="28.435603713481107" lon="-11.091139026080004"><ele>40.0</ele><time>2026-04-28T16:45:58.001Z</time></trkpt><trkpt lat="28.43562288506865" lon="-11.091234919280334"><ele>40.0</ele><time>2026-04-28T16:45:59.001Z</time></trkpt><trkpt lat="28.435641386277442" lon="-11.09132543592786"><ele>40.0</ele><time>2026-04-28T16:46:00.001Z</time></trkpt><trkpt lat="28.435660455259505" lon="-11.091414279150403"><ele>40.0</ele><time>2026-04-28T16:46:01.001Z</time></trkpt><trkpt lat="28.43568087726548" lon="-11.091504927290462"><ele>40.5</ele><time>2026-04-28T16:46:02.001Z</time></trkpt><trkpt lat="28.43570452915842" lon="-11.09160348109506"><ele>41.0</ele><time>2026-04-28T16:46:03.001Z</time></trkpt><trkpt lat="28.43572549785413" lon="-11.091704216725786"><ele>41.5</ele><time>2026-04-28T16:46:04.001Z</time></trkpt><trkpt lat="28.435746603820544" lon="-11.09179743265737"><ele>42.0</ele><time>2026-04-28T16:46:05.001Z</time></trkpt><trkpt lat="28.435768655034522" lon="-11.091887376834245"><ele>42.5</ele><time>2026-04-28T16:46:06.001Z</time></trkpt><trkpt lat="28.43578949397592" lon="-11.091974975019655"><ele>43.0</ele><time>2026-04-28T16:46:07.001Z</time></trkpt><trkpt lat="28.435814418483105" lon="-11.092073313873277"><ele>43.0</ele><time>2026-04-28T16:46:08.001Z</time></trkpt><trkpt lat="28.435836594814145" lon="-11.092171537525235"><ele>43.0</ele><time>2026-04-28T16:46:09.001Z</time></trkpt><trkpt lat="28.435862439480477" lon="-11.092275093568643"><ele>43.0</ele><time>2026-04-28T16:46:10.001Z</time></trkpt><trkpt lat="28.435886460798635" lon="-11.092382273120142"><ele>43.0</ele><time>2026-04-28T16:46:11.001Z</time></trkpt><trkpt lat="28.43591122840534" lon="-11.092494517968587"><ele>43.0</ele><time>2026-04-28T16:46:12.001Z</time></trkpt><trkpt lat="28.435939785188012" lon="-11.092609489763444"><ele>43.0</ele><time>2026-04-28T16:46:13.001Z</time></trkpt><trkpt lat="28.435969755082475" lon="-11.09272779656966"><ele>43.0</ele><time>2026-04-28T16:46:14.001Z</time></trkpt><trkpt lat="28.435999189666056" lon="-11.092852845947238"><ele>43.0</ele><time>2026-04-28T16:46:15.001Z</time></trkpt><trkpt lat="28.43602815544805" lon="-11.092984745792798"><ele>43.0</ele><time>2026-04-28T16:46:16.001Z</time></trkpt><trkpt lat="28.43605841982499" lon="-11.09312325788143"><ele>43.0</ele><time>2026-04-28T16:46:17.001Z</time></trkpt><trkpt lat="28.436094477095917" lon="-11.093275097834326"><ele>43.0</ele><time>2026-04-28T16:46:18.001Z</time></trkpt><trkpt lat="28.43612807643675" lon="-11.093416758768331"><ele>43.0</ele><time>2026-04-28T16:46:19.001Z</time></trkpt><trkpt lat="28.436159923736646" lon="-11.093566730542118"><ele>43.0</ele><time>2026-04-28T16:46:20.001Z</time></trkpt><trkpt lat="28.43619178242119" lon="-11.093717193170384"><ele>43.0</ele><time>2026-04-28T16:46:21.001Z</time></trkpt><trkpt lat="28.436225110509078" lon="-11.093872252576327"><ele>43.0</ele><time>2026-04-28T16:46:22.001Z</time></trkpt><trkpt lat="28.436260726158356" lon="-11.094039122312754"><ele>43.0</ele><time>2026-04-28T16:46:23.001Z</time></trkpt><trkpt lat="28.43629760227681" lon="-11.094200405880322"><ele>43.0</ele><time>2026-04-28T16:46:24.001Z</time></trkpt><trkpt lat="28.436333034922836" lon="-11.094356209947126"><ele>41.75</ele><time>2026-04-28T16:46:25.001Z</time></trkpt><trkpt lat="28.436365533670493" lon="-11.094503485928877"><ele>40.5</ele><time>2026-04-28T16:46:26.001Z</time></trkpt><trkpt lat="28.436396128752367" lon="-11.094636952834197"><ele>39.25</ele><time>2026-04-28T16:46:27.001Z</time></trkpt><trkpt lat="28.436425885716787" lon="-11.094768803317152"><ele>38.0</ele><time>2026-04-28T16:46:28.001Z</time></trkpt><trkpt lat="28.436457918327605" lon="-11.094908029075741"><ele>38.75</ele><time>2026-04-28T16:46:29.001Z</time></trkpt><trkpt lat="28.436490789686985" lon="-11.095055120944116"><ele>39.5</ele><time>2026-04-28T16:46:30.001Z</time></trkpt><trkpt lat="28.4365281686539" lon="-11.09521352156666"><ele>40.25</ele><time>2026-04-28T16:46:31.001Z</time></trkpt><trkpt lat="28.436557076230255" lon="-11.095367832487776"><ele>41.0</ele><time>2026-04-28T16:46:32.001Z</time></trkpt><trkpt lat="28.43658192794232" lon="-11.095521956637135"><ele>41.0</ele><time>2026-04-28T16:46:33.001Z</time></trkpt><trkpt lat="28.436609076472855" lon="-11.095662025529451"><ele>41.0</ele><time>2026-04-28T16:46:34.001Z</time></trkpt><trkpt lat="28.43663522726764" lon="-11.095787342950631"><ele>41.0</ele><time>2026-04-28T16:46:35.001Z</time></trkpt><trkpt lat="28.43666084650462" lon="-11.095901517585721"><ele>41.0</ele><time>2026-04-28T16:46:36.001Z</time></trkpt><trkpt lat="28.436681934012395" lon="-11.09599572716158"><ele>41.0</ele><time>2026-04-28T16:46:37.001Z</time></trkpt><trkpt lat="28.43669824312209" lon="-11.09606505387726"><ele>41.4</ele><time>2026-04-28T16:46:38.001Z</time></trkpt><trkpt lat="28.436719114241384" lon="-11.096161819923552"><ele>41.8</ele><time>2026-04-28T16:46:40.001Z</time></trkpt><trkpt lat="28.436753572148465" lon="-11.096298313036408"><ele>42.199999999999996</ele><time>2026-04-28T16:46:42.001Z</time></trkpt><trkpt lat="28.436777203972987" lon="-11.096393690931102"><ele>42.599999999999994</ele><time>2026-04-28T16:46:43.001Z</time></trkpt><trkpt lat="28.436801209474563" lon="-11.096491534621794"><ele>43.0</ele><time>2026-04-28T16:46:44.001Z</time></trkpt><trkpt lat="28.436827038087067" lon="-11.096598858012326"><ele>43.2</ele><time>2026-04-28T16:46:45.001Z</time></trkpt><trkpt lat="28.436853462988566" lon="-11.096713424832014"><ele>43.4</ele><time>2026-04-28T16:46:46.001Z</time></trkpt><trkpt lat="28.43688302240606" lon="-11.096840809921448"><ele>43.6</ele><time>2026-04-28T16:46:47.001Z</time></trkpt><trkpt lat="28.436912741313172" lon="-11.096966358566759"><ele>43.800000000000004</ele><time>2026-04-28T16:46:48.001Z</time></trkpt><trkpt lat="28.436942572840604" lon="-11.097092373520361"><ele>44.0</ele><time>2026-04-28T16:46:49.001Z</time></trkpt><trkpt lat="28.43697042960641" lon="-11.097214655711571"><ele>44.0</ele><time>2026-04-28T16:46:50.001Z</time></trkpt><trkpt lat="28.43699904467911" lon="-11.097342296270456"><ele>44.0</ele><time>2026-04-28T16:46:51.001Z</time></trkpt><trkpt lat="28.437031749283875" lon="-11.097477631788477"><ele>44.0</ele><time>2026-04-28T16:46:52.001Z</time></trkpt><trkpt lat="28.437066822534472" lon="-11.097614526260527"><ele>44.0</ele><time>2026-04-28T16:46:53.001Z</time></trkpt><trkpt lat="28.437101301238183" lon="-11.09775163513737"><ele>44.75</ele><time>2026-04-28T16:46:54.001Z</time></trkpt><trkpt lat="28.437139886600143" lon="-11.09788599615825"><ele>45.5</ele><time>2026-04-28T16:46:55.001Z</time></trkpt><trkpt lat="28.437179535864587" lon="-11.09801800109875"><ele>46.25</ele><time>2026-04-28T16:46:56.001Z</time></trkpt><trkpt lat="28.43722049342653" lon="-11.098147625840292"><ele>47.0</ele><time>2026-04-28T16:46:57.001Z</time></trkpt><trkpt lat="28.437260662266496" lon="-11.098272746719958"><ele>47.0</ele><time>2026-04-28T16:46:58.001Z</time></trkpt><trkpt lat="28.437302138047563" lon="-11.098396787994439"><ele>47.0</ele><time>2026-04-28T16:46:59.001Z</time></trkpt><trkpt lat="28.437346529979344" lon="-11.09852272221167"><ele>47.0</ele><time>2026-04-28T16:47:00.001Z</time></trkpt><trkpt lat="28.437392428550424" lon="-11.098650114770985"><ele>47.0</ele><time>2026-04-28T16:47:01.001Z</time></trkpt><trkpt lat="28.43743749188198" lon="-11.098773305083352"><ele>47.0</ele><time>2026-04-28T16:47:02.001Z</time></trkpt><trkpt lat="28.437484397302295" lon="-11.09890284876619"><ele>47.0</ele><time>2026-04-28T16:47:03.001Z</time></trkpt><trkpt lat="28.43753082761881" lon="-11.099029996794394"><ele>47.0</ele><time>2026-04-28T16:47:04.001Z</time></trkpt><trkpt lat="28.43757411938249" lon="-11.099153359453537"><ele>47.0</ele><time>2026-04-28T16:47:05.001Z</time></trkpt><trkpt lat="28.437614042559677" lon="-11.099277200936811"><ele>47.2</ele><time>2026-04-28T16:47:06.001Z</time></trkpt><trkpt lat="28.437653499143668" lon="-11.099386006877124"><ele>47.400000000000006</ele><time>2026-04-28T16:47:07.001Z</time></trkpt><trkpt lat="28.43768739904912" lon="-11.099478396421084"><ele>47.599999999999994</ele><time>2026-04-28T16:47:08.001Z</time></trkpt><trkpt lat="28.437715568006126" lon="-11.099553866700122"><ele>47.8</ele><time>2026-04-28T16:47:09.001Z</time></trkpt><trkpt lat="28.437761051076404" lon="-11.09968225180071"><ele>48.0</ele><time>2026-04-28T16:47:11.001Z</time></trkpt><trkpt lat="28.437786882783385" lon="-11.099759340003727"><ele>48.0</ele><time>2026-04-28T16:47:12.001Z</time></trkpt><trkpt lat="28.437820686211463" lon="-11.099847730445706"><ele>48.0</ele><time>2026-04-28T16:47:13.001Z</time></trkpt><trkpt lat="28.43785497556611" lon="-11.099942279341656"><ele>48.0</ele><time>2026-04-28T16:47:14.001Z</time></trkpt><trkpt lat="28.437891763665107" lon="-11.100042988543189"><ele>48.0</ele><time>2026-04-28T16:47:15.001Z</time></trkpt><trkpt lat="28.437929354155255" lon="-11.100141460819867"><ele>48.0</ele><time>2026-04-28T16:47:16.001Z</time></trkpt><trkpt lat="28.437965300960172" lon="-11.100245380164086"><ele>48.0</ele><time>2026-04-28T16:47:17.001Z</time></trkpt><trkpt lat="28.43799961934092" lon="-11.100338218506215"><ele>48.0</ele><time>2026-04-28T16:47:18.001Z</time></trkpt><trkpt lat="28.438032059706558" lon="-11.100426957767974"><ele>48.0</ele><time>2026-04-28T16:47:19.001Z</time></trkpt><trkpt lat="28.438064170878253" lon="-11.10052030808633"><ele>48.0</ele><time>2026-04-28T16:47:20.001Z</time></trkpt><trkpt lat="28.438097834503772" lon="-11.100620064521474"><ele>48.0</ele><time>2026-04-28T16:47:21.001Z</time></trkpt><trkpt lat="28.43813150391675" lon="-11.10071834209308"><ele>48.0</ele><time>2026-04-28T16:47:22.001Z</time></trkpt><trkpt lat="28.438166422276634" lon="-11.100818752898649"><ele>48.2</ele><time>2026-04-28T16:47:23.001Z</time></trkpt><trkpt lat="28.438203762828092" lon="-11.10092158085678"><ele>48.4</ele><time>2026-04-28T16:47:24.001Z</time></trkpt><trkpt lat="28.438245285308234" lon="-11.101025825528854"><ele>48.6</ele><time>2026-04-28T16:47:25.001Z</time></trkpt><trkpt lat="28.438281662794505" lon="-11.101128765421974"><ele>48.800000000000004</ele><time>2026-04-28T16:47:26.001Z</time></trkpt><trkpt lat="28.43831676439874" lon="-11.101229781722598"><ele>49.0</ele><time>2026-04-28T16:47:27.001Z</time></trkpt><trkpt lat="28.43835059490271" lon="-11.101330251632271"><ele>49.0</ele><time>2026-04-28T16:47:28.001Z</time></trkpt><trkpt lat="28.438385202939575" lon="-11.101430827928782"><ele>49.0</ele><time>2026-04-28T16:47:29.001Z</time></trkpt><trkpt lat="28.438422414205817" lon="-11.101534935321817"><ele>49.0</ele><time>2026-04-28T16:47:30.001Z</time></trkpt><trkpt lat="28.438460552564763" lon="-11.10164681985016"><ele>49.0</ele><time>2026-04-28T16:47:31Z</time></trkpt><trkpt lat="28.438501741632063" lon="-11.101761649379014"><ele>49.0</ele><time>2026-04-28T16:47:32Z</time></trkpt><trkpt lat="28.438545774360747" lon="-11.10187918472297"><ele>49.25</ele><time>2026-04-28T16:47:33Z</time></trkpt><trkpt lat="28.43859063199037" lon="-11.102000435048007"><ele>49.5</ele><time>2026-04-28T16:47:34Z</time></trkpt><trkpt lat="28.438635763969653" lon="-11.102124382006846"><ele>49.75</ele><time>2026-04-28T16:47:35Z</time></trkpt><trkpt lat="28.438682545767946" lon="-11.102259563122095"><ele>50.0</ele><time>2026-04-28T16:47:36Z</time></trkpt><trkpt lat="28.43873032942463" lon="-11.102389775522175"><ele>49.25</ele><time>2026-04-28T16:47:37Z</time></trkpt><trkpt lat="28.438779769828002" lon="-11.102529921072168"><ele>48.5</ele><time>2026-04-28T16:47:38Z</time></trkpt><trkpt lat="28.438829494387498" lon="-11.10267026774517"><ele>47.75</ele><time>2026-04-28T16:47:39Z</time></trkpt><trkpt lat="28.438880460447017" lon="-11.102812969978192"><ele>47.0</ele><time>2026-04-28T16:47:40Z</time></trkpt><trkpt lat="28.43893167646979" lon="-11.102957767434608"><ele>46.0</ele><time>2026-04-28T16:47:41Z</time></trkpt><trkpt lat="28.4389816335835" lon="-11.10309168945544"><ele>45.0</ele><time>2026-04-28T16:47:42Z</time></trkpt><trkpt lat="28.43902614056204" lon="-11.103221218985846"><ele>44.0</ele><time>2026-04-28T16:47:43Z</time></trkpt><trkpt lat="28.43906927015617" lon="-11.103338132902211"><ele>43.0</ele><time>2026-04-28T16:47:44Z</time></trkpt><trkpt lat="28.43910830922993" lon="-11.103447399617513"><ele>43.0</ele><time>2026-04-28T16:47:45Z</time></trkpt><trkpt lat="28.4391411626786" lon="-11.10354430980254"><ele>43.0</ele><time>2026-04-28T16:47:46Z</time></trkpt><trkpt lat="28.43917088307813" lon="-11.103633861403125"><ele>43.0</ele><time>2026-04-28T16:47:47Z</time></trkpt><trkpt lat="28.43919698500145" lon="-11.103716594281849"><ele>43.0</ele><time>2026-04-28T16:47:48Z</time></trkpt><trkpt lat="28.439220711372833" lon="-11.103813095423927"><ele>43.0</ele><time>2026-04-28T16:47:49Z</time></trkpt><trkpt lat="28.439239126333657" lon="-11.10392122552579"><ele>43.0</ele><time>2026-04-28T16:47:50Z</time></trkpt><trkpt lat="28.439255622489718" lon="-11.104024174908796"><ele>42.4</ele><time>2026-04-28T16:47:51Z</time></trkpt><trkpt lat="28.43926893840902" lon="-11.10412476190914"><ele>41.8</ele><time>2026-04-28T16:47:52Z</time></trkpt><trkpt lat="28.43928960934861" lon="-11.104232494311127"><ele>41.2</ele><time>2026-04-28T16:47:53Z</time></trkpt><trkpt lat="28.43931221494609" lon="-11.104348899290812"><ele>40.6</ele><time>2026-04-28T16:47:54Z</time></trkpt><trkpt lat="28.43933847469135" lon="-11.104479605406441"><ele>40.0</ele><time>2026-04-28T16:47:55Z</time></trkpt><trkpt lat="28.439363119820072" lon="-11.104611636058452"><ele>40.0</ele><time>2026-04-28T16:47:56Z</time></trkpt><trkpt lat="28.439387923574266" lon="-11.104727624205474"><ele>40.0</ele><time>2026-04-28T16:47:57Z</time></trkpt><trkpt lat="28.439409858524947" lon="-11.1048437236695"><ele>40.0</ele><time>2026-04-28T16:47:58Z</time></trkpt><trkpt lat="28.43943473810883" lon="-11.104965689309164"><ele>40.0</ele><time>2026-04-28T16:47:59Z</time></trkpt><trkpt lat="28.439459315078928" lon="-11.105080713503162"><ele>40.0</ele><time>2026-04-28T16:48:00Z</time></trkpt><trkpt lat="28.43948056903896" lon="-11.105191754231019"><ele>39.8</ele><time>2026-04-28T16:48:01Z</time></trkpt><trkpt lat="28.43950313243221" lon="-11.105309406982936"><ele>39.6</ele><time>2026-04-28T16:48:02Z</time></trkpt><trkpt lat="28.439528376144064" lon="-11.105429458898668"><ele>39.4</ele><time>2026-04-28T16:48:03Z</time></trkpt><trkpt lat="28.439557478558555" lon="-11.105543344039896"><ele>39.2</ele><time>2026-04-28T16:48:04Z</time></trkpt><trkpt lat="28.439579426708754" lon="-11.105659266737"><ele>39.0</ele><time>2026-04-28T16:48:05Z</time></trkpt><trkpt lat="28.439596373393254" lon="-11.105765081597225"><ele>39.666666666666664</ele><time>2026-04-28T16:48:06Z</time></trkpt><trkpt lat="28.43961157859477" lon="-11.105866412874642"><ele>40.333333333333336</ele><time>2026-04-28T16:48:07Z</time></trkpt><trkpt lat="28.439580605968622" lon="-11.105973138121621"><ele>41.0</ele><time>2026-04-28T16:48:08Z</time></trkpt><trkpt lat="28.439600255218647" lon="-11.106060604919982"><ele>41.66666666666667</ele><time>2026-04-28T16:48:09Z</time></trkpt><trkpt lat="28.43960393915994" lon="-11.106161121396928"><ele>42.333333333333336</ele><time>2026-04-28T16:48:10Z</time></trkpt><trkpt lat="28.43957751150542" lon="-11.106245260500044"><ele>43.0</ele><time>2026-04-28T16:48:11Z</time></trkpt><trkpt lat="28.439535258812555" lon="-11.106327697601008"><ele>43.0</ele><time>2026-04-28T16:48:12Z</time></trkpt><trkpt lat="28.439481189677725" lon="-11.106406282914145"><ele>43.0</ele><time>2026-04-28T16:48:13Z</time></trkpt><trkpt lat="28.439430361041573" lon="-11.106466422347857"><ele>43.0</ele><time>2026-04-28T16:48:14Z</time></trkpt><trkpt lat="28.439350159116902" lon="-11.106542122902999"><ele>43.0</ele><time>2026-04-28T16:48:16Z</time></trkpt><trkpt lat="28.43929888500585" lon="-11.106600725769523"><ele>43.0</ele><time>2026-04-28T16:48:18Z</time></trkpt><trkpt lat="28.439247453130495" lon="-11.106651702651508"><ele>43.0</ele><time>2026-04-28T16:48:21Z</time></trkpt><trkpt lat="28.439318338087336" lon="-11.106783831778996"><ele>43.2</ele><time>2026-04-28T16:48:23Z</time></trkpt><trkpt lat="28.439367421256545" lon="-11.10684076780881"><ele>43.4</ele><time>2026-04-28T16:48:24Z</time></trkpt><trkpt lat="28.43942088034787" lon="-11.106907541332735"><ele>43.6</ele><time>2026-04-28T16:48:25Z</time></trkpt><trkpt lat="28.4394803846542" lon="-11.106980271447423"><ele>43.800000000000004</ele><time>2026-04-28T16:48:26Z</time></trkpt><trkpt lat="28.43954944360187" lon="-11.107070332790167"><ele>44.0</ele><time>2026-04-28T16:48:27Z</time></trkpt><trkpt lat="28.439621858878592" lon="-11.107161995214375"><ele>43.6</ele><time>2026-04-28T16:48:28Z</time></trkpt><trkpt lat="28.439696967104123" lon="-11.107258646195229"><ele>43.2</ele><time>2026-04-28T16:48:29Z</time></trkpt><trkpt lat="28.439770004956966" lon="-11.107354774947984"><ele>42.800000000000004</ele><time>2026-04-28T16:48:30Z</time></trkpt><trkpt lat="28.43983602447804" lon="-11.107445771045075"><ele>42.400000000000006</ele><time>2026-04-28T16:48:31Z</time></trkpt><trkpt lat="28.439904755604925" lon="-11.107533180964847"><ele>42.0</ele><time>2026-04-28T16:48:32Z</time></trkpt><trkpt lat="28.439979313333797" lon="-11.107622848594321"><ele>42.0</ele><time>2026-04-28T16:48:33Z</time></trkpt><trkpt lat="28.440043912979544" lon="-11.107708850111907"><ele>42.0</ele><time>2026-04-28T16:48:34Z</time></trkpt><trkpt lat="28.440105273335607" lon="-11.107790168234503"><ele>42.0</ele><time>2026-04-28T16:48:35Z</time></trkpt><trkpt lat="28.44016701038524" lon="-11.10787325785174"><ele>42.0</ele><time>2026-04-28T16:48:36Z</time></trkpt><trkpt lat="28.440222922506692" lon="-11.107948101549809"><ele>42.0</ele><time>2026-04-28T16:48:37Z</time></trkpt><trkpt lat="28.44027734834496" lon="-11.108020843971524"><ele>42.0</ele><time>2026-04-28T16:48:38Z</time></trkpt><trkpt lat="28.440339010177418" lon="-11.108097314409486"><ele>42.0</ele><time>2026-04-28T16:48:39Z</time></trkpt><trkpt lat="28.440402343329016" lon="-11.108174025532469"><ele>42.0</ele><time>2026-04-28T16:48:40Z</time></trkpt><trkpt lat="28.4404674188127" lon="-11.108251188607035"><ele>42.0</ele><time>2026-04-28T16:48:41Z</time></trkpt><trkpt lat="28.440529548986383" lon="-11.108330104440288"><ele>42.0</ele><time>2026-04-28T16:48:42Z</time></trkpt><trkpt lat="28.440595848335906" lon="-11.10841718648607"><ele>42.6</ele><time>2026-04-28T16:48:43Z</time></trkpt><trkpt lat="28.440666794603082" lon="-11.108506885243006"><ele>43.2</ele><time>2026-04-28T16:48:44Z</time></trkpt><trkpt lat="28.440730195191684" lon="-11.10858486719746"><ele>43.8</ele><time>2026-04-28T16:48:45Z</time></trkpt><trkpt lat="28.440789276555613" lon="-11.108658678593903"><ele>44.4</ele><time>2026-04-28T16:48:46Z</time></trkpt><trkpt lat="28.440843661104125" lon="-11.108726746758325"><ele>45.0</ele><time>2026-04-28T16:48:47Z</time></trkpt><trkpt lat="28.440903507061822" lon="-11.108800021268895"><ele>45.0</ele><time>2026-04-28T16:48:48Z</time></trkpt><trkpt lat="28.44096461094416" lon="-11.108874005602392"><ele>45.0</ele><time>2026-04-28T16:48:49Z</time></trkpt><trkpt lat="28.44099681844565" lon="-11.108981715509758"><ele>45.0</ele><time>2026-04-28T16:48:50.001Z</time></trkpt><trkpt lat="28.44106049087702" lon="-11.109035911009164"><ele>45.0</ele><time>2026-04-28T16:48:51.001Z</time></trkpt><trkpt lat="28.441120090115213" lon="-11.109084562136394"><ele>45.0</ele><time>2026-04-28T16:48:52.001Z</time></trkpt><trkpt lat="28.44118442149612" lon="-11.109109033597553"><ele>45.0</ele><time>2026-04-28T16:48:53.001Z</time></trkpt><trkpt lat="28.441242266286167" lon="-11.109146579713231"><ele>45.0</ele><time>2026-04-28T16:48:54.001Z</time></trkpt><trkpt lat="28.44129648073872" lon="-11.109200300994994"><ele>45.0</ele><time>2026-04-28T16:48:55.001Z</time></trkpt><trkpt lat="28.441381138603866" lon="-11.109204826707888"><ele>45.0</ele><time>2026-04-28T16:48:56.001Z</time></trkpt><trkpt lat="28.441450136310127" lon="-11.109244677481042"><ele>45.0</ele><time>2026-04-28T16:48:57.001Z</time></trkpt><trkpt lat="28.441514187786897" lon="-11.109291251350832"><ele>45.0</ele><time>2026-04-28T16:48:58.001Z</time></trkpt><trkpt lat="28.441582811367528" lon="-11.109341124003091"><ele>45.0</ele><time>2026-04-28T16:48:59.001Z</time></trkpt><trkpt lat="28.441655628060598" lon="-11.109389760432284"><ele>45.0</ele><time>2026-04-28T16:49:00.001Z</time></trkpt><trkpt lat="28.441725015673157" lon="-11.109454983933198"><ele>45.0</ele><time>2026-04-28T16:49:01.001Z</time></trkpt><trkpt lat="28.441840754467183" lon="-11.109452632386532"><ele>45.0</ele><time>2026-04-28T16:49:02.001Z</time></trkpt><trkpt lat="28.441944712086833" lon="-11.109469971850222"><ele>45.0</ele><time>2026-04-28T16:49:03.001Z</time></trkpt><trkpt lat="28.442050982228846" lon="-11.109487660005769"><ele>45.0</ele><time>2026-04-28T16:49:04.001Z</time></trkpt><trkpt lat="28.442164755648896" lon="-11.109502278852128"><ele>44.5</ele><time>2026-04-28T16:49:05.001Z</time></trkpt><trkpt lat="28.442283384050526" lon="-11.109520390473794"><ele>44.0</ele><time>2026-04-28T16:49:06.001Z</time></trkpt><trkpt lat="28.442406690358332" lon="-11.109539043371372"><ele>43.5</ele><time>2026-04-28T16:49:07.001Z</time></trkpt><trkpt lat="28.442536579135133" lon="-11.109557656426784"><ele>43.0</ele><time>2026-04-28T16:49:08.001Z</time></trkpt><trkpt lat="28.442655450329127" lon="-11.10957464948802"><ele>43.0</ele><time>2026-04-28T16:49:09.001Z</time></trkpt><trkpt lat="28.44278180066664" lon="-11.109598314025618"><ele>43.0</ele><time>2026-04-28T16:49:10.001Z</time></trkpt><trkpt lat="28.442909881524212" lon="-11.109634435970516"><ele>43.0</ele><time>2026-04-28T16:49:11.001Z</time></trkpt><trkpt lat="28.44303774404143" lon="-11.109674506779719"><ele>43.0</ele><time>2026-04-28T16:49:12.001Z</time></trkpt><trkpt lat="28.44316078904564" lon="-11.109717520228621"><ele>43.0</ele><time>2026-04-28T16:49:13.001Z</time></trkpt><trkpt lat="28.443276389523735" lon="-11.109762180655283"><ele>43.0</ele><time>2026-04-28T16:49:14.001Z</time></trkpt><trkpt lat="28.443386607520814" lon="-11.109809517519931"><ele>43.0</ele><time>2026-04-28T16:49:15.001Z</time></trkpt><trkpt lat="28.443489508088703" lon="-11.109853461528186"><ele>43.0</ele><time>2026-04-28T16:49:16.001Z</time></trkpt><trkpt lat="28.44359182267679" lon="-11.109898455474527"><ele>43.2</ele><time>2026-04-28T16:49:17.001Z</time></trkpt><trkpt lat="28.443694234877146" lon="-11.109943345655777"><ele>43.4</ele><time>2026-04-28T16:49:18.001Z</time></trkpt><trkpt lat="28.443796427204376" lon="-11.109985723687867"><ele>43.6</ele><time>2026-04-28T16:49:19.001Z</time></trkpt><trkpt lat="28.443896527545274" lon="-11.110027318503455"><ele>43.800000000000004</ele><time>2026-04-28T16:49:20.001Z</time></trkpt><trkpt lat="28.443998029154987" lon="-11.110066819663492"><ele>44.0</ele><time>2026-04-28T16:49:21.001Z</time></trkpt><trkpt lat="28.444100586756914" lon="-11.11010578756695"><ele>44.0</ele><time>2026-04-28T16:49:22.001Z</time></trkpt><trkpt lat="28.444197804668327" lon="-11.110146775859219"><ele>44.0</ele><time>2026-04-28T16:49:23.001Z</time></trkpt><trkpt lat="28.444289259346665" lon="-11.110184085513827"><ele>44.0</ele><time>2026-04-28T16:49:24.001Z</time></trkpt><trkpt lat="28.444368866333736" lon="-11.110216785970502"><ele>44.0</ele><time>2026-04-28T16:49:25.001Z</time></trkpt><trkpt lat="28.44444290486743" lon="-11.110245274329076"><ele>44.0</ele><time>2026-04-28T16:49:26.001Z</time></trkpt><trkpt lat="28.444523422310617" lon="-11.110277950862356"><ele>44.0</ele><time>2026-04-28T16:49:27.001Z</time></trkpt><trkpt lat="28.44460767348631" lon="-11.110318081179292"><ele>43.83333333333333</ele><time>2026-04-28T16:49:28.001Z</time></trkpt><trkpt lat="28.444695971490543" lon="-11.110361101273432"><ele>43.666666666666664</ele><time>2026-04-28T16:49:29.001Z</time></trkpt><trkpt lat="28.444777308825664" lon="-11.110401440977007"><ele>43.5</ele><time>2026-04-28T16:49:30.001Z</time></trkpt><trkpt lat="28.444855080923578" lon="-11.110438578070493"><ele>43.333333333333336</ele><time>2026-04-28T16:49:31.001Z</time></trkpt><trkpt lat="28.444938093777427" lon="-11.110470865451013"><ele>43.16666666666667</ele><time>2026-04-28T16:49:32.001Z</time></trkpt><trkpt lat="28.445023183556458" lon="-11.110499397691699"><ele>43.0</ele><time>2026-04-28T16:49:33.001Z</time></trkpt><trkpt lat="28.445102841853306" lon="-11.11052539968834"><ele>43.00000000000001</ele><time>2026-04-28T16:49:34.001Z</time></trkpt><trkpt lat="28.445173641655703" lon="-11.110549425648783"><ele>43.0</ele><time>2026-04-28T16:49:35.001Z</time></trkpt><trkpt lat="28.445242584379933" lon="-11.11057323065161"><ele>43.0</ele><time>2026-04-28T16:49:36.001Z</time></trkpt><trkpt lat="28.445312216976024" lon="-11.11059786654216"><ele>43.0</ele><time>2026-04-28T16:49:37Z</time></trkpt><trkpt lat="28.445385238432085" lon="-11.11062753376502"><ele>43.0</ele><time>2026-04-28T16:49:38Z</time></trkpt><trkpt lat="28.445455605615884" lon="-11.11066015139277"><ele>43.00000000000001</ele><time>2026-04-28T16:49:39Z</time></trkpt><trkpt lat="28.445524886372713" lon="-11.110688194449827"><ele>43.0</ele><time>2026-04-28T16:49:40Z</time></trkpt><trkpt lat="28.445585618268847" lon="-11.110708958596634"><ele>42.8</ele><time>2026-04-28T16:49:41Z</time></trkpt><trkpt lat="28.44570584268899" lon="-11.110757792206224"><ele>42.599999999999994</ele><time>2026-04-28T16:49:43Z</time></trkpt><trkpt lat="28.445773356545974" lon="-11.11079161238101"><ele>42.400000000000006</ele><time>2026-04-28T16:49:44Z</time></trkpt><trkpt lat="28.445851115555776" lon="-11.110826320822959"><ele>42.2</ele><time>2026-04-28T16:49:45Z</time></trkpt><trkpt lat="28.445930240910503" lon="-11.110860331020339"><ele>42.0</ele><time>2026-04-28T16:49:46Z</time></trkpt><trkpt lat="28.446011981003434" lon="-11.110895197969608"><ele>42.0</ele><time>2026-04-28T16:49:47Z</time></trkpt><trkpt lat="28.446096749345127" lon="-11.110924918787097"><ele>42.0</ele><time>2026-04-28T16:49:48Z</time></trkpt><trkpt lat="28.446186217337882" lon="-11.11095792671367"><ele>42.0</ele><time>2026-04-28T16:49:49Z</time></trkpt><trkpt lat="28.446284405331163" lon="-11.110998883362459"><ele>42.0</ele><time>2026-04-28T16:49:50Z</time></trkpt><trkpt lat="28.446373060068105" lon="-11.111034649409936"><ele>42.0</ele><time>2026-04-28T16:49:51Z</time></trkpt><trkpt lat="28.44644263684919" lon="-11.111060963004228"><ele>42.0</ele><time>2026-04-28T16:49:52Z</time></trkpt><trkpt lat="28.44653941726424" lon="-11.111104111509043"><ele>42.0</ele><time>2026-04-28T16:49:54Z</time></trkpt><trkpt lat="28.44661496248346" lon="-11.111131363180403"><ele>42.0</ele><time>2026-04-28T16:49:56Z</time></trkpt><trkpt lat="28.44673242665359" lon="-11.111178848363979"><ele>42.0</ele><time>2026-04-28T16:49:58Z</time></trkpt><trkpt lat="28.446798818925423" lon="-11.111208284701274"><ele>42.0</ele><time>2026-04-28T16:49:59Z</time></trkpt><trkpt lat="28.446878647974273" lon="-11.111242188377991"><ele>42.0</ele><time>2026-04-28T16:50:00Z</time></trkpt><trkpt lat="28.446964693392548" lon="-11.111279407999374"><ele>42.0</ele><time>2026-04-28T16:50:01Z</time></trkpt><trkpt lat="28.447057528301023" lon="-11.111314757646833"><ele>42.0</ele><time>2026-04-28T16:50:02Z</time></trkpt><trkpt lat="28.44714554564032" lon="-11.111354762506505"><ele>42.0</ele><time>2026-04-28T16:50:03Z</time></trkpt><trkpt lat="28.447247728352334" lon="-11.111392405527184"><ele>42.0</ele><time>2026-04-28T16:50:04Z</time></trkpt><trkpt lat="28.447354584814217" lon="-11.111435741851459"><ele>41.8</ele><time>2026-04-28T16:50:05Z</time></trkpt><trkpt lat="28.447463942437206" lon="-11.111480336509638"><ele>41.6</ele><time>2026-04-28T16:50:06Z</time></trkpt><trkpt lat="28.447572472511386" lon="-11.111526766133336"><ele>41.4</ele><time>2026-04-28T16:50:07Z</time></trkpt><trkpt lat="28.447673699926348" lon="-11.111572324903502"><ele>41.199999999999996</ele><time>2026-04-28T16:50:08Z</time></trkpt><trkpt lat="28.44776428944379" lon="-11.111612122884866"><ele>41.0</ele><time>2026-04-28T16:50:09Z</time></trkpt><trkpt lat="28.44784964706154" lon="-11.111650951116227"><ele>40.83333333333333</ele><time>2026-04-28T16:50:10Z</time></trkpt><trkpt lat="28.447941467600376" lon="-11.111692795217506"><ele>40.666666666666664</ele><time>2026-04-28T16:50:11Z</time></trkpt><trkpt lat="28.448029296457534" lon="-11.1117315269453"><ele>40.5</ele><time>2026-04-28T16:50:12Z</time></trkpt><trkpt lat="28.448104290904517" lon="-11.111761885118236"><ele>40.333333333333336</ele><time>2026-04-28T16:50:13Z</time></trkpt><trkpt lat="28.448173827065922" lon="-11.111787282486507"><ele>40.16666666666667</ele><time>2026-04-28T16:50:14Z</time></trkpt><trkpt lat="28.448249860956373" lon="-11.111803359488446"><ele>40.0</ele><time>2026-04-28T16:50:15Z</time></trkpt><trkpt lat="28.448336783118457" lon="-11.111801200838924"><ele>40.0</ele><time>2026-04-28T16:50:16Z</time></trkpt><trkpt lat="28.448418476066628" lon="-11.11176217599231"><ele>40.0</ele><time>2026-04-28T16:50:17Z</time></trkpt><trkpt lat="28.448495261857282" lon="-11.111725498503308"><ele>40.0</ele><time>2026-04-28T16:50:18Z</time></trkpt><trkpt lat="28.448575860853637" lon="-11.111701842812487"><ele>40.0</ele><time>2026-04-28T16:50:19Z</time></trkpt><trkpt lat="28.448658064167077" lon="-11.111698968905731"><ele>40.0</ele><time>2026-04-28T16:50:20Z</time></trkpt><trkpt lat="28.448733155916436" lon="-11.111718662473363"><ele>40.0</ele><time>2026-04-28T16:50:21Z</time></trkpt><trkpt lat="28.448799481292447" lon="-11.111761552175324"><ele>39.8</ele><time>2026-04-28T16:50:22Z</time></trkpt><trkpt lat="28.44885702749327" lon="-11.111824460493175"><ele>39.6</ele><time>2026-04-28T16:50:23Z</time></trkpt><trkpt lat="28.448900546759205" lon="-11.111905995356242"><ele>39.4</ele><time>2026-04-28T16:50:24Z</time></trkpt><trkpt lat="28.448942937898654" lon="-11.111986717103091"><ele>39.2</ele><time>2026-04-28T16:50:25Z</time></trkpt><trkpt lat="28.44899656059171" lon="-11.112083757642447"><ele>39.0</ele><time>2026-04-28T16:50:26Z</time></trkpt><trkpt lat="28.44905246558058" lon="-11.112191232015908"><ele>39.0</ele><time>2026-04-28T16:50:27Z</time></trkpt><trkpt lat="28.449113380156632" lon="-11.112295428191498"><ele>39.0</ele><time>2026-04-28T16:50:28Z</time></trkpt><trkpt lat="28.449171765367648" lon="-11.112392114978256"><ele>39.0</ele><time>2026-04-28T16:50:29Z</time></trkpt><trkpt lat="28.44922557511613" lon="-11.112475190411743"><ele>39.0</ele><time>2026-04-28T16:50:30Z</time></trkpt><trkpt lat="28.44927571544713" lon="-11.112546886287262"><ele>39.0</ele><time>2026-04-28T16:50:31Z</time></trkpt><trkpt lat="28.449323353317222" lon="-11.112614336014355"><ele>39.5</ele><time>2026-04-28T16:50:32Z</time></trkpt><trkpt lat="28.449375336356027" lon="-11.11268029064016"><ele>40.0</ele><time>2026-04-28T16:50:33Z</time></trkpt><trkpt lat="28.449423697112003" lon="-11.112747766238181"><ele>40.5</ele><time>2026-04-28T16:50:34Z</time></trkpt><trkpt lat="28.449470234777685" lon="-11.112812291488522"><ele>41.0</ele><time>2026-04-28T16:50:35Z</time></trkpt><trkpt lat="28.44952088606314" lon="-11.112877966904135"><ele>41.5</ele><time>2026-04-28T16:50:36Z</time></trkpt><trkpt lat="28.44957375346049" lon="-11.112943158860725"><ele>42.0</ele><time>2026-04-28T16:50:37Z</time></trkpt><trkpt lat="28.449630164978018" lon="-11.113011713732112"><ele>42.2</ele><time>2026-04-28T16:50:38Z</time></trkpt><trkpt lat="28.4496975202686" lon="-11.113082546233693"><ele>42.400000000000006</ele><time>2026-04-28T16:50:39Z</time></trkpt><trkpt lat="28.44977607726122" lon="-11.113155273549134"><ele>42.599999999999994</ele><time>2026-04-28T16:50:40Z</time></trkpt><trkpt lat="28.44986344311982" lon="-11.113236606463817"><ele>42.8</ele><time>2026-04-28T16:50:41Z</time></trkpt><trkpt lat="28.4499543717891" lon="-11.113326756710709"><ele>43.0</ele><time>2026-04-28T16:50:42Z</time></trkpt><trkpt lat="28.450052374160233" lon="-11.113425537010176"><ele>43.25</ele><time>2026-04-28T16:50:43Z</time></trkpt><trkpt lat="28.450154480072143" lon="-11.113524934876713"><ele>43.5</ele><time>2026-04-28T16:50:44Z</time></trkpt><trkpt lat="28.450249435265864" lon="-11.113619694971874"><ele>43.75</ele><time>2026-04-28T16:50:45Z</time></trkpt><trkpt lat="28.45035127573876" lon="-11.113719789651192"><ele>44.0</ele><time>2026-04-28T16:50:46Z</time></trkpt><trkpt lat="28.450455745966128" lon="-11.11381714279035"><ele>43.75</ele><time>2026-04-28T16:50:47Z</time></trkpt><trkpt lat="28.450560177659465" lon="-11.113911068381956"><ele>43.5</ele><time>2026-04-28T16:50:48Z</time></trkpt><trkpt lat="28.450664011808673" lon="-11.11400576978772"><ele>43.25</ele><time>2026-04-28T16:50:49Z</time></trkpt><trkpt lat="28.450769647521092" lon="-11.114105710167909"><ele>43.0</ele><time>2026-04-28T16:50:50Z</time></trkpt><trkpt lat="28.45087588989995" lon="-11.114213385373889"><ele>42.75</ele><time>2026-04-28T16:50:51Z</time></trkpt><trkpt lat="28.450984984266416" lon="-11.11432377299142"><ele>42.5</ele><time>2026-04-28T16:50:52Z</time></trkpt><trkpt lat="28.451090447690405" lon="-11.114430622464772"><ele>42.25</ele><time>2026-04-28T16:50:53Z</time></trkpt><trkpt lat="28.45120085482461" lon="-11.114542190441501"><ele>42.0</ele><time>2026-04-28T16:50:54Z</time></trkpt><trkpt lat="28.45131765591005" lon="-11.114658566333617"><ele>42.0</ele><time>2026-04-28T16:50:55Z</time></trkpt><trkpt lat="28.451434962967408" lon="-11.11477337463737"><ele>42.0</ele><time>2026-04-28T16:50:56Z</time></trkpt><trkpt lat="28.451550198312994" lon="-11.114887480391385"><ele>42.0</ele><time>2026-04-28T16:50:57Z</time></trkpt><trkpt lat="28.451665693799338" lon="-11.114999764340867"><ele>43.0</ele><time>2026-04-28T16:50:58Z</time></trkpt><trkpt lat="28.45178297122462" lon="-11.115113063495425"><ele>44.0</ele><time>2026-04-28T16:50:59Z</time></trkpt><trkpt lat="28.451900358979188" lon="-11.115225472501736"><ele>45.0</ele><time>2026-04-28T16:51:00Z</time></trkpt><trkpt lat="28.45200789727601" lon="-11.11535879289829"><ele>45.0</ele><time>2026-04-28T16:51:01Z</time></trkpt><trkpt lat="28.452142769828942" lon="-11.115456326792435"><ele>45.0</ele><time>2026-04-28T16:51:02Z</time></trkpt><trkpt lat="28.452269915305347" lon="-11.115577497834567"><ele>45.0</ele><time>2026-04-28T16:51:03Z</time></trkpt><trkpt lat="28.452402774345238" lon="-11.115706265558785"><ele>46.0</ele><time>2026-04-28T16:51:04Z</time></trkpt><trkpt lat="28.452534679573933" lon="-11.115838378676834"><ele>47.0</ele><time>2026-04-28T16:51:05Z</time></trkpt><trkpt lat="28.4526668068238" lon="-11.115977518173564"><ele>48.0</ele><time>2026-04-28T16:51:06Z</time></trkpt><trkpt lat="28.452798744860562" lon="-11.116115262327266"><ele>48.0</ele><time>2026-04-28T16:51:07Z</time></trkpt><trkpt lat="28.452931502114208" lon="-11.116251405148226"><ele>48.0</ele><time>2026-04-28T16:51:08Z</time></trkpt><trkpt lat="28.45306423890466" lon="-11.11638831672978"><ele>48.0</ele><time>2026-04-28T16:51:09Z</time></trkpt><trkpt lat="28.453196776229536" lon="-11.116523168098283"><ele>49.0</ele><time>2026-04-28T16:51:10Z</time></trkpt><trkpt lat="28.45332287648559" lon="-11.116643929445166"><ele>50.0</ele><time>2026-04-28T16:51:11.001Z</time></trkpt><trkpt lat="28.453441002415083" lon="-11.116754981248064"><ele>51.0</ele><time>2026-04-28T16:51:12.001Z</time></trkpt><trkpt lat="28.45355626255846" lon="-11.116865253438732"><ele>51.0</ele><time>2026-04-28T16:51:13.001Z</time></trkpt><trkpt lat="28.453683671037343" lon="-11.116991131040514"><ele>51.0</ele><time>2026-04-28T16:51:14.001Z</time></trkpt><trkpt lat="28.453801700319303" lon="-11.117105693845126"><ele>51.0</ele><time>2026-04-28T16:51:15.001Z</time></trkpt><trkpt lat="28.453910641706532" lon="-11.117212849184407"><ele>50.5</ele><time>2026-04-28T16:51:16.001Z</time></trkpt><trkpt lat="28.454008744141753" lon="-11.117313470366373"><ele>50.0</ele><time>2026-04-28T16:51:17.001Z</time></trkpt><trkpt lat="28.45409604187292" lon="-11.11740774085651"><ele>49.5</ele><time>2026-04-28T16:51:18.001Z</time></trkpt><trkpt lat="28.454190325521" lon="-11.117504720097381"><ele>49.0</ele><time>2026-04-28T16:51:19.001Z</time></trkpt><trkpt lat="28.45429393528015" lon="-11.11760663244219"><ele>50.666666666666664</ele><time>2026-04-28T16:51:20.001Z</time></trkpt><trkpt lat="28.45440028307422" lon="-11.117715571157424"><ele>52.33333333333333</ele><time>2026-04-28T16:51:21.001Z</time></trkpt><trkpt lat="28.454508539583703" lon="-11.117831497986677"><ele>54.0</ele><time>2026-04-28T16:51:22.001Z</time></trkpt><trkpt lat="28.454622284076084" lon="-11.117963449158873"><ele>54.66666666666667</ele><time>2026-04-28T16:51:23.001Z</time></trkpt><trkpt lat="28.454738814590634" lon="-11.118112202254055"><ele>55.333333333333336</ele><time>2026-04-28T16:51:24.001Z</time></trkpt><trkpt lat="28.454857937041403" lon="-11.11827138129654"><ele>56.0</ele><time>2026-04-28T16:51:25.001Z</time></trkpt><trkpt lat="28.4549829641655" lon="-11.118442554210533"><ele>56.0</ele><time>2026-04-28T16:51:26.001Z</time></trkpt><trkpt lat="28.455106312885803" lon="-11.118622642739691"><ele>56.0</ele><time>2026-04-28T16:51:27.001Z</time></trkpt><trkpt lat="28.4552272136621" lon="-11.11881414565622"><ele>56.0</ele><time>2026-04-28T16:51:28.001Z</time></trkpt><trkpt lat="28.455345853568662" lon="-11.119014657154057"><ele>57.66666666666667</ele><time>2026-04-28T16:51:29.001Z</time></trkpt><trkpt lat="28.455455495074123" lon="-11.119234821248687"><ele>59.33333333333333</ele><time>2026-04-28T16:51:30.001Z</time></trkpt><trkpt lat="28.455563286438768" lon="-11.11945354972576"><ele>61.0</ele><time>2026-04-28T16:51:31.001Z</time></trkpt><trkpt lat="28.455660672900223" lon="-11.119670999689859"><ele>61.0</ele><time>2026-04-28T16:51:32.001Z</time></trkpt><trkpt lat="28.455756591635012" lon="-11.119886990931972"><ele>61.0</ele><time>2026-04-28T16:51:33.001Z</time></trkpt><trkpt lat="28.455846288045194" lon="-11.120104757664464"><ele>61.0</ele><time>2026-04-28T16:51:34.001Z</time></trkpt><trkpt lat="28.455935168612868" lon="-11.120325106695853"><ele>60.666666666666664</ele><time>2026-04-28T16:51:35.001Z</time></trkpt><trkpt lat="28.456018517286378" lon="-11.120537537841392"><ele>60.33333333333333</ele><time>2026-04-28T16:51:36.001Z</time></trkpt><trkpt lat="28.456100897848998" lon="-11.12074209289465"><ele>60.0</ele><time>2026-04-28T16:51:37.001Z</time></trkpt><trkpt lat="28.456183442029193" lon="-11.120939652817"><ele>60.0</ele><time>2026-04-28T16:51:38.001Z</time></trkpt><trkpt lat="28.45626731440157" lon="-11.121133784599719"><ele>60.0</ele><time>2026-04-28T16:51:39.001Z</time></trkpt><trkpt lat="28.456348779384356" lon="-11.121328419504794"><ele>60.0</ele><time>2026-04-28T16:51:40.001Z</time></trkpt><trkpt lat="28.456429293415283" lon="-11.121531744917498"><ele>61.66666666666667</ele><time>2026-04-28T16:51:41.001Z</time></trkpt><trkpt lat="28.456509631655052" lon="-11.121744629233316"><ele>63.333333333333336</ele><time>2026-04-28T16:51:42.001Z</time></trkpt><trkpt lat="28.456594197809224" lon="-11.121959618851498"><ele>65.0</ele><time>2026-04-28T16:51:43Z</time></trkpt><trkpt lat="28.456680904280187" lon="-11.122179229270087"><ele>66.0</ele><time>2026-04-28T16:51:44Z</time></trkpt><trkpt lat="28.456767845675035" lon="-11.122401560730133"><ele>67.0</ele><time>2026-04-28T16:51:45Z</time></trkpt><trkpt lat="28.456852966438433" lon="-11.122623473711167"><ele>68.0</ele><time>2026-04-28T16:51:46Z</time></trkpt><trkpt lat="28.456940449828707" lon="-11.122846356832941"><ele>68.0</ele><time>2026-04-28T16:51:47Z</time></trkpt><trkpt lat="28.457025668142503" lon="-11.123066331642022"><ele>68.0</ele><time>2026-04-28T16:51:48Z</time></trkpt><trkpt lat="28.457114046013018" lon="-11.123287321914733"><ele>68.0</ele><time>2026-04-28T16:51:49Z</time></trkpt><trkpt lat="28.457204018727346" lon="-11.123511626773297"><ele>70.0</ele><time>2026-04-28T16:51:50Z</time></trkpt><trkpt lat="28.45729354560443" lon="-11.123737304277135"><ele>72.0</ele><time>2026-04-28T16:51:51Z</time></trkpt><trkpt lat="28.45738542983865" lon="-11.123968656295549"><ele>74.0</ele><time>2026-04-28T16:51:52Z</time></trkpt><trkpt lat="28.457477535969513" lon="-11.124202818413016"><ele>74.66666666666667</ele><time>2026-04-28T16:51:53Z</time></trkpt><trkpt lat="28.457567820976973" lon="-11.124435834780517"><ele>75.33333333333333</ele><time>2026-04-28T16:51:54Z</time></trkpt><trkpt lat="28.45765640102683" lon="-11.124665818353856"><ele>76.0</ele><time>2026-04-28T16:51:55Z</time></trkpt><trkpt lat="28.457743941689667" lon="-11.124892757765073"><ele>75.66666666666666</ele><time>2026-04-28T16:51:56Z</time></trkpt><trkpt lat="28.45783055522039" lon="-11.125118324100814"><ele>75.33333333333333</ele><time>2026-04-28T16:51:57Z</time></trkpt><trkpt lat="28.45791903523036" lon="-11.125341639017485"><ele>75.0</ele><time>2026-04-28T16:51:58Z</time></trkpt><trkpt lat="28.458009426178318" lon="-11.125559346334157"><ele>77.33333333333333</ele><time>2026-04-28T16:51:59Z</time></trkpt><trkpt lat="28.4580998437225" lon="-11.125773284127073"><ele>79.66666666666666</ele><time>2026-04-28T16:52:00Z</time></trkpt><trkpt lat="28.458189949903392" lon="-11.12598434242486"><ele>82.0</ele><time>2026-04-28T16:52:01Z</time></trkpt><trkpt lat="28.458277738743586" lon="-11.126195719595914"><ele>82.0</ele><time>2026-04-28T16:52:02Z</time></trkpt><trkpt lat="28.45836214272251" lon="-11.126406679875215"><ele>82.0</ele><time>2026-04-28T16:52:03Z</time></trkpt><trkpt lat="28.458443821136903" lon="-11.12660984196368"><ele>82.0</ele><time>2026-04-28T16:52:04Z</time></trkpt><trkpt lat="28.4585220359911" lon="-11.126806853495296"><ele>83.33333333333333</ele><time>2026-04-28T16:52:05Z</time></trkpt><trkpt lat="28.45860059932865" lon="-11.127004264061288"><ele>84.66666666666667</ele><time>2026-04-28T16:52:06Z</time></trkpt><trkpt lat="28.45867916392785" lon="-11.127200196773607"><ele>86.0</ele><time>2026-04-28T16:52:07Z</time></trkpt><trkpt lat="28.458750204646538" lon="-11.127378722655617"><ele>87.33333333333334</ele><time>2026-04-28T16:52:08Z</time></trkpt><trkpt lat="28.45881605247441" lon="-11.127547195231317"><ele>88.66666666666667</ele><time>2026-04-28T16:52:09Z</time></trkpt><trkpt lat="28.458874136230445" lon="-11.127698365605074"><ele>90.0</ele><time>2026-04-28T16:52:10Z</time></trkpt><trkpt lat="28.458934131938477" lon="-11.127848760197637"><ele>90.0</ele><time>2026-04-28T16:52:11Z</time></trkpt><trkpt lat="28.458994616559416" lon="-11.12799970354922"><ele>90.0</ele><time>2026-04-28T16:52:12Z</time></trkpt><trkpt lat="28.459057342744412" lon="-11.128153535733627"><ele>90.0</ele><time>2026-04-28T16:52:13Z</time></trkpt><trkpt lat="28.459117876412343" lon="-11.128293740560387"><ele>90.0</ele><time>2026-04-28T16:52:14Z</time></trkpt><trkpt lat="28.459181491134384" lon="-11.128416441662278"><ele>90.75</ele><time>2026-04-28T16:52:15Z</time></trkpt><trkpt lat="28.459220468013815" lon="-11.128546281719702"><ele>91.5</ele><time>2026-04-28T16:52:16Z</time></trkpt><trkpt lat="28.45933927362824" lon="-11.128632338556566"><ele>92.25</ele><time>2026-04-28T16:52:17Z</time></trkpt><trkpt lat="28.459409506674504" lon="-11.128747251388976"><ele>93.0</ele><time>2026-04-28T16:52:18Z</time></trkpt><trkpt lat="28.459451664255347" lon="-11.128882181016309"><ele>93.0</ele><time>2026-04-28T16:52:19Z</time></trkpt><trkpt lat="28.459468921744897" lon="-11.12902794196058"><ele>93.0</ele><time>2026-04-28T16:52:20Z</time></trkpt><trkpt lat="28.459499324124955" lon="-11.12917621061882"><ele>93.0</ele><time>2026-04-28T16:52:21.001Z</time></trkpt><trkpt lat="28.459552208982092" lon="-11.129321747711819"><ele>93.0</ele><time>2026-04-28T16:52:22.001Z</time></trkpt><trkpt lat="28.459611912127013" lon="-11.129463959140939"><ele>94.75</ele><time>2026-04-28T16:52:23.001Z</time></trkpt><trkpt lat="28.459672184208657" lon="-11.129602067264054"><ele>96.5</ele><time>2026-04-28T16:52:24.001Z</time></trkpt><trkpt lat="28.459728204064866" lon="-11.129734261261234"><ele>98.25</ele><time>2026-04-28T16:52:25.001Z</time></trkpt><trkpt lat="28.459787990116716" lon="-11.129863002972053"><ele>100.0</ele><time>2026-04-28T16:52:26.001Z</time></trkpt><trkpt lat="28.459848380103278" lon="-11.130000816667357"><ele>100.0</ele><time>2026-04-28T16:52:27.001Z</time></trkpt><trkpt lat="28.459912671103286" lon="-11.130140555258706"><ele>100.0</ele><time>2026-04-28T16:52:28.001Z</time></trkpt><trkpt lat="28.459976143941955" lon="-11.130286125148567"><ele>100.0</ele><time>2026-04-28T16:52:29.001Z</time></trkpt><trkpt lat="28.46004300203381" lon="-11.130438000137078"><ele>100.0</ele><time>2026-04-28T16:52:30.001Z</time></trkpt><trkpt lat="28.460111692886148" lon="-11.130596222429805"><ele>101.33333333333334</ele><time>2026-04-28T16:52:31.001Z</time></trkpt><trkpt lat="28.460180694249495" lon="-11.130761281288473"><ele>102.66666666666666</ele><time>2026-04-28T16:52:32.001Z</time></trkpt><trkpt lat="28.460250837182198" lon="-11.130927925948967"><ele>104.0</ele><time>2026-04-28T16:52:33.001Z</time></trkpt><trkpt lat="28.46032090150713" lon="-11.131088214580666"><ele>104.0</ele><time>2026-04-28T16:52:34.001Z</time></trkpt><trkpt lat="28.46039098764959" lon="-11.1312505700279"><ele>104.0</ele><time>2026-04-28T16:52:35.001Z</time></trkpt><trkpt lat="28.460462638949632" lon="-11.131423572969524"><ele>104.0</ele><time>2026-04-28T16:52:36.001Z</time></trkpt><trkpt lat="28.460534046406607" lon="-11.13159837876912"><ele>105.0</ele><time>2026-04-28T16:52:37.001Z</time></trkpt><trkpt lat="28.460604179753034" lon="-11.131766853688944"><ele>106.0</ele><time>2026-04-28T16:52:38.001Z</time></trkpt><trkpt lat="28.460679596148314" lon="-11.131937158861112"><ele>107.0</ele><time>2026-04-28T16:52:39.001Z</time></trkpt><trkpt lat="28.460757392728674" lon="-11.132103378549257"><ele>107.0</ele><time>2026-04-28T16:52:40.001Z</time></trkpt><trkpt lat="28.46084122786535" lon="-11.132270508446009"><ele>107.0</ele><time>2026-04-28T16:52:41.001Z</time></trkpt><trkpt lat="28.460922672308943" lon="-11.132435239398013"><ele>107.0</ele><time>2026-04-28T16:52:42.001Z</time></trkpt><trkpt lat="28.461002886990247" lon="-11.132601879728382"><ele>109.0</ele><time>2026-04-28T16:52:43.001Z</time></trkpt><trkpt lat="28.46107882073395" lon="-11.132770466934288"><ele>111.0</ele><time>2026-04-28T16:52:44.001Z</time></trkpt><trkpt lat="28.46115438527603" lon="-11.13294318965332"><ele>113.0</ele><time>2026-04-28T16:52:45.001Z</time></trkpt><trkpt lat="28.46123147549353" lon="-11.13312554067131"><ele>114.0</ele><time>2026-04-28T16:52:46.001Z</time></trkpt><trkpt lat="28.461308987186438" lon="-11.133312313269176"><ele>115.0</ele><time>2026-04-28T16:52:47.001Z</time></trkpt><trkpt lat="28.46138820098403" lon="-11.133502535754555"><ele>116.0</ele><time>2026-04-28T16:52:48.001Z</time></trkpt><trkpt lat="28.461468758892053" lon="-11.133691485286468"><ele>116.0</ele><time>2026-04-28T16:52:49.001Z</time></trkpt><trkpt lat="28.461549287293334" lon="-11.133883404944443"><ele>116.0</ele><time>2026-04-28T16:52:50.001Z</time></trkpt><trkpt lat="28.461629399677246" lon="-11.134074244270113"><ele>116.0</ele><time>2026-04-28T16:52:51.001Z</time></trkpt><trkpt lat="28.46170925047608" lon="-11.134268854869461"><ele>118.0</ele><time>2026-04-28T16:52:52.001Z</time></trkpt><trkpt lat="28.46178884323413" lon="-11.134465672547245"><ele>120.0</ele><time>2026-04-28T16:52:53.001Z</time></trkpt><trkpt lat="28.461868151510934" lon="-11.134663505289751"><ele>122.0</ele><time>2026-04-28T16:52:54.001Z</time></trkpt><trkpt lat="28.46194693314499" lon="-11.134860950719926"><ele>123.0</ele><time>2026-04-28T16:52:55.001Z</time></trkpt><trkpt lat="28.46201961015775" lon="-11.13505863452804"><ele>124.0</ele><time>2026-04-28T16:52:56.001Z</time></trkpt><trkpt lat="28.462089363882875" lon="-11.135258955185346"><ele>125.0</ele><time>2026-04-28T16:52:57.001Z</time></trkpt><trkpt lat="28.462157233277214" lon="-11.135460668470317"><ele>125.66666666666666</ele><time>2026-04-28T16:52:58.001Z</time></trkpt><trkpt lat="28.46222676107782" lon="-11.1356666888592"><ele>126.33333333333334</ele><time>2026-04-28T16:52:59.001Z</time></trkpt><trkpt lat="28.46229576133581" lon="-11.135874845006365"><ele>127.0</ele><time>2026-04-28T16:53:00.001Z</time></trkpt><trkpt lat="28.46235945990628" lon="-11.13608588195137"><ele>128.33333333333334</ele><time>2026-04-28T16:53:01.001Z</time></trkpt><trkpt lat="28.462415714668804" lon="-11.136299223062482"><ele>129.66666666666666</ele><time>2026-04-28T16:53:02.001Z</time></trkpt><trkpt lat="28.462464981434003" lon="-11.136515941911457"><ele>131.0</ele><time>2026-04-28T16:53:03.001Z</time></trkpt><trkpt lat="28.46251162148679" lon="-11.136732404315064"><ele>132.0</ele><time>2026-04-28T16:53:04.001Z</time></trkpt><trkpt lat="28.462553727731574" lon="-11.136946742843124"><ele>133.0</ele><time>2026-04-28T16:53:05.001Z</time></trkpt><trkpt lat="28.46259047213848" lon="-11.137161072971345"><ele>134.0</ele><time>2026-04-28T16:53:06.001Z</time></trkpt><trkpt lat="28.46262384640161" lon="-11.13737663810082"><ele>135.33333333333331</ele><time>2026-04-28T16:53:07.001Z</time></trkpt><trkpt lat="28.462651482340522" lon="-11.137584280592066"><ele>136.66666666666666</ele><time>2026-04-28T16:53:08.001Z</time></trkpt><trkpt lat="28.462676461338535" lon="-11.137790957946912"><ele>138.0</ele><time>2026-04-28T16:53:09.001Z</time></trkpt><trkpt lat="28.46269952650326" lon="-11.138000772027524"><ele>138.0</ele><time>2026-04-28T16:53:10.001Z</time></trkpt><trkpt lat="28.46271980728361" lon="-11.13821710866287"><ele>138.0</ele><time>2026-04-28T16:53:11.001Z</time></trkpt><trkpt lat="28.462737665644873" lon="-11.138437263056714"><ele>138.0</ele><time>2026-04-28T16:53:12.001Z</time></trkpt><trkpt lat="28.462752301759057" lon="-11.13866412322554"><ele>140.0</ele><time>2026-04-28T16:53:13.001Z</time></trkpt><trkpt lat="28.462769666850473" lon="-11.138903264234514"><ele>142.0</ele><time>2026-04-28T16:53:14.001Z</time></trkpt><trkpt lat="28.462788963529896" lon="-11.139144088828798"><ele>144.0</ele><time>2026-04-28T16:53:15.001Z</time></trkpt><trkpt lat="28.462808342742182" lon="-11.13938219808982"><ele>145.33333333333334</ele><time>2026-04-28T16:53:16.001Z</time></trkpt><trkpt lat="28.462826253336328" lon="-11.139610258447155"><ele>146.66666666666669</ele><time>2026-04-28T16:53:17.001Z</time></trkpt><trkpt lat="28.46284535593147" lon="-11.139835931753025"><ele>148.0</ele><time>2026-04-28T16:53:18.001Z</time></trkpt><trkpt lat="28.46286808751901" lon="-11.140064311737307"><ele>149.66666666666669</ele><time>2026-04-28T16:53:19.001Z</time></trkpt><trkpt lat="28.462893815201134" lon="-11.140298728075548"><ele>151.33333333333334</ele><time>2026-04-28T16:53:20.001Z</time></trkpt><trkpt lat="28.462921410076326" lon="-11.14053479363948"><ele>153.0</ele><time>2026-04-28T16:53:21.001Z</time></trkpt><trkpt lat="28.462946430823212" lon="-11.140769842925522"><ele>160.0</ele><time>2026-04-28T16:53:22.001Z</time></trkpt><trkpt lat="28.462969665929005" lon="-11.141006419656044"><ele>167.0</ele><time>2026-04-28T16:53:23.001Z</time></trkpt><trkpt lat="28.462992886871287" lon="-11.141241839905963"><ele>174.0</ele><time>2026-04-28T16:53:24.001Z</time></trkpt><trkpt lat="28.463018534408818" lon="-11.141474651424751"><ele>174.0</ele><time>2026-04-28T16:53:25.001Z</time></trkpt><trkpt lat="28.463048994072647" lon="-11.141707186138992"><ele>174.0</ele><time>2026-04-28T16:53:26.001Z</time></trkpt><trkpt lat="28.46308432202471" lon="-11.141936657792034"><ele>174.0</ele><time>2026-04-28T16:53:27.001Z</time></trkpt><trkpt lat="28.463125220063908" lon="-11.142168587818476"><ele>175.33333333333334</ele><time>2026-04-28T16:53:28.001Z</time></trkpt><trkpt lat="28.46316778914412" lon="-11.14239818989666"><ele>176.66666666666669</ele><time>2026-04-28T16:53:29.001Z</time></trkpt><trkpt lat="28.463213340951448" lon="-11.142627009515873"><ele>178.0</ele><time>2026-04-28T16:53:30.001Z</time></trkpt><trkpt lat="28.46326380360812" lon="-11.142852609574884"><ele>178.0</ele><time>2026-04-28T16:53:31.001Z</time></trkpt><trkpt lat="28.463318856324566" lon="-11.143076637984295"><ele>178.0</ele><time>2026-04-28T16:53:32.001Z</time></trkpt><trkpt lat="28.46337881803652" lon="-11.143295581405564"><ele>178.0</ele><time>2026-04-28T16:53:33.001Z</time></trkpt><trkpt lat="28.463441372632488" lon="-11.14351735164156"><ele>179.0</ele><time>2026-04-28T16:53:34.001Z</time></trkpt><trkpt lat="28.463506058097842" lon="-11.143741181439227"><ele>180.0</ele><time>2026-04-28T16:53:35.001Z</time></trkpt><trkpt lat="28.463574658441377" lon="-11.143965629021723"><ele>181.0</ele><time>2026-04-28T16:53:36.001Z</time></trkpt><trkpt lat="28.46365353979779" lon="-11.144188914861308"><ele>181.33333333333334</ele><time>2026-04-28T16:53:37.001Z</time></trkpt><trkpt lat="28.463736647970318" lon="-11.1444051898757"><ele>181.66666666666666</ele><time>2026-04-28T16:53:38.001Z</time></trkpt><trkpt lat="28.463820022091433" lon="-11.144615948524233"><ele>182.0</ele><time>2026-04-28T16:53:39.001Z</time></trkpt><trkpt lat="28.463898481338024" lon="-11.144821258853433"><ele>182.33333333333331</ele><time>2026-04-28T16:53:40.001Z</time></trkpt><trkpt lat="28.463975853565742" lon="-11.145021722749625"><ele>182.66666666666666</ele><time>2026-04-28T16:53:41.001Z</time></trkpt><trkpt lat="28.46405008723062" lon="-11.14521332499711"><ele>183.0</ele><time>2026-04-28T16:53:42.001Z</time></trkpt><trkpt lat="28.464117920346265" lon="-11.145393461454383"><ele>183.0</ele><time>2026-04-28T16:53:43.001Z</time></trkpt><trkpt lat="28.464180145516515" lon="-11.14555857386383"><ele>183.0</ele><time>2026-04-28T16:53:44.001Z</time></trkpt><trkpt lat="28.464240700977435" lon="-11.14570660182439"><ele>183.0</ele><time>2026-04-28T16:53:45.001Z</time></trkpt><trkpt lat="28.464293756726374" lon="-11.145844405947042"><ele>183.0</ele><time>2026-04-28T16:53:46.001Z</time></trkpt><trkpt lat="28.464342123197802" lon="-11.145973443271108"><ele>183.0</ele><time>2026-04-28T16:53:47.001Z</time></trkpt><trkpt lat="28.464389944535398" lon="-11.146100724247713"><ele>183.0</ele><time>2026-04-28T16:53:48.001Z</time></trkpt><trkpt lat="28.464435063376424" lon="-11.146228812553847"><ele>183.0</ele><time>2026-04-28T16:53:49.001Z</time></trkpt><trkpt lat="28.46448165728531" lon="-11.14636212140437"><ele>183.0</ele><time>2026-04-28T16:53:50.001Z</time></trkpt><trkpt lat="28.46452879323805" lon="-11.146497403189775"><ele>183.0</ele><time>2026-04-28T16:53:51.001Z</time></trkpt><trkpt lat="28.46457626210382" lon="-11.146635282223508"><ele>183.0</ele><time>2026-04-28T16:53:52.001Z</time></trkpt><trkpt lat="28.464624372588563" lon="-11.14677027088078"><ele>183.0</ele><time>2026-04-28T16:53:53.001Z</time></trkpt><trkpt lat="28.46467146419978" lon="-11.14690433346669"><ele>183.0</ele><time>2026-04-28T16:53:54.001Z</time></trkpt><trkpt lat="28.464721337362306" lon="-11.147046782077537"><ele>183.0</ele><time>2026-04-28T16:53:55.001Z</time></trkpt><trkpt lat="28.464775697585537" lon="-11.147200791484222"><ele>183.0</ele><time>2026-04-28T16:53:56.001Z</time></trkpt><trkpt lat="28.46483498213557" lon="-11.147366286705537"><ele>183.0</ele><time>2026-04-28T16:53:57.001Z</time></trkpt><trkpt lat="28.464899753963948" lon="-11.147546198681201"><ele>183.33333333333334</ele><time>2026-04-28T16:53:58.001Z</time></trkpt><trkpt lat="28.46497068526788" lon="-11.147736912392842"><ele>183.66666666666669</ele><time>2026-04-28T16:53:59.001Z</time></trkpt><trkpt lat="28.4650453056655" lon="-11.14792674080487"><ele>184.0</ele><time>2026-04-28T16:54:00.001Z</time></trkpt><trkpt lat="28.465118820852975" lon="-11.148117237231851"><ele>184.33333333333334</ele><time>2026-04-28T16:54:01.001Z</time></trkpt><trkpt lat="28.46519656352514" lon="-11.148319137220808"><ele>184.66666666666666</ele><time>2026-04-28T16:54:02.001Z</time></trkpt><trkpt lat="28.46527745870154" lon="-11.148524462989183"><ele>185.0</ele><time>2026-04-28T16:54:03.001Z</time></trkpt><trkpt lat="28.465355929131444" lon="-11.148726255555882"><ele>185.0</ele><time>2026-04-28T16:54:04.001Z</time></trkpt><trkpt lat="28.46543382043443" lon="-11.148928618280575"><ele>185.0</ele><time>2026-04-28T16:54:05.001Z</time></trkpt><trkpt lat="28.46551367555378" lon="-11.149122356113992"><ele>185.0</ele><time>2026-04-28T16:54:06.001Z</time></trkpt><trkpt lat="28.46559206520534" lon="-11.149316529078357"><ele>185.0</ele><time>2026-04-28T16:54:07.001Z</time></trkpt><trkpt lat="28.465666453579065" lon="-11.149511307755425"><ele>185.0</ele><time>2026-04-28T16:54:08.001Z</time></trkpt><trkpt lat="28.465739392510947" lon="-11.149709670980679"><ele>185.0</ele><time>2026-04-28T16:54:09.001Z</time></trkpt><trkpt lat="28.465807004479718" lon="-11.149913305530573"><ele>185.33333333333331</ele><time>2026-04-28T16:54:10.001Z</time></trkpt><trkpt lat="28.46586840633782" lon="-11.150115922425627"><ele>185.66666666666666</ele><time>2026-04-28T16:54:11.001Z</time></trkpt><trkpt lat="28.465923276761334" lon="-11.15031999354306"><ele>186.0</ele><time>2026-04-28T16:54:12.001Z</time></trkpt><trkpt lat="28.465973351971613" lon="-11.150523851960266"><ele>186.0</ele><time>2026-04-28T16:54:13.001Z</time></trkpt><trkpt lat="28.46601702521942" lon="-11.150729793750711"><ele>186.0</ele><time>2026-04-28T16:54:14.001Z</time></trkpt><trkpt lat="28.466056685808784" lon="-11.150938430435831"><ele>186.0</ele><time>2026-04-28T16:54:15.001Z</time></trkpt><trkpt lat="28.466092439395126" lon="-11.15115088673796"><ele>186.0</ele><time>2026-04-28T16:54:16.001Z</time></trkpt><trkpt lat="28.46612661089845" lon="-11.151370801945165"><ele>186.0</ele><time>2026-04-28T16:54:17.001Z</time></trkpt><trkpt lat="28.466154269903974" lon="-11.151590388685246"><ele>186.0</ele><time>2026-04-28T16:54:18.001Z</time></trkpt><trkpt lat="28.466179152119555" lon="-11.1518151010493"><ele>186.0</ele><time>2026-04-28T16:54:19.001Z</time></trkpt><trkpt lat="28.466198067713634" lon="-11.152040202814428"><ele>186.0</ele><time>2026-04-28T16:54:20.001Z</time></trkpt><trkpt lat="28.466211475496152" lon="-11.152266227662857"><ele>186.0</ele><time>2026-04-28T16:54:21.001Z</time></trkpt><trkpt lat="28.46621992997433" lon="-11.152493673956439"><ele>186.33333333333334</ele><time>2026-04-28T16:54:22.001Z</time></trkpt><trkpt lat="28.466227265597315" lon="-11.15272061707598"><ele>186.66666666666669</ele><time>2026-04-28T16:54:23.001Z</time></trkpt><trkpt lat="28.466231693892972" lon="-11.152945264788407"><ele>187.0</ele><time>2026-04-28T16:54:24.001Z</time></trkpt><trkpt lat="28.46623633244422" lon="-11.153173924295814"><ele>187.33333333333334</ele><time>2026-04-28T16:54:25.001Z</time></trkpt><trkpt lat="28.46624382546661" lon="-11.153400081619916"><ele>187.66666666666666</ele><time>2026-04-28T16:54:26.001Z</time></trkpt><trkpt lat="28.4662492096472" lon="-11.15362528509521"><ele>188.0</ele><time>2026-04-28T16:54:27.001Z</time></trkpt><trkpt lat="28.466254696597925" lon="-11.153849245845834"><ele>187.33333333333331</ele><time>2026-04-28T16:54:28.001Z</time></trkpt><trkpt lat="28.46626073026723" lon="-11.154076584785608"><ele>186.66666666666666</ele><time>2026-04-28T16:54:29.001Z</time></trkpt><trkpt lat="28.466264581293547" lon="-11.15430441978833"><ele>186.0</ele><time>2026-04-28T16:54:30.001Z</time></trkpt><trkpt lat="28.466268871757762" lon="-11.154530005850175"><ele>186.0</ele><time>2026-04-28T16:54:31.001Z</time></trkpt><trkpt lat="28.46627684799613" lon="-11.154750614053873"><ele>186.0</ele><time>2026-04-28T16:54:32.001Z</time></trkpt><trkpt lat="28.46628430390148" lon="-11.15496812609021"><ele>186.0</ele><time>2026-04-28T16:54:33.001Z</time></trkpt><trkpt lat="28.466288687663205" lon="-11.155188905825662"><ele>186.33333333333334</ele><time>2026-04-28T16:54:34.001Z</time></trkpt><trkpt lat="28.466294262022863" lon="-11.155408876034603"><ele>186.66666666666669</ele><time>2026-04-28T16:54:35.001Z</time></trkpt><trkpt lat="28.46629958781586" lon="-11.155630850298023"><ele>187.0</ele><time>2026-04-28T16:54:36.001Z</time></trkpt><trkpt lat="28.466306045724565" lon="-11.15585616036155"><ele>187.33333333333334</ele><time>2026-04-28T16:54:37.001Z</time></trkpt><trkpt lat="28.46631174949083" lon="-11.156084232285224"><ele>187.66666666666666</ele><time>2026-04-28T16:54:38.001Z</time></trkpt><trkpt lat="28.46631640340435" lon="-11.156317636171405"><ele>188.0</ele><time>2026-04-28T16:54:39.001Z</time></trkpt><trkpt lat="28.466320082518088" lon="-11.156548550878378"><ele>188.0</ele><time>2026-04-28T16:54:40.001Z</time></trkpt><trkpt lat="28.466322538148507" lon="-11.15677479602809"><ele>188.0</ele><time>2026-04-28T16:54:41.001Z</time></trkpt><trkpt lat="28.466326372734517" lon="-11.1569984032798"><ele>188.0</ele><time>2026-04-28T16:54:42.001Z</time></trkpt><trkpt lat="28.466332387058706" lon="-11.157223463966986"><ele>187.66666666666666</ele><time>2026-04-28T16:54:43.001Z</time></trkpt><trkpt lat="28.46633861597368" lon="-11.157447504109669"><ele>187.33333333333334</ele><time>2026-04-28T16:54:44.001Z</time></trkpt><trkpt lat="28.46634442671954" lon="-11.15767339369093"><ele>187.0</ele><time>2026-04-28T16:54:45.001Z</time></trkpt><trkpt lat="28.466349986350306" lon="-11.157896157380371"><ele>187.0</ele><time>2026-04-28T16:54:46.001Z</time></trkpt><trkpt lat="28.46635525111151" lon="-11.158119893576872"><ele>187.0</ele><time>2026-04-28T16:54:47.001Z</time></trkpt><trkpt lat="28.46636056813686" lon="-11.158340292558846"><ele>187.0</ele><time>2026-04-28T16:54:48.001Z</time></trkpt><trkpt lat="28.466366495371663" lon="-11.158564553671452"><ele>187.33333333333334</ele><time>2026-04-28T16:54:49.001Z</time></trkpt><trkpt lat="28.466369703903972" lon="-11.158789453470849"><ele>187.66666666666666</ele><time>2026-04-28T16:54:50.001Z</time></trkpt><trkpt lat="28.46637146067993" lon="-11.159013694579128"><ele>188.0</ele><time>2026-04-28T16:54:51.001Z</time></trkpt><trkpt lat="28.46637488969441" lon="-11.15924053655205"><ele>188.33333333333331</ele><time>2026-04-28T16:54:52.001Z</time></trkpt><trkpt lat="28.466378924198484" lon="-11.159466462493935"><ele>188.66666666666666</ele><time>2026-04-28T16:54:53.001Z</time></trkpt><trkpt lat="28.466384554198882" lon="-11.15969226803713"><ele>189.0</ele><time>2026-04-28T16:54:54.001Z</time></trkpt><trkpt lat="28.4663908312093" lon="-11.159922238891467"><ele>189.33333333333334</ele><time>2026-04-28T16:54:55.001Z</time></trkpt><trkpt lat="28.466395047015872" lon="-11.160152022465647"><ele>189.66666666666669</ele><time>2026-04-28T16:54:56.001Z</time></trkpt><trkpt lat="28.466398085012944" lon="-11.160382799832384"><ele>190.0</ele><time>2026-04-28T16:54:57.001Z</time></trkpt><trkpt lat="28.466403207558212" lon="-11.160611170440001"><ele>190.0</ele><time>2026-04-28T16:54:58.001Z</time></trkpt><trkpt lat="28.466407589086405" lon="-11.160838875903165"><ele>190.0</ele><time>2026-04-28T16:54:59.001Z</time></trkpt><trkpt lat="28.46641344056619" lon="-11.161067209384328"><ele>190.0</ele><time>2026-04-28T16:55:00.001Z</time></trkpt><trkpt lat="28.466419140087957" lon="-11.161298063890992"><ele>190.0</ele><time>2026-04-28T16:55:01.001Z</time></trkpt><trkpt lat="28.466424639884586" lon="-11.161530875093899"><ele>190.0</ele><time>2026-04-28T16:55:02.001Z</time></trkpt><trkpt lat="28.46642952211123" lon="-11.16176440260135"><ele>190.0</ele><time>2026-04-28T16:55:03.001Z</time></trkpt><trkpt lat="28.466435703514996" lon="-11.161998029381751"><ele>190.0</ele><time>2026-04-28T16:55:04.001Z</time></trkpt><trkpt lat="28.46644389709494" lon="-11.162233334604199"><ele>190.0</ele><time>2026-04-28T16:55:05.001Z</time></trkpt><trkpt lat="28.466451407076494" lon="-11.162471441368497"><ele>190.0</ele><time>2026-04-28T16:55:06.001Z</time></trkpt><trkpt lat="28.46645777914173" lon="-11.162710304127911"><ele>190.0</ele><time>2026-04-28T16:55:07.001Z</time></trkpt><trkpt lat="28.466462752356026" lon="-11.162950271546258"><ele>190.0</ele><time>2026-04-28T16:55:08.001Z</time></trkpt><trkpt lat="28.466469561838917" lon="-11.163193618981595"><ele>190.0</ele><time>2026-04-28T16:55:09.001Z</time></trkpt><trkpt lat="28.46647637073572" lon="-11.16343911416055"><ele>189.66666666666669</ele><time>2026-04-28T16:55:10.001Z</time></trkpt><trkpt lat="28.466483471753833" lon="-11.16368787321062"><ele>189.33333333333334</ele><time>2026-04-28T16:55:11.001Z</time></trkpt><trkpt lat="28.46649193057283" lon="-11.16393666814225"><ele>189.0</ele><time>2026-04-28T16:55:12.001Z</time></trkpt><trkpt lat="28.466498924191942" lon="-11.164188194827988"><ele>190.0</ele><time>2026-04-28T16:55:13.001Z</time></trkpt><trkpt lat="28.46650341843618" lon="-11.164443568869816"><ele>191.0</ele><time>2026-04-28T16:55:14.001Z</time></trkpt><trkpt lat="28.46650992564178" lon="-11.16470459125086"><ele>191.0</ele><time>2026-04-28T16:55:15.001Z</time></trkpt><trkpt lat="28.466516369754068" lon="-11.164969618037649"><ele>191.0</ele><time>2026-04-28T16:55:16.001Z</time></trkpt><trkpt lat="28.466522946535513" lon="-11.165238625162814"><ele>191.0</ele><time>2026-04-28T16:55:17.001Z</time></trkpt><trkpt lat="28.466527863339408" lon="-11.165507693349506"><ele>191.0</ele><time>2026-04-28T16:55:18.001Z</time></trkpt><trkpt lat="28.466534889877323" lon="-11.16577882698672"><ele>192.0</ele><time>2026-04-28T16:55:19.001Z</time></trkpt><trkpt lat="28.46654160365527" lon="-11.166052024901214"><ele>193.0</ele><time>2026-04-28T16:55:20.001Z</time></trkpt><trkpt lat="28.466546797978353" lon="-11.166321453320554"><ele>192.0</ele><time>2026-04-28T16:55:21.001Z</time></trkpt><trkpt lat="28.466554235105594" lon="-11.166588820346487"><ele>191.0</ele><time>2026-04-28T16:55:22.001Z</time></trkpt><trkpt lat="28.466561027082886" lon="-11.166853728564687"><ele>191.0</ele><time>2026-04-28T16:55:23.001Z</time></trkpt><trkpt lat="28.466565910615763" lon="-11.167121556868787"><ele>191.0</ele><time>2026-04-28T16:55:24.001Z</time></trkpt><trkpt lat="28.46657564820703" lon="-11.167397559466089"><ele>192.0</ele><time>2026-04-28T16:55:25.001Z</time></trkpt><trkpt lat="28.46658866295355" lon="-11.16767977630773"><ele>193.0</ele><time>2026-04-28T16:55:26.001Z</time></trkpt><trkpt lat="28.466604538301986" lon="-11.16796857290108"><ele>193.5</ele><time>2026-04-28T16:55:27.001Z</time></trkpt><trkpt lat="28.46662870848199" lon="-11.168262739586934"><ele>194.0</ele><time>2026-04-28T16:55:28.001Z</time></trkpt><trkpt lat="28.466662180328658" lon="-11.168560580658225"><ele>194.0</ele><time>2026-04-28T16:55:29.001Z</time></trkpt><trkpt lat="28.466700897878564" lon="-11.168858683596016"><ele>194.0</ele><time>2026-04-28T16:55:30.001Z</time></trkpt><trkpt lat="28.466744793988187" lon="-11.16915453704041"><ele>193.0</ele><time>2026-04-28T16:55:31.001Z</time></trkpt><trkpt lat="28.466793295846262" lon="-11.169448063460624"><ele>192.0</ele><time>2026-04-28T16:55:32.001Z</time></trkpt><trkpt lat="28.466841933153354" lon="-11.169738688995487"><ele>192.5</ele><time>2026-04-28T16:55:33.001Z</time></trkpt><trkpt lat="28.46688936712371" lon="-11.170028263591856"><ele>193.0</ele><time>2026-04-28T16:55:34.001Z</time></trkpt><trkpt lat="28.466935618717475" lon="-11.170317953744574"><ele>193.0</ele><time>2026-04-28T16:55:35.001Z</time></trkpt><trkpt lat="28.466982014680912" lon="-11.170608829027882"><ele>193.0</ele><time>2026-04-28T16:55:36.001Z</time></trkpt><trkpt lat="28.467027319810093" lon="-11.170901240564074"><ele>192.5</ele><time>2026-04-28T16:55:37.001Z</time></trkpt><trkpt lat="28.46707332324725" lon="-11.171192424578935"><ele>192.0</ele><time>2026-04-28T16:55:38.001Z</time></trkpt><trkpt lat="28.467120225832566" lon="-11.171485391981472"><ele>191.5</ele><time>2026-04-28T16:55:39.001Z</time></trkpt><trkpt lat="28.46716614259416" lon="-11.171778187785621"><ele>191.0</ele><time>2026-04-28T16:55:40.001Z</time></trkpt><trkpt lat="28.4672120271855" lon="-11.172070985630961"><ele>191.0</ele><time>2026-04-28T16:55:41.001Z</time></trkpt><trkpt lat="28.467259986914762" lon="-11.172364640872535"><ele>191.0</ele><time>2026-04-28T16:55:42.001Z</time></trkpt><trkpt lat="28.467306793534025" lon="-11.17265808579862"><ele>191.0</ele><time>2026-04-28T16:55:43.001Z</time></trkpt><trkpt lat="28.46735436418725" lon="-11.172954948615581"><ele>191.0</ele><time>2026-04-28T16:55:44.001Z</time></trkpt><trkpt lat="28.467401025804516" lon="-11.173242381275909"><ele>189.0</ele><time>2026-04-28T16:55:45.001Z</time></trkpt><trkpt lat="28.4674473023836" lon="-11.173533310759183"><ele>187.0</ele><time>2026-04-28T16:55:46.001Z</time></trkpt><trkpt lat="28.46749363596652" lon="-11.17382055576226"><ele>188.5</ele><time>2026-04-28T16:55:47.001Z</time></trkpt><trkpt lat="28.46753884821959" lon="-11.174105325422882"><ele>190.0</ele><time>2026-04-28T16:55:48.001Z</time></trkpt><trkpt lat="28.467583199268315" lon="-11.174388445976373"><ele>190.0</ele><time>2026-04-28T16:55:49.001Z</time></trkpt><trkpt lat="28.467629240120807" lon="-11.174674041617086"><ele>190.0</ele><time>2026-04-28T16:55:50.001Z</time></trkpt><trkpt lat="28.467675360169178" lon="-11.174958780751535"><ele>190.5</ele><time>2026-04-28T16:55:51.001Z</time></trkpt><trkpt lat="28.46771873269494" lon="-11.175238017003315"><ele>191.0</ele><time>2026-04-28T16:55:52.001Z</time></trkpt><trkpt lat="28.46776341348817" lon="-11.175513779608556"><ele>190.5</ele><time>2026-04-28T16:55:53.001Z</time></trkpt><trkpt lat="28.46780889861319" lon="-11.175792606933737"><ele>190.0</ele><time>2026-04-28T16:55:54.001Z</time></trkpt><trkpt lat="28.467854734220253" lon="-11.176077541433635"><ele>190.0</ele><time>2026-04-28T16:55:55.001Z</time></trkpt><trkpt lat="28.46790516784392" lon="-11.176356245910833"><ele>190.0</ele><time>2026-04-28T16:55:56.001Z</time></trkpt><trkpt lat="28.46795322233701" lon="-11.176622890611197"><ele>189.0</ele><time>2026-04-28T16:55:57.001Z</time></trkpt><trkpt lat="28.468006497112594" lon="-11.176885340681705"><ele>188.0</ele><time>2026-04-28T16:55:58.001Z</time></trkpt><trkpt lat="28.46805944593644" lon="-11.177140261525496"><ele>188.0</ele><time>2026-04-28T16:55:59.001Z</time></trkpt><trkpt lat="28.468110980867145" lon="-11.17739042814529"><ele>188.0</ele><time>2026-04-28T16:56:00.001Z</time></trkpt><trkpt lat="28.468161912198376" lon="-11.177628439918262"><ele>188.0</ele><time>2026-04-28T16:56:01.001Z</time></trkpt><trkpt lat="28.468212892446243" lon="-11.177853517918757"><ele>188.0</ele><time>2026-04-28T16:56:02.001Z</time></trkpt><trkpt lat="28.46826375372306" lon="-11.178079884763811"><ele>188.0</ele><time>2026-04-28T16:56:03.001Z</time></trkpt><trkpt lat="28.468314214501998" lon="-11.178307673840413"><ele>188.0</ele><time>2026-04-28T16:56:04.001Z</time></trkpt><trkpt lat="28.468362767601704" lon="-11.178535850007803"><ele>188.0</ele><time>2026-04-28T16:56:05.001Z</time></trkpt><trkpt lat="28.46841606159412" lon="-11.178764051865844"><ele>188.0</ele><time>2026-04-28T16:56:06.001Z</time></trkpt><trkpt lat="28.468470390959997" lon="-11.17899255780455"><ele>188.0</ele><time>2026-04-28T16:56:07.001Z</time></trkpt><trkpt lat="28.468521914447898" lon="-11.179228297758888"><ele>188.0</ele><time>2026-04-28T16:56:08.001Z</time></trkpt><trkpt lat="28.468575440228275" lon="-11.17947258653349"><ele>188.0</ele><time>2026-04-28T16:56:09.001Z</time></trkpt><trkpt lat="28.468629075893112" lon="-11.179722177956416"><ele>188.0</ele><time>2026-04-28T16:56:10.001Z</time></trkpt><trkpt lat="28.468684886215318" lon="-11.17997729585093"><ele>188.0</ele><time>2026-04-28T16:56:11.001Z</time></trkpt><trkpt lat="28.468743645189065" lon="-11.180237790954129"><ele>188.0</ele><time>2026-04-28T16:56:12.001Z</time></trkpt><trkpt lat="28.468804410590657" lon="-11.180500007140456"><ele>186.0</ele><time>2026-04-28T16:56:13.001Z</time></trkpt><trkpt lat="28.46886445698745" lon="-11.180765654716886"><ele>184.0</ele><time>2026-04-28T16:56:14.001Z</time></trkpt><trkpt lat="28.468921127182988" lon="-11.181033983980239"><ele>184.0</ele><time>2026-04-28T16:56:15.001Z</time></trkpt><trkpt lat="28.468976671162206" lon="-11.181300857754538"><ele>184.0</ele><time>2026-04-28T16:56:16.001Z</time></trkpt><trkpt lat="28.469033709388995" lon="-11.181567684372244"><ele>184.5</ele><time>2026-04-28T16:56:17.001Z</time></trkpt><trkpt lat="28.469093109880088" lon="-11.181836229413845"><ele>185.0</ele><time>2026-04-28T16:56:18.001Z</time></trkpt><trkpt lat="28.469152309276105" lon="-11.182105956679916"><ele>185.5</ele><time>2026-04-28T16:56:19.001Z</time></trkpt><trkpt lat="28.469211774062195" lon="-11.182375794619041"><ele>186.0</ele><time>2026-04-28T16:56:20Z</time></trkpt><trkpt lat="28.46927050218621" lon="-11.182646603936572"><ele>186.0</ele><time>2026-04-28T16:56:21Z</time></trkpt><trkpt lat="28.469329923539185" lon="-11.18291937806887"><ele>186.0</ele><time>2026-04-28T16:56:22Z</time></trkpt><trkpt lat="28.469389890836197" lon="-11.18319084682754"><ele>184.5</ele><time>2026-04-28T16:56:23Z</time></trkpt><trkpt lat="28.469450899225095" lon="-11.1834616372083"><ele>183.0</ele><time>2026-04-28T16:56:24Z</time></trkpt><trkpt lat="28.469512086754833" lon="-11.183733410683764"><ele>183.0</ele><time>2026-04-28T16:56:25Z</time></trkpt><trkpt lat="28.469572619104998" lon="-11.184002093941293"><ele>183.0</ele><time>2026-04-28T16:56:26Z</time></trkpt><trkpt lat="28.469636288201517" lon="-11.18427475181393"><ele>183.5</ele><time>2026-04-28T16:56:27Z</time></trkpt><trkpt lat="28.469693468404763" lon="-11.184544210368275"><ele>184.0</ele><time>2026-04-28T16:56:28Z</time></trkpt><trkpt lat="28.46975399722081" lon="-11.184815265978559"><ele>183.5</ele><time>2026-04-28T16:56:29Z</time></trkpt><trkpt lat="28.46981697339057" lon="-11.185094049865308"><ele>183.0</ele><time>2026-04-28T16:56:30Z</time></trkpt><trkpt lat="28.469879401794046" lon="-11.185368069016116"><ele>183.0</ele><time>2026-04-28T16:56:31Z</time></trkpt><trkpt lat="28.469941783091304" lon="-11.185644252536125"><ele>183.0</ele><time>2026-04-28T16:56:32Z</time></trkpt><trkpt lat="28.470004185981473" lon="-11.185919349297016"><ele>182.0</ele><time>2026-04-28T16:56:33Z</time></trkpt><trkpt lat="28.470067089726847" lon="-11.186194777095963"><ele>181.0</ele><time>2026-04-28T16:56:34Z</time></trkpt><trkpt lat="28.47012812125473" lon="-11.186470374233728"><ele>181.5</ele><time>2026-04-28T16:56:35Z</time></trkpt><trkpt lat="28.470189197319744" lon="-11.186749146140412"><ele>182.0</ele><time>2026-04-28T16:56:36Z</time></trkpt><trkpt lat="28.470253039391686" lon="-11.187023777924157"><ele>182.0</ele><time>2026-04-28T16:56:37Z</time></trkpt><trkpt lat="28.470313691111517" lon="-11.187300601184793"><ele>182.0</ele><time>2026-04-28T16:56:38Z</time></trkpt><trkpt lat="28.47037402014854" lon="-11.187577156811889"><ele>182.0</ele><time>2026-04-28T16:56:39Z</time></trkpt><trkpt lat="28.4704351326912" lon="-11.18785336635506"><ele>182.0</ele><time>2026-04-28T16:56:40Z</time></trkpt><trkpt lat="28.470496023371933" lon="-11.188129430953838"><ele>181.5</ele><time>2026-04-28T16:56:41Z</time></trkpt><trkpt lat="28.47055743614501" lon="-11.18840769792327"><ele>181.0</ele><time>2026-04-28T16:56:42Z</time></trkpt><trkpt lat="28.470617938236423" lon="-11.18868626205268"><ele>181.0</ele><time>2026-04-28T16:56:43Z</time></trkpt><trkpt lat="28.470674862424524" lon="-11.188969255538417"><ele>181.0</ele><time>2026-04-28T16:56:44Z</time></trkpt><trkpt lat="28.470733060500727" lon="-11.189259541737005"><ele>181.5</ele><time>2026-04-28T16:56:45Z</time></trkpt><trkpt lat="28.470795151288023" lon="-11.1895502181888"><ele>182.0</ele><time>2026-04-28T16:56:46Z</time></trkpt><trkpt lat="28.470859425918512" lon="-11.189842111587224"><ele>182.5</ele><time>2026-04-28T16:56:47Z</time></trkpt><trkpt lat="28.47092477348717" lon="-11.19013810011556"><ele>183.0</ele><time>2026-04-28T16:56:48Z</time></trkpt><trkpt lat="28.47098978621663" lon="-11.190425765730714"><ele>183.5</ele><time>2026-04-28T16:56:49Z</time></trkpt><trkpt lat="28.471052036661515" lon="-11.19071138841978"><ele>184.0</ele><time>2026-04-28T16:56:50Z</time></trkpt><trkpt lat="28.471109917288917" lon="-11.190988991351237"><ele>184.0</ele><time>2026-04-28T16:56:51Z</time></trkpt><trkpt lat="28.471165956157485" lon="-11.191259668005099"><ele>184.0</ele><time>2026-04-28T16:56:52Z</time></trkpt><trkpt lat="28.47124209883549" lon="-11.191518405781821"><ele>183.0</ele><time>2026-04-28T16:56:53Z</time></trkpt><trkpt lat="28.47129859679617" lon="-11.191777932396556"><ele>182.0</ele><time>2026-04-28T16:56:54Z</time></trkpt><trkpt lat="28.47134103968365" lon="-11.192040837105262"><ele>182.0</ele><time>2026-04-28T16:56:55Z</time></trkpt><trkpt lat="28.47140496788858" lon="-11.192290021851823"><ele>182.0</ele><time>2026-04-28T16:56:56Z</time></trkpt><trkpt lat="28.471467948123472" lon="-11.192533297050685"><ele>183.0</ele><time>2026-04-28T16:56:57Z</time></trkpt><trkpt lat="28.471559245237316" lon="-11.192765486286175"><ele>184.0</ele><time>2026-04-28T16:56:58Z</time></trkpt><trkpt lat="28.471643376220698" lon="-11.193009500845845"><ele>184.5</ele><time>2026-04-28T16:56:59Z</time></trkpt><trkpt lat="28.471732638933695" lon="-11.193258481384838"><ele>185.0</ele><time>2026-04-28T16:57:00Z</time></trkpt><trkpt lat="28.47182924121157" lon="-11.193507876208802"><ele>185.0</ele><time>2026-04-28T16:57:01Z</time></trkpt><trkpt lat="28.471934716259888" lon="-11.19375389053899"><ele>185.0</ele><time>2026-04-28T16:57:02Z</time></trkpt><trkpt lat="28.472058360394346" lon="-11.193994037439843"><ele>183.5</ele><time>2026-04-28T16:57:03Z</time></trkpt><trkpt lat="28.472192074386136" lon="-11.194246223794348"><ele>182.0</ele><time>2026-04-28T16:57:04Z</time></trkpt><trkpt lat="28.472322269231118" lon="-11.194507684694663"><ele>182.0</ele><time>2026-04-28T16:57:05Z</time></trkpt><trkpt lat="28.472439853305247" lon="-11.194774067795652"><ele>182.0</ele><time>2026-04-28T16:57:06Z</time></trkpt><trkpt lat="28.472591097805367" lon="-11.195006596081289"><ele>182.5</ele><time>2026-04-28T16:57:07Z</time></trkpt><trkpt lat="28.47274732022785" lon="-11.195233962264934"><ele>183.0</ele><time>2026-04-28T16:57:08Z</time></trkpt><trkpt lat="28.47289738052713" lon="-11.195459345881456"><ele>184.5</ele><time>2026-04-28T16:57:09Z</time></trkpt><trkpt lat="28.47303915634147" lon="-11.195681400761089"><ele>186.0</ele><time>2026-04-28T16:57:10Z</time></trkpt><trkpt lat="28.47317632840421" lon="-11.19589857145294"><ele>186.0</ele><time>2026-04-28T16:57:11Z</time></trkpt><trkpt lat="28.473309405976252" lon="-11.196112698478567"><ele>186.0</ele><time>2026-04-28T16:57:12Z</time></trkpt><trkpt lat="28.47344385025035" lon="-11.196326172664127"><ele>186.5</ele><time>2026-04-28T16:57:13Z</time></trkpt><trkpt lat="28.47357529116365" lon="-11.196538254178222"><ele>187.0</ele><time>2026-04-28T16:57:14Z</time></trkpt><trkpt lat="28.47370610663837" lon="-11.196752911201463"><ele>187.0</ele><time>2026-04-28T16:57:15Z</time></trkpt><trkpt lat="28.47384414538835" lon="-11.196974806562645"><ele>187.0</ele><time>2026-04-28T16:57:16Z</time></trkpt><trkpt lat="28.47398046913282" lon="-11.197197963388597"><ele>186.5</ele><time>2026-04-28T16:57:17Z</time></trkpt><trkpt lat="28.47411668954165" lon="-11.197421644961889"><ele>186.0</ele><time>2026-04-28T16:57:18Z</time></trkpt><trkpt lat="28.47425150224993" lon="-11.19764048653878"><ele>186.0</ele><time>2026-04-28T16:57:19Z</time></trkpt><trkpt lat="28.47438626567781" lon="-11.197857860059692"><ele>186.0</ele><time>2026-04-28T16:57:20Z</time></trkpt><trkpt lat="28.474520928883848" lon="-11.198075439936444"><ele>186.0</ele><time>2026-04-28T16:57:21Z</time></trkpt><trkpt lat="28.474653614553837" lon="-11.198291987140312"><ele>186.0</ele><time>2026-04-28T16:57:22Z</time></trkpt><trkpt lat="28.474791925432044" lon="-11.198518036231786"><ele>186.0</ele><time>2026-04-28T16:57:23Z</time></trkpt><trkpt lat="28.47493271514856" lon="-11.198744330500599"><ele>186.0</ele><time>2026-04-28T16:57:24Z</time></trkpt><trkpt lat="28.4750720938629" lon="-11.19896963093032"><ele>185.0</ele><time>2026-04-28T16:57:25Z</time></trkpt><trkpt lat="28.475211622821874" lon="-11.199195813354173"><ele>184.0</ele><time>2026-04-28T16:57:26Z</time></trkpt><trkpt lat="28.47535322265446" lon="-11.199423904038417"><ele>184.0</ele><time>2026-04-28T16:57:27Z</time></trkpt><trkpt lat="28.475494407439562" lon="-11.199654817881937"><ele>184.0</ele><time>2026-04-28T16:57:28Z</time></trkpt><trkpt lat="28.475638539472182" lon="-11.19988819289339"><ele>182.0</ele><time>2026-04-28T16:57:29Z</time></trkpt><trkpt lat="28.475778967394263" lon="-11.200121633934724"><ele>180.0</ele><time>2026-04-28T16:57:30Z</time></trkpt><trkpt lat="28.47592484404106" lon="-11.200361251844905"><ele>180.0</ele><time>2026-04-28T16:57:31Z</time></trkpt><trkpt lat="28.476069270516373" lon="-11.200595853971482"><ele>180.0</ele><time>2026-04-28T16:57:32Z</time></trkpt><trkpt lat="28.476212552015404" lon="-11.200831953952996"><ele>180.0</ele><time>2026-04-28T16:57:33Z</time></trkpt><trkpt lat="28.476355823340132" lon="-11.201071427580862"><ele>180.0</ele><time>2026-04-28T16:57:34Z</time></trkpt><trkpt lat="28.4764957719753" lon="-11.201308879069911"><ele>174.0</ele><time>2026-04-28T16:57:35.001Z</time></trkpt><trkpt lat="28.47662883024666" lon="-11.201550896547786"><ele>168.0</ele><time>2026-04-28T16:57:36.001Z</time></trkpt><trkpt lat="28.47675180970574" lon="-11.20179712304765"><ele>168.0</ele><time>2026-04-28T16:57:37.001Z</time></trkpt><trkpt lat="28.47687199993013" lon="-11.202052348907781"><ele>168.0</ele><time>2026-04-28T16:57:38.001Z</time></trkpt><trkpt lat="28.476993138765266" lon="-11.20232171920269"><ele>170.5</ele><time>2026-04-28T16:57:39.001Z</time></trkpt><trkpt lat="28.47710042998071" lon="-11.202590309752997"><ele>173.0</ele><time>2026-04-28T16:57:40.001Z</time></trkpt><trkpt lat="28.4772039096077" lon="-11.202867252055501"><ele>173.0</ele><time>2026-04-28T16:57:41.001Z</time></trkpt><trkpt lat="28.477300332242507" lon="-11.203153843665374"><ele>173.0</ele><time>2026-04-28T16:57:42.001Z</time></trkpt><trkpt lat="28.477392392615155" lon="-11.203445592588215"><ele>165.5</ele><time>2026-04-28T16:57:43.001Z</time></trkpt><trkpt lat="28.477481401197778" lon="-11.20374436693689"><ele>158.0</ele><time>2026-04-28T16:57:44.001Z</time></trkpt><trkpt lat="28.47756662354206" lon="-11.204042445749947"><ele>153.0</ele><time>2026-04-28T16:57:45.001Z</time></trkpt><trkpt lat="28.477648571359836" lon="-11.20434172742955"><ele>148.0</ele><time>2026-04-28T16:57:46.001Z</time></trkpt><trkpt lat="28.477729020554236" lon="-11.204641352450343"><ele>142.0</ele><time>2026-04-28T16:57:47.001Z</time></trkpt><trkpt lat="28.47780852944631" lon="-11.204943406773985"><ele>136.0</ele><time>2026-04-28T16:57:48.001Z</time></trkpt><trkpt lat="28.47788934247912" lon="-11.205248371956657"><ele>136.5</ele><time>2026-04-28T16:57:49.001Z</time></trkpt><trkpt lat="28.47797203104168" lon="-11.205550149427177"><ele>137.0</ele><time>2026-04-28T16:57:50.001Z</time></trkpt><trkpt lat="28.478056119536106" lon="-11.205855273101974"><ele>134.5</ele><time>2026-04-28T16:57:51.001Z</time></trkpt><trkpt lat="28.478137910080967" lon="-11.206159724203951"><ele>132.0</ele><time>2026-04-28T16:57:52.001Z</time></trkpt><trkpt lat="28.4782187963032" lon="-11.206456102243376"><ele>130.5</ele><time>2026-04-28T16:57:53.001Z</time></trkpt><trkpt lat="28.478300423971966" lon="-11.20675413542662"><ele>129.0</ele><time>2026-04-28T16:57:54.001Z</time></trkpt><trkpt lat="28.478378448082065" lon="-11.207050099419062"><ele>128.0</ele><time>2026-04-28T16:57:55.001Z</time></trkpt><trkpt lat="28.47844835375038" lon="-11.207345492017636"><ele>127.0</ele><time>2026-04-28T16:57:56.001Z</time></trkpt><trkpt lat="28.478509161918275" lon="-11.20764211192275"><ele>127.0</ele><time>2026-04-28T16:57:57.001Z</time></trkpt><trkpt lat="28.478563098609282" lon="-11.20794391231616"><ele>127.0</ele><time>2026-04-28T16:57:58.001Z</time></trkpt><trkpt lat="28.47860955431934" lon="-11.208247201929462"><ele>126.0</ele><time>2026-04-28T16:57:59.001Z</time></trkpt><trkpt lat="28.478647713751876" lon="-11.208550381908156"><ele>125.0</ele><time>2026-04-28T16:58:00.001Z</time></trkpt><trkpt lat="28.478676156896142" lon="-11.20885109683118"><ele>123.0</ele><time>2026-04-28T16:58:01.001Z</time></trkpt><trkpt lat="28.478696495922332" lon="-11.209148579274817"><ele>121.0</ele><time>2026-04-28T16:58:02.001Z</time></trkpt><trkpt lat="28.47871121258486" lon="-11.209450114963118"><ele>121.0</ele><time>2026-04-28T16:58:03.001Z</time></trkpt><trkpt lat="28.478717397013902" lon="-11.209749302788216"><ele>121.0</ele><time>2026-04-28T16:58:04.001Z</time></trkpt><trkpt lat="28.478718555511364" lon="-11.210052407347428"><ele>119.0</ele><time>2026-04-28T16:58:05.001Z</time></trkpt><trkpt lat="28.478716553909827" lon="-11.210353422480951"><ele>117.0</ele><time>2026-04-28T16:58:06.001Z</time></trkpt><trkpt lat="28.47871305636167" lon="-11.21065737335715"><ele>116.5</ele><time>2026-04-28T16:58:07.001Z</time></trkpt><trkpt lat="28.478707790598303" lon="-11.210959679818094"><ele>116.0</ele><time>2026-04-28T16:58:08.001Z</time></trkpt><trkpt lat="28.478703029760428" lon="-11.21126178054853"><ele>115.0</ele><time>2026-04-28T16:58:09.001Z</time></trkpt><trkpt lat="28.478703307345455" lon="-11.21156178966743"><ele>114.0</ele><time>2026-04-28T16:58:10.001Z</time></trkpt><trkpt lat="28.478704941165233" lon="-11.211854916130163"><ele>114.0</ele><time>2026-04-28T16:58:11.001Z</time></trkpt><trkpt lat="28.478703013336563" lon="-11.212140925452642"><ele>114.0</ele><time>2026-04-28T16:58:12.001Z</time></trkpt><trkpt lat="28.47870077177212" lon="-11.212424692319019"><ele>114.0</ele><time>2026-04-28T16:58:13.001Z</time></trkpt><trkpt lat="28.47870028897567" lon="-11.212708644423355"><ele>114.0</ele><time>2026-04-28T16:58:14.001Z</time></trkpt><trkpt lat="28.478698908817393" lon="-11.212991272911445"><ele>112.5</ele><time>2026-04-28T16:58:15.001Z</time></trkpt><trkpt lat="28.47869606439807" lon="-11.213271400541299"><ele>111.0</ele><time>2026-04-28T16:58:16.001Z</time></trkpt><trkpt lat="28.47869151835082" lon="-11.213554175816313"><ele>111.0</ele><time>2026-04-28T16:58:17Z</time></trkpt><trkpt lat="28.47868730315581" lon="-11.213838909888045"><ele>111.0</ele><time>2026-04-28T16:58:18Z</time></trkpt><trkpt lat="28.478683227263687" lon="-11.214119758724227"><ele>109.5</ele><time>2026-04-28T16:58:19Z</time></trkpt><trkpt lat="28.47867899430198" lon="-11.214407200726312"><ele>108.0</ele><time>2026-04-28T16:58:20Z</time></trkpt><trkpt lat="28.478676176586905" lon="-11.214693727867797"><ele>107.0</ele><time>2026-04-28T16:58:21Z</time></trkpt><trkpt lat="28.47867457861422" lon="-11.214980961997187"><ele>106.0</ele><time>2026-04-28T16:58:22Z</time></trkpt><trkpt lat="28.478670061104644" lon="-11.215264458922842"><ele>106.0</ele><time>2026-04-28T16:58:23Z</time></trkpt><trkpt lat="28.478666312536397" lon="-11.21554668666567"><ele>106.0</ele><time>2026-04-28T16:58:24Z</time></trkpt><trkpt lat="28.478663271059965" lon="-11.215823007963461"><ele>105.0</ele><time>2026-04-28T16:58:25Z</time></trkpt><trkpt lat="28.478660709383654" lon="-11.216098821578719"><ele>104.0</ele><time>2026-04-28T16:58:26Z</time></trkpt><trkpt lat="28.478658491413313" lon="-11.21637766155926"><ele>104.0</ele><time>2026-04-28T16:58:27Z</time></trkpt><trkpt lat="28.478658690830386" lon="-11.216657325973413"><ele>104.0</ele><time>2026-04-28T16:58:28Z</time></trkpt><trkpt lat="28.47865544385115" lon="-11.216936295987775"><ele>104.0</ele><time>2026-04-28T16:58:29Z</time></trkpt><trkpt lat="28.478652361167935" lon="-11.217211085611472"><ele>104.0</ele><time>2026-04-28T16:58:30Z</time></trkpt><trkpt lat="28.478648838959078" lon="-11.217489688172659"><ele>103.0</ele><time>2026-04-28T16:58:31Z</time></trkpt><trkpt lat="28.47864524937052" lon="-11.217768808844404"><ele>102.0</ele><time>2026-04-28T16:58:32Z</time></trkpt><trkpt lat="28.478642966651154" lon="-11.218043083622973"><ele>101.0</ele><time>2026-04-28T16:58:33Z</time></trkpt><trkpt lat="28.47864104525213" lon="-11.21831199017716"><ele>100.0</ele><time>2026-04-28T16:58:34Z</time></trkpt><trkpt lat="28.47863849478374" lon="-11.218574502217672"><ele>100.0</ele><time>2026-04-28T16:58:35Z</time></trkpt><trkpt lat="28.47863600982886" lon="-11.218836478594456"><ele>100.0</ele><time>2026-04-28T16:58:36Z</time></trkpt><trkpt lat="28.478630880115706" lon="-11.219099204297056"><ele>100.5</ele><time>2026-04-28T16:58:37Z</time></trkpt><trkpt lat="28.478626935763113" lon="-11.219361424358242"><ele>101.0</ele><time>2026-04-28T16:58:38Z</time></trkpt><trkpt lat="28.47862442867946" lon="-11.219620260458656"><ele>100.33333333333333</ele><time>2026-04-28T16:58:39Z</time></trkpt><trkpt lat="28.478624000697675" lon="-11.21987576148307"><ele>99.66666666666666</ele><time>2026-04-28T16:58:40Z</time></trkpt><trkpt lat="28.478622398929637" lon="-11.220130046556829"><ele>99.0</ele><time>2026-04-28T16:58:41Z</time></trkpt><trkpt lat="28.478619891440186" lon="-11.220378005430868"><ele>99.0</ele><time>2026-04-28T16:58:42Z</time></trkpt><trkpt lat="28.478615935003017" lon="-11.22062432779891"><ele>99.0</ele><time>2026-04-28T16:58:43Z</time></trkpt><trkpt lat="28.478613130794383" lon="-11.220866585769809"><ele>99.0</ele><time>2026-04-28T16:58:44Z</time></trkpt><trkpt lat="28.478610673375243" lon="-11.221106603242438"><ele>98.0</ele><time>2026-04-28T16:58:45Z</time></trkpt><trkpt lat="28.478608098591373" lon="-11.221345292218576"><ele>97.0</ele><time>2026-04-28T16:58:46Z</time></trkpt><trkpt lat="28.47860598941354" lon="-11.221588643743532"><ele>96.0</ele><time>2026-04-28T16:58:47Z</time></trkpt><trkpt lat="28.47860308176891" lon="-11.221830828087283"><ele>95.66666666666667</ele><time>2026-04-28T16:58:48Z</time></trkpt><trkpt lat="28.478600494004837" lon="-11.222073078905016"><ele>95.33333333333334</ele><time>2026-04-28T16:58:49Z</time></trkpt><trkpt lat="28.478596656667733" lon="-11.222318554939688"><ele>95.0</ele><time>2026-04-28T16:58:50Z</time></trkpt><trkpt lat="28.47859328867139" lon="-11.222563142127523"><ele>94.33333333333334</ele><time>2026-04-28T16:58:51Z</time></trkpt><trkpt lat="28.478589920401525" lon="-11.222808298564065"><ele>93.66666666666667</ele><time>2026-04-28T16:58:52Z</time></trkpt><trkpt lat="28.47858690724119" lon="-11.223054846265024"><ele>93.0</ele><time>2026-04-28T16:58:53Z</time></trkpt><trkpt lat="28.47858513351856" lon="-11.223301487837304"><ele>92.66666666666667</ele><time>2026-04-28T16:58:54Z</time></trkpt><trkpt lat="28.47858215600214" lon="-11.223549415131522"><ele>92.33333333333334</ele><time>2026-04-28T16:58:55Z</time></trkpt><trkpt lat="28.478580109052757" lon="-11.223805098340211"><ele>92.0</ele><time>2026-04-28T16:58:56Z</time></trkpt><trkpt lat="28.478576166889468" lon="-11.224062082994587"><ele>91.5</ele><time>2026-04-28T16:58:57Z</time></trkpt><trkpt lat="28.478572719075945" lon="-11.224321714578103"><ele>91.0</ele><time>2026-04-28T16:58:58Z</time></trkpt><trkpt lat="28.47856867999162" lon="-11.224583845337085"><ele>89.5</ele><time>2026-04-28T16:58:59Z</time></trkpt><trkpt lat="28.47856489650777" lon="-11.224847285333272"><ele>88.0</ele><time>2026-04-28T16:59:00Z</time></trkpt><trkpt lat="28.47856214656486" lon="-11.225112896261459"><ele>88.0</ele><time>2026-04-28T16:59:01Z</time></trkpt><trkpt lat="28.4785595809644" lon="-11.225383044775718"><ele>88.0</ele><time>2026-04-28T16:59:02Z</time></trkpt><trkpt lat="28.478554140973927" lon="-11.225658008684288"><ele>87.5</ele><time>2026-04-28T16:59:03Z</time></trkpt><trkpt lat="28.478550402411997" lon="-11.225935219833694"><ele>87.0</ele><time>2026-04-28T16:59:04Z</time></trkpt><trkpt lat="28.478546492254907" lon="-11.226213558598527"><ele>86.5</ele><time>2026-04-28T16:59:05Z</time></trkpt><trkpt lat="28.478543957320674" lon="-11.226495065369242"><ele>86.0</ele><time>2026-04-28T16:59:06Z</time></trkpt><trkpt lat="28.47854116437158" lon="-11.226777756875666"><ele>86.0</ele><time>2026-04-28T16:59:07Z</time></trkpt><trkpt lat="28.47853693446465" lon="-11.227059523288275"><ele>86.0</ele><time>2026-04-28T16:59:08Z</time></trkpt><trkpt lat="28.478532129665894" lon="-11.227338181754428"><ele>86.0</ele><time>2026-04-28T16:59:09Z</time></trkpt><trkpt lat="28.478528556840487" lon="-11.227617553902855"><ele>86.0</ele><time>2026-04-28T16:59:10Z</time></trkpt><trkpt lat="28.478524000015316" lon="-11.227894271995359"><ele>84.5</ele><time>2026-04-28T16:59:11Z</time></trkpt><trkpt lat="28.47852175926718" lon="-11.228172235001532"><ele>83.0</ele><time>2026-04-28T16:59:12Z</time></trkpt><trkpt lat="28.478517767602398" lon="-11.228447757734513"><ele>83.0</ele><time>2026-04-28T16:59:13Z</time></trkpt><trkpt lat="28.47851200434658" lon="-11.228719897474607"><ele>83.0</ele><time>2026-04-28T16:59:14Z</time></trkpt><trkpt lat="28.478508123077322" lon="-11.228989519238127"><ele>83.5</ele><time>2026-04-28T16:59:15Z</time></trkpt><trkpt lat="28.478505008513945" lon="-11.229259308420783"><ele>84.0</ele><time>2026-04-28T16:59:16Z</time></trkpt><trkpt lat="28.478501017712347" lon="-11.229527664314691"><ele>84.0</ele><time>2026-04-28T16:59:17Z</time></trkpt><trkpt lat="28.478497912662647" lon="-11.229795006952433"><ele>84.0</ele><time>2026-04-28T16:59:18Z</time></trkpt><trkpt lat="28.478491003152595" lon="-11.230061355109683"><ele>83.5</ele><time>2026-04-28T16:59:19Z</time></trkpt><trkpt lat="28.47848522869251" lon="-11.230333063317316"><ele>83.0</ele><time>2026-04-28T16:59:20Z</time></trkpt><trkpt lat="28.478478819228815" lon="-11.230608170722531"><ele>82.5</ele><time>2026-04-28T16:59:21Z</time></trkpt><trkpt lat="28.47847060032247" lon="-11.23088752138968"><ele>82.0</ele><time>2026-04-28T16:59:22Z</time></trkpt><trkpt lat="28.47846312278296" lon="-11.231164626589466"><ele>82.0</ele><time>2026-04-28T16:59:23Z</time></trkpt><trkpt lat="28.478459615753817" lon="-11.231448016560797"><ele>82.0</ele><time>2026-04-28T16:59:24Z</time></trkpt><trkpt lat="28.47845601749995" lon="-11.231734701517983"><ele>80.5</ele><time>2026-04-28T16:59:25Z</time></trkpt><trkpt lat="28.478451539137296" lon="-11.23202503668523"><ele>79.0</ele><time>2026-04-28T16:59:26Z</time></trkpt><trkpt lat="28.478448855672337" lon="-11.232314966348664"><ele>78.5</ele><time>2026-04-28T16:59:27Z</time></trkpt><trkpt lat="28.47845467321963" lon="-11.232610194449848"><ele>78.0</ele><time>2026-04-28T16:59:28Z</time></trkpt><trkpt lat="28.478460277237154" lon="-11.232903145997026"><ele>79.5</ele><time>2026-04-28T16:59:29Z</time></trkpt><trkpt lat="28.47845891555656" lon="-11.233196403683385"><ele>81.0</ele><time>2026-04-28T16:59:30Z</time></trkpt><trkpt lat="28.478456114787004" lon="-11.233485069461668"><ele>81.0</ele><time>2026-04-28T16:59:31Z</time></trkpt><trkpt lat="28.478454119465145" lon="-11.233768461654407"><ele>81.0</ele><time>2026-04-28T16:59:32Z</time></trkpt><trkpt lat="28.478453363085787" lon="-11.234047204530134"><ele>81.5</ele><time>2026-04-28T16:59:33Z</time></trkpt><trkpt lat="28.478455615701368" lon="-11.234324132472661"><ele>82.0</ele><time>2026-04-28T16:59:34Z</time></trkpt><trkpt lat="28.478454878450876" lon="-11.234595182018491"><ele>81.5</ele><time>2026-04-28T16:59:35Z</time></trkpt><trkpt lat="28.478450863580022" lon="-11.234859522235483"><ele>81.0</ele><time>2026-04-28T16:59:36Z</time></trkpt><trkpt lat="28.478446376380024" lon="-11.23512048374534"><ele>81.0</ele><time>2026-04-28T16:59:37Z</time></trkpt><trkpt lat="28.478443506262654" lon="-11.235385167164715"><ele>81.0</ele><time>2026-04-28T16:59:38Z</time></trkpt><trkpt lat="28.47844073624577" lon="-11.235653641979532"><ele>81.0</ele><time>2026-04-28T16:59:39Z</time></trkpt><trkpt lat="28.478436639051377" lon="-11.235925437919791"><ele>81.0</ele><time>2026-04-28T16:59:40Z</time></trkpt><trkpt lat="28.47843255575474" lon="-11.236201212345735"><ele>80.5</ele><time>2026-04-28T16:59:41Z</time></trkpt><trkpt lat="28.478427331769677" lon="-11.236476606534836"><ele>80.0</ele><time>2026-04-28T16:59:42Z</time></trkpt><trkpt lat="28.478421577677388" lon="-11.236751888633536"><ele>80.0</ele><time>2026-04-28T16:59:43Z</time></trkpt><trkpt lat="28.478416711048684" lon="-11.23702565611442"><ele>80.0</ele><time>2026-04-28T16:59:44Z</time></trkpt><trkpt lat="28.478413438097316" lon="-11.237298968398262"><ele>80.5</ele><time>2026-04-28T16:59:45Z</time></trkpt><trkpt lat="28.47841315702426" lon="-11.237572844609614"><ele>81.0</ele><time>2026-04-28T16:59:46Z</time></trkpt><trkpt lat="28.47841246627996" lon="-11.23784526776342"><ele>81.0</ele><time>2026-04-28T16:59:47Z</time></trkpt><trkpt lat="28.478412744675357" lon="-11.238116110868978"><ele>81.0</ele><time>2026-04-28T16:59:48Z</time></trkpt><trkpt lat="28.478409510729293" lon="-11.238384382870423"><ele>80.5</ele><time>2026-04-28T16:59:49Z</time></trkpt><trkpt lat="28.478404628874703" lon="-11.23865180492498"><ele>80.0</ele><time>2026-04-28T16:59:50Z</time></trkpt><trkpt lat="28.47840061351585" lon="-11.238921275678418"><ele>80.0</ele><time>2026-04-28T16:59:51Z</time></trkpt><trkpt lat="28.478394651014423" lon="-11.239190135723076"><ele>80.0</ele><time>2026-04-28T16:59:52Z</time></trkpt><trkpt lat="28.478388416250397" lon="-11.239460023533127"><ele>80.0</ele><time>2026-04-28T16:59:53Z</time></trkpt><trkpt lat="28.478383540442362" lon="-11.239726827276865"><ele>80.0</ele><time>2026-04-28T16:59:54Z</time></trkpt><trkpt lat="28.478380371829548" lon="-11.239992545876955"><ele>79.5</ele><time>2026-04-28T16:59:55Z</time></trkpt><trkpt lat="28.478379646059203" lon="-11.24025360577037"><ele>79.0</ele><time>2026-04-28T16:59:56Z</time></trkpt><trkpt lat="28.478378642802955" lon="-11.240509537372978"><ele>79.33333333333333</ele><time>2026-04-28T16:59:57Z</time></trkpt><trkpt lat="28.478375570363035" lon="-11.240759651576486"><ele>79.66666666666667</ele><time>2026-04-28T16:59:58Z</time></trkpt><trkpt lat="28.478373414128892" lon="-11.241010906741847"><ele>80.0</ele><time>2026-04-28T16:59:59Z</time></trkpt><trkpt lat="28.47837106026908" lon="-11.241266958407158"><ele>80.33333333333334</ele><time>2026-04-28T17:00:00Z</time></trkpt><trkpt lat="28.478366599259655" lon="-11.241519141606323"><ele>80.66666666666667</ele><time>2026-04-28T17:00:01Z</time></trkpt><trkpt lat="28.478364251812113" lon="-11.241772516210307"><ele>81.0</ele><time>2026-04-28T17:00:02Z</time></trkpt><trkpt lat="28.478361940551107" lon="-11.242029665077514"><ele>81.0</ele><time>2026-04-28T17:00:03Z</time></trkpt><trkpt lat="28.478359243482405" lon="-11.24229621939359"><ele>81.0</ele><time>2026-04-28T17:00:04Z</time></trkpt><trkpt lat="28.478357159857158" lon="-11.242561030028291"><ele>80.0</ele><time>2026-04-28T17:00:05Z</time></trkpt><trkpt lat="28.478355296544805" lon="-11.242827495680096"><ele>79.0</ele><time>2026-04-28T17:00:06Z</time></trkpt><trkpt lat="28.478351950235147" lon="-11.243095381994644"><ele>79.0</ele><time>2026-04-28T17:00:07Z</time></trkpt><trkpt lat="28.478348603795283" lon="-11.243365376092216"><ele>79.0</ele><time>2026-04-28T17:00:08Z</time></trkpt><trkpt lat="28.47834497995551" lon="-11.243636481981971"><ele>79.0</ele><time>2026-04-28T17:00:09Z</time></trkpt><trkpt lat="28.478341600691376" lon="-11.243907041758602"><ele>79.0</ele><time>2026-04-28T17:00:10Z</time></trkpt><trkpt lat="28.47833831120638" lon="-11.24417693733204"><ele>78.0</ele><time>2026-04-28T17:00:11Z</time></trkpt><trkpt lat="28.478334579614433" lon="-11.24444720042177"><ele>77.0</ele><time>2026-04-28T17:00:12Z</time></trkpt><trkpt lat="28.478331826277707" lon="-11.244717412088045"><ele>77.0</ele><time>2026-04-28T17:00:13Z</time></trkpt><trkpt lat="28.478329141282536" lon="-11.244984846640033"><ele>77.0</ele><time>2026-04-28T17:00:14Z</time></trkpt><trkpt lat="28.47832722571239" lon="-11.245253335837209"><ele>77.0</ele><time>2026-04-28T17:00:15Z</time></trkpt><trkpt lat="28.478323312208367" lon="-11.245517884344375"><ele>77.0</ele><time>2026-04-28T17:00:16Z</time></trkpt><trkpt lat="28.478320099122485" lon="-11.245787122771977"><ele>76.5</ele><time>2026-04-28T17:00:17Z</time></trkpt><trkpt lat="28.478317061837156" lon="-11.246055575274688"><ele>76.0</ele><time>2026-04-28T17:00:18Z</time></trkpt><trkpt lat="28.478314121186074" lon="-11.24632415840741"><ele>75.5</ele><time>2026-04-28T17:00:19Z</time></trkpt><trkpt lat="28.478312550016806" lon="-11.246593108791954"><ele>75.0</ele><time>2026-04-28T17:00:20Z</time></trkpt><trkpt lat="28.478309559858573" lon="-11.246861047347586"><ele>75.0</ele><time>2026-04-28T17:00:21Z</time></trkpt><trkpt lat="28.478305366309424" lon="-11.24712821948441"><ele>75.0</ele><time>2026-04-28T17:00:22Z</time></trkpt><trkpt lat="28.4783031541369" lon="-11.247392275321374"><ele>75.5</ele><time>2026-04-28T17:00:23Z</time></trkpt><trkpt lat="28.478304466661122" lon="-11.247651875958958"><ele>76.0</ele><time>2026-04-28T17:00:24Z</time></trkpt><trkpt lat="28.478311678462468" lon="-11.247906027784987"><ele>75.66666666666666</ele><time>2026-04-28T17:00:25Z</time></trkpt><trkpt lat="28.47832318767321" lon="-11.248157268424896"><ele>75.33333333333333</ele><time>2026-04-28T17:00:26Z</time></trkpt><trkpt lat="28.478335925793488" lon="-11.248403492622083"><ele>75.0</ele><time>2026-04-28T17:00:27Z</time></trkpt><trkpt lat="28.47835303547027" lon="-11.248645076770984"><ele>75.0</ele><time>2026-04-28T17:00:28Z</time></trkpt><trkpt lat="28.478371970329867" lon="-11.24888528920232"><ele>75.0</ele><time>2026-04-28T17:00:29Z</time></trkpt><trkpt lat="28.478389715510872" lon="-11.249133007468224"><ele>75.0</ele><time>2026-04-28T17:00:30Z</time></trkpt><trkpt lat="28.478405188283585" lon="-11.249381783450733"><ele>75.0</ele><time>2026-04-28T17:00:31Z</time></trkpt><trkpt lat="28.478420531942632" lon="-11.249637255091681"><ele>75.0</ele><time>2026-04-28T17:00:32Z</time></trkpt><trkpt lat="28.478433369262646" lon="-11.24989290237588"><ele>75.0</ele><time>2026-04-28T17:00:33Z</time></trkpt><trkpt lat="28.478448505954198" lon="-11.250149840068014"><ele>75.0</ele><time>2026-04-28T17:00:34Z</time></trkpt><trkpt lat="28.478465337915214" lon="-11.25041105874881"><ele>75.0</ele><time>2026-04-28T17:00:35Z</time></trkpt><trkpt lat="28.47848212028423" lon="-11.250676358524574"><ele>75.0</ele><time>2026-04-28T17:00:36Z</time></trkpt><trkpt lat="28.478498724094912" lon="-11.250942359095914"><ele>75.0</ele><time>2026-04-28T17:00:37Z</time></trkpt><trkpt lat="28.47851597613247" lon="-11.251208911818825"><ele>75.0</ele><time>2026-04-28T17:00:38Z</time></trkpt><trkpt lat="28.478530587802897" lon="-11.251477226901034"><ele>75.0</ele><time>2026-04-28T17:00:39Z</time></trkpt><trkpt lat="28.478546232882046" lon="-11.251748712322401"><ele>75.0</ele><time>2026-04-28T17:00:40Z</time></trkpt><trkpt lat="28.47856268094902" lon="-11.252021285666808"><ele>75.0</ele><time>2026-04-28T17:00:41Z</time></trkpt><trkpt lat="28.478579303870955" lon="-11.252296609482187"><ele>75.0</ele><time>2026-04-28T17:00:42Z</time></trkpt><trkpt lat="28.47859852026833" lon="-11.252571188427156"><ele>75.0</ele><time>2026-04-28T17:00:43Z</time></trkpt><trkpt lat="28.478617118468556" lon="-11.252848211901041"><ele>75.0</ele><time>2026-04-28T17:00:44Z</time></trkpt><trkpt lat="28.478634260294175" lon="-11.253120219730846"><ele>75.0</ele><time>2026-04-28T17:00:45Z</time></trkpt><trkpt lat="28.478649929632436" lon="-11.25339012806247"><ele>75.0</ele><time>2026-04-28T17:00:46Z</time></trkpt><trkpt lat="28.478665647884487" lon="-11.253656662776526"><ele>75.0</ele><time>2026-04-28T17:00:47Z</time></trkpt><trkpt lat="28.478682046169904" lon="-11.253915207010314"><ele>75.0</ele><time>2026-04-28T17:00:48Z</time></trkpt><trkpt lat="28.478699398074788" lon="-11.254158639274516"><ele>75.0</ele><time>2026-04-28T17:00:49Z</time></trkpt><trkpt lat="28.478714633457404" lon="-11.254411517913056"><ele>75.33333333333333</ele><time>2026-04-28T17:00:50Z</time></trkpt><trkpt lat="28.478725928694875" lon="-11.254663293846738"><ele>75.66666666666666</ele><time>2026-04-28T17:00:51Z</time></trkpt><trkpt lat="28.478736568779922" lon="-11.254916367976483"><ele>76.0</ele><time>2026-04-28T17:00:52Z</time></trkpt><trkpt lat="28.478751805488653" lon="-11.255168283902037"><ele>75.66666666666666</ele><time>2026-04-28T17:00:53Z</time></trkpt><trkpt lat="28.47876954104193" lon="-11.25541938200439"><ele>75.33333333333333</ele><time>2026-04-28T17:00:54Z</time></trkpt><trkpt lat="28.478786524461604" lon="-11.255665548717452"><ele>75.0</ele><time>2026-04-28T17:00:55Z</time></trkpt><trkpt lat="28.478800208514635" lon="-11.255911997326912"><ele>74.66666666666667</ele><time>2026-04-28T17:00:56Z</time></trkpt><trkpt lat="28.478812813360733" lon="-11.256156511256826"><ele>74.33333333333334</ele><time>2026-04-28T17:00:57Z</time></trkpt><trkpt lat="28.47882641677164" lon="-11.256396987388394"><ele>74.0</ele><time>2026-04-28T17:00:58Z</time></trkpt><trkpt lat="28.478838036458455" lon="-11.256618447134045"><ele>74.0</ele><time>2026-04-28T17:00:59Z</time></trkpt><trkpt lat="28.478853937104013" lon="-11.25683493372052"><ele>74.0</ele><time>2026-04-28T17:01:00Z</time></trkpt><trkpt lat="28.478870646540788" lon="-11.257070440333155"><ele>74.0</ele><time>2026-04-28T17:01:01Z</time></trkpt><trkpt lat="28.478884234304147" lon="-11.257288063436881"><ele>73.66666666666667</ele><time>2026-04-28T17:01:02Z</time></trkpt><trkpt lat="28.478898161855376" lon="-11.257490372469803"><ele>73.33333333333333</ele><time>2026-04-28T17:01:03Z</time></trkpt><trkpt lat="28.478909309325285" lon="-11.2576779447877"><ele>73.0</ele><time>2026-04-28T17:01:04Z</time></trkpt><trkpt lat="28.47891996570776" lon="-11.257855770277436"><ele>73.0</ele><time>2026-04-28T17:01:05Z</time></trkpt><trkpt lat="28.47892877528424" lon="-11.258041042947902"><ele>73.0</ele><time>2026-04-28T17:01:06Z</time></trkpt><trkpt lat="28.478939851846068" lon="-11.258227651634284"><ele>73.0</ele><time>2026-04-28T17:01:07Z</time></trkpt><trkpt lat="28.478953631388016" lon="-11.258401409844605"><ele>73.33333333333333</ele><time>2026-04-28T17:01:08Z</time></trkpt><trkpt lat="28.478965243552345" lon="-11.258567624629288"><ele>73.66666666666667</ele><time>2026-04-28T17:01:09Z</time></trkpt><trkpt lat="28.47897765677894" lon="-11.258752407015356"><ele>74.0</ele><time>2026-04-28T17:01:10Z</time></trkpt><trkpt lat="28.478989305630822" lon="-11.258949698907301"><ele>74.0</ele><time>2026-04-28T17:01:11Z</time></trkpt><trkpt lat="28.479002384254354" lon="-11.259163482764864"><ele>74.0</ele><time>2026-04-28T17:01:12Z</time></trkpt><trkpt lat="28.479019560567213" lon="-11.259394140658818"><ele>74.0</ele><time>2026-04-28T17:01:13Z</time></trkpt><trkpt lat="28.47903522206425" lon="-11.259638481094214"><ele>73.33333333333334</ele><time>2026-04-28T17:01:14Z</time></trkpt><trkpt lat="28.479047997653456" lon="-11.259889980884394"><ele>72.66666666666667</ele><time>2026-04-28T17:01:15Z</time></trkpt><trkpt lat="28.479060803666084" lon="-11.260139552892953"><ele>72.0</ele><time>2026-04-28T17:01:16Z</time></trkpt><trkpt lat="28.47907518955532" lon="-11.260388010932154"><ele>71.66666666666667</ele><time>2026-04-28T17:01:17Z</time></trkpt><trkpt lat="28.479090030067706" lon="-11.260633118709926"><ele>71.33333333333334</ele><time>2026-04-28T17:01:18Z</time></trkpt><trkpt lat="28.47910265379877" lon="-11.260878972613632"><ele>71.0</ele><time>2026-04-28T17:01:19Z</time></trkpt><trkpt lat="28.479115264262465" lon="-11.261122803594397"><ele>71.0</ele><time>2026-04-28T17:01:20Z</time></trkpt><trkpt lat="28.47913084602567" lon="-11.261363654520911"><ele>71.0</ele><time>2026-04-28T17:01:21Z</time></trkpt><trkpt lat="28.479144803854844" lon="-11.261599369010993"><ele>71.0</ele><time>2026-04-28T17:01:22Z</time></trkpt><trkpt lat="28.47916165141226" lon="-11.261836078820838"><ele>71.66666666666667</ele><time>2026-04-28T17:01:23Z</time></trkpt><trkpt lat="28.479173829948092" lon="-11.262070525648594"><ele>72.33333333333333</ele><time>2026-04-28T17:01:24Z</time></trkpt><trkpt lat="28.479188647860298" lon="-11.262297037285022"><ele>73.0</ele><time>2026-04-28T17:01:25Z</time></trkpt><trkpt lat="28.479206976474295" lon="-11.262524779820039"><ele>73.33333333333333</ele><time>2026-04-28T17:01:26Z</time></trkpt><trkpt lat="28.479219232985134" lon="-11.262739540140796"><ele>73.66666666666667</ele><time>2026-04-28T17:01:27Z</time></trkpt><trkpt lat="28.479231489244473" lon="-11.262937872771817"><ele>74.0</ele><time>2026-04-28T17:01:28Z</time></trkpt><trkpt lat="28.479244127735416" lon="-11.263135578820913"><ele>74.0</ele><time>2026-04-28T17:01:29Z</time></trkpt><trkpt lat="28.479258257020202" lon="-11.263344241742269"><ele>74.0</ele><time>2026-04-28T17:01:30Z</time></trkpt><trkpt lat="28.47927380730455" lon="-11.263555904977572"><ele>74.0</ele><time>2026-04-28T17:01:31Z</time></trkpt><trkpt lat="28.479287496754594" lon="-11.263771522595553"><ele>74.33333333333334</ele><time>2026-04-28T17:01:32Z</time></trkpt><trkpt lat="28.479301462416203" lon="-11.263990491210322"><ele>74.66666666666667</ele><time>2026-04-28T17:01:33Z</time></trkpt><trkpt lat="28.479315148902" lon="-11.264213214247173"><ele>75.0</ele><time>2026-04-28T17:01:34Z</time></trkpt><trkpt lat="28.479326670322564" lon="-11.264438285562573"><ele>75.0</ele><time>2026-04-28T17:01:35Z</time></trkpt><trkpt lat="28.47934003469245" lon="-11.264668674050426"><ele>75.0</ele><time>2026-04-28T17:01:36Z</time></trkpt><trkpt lat="28.479354960404866" lon="-11.264900852241018"><ele>75.0</ele><time>2026-04-28T17:01:37Z</time></trkpt><trkpt lat="28.479373765370443" lon="-11.265136575054903"><ele>75.0</ele><time>2026-04-28T17:01:38Z</time></trkpt><trkpt lat="28.479390050770462" lon="-11.265372175922204"><ele>75.0</ele><time>2026-04-28T17:01:39Z</time></trkpt><trkpt lat="28.47940732985826" lon="-11.265612162934865"><ele>75.0</ele><time>2026-04-28T17:01:40Z</time></trkpt><trkpt lat="28.47942276179539" lon="-11.265856219319295"><ele>75.33333333333333</ele><time>2026-04-28T17:01:41Z</time></trkpt><trkpt lat="28.479438516873746" lon="-11.266103250297945"><ele>75.66666666666666</ele><time>2026-04-28T17:01:42Z</time></trkpt><trkpt lat="28.479453661496024" lon="-11.266351613454269"><ele>76.0</ele><time>2026-04-28T17:01:43Z</time></trkpt><trkpt lat="28.47946841867878" lon="-11.266604216202111"><ele>76.0</ele><time>2026-04-28T17:01:44Z</time></trkpt><trkpt lat="28.47948138082232" lon="-11.266859159244518"><ele>76.0</ele><time>2026-04-28T17:01:45Z</time></trkpt><trkpt lat="28.479497251571487" lon="-11.26711373199858"><ele>76.0</ele><time>2026-04-28T17:01:46Z</time></trkpt><trkpt lat="28.47951408659259" lon="-11.26737017854486"><ele>75.5</ele><time>2026-04-28T17:01:47Z</time></trkpt><trkpt lat="28.479530771937867" lon="-11.267624382202252"><ele>75.0</ele><time>2026-04-28T17:01:48Z</time></trkpt><trkpt lat="28.47954551379431" lon="-11.267881241617888"><ele>74.0</ele><time>2026-04-28T17:01:49Z</time></trkpt><trkpt lat="28.479560867267946" lon="-11.268139844821075"><ele>73.0</ele><time>2026-04-28T17:01:50Z</time></trkpt><trkpt lat="28.47957852990641" lon="-11.268401780015884"><ele>73.0</ele><time>2026-04-28T17:01:51Z</time></trkpt><trkpt lat="28.479594446831378" lon="-11.268660798266856"><ele>73.0</ele><time>2026-04-28T17:01:52Z</time></trkpt><trkpt lat="28.479611961179565" lon="-11.268923130819216"><ele>72.5</ele><time>2026-04-28T17:01:53Z</time></trkpt><trkpt lat="28.479626889039448" lon="-11.269180499261642"><ele>72.0</ele><time>2026-04-28T17:01:54Z</time></trkpt><trkpt lat="28.479642701296555" lon="-11.269439041774545"><ele>72.0</ele><time>2026-04-28T17:01:55Z</time></trkpt><trkpt lat="28.479660953514305" lon="-11.2696998456403"><ele>72.0</ele><time>2026-04-28T17:01:56Z</time></trkpt><trkpt lat="28.47967800557375" lon="-11.269961859774979"><ele>72.0</ele><time>2026-04-28T17:01:57Z</time></trkpt><trkpt lat="28.47969403165163" lon="-11.270225451998192"><ele>72.0</ele><time>2026-04-28T17:01:58Z</time></trkpt><trkpt lat="28.479709814472216" lon="-11.270490756786119"><ele>72.5</ele><time>2026-04-28T17:01:59Z</time></trkpt><trkpt lat="28.479726297647773" lon="-11.270769121252696"><ele>73.0</ele><time>2026-04-28T17:02:00Z</time></trkpt><trkpt lat="28.47974649432384" lon="-11.271062907522065"><ele>73.0</ele><time>2026-04-28T17:02:01Z</time></trkpt><trkpt lat="28.47976557153525" lon="-11.271361384967221"><ele>73.0</ele><time>2026-04-28T17:02:02Z</time></trkpt><trkpt lat="28.479784282567177" lon="-11.271660502002945"><ele>74.0</ele><time>2026-04-28T17:02:03Z</time></trkpt><trkpt lat="28.479802452554278" lon="-11.271963259122604"><ele>75.0</ele><time>2026-04-28T17:02:04Z</time></trkpt><trkpt lat="28.479820024166028" lon="-11.272269416907648"><ele>74.5</ele><time>2026-04-28T17:02:05Z</time></trkpt><trkpt lat="28.479839458044324" lon="-11.272588496439466"><ele>74.0</ele><time>2026-04-28T17:02:06Z</time></trkpt><trkpt lat="28.47985836126911" lon="-11.272925962641352"><ele>74.0</ele><time>2026-04-28T17:02:07Z</time></trkpt><trkpt lat="28.479879697070924" lon="-11.273282376673663"><ele>74.0</ele><time>2026-04-28T17:02:08Z</time></trkpt><trkpt lat="28.47990128343841" lon="-11.273647152482702"><ele>74.0</ele><time>2026-04-28T17:02:09Z</time></trkpt><trkpt lat="28.479923200592275" lon="-11.274024009100904"><ele>74.0</ele><time>2026-04-28T17:02:10Z</time></trkpt><trkpt lat="28.479947076982363" lon="-11.274421492069113"><ele>74.5</ele><time>2026-04-28T17:02:11Z</time></trkpt><trkpt lat="28.479970014434855" lon="-11.274832058154523"><ele>75.0</ele><time>2026-04-28T17:02:12Z</time></trkpt><trkpt lat="28.47999124599947" lon="-11.275251461606043"><ele>74.5</ele><time>2026-04-28T17:02:13Z</time></trkpt><trkpt lat="28.480012010469544" lon="-11.27564445339946"><ele>74.0</ele><time>2026-04-28T17:02:14Z</time></trkpt><trkpt lat="28.48003364239368" lon="-11.276016594745247"><ele>74.0</ele><time>2026-04-28T17:02:15Z</time></trkpt><trkpt lat="28.480060196809603" lon="-11.276388543915214"><ele>74.0</ele><time>2026-04-28T17:02:16Z</time></trkpt><trkpt lat="28.48008103234015" lon="-11.276770156021948"><ele>74.0</ele><time>2026-04-28T17:02:17Z</time></trkpt><trkpt lat="28.48010153827531" lon="-11.27717253349233"><ele>74.0</ele><time>2026-04-28T17:02:18Z</time></trkpt><trkpt lat="28.480126415076995" lon="-11.277589455189952"><ele>73.5</ele><time>2026-04-28T17:02:19Z</time></trkpt><trkpt lat="28.480154587420287" lon="-11.277985352289448"><ele>73.0</ele><time>2026-04-28T17:02:20Z</time></trkpt><trkpt lat="28.480173909734496" lon="-11.278344924375501"><ele>73.0</ele><time>2026-04-28T17:02:21Z</time></trkpt><trkpt lat="28.48019471744859" lon="-11.278693927320838"><ele>73.0</ele><time>2026-04-28T17:02:22Z</time></trkpt><trkpt lat="28.480216571375387" lon="-11.279040365896389"><ele>71.5</ele><time>2026-04-28T17:02:23Z</time></trkpt><trkpt lat="28.48023993476718" lon="-11.279385545964402"><ele>70.0</ele><time>2026-04-28T17:02:24Z</time></trkpt><trkpt lat="28.48026112085001" lon="-11.279735907670776"><ele>71.5</ele><time>2026-04-28T17:02:25Z</time></trkpt><trkpt lat="28.480284887928477" lon="-11.280091415112983"><ele>73.0</ele><time>2026-04-28T17:02:26Z</time></trkpt><trkpt lat="28.48030902942439" lon="-11.28045047860809"><ele>72.5</ele><time>2026-04-28T17:02:27Z</time></trkpt><trkpt lat="28.480339487470374" lon="-11.280808040578323"><ele>72.0</ele><time>2026-04-28T17:02:28Z</time></trkpt><trkpt lat="28.480368398402398" lon="-11.28114917892466"><ele>71.0</ele><time>2026-04-28T17:02:29Z</time></trkpt><trkpt lat="28.48039211420425" lon="-11.28146901027827"><ele>70.0</ele><time>2026-04-28T17:02:30Z</time></trkpt><trkpt lat="28.480414426639438" lon="-11.281769097706634"><ele>70.0</ele><time>2026-04-28T17:02:31Z</time></trkpt><trkpt lat="28.480432101372724" lon="-11.28204933833657"><ele>70.0</ele><time>2026-04-28T17:02:32Z</time></trkpt><trkpt lat="28.480444716385215" lon="-11.282312474109387"><ele>71.0</ele><time>2026-04-28T17:02:33Z</time></trkpt><trkpt lat="28.480459465726263" lon="-11.28256032339881"><ele>72.0</ele><time>2026-04-28T17:02:34Z</time></trkpt><trkpt lat="28.480471320866087" lon="-11.28279762646708"><ele>73.0</ele><time>2026-04-28T17:02:35Z</time></trkpt><trkpt lat="28.480477152921956" lon="-11.283053054911719"><ele>72.5</ele><time>2026-04-28T17:02:36Z</time></trkpt><trkpt lat="28.480477109692416" lon="-11.28333232872077"><ele>72.0</ele><time>2026-04-28T17:02:37Z</time></trkpt><trkpt lat="28.480471493801407" lon="-11.283621127433067"><ele>72.0</ele><time>2026-04-28T17:02:38Z</time></trkpt><trkpt lat="28.48046244614078" lon="-11.283911070493433"><ele>72.0</ele><time>2026-04-28T17:02:39Z</time></trkpt><trkpt lat="28.48045258627001" lon="-11.284198840887228"><ele>72.5</ele><time>2026-04-28T17:02:40Z</time></trkpt><trkpt lat="28.480441432853016" lon="-11.28448298970644"><ele>73.0</ele><time>2026-04-28T17:02:41Z</time></trkpt><trkpt lat="28.480428650108045" lon="-11.284769182171202"><ele>71.5</ele><time>2026-04-28T17:02:42Z</time></trkpt><trkpt lat="28.480417201430953" lon="-11.285063450059514"><ele>70.0</ele><time>2026-04-28T17:02:43Z</time></trkpt><trkpt lat="28.480407058205856" lon="-11.285358461375138"><ele>71.0</ele><time>2026-04-28T17:02:44Z</time></trkpt><trkpt lat="28.480397459476766" lon="-11.285655219632922"><ele>72.0</ele><time>2026-04-28T17:02:45Z</time></trkpt><trkpt lat="28.480386675112957" lon="-11.285949501628563"><ele>72.0</ele><time>2026-04-28T17:02:46Z</time></trkpt><trkpt lat="28.480374351681352" lon="-11.286244590640417"><ele>72.0</ele><time>2026-04-28T17:02:47Z</time></trkpt><trkpt lat="28.480361847242303" lon="-11.286537245660337"><ele>72.5</ele><time>2026-04-28T17:02:48Z</time></trkpt><trkpt lat="28.48035130346537" lon="-11.286830102033388"><ele>73.0</ele><time>2026-04-28T17:02:49Z</time></trkpt><trkpt lat="28.480340118145794" lon="-11.287124302667324"><ele>73.0</ele><time>2026-04-28T17:02:50Z</time></trkpt><trkpt lat="28.480330386805846" lon="-11.28741182406639"><ele>73.0</ele><time>2026-04-28T17:02:51Z</time></trkpt><trkpt lat="28.480319915128163" lon="-11.28769248489962"><ele>73.0</ele><time>2026-04-28T17:02:52Z</time></trkpt><trkpt lat="28.480310475947245" lon="-11.287974835322508"><ele>73.0</ele><time>2026-04-28T17:02:53Z</time></trkpt><trkpt lat="28.480298477383947" lon="-11.288256605086106"><ele>73.5</ele><time>2026-04-28T17:02:54Z</time></trkpt><trkpt lat="28.480287475287888" lon="-11.288535061048647"><ele>74.0</ele><time>2026-04-28T17:02:55Z</time></trkpt><trkpt lat="28.48027688231462" lon="-11.288807524775969"><ele>73.5</ele><time>2026-04-28T17:02:56Z</time></trkpt><trkpt lat="28.48026706629479" lon="-11.28907502589775"><ele>73.0</ele><time>2026-04-28T17:02:57Z</time></trkpt><trkpt lat="28.480256533783244" lon="-11.28934409706849"><ele>73.0</ele><time>2026-04-28T17:02:58Z</time></trkpt><trkpt lat="28.480246332313495" lon="-11.289614484227934"><ele>73.0</ele><time>2026-04-28T17:02:59Z</time></trkpt><trkpt lat="28.48023543976407" lon="-11.289885177163686"><ele>72.5</ele><time>2026-04-28T17:03:00Z</time></trkpt><trkpt lat="28.480224989014346" lon="-11.290158128676644"><ele>72.0</ele><time>2026-04-28T17:03:01Z</time></trkpt><trkpt lat="28.480216642948783" lon="-11.290435066942116"><ele>71.5</ele><time>2026-04-28T17:03:02Z</time></trkpt><trkpt lat="28.48020799713858" lon="-11.290720105336074"><ele>71.0</ele><time>2026-04-28T17:03:03Z</time></trkpt><trkpt lat="28.480196658109108" lon="-11.291015960875434"><ele>71.0</ele><time>2026-04-28T17:03:04Z</time></trkpt><trkpt lat="28.48018353938242" lon="-11.291312985717301"><ele>71.0</ele><time>2026-04-28T17:03:05Z</time></trkpt><trkpt lat="28.48017139226418" lon="-11.291613048946221"><ele>71.5</ele><time>2026-04-28T17:03:06Z</time></trkpt><trkpt lat="28.480159943125695" lon="-11.29191027253174"><ele>72.0</ele><time>2026-04-28T17:03:07Z</time></trkpt><trkpt lat="28.480149250665992" lon="-11.292203317126454"><ele>71.5</ele><time>2026-04-28T17:03:08Z</time></trkpt><trkpt lat="28.480139317524717" lon="-11.2924949419814"><ele>71.0</ele><time>2026-04-28T17:03:09Z</time></trkpt><trkpt lat="28.48012914255255" lon="-11.292784154459596"><ele>71.0</ele><time>2026-04-28T17:03:10Z</time></trkpt><trkpt lat="28.480117595247478" lon="-11.293069971104247"><ele>71.0</ele><time>2026-04-28T17:03:11Z</time></trkpt><trkpt lat="28.480106067695523" lon="-11.293349995787096"><ele>71.0</ele><time>2026-04-28T17:03:12Z</time></trkpt><trkpt lat="28.48009289142253" lon="-11.29362686192968"><ele>71.0</ele><time>2026-04-28T17:03:13Z</time></trkpt><trkpt lat="28.480082235712604" lon="-11.293896170216687"><ele>71.5</ele><time>2026-04-28T17:03:14Z</time></trkpt><trkpt lat="28.480072260536286" lon="-11.294161000855894"><ele>72.0</ele><time>2026-04-28T17:03:15Z</time></trkpt><trkpt lat="28.480063420139224" lon="-11.294426612220676"><ele>72.0</ele><time>2026-04-28T17:03:16Z</time></trkpt><trkpt lat="28.480055907909684" lon="-11.294695228157654"><ele>72.0</ele><time>2026-04-28T17:03:17Z</time></trkpt><trkpt lat="28.48004766222801" lon="-11.294964473210644"><ele>72.0</ele><time>2026-04-28T17:03:18Z</time></trkpt><trkpt lat="28.480038310104792" lon="-11.295226760356798"><ele>72.0</ele><time>2026-04-28T17:03:19Z</time></trkpt><trkpt lat="28.480026599058586" lon="-11.295489042724878"><ele>71.0</ele><time>2026-04-28T17:03:20Z</time></trkpt><trkpt lat="28.480016115357934" lon="-11.295747518707106"><ele>70.0</ele><time>2026-04-28T17:03:21Z</time></trkpt><trkpt lat="28.48000595704179" lon="-11.296003312772758"><ele>70.0</ele><time>2026-04-28T17:03:22Z</time></trkpt><trkpt lat="28.47999149239901" lon="-11.296265181057786"><ele>70.0</ele><time>2026-04-28T17:03:23Z</time></trkpt><trkpt lat="28.479973724693394" lon="-11.29652865434356"><ele>70.0</ele><time>2026-04-28T17:03:24Z</time></trkpt><trkpt lat="28.479959276807428" lon="-11.29679098164767"><ele>70.0</ele><time>2026-04-28T17:03:25Z</time></trkpt><trkpt lat="28.47994733446558" lon="-11.297056194214951"><ele>70.0</ele><time>2026-04-28T17:03:26Z</time></trkpt><trkpt lat="28.479934476514593" lon="-11.297325583005653"><ele>70.0</ele><time>2026-04-28T17:03:27Z</time></trkpt><trkpt lat="28.479923882891963" lon="-11.297596112354341"><ele>70.0</ele><time>2026-04-28T17:03:28Z</time></trkpt><trkpt lat="28.47991267501834" lon="-11.297867835668391"><ele>70.0</ele><time>2026-04-28T17:03:29Z</time></trkpt><trkpt lat="28.479904812235777" lon="-11.298145387679945"><ele>69.5</ele><time>2026-04-28T17:03:30Z</time></trkpt><trkpt lat="28.479896078992482" lon="-11.298427581304836"><ele>69.0</ele><time>2026-04-28T17:03:31Z</time></trkpt><trkpt lat="28.479882906386464" lon="-11.29870883528982"><ele>70.5</ele><time>2026-04-28T17:03:32Z</time></trkpt><trkpt lat="28.479871497286634" lon="-11.29898382611144"><ele>72.0</ele><time>2026-04-28T17:03:33Z</time></trkpt><trkpt lat="28.47985861409994" lon="-11.299255929408547"><ele>72.0</ele><time>2026-04-28T17:03:34Z</time></trkpt><trkpt lat="28.479843507513586" lon="-11.299533172333842"><ele>72.0</ele><time>2026-04-28T17:03:35Z</time></trkpt><trkpt lat="28.479834741496287" lon="-11.299806460264488"><ele>71.5</ele><time>2026-04-28T17:03:36Z</time></trkpt><trkpt lat="28.47982780845594" lon="-11.30007350309163"><ele>71.0</ele><time>2026-04-28T17:03:37Z</time></trkpt><trkpt lat="28.47982960346816" lon="-11.300336581547969"><ele>71.0</ele><time>2026-04-28T17:03:38Z</time></trkpt><trkpt lat="28.479838072344197" lon="-11.300589279974423"><ele>71.0</ele><time>2026-04-28T17:03:39Z</time></trkpt><trkpt lat="28.479852481760602" lon="-11.300840981994227"><ele>71.0</ele><time>2026-04-28T17:03:40Z</time></trkpt><trkpt lat="28.47987067940777" lon="-11.30108635251692"><ele>71.0</ele><time>2026-04-28T17:03:41Z</time></trkpt><trkpt lat="28.479892995014637" lon="-11.30133146959408"><ele>71.0</ele><time>2026-04-28T17:03:42Z</time></trkpt><trkpt lat="28.479921640685742" lon="-11.301571648768578"><ele>71.0</ele><time>2026-04-28T17:03:43Z</time></trkpt><trkpt lat="28.47995410936594" lon="-11.30181137995634"><ele>71.0</ele><time>2026-04-28T17:03:44Z</time></trkpt><trkpt lat="28.47999071213134" lon="-11.302053017911724"><ele>71.0</ele><time>2026-04-28T17:03:45Z</time></trkpt><trkpt lat="28.480031677928856" lon="-11.302291170277087"><ele>71.0</ele><time>2026-04-28T17:03:46Z</time></trkpt><trkpt lat="28.48007694558807" lon="-11.302526190624654"><ele>71.0</ele><time>2026-04-28T17:03:47Z</time></trkpt><trkpt lat="28.480130297552538" lon="-11.302757804308971"><ele>71.0</ele><time>2026-04-28T17:03:48Z</time></trkpt><trkpt lat="28.48018878185387" lon="-11.302988999188775"><ele>71.0</ele><time>2026-04-28T17:03:49Z</time></trkpt><trkpt lat="28.480232518021783" lon="-11.303217073756223"><ele>70.33333333333334</ele><time>2026-04-28T17:03:50Z</time></trkpt><trkpt lat="28.48028607479174" lon="-11.303436583059531"><ele>69.66666666666667</ele><time>2026-04-28T17:03:51Z</time></trkpt><trkpt lat="28.480342331053865" lon="-11.303648335620746"><ele>69.0</ele><time>2026-04-28T17:03:52Z</time></trkpt><trkpt lat="28.48039497195776" lon="-11.303846479645205"><ele>68.66666666666667</ele><time>2026-04-28T17:03:53Z</time></trkpt><trkpt lat="28.480444238206992" lon="-11.304033030594766"><ele>68.33333333333334</ele><time>2026-04-28T17:03:54Z</time></trkpt><trkpt lat="28.480490393504816" lon="-11.304207778847362"><ele>68.0</ele><time>2026-04-28T17:03:55Z</time></trkpt><trkpt lat="28.480534510546196" lon="-11.30437481004889"><ele>68.0</ele><time>2026-04-28T17:03:56Z</time></trkpt><trkpt lat="28.48057488314169" lon="-11.304527466498293"><ele>68.0</ele><time>2026-04-28T17:03:57Z</time></trkpt><trkpt lat="28.48061150589881" lon="-11.304665497132778"><ele>68.0</ele><time>2026-04-28T17:03:58Z</time></trkpt><trkpt lat="28.480644548829112" lon="-11.30478894780407"><ele>68.0</ele><time>2026-04-28T17:03:59Z</time></trkpt><trkpt lat="28.480676191829826" lon="-11.304908603833267"><ele>68.0</ele><time>2026-04-28T17:04:00Z</time></trkpt><trkpt lat="28.48070624854769" lon="-11.305022328434909"><ele>68.0</ele><time>2026-04-28T17:04:01Z</time></trkpt><trkpt lat="28.480734295934873" lon="-11.305128450381227"><ele>68.0</ele><time>2026-04-28T17:04:02Z</time></trkpt><trkpt lat="28.4807795915599" lon="-11.30521999211786"><ele>68.0</ele><time>2026-04-28T17:04:03Z</time></trkpt><trkpt lat="28.480807318158284" lon="-11.3053251494317"><ele>68.0</ele><time>2026-04-28T17:04:04Z</time></trkpt><trkpt lat="28.48083695779147" lon="-11.305428500894283"><ele>68.0</ele><time>2026-04-28T17:04:05Z</time></trkpt><trkpt lat="28.480874630998564" lon="-11.30553002166856"><ele>68.0</ele><time>2026-04-28T17:04:06Z</time></trkpt><trkpt lat="28.480923365344342" lon="-11.305627956419068"><ele>68.0</ele><time>2026-04-28T17:04:07Z</time></trkpt><trkpt lat="28.480986820282098" lon="-11.305730472700116"><ele>68.0</ele><time>2026-04-28T17:04:08Z</time></trkpt><trkpt lat="28.48103719153751" lon="-11.30583695563349"><ele>68.0</ele><time>2026-04-28T17:04:09Z</time></trkpt><trkpt lat="28.48107011069185" lon="-11.305950854984863"><ele>67.75</ele><time>2026-04-28T17:04:10Z</time></trkpt><trkpt lat="28.481074492609064" lon="-11.30607428346459"><ele>67.5</ele><time>2026-04-28T17:04:11Z</time></trkpt><trkpt lat="28.481079446202315" lon="-11.30620766940295"><ele>67.25</ele><time>2026-04-28T17:04:12Z</time></trkpt><trkpt lat="28.48109624504546" lon="-11.306344939438087"><ele>67.0</ele><time>2026-04-28T17:04:13Z</time></trkpt><trkpt lat="28.48112010625049" lon="-11.306473398279142"><ele>66.75</ele><time>2026-04-28T17:04:14Z</time></trkpt><trkpt lat="28.481149327061573" lon="-11.30660070907634"><ele>66.5</ele><time>2026-04-28T17:04:15Z</time></trkpt><trkpt lat="28.481184438410537" lon="-11.306731495495375"><ele>66.25</ele><time>2026-04-28T17:04:16Z</time></trkpt><trkpt lat="28.481222236962545" lon="-11.306867650681255"><ele>66.0</ele><time>2026-04-28T17:04:17Z</time></trkpt><trkpt lat="28.481259097785266" lon="-11.307007651339623"><ele>65.75</ele><time>2026-04-28T17:04:18Z</time></trkpt><trkpt lat="28.481295048006324" lon="-11.307146598157958"><ele>65.5</ele><time>2026-04-28T17:04:19Z</time></trkpt><trkpt lat="28.481331196837782" lon="-11.307281349056653"><ele>65.25</ele><time>2026-04-28T17:04:20Z</time></trkpt><trkpt lat="28.481367483927876" lon="-11.30741788570322"><ele>65.0</ele><time>2026-04-28T17:04:21Z</time></trkpt><trkpt lat="28.481406942110485" lon="-11.307562566309123"><ele>65.0</ele><time>2026-04-28T17:04:22Z</time></trkpt><trkpt lat="28.48144268078004" lon="-11.307709148390254"><ele>65.0</ele><time>2026-04-28T17:04:23Z</time></trkpt><trkpt lat="28.481484101428638" lon="-11.30786378950824"><ele>65.0</ele><time>2026-04-28T17:04:24Z</time></trkpt><trkpt lat="28.481527116251442" lon="-11.308024600706421"><ele>65.0</ele><time>2026-04-28T17:04:25Z</time></trkpt><trkpt lat="28.481570410389093" lon="-11.308192195167123"><ele>65.0</ele><time>2026-04-28T17:04:26Z</time></trkpt><trkpt lat="28.481615874541898" lon="-11.30836588925706"><ele>65.0</ele><time>2026-04-28T17:04:27Z</time></trkpt><trkpt lat="28.48166172771144" lon="-11.308541941463567"><ele>65.0</ele><time>2026-04-28T17:04:28Z</time></trkpt><trkpt lat="28.481710689263807" lon="-11.308726759362429"><ele>65.0</ele><time>2026-04-28T17:04:29Z</time></trkpt><trkpt lat="28.481761539450577" lon="-11.30890908753735"><ele>65.0</ele><time>2026-04-28T17:04:30Z</time></trkpt><trkpt lat="28.481812193302073" lon="-11.309097715530179"><ele>65.0</ele><time>2026-04-28T17:04:31Z</time></trkpt><trkpt lat="28.48186328504469" lon="-11.309288191263471"><ele>64.66666666666667</ele><time>2026-04-28T17:04:32Z</time></trkpt><trkpt lat="28.481913775921118" lon="-11.309480888917832"><ele>64.33333333333333</ele><time>2026-04-28T17:04:33Z</time></trkpt><trkpt lat="28.481966976416388" lon="-11.309684415242383"><ele>64.0</ele><time>2026-04-28T17:04:34Z</time></trkpt><trkpt lat="28.482024354423267" lon="-11.309897777642735"><ele>64.0</ele><time>2026-04-28T17:04:35Z</time></trkpt><trkpt lat="28.482081480658348" lon="-11.310116671338655"><ele>64.0</ele><time>2026-04-28T17:04:36Z</time></trkpt><trkpt lat="28.482141754478135" lon="-11.310346526306343"><ele>64.0</ele><time>2026-04-28T17:04:37Z</time></trkpt><trkpt lat="28.48220228198809" lon="-11.310577477680459"><ele>63.666666666666664</ele><time>2026-04-28T17:04:38Z</time></trkpt><trkpt lat="28.482262887218063" lon="-11.310804462121169"><ele>63.33333333333333</ele><time>2026-04-28T17:04:39Z</time></trkpt><trkpt lat="28.482321412817672" lon="-11.311028969332106"><ele>63.0</ele><time>2026-04-28T17:04:40Z</time></trkpt><trkpt lat="28.482381806569776" lon="-11.311254484615366"><ele>62.66666666666667</ele><time>2026-04-28T17:04:41Z</time></trkpt><trkpt lat="28.48244060015737" lon="-11.311476209915034"><ele>62.333333333333336</ele><time>2026-04-28T17:04:42Z</time></trkpt><trkpt lat="28.482499443229905" lon="-11.311694542488539"><ele>62.0</ele><time>2026-04-28T17:04:43Z</time></trkpt><trkpt lat="28.482559727117074" lon="-11.31191458703709"><ele>62.0</ele><time>2026-04-28T17:04:44Z</time></trkpt><trkpt lat="28.48261638273977" lon="-11.312131458436472"><ele>62.0</ele><time>2026-04-28T17:04:45Z</time></trkpt><trkpt lat="28.482673530646302" lon="-11.312346733434138"><ele>62.0</ele><time>2026-04-28T17:04:46Z</time></trkpt><trkpt lat="28.48272952835795" lon="-11.312561978141206"><ele>62.66666666666667</ele><time>2026-04-28T17:04:47Z</time></trkpt><trkpt lat="28.482785394299764" lon="-11.312773040426263"><ele>63.33333333333333</ele><time>2026-04-28T17:04:48Z</time></trkpt><trkpt lat="28.482841456036383" lon="-11.312982655491316"><ele>64.0</ele><time>2026-04-28T17:04:49Z</time></trkpt><trkpt lat="28.4828983042948" lon="-11.313191876881344"><ele>63.0</ele><time>2026-04-28T17:04:50Z</time></trkpt><trkpt lat="28.482953854219865" lon="-11.313402591682358"><ele>62.0</ele><time>2026-04-28T17:04:51Z</time></trkpt><trkpt lat="28.48301019057589" lon="-11.313617116832203"><ele>61.0</ele><time>2026-04-28T17:04:52Z</time></trkpt><trkpt lat="28.483066134252862" lon="-11.31383155259124"><ele>60.33333333333333</ele><time>2026-04-28T17:04:53Z</time></trkpt><trkpt lat="28.483122664414164" lon="-11.314048643685963"><ele>59.66666666666667</ele><time>2026-04-28T17:04:54Z</time></trkpt><trkpt lat="28.483181740706275" lon="-11.314266454635609"><ele>59.0</ele><time>2026-04-28T17:04:55Z</time></trkpt><trkpt lat="28.48324093852262" lon="-11.31448628258491"><ele>59.0</ele><time>2026-04-28T17:04:56Z</time></trkpt><trkpt lat="28.48330055450379" lon="-11.314706996740945"><ele>59.0</ele><time>2026-04-28T17:04:57Z</time></trkpt><trkpt lat="28.48335836349603" lon="-11.31492572431758"><ele>59.0</ele><time>2026-04-28T17:04:58Z</time></trkpt><trkpt lat="28.483414927425766" lon="-11.31514122554851"><ele>59.333333333333336</ele><time>2026-04-28T17:04:59Z</time></trkpt><trkpt lat="28.48346741826643" lon="-11.315345057311504"><ele>59.66666666666667</ele><time>2026-04-28T17:05:00Z</time></trkpt><trkpt lat="28.483517219765798" lon="-11.315537460837659"><ele>60.0</ele><time>2026-04-28T17:05:01Z</time></trkpt><trkpt lat="28.483566027595174" lon="-11.315721822325951"><ele>60.0</ele><time>2026-04-28T17:05:02Z</time></trkpt><trkpt lat="28.48361284463823" lon="-11.315894036489151"><ele>60.0</ele><time>2026-04-28T17:05:03Z</time></trkpt><trkpt lat="28.483658339775726" lon="-11.316057052428285"><ele>60.0</ele><time>2026-04-28T17:05:04Z</time></trkpt><trkpt lat="28.483700740642092" lon="-11.316212289953524"><ele>60.0</ele><time>2026-04-28T17:05:05Z</time></trkpt><trkpt lat="28.48368327508792" lon="-11.31637761635504"><ele>60.0</ele><time>2026-04-28T17:05:06Z</time></trkpt><trkpt lat="28.483721992481417" lon="-11.316530563705097"><ele>60.0</ele><time>2026-04-28T17:05:07Z</time></trkpt><trkpt lat="28.483765591792025" lon="-11.316703384422825"><ele>60.0</ele><time>2026-04-28T17:05:08Z</time></trkpt><trkpt lat="28.483817265633196" lon="-11.31688508145333"><ele>60.0</ele><time>2026-04-28T17:05:09Z</time></trkpt><trkpt lat="28.48387348145807" lon="-11.317075118284366"><ele>60.0</ele><time>2026-04-28T17:05:10Z</time></trkpt><trkpt lat="28.483929099924772" lon="-11.317260874973138"><ele>60.0</ele><time>2026-04-28T17:05:11Z</time></trkpt><trkpt lat="28.483981169788795" lon="-11.31743476156122"><ele>60.0</ele><time>2026-04-28T17:05:12Z</time></trkpt><trkpt lat="28.48403129452939" lon="-11.31760149652431"><ele>60.0</ele><time>2026-04-28T17:05:13Z</time></trkpt><trkpt lat="28.484083739001008" lon="-11.317777485629115"><ele>60.0</ele><time>2026-04-28T17:05:14Z</time></trkpt><trkpt lat="28.48414815319835" lon="-11.317947207281184"><ele>59.33333333333333</ele><time>2026-04-28T17:05:15Z</time></trkpt><trkpt lat="28.484192397043486" lon="-11.318120357249466"><ele>58.666666666666664</ele><time>2026-04-28T17:05:16Z</time></trkpt><trkpt lat="28.484242907760162" lon="-11.318296263409058"><ele>58.0</ele><time>2026-04-28T17:05:17Z</time></trkpt><trkpt lat="28.484298358240014" lon="-11.318473623942534"><ele>58.0</ele><time>2026-04-28T17:05:18Z</time></trkpt><trkpt lat="28.48435280225553" lon="-11.31865313448152"><ele>58.0</ele><time>2026-04-28T17:05:19Z</time></trkpt><trkpt lat="28.484407819690833" lon="-11.318829836164786"><ele>58.0</ele><time>2026-04-28T17:05:20Z</time></trkpt><trkpt lat="28.484443718252262" lon="-11.319011897601476"><ele>57.5</ele><time>2026-04-28T17:05:21Z</time></trkpt><trkpt lat="28.48449033422301" lon="-11.319182131617824"><ele>57.0</ele><time>2026-04-28T17:05:22Z</time></trkpt><trkpt lat="28.484533968201166" lon="-11.319341554894987"><ele>56.5</ele><time>2026-04-28T17:05:23Z</time></trkpt><trkpt lat="28.484575860540783" lon="-11.319495479940775"><ele>56.0</ele><time>2026-04-28T17:05:24Z</time></trkpt><trkpt lat="28.484630943703532" lon="-11.319639300712346"><ele>54.75</ele><time>2026-04-28T17:05:25Z</time></trkpt><trkpt lat="28.484666427034384" lon="-11.319781094852035"><ele>53.5</ele><time>2026-04-28T17:05:26Z</time></trkpt><trkpt lat="28.48470313936599" lon="-11.319917317539637"><ele>52.25</ele><time>2026-04-28T17:05:27Z</time></trkpt><trkpt lat="28.484739266330084" lon="-11.320058700831819"><ele>51.0</ele><time>2026-04-28T17:05:28Z</time></trkpt><trkpt lat="28.48477634945655" lon="-11.320207219949273"><ele>51.0</ele><time>2026-04-28T17:05:29Z</time></trkpt><trkpt lat="28.48481550293203" lon="-11.320367362716835"><ele>51.0</ele><time>2026-04-28T17:05:30Z</time></trkpt><trkpt lat="28.484855318727572" lon="-11.320535821900778"><ele>51.0</ele><time>2026-04-28T17:05:31Z</time></trkpt><trkpt lat="28.484893766382314" lon="-11.32070099721116"><ele>50.5</ele><time>2026-04-28T17:05:32Z</time></trkpt><trkpt lat="28.48493112955946" lon="-11.320855634186714"><ele>50.0</ele><time>2026-04-28T17:05:33Z</time></trkpt><trkpt lat="28.48496928910091" lon="-11.321002712098721"><ele>49.5</ele><time>2026-04-28T17:05:34Z</time></trkpt><trkpt lat="28.485008959263926" lon="-11.32114743221169"><ele>49.0</ele><time>2026-04-28T17:05:35Z</time></trkpt><trkpt lat="28.485049035468702" lon="-11.32129367647257"><ele>48.75</ele><time>2026-04-28T17:05:36Z</time></trkpt><trkpt lat="28.48509069273231" lon="-11.321444288603775"><ele>48.5</ele><time>2026-04-28T17:05:37Z</time></trkpt><trkpt lat="28.485133211405568" lon="-11.321590160508052"><ele>48.25</ele><time>2026-04-28T17:05:38Z</time></trkpt><trkpt lat="28.485174898081695" lon="-11.321736397334801"><ele>48.0</ele><time>2026-04-28T17:05:39Z</time></trkpt><trkpt lat="28.48522031046052" lon="-11.321893585574143"><ele>48.0</ele><time>2026-04-28T17:05:40Z</time></trkpt><trkpt lat="28.48526481557001" lon="-11.32204900432022"><ele>48.0</ele><time>2026-04-28T17:05:41Z</time></trkpt><trkpt lat="28.485307750888488" lon="-11.32219567660495"><ele>48.0</ele><time>2026-04-28T17:05:42Z</time></trkpt><trkpt lat="28.485346396857917" lon="-11.322334391349631"><ele>48.0</ele><time>2026-04-28T17:05:43Z</time></trkpt><trkpt lat="28.485370082073857" lon="-11.322468807586946"><ele>47.8</ele><time>2026-04-28T17:05:44Z</time></trkpt><trkpt lat="28.485412548920245" lon="-11.322584643683905"><ele>47.599999999999994</ele><time>2026-04-28T17:05:45Z</time></trkpt><trkpt lat="28.48545682649037" lon="-11.322689343441512"><ele>47.400000000000006</ele><time>2026-04-28T17:05:46Z</time></trkpt><trkpt lat="28.485501011050026" lon="-11.322787010593498"><ele>47.2</ele><time>2026-04-28T17:05:47Z</time></trkpt><trkpt lat="28.485547991803102" lon="-11.322885245853389"><ele>47.0</ele><time>2026-04-28T17:05:48Z</time></trkpt><trkpt lat="28.485558326090835" lon="-11.323002950522067"><ele>46.75</ele><time>2026-04-28T17:05:49Z</time></trkpt><trkpt lat="28.485560514311548" lon="-11.323126863517151"><ele>46.5</ele><time>2026-04-28T17:05:50Z</time></trkpt><trkpt lat="28.48556959058436" lon="-11.323258113357744"><ele>46.25</ele><time>2026-04-28T17:05:51Z</time></trkpt><trkpt lat="28.48559298237154" lon="-11.32339845043576"><ele>46.0</ele><time>2026-04-28T17:05:52Z</time></trkpt><trkpt lat="28.48562184944418" lon="-11.32353216895939"><ele>46.0</ele><time>2026-04-28T17:05:53Z</time></trkpt><trkpt lat="28.48565434515687" lon="-11.323652804293395"><ele>46.0</ele><time>2026-04-28T17:05:54Z</time></trkpt><trkpt lat="28.485687475610803" lon="-11.323771439201034"><ele>46.0</ele><time>2026-04-28T17:05:55Z</time></trkpt><trkpt lat="28.485720757718273" lon="-11.32389245159366"><ele>46.0</ele><time>2026-04-28T17:05:56Z</time></trkpt><trkpt lat="28.485756366589133" lon="-11.324018640027683"><ele>46.0</ele><time>2026-04-28T17:05:57Z</time></trkpt><trkpt lat="28.485791338954026" lon="-11.32414559543036"><ele>45.75</ele><time>2026-04-28T17:05:58Z</time></trkpt><trkpt lat="28.48582706639735" lon="-11.324280505686577"><ele>45.5</ele><time>2026-04-28T17:05:59Z</time></trkpt><trkpt lat="28.485864826449887" lon="-11.324418576430718"><ele>45.25</ele><time>2026-04-28T17:06:00Z</time></trkpt><trkpt lat="28.485902371791667" lon="-11.324560098456988"><ele>45.0</ele><time>2026-04-28T17:06:01Z</time></trkpt><trkpt lat="28.485941680889713" lon="-11.324704164336698"><ele>44.75</ele><time>2026-04-28T17:06:02Z</time></trkpt><trkpt lat="28.4859789781669" lon="-11.32484501517948"><ele>44.5</ele><time>2026-04-28T17:06:03Z</time></trkpt><trkpt lat="28.486014278411037" lon="-11.324986429479146"><ele>44.25</ele><time>2026-04-28T17:06:04Z</time></trkpt><trkpt lat="28.48605113563415" lon="-11.325126908199417"><ele>44.0</ele><time>2026-04-28T17:06:05Z</time></trkpt><trkpt lat="28.486092967267997" lon="-11.325274582325095"><ele>44.0</ele><time>2026-04-28T17:06:06Z</time></trkpt><trkpt lat="28.486134271761223" lon="-11.325426211150393"><ele>44.0</ele><time>2026-04-28T17:06:07Z</time></trkpt><trkpt lat="28.486175118568294" lon="-11.325576770157658"><ele>44.0</ele><time>2026-04-28T17:06:08Z</time></trkpt><trkpt lat="28.486217805316283" lon="-11.325732618863775"><ele>44.0</ele><time>2026-04-28T17:06:09Z</time></trkpt><trkpt lat="28.48626211837369" lon="-11.325889959657113"><ele>43.75</ele><time>2026-04-28T17:06:10Z</time></trkpt><trkpt lat="28.486301925094022" lon="-11.326045703252577"><ele>43.5</ele><time>2026-04-28T17:06:11Z</time></trkpt><trkpt lat="28.486339433010514" lon="-11.326200526919484"><ele>43.25</ele><time>2026-04-28T17:06:12Z</time></trkpt><trkpt lat="28.48638112201618" lon="-11.326351791990835"><ele>43.0</ele><time>2026-04-28T17:06:13Z</time></trkpt><trkpt lat="28.486421431721823" lon="-11.326502339932967"><ele>42.75</ele><time>2026-04-28T17:06:14Z</time></trkpt><trkpt lat="28.486463858286108" lon="-11.32665434084508"><ele>42.5</ele><time>2026-04-28T17:06:15Z</time></trkpt><trkpt lat="28.48650400525238" lon="-11.326803894159793"><ele>42.25</ele><time>2026-04-28T17:06:16Z</time></trkpt><trkpt lat="28.486543846827278" lon="-11.326953846641349"><ele>42.0</ele><time>2026-04-28T17:06:17Z</time></trkpt><trkpt lat="28.486577656102554" lon="-11.327102518780832"><ele>41.75</ele><time>2026-04-28T17:06:18Z</time></trkpt><trkpt lat="28.486619884081446" lon="-11.3272495926113"><ele>41.5</ele><time>2026-04-28T17:06:19Z</time></trkpt><trkpt lat="28.486654645291704" lon="-11.327397552185717"><ele>41.25</ele><time>2026-04-28T17:06:20Z</time></trkpt><trkpt lat="28.48669325032857" lon="-11.327543707130662"><ele>41.0</ele><time>2026-04-28T17:06:21Z</time></trkpt><trkpt lat="28.486729777677844" lon="-11.32769203476255"><ele>41.0</ele><time>2026-04-28T17:06:22Z</time></trkpt><trkpt lat="28.486769780082003" lon="-11.327838590483571"><ele>41.0</ele><time>2026-04-28T17:06:23Z</time></trkpt><trkpt lat="28.48680881029585" lon="-11.32798199678666"><ele>41.0</ele><time>2026-04-28T17:06:24Z</time></trkpt><trkpt lat="28.486850030080287" lon="-11.328129408471758"><ele>41.0</ele><time>2026-04-28T17:06:25Z</time></trkpt><trkpt lat="28.486889204832885" lon="-11.32827882864095"><ele>40.25</ele><time>2026-04-28T17:06:26Z</time></trkpt><trkpt lat="28.486930486287825" lon="-11.3284286579916"><ele>39.5</ele><time>2026-04-28T17:06:27Z</time></trkpt><trkpt lat="28.48696708717844" lon="-11.328580891056763"><ele>38.75</ele><time>2026-04-28T17:06:28Z</time></trkpt><trkpt lat="28.48700866730143" lon="-11.328731978350875"><ele>38.0</ele><time>2026-04-28T17:06:29Z</time></trkpt><trkpt lat="28.4870473100297" lon="-11.328882247006248"><ele>38.0</ele><time>2026-04-28T17:06:30Z</time></trkpt><trkpt lat="28.487086605427894" lon="-11.329030818049498"><ele>38.0</ele><time>2026-04-28T17:06:31Z</time></trkpt><trkpt lat="28.487127024792827" lon="-11.329179240433985"><ele>38.0</ele><time>2026-04-28T17:06:32Z</time></trkpt><trkpt lat="28.487166404670223" lon="-11.32933005163093"><ele>38.0</ele><time>2026-04-28T17:06:33Z</time></trkpt><trkpt lat="28.487207844042018" lon="-11.329483305495286"><ele>38.0</ele><time>2026-04-28T17:06:34Z</time></trkpt><trkpt lat="28.487248642465886" lon="-11.329622746198503"><ele>38.0</ele><time>2026-04-28T17:06:35Z</time></trkpt><trkpt lat="28.48727668434578" lon="-11.329751196550065"><ele>38.0</ele><time>2026-04-28T17:06:36Z</time></trkpt><trkpt lat="28.48730909014601" lon="-11.329865168704433"><ele>38.0</ele><time>2026-04-28T17:06:37Z</time></trkpt><trkpt lat="28.48733704512456" lon="-11.329969731694312"><ele>38.0</ele><time>2026-04-28T17:06:38Z</time></trkpt><trkpt lat="28.487360108029048" lon="-11.330064514945676"><ele>38.0</ele><time>2026-04-28T17:06:39Z</time></trkpt><trkpt lat="28.487384852273625" lon="-11.330161842007612"><ele>38.0</ele><time>2026-04-28T17:06:40Z</time></trkpt><trkpt lat="28.487412557344783" lon="-11.330269901675234"><ele>38.0</ele><time>2026-04-28T17:06:41Z</time></trkpt><trkpt lat="28.48743540244989" lon="-11.330369999259132"><ele>38.0</ele><time>2026-04-28T17:06:42Z</time></trkpt><trkpt lat="28.487452563189937" lon="-11.330461043306894"><ele>38.0</ele><time>2026-04-28T17:06:43Z</time></trkpt><trkpt lat="28.48747696150252" lon="-11.330556371887651"><ele>38.0</ele><time>2026-04-28T17:06:44Z</time></trkpt><trkpt lat="28.487507215287067" lon="-11.330641569289135"><ele>37.666666666666664</ele><time>2026-04-28T17:06:45Z</time></trkpt><trkpt lat="28.487529569268936" lon="-11.330710858840666"><ele>37.33333333333333</ele><time>2026-04-28T17:06:46Z</time></trkpt><trkpt lat="28.48759792605022" lon="-11.330762178304402"><ele>37.0</ele><time>2026-04-28T17:06:47Z</time></trkpt><trkpt lat="28.487660162766197" lon="-11.330822785882484"><ele>36.666666666666664</ele><time>2026-04-28T17:06:48Z</time></trkpt><trkpt lat="28.487721939261135" lon="-11.330870115597406"><ele>36.333333333333336</ele><time>2026-04-28T17:06:49Z</time></trkpt><trkpt lat="28.487804297944567" lon="-11.330911952278113"><ele>36.0</ele><time>2026-04-28T17:06:50Z</time></trkpt><trkpt lat="28.487901102980995" lon="-11.33094114862459"><ele>35.2</ele><time>2026-04-28T17:06:51Z</time></trkpt><trkpt lat="28.488000999314558" lon="-11.330962881410134"><ele>34.400000000000006</ele><time>2026-04-28T17:06:52Z</time></trkpt><trkpt lat="28.48810476078963" lon="-11.330977314455787"><ele>33.6</ele><time>2026-04-28T17:06:53Z</time></trkpt><trkpt lat="28.48821007074422" lon="-11.33099136351338"><ele>32.800000000000004</ele><time>2026-04-28T17:06:54Z</time></trkpt><trkpt lat="28.488318876433773" lon="-11.331011988562993"><ele>32.0</ele><time>2026-04-28T17:06:55Z</time></trkpt><trkpt lat="28.488430124709417" lon="-11.331032884109097"><ele>32.0</ele><time>2026-04-28T17:06:56Z</time></trkpt><trkpt lat="28.488546702193116" lon="-11.331059180357533"><ele>32.0</ele><time>2026-04-28T17:06:57Z</time></trkpt><trkpt lat="28.488667226481986" lon="-11.331092043978684"><ele>32.0</ele><time>2026-04-28T17:06:58Z</time></trkpt><trkpt lat="28.488791085707252" lon="-11.33111763239774"><ele>32.0</ele><time>2026-04-28T17:06:59Z</time></trkpt><trkpt lat="28.488918184447574" lon="-11.331139611419955"><ele>32.0</ele><time>2026-04-28T17:07:00Z</time></trkpt><trkpt lat="28.48904557393994" lon="-11.3311681737449"><ele>32.0</ele><time>2026-04-28T17:07:01Z</time></trkpt><trkpt lat="28.48916760599407" lon="-11.331209259758946"><ele>32.0</ele><time>2026-04-28T17:07:02Z</time></trkpt><trkpt lat="28.489296513923918" lon="-11.331237355820823"><ele>32.0</ele><time>2026-04-28T17:07:03Z</time></trkpt><trkpt lat="28.489423905232396" lon="-11.331269026830988"><ele>32.0</ele><time>2026-04-28T17:07:04Z</time></trkpt><trkpt lat="28.4895538003569" lon="-11.331298649989854"><ele>32.0</ele><time>2026-04-28T17:07:05Z</time></trkpt><trkpt lat="28.489679569935397" lon="-11.33132491343559"><ele>32.0</ele><time>2026-04-28T17:07:06Z</time></trkpt><trkpt lat="28.48980885015345" lon="-11.3313575674116"><ele>32.0</ele><time>2026-04-28T17:07:07Z</time></trkpt><trkpt lat="28.489945229220556" lon="-11.33138996640189"><ele>32.0</ele><time>2026-04-28T17:07:08Z</time></trkpt><trkpt lat="28.4900876886534" lon="-11.331424175121809"><ele>32.0</ele><time>2026-04-28T17:07:09Z</time></trkpt><trkpt lat="28.49023573955464" lon="-11.331459503343018"><ele>32.0</ele><time>2026-04-28T17:07:10Z</time></trkpt><trkpt lat="28.49038181032703" lon="-11.331498901266869"><ele>32.0</ele><time>2026-04-28T17:07:11Z</time></trkpt><trkpt lat="28.49052855101044" lon="-11.331542926455377"><ele>32.0</ele><time>2026-04-28T17:07:12Z</time></trkpt><trkpt lat="28.49067916054112" lon="-11.331560568099066"><ele>32.0</ele><time>2026-04-28T17:07:13Z</time></trkpt><trkpt lat="28.490819675186692" lon="-11.331594185236105"><ele>32.0</ele><time>2026-04-28T17:07:14Z</time></trkpt><trkpt lat="28.4909466397844" lon="-11.331624571036771"><ele>32.0</ele><time>2026-04-28T17:07:15Z</time></trkpt><trkpt lat="28.491065290717764" lon="-11.331652975747696"><ele>32.0</ele><time>2026-04-28T17:07:16Z</time></trkpt><trkpt lat="28.49118084305903" lon="-11.331680638672784"><ele>32.0</ele><time>2026-04-28T17:07:17Z</time></trkpt><trkpt lat="28.491297053856773" lon="-11.331708459103751"><ele>32.0</ele><time>2026-04-28T17:07:18Z</time></trkpt><trkpt lat="28.49141397060296" lon="-11.331738230001504"><ele>32.0</ele><time>2026-04-28T17:07:19Z</time></trkpt><trkpt lat="28.49153480488349" lon="-11.331768238272922"><ele>31.75</ele><time>2026-04-28T17:07:20Z</time></trkpt><trkpt lat="28.491653554257265" lon="-11.331797696663347"><ele>31.5</ele><time>2026-04-28T17:07:21Z</time></trkpt><trkpt lat="28.491774210502893" lon="-11.331827628098928"><ele>31.25</ele><time>2026-04-28T17:07:22Z</time></trkpt><trkpt lat="28.491900432864547" lon="-11.331859239518305"><ele>31.0</ele><time>2026-04-28T17:07:23Z</time></trkpt><trkpt lat="28.4920232054716" lon="-11.33190796920407"><ele>30.75</ele><time>2026-04-28T17:07:24Z</time></trkpt><trkpt lat="28.492150994878834" lon="-11.331931518886677"><ele>30.5</ele><time>2026-04-28T17:07:25Z</time></trkpt><trkpt lat="28.492268443870074" lon="-11.331962336378563"><ele>30.25</ele><time>2026-04-28T17:07:26Z</time></trkpt><trkpt lat="28.492376486333995" lon="-11.33198978716063"><ele>30.0</ele><time>2026-04-28T17:07:27Z</time></trkpt><trkpt lat="28.492473344181374" lon="-11.332010154517135"><ele>30.0</ele><time>2026-04-28T17:07:28Z</time></trkpt><trkpt lat="28.492558878890126" lon="-11.332030473804899"><ele>30.0</ele><time>2026-04-28T17:07:29Z</time></trkpt><trkpt lat="28.492633597634946" lon="-11.332048548820643"><ele>30.0</ele><time>2026-04-28T17:07:30Z</time></trkpt><trkpt lat="28.492702564582025" lon="-11.332068458302219"><ele>30.0</ele><time>2026-04-28T17:07:31Z</time></trkpt><trkpt lat="28.492764094619066" lon="-11.332087625700474"><ele>30.0</ele><time>2026-04-28T17:07:32Z</time></trkpt><trkpt lat="28.49287784786472" lon="-11.332098431214622"><ele>30.0</ele><time>2026-04-28T17:07:34Z</time></trkpt><trkpt lat="28.492944691038158" lon="-11.332131813672746"><ele>30.25</ele><time>2026-04-28T17:07:36Z</time></trkpt><trkpt lat="28.492899857645373" lon="-11.332382727946449"><ele>30.5</ele><time>2026-04-28T17:07:37Z</time></trkpt><trkpt lat="28.49286997845016" lon="-11.332477254747882"><ele>30.75</ele><time>2026-04-28T17:07:38Z</time></trkpt><trkpt lat="28.492838184870607" lon="-11.332574942735445"><ele>31.0</ele><time>2026-04-28T17:07:39Z</time></trkpt><trkpt lat="28.49281119297821" lon="-11.332681891858462"><ele>31.0</ele><time>2026-04-28T17:07:40Z</time></trkpt><trkpt lat="28.492783667027414" lon="-11.33278648674134"><ele>31.0</ele><time>2026-04-28T17:07:41Z</time></trkpt><trkpt lat="28.492764078958388" lon="-11.33289634409047"><ele>31.0</ele><time>2026-04-28T17:07:42Z</time></trkpt><trkpt lat="28.492737073407937" lon="-11.333014444551665"><ele>31.0</ele><time>2026-04-28T17:07:43Z</time></trkpt><trkpt lat="28.49270256338927" lon="-11.333142112162411"><ele>31.0</ele><time>2026-04-28T17:07:44Z</time></trkpt><trkpt lat="28.492667528035312" lon="-11.333276237089217"><ele>30.200000000000003</ele><time>2026-04-28T17:07:45Z</time></trkpt><trkpt lat="28.49263532270464" lon="-11.33340289692904"><ele>29.400000000000002</ele><time>2026-04-28T17:07:46Z</time></trkpt><trkpt lat="28.492603906196972" lon="-11.333524330455111"><ele>28.6</ele><time>2026-04-28T17:07:47Z</time></trkpt><trkpt lat="28.492572870526406" lon="-11.333643733315121"><ele>27.8</ele><time>2026-04-28T17:07:48Z</time></trkpt><trkpt lat="28.492543403943188" lon="-11.333757073599962"><ele>27.0</ele><time>2026-04-28T17:07:49Z</time></trkpt><trkpt lat="28.49251840960692" lon="-11.333864726169084"><ele>25.400000000000002</ele><time>2026-04-28T17:07:50Z</time></trkpt><trkpt lat="28.49249564432546" lon="-11.333965755576173"><ele>23.800000000000004</ele><time>2026-04-28T17:07:51Z</time></trkpt><trkpt lat="28.49246622229978" lon="-11.334072950756028"><ele>22.2</ele><time>2026-04-28T17:07:52Z</time></trkpt><trkpt lat="28.492438609413018" lon="-11.334183932138071"><ele>20.6</ele><time>2026-04-28T17:07:53Z</time></trkpt><trkpt lat="28.492412596807178" lon="-11.334283494452416"><ele>19.0</ele><time>2026-04-28T17:07:54Z</time></trkpt><trkpt lat="28.49238669882461" lon="-11.33437715988218"><ele>19.0</ele><time>2026-04-28T17:07:55Z</time></trkpt><trkpt lat="28.492363107015745" lon="-11.334472036693775"><ele>19.0</ele><time>2026-04-28T17:07:56Z</time></trkpt><trkpt lat="28.492334976053748" lon="-11.334578093781564"><ele>19.0</ele><time>2026-04-28T17:07:57Z</time></trkpt><trkpt lat="28.49230875066027" lon="-11.334682111931416"><ele>19.0</ele><time>2026-04-28T17:07:58Z</time></trkpt><trkpt lat="28.4922849885231" lon="-11.334789889243696"><ele>19.0</ele><time>2026-04-28T17:07:59Z</time></trkpt><trkpt lat="28.492263741620334" lon="-11.334886757652557"><ele>18.2</ele><time>2026-04-28T17:08:00Z</time></trkpt><trkpt lat="28.49224223382299" lon="-11.334988378669587"><ele>17.4</ele><time>2026-04-28T17:08:01Z</time></trkpt><trkpt lat="28.492216196789627" lon="-11.335090627195024"><ele>16.6</ele><time>2026-04-28T17:08:02Z</time></trkpt><trkpt lat="28.492191417765692" lon="-11.335186446636195"><ele>15.8</ele><time>2026-04-28T17:08:03Z</time></trkpt><trkpt lat="28.492163562843544" lon="-11.335280682793751"><ele>15.0</ele><time>2026-04-28T17:08:04Z</time></trkpt><trkpt lat="28.49213411006982" lon="-11.335382381722091"><ele>15.0</ele><time>2026-04-28T17:08:05Z</time></trkpt><trkpt lat="28.49210982079088" lon="-11.335491226687628"><ele>15.0</ele><time>2026-04-28T17:08:06Z</time></trkpt><trkpt lat="28.492084824878905" lon="-11.33560091426292"><ele>15.0</ele><time>2026-04-28T17:08:07Z</time></trkpt><trkpt lat="28.492057088671316" lon="-11.335712059818327"><ele>15.0</ele><time>2026-04-28T17:08:08Z</time></trkpt><trkpt lat="28.492031285095525" lon="-11.33581752230718"><ele>15.0</ele><time>2026-04-28T17:08:09Z</time></trkpt><trkpt lat="28.492006347338982" lon="-11.335921156696118"><ele>15.0</ele><time>2026-04-28T17:08:10Z</time></trkpt><trkpt lat="28.4919806469921" lon="-11.336024590141207"><ele>15.0</ele><time>2026-04-28T17:08:11Z</time></trkpt><trkpt lat="28.491954049985388" lon="-11.336126406306835"><ele>15.0</ele><time>2026-04-28T17:08:12Z</time></trkpt><trkpt lat="28.491931715241286" lon="-11.336221380996466"><ele>15.0</ele><time>2026-04-28T17:08:13Z</time></trkpt><trkpt lat="28.491912438798348" lon="-11.336306756023696"><ele>15.0</ele><time>2026-04-28T17:08:14Z</time></trkpt><trkpt lat="28.491893468909275" lon="-11.33638374137826"><ele>15.0</ele><time>2026-04-28T17:08:15Z</time></trkpt><trkpt lat="28.49186057688519" lon="-11.336511916349329"><ele>15.166666666666666</ele><time>2026-04-28T17:08:17Z</time></trkpt><trkpt lat="28.491830846542218" lon="-11.336629193069554"><ele>15.333333333333332</ele><time>2026-04-28T17:08:19Z</time></trkpt><trkpt lat="28.49180364706818" lon="-11.336719797909556"><ele>15.5</ele><time>2026-04-28T17:08:21Z</time></trkpt><trkpt lat="28.491776266685434" lon="-11.336797131299042"><ele>15.666666666666666</ele><time>2026-04-28T17:08:23Z</time></trkpt><trkpt lat="28.491749267877758" lon="-11.336895718294663"><ele>15.833333333333332</ele><time>2026-04-28T17:08:25Z</time></trkpt><trkpt lat="28.491740912277535" lon="-11.336976350206063"><ele>16.0</ele><time>2026-04-28T17:08:27Z</time></trkpt><trkpt lat="28.49173054913269" lon="-11.337066862186893"><ele>16.0</ele><time>2026-04-28T17:08:29Z</time></trkpt><trkpt lat="28.491709143626164" lon="-11.33714712405438"><ele>16.0</ele><time>2026-04-28T17:08:33Z</time></trkpt><trkpt lat="28.491668192706992" lon="-11.33720174737246"><ele>16.0</ele><time>2026-04-28T17:08:34Z</time></trkpt><trkpt lat="28.491576210727626" lon="-11.337260496073082"><ele>16.0</ele><time>2026-04-28T17:08:36Z</time></trkpt><trkpt lat="28.491519017695502" lon="-11.33730545618542"><ele>16.0</ele><time>2026-04-28T17:08:39Z</time></trkpt><trkpt lat="28.4915756119166" lon="-11.337473792469138"><ele>15.666666666666666</ele><time>2026-04-28T17:08:50Z</time></trkpt><trkpt lat="28.49161519639854" lon="-11.33753646790339"><ele>15.333333333333332</ele><time>2026-04-28T17:08:54Z</time></trkpt><trkpt lat="28.4916590811627" lon="-11.337591535929977"><ele>15.0</ele><time>2026-04-28T17:08:57Z</time></trkpt><trkpt lat="28.491700613352172" lon="-11.337674502227761"><ele>14.666666666666668</ele><time>2026-04-28T17:09:33Z</time></trkpt><trkpt lat="28.491692181767327" lon="-11.337771008782344"><ele>14.333333333333334</ele><time>2026-04-28T17:09:36Z</time></trkpt><trkpt lat="28.491615604225416" lon="-11.337819676037817"><ele>14.0</ele><time>2026-04-28T17:09:39Z</time></trkpt><trkpt lat="28.491544549893035" lon="-11.337776392381404"><ele>14.000000000000002</ele><time>2026-04-28T17:09:41Z</time></trkpt><trkpt lat="28.49150029574566" lon="-11.337714660536877"><ele>14.0</ele><time>2026-04-28T17:09:43Z</time></trkpt><trkpt lat="28.491434478380327" lon="-11.337700059848197"><ele>14.0</ele><time>2026-04-28T17:09:47Z</time></trkpt><trkpt lat="28.49143431525447" lon="-11.337784595001125"><ele>14.0</ele><time>2026-04-28T17:09:49Z</time></trkpt><trkpt lat="28.491497651901415" lon="-11.337805287987752"><ele>14.000000000000002</ele><time>2026-04-28T17:09:51Z</time></trkpt><trkpt lat="28.491573017324402" lon="-11.337721494710115"><ele>14.0</ele><time>2026-04-28T17:09:53Z</time></trkpt><trkpt lat="28.491602126164246" lon="-11.337592027474843"><ele>14.000000000000002</ele><time>2026-04-28T17:09:55Z</time></trkpt><trkpt lat="28.491588288764806" lon="-11.337476962249822"><ele>14.0</ele><time>2026-04-28T17:09:57Z</time></trkpt><trkpt lat="28.491566205004606" lon="-11.337408668239394"><ele>14.0</ele><time>2026-04-28T17:09:59Z</time></trkpt><trkpt lat="28.491574904369894" lon="-11.337328558110999"><ele>14.0</ele><time>2026-04-28T17:10:01Z</time></trkpt><trkpt lat="28.49163239308214" lon="-11.337205862571144"><ele>14.000000000000002</ele><time>2026-04-28T17:10:03Z</time></trkpt><trkpt lat="28.491692623865777" lon="-11.33715800784788"><ele>14.0</ele><time>2026-04-28T17:10:04Z</time></trkpt><trkpt lat="28.49176828972452" lon="-11.337119197456817"><ele>13.799999999999999</ele><time>2026-04-28T17:10:05Z</time></trkpt><trkpt lat="28.49185815060644" lon="-11.337071446502103"><ele>13.599999999999998</ele><time>2026-04-28T17:10:06Z</time></trkpt><trkpt lat="28.49195501155656" lon="-11.337013469894515"><ele>13.4</ele><time>2026-04-28T17:10:07Z</time></trkpt><trkpt lat="28.492028721773437" lon="-11.336899202294216"><ele>13.2</ele><time>2026-04-28T17:10:08Z</time></trkpt><trkpt lat="28.492128996231685" lon="-11.336833107529092"><ele>13.0</ele><time>2026-04-28T17:10:09Z</time></trkpt><trkpt lat="28.492230453457296" lon="-11.336765659482873"><ele>13.0</ele><time>2026-04-28T17:10:10Z</time></trkpt><trkpt lat="28.49232871417899" lon="-11.336700549833683"><ele>13.0</ele><time>2026-04-28T17:10:11Z</time></trkpt><trkpt lat="28.492426859046873" lon="-11.336635582466519"><ele>13.0</ele><time>2026-04-28T17:10:12Z</time></trkpt><trkpt lat="28.49251535852243" lon="-11.336576999926294"><ele>13.0</ele><time>2026-04-28T17:10:13Z</time></trkpt><trkpt lat="28.49259504773541" lon="-11.33652424933449"><ele>13.0</ele><time>2026-04-28T17:10:14Z</time></trkpt><trkpt lat="28.49266522477773" lon="-11.336477795544305"><ele>12.999999999999998</ele><time>2026-04-28T17:10:15Z</time></trkpt><trkpt lat="28.492732017694085" lon="-11.336446056804618"><ele>13.0</ele><time>2026-04-28T17:10:16Z</time></trkpt><trkpt lat="28.492795303363557" lon="-11.336423145513772"><ele>13.0</ele><time>2026-04-28T17:10:17Z</time></trkpt><trkpt lat="28.49289785553035" lon="-11.336343370279995"><ele>13.0</ele><time>2026-04-28T17:10:19Z</time></trkpt><trkpt lat="28.4929587079603" lon="-11.336308672760984"><ele>12.999999999999998</ele><time>2026-04-28T17:10:20Z</time></trkpt><trkpt lat="28.493023453989302" lon="-11.336294409049808"><ele>13.0</ele><time>2026-04-28T17:10:21Z</time></trkpt><trkpt lat="28.493108173393654" lon="-11.336273200061015"><ele>13.0</ele><time>2026-04-28T17:10:22Z</time></trkpt><trkpt lat="28.493204248835927" lon="-11.33625175188672"><ele>13.0</ele><time>2026-04-28T17:10:23Z</time></trkpt><trkpt lat="28.493301445590294" lon="-11.336222008389678"><ele>13.0</ele><time>2026-04-28T17:10:24Z</time></trkpt><trkpt lat="28.493399558579956" lon="-11.336198704572919"><ele>13.0</ele><time>2026-04-28T17:10:25Z</time></trkpt><trkpt lat="28.493496782080094" lon="-11.33617517179843"><ele>13.0</ele><time>2026-04-28T17:10:26Z</time></trkpt><trkpt lat="28.49359664127141" lon="-11.336150417868351"><ele>12.999999999999998</ele><time>2026-04-28T17:10:27Z</time></trkpt><trkpt lat="28.493685209540004" lon="-11.336130610622904"><ele>13.0</ele><time>2026-04-28T17:10:28Z</time></trkpt><trkpt lat="28.49376598281454" lon="-11.33611166150986"><ele>13.0</ele><time>2026-04-28T17:10:29Z</time></trkpt><trkpt lat="28.493836447167006" lon="-11.336087353373616"><ele>13.0</ele><time>2026-04-28T17:10:30Z</time></trkpt><trkpt lat="28.49390497550458" lon="-11.336060878446443"><ele>12.999999999999998</ele><time>2026-04-28T17:10:31Z</time></trkpt><trkpt lat="28.493969115358908" lon="-11.33604968114852"><ele>13.0</ele><time>2026-04-28T17:10:32Z</time></trkpt><trkpt lat="28.494049798559438" lon="-11.33602742054501"><ele>12.333333333333332</ele><time>2026-04-28T17:10:34Z</time></trkpt><trkpt lat="28.494093363031613" lon="-11.336190500534538"><ele>11.666666666666666</ele><time>2026-04-28T17:10:37Z</time></trkpt><trkpt lat="28.494121255905455" lon="-11.336271565545134"><ele>11.0</ele><time>2026-04-28T17:10:41Z</time></trkpt><trkpt lat="28.494140390324304" lon="-11.336359140941644"><ele>10.333333333333332</ele><time>2026-04-28T17:10:45Z</time></trkpt><trkpt lat="28.494166886018018" lon="-11.336427727554248"><ele>9.666666666666666</ele><time>2026-04-28T17:10:49Z</time></trkpt><trkpt lat="28.49417503150044" lon="-11.336509193421739"><ele>9.0</ele><time>2026-04-28T17:14:23Z</time></trkpt><trkpt lat="28.49427200316409" lon="-11.336450606728029"><ele>9.000000000000002</ele><time>2026-04-28T17:14:24Z</time></trkpt><trkpt lat="28.494342345570253" lon="-11.336430288261111"><ele>9.0</ele><time>2026-04-28T17:14:27Z</time></trkpt><trkpt lat="28.494409768182052" lon="-11.336410813197876"><ele>9.0</ele><time>2026-04-28T17:14:30Z</time></trkpt><trkpt lat="28.494471001714547" lon="-11.336392961144297"><ele>9.0</ele><time>2026-04-28T17:14:33Z</time></trkpt><trkpt lat="28.494533197343582" lon="-11.336374823666972"><ele>9.0</ele><time>2026-04-28T17:14:37Z</time></trkpt><trkpt lat="28.49460921551019" lon="-11.336352655384974"><ele>9.000000000000002</ele><time>2026-04-28T17:14:41Z</time></trkpt><trkpt lat="28.49468326444713" lon="-11.336331061364636"><ele>9.0</ele><time>2026-04-28T17:14:45Z</time></trkpt><trkpt lat="28.494747198550613" lon="-11.336312417014248"><ele>9.0</ele><time>2026-04-28T17:14:48Z</time></trkpt><trkpt lat="28.494811075215573" lon="-11.336293789413714"><ele>9.0</ele><time>2026-04-28T17:14:51Z</time></trkpt><trkpt lat="28.49487541581028" lon="-11.336298814590346"><ele>9.0</ele><time>2026-04-28T17:14:55Z</time></trkpt><trkpt lat="28.494928055754347" lon="-11.336526309497245"><ele>9.0</ele><time>2026-04-28T17:14:56Z</time></trkpt><trkpt lat="28.494883117245344" lon="-11.336600189793348"><ele>9.0</ele><time>2026-04-28T17:14:59Z</time></trkpt><trkpt lat="28.49479890366695" lon="-11.33656699325627"><ele>8.000000000000002</ele><time>2026-04-28T17:15:01Z</time></trkpt><trkpt lat="28.494745001846006" lon="-11.336616622546746"><ele>7.0</ele><time>2026-04-28T17:15:50Z</time></trkpt><trkpt lat="28.49480392943339" lon="-11.336652209151561"><ele>6.0</ele><time>2026-04-28T17:15:55Z</time></trkpt><trkpt lat="28.49479525387889" lon="-11.336558234710115"><ele>5.0</ele><time>2026-04-28T17:25:47.002Z</time></trkpt><trkpt lat="28.494748500730243" lon="-11.336503386216489"><ele>4.0</ele><time>2026-04-28T17:25:53Z</time></trkpt><trkpt lat="28.49468903414469" lon="-11.336530021818648"><ele>3.0</ele><time>2026-04-28T17:26:02Z</time></trkpt><trkpt lat="28.49462901242354" lon="-11.336489067348333"><ele>2.0</ele><time>2026-04-28T17:26:12Z</time></trkpt><trkpt lat="28.494616060761352" lon="-11.336569979047498"><ele>2.0</ele><time>2026-04-28T17:26:35Z</time></trkpt><trkpt lat="28.494682624031316" lon="-11.336581455554194"><ele>2.0</ele><time>2026-04-28T17:26:49Z</time></trkpt><trkpt lat="28.49473340625802" lon="-11.336523098541376"><ele>2.0</ele><time>2026-04-28T17:26:57Z</time></trkpt><trkpt lat="28.49479602969509" lon="-11.336497689819977"><ele>2.0</ele><time>2026-04-28T17:27:03Z</time></trkpt><trkpt lat="28.494837670117477" lon="-11.336434427196936"><ele>2.0</ele><time>2026-04-28T17:27:09Z</time></trkpt><trkpt lat="28.494774528460322" lon="-11.336516009987163"><ele>2.0</ele><time>2026-04-28T17:27:43.998Z</time></trkpt></trkseg></trk></gpx>